<?xml version='1.0' encoding='UTF-8'?><gpx version="1.1" creator="JPX - https://github.com/jenetics/jpx" xmlns="http://www.topografix.com/GPX/1/1"><trk><trkseg><trkpt lat="44.9157025" lon="7.4233657"><ele>288.0</ele><time>2026-04-21T05:35:04.028Z</time></trkpt><trkpt lat="44.9157171" lon="7.4234715"><ele>288.0</ele><time>2026-04-21T05:35:06.027Z</time></trkpt><trkpt lat="44.9157777" lon="7.4235872"><ele>288.0</ele><time>2026-04-21T05:35:08.049Z</time></trkpt><trkpt lat="44.9158679" lon="7.4236547"><ele>288.0</ele><time>2026-04-21T05:35:10.033Z</time></trkpt><trkpt lat="44.9159344" lon="7.4236196"><ele>288.0</ele><time>2026-04-21T05:35:12.034Z</time></trkpt><trkpt lat="44.9159922" lon="7.4235447"><ele>288.0</ele><time>2026-04-21T05:35:14.036Z</time></trkpt><trkpt lat="44.9160705" lon="7.4234659"><ele>287.8333333333333</ele><time>2026-04-21T05:35:16.04Z</time></trkpt><trkpt lat="44.9161555" lon="7.4233686"><ele>287.6666666666667</ele><time>2026-04-21T05:35:18.039Z</time></trkpt><trkpt lat="44.916207" lon="7.4233137"><ele>287.5</ele><time>2026-04-21T05:35:22.03Z</time></trkpt><trkpt lat="44.9162624" lon="7.4233646"><ele>287.33333333333337</ele><time>2026-04-21T05:35:24.041Z</time></trkpt><trkpt lat="44.9163042" lon="7.4234413"><ele>287.1666666666667</ele><time>2026-04-21T05:35:25.037Z</time></trkpt><trkpt lat="44.9163557" lon="7.4235523"><ele>287.0</ele><time>2026-04-21T05:35:26.039Z</time></trkpt><trkpt lat="44.9164144" lon="7.4236901"><ele>287.0</ele><time>2026-04-21T05:35:27.041Z</time></trkpt><trkpt lat="44.9164716" lon="7.4238284"><ele>287.0</ele><time>2026-04-21T05:35:28.039Z</time></trkpt><trkpt lat="44.9165308" lon="7.4239683"><ele>287.0</ele><time>2026-04-21T05:35:29.039Z</time></trkpt><trkpt lat="44.9165979" lon="7.4241138"><ele>287.0</ele><time>2026-04-21T05:35:30.041Z</time></trkpt><trkpt lat="44.9166625" lon="7.4242369"><ele>287.0</ele><time>2026-04-21T05:35:31.028Z</time></trkpt><trkpt lat="44.9167075" lon="7.4243366"><ele>287.0</ele><time>2026-04-21T05:35:32.043Z</time></trkpt><trkpt lat="44.9166913" lon="7.4244676"><ele>287.0</ele><time>2026-04-21T05:35:34.035Z</time></trkpt><trkpt lat="44.9166399" lon="7.4245271"><ele>287.0</ele><time>2026-04-21T05:35:35.039Z</time></trkpt><trkpt lat="44.9165767" lon="7.4245995"><ele>287.0</ele><time>2026-04-21T05:35:36.048Z</time></trkpt><trkpt lat="44.9164974" lon="7.424691"><ele>287.0</ele><time>2026-04-21T05:35:37.034Z</time></trkpt><trkpt lat="44.9164151" lon="7.4248009"><ele>286.5</ele><time>2026-04-21T05:35:38.047Z</time></trkpt><trkpt lat="44.9163288" lon="7.4249304"><ele>286.0</ele><time>2026-04-21T05:35:39.037Z</time></trkpt><trkpt lat="44.9162403" lon="7.4250785"><ele>285.5</ele><time>2026-04-21T05:35:40.028Z</time></trkpt><trkpt lat="44.9161474" lon="7.4252176"><ele>285.0</ele><time>2026-04-21T05:35:41.045Z</time></trkpt><trkpt lat="44.9160522" lon="7.4253612"><ele>285.25</ele><time>2026-04-21T05:35:42.029Z</time></trkpt><trkpt lat="44.9159542" lon="7.425512"><ele>285.5</ele><time>2026-04-21T05:35:43.043Z</time></trkpt><trkpt lat="44.9158526" lon="7.4256681"><ele>285.75</ele><time>2026-04-21T05:35:44.032Z</time></trkpt><trkpt lat="44.9157466" lon="7.4258251"><ele>286.0</ele><time>2026-04-21T05:35:45.043Z</time></trkpt><trkpt lat="44.9156406" lon="7.425984"><ele>286.0</ele><time>2026-04-21T05:35:46.035Z</time></trkpt><trkpt lat="44.9155426" lon="7.4261543"><ele>286.0</ele><time>2026-04-21T05:35:47.051Z</time></trkpt><trkpt lat="44.9154555" lon="7.426337"><ele>286.0</ele><time>2026-04-21T05:35:48.038Z</time></trkpt><trkpt lat="44.9153898" lon="7.4265341"><ele>286.0</ele><time>2026-04-21T05:35:49.041Z</time></trkpt><trkpt lat="44.9153445" lon="7.4267502"><ele>286.0</ele><time>2026-04-21T05:35:50.039Z</time></trkpt><trkpt lat="44.9153103" lon="7.4269746"><ele>286.0</ele><time>2026-04-21T05:35:51.043Z</time></trkpt><trkpt lat="44.9152798" lon="7.4271953"><ele>286.0</ele><time>2026-04-21T05:35:52.041Z</time></trkpt><trkpt lat="44.915246" lon="7.4274012"><ele>286.0</ele><time>2026-04-21T05:35:53.042Z</time></trkpt><trkpt lat="44.9152115" lon="7.4275925"><ele>286.0</ele><time>2026-04-21T05:35:54.04Z</time></trkpt><trkpt lat="44.9151882" lon="7.4277814"><ele>286.0</ele><time>2026-04-21T05:35:55.037Z</time></trkpt><trkpt lat="44.9151759" lon="7.4279632"><ele>286.0</ele><time>2026-04-21T05:35:56.037Z</time></trkpt><trkpt lat="44.9152044" lon="7.4281086"><ele>286.0</ele><time>2026-04-21T05:35:57.044Z</time></trkpt><trkpt lat="44.9152154" lon="7.4282572"><ele>286.0</ele><time>2026-04-21T05:35:58.04Z</time></trkpt><trkpt lat="44.9152114" lon="7.4283711"><ele>286.0</ele><time>2026-04-21T05:35:59.042Z</time></trkpt><trkpt lat="44.9151956" lon="7.4284639"><ele>286.0</ele><time>2026-04-21T05:36:01.037Z</time></trkpt><trkpt lat="44.9151213" lon="7.4284975"><ele>286.0</ele><time>2026-04-21T05:36:03.032Z</time></trkpt><trkpt lat="44.9150511" lon="7.4285183"><ele>285.8</ele><time>2026-04-21T05:36:04.029Z</time></trkpt><trkpt lat="44.9149647" lon="7.4285508"><ele>285.6</ele><time>2026-04-21T05:36:05.031Z</time></trkpt><trkpt lat="44.9148667" lon="7.4285993"><ele>285.4</ele><time>2026-04-21T05:36:06.027Z</time></trkpt><trkpt lat="44.9147529" lon="7.4286547"><ele>285.2</ele><time>2026-04-21T05:36:07.028Z</time></trkpt><trkpt lat="44.9146302" lon="7.4287156"><ele>285.0</ele><time>2026-04-21T05:36:08.036Z</time></trkpt><trkpt lat="44.9144939" lon="7.4287791"><ele>285.0</ele><time>2026-04-21T05:36:09.038Z</time></trkpt><trkpt lat="44.9143519" lon="7.428839"><ele>285.0</ele><time>2026-04-21T05:36:10.03Z</time></trkpt><trkpt lat="44.9142047" lon="7.4289012"><ele>285.0</ele><time>2026-04-21T05:36:11.034Z</time></trkpt><trkpt lat="44.9140535" lon="7.4289671"><ele>285.0</ele><time>2026-04-21T05:36:12.03Z</time></trkpt><trkpt lat="44.9138997" lon="7.4290355"><ele>285.0</ele><time>2026-04-21T05:36:13.033Z</time></trkpt><trkpt lat="44.9137492" lon="7.4291041"><ele>285.0</ele><time>2026-04-21T05:36:14.032Z</time></trkpt><trkpt lat="44.9136077" lon="7.4291699"><ele>285.0</ele><time>2026-04-21T05:36:15.032Z</time></trkpt><trkpt lat="44.9134865" lon="7.4292306"><ele>285.0</ele><time>2026-04-21T05:36:16.029Z</time></trkpt><trkpt lat="44.913392" lon="7.4292827"><ele>285.0</ele><time>2026-04-21T05:36:17.034Z</time></trkpt><trkpt lat="44.9133167" lon="7.4293283"><ele>285.0</ele><time>2026-04-21T05:36:18.03Z</time></trkpt><trkpt lat="44.9132508" lon="7.4293773"><ele>285.0</ele><time>2026-04-21T05:36:19.027Z</time></trkpt><trkpt lat="44.9131766" lon="7.4294309"><ele>285.0</ele><time>2026-04-21T05:36:20.025Z</time></trkpt><trkpt lat="44.9130916" lon="7.4294961"><ele>285.0</ele><time>2026-04-21T05:36:21.03Z</time></trkpt><trkpt lat="44.9129868" lon="7.429575"><ele>285.0</ele><time>2026-04-21T05:36:22.029Z</time></trkpt><trkpt lat="44.9128704" lon="7.4296799"><ele>285.0</ele><time>2026-04-21T05:36:23.029Z</time></trkpt><trkpt lat="44.9127499" lon="7.4297962"><ele>285.0</ele><time>2026-04-21T05:36:24.033Z</time></trkpt><trkpt lat="44.9126307" lon="7.4299142"><ele>285.0</ele><time>2026-04-21T05:36:25.032Z</time></trkpt><trkpt lat="44.9124991" lon="7.4300361"><ele>285.0</ele><time>2026-04-21T05:36:26.025Z</time></trkpt><trkpt lat="44.9123615" lon="7.4301592"><ele>284.3333333333333</ele><time>2026-04-21T05:36:27.026Z</time></trkpt><trkpt lat="44.9122201" lon="7.4302928"><ele>283.66666666666663</ele><time>2026-04-21T05:36:28.029Z</time></trkpt><trkpt lat="44.9120755" lon="7.4304334"><ele>283.0</ele><time>2026-04-21T05:36:29.033Z</time></trkpt><trkpt lat="44.9119267" lon="7.4305799"><ele>283.0</ele><time>2026-04-21T05:36:30.03Z</time></trkpt><trkpt lat="44.9117725" lon="7.4307316"><ele>283.0</ele><time>2026-04-21T05:36:31.036Z</time></trkpt><trkpt lat="44.9116144" lon="7.430889"><ele>283.0</ele><time>2026-04-21T05:36:32.031Z</time></trkpt><trkpt lat="44.9114547" lon="7.4310496"><ele>283.0</ele><time>2026-04-21T05:36:33.033Z</time></trkpt><trkpt lat="44.9112918" lon="7.4312092"><ele>283.0</ele><time>2026-04-21T05:36:34.031Z</time></trkpt><trkpt lat="44.9111262" lon="7.4313702"><ele>283.0</ele><time>2026-04-21T05:36:35.027Z</time></trkpt><trkpt lat="44.9109578" lon="7.4315334"><ele>282.0</ele><time>2026-04-21T05:36:36.028Z</time></trkpt><trkpt lat="44.9107858" lon="7.4316975"><ele>281.0</ele><time>2026-04-21T05:36:37.027Z</time></trkpt><trkpt lat="44.910609" lon="7.4318572"><ele>280.0</ele><time>2026-04-21T05:36:38.031Z</time></trkpt><trkpt lat="44.9104274" lon="7.4320103"><ele>280.0</ele><time>2026-04-21T05:36:39.039Z</time></trkpt><trkpt lat="44.9102445" lon="7.4321555"><ele>280.0</ele><time>2026-04-21T05:36:40.032Z</time></trkpt><trkpt lat="44.9100633" lon="7.4322982"><ele>280.0</ele><time>2026-04-21T05:36:41.028Z</time></trkpt><trkpt lat="44.909878" lon="7.4324383"><ele>280.3333333333333</ele><time>2026-04-21T05:36:42.035Z</time></trkpt><trkpt lat="44.9096913" lon="7.4325725"><ele>280.6666666666667</ele><time>2026-04-21T05:36:43.031Z</time></trkpt><trkpt lat="44.909501" lon="7.4327049"><ele>281.0</ele><time>2026-04-21T05:36:44.033Z</time></trkpt><trkpt lat="44.9093078" lon="7.4328397"><ele>281.33333333333337</ele><time>2026-04-21T05:36:45.033Z</time></trkpt><trkpt lat="44.9091171" lon="7.4329781"><ele>281.6666666666667</ele><time>2026-04-21T05:36:46.033Z</time></trkpt><trkpt lat="44.9089293" lon="7.4331172"><ele>282.0</ele><time>2026-04-21T05:36:47.028Z</time></trkpt><trkpt lat="44.9087435" lon="7.4332569"><ele>282.0</ele><time>2026-04-21T05:36:48.035Z</time></trkpt><trkpt lat="44.9085573" lon="7.4333991"><ele>282.0</ele><time>2026-04-21T05:36:49.037Z</time></trkpt><trkpt lat="44.9083702" lon="7.4335395"><ele>282.0</ele><time>2026-04-21T05:36:50.031Z</time></trkpt><trkpt lat="44.9081819" lon="7.4336798"><ele>281.3333333333333</ele><time>2026-04-21T05:36:51.031Z</time></trkpt><trkpt lat="44.9079946" lon="7.4338122"><ele>280.66666666666663</ele><time>2026-04-21T05:36:52.034Z</time></trkpt><trkpt lat="44.9078146" lon="7.433936"><ele>280.0</ele><time>2026-04-21T05:36:53.034Z</time></trkpt><trkpt lat="44.907644" lon="7.4340555"><ele>280.3333333333333</ele><time>2026-04-21T05:36:54.033Z</time></trkpt><trkpt lat="44.9074872" lon="7.4341698"><ele>280.6666666666667</ele><time>2026-04-21T05:36:55.033Z</time></trkpt><trkpt lat="44.9073365" lon="7.4342785"><ele>281.0</ele><time>2026-04-21T05:36:56.034Z</time></trkpt><trkpt lat="44.9071838" lon="7.4343879"><ele>281.0</ele><time>2026-04-21T05:36:57.028Z</time></trkpt><trkpt lat="44.9070239" lon="7.4345011"><ele>281.0</ele><time>2026-04-21T05:36:58.035Z</time></trkpt><trkpt lat="44.9068605" lon="7.4346181"><ele>281.0</ele><time>2026-04-21T05:36:59.029Z</time></trkpt><trkpt lat="44.9066962" lon="7.434739"><ele>280.6666666666667</ele><time>2026-04-21T05:37:00.025Z</time></trkpt><trkpt lat="44.9065388" lon="7.4348536"><ele>280.3333333333333</ele><time>2026-04-21T05:37:01.034Z</time></trkpt><trkpt lat="44.9063929" lon="7.4349592"><ele>280.0</ele><time>2026-04-21T05:37:02.036Z</time></trkpt><trkpt lat="44.9062584" lon="7.4350559"><ele>280.0</ele><time>2026-04-21T05:37:03.032Z</time></trkpt><trkpt lat="44.9061351" lon="7.435146"><ele>280.0</ele><time>2026-04-21T05:37:04.033Z</time></trkpt><trkpt lat="44.9060188" lon="7.4352361"><ele>280.0</ele><time>2026-04-21T05:37:05.032Z</time></trkpt><trkpt lat="44.9058957" lon="7.435331"><ele>280.0</ele><time>2026-04-21T05:37:06.028Z</time></trkpt><trkpt lat="44.9057597" lon="7.4354229"><ele>280.75</ele><time>2026-04-21T05:37:07.035Z</time></trkpt><trkpt lat="44.9056262" lon="7.4355089"><ele>281.5</ele><time>2026-04-21T05:37:08.035Z</time></trkpt><trkpt lat="44.9055014" lon="7.4355807"><ele>282.25</ele><time>2026-04-21T05:37:09.033Z</time></trkpt><trkpt lat="44.9053874" lon="7.4356356"><ele>283.0</ele><time>2026-04-21T05:37:10.031Z</time></trkpt><trkpt lat="44.905286" lon="7.4356679"><ele>283.0</ele><time>2026-04-21T05:37:11.032Z</time></trkpt><trkpt lat="44.9052003" lon="7.4356699"><ele>283.0</ele><time>2026-04-21T05:37:12.028Z</time></trkpt><trkpt lat="44.9051357" lon="7.4356292"><ele>283.0</ele><time>2026-04-21T05:37:13.035Z</time></trkpt><trkpt lat="44.9050933" lon="7.435541"><ele>283.0</ele><time>2026-04-21T05:37:14.032Z</time></trkpt><trkpt lat="44.9050539" lon="7.4354066"><ele>283.0</ele><time>2026-04-21T05:37:15.033Z</time></trkpt><trkpt lat="44.9050134" lon="7.4352537"><ele>283.0</ele><time>2026-04-21T05:37:16.033Z</time></trkpt><trkpt lat="44.9049795" lon="7.4351135"><ele>283.0</ele><time>2026-04-21T05:37:17.034Z</time></trkpt><trkpt lat="44.9049544" lon="7.4349897"><ele>283.0</ele><time>2026-04-21T05:37:18.035Z</time></trkpt><trkpt lat="44.9049454" lon="7.4348839"><ele>283.0</ele><time>2026-04-21T05:37:19.029Z</time></trkpt><trkpt lat="44.9049434" lon="7.4347278"><ele>283.0</ele><time>2026-04-21T05:37:21.028Z</time></trkpt><trkpt lat="44.9049377" lon="7.4346356"><ele>283.0</ele><time>2026-04-21T05:37:23.043Z</time></trkpt><trkpt lat="44.9048899" lon="7.4345382"><ele>283.4</ele><time>2026-04-21T05:40:12.025Z</time></trkpt><trkpt lat="44.9048429" lon="7.4344648"><ele>283.8</ele><time>2026-04-21T05:40:14.034Z</time></trkpt><trkpt lat="44.9047867" lon="7.4343701"><ele>284.2</ele><time>2026-04-21T05:40:16.032Z</time></trkpt><trkpt lat="44.9047453" lon="7.4342714"><ele>284.6</ele><time>2026-04-21T05:40:17.033Z</time></trkpt><trkpt lat="44.9047009" lon="7.4341469"><ele>285.0</ele><time>2026-04-21T05:40:18.035Z</time></trkpt><trkpt lat="44.9046538" lon="7.4340034"><ele>285.0</ele><time>2026-04-21T05:40:19.031Z</time></trkpt><trkpt lat="44.9046063" lon="7.4338415"><ele>285.0</ele><time>2026-04-21T05:40:20.034Z</time></trkpt><trkpt lat="44.9045605" lon="7.433661"><ele>285.0</ele><time>2026-04-21T05:40:21.039Z</time></trkpt><trkpt lat="44.9045123" lon="7.4334704"><ele>285.0</ele><time>2026-04-21T05:40:22.033Z</time></trkpt><trkpt lat="44.9044607" lon="7.4332883"><ele>283.6666666666667</ele><time>2026-04-21T05:40:23.047Z</time></trkpt><trkpt lat="44.9044093" lon="7.4330955"><ele>282.33333333333337</ele><time>2026-04-21T05:40:24.035Z</time></trkpt><trkpt lat="44.904353" lon="7.4328941"><ele>281.0</ele><time>2026-04-21T05:40:25.042Z</time></trkpt><trkpt lat="44.9042964" lon="7.4326881"><ele>282.33333333333337</ele><time>2026-04-21T05:40:26.043Z</time></trkpt><trkpt lat="44.904237" lon="7.4324769"><ele>283.6666666666667</ele><time>2026-04-21T05:40:27.031Z</time></trkpt><trkpt lat="44.904175" lon="7.4322623"><ele>285.0</ele><time>2026-04-21T05:40:28.044Z</time></trkpt><trkpt lat="44.9041109" lon="7.4320425"><ele>285.0</ele><time>2026-04-21T05:40:29.043Z</time></trkpt><trkpt lat="44.9040468" lon="7.4318204"><ele>285.0</ele><time>2026-04-21T05:40:30.052Z</time></trkpt><trkpt lat="44.903984" lon="7.4315947"><ele>285.0</ele><time>2026-04-21T05:40:31.045Z</time></trkpt><trkpt lat="44.9039199" lon="7.4313645"><ele>285.0</ele><time>2026-04-21T05:40:32.041Z</time></trkpt><trkpt lat="44.9038537" lon="7.4311259"><ele>285.0</ele><time>2026-04-21T05:40:33.043Z</time></trkpt><trkpt lat="44.903788" lon="7.430882"><ele>285.0</ele><time>2026-04-21T05:40:34.04Z</time></trkpt><trkpt lat="44.9037205" lon="7.4306349"><ele>285.0</ele><time>2026-04-21T05:40:35.046Z</time></trkpt><trkpt lat="44.9036519" lon="7.4303873"><ele>285.0</ele><time>2026-04-21T05:40:36.042Z</time></trkpt><trkpt lat="44.9035829" lon="7.4301384"><ele>285.0</ele><time>2026-04-21T05:40:37.04Z</time></trkpt><trkpt lat="44.9035158" lon="7.4298896"><ele>285.0</ele><time>2026-04-21T05:40:38.049Z</time></trkpt><trkpt lat="44.9034488" lon="7.4296421"><ele>285.0</ele><time>2026-04-21T05:40:39.044Z</time></trkpt><trkpt lat="44.9033812" lon="7.4293958"><ele>285.0</ele><time>2026-04-21T05:40:40.048Z</time></trkpt><trkpt lat="44.9033147" lon="7.429152"><ele>284.3333333333333</ele><time>2026-04-21T05:40:41.049Z</time></trkpt><trkpt lat="44.9032504" lon="7.4289083"><ele>283.66666666666663</ele><time>2026-04-21T05:40:42.038Z</time></trkpt><trkpt lat="44.9031843" lon="7.4286621"><ele>283.0</ele><time>2026-04-21T05:40:43.042Z</time></trkpt><trkpt lat="44.9031173" lon="7.4284169"><ele>282.66666666666663</ele><time>2026-04-21T05:40:44.037Z</time></trkpt><trkpt lat="44.9030511" lon="7.4281695"><ele>282.3333333333333</ele><time>2026-04-21T05:40:45.046Z</time></trkpt><trkpt lat="44.9029831" lon="7.4279205"><ele>282.0</ele><time>2026-04-21T05:40:46.032Z</time></trkpt><trkpt lat="44.9029152" lon="7.4276694"><ele>282.6666666666667</ele><time>2026-04-21T05:40:47.051Z</time></trkpt><trkpt lat="44.9028462" lon="7.4274186"><ele>283.33333333333337</ele><time>2026-04-21T05:40:48.045Z</time></trkpt><trkpt lat="44.9027763" lon="7.4271676"><ele>284.0</ele><time>2026-04-21T05:40:49.049Z</time></trkpt><trkpt lat="44.9027066" lon="7.4269171"><ele>284.0</ele><time>2026-04-21T05:40:50.039Z</time></trkpt><trkpt lat="44.9026362" lon="7.4266683"><ele>284.0</ele><time>2026-04-21T05:40:51.047Z</time></trkpt><trkpt lat="44.9025671" lon="7.4264191"><ele>284.0</ele><time>2026-04-21T05:40:52.047Z</time></trkpt><trkpt lat="44.9024986" lon="7.4261708"><ele>285.0</ele><time>2026-04-21T05:40:53.041Z</time></trkpt><trkpt lat="44.9024308" lon="7.4259222"><ele>286.0</ele><time>2026-04-21T05:40:54.044Z</time></trkpt><trkpt lat="44.902362" lon="7.4256733"><ele>287.0</ele><time>2026-04-21T05:40:55.041Z</time></trkpt><trkpt lat="44.9022914" lon="7.4254202"><ele>287.0</ele><time>2026-04-21T05:40:56.044Z</time></trkpt><trkpt lat="44.9022198" lon="7.4251617"><ele>287.0</ele><time>2026-04-21T05:40:57.052Z</time></trkpt><trkpt lat="44.9021487" lon="7.424901"><ele>287.0</ele><time>2026-04-21T05:40:58.047Z</time></trkpt><trkpt lat="44.902075" lon="7.4246364"><ele>287.0</ele><time>2026-04-21T05:40:59.048Z</time></trkpt><trkpt lat="44.9020018" lon="7.4243716"><ele>287.0</ele><time>2026-04-21T05:41:00.05Z</time></trkpt><trkpt lat="44.901929" lon="7.4241066"><ele>287.0</ele><time>2026-04-21T05:41:01.05Z</time></trkpt><trkpt lat="44.9018575" lon="7.4238407"><ele>286.6666666666667</ele><time>2026-04-21T05:41:02.044Z</time></trkpt><trkpt lat="44.9017877" lon="7.4235751"><ele>286.3333333333333</ele><time>2026-04-21T05:41:03.044Z</time></trkpt><trkpt lat="44.9017175" lon="7.4233093"><ele>286.0</ele><time>2026-04-21T05:41:04.05Z</time></trkpt><trkpt lat="44.9016457" lon="7.4230433"><ele>286.66666666666663</ele><time>2026-04-21T05:41:05.04Z</time></trkpt><trkpt lat="44.901572" lon="7.4227763"><ele>287.3333333333333</ele><time>2026-04-21T05:41:06.054Z</time></trkpt><trkpt lat="44.9014975" lon="7.4225098"><ele>288.0</ele><time>2026-04-21T05:41:07.045Z</time></trkpt><trkpt lat="44.9014225" lon="7.4222435"><ele>288.6666666666667</ele><time>2026-04-21T05:41:08.049Z</time></trkpt><trkpt lat="44.9013485" lon="7.4219755"><ele>289.33333333333337</ele><time>2026-04-21T05:41:09.049Z</time></trkpt><trkpt lat="44.9012756" lon="7.4217067"><ele>290.0</ele><time>2026-04-21T05:41:10.039Z</time></trkpt><trkpt lat="44.9012015" lon="7.4214381"><ele>290.0</ele><time>2026-04-21T05:41:11.035Z</time></trkpt><trkpt lat="44.9011276" lon="7.4211691"><ele>290.0</ele><time>2026-04-21T05:41:12.045Z</time></trkpt><trkpt lat="44.9010541" lon="7.4208977"><ele>290.0</ele><time>2026-04-21T05:41:13.044Z</time></trkpt><trkpt lat="44.9009804" lon="7.4206271"><ele>290.33333333333337</ele><time>2026-04-21T05:41:14.043Z</time></trkpt><trkpt lat="44.9009063" lon="7.4203565"><ele>290.6666666666667</ele><time>2026-04-21T05:41:15.055Z</time></trkpt><trkpt lat="44.9008311" lon="7.4200849"><ele>291.0</ele><time>2026-04-21T05:41:16.047Z</time></trkpt><trkpt lat="44.900756" lon="7.4198115"><ele>291.0</ele><time>2026-04-21T05:41:17.045Z</time></trkpt><trkpt lat="44.9006811" lon="7.4195379"><ele>291.0</ele><time>2026-04-21T05:41:18.048Z</time></trkpt><trkpt lat="44.900607" lon="7.4192642"><ele>291.0</ele><time>2026-04-21T05:41:19.047Z</time></trkpt><trkpt lat="44.9005327" lon="7.4189898"><ele>290.6666666666667</ele><time>2026-04-21T05:41:20.045Z</time></trkpt><trkpt lat="44.9004579" lon="7.418716"><ele>290.33333333333337</ele><time>2026-04-21T05:41:21.041Z</time></trkpt><trkpt lat="44.9003839" lon="7.418443"><ele>290.0</ele><time>2026-04-21T05:41:22.046Z</time></trkpt><trkpt lat="44.9003093" lon="7.4181694"><ele>290.6666666666667</ele><time>2026-04-21T05:41:23.044Z</time></trkpt><trkpt lat="44.9002332" lon="7.4178947"><ele>291.3333333333333</ele><time>2026-04-21T05:41:24.038Z</time></trkpt><trkpt lat="44.9001573" lon="7.4176185"><ele>292.0</ele><time>2026-04-21T05:41:25.044Z</time></trkpt><trkpt lat="44.9000806" lon="7.4173424"><ele>292.0</ele><time>2026-04-21T05:41:26.037Z</time></trkpt><trkpt lat="44.9000036" lon="7.4170677"><ele>292.0</ele><time>2026-04-21T05:41:27.049Z</time></trkpt><trkpt lat="44.8999281" lon="7.4167904"><ele>292.0</ele><time>2026-04-21T05:41:28.054Z</time></trkpt><trkpt lat="44.899854" lon="7.4165141"><ele>292.0</ele><time>2026-04-21T05:41:29.038Z</time></trkpt><trkpt lat="44.8997798" lon="7.4162366"><ele>292.0</ele><time>2026-04-21T05:41:30.049Z</time></trkpt><trkpt lat="44.899705" lon="7.4159574"><ele>292.0</ele><time>2026-04-21T05:41:31.042Z</time></trkpt><trkpt lat="44.8996263" lon="7.415678"><ele>292.0</ele><time>2026-04-21T05:41:32.035Z</time></trkpt><trkpt lat="44.8995486" lon="7.415399"><ele>292.0</ele><time>2026-04-21T05:41:33.05Z</time></trkpt><trkpt lat="44.8994719" lon="7.415119"><ele>292.0</ele><time>2026-04-21T05:41:34.049Z</time></trkpt><trkpt lat="44.8993948" lon="7.4148409"><ele>292.0</ele><time>2026-04-21T05:41:35.042Z</time></trkpt><trkpt lat="44.8993175" lon="7.4145641"><ele>292.0</ele><time>2026-04-21T05:41:36.045Z</time></trkpt><trkpt lat="44.8992443" lon="7.4142895"><ele>292.0</ele><time>2026-04-21T05:41:37.046Z</time></trkpt><trkpt lat="44.8991696" lon="7.4140123"><ele>292.3333333333333</ele><time>2026-04-21T05:41:38.034Z</time></trkpt><trkpt lat="44.8990937" lon="7.4137356"><ele>292.6666666666667</ele><time>2026-04-21T05:41:39.046Z</time></trkpt><trkpt lat="44.8990166" lon="7.4134595"><ele>293.0</ele><time>2026-04-21T05:41:40.045Z</time></trkpt><trkpt lat="44.8989385" lon="7.4131851"><ele>293.6666666666667</ele><time>2026-04-21T05:41:41.049Z</time></trkpt><trkpt lat="44.8988611" lon="7.4129103"><ele>294.3333333333333</ele><time>2026-04-21T05:41:42.035Z</time></trkpt><trkpt lat="44.8987821" lon="7.4126358"><ele>295.0</ele><time>2026-04-21T05:41:43.05Z</time></trkpt><trkpt lat="44.8987043" lon="7.4123608"><ele>295.66666666666663</ele><time>2026-04-21T05:41:44.037Z</time></trkpt><trkpt lat="44.8986275" lon="7.4120845"><ele>296.3333333333333</ele><time>2026-04-21T05:41:45.038Z</time></trkpt><trkpt lat="44.8985533" lon="7.4118064"><ele>297.0</ele><time>2026-04-21T05:41:46.049Z</time></trkpt><trkpt lat="44.898478" lon="7.4115267"><ele>296.6666666666667</ele><time>2026-04-21T05:41:47.041Z</time></trkpt><trkpt lat="44.8984013" lon="7.4112459"><ele>296.33333333333337</ele><time>2026-04-21T05:41:48.042Z</time></trkpt><trkpt lat="44.8983241" lon="7.4109653"><ele>296.0</ele><time>2026-04-21T05:41:49.043Z</time></trkpt><trkpt lat="44.8982479" lon="7.4106845"><ele>296.33333333333337</ele><time>2026-04-21T05:41:50.043Z</time></trkpt><trkpt lat="44.8981722" lon="7.4104026"><ele>296.6666666666667</ele><time>2026-04-21T05:41:51.046Z</time></trkpt><trkpt lat="44.8980971" lon="7.4101209"><ele>297.0</ele><time>2026-04-21T05:41:52.044Z</time></trkpt><trkpt lat="44.8980215" lon="7.4098389"><ele>297.0</ele><time>2026-04-21T05:41:53.037Z</time></trkpt><trkpt lat="44.897944" lon="7.4095569"><ele>297.0</ele><time>2026-04-21T05:41:54.04Z</time></trkpt><trkpt lat="44.8978646" lon="7.4092737"><ele>297.0</ele><time>2026-04-21T05:41:55.05Z</time></trkpt><trkpt lat="44.8977866" lon="7.4089875"><ele>297.0</ele><time>2026-04-21T05:41:56.042Z</time></trkpt><trkpt lat="44.8977074" lon="7.4087014"><ele>297.0</ele><time>2026-04-21T05:41:57.035Z</time></trkpt><trkpt lat="44.8976269" lon="7.4084157"><ele>297.0</ele><time>2026-04-21T05:41:58.038Z</time></trkpt><trkpt lat="44.8975471" lon="7.4081307"><ele>297.6666666666667</ele><time>2026-04-21T05:41:59.046Z</time></trkpt><trkpt lat="44.8974679" lon="7.4078458"><ele>298.33333333333337</ele><time>2026-04-21T05:42:00.041Z</time></trkpt><trkpt lat="44.8973889" lon="7.4075603"><ele>299.0</ele><time>2026-04-21T05:42:01.059Z</time></trkpt><trkpt lat="44.8973112" lon="7.407275"><ele>299.33333333333337</ele><time>2026-04-21T05:42:02.052Z</time></trkpt><trkpt lat="44.8972339" lon="7.4069892"><ele>299.6666666666667</ele><time>2026-04-21T05:42:03.046Z</time></trkpt><trkpt lat="44.8971565" lon="7.4067038"><ele>300.0</ele><time>2026-04-21T05:42:04.044Z</time></trkpt><trkpt lat="44.8970779" lon="7.4064195"><ele>299.6666666666667</ele><time>2026-04-21T05:42:05.045Z</time></trkpt><trkpt lat="44.8969992" lon="7.4061351"><ele>299.33333333333337</ele><time>2026-04-21T05:42:06.046Z</time></trkpt><trkpt lat="44.8969206" lon="7.405852"><ele>299.0</ele><time>2026-04-21T05:42:07.05Z</time></trkpt><trkpt lat="44.8968415" lon="7.4055682"><ele>299.6666666666667</ele><time>2026-04-21T05:42:08.053Z</time></trkpt><trkpt lat="44.8967633" lon="7.4052873"><ele>300.3333333333333</ele><time>2026-04-21T05:42:09.034Z</time></trkpt><trkpt lat="44.8966834" lon="7.4050085"><ele>301.0</ele><time>2026-04-21T05:42:10.045Z</time></trkpt><trkpt lat="44.8966001" lon="7.4047337"><ele>303.0</ele><time>2026-04-21T05:42:11.048Z</time></trkpt><trkpt lat="44.8965127" lon="7.4044641"><ele>305.0</ele><time>2026-04-21T05:42:12.059Z</time></trkpt><trkpt lat="44.8964198" lon="7.4041983"><ele>307.0</ele><time>2026-04-21T05:42:13.043Z</time></trkpt><trkpt lat="44.8963231" lon="7.4039368"><ele>306.66666666666663</ele><time>2026-04-21T05:42:14.045Z</time></trkpt><trkpt lat="44.8962189" lon="7.4036805"><ele>306.3333333333333</ele><time>2026-04-21T05:42:15.046Z</time></trkpt><trkpt lat="44.8961029" lon="7.4034333"><ele>306.0</ele><time>2026-04-21T05:42:16.045Z</time></trkpt><trkpt lat="44.8959761" lon="7.403196"><ele>304.6666666666667</ele><time>2026-04-21T05:42:17.053Z</time></trkpt><trkpt lat="44.8958402" lon="7.4029694"><ele>303.33333333333337</ele><time>2026-04-21T05:42:18.044Z</time></trkpt><trkpt lat="44.8956949" lon="7.4027516"><ele>302.0</ele><time>2026-04-21T05:42:19.039Z</time></trkpt><trkpt lat="44.8955423" lon="7.4025446"><ele>302.0</ele><time>2026-04-21T05:42:20.045Z</time></trkpt><trkpt lat="44.895386" lon="7.4023418"><ele>302.0</ele><time>2026-04-21T05:42:21.039Z</time></trkpt><trkpt lat="44.8952275" lon="7.4021465"><ele>302.0</ele><time>2026-04-21T05:42:22.043Z</time></trkpt><trkpt lat="44.8950774" lon="7.4019629"><ele>303.0</ele><time>2026-04-21T05:42:23.043Z</time></trkpt><trkpt lat="44.8949382" lon="7.4017894"><ele>304.0</ele><time>2026-04-21T05:42:24.047Z</time></trkpt><trkpt lat="44.8948251" lon="7.4016266"><ele>305.0</ele><time>2026-04-21T05:42:25.047Z</time></trkpt><trkpt lat="44.8947531" lon="7.401464"><ele>304.75</ele><time>2026-04-21T05:42:26.049Z</time></trkpt><trkpt lat="44.8947182" lon="7.4013008"><ele>304.5</ele><time>2026-04-21T05:42:27.048Z</time></trkpt><trkpt lat="44.894723" lon="7.4011412"><ele>304.25</ele><time>2026-04-21T05:42:28.046Z</time></trkpt><trkpt lat="44.8947713" lon="7.4010049"><ele>304.0</ele><time>2026-04-21T05:42:29.052Z</time></trkpt><trkpt lat="44.8948586" lon="7.4009024"><ele>304.0</ele><time>2026-04-21T05:42:30.034Z</time></trkpt><trkpt lat="44.8949658" lon="7.4008392"><ele>304.0</ele><time>2026-04-21T05:42:31.042Z</time></trkpt><trkpt lat="44.8950895" lon="7.4008419"><ele>304.0</ele><time>2026-04-21T05:42:32.034Z</time></trkpt><trkpt lat="44.895231" lon="7.4008732"><ele>304.0</ele><time>2026-04-21T05:42:33.035Z</time></trkpt><trkpt lat="44.8953683" lon="7.4008764"><ele>304.0</ele><time>2026-04-21T05:42:34.036Z</time></trkpt><trkpt lat="44.8955087" lon="7.4008244"><ele>304.0</ele><time>2026-04-21T05:42:35.032Z</time></trkpt><trkpt lat="44.8956356" lon="7.4007379"><ele>304.0</ele><time>2026-04-21T05:42:36.034Z</time></trkpt><trkpt lat="44.8957332" lon="7.4006234"><ele>304.0</ele><time>2026-04-21T05:42:37.04Z</time></trkpt><trkpt lat="44.8957628" lon="7.4004353"><ele>304.0</ele><time>2026-04-21T05:42:38.036Z</time></trkpt><trkpt lat="44.8957477" lon="7.400249"><ele>304.0</ele><time>2026-04-21T05:42:39.037Z</time></trkpt><trkpt lat="44.8957094" lon="7.4000521"><ele>304.0</ele><time>2026-04-21T05:42:40.036Z</time></trkpt><trkpt lat="44.8956678" lon="7.3998927"><ele>304.0</ele><time>2026-04-21T05:42:41.033Z</time></trkpt><trkpt lat="44.8955882" lon="7.3997602"><ele>304.25</ele><time>2026-04-21T05:42:42.04Z</time></trkpt><trkpt lat="44.8954599" lon="7.399641"><ele>304.5</ele><time>2026-04-21T05:42:43.034Z</time></trkpt><trkpt lat="44.8953299" lon="7.3995466"><ele>304.75</ele><time>2026-04-21T05:42:44.029Z</time></trkpt><trkpt lat="44.8951964" lon="7.3994655"><ele>305.0</ele><time>2026-04-21T05:42:45.036Z</time></trkpt><trkpt lat="44.8950624" lon="7.3993737"><ele>305.0</ele><time>2026-04-21T05:42:46.029Z</time></trkpt><trkpt lat="44.8949446" lon="7.3992646"><ele>305.0</ele><time>2026-04-21T05:42:47.037Z</time></trkpt><trkpt lat="44.8948322" lon="7.3991223"><ele>305.0</ele><time>2026-04-21T05:42:48.038Z</time></trkpt><trkpt lat="44.8947202" lon="7.398966"><ele>305.0</ele><time>2026-04-21T05:42:49.042Z</time></trkpt><trkpt lat="44.8946019" lon="7.3988013"><ele>305.33333333333337</ele><time>2026-04-21T05:42:50.037Z</time></trkpt><trkpt lat="44.8944899" lon="7.3986345"><ele>305.6666666666667</ele><time>2026-04-21T05:42:51.033Z</time></trkpt><trkpt lat="44.8943741" lon="7.3984622"><ele>306.0</ele><time>2026-04-21T05:42:52.032Z</time></trkpt><trkpt lat="44.894247" lon="7.3982816"><ele>306.0</ele><time>2026-04-21T05:42:53.032Z</time></trkpt><trkpt lat="44.8941142" lon="7.3980952"><ele>306.0</ele><time>2026-04-21T05:42:54.043Z</time></trkpt><trkpt lat="44.8939783" lon="7.3979037"><ele>306.0</ele><time>2026-04-21T05:42:55.031Z</time></trkpt><trkpt lat="44.8938455" lon="7.3977071"><ele>307.6666666666667</ele><time>2026-04-21T05:42:56.037Z</time></trkpt><trkpt lat="44.8937133" lon="7.3975072"><ele>309.33333333333337</ele><time>2026-04-21T05:42:57.037Z</time></trkpt><trkpt lat="44.8935778" lon="7.3972993"><ele>311.0</ele><time>2026-04-21T05:42:58.027Z</time></trkpt><trkpt lat="44.8934388" lon="7.3970843"><ele>311.0</ele><time>2026-04-21T05:42:59.038Z</time></trkpt><trkpt lat="44.8933008" lon="7.3968679"><ele>311.0</ele><time>2026-04-21T05:43:00.035Z</time></trkpt><trkpt lat="44.8931603" lon="7.396647"><ele>311.0</ele><time>2026-04-21T05:43:01.035Z</time></trkpt><trkpt lat="44.8930185" lon="7.3964232"><ele>310.33333333333337</ele><time>2026-04-21T05:43:02.039Z</time></trkpt><trkpt lat="44.8928753" lon="7.3961912"><ele>309.6666666666667</ele><time>2026-04-21T05:43:03.046Z</time></trkpt><trkpt lat="44.8927319" lon="7.3959569"><ele>309.0</ele><time>2026-04-21T05:43:04.034Z</time></trkpt><trkpt lat="44.8925874" lon="7.3957158"><ele>309.5</ele><time>2026-04-21T05:43:05.041Z</time></trkpt><trkpt lat="44.8924404" lon="7.3954661"><ele>310.0</ele><time>2026-04-21T05:43:06.031Z</time></trkpt><trkpt lat="44.8923037" lon="7.3952086"><ele>310.0</ele><time>2026-04-21T05:43:07.036Z</time></trkpt><trkpt lat="44.8921746" lon="7.3949437"><ele>310.0</ele><time>2026-04-21T05:43:08.035Z</time></trkpt><trkpt lat="44.8920493" lon="7.3946739"><ele>310.5</ele><time>2026-04-21T05:43:09.036Z</time></trkpt><trkpt lat="44.8919284" lon="7.3943972"><ele>311.0</ele><time>2026-04-21T05:43:10.041Z</time></trkpt><trkpt lat="44.891815" lon="7.3941125"><ele>313.0</ele><time>2026-04-21T05:43:11.042Z</time></trkpt><trkpt lat="44.8917085" lon="7.3938195"><ele>315.0</ele><time>2026-04-21T05:43:12.039Z</time></trkpt><trkpt lat="44.8916063" lon="7.3935217"><ele>315.0</ele><time>2026-04-21T05:43:13.042Z</time></trkpt><trkpt lat="44.8915064" lon="7.3932162"><ele>315.0</ele><time>2026-04-21T05:43:14.039Z</time></trkpt><trkpt lat="44.8914113" lon="7.392906"><ele>314.5</ele><time>2026-04-21T05:43:15.042Z</time></trkpt><trkpt lat="44.8913203" lon="7.3925929"><ele>314.0</ele><time>2026-04-21T05:43:16.036Z</time></trkpt><trkpt lat="44.8912337" lon="7.3922785"><ele>313.5</ele><time>2026-04-21T05:43:17.043Z</time></trkpt><trkpt lat="44.8911472" lon="7.3919645"><ele>313.0</ele><time>2026-04-21T05:43:18.04Z</time></trkpt><trkpt lat="44.8910601" lon="7.3916494"><ele>313.0</ele><time>2026-04-21T05:43:19.038Z</time></trkpt><trkpt lat="44.8909702" lon="7.391333"><ele>313.0</ele><time>2026-04-21T05:43:20.04Z</time></trkpt><trkpt lat="44.8908817" lon="7.39102"><ele>313.0</ele><time>2026-04-21T05:43:21.044Z</time></trkpt><trkpt lat="44.8907934" lon="7.3907085"><ele>313.0</ele><time>2026-04-21T05:43:22.034Z</time></trkpt><trkpt lat="44.8907045" lon="7.3903958"><ele>313.0</ele><time>2026-04-21T05:43:23.046Z</time></trkpt><trkpt lat="44.8906167" lon="7.3900869"><ele>313.0</ele><time>2026-04-21T05:43:24.037Z</time></trkpt><trkpt lat="44.8905282" lon="7.3897824"><ele>313.0</ele><time>2026-04-21T05:43:25.031Z</time></trkpt><trkpt lat="44.8904405" lon="7.3894795"><ele>313.0</ele><time>2026-04-21T05:43:26.038Z</time></trkpt><trkpt lat="44.8903549" lon="7.3891769"><ele>313.0</ele><time>2026-04-21T05:43:27.037Z</time></trkpt><trkpt lat="44.8902708" lon="7.3888735"><ele>313.0</ele><time>2026-04-21T05:43:28.041Z</time></trkpt><trkpt lat="44.8901834" lon="7.3885711"><ele>314.0</ele><time>2026-04-21T05:43:29.038Z</time></trkpt><trkpt lat="44.8900956" lon="7.3882701"><ele>315.0</ele><time>2026-04-21T05:43:30.035Z</time></trkpt><trkpt lat="44.890009" lon="7.3879677"><ele>315.0</ele><time>2026-04-21T05:43:31.04Z</time></trkpt><trkpt lat="44.8899232" lon="7.3876674"><ele>315.0</ele><time>2026-04-21T05:43:32.038Z</time></trkpt><trkpt lat="44.88984" lon="7.3873735"><ele>315.3333333333333</ele><time>2026-04-21T05:43:33.049Z</time></trkpt><trkpt lat="44.8897575" lon="7.387084"><ele>315.66666666666663</ele><time>2026-04-21T05:43:34.039Z</time></trkpt><trkpt lat="44.8896751" lon="7.386796"><ele>316.0</ele><time>2026-04-21T05:43:35.034Z</time></trkpt><trkpt lat="44.8895944" lon="7.386513"><ele>316.0</ele><time>2026-04-21T05:43:36.042Z</time></trkpt><trkpt lat="44.8895153" lon="7.3862338"><ele>316.0</ele><time>2026-04-21T05:43:37.04Z</time></trkpt><trkpt lat="44.8894367" lon="7.3859589"><ele>316.0</ele><time>2026-04-21T05:43:38.037Z</time></trkpt><trkpt lat="44.8893575" lon="7.3856877"><ele>316.3333333333333</ele><time>2026-04-21T05:43:39.042Z</time></trkpt><trkpt lat="44.8892776" lon="7.3854178"><ele>316.6666666666667</ele><time>2026-04-21T05:43:40.044Z</time></trkpt><trkpt lat="44.8891973" lon="7.3851484"><ele>317.0</ele><time>2026-04-21T05:43:41.038Z</time></trkpt><trkpt lat="44.889117" lon="7.3848774"><ele>317.6666666666667</ele><time>2026-04-21T05:43:42.039Z</time></trkpt><trkpt lat="44.8890358" lon="7.3846061"><ele>318.3333333333333</ele><time>2026-04-21T05:43:43.051Z</time></trkpt><trkpt lat="44.8889566" lon="7.3843365"><ele>319.0</ele><time>2026-04-21T05:43:44.038Z</time></trkpt><trkpt lat="44.888876" lon="7.3840664"><ele>319.3333333333333</ele><time>2026-04-21T05:43:45.039Z</time></trkpt><trkpt lat="44.8887978" lon="7.3837971"><ele>319.6666666666667</ele><time>2026-04-21T05:43:46.041Z</time></trkpt><trkpt lat="44.8887201" lon="7.3835253"><ele>320.0</ele><time>2026-04-21T05:43:47.037Z</time></trkpt><trkpt lat="44.8886398" lon="7.3832545"><ele>320.0</ele><time>2026-04-21T05:43:48.031Z</time></trkpt><trkpt lat="44.8885589" lon="7.3829815"><ele>320.0</ele><time>2026-04-21T05:43:49.036Z</time></trkpt><trkpt lat="44.8884765" lon="7.3827028"><ele>320.0</ele><time>2026-04-21T05:43:50.031Z</time></trkpt><trkpt lat="44.8883942" lon="7.3824192"><ele>320.33333333333337</ele><time>2026-04-21T05:43:51.035Z</time></trkpt><trkpt lat="44.8883099" lon="7.3821319"><ele>320.6666666666667</ele><time>2026-04-21T05:43:52.035Z</time></trkpt><trkpt lat="44.8882243" lon="7.3818427"><ele>321.0</ele><time>2026-04-21T05:43:53.046Z</time></trkpt><trkpt lat="44.8881386" lon="7.3815511"><ele>321.0</ele><time>2026-04-21T05:43:54.042Z</time></trkpt><trkpt lat="44.888053" lon="7.3812557"><ele>321.0</ele><time>2026-04-21T05:43:55.044Z</time></trkpt><trkpt lat="44.887968" lon="7.3809593"><ele>321.0</ele><time>2026-04-21T05:43:56.036Z</time></trkpt><trkpt lat="44.887884" lon="7.3806641"><ele>321.0</ele><time>2026-04-21T05:43:57.039Z</time></trkpt><trkpt lat="44.8877993" lon="7.3803668"><ele>321.0</ele><time>2026-04-21T05:43:58.039Z</time></trkpt><trkpt lat="44.8877141" lon="7.3800673"><ele>321.0</ele><time>2026-04-21T05:43:59.041Z</time></trkpt><trkpt lat="44.8876262" lon="7.3797632"><ele>322.0</ele><time>2026-04-21T05:44:00.038Z</time></trkpt><trkpt lat="44.8875365" lon="7.3794539"><ele>323.0</ele><time>2026-04-21T05:44:01.036Z</time></trkpt><trkpt lat="44.8874463" lon="7.3791407"><ele>323.0</ele><time>2026-04-21T05:44:02.044Z</time></trkpt><trkpt lat="44.887356" lon="7.3788216"><ele>323.0</ele><time>2026-04-21T05:44:03.039Z</time></trkpt><trkpt lat="44.8872656" lon="7.3785002"><ele>323.0</ele><time>2026-04-21T05:44:04.039Z</time></trkpt><trkpt lat="44.8871739" lon="7.3781768"><ele>323.0</ele><time>2026-04-21T05:44:05.028Z</time></trkpt><trkpt lat="44.8870815" lon="7.3778522"><ele>323.5</ele><time>2026-04-21T05:44:06.041Z</time></trkpt><trkpt lat="44.8869947" lon="7.3775278"><ele>324.0</ele><time>2026-04-21T05:44:07.034Z</time></trkpt><trkpt lat="44.8869125" lon="7.3772037"><ele>324.0</ele><time>2026-04-21T05:44:08.037Z</time></trkpt><trkpt lat="44.8868318" lon="7.3768792"><ele>324.0</ele><time>2026-04-21T05:44:09.039Z</time></trkpt><trkpt lat="44.8867468" lon="7.3765587"><ele>325.5</ele><time>2026-04-21T05:44:10.039Z</time></trkpt><trkpt lat="44.8866576" lon="7.3762437"><ele>327.0</ele><time>2026-04-21T05:44:11.04Z</time></trkpt><trkpt lat="44.8865647" lon="7.3759343"><ele>327.0</ele><time>2026-04-21T05:44:12.035Z</time></trkpt><trkpt lat="44.8864722" lon="7.3756261"><ele>327.0</ele><time>2026-04-21T05:44:13.041Z</time></trkpt><trkpt lat="44.8863829" lon="7.3753144"><ele>327.0</ele><time>2026-04-21T05:44:14.035Z</time></trkpt><trkpt lat="44.8862929" lon="7.3750048"><ele>327.0</ele><time>2026-04-21T05:44:15.038Z</time></trkpt><trkpt lat="44.8862042" lon="7.3746923"><ele>327.5</ele><time>2026-04-21T05:44:16.036Z</time></trkpt><trkpt lat="44.8861134" lon="7.3743817"><ele>328.0</ele><time>2026-04-21T05:44:17.033Z</time></trkpt><trkpt lat="44.8860229" lon="7.3740713"><ele>328.0</ele><time>2026-04-21T05:44:18.037Z</time></trkpt><trkpt lat="44.8859309" lon="7.373761"><ele>328.0</ele><time>2026-04-21T05:44:19.03Z</time></trkpt><trkpt lat="44.8858378" lon="7.3734516"><ele>328.5</ele><time>2026-04-21T05:44:20.039Z</time></trkpt><trkpt lat="44.8857446" lon="7.3731412"><ele>329.0</ele><time>2026-04-21T05:44:21.034Z</time></trkpt><trkpt lat="44.88565" lon="7.3728294"><ele>329.5</ele><time>2026-04-21T05:44:22.04Z</time></trkpt><trkpt lat="44.885552" lon="7.372518"><ele>330.0</ele><time>2026-04-21T05:44:23.04Z</time></trkpt><trkpt lat="44.8854523" lon="7.372207"><ele>330.5</ele><time>2026-04-21T05:44:24.035Z</time></trkpt><trkpt lat="44.8853508" lon="7.3718956"><ele>331.0</ele><time>2026-04-21T05:44:25.034Z</time></trkpt><trkpt lat="44.8852472" lon="7.3715853"><ele>332.5</ele><time>2026-04-21T05:44:26.04Z</time></trkpt><trkpt lat="44.8851416" lon="7.3712728"><ele>334.0</ele><time>2026-04-21T05:44:27.04Z</time></trkpt><trkpt lat="44.8850361" lon="7.3709572"><ele>334.0</ele><time>2026-04-21T05:44:28.039Z</time></trkpt><trkpt lat="44.8849311" lon="7.3706415"><ele>334.0</ele><time>2026-04-21T05:44:29.034Z</time></trkpt><trkpt lat="44.8848291" lon="7.3703271"><ele>335.5</ele><time>2026-04-21T05:44:30.037Z</time></trkpt><trkpt lat="44.8847271" lon="7.3700149"><ele>337.0</ele><time>2026-04-21T05:44:31.04Z</time></trkpt><trkpt lat="44.8846226" lon="7.3697035"><ele>336.5</ele><time>2026-04-21T05:44:32.039Z</time></trkpt><trkpt lat="44.8845181" lon="7.3693913"><ele>336.0</ele><time>2026-04-21T05:44:33.046Z</time></trkpt><trkpt lat="44.8844144" lon="7.3690798"><ele>335.5</ele><time>2026-04-21T05:44:34.043Z</time></trkpt><trkpt lat="44.8843099" lon="7.3687688"><ele>335.0</ele><time>2026-04-21T05:44:35.053Z</time></trkpt><trkpt lat="44.8842052" lon="7.3684569"><ele>335.5</ele><time>2026-04-21T05:44:36.05Z</time></trkpt><trkpt lat="44.8840993" lon="7.368144"><ele>336.0</ele><time>2026-04-21T05:44:37.055Z</time></trkpt><trkpt lat="44.8839933" lon="7.3678317"><ele>336.0</ele><time>2026-04-21T05:44:38.044Z</time></trkpt><trkpt lat="44.8838868" lon="7.3675168"><ele>336.0</ele><time>2026-04-21T05:44:39.044Z</time></trkpt><trkpt lat="44.8837843" lon="7.3671991"><ele>336.5</ele><time>2026-04-21T05:44:40.047Z</time></trkpt><trkpt lat="44.8836778" lon="7.3668831"><ele>337.0</ele><time>2026-04-21T05:44:41.044Z</time></trkpt><trkpt lat="44.8835708" lon="7.3665671"><ele>337.0</ele><time>2026-04-21T05:44:42.041Z</time></trkpt><trkpt lat="44.8834635" lon="7.3662503"><ele>337.0</ele><time>2026-04-21T05:44:43.056Z</time></trkpt><trkpt lat="44.8833534" lon="7.3659334"><ele>337.0</ele><time>2026-04-21T05:44:44.048Z</time></trkpt><trkpt lat="44.8832409" lon="7.3656204"><ele>337.0</ele><time>2026-04-21T05:44:45.04Z</time></trkpt><trkpt lat="44.8831267" lon="7.3653075"><ele>337.0</ele><time>2026-04-21T05:44:46.056Z</time></trkpt><trkpt lat="44.8830143" lon="7.3649924"><ele>337.0</ele><time>2026-04-21T05:44:47.043Z</time></trkpt><trkpt lat="44.882905" lon="7.3646759"><ele>337.5</ele><time>2026-04-21T05:44:48.043Z</time></trkpt><trkpt lat="44.8827974" lon="7.3643568"><ele>338.0</ele><time>2026-04-21T05:44:49.052Z</time></trkpt><trkpt lat="44.8826893" lon="7.3640365"><ele>339.0</ele><time>2026-04-21T05:44:50.044Z</time></trkpt><trkpt lat="44.8825805" lon="7.3637144"><ele>340.0</ele><time>2026-04-21T05:44:51.058Z</time></trkpt><trkpt lat="44.882472" lon="7.3633931"><ele>340.0</ele><time>2026-04-21T05:44:52.053Z</time></trkpt><trkpt lat="44.8823656" lon="7.363071"><ele>340.0</ele><time>2026-04-21T05:44:53.051Z</time></trkpt><trkpt lat="44.8822601" lon="7.3627498"><ele>339.5</ele><time>2026-04-21T05:44:54.048Z</time></trkpt><trkpt lat="44.8821542" lon="7.3624292"><ele>339.0</ele><time>2026-04-21T05:44:55.05Z</time></trkpt><trkpt lat="44.8820519" lon="7.3621102"><ele>338.5</ele><time>2026-04-21T05:44:56.041Z</time></trkpt><trkpt lat="44.8819473" lon="7.3617926"><ele>338.0</ele><time>2026-04-21T05:44:57.058Z</time></trkpt><trkpt lat="44.8818432" lon="7.3614779"><ele>340.0</ele><time>2026-04-21T05:44:58.042Z</time></trkpt><trkpt lat="44.8817416" lon="7.361166"><ele>342.0</ele><time>2026-04-21T05:44:59.044Z</time></trkpt><trkpt lat="44.8816422" lon="7.3608566"><ele>342.0</ele><time>2026-04-21T05:45:00.037Z</time></trkpt><trkpt lat="44.8815432" lon="7.3605506"><ele>342.0</ele><time>2026-04-21T05:45:01.042Z</time></trkpt><trkpt lat="44.8814441" lon="7.360248"><ele>342.0</ele><time>2026-04-21T05:45:02.056Z</time></trkpt><trkpt lat="44.8813439" lon="7.359947"><ele>342.0</ele><time>2026-04-21T05:45:03.047Z</time></trkpt><trkpt lat="44.8812427" lon="7.3596491"><ele>342.5</ele><time>2026-04-21T05:45:04.052Z</time></trkpt><trkpt lat="44.8811405" lon="7.3593568"><ele>343.0</ele><time>2026-04-21T05:45:05.044Z</time></trkpt><trkpt lat="44.8810388" lon="7.3590646"><ele>343.0</ele><time>2026-04-21T05:45:06.038Z</time></trkpt><trkpt lat="44.8809245" lon="7.3587851"><ele>343.0</ele><time>2026-04-21T05:45:07.043Z</time></trkpt><trkpt lat="44.8808045" lon="7.3585098"><ele>343.0</ele><time>2026-04-21T05:45:08.037Z</time></trkpt><trkpt lat="44.880681" lon="7.3582367"><ele>343.0</ele><time>2026-04-21T05:45:09.059Z</time></trkpt><trkpt lat="44.8805532" lon="7.3579692"><ele>343.0</ele><time>2026-04-21T05:45:10.048Z</time></trkpt><trkpt lat="44.8804208" lon="7.3577058"><ele>343.0</ele><time>2026-04-21T05:45:11.057Z</time></trkpt><trkpt lat="44.8802828" lon="7.3574464"><ele>343.0</ele><time>2026-04-21T05:45:12.051Z</time></trkpt><trkpt lat="44.8801413" lon="7.3571894"><ele>343.0</ele><time>2026-04-21T05:45:13.052Z</time></trkpt><trkpt lat="44.8799921" lon="7.356937"><ele>344.0</ele><time>2026-04-21T05:45:14.052Z</time></trkpt><trkpt lat="44.8798375" lon="7.3566869"><ele>345.0</ele><time>2026-04-21T05:45:15.044Z</time></trkpt><trkpt lat="44.8796764" lon="7.3564384"><ele>344.5</ele><time>2026-04-21T05:45:16.055Z</time></trkpt><trkpt lat="44.8795083" lon="7.356197"><ele>344.0</ele><time>2026-04-21T05:45:17.049Z</time></trkpt><trkpt lat="44.8793328" lon="7.3559663"><ele>344.0</ele><time>2026-04-21T05:45:18.047Z</time></trkpt><trkpt lat="44.8791512" lon="7.3557407"><ele>344.0</ele><time>2026-04-21T05:45:19.049Z</time></trkpt><trkpt lat="44.8789625" lon="7.3555209"><ele>345.0</ele><time>2026-04-21T05:45:20.04Z</time></trkpt><trkpt lat="44.8787779" lon="7.3553074"><ele>346.0</ele><time>2026-04-21T05:45:21.05Z</time></trkpt><trkpt lat="44.8786001" lon="7.3551134"><ele>346.0</ele><time>2026-04-21T05:45:22.049Z</time></trkpt><trkpt lat="44.8784277" lon="7.3549322"><ele>346.0</ele><time>2026-04-21T05:45:23.05Z</time></trkpt><trkpt lat="44.8782583" lon="7.35476"><ele>346.0</ele><time>2026-04-21T05:45:24.059Z</time></trkpt><trkpt lat="44.8780975" lon="7.3545985"><ele>346.0</ele><time>2026-04-21T05:45:25.052Z</time></trkpt><trkpt lat="44.8779443" lon="7.354444"><ele>346.0</ele><time>2026-04-21T05:45:26.047Z</time></trkpt><trkpt lat="44.8777877" lon="7.3542844"><ele>346.0</ele><time>2026-04-21T05:45:27.037Z</time></trkpt><trkpt lat="44.8776235" lon="7.3541228"><ele>345.66666666666663</ele><time>2026-04-21T05:45:28.053Z</time></trkpt><trkpt lat="44.8774531" lon="7.3539579"><ele>345.3333333333333</ele><time>2026-04-21T05:45:29.036Z</time></trkpt><trkpt lat="44.8772755" lon="7.3537903"><ele>345.0</ele><time>2026-04-21T05:45:30.037Z</time></trkpt><trkpt lat="44.8770948" lon="7.3536148"><ele>345.0</ele><time>2026-04-21T05:45:31.05Z</time></trkpt><trkpt lat="44.8769068" lon="7.3534299"><ele>345.0</ele><time>2026-04-21T05:45:32.042Z</time></trkpt><trkpt lat="44.8767174" lon="7.3532374"><ele>344.5</ele><time>2026-04-21T05:45:33.066Z</time></trkpt><trkpt lat="44.8765265" lon="7.3530473"><ele>344.0</ele><time>2026-04-21T05:45:34.044Z</time></trkpt><trkpt lat="44.8763354" lon="7.3528569"><ele>344.0</ele><time>2026-04-21T05:45:35.039Z</time></trkpt><trkpt lat="44.8761405" lon="7.3526633"><ele>344.0</ele><time>2026-04-21T05:45:36.05Z</time></trkpt><trkpt lat="44.8759456" lon="7.3524675"><ele>345.0</ele><time>2026-04-21T05:45:37.039Z</time></trkpt><trkpt lat="44.8757513" lon="7.3522718"><ele>346.0</ele><time>2026-04-21T05:45:38.046Z</time></trkpt><trkpt lat="44.8755556" lon="7.3520717"><ele>346.0</ele><time>2026-04-21T05:45:39.048Z</time></trkpt><trkpt lat="44.8753585" lon="7.3518728"><ele>346.0</ele><time>2026-04-21T05:45:40.051Z</time></trkpt><trkpt lat="44.8751611" lon="7.3516751"><ele>346.0</ele><time>2026-04-21T05:45:41.037Z</time></trkpt><trkpt lat="44.8749667" lon="7.3514804"><ele>346.0</ele><time>2026-04-21T05:45:42.044Z</time></trkpt><trkpt lat="44.8747743" lon="7.3512853"><ele>346.0</ele><time>2026-04-21T05:45:43.04Z</time></trkpt><trkpt lat="44.8745819" lon="7.3510861"><ele>346.0</ele><time>2026-04-21T05:45:44.057Z</time></trkpt><trkpt lat="44.8743896" lon="7.3508873"><ele>347.5</ele><time>2026-04-21T05:45:45.053Z</time></trkpt><trkpt lat="44.8741989" lon="7.350686"><ele>349.0</ele><time>2026-04-21T05:45:46.051Z</time></trkpt><trkpt lat="44.8740104" lon="7.3504809"><ele>349.0</ele><time>2026-04-21T05:45:47.046Z</time></trkpt><trkpt lat="44.8738243" lon="7.3502674"><ele>349.0</ele><time>2026-04-21T05:45:48.044Z</time></trkpt><trkpt lat="44.8736467" lon="7.3500465"><ele>349.0</ele><time>2026-04-21T05:45:49.043Z</time></trkpt><trkpt lat="44.8734815" lon="7.3498275"><ele>349.0</ele><time>2026-04-21T05:45:50.05Z</time></trkpt><trkpt lat="44.8733298" lon="7.3496176"><ele>349.0</ele><time>2026-04-21T05:45:51.042Z</time></trkpt><trkpt lat="44.87319" lon="7.3494167"><ele>349.3333333333333</ele><time>2026-04-21T05:45:52.039Z</time></trkpt><trkpt lat="44.8730601" lon="7.3492222"><ele>349.6666666666667</ele><time>2026-04-21T05:45:53.048Z</time></trkpt><trkpt lat="44.8729372" lon="7.3490203"><ele>350.0</ele><time>2026-04-21T05:45:54.05Z</time></trkpt><trkpt lat="44.8728086" lon="7.3488039"><ele>350.6666666666667</ele><time>2026-04-21T05:45:55.052Z</time></trkpt><trkpt lat="44.8726762" lon="7.3485714"><ele>351.3333333333333</ele><time>2026-04-21T05:45:56.054Z</time></trkpt><trkpt lat="44.8725435" lon="7.3483224"><ele>352.0</ele><time>2026-04-21T05:45:57.043Z</time></trkpt><trkpt lat="44.8724094" lon="7.3480581"><ele>353.0</ele><time>2026-04-21T05:45:58.05Z</time></trkpt><trkpt lat="44.8722728" lon="7.3477793"><ele>354.0</ele><time>2026-04-21T05:45:59.05Z</time></trkpt><trkpt lat="44.8721383" lon="7.3474967"><ele>356.0</ele><time>2026-04-21T05:46:00.047Z</time></trkpt><trkpt lat="44.8720039" lon="7.3472079"><ele>358.0</ele><time>2026-04-21T05:46:01.062Z</time></trkpt><trkpt lat="44.8718665" lon="7.3469131"><ele>356.0</ele><time>2026-04-21T05:46:02.045Z</time></trkpt><trkpt lat="44.8717308" lon="7.3466159"><ele>354.0</ele><time>2026-04-21T05:46:03.045Z</time></trkpt><trkpt lat="44.8715953" lon="7.3463182"><ele>354.0</ele><time>2026-04-21T05:46:04.048Z</time></trkpt><trkpt lat="44.8714646" lon="7.3460193"><ele>354.0</ele><time>2026-04-21T05:46:05.047Z</time></trkpt><trkpt lat="44.8713311" lon="7.3457189"><ele>353.5</ele><time>2026-04-21T05:46:06.059Z</time></trkpt><trkpt lat="44.8711919" lon="7.3454237"><ele>353.0</ele><time>2026-04-21T05:46:07.059Z</time></trkpt><trkpt lat="44.8710494" lon="7.3451313"><ele>353.5</ele><time>2026-04-21T05:46:08.058Z</time></trkpt><trkpt lat="44.8709076" lon="7.3448351"><ele>354.0</ele><time>2026-04-21T05:46:09.045Z</time></trkpt><trkpt lat="44.8707746" lon="7.3445326"><ele>354.0</ele><time>2026-04-21T05:46:10.042Z</time></trkpt><trkpt lat="44.8706435" lon="7.3442262"><ele>354.0</ele><time>2026-04-21T05:46:11.049Z</time></trkpt><trkpt lat="44.870512" lon="7.3439196"><ele>354.0</ele><time>2026-04-21T05:46:12.047Z</time></trkpt><trkpt lat="44.8703823" lon="7.3436092"><ele>354.0</ele><time>2026-04-21T05:46:13.051Z</time></trkpt><trkpt lat="44.8702509" lon="7.3432972"><ele>354.5</ele><time>2026-04-21T05:46:14.055Z</time></trkpt><trkpt lat="44.8701209" lon="7.3429842"><ele>355.0</ele><time>2026-04-21T05:46:15.056Z</time></trkpt><trkpt lat="44.869993" lon="7.3426681"><ele>355.0</ele><time>2026-04-21T05:46:16.055Z</time></trkpt><trkpt lat="44.8698675" lon="7.3423474"><ele>355.0</ele><time>2026-04-21T05:46:17.046Z</time></trkpt><trkpt lat="44.8697446" lon="7.3420247"><ele>356.0</ele><time>2026-04-21T05:46:18.048Z</time></trkpt><trkpt lat="44.8696293" lon="7.3417026"><ele>357.0</ele><time>2026-04-21T05:46:19.052Z</time></trkpt><trkpt lat="44.8695183" lon="7.3413808"><ele>357.0</ele><time>2026-04-21T05:46:20.051Z</time></trkpt><trkpt lat="44.8694116" lon="7.3410622"><ele>357.0</ele><time>2026-04-21T05:46:21.061Z</time></trkpt><trkpt lat="44.8693099" lon="7.3407423"><ele>355.5</ele><time>2026-04-21T05:46:22.052Z</time></trkpt><trkpt lat="44.8692114" lon="7.340422"><ele>354.0</ele><time>2026-04-21T05:46:23.05Z</time></trkpt><trkpt lat="44.8691141" lon="7.3401097"><ele>354.0</ele><time>2026-04-21T05:46:24.05Z</time></trkpt><trkpt lat="44.8690105" lon="7.3398093"><ele>354.0</ele><time>2026-04-21T05:46:25.049Z</time></trkpt><trkpt lat="44.8688965" lon="7.3395169"><ele>357.0</ele><time>2026-04-21T05:46:26.049Z</time></trkpt><trkpt lat="44.8687713" lon="7.3392296"><ele>360.0</ele><time>2026-04-21T05:46:27.058Z</time></trkpt><trkpt lat="44.8686335" lon="7.3389531"><ele>360.0</ele><time>2026-04-21T05:46:28.053Z</time></trkpt><trkpt lat="44.8684833" lon="7.3386895"><ele>360.0</ele><time>2026-04-21T05:46:29.059Z</time></trkpt><trkpt lat="44.868321" lon="7.33843"><ele>359.5</ele><time>2026-04-21T05:46:30.048Z</time></trkpt><trkpt lat="44.868159" lon="7.3381802"><ele>359.0</ele><time>2026-04-21T05:46:31.05Z</time></trkpt><trkpt lat="44.8679935" lon="7.3379364"><ele>359.0</ele><time>2026-04-21T05:46:32.045Z</time></trkpt><trkpt lat="44.86783" lon="7.3376908"><ele>359.0</ele><time>2026-04-21T05:46:33.048Z</time></trkpt><trkpt lat="44.8676621" lon="7.3374404"><ele>357.0</ele><time>2026-04-21T05:46:34.061Z</time></trkpt><trkpt lat="44.8674935" lon="7.3371871"><ele>355.0</ele><time>2026-04-21T05:46:35.049Z</time></trkpt><trkpt lat="44.8673311" lon="7.3369292"><ele>355.0</ele><time>2026-04-21T05:46:36.053Z</time></trkpt><trkpt lat="44.8671694" lon="7.3366682"><ele>355.0</ele><time>2026-04-21T05:46:37.062Z</time></trkpt><trkpt lat="44.8670032" lon="7.336408"><ele>355.0</ele><time>2026-04-21T05:46:38.05Z</time></trkpt><trkpt lat="44.8668345" lon="7.3361524"><ele>355.0</ele><time>2026-04-21T05:46:39.057Z</time></trkpt><trkpt lat="44.866665" lon="7.3358974"><ele>355.0</ele><time>2026-04-21T05:46:40.05Z</time></trkpt><trkpt lat="44.8664971" lon="7.3356433"><ele>355.0</ele><time>2026-04-21T05:46:41.054Z</time></trkpt><trkpt lat="44.8663261" lon="7.3353864"><ele>355.5</ele><time>2026-04-21T05:46:42.046Z</time></trkpt><trkpt lat="44.8661573" lon="7.3351317"><ele>356.0</ele><time>2026-04-21T05:46:43.046Z</time></trkpt><trkpt lat="44.8659901" lon="7.3348778"><ele>357.0</ele><time>2026-04-21T05:46:44.05Z</time></trkpt><trkpt lat="44.8658245" lon="7.3346279"><ele>358.0</ele><time>2026-04-21T05:46:45.037Z</time></trkpt><trkpt lat="44.8656582" lon="7.3343804"><ele>358.0</ele><time>2026-04-21T05:46:46.057Z</time></trkpt><trkpt lat="44.8654905" lon="7.3341316"><ele>358.0</ele><time>2026-04-21T05:46:47.051Z</time></trkpt><trkpt lat="44.865325" lon="7.3338849"><ele>358.0</ele><time>2026-04-21T05:46:48.038Z</time></trkpt><trkpt lat="44.8651589" lon="7.3336405"><ele>358.0</ele><time>2026-04-21T05:46:49.054Z</time></trkpt><trkpt lat="44.8650001" lon="7.3334071"><ele>358.3333333333333</ele><time>2026-04-21T05:46:50.058Z</time></trkpt><trkpt lat="44.8648538" lon="7.3331859"><ele>358.6666666666667</ele><time>2026-04-21T05:46:51.06Z</time></trkpt><trkpt lat="44.8647232" lon="7.3329776"><ele>359.0</ele><time>2026-04-21T05:46:52.06Z</time></trkpt><trkpt lat="44.8646085" lon="7.3327826"><ele>359.0</ele><time>2026-04-21T05:46:53.053Z</time></trkpt><trkpt lat="44.8645174" lon="7.3326017"><ele>359.0</ele><time>2026-04-21T05:46:54.056Z</time></trkpt><trkpt lat="44.8644562" lon="7.3324398"><ele>359.0</ele><time>2026-04-21T05:46:55.038Z</time></trkpt><trkpt lat="44.8644434" lon="7.3323068"><ele>359.0</ele><time>2026-04-21T05:46:56.039Z</time></trkpt><trkpt lat="44.864478" lon="7.3321815"><ele>359.1666666666667</ele><time>2026-04-21T05:46:57.038Z</time></trkpt><trkpt lat="44.8645478" lon="7.3320748"><ele>359.33333333333337</ele><time>2026-04-21T05:46:58.039Z</time></trkpt><trkpt lat="44.8646244" lon="7.3319988"><ele>359.5</ele><time>2026-04-21T05:46:59.039Z</time></trkpt><trkpt lat="44.8646983" lon="7.3319773"><ele>359.6666666666667</ele><time>2026-04-21T05:47:00.043Z</time></trkpt><trkpt lat="44.8647677" lon="7.3319941"><ele>359.8333333333333</ele><time>2026-04-21T05:47:01.045Z</time></trkpt><trkpt lat="44.8648356" lon="7.3320277"><ele>360.0</ele><time>2026-04-21T05:47:02.039Z</time></trkpt><trkpt lat="44.8648941" lon="7.3320807"><ele>360.0</ele><time>2026-04-21T05:47:03.038Z</time></trkpt><trkpt lat="44.8649424" lon="7.3321617"><ele>360.0</ele><time>2026-04-21T05:47:04.037Z</time></trkpt><trkpt lat="44.8649821" lon="7.3322573"><ele>360.0</ele><time>2026-04-21T05:47:05.04Z</time></trkpt><trkpt lat="44.8650125" lon="7.3323589"><ele>360.0</ele><time>2026-04-21T05:47:06.035Z</time></trkpt><trkpt lat="44.8650359" lon="7.3324626"><ele>360.0</ele><time>2026-04-21T05:47:07.038Z</time></trkpt><trkpt lat="44.8650558" lon="7.3325655"><ele>360.0</ele><time>2026-04-21T05:47:08.042Z</time></trkpt><trkpt lat="44.865071" lon="7.332674"><ele>359.8333333333333</ele><time>2026-04-21T05:47:09.037Z</time></trkpt><trkpt lat="44.8650728" lon="7.3327908"><ele>359.6666666666667</ele><time>2026-04-21T05:47:10.032Z</time></trkpt><trkpt lat="44.8650494" lon="7.33291"><ele>359.5</ele><time>2026-04-21T05:47:11.036Z</time></trkpt><trkpt lat="44.8650118" lon="7.333028"><ele>359.33333333333337</ele><time>2026-04-21T05:47:12.034Z</time></trkpt><trkpt lat="44.8649697" lon="7.333145"><ele>359.1666666666667</ele><time>2026-04-21T05:47:13.033Z</time></trkpt><trkpt lat="44.8649137" lon="7.3332493"><ele>359.0</ele><time>2026-04-21T05:47:14.037Z</time></trkpt><trkpt lat="44.8648474" lon="7.3333361"><ele>359.4</ele><time>2026-04-21T05:47:15.037Z</time></trkpt><trkpt lat="44.8647637" lon="7.3334028"><ele>359.79999999999995</ele><time>2026-04-21T05:47:16.035Z</time></trkpt><trkpt lat="44.864664" lon="7.3334487"><ele>360.20000000000005</ele><time>2026-04-21T05:47:17.041Z</time></trkpt><trkpt lat="44.8645576" lon="7.3334837"><ele>360.6</ele><time>2026-04-21T05:47:18.034Z</time></trkpt><trkpt lat="44.8644392" lon="7.3335147"><ele>361.0</ele><time>2026-04-21T05:47:19.033Z</time></trkpt><trkpt lat="44.8643107" lon="7.3335415"><ele>360.5</ele><time>2026-04-21T05:47:20.038Z</time></trkpt><trkpt lat="44.8641796" lon="7.3335744"><ele>360.0</ele><time>2026-04-21T05:47:21.042Z</time></trkpt><trkpt lat="44.8640483" lon="7.3336101"><ele>359.5</ele><time>2026-04-21T05:47:22.03Z</time></trkpt><trkpt lat="44.8639158" lon="7.3336518"><ele>359.0</ele><time>2026-04-21T05:47:23.041Z</time></trkpt><trkpt lat="44.8637686" lon="7.3336925"><ele>359.0</ele><time>2026-04-21T05:47:24.034Z</time></trkpt><trkpt lat="44.8636327" lon="7.3337454"><ele>359.0</ele><time>2026-04-21T05:47:25.039Z</time></trkpt><trkpt lat="44.8634983" lon="7.3337962"><ele>359.0</ele><time>2026-04-21T05:47:26.037Z</time></trkpt><trkpt lat="44.8633672" lon="7.3338437"><ele>359.0</ele><time>2026-04-21T05:47:27.039Z</time></trkpt><trkpt lat="44.8632399" lon="7.3338885"><ele>357.75</ele><time>2026-04-21T05:47:28.042Z</time></trkpt><trkpt lat="44.863116" lon="7.3339325"><ele>356.5</ele><time>2026-04-21T05:47:29.034Z</time></trkpt><trkpt lat="44.8629908" lon="7.3339776"><ele>355.25</ele><time>2026-04-21T05:47:30.035Z</time></trkpt><trkpt lat="44.8628657" lon="7.3340212"><ele>354.0</ele><time>2026-04-21T05:47:31.032Z</time></trkpt><trkpt lat="44.8627434" lon="7.3340629"><ele>354.0</ele><time>2026-04-21T05:47:32.042Z</time></trkpt><trkpt lat="44.8626245" lon="7.3341037"><ele>354.0</ele><time>2026-04-21T05:47:33.039Z</time></trkpt><trkpt lat="44.8625062" lon="7.3341448"><ele>354.0</ele><time>2026-04-21T05:47:34.035Z</time></trkpt><trkpt lat="44.8623903" lon="7.334185"><ele>354.0</ele><time>2026-04-21T05:47:35.034Z</time></trkpt><trkpt lat="44.8622755" lon="7.3342237"><ele>354.25</ele><time>2026-04-21T05:47:36.031Z</time></trkpt><trkpt lat="44.8621586" lon="7.3342643"><ele>354.5</ele><time>2026-04-21T05:47:37.037Z</time></trkpt><trkpt lat="44.8620366" lon="7.3343051"><ele>354.75</ele><time>2026-04-21T05:47:38.037Z</time></trkpt><trkpt lat="44.8619117" lon="7.3343458"><ele>355.0</ele><time>2026-04-21T05:47:39.042Z</time></trkpt><trkpt lat="44.8617853" lon="7.3343883"><ele>355.0</ele><time>2026-04-21T05:47:40.034Z</time></trkpt><trkpt lat="44.8616568" lon="7.3344324"><ele>355.0</ele><time>2026-04-21T05:47:41.041Z</time></trkpt><trkpt lat="44.8615281" lon="7.3344772"><ele>355.0</ele><time>2026-04-21T05:47:42.035Z</time></trkpt><trkpt lat="44.8614003" lon="7.3345234"><ele>355.0</ele><time>2026-04-21T05:47:43.05Z</time></trkpt><trkpt lat="44.8612725" lon="7.3345698"><ele>355.0</ele><time>2026-04-21T05:47:44.035Z</time></trkpt><trkpt lat="44.8611439" lon="7.3346136"><ele>355.0</ele><time>2026-04-21T05:47:45.042Z</time></trkpt><trkpt lat="44.8610146" lon="7.3346559"><ele>355.0</ele><time>2026-04-21T05:47:46.042Z</time></trkpt><trkpt lat="44.8608855" lon="7.3346977"><ele>355.0</ele><time>2026-04-21T05:47:47.041Z</time></trkpt><trkpt lat="44.8607606" lon="7.3347384"><ele>354.25</ele><time>2026-04-21T05:47:48.047Z</time></trkpt><trkpt lat="44.8606414" lon="7.3347776"><ele>353.5</ele><time>2026-04-21T05:47:49.038Z</time></trkpt><trkpt lat="44.8605253" lon="7.3348182"><ele>352.75</ele><time>2026-04-21T05:47:50.043Z</time></trkpt><trkpt lat="44.8604077" lon="7.3348589"><ele>352.0</ele><time>2026-04-21T05:47:51.039Z</time></trkpt><trkpt lat="44.8602863" lon="7.3349013"><ele>352.0</ele><time>2026-04-21T05:47:52.032Z</time></trkpt><trkpt lat="44.8601606" lon="7.3349452"><ele>352.0</ele><time>2026-04-21T05:47:53.041Z</time></trkpt><trkpt lat="44.8600322" lon="7.3349911"><ele>352.0</ele><time>2026-04-21T05:47:54.04Z</time></trkpt><trkpt lat="44.8598993" lon="7.3350375"><ele>352.0</ele><time>2026-04-21T05:47:55.046Z</time></trkpt><trkpt lat="44.8597632" lon="7.3350848"><ele>352.0</ele><time>2026-04-21T05:47:56.038Z</time></trkpt><trkpt lat="44.8596244" lon="7.3351323"><ele>352.0</ele><time>2026-04-21T05:47:57.043Z</time></trkpt><trkpt lat="44.859484" lon="7.3351797"><ele>352.0</ele><time>2026-04-21T05:47:58.043Z</time></trkpt><trkpt lat="44.859344" lon="7.3352279"><ele>352.0</ele><time>2026-04-21T05:47:59.037Z</time></trkpt><trkpt lat="44.8592042" lon="7.3352743"><ele>352.0</ele><time>2026-04-21T05:48:00.039Z</time></trkpt><trkpt lat="44.8590644" lon="7.3353206"><ele>352.0</ele><time>2026-04-21T05:48:01.036Z</time></trkpt><trkpt lat="44.8589265" lon="7.3353641"><ele>352.0</ele><time>2026-04-21T05:48:02.036Z</time></trkpt><trkpt lat="44.8587933" lon="7.3354045"><ele>352.0</ele><time>2026-04-21T05:48:03.045Z</time></trkpt><trkpt lat="44.8586655" lon="7.3354426"><ele>352.0</ele><time>2026-04-21T05:48:04.038Z</time></trkpt><trkpt lat="44.8585456" lon="7.3354811"><ele>352.0</ele><time>2026-04-21T05:48:05.034Z</time></trkpt><trkpt lat="44.8584321" lon="7.3355212"><ele>352.0</ele><time>2026-04-21T05:48:06.041Z</time></trkpt><trkpt lat="44.8583249" lon="7.3355574"><ele>352.0</ele><time>2026-04-21T05:48:07.039Z</time></trkpt><trkpt lat="44.8582226" lon="7.3355918"><ele>351.6</ele><time>2026-04-21T05:48:08.045Z</time></trkpt><trkpt lat="44.858125" lon="7.3356226"><ele>351.20000000000005</ele><time>2026-04-21T05:48:09.034Z</time></trkpt><trkpt lat="44.8580277" lon="7.3356555"><ele>350.8</ele><time>2026-04-21T05:48:10.039Z</time></trkpt><trkpt lat="44.8579199" lon="7.3356938"><ele>350.4</ele><time>2026-04-21T05:48:11.042Z</time></trkpt><trkpt lat="44.8578041" lon="7.3357384"><ele>350.0</ele><time>2026-04-21T05:48:12.042Z</time></trkpt><trkpt lat="44.85768" lon="7.3357815"><ele>349.5</ele><time>2026-04-21T05:48:13.051Z</time></trkpt><trkpt lat="44.8575532" lon="7.3358233"><ele>349.0</ele><time>2026-04-21T05:48:14.039Z</time></trkpt><trkpt lat="44.8574269" lon="7.3358648"><ele>348.5</ele><time>2026-04-21T05:48:15.045Z</time></trkpt><trkpt lat="44.8573068" lon="7.3359063"><ele>348.0</ele><time>2026-04-21T05:48:16.045Z</time></trkpt><trkpt lat="44.8571983" lon="7.3359489"><ele>348.0</ele><time>2026-04-21T05:48:17.036Z</time></trkpt><trkpt lat="44.8570947" lon="7.3359869"><ele>348.0</ele><time>2026-04-21T05:48:18.037Z</time></trkpt><trkpt lat="44.8569969" lon="7.3360218"><ele>348.0</ele><time>2026-04-21T05:48:19.042Z</time></trkpt><trkpt lat="44.8569066" lon="7.3360512"><ele>348.0</ele><time>2026-04-21T05:48:20.039Z</time></trkpt><trkpt lat="44.8568202" lon="7.3360803"><ele>348.0</ele><time>2026-04-21T05:48:21.041Z</time></trkpt><trkpt lat="44.8567321" lon="7.3361008"><ele>347.8333333333333</ele><time>2026-04-21T05:48:22.051Z</time></trkpt><trkpt lat="44.8566466" lon="7.3361169"><ele>347.6666666666667</ele><time>2026-04-21T05:48:23.043Z</time></trkpt><trkpt lat="44.8565626" lon="7.3361376"><ele>347.5</ele><time>2026-04-21T05:48:24.037Z</time></trkpt><trkpt lat="44.8564813" lon="7.3361606"><ele>347.33333333333337</ele><time>2026-04-21T05:48:25.042Z</time></trkpt><trkpt lat="44.8564015" lon="7.3361862"><ele>347.1666666666667</ele><time>2026-04-21T05:48:26.04Z</time></trkpt><trkpt lat="44.8563188" lon="7.3362134"><ele>347.0</ele><time>2026-04-21T05:48:27.037Z</time></trkpt><trkpt lat="44.8562286" lon="7.3362381"><ele>347.0</ele><time>2026-04-21T05:48:28.04Z</time></trkpt><trkpt lat="44.856135" lon="7.3362567"><ele>347.0</ele><time>2026-04-21T05:48:29.04Z</time></trkpt><trkpt lat="44.8560395" lon="7.3362779"><ele>347.0</ele><time>2026-04-21T05:48:30.034Z</time></trkpt><trkpt lat="44.8559389" lon="7.336303"><ele>347.0</ele><time>2026-04-21T05:48:31.033Z</time></trkpt><trkpt lat="44.8558387" lon="7.3363304"><ele>347.0</ele><time>2026-04-21T05:48:32.037Z</time></trkpt><trkpt lat="44.8557372" lon="7.3363591"><ele>347.0</ele><time>2026-04-21T05:48:33.038Z</time></trkpt><trkpt lat="44.8556347" lon="7.3363822"><ele>347.0</ele><time>2026-04-21T05:48:34.039Z</time></trkpt><trkpt lat="44.8555348" lon="7.336402"><ele>347.0</ele><time>2026-04-21T05:48:35.039Z</time></trkpt><trkpt lat="44.8554386" lon="7.3364238"><ele>347.0</ele><time>2026-04-21T05:48:36.039Z</time></trkpt><trkpt lat="44.8553478" lon="7.3364508"><ele>347.0</ele><time>2026-04-21T05:48:37.037Z</time></trkpt><trkpt lat="44.8552624" lon="7.3364771"><ele>347.0</ele><time>2026-04-21T05:48:38.034Z</time></trkpt><trkpt lat="44.8551854" lon="7.3364985"><ele>347.0</ele><time>2026-04-21T05:48:39.039Z</time></trkpt><trkpt lat="44.8551159" lon="7.3365065"><ele>347.0</ele><time>2026-04-21T05:48:40.031Z</time></trkpt><trkpt lat="44.8550529" lon="7.3364948"><ele>347.0</ele><time>2026-04-21T05:48:41.041Z</time></trkpt><trkpt lat="44.8549884" lon="7.3364747"><ele>347.0</ele><time>2026-04-21T05:48:42.037Z</time></trkpt><trkpt lat="44.8549179" lon="7.3364788"><ele>347.0</ele><time>2026-04-21T05:48:43.043Z</time></trkpt><trkpt lat="44.8548468" lon="7.3365104"><ele>347.0</ele><time>2026-04-21T05:48:44.036Z</time></trkpt><trkpt lat="44.8547891" lon="7.3365663"><ele>347.0</ele><time>2026-04-21T05:48:45.037Z</time></trkpt><trkpt lat="44.8547239" lon="7.3366283"><ele>347.0</ele><time>2026-04-21T05:48:46.036Z</time></trkpt><trkpt lat="44.8546537" lon="7.3366922"><ele>347.0</ele><time>2026-04-21T05:48:47.037Z</time></trkpt><trkpt lat="44.8545785" lon="7.3367575"><ele>347.0</ele><time>2026-04-21T05:48:48.042Z</time></trkpt><trkpt lat="44.8544967" lon="7.3368019"><ele>347.0</ele><time>2026-04-21T05:48:49.042Z</time></trkpt><trkpt lat="44.854417" lon="7.3368388"><ele>347.0</ele><time>2026-04-21T05:48:50.042Z</time></trkpt><trkpt lat="44.8543435" lon="7.336872"><ele>346.6</ele><time>2026-04-21T05:48:51.036Z</time></trkpt><trkpt lat="44.8542721" lon="7.3369058"><ele>346.20000000000005</ele><time>2026-04-21T05:48:52.045Z</time></trkpt><trkpt lat="44.8541888" lon="7.336943"><ele>345.8</ele><time>2026-04-21T05:48:53.043Z</time></trkpt><trkpt lat="44.8540925" lon="7.3369875"><ele>345.4</ele><time>2026-04-21T05:48:54.044Z</time></trkpt><trkpt lat="44.8539757" lon="7.3370395"><ele>345.0</ele><time>2026-04-21T05:48:55.036Z</time></trkpt><trkpt lat="44.8538342" lon="7.3370894"><ele>345.0</ele><time>2026-04-21T05:48:56.038Z</time></trkpt><trkpt lat="44.8536715" lon="7.3371407"><ele>345.0</ele><time>2026-04-21T05:48:57.036Z</time></trkpt><trkpt lat="44.8535092" lon="7.3371924"><ele>345.0</ele><time>2026-04-21T05:48:58.045Z</time></trkpt><trkpt lat="44.8533598" lon="7.3372416"><ele>344.75</ele><time>2026-04-21T05:48:59.04Z</time></trkpt><trkpt lat="44.8532247" lon="7.3372884"><ele>344.5</ele><time>2026-04-21T05:49:00.042Z</time></trkpt><trkpt lat="44.8530967" lon="7.3373381"><ele>344.25</ele><time>2026-04-21T05:49:01.042Z</time></trkpt><trkpt lat="44.8529644" lon="7.337395"><ele>344.0</ele><time>2026-04-21T05:49:02.04Z</time></trkpt><trkpt lat="44.8528257" lon="7.3374541"><ele>344.0</ele><time>2026-04-21T05:49:03.043Z</time></trkpt><trkpt lat="44.8526802" lon="7.3375113"><ele>344.0</ele><time>2026-04-21T05:49:04.035Z</time></trkpt><trkpt lat="44.8525246" lon="7.3375639"><ele>344.0</ele><time>2026-04-21T05:49:05.037Z</time></trkpt><trkpt lat="44.8523666" lon="7.3376132"><ele>345.0</ele><time>2026-04-21T05:49:06.035Z</time></trkpt><trkpt lat="44.8522148" lon="7.3376609"><ele>346.0</ele><time>2026-04-21T05:49:07.031Z</time></trkpt><trkpt lat="44.852073" lon="7.3377091"><ele>347.0</ele><time>2026-04-21T05:49:08.038Z</time></trkpt><trkpt lat="44.851943" lon="7.3377598"><ele>348.0</ele><time>2026-04-21T05:49:09.041Z</time></trkpt><trkpt lat="44.8518244" lon="7.3378155"><ele>348.0</ele><time>2026-04-21T05:49:10.03Z</time></trkpt><trkpt lat="44.8517176" lon="7.33788"><ele>348.0</ele><time>2026-04-21T05:49:11.045Z</time></trkpt><trkpt lat="44.85162" lon="7.3379417"><ele>348.0</ele><time>2026-04-21T05:49:12.032Z</time></trkpt><trkpt lat="44.8515362" lon="7.337993"><ele>348.0</ele><time>2026-04-21T05:49:13.037Z</time></trkpt><trkpt lat="44.8514674" lon="7.3380391"><ele>348.0</ele><time>2026-04-21T05:49:14.036Z</time></trkpt><trkpt lat="44.8513671" lon="7.3381165"><ele>348.0</ele><time>2026-04-21T05:49:16.039Z</time></trkpt><trkpt lat="44.851277" lon="7.3381478"><ele>348.0</ele><time>2026-04-21T05:49:18.039Z</time></trkpt><trkpt lat="44.8511907" lon="7.3381359"><ele>348.0</ele><time>2026-04-21T05:49:20.041Z</time></trkpt><trkpt lat="44.8511064" lon="7.3381166"><ele>348.0</ele><time>2026-04-21T05:49:27.039Z</time></trkpt><trkpt lat="44.8510033" lon="7.3380664"><ele>348.0</ele><time>2026-04-21T05:49:29.037Z</time></trkpt><trkpt lat="44.8509266" lon="7.3380395"><ele>347.5</ele><time>2026-04-21T05:49:30.038Z</time></trkpt><trkpt lat="44.850827" lon="7.3380308"><ele>347.0</ele><time>2026-04-21T05:49:31.032Z</time></trkpt><trkpt lat="44.8507066" lon="7.3380453"><ele>346.5</ele><time>2026-04-21T05:49:32.037Z</time></trkpt><trkpt lat="44.8505796" lon="7.3380566"><ele>346.0</ele><time>2026-04-21T05:49:33.039Z</time></trkpt><trkpt lat="44.8504415" lon="7.3380247"><ele>346.0</ele><time>2026-04-21T05:49:34.04Z</time></trkpt><trkpt lat="44.8502916" lon="7.3379529"><ele>346.0</ele><time>2026-04-21T05:49:35.043Z</time></trkpt><trkpt lat="44.8501312" lon="7.3378649"><ele>346.0</ele><time>2026-04-21T05:49:36.038Z</time></trkpt><trkpt lat="44.8499608" lon="7.3377709"><ele>345.66666666666663</ele><time>2026-04-21T05:49:37.038Z</time></trkpt><trkpt lat="44.8497793" lon="7.3376707"><ele>345.3333333333333</ele><time>2026-04-21T05:49:38.036Z</time></trkpt><trkpt lat="44.8495913" lon="7.3375688"><ele>345.0</ele><time>2026-04-21T05:49:39.037Z</time></trkpt><trkpt lat="44.8494023" lon="7.3374666"><ele>344.3333333333333</ele><time>2026-04-21T05:49:40.036Z</time></trkpt><trkpt lat="44.8492084" lon="7.3373616"><ele>343.66666666666663</ele><time>2026-04-21T05:49:41.045Z</time></trkpt><trkpt lat="44.8490127" lon="7.3372557"><ele>343.0</ele><time>2026-04-21T05:49:42.039Z</time></trkpt><trkpt lat="44.8488128" lon="7.3371492"><ele>342.66666666666663</ele><time>2026-04-21T05:49:43.038Z</time></trkpt><trkpt lat="44.8486105" lon="7.337043"><ele>342.3333333333333</ele><time>2026-04-21T05:49:44.043Z</time></trkpt><trkpt lat="44.8484121" lon="7.3369391"><ele>342.0</ele><time>2026-04-21T05:49:45.045Z</time></trkpt><trkpt lat="44.8482244" lon="7.3368388"><ele>341.3333333333333</ele><time>2026-04-21T05:49:46.047Z</time></trkpt><trkpt lat="44.8480457" lon="7.3367438"><ele>340.66666666666663</ele><time>2026-04-21T05:49:47.045Z</time></trkpt><trkpt lat="44.8478804" lon="7.3366582"><ele>340.0</ele><time>2026-04-21T05:49:48.038Z</time></trkpt><trkpt lat="44.8477226" lon="7.3365757"><ele>340.25</ele><time>2026-04-21T05:49:49.041Z</time></trkpt><trkpt lat="44.8475738" lon="7.3364967"><ele>340.5</ele><time>2026-04-21T05:49:50.033Z</time></trkpt><trkpt lat="44.8474346" lon="7.3364219"><ele>340.75</ele><time>2026-04-21T05:49:51.04Z</time></trkpt><trkpt lat="44.8473024" lon="7.3363507"><ele>341.0</ele><time>2026-04-21T05:49:52.039Z</time></trkpt><trkpt lat="44.8471777" lon="7.3362873"><ele>341.5</ele><time>2026-04-21T05:49:53.044Z</time></trkpt><trkpt lat="44.8470564" lon="7.3362228"><ele>342.0</ele><time>2026-04-21T05:49:54.043Z</time></trkpt><trkpt lat="44.8469402" lon="7.3361615"><ele>342.5</ele><time>2026-04-21T05:49:55.038Z</time></trkpt><trkpt lat="44.8468241" lon="7.3360995"><ele>343.0</ele><time>2026-04-21T05:49:56.039Z</time></trkpt><trkpt lat="44.8467043" lon="7.3360354"><ele>343.0</ele><time>2026-04-21T05:49:57.042Z</time></trkpt><trkpt lat="44.8465806" lon="7.33597"><ele>343.0</ele><time>2026-04-21T05:49:58.039Z</time></trkpt><trkpt lat="44.8464598" lon="7.335907"><ele>343.0</ele><time>2026-04-21T05:49:59.033Z</time></trkpt><trkpt lat="44.8463456" lon="7.335847"><ele>343.0</ele><time>2026-04-21T05:50:00.04Z</time></trkpt><trkpt lat="44.8462393" lon="7.3357862"><ele>343.0</ele><time>2026-04-21T05:50:01.037Z</time></trkpt><trkpt lat="44.8461415" lon="7.3357255"><ele>343.0</ele><time>2026-04-21T05:50:02.037Z</time></trkpt><trkpt lat="44.8460569" lon="7.335666"><ele>343.0</ele><time>2026-04-21T05:50:03.046Z</time></trkpt><trkpt lat="44.8459876" lon="7.3356046"><ele>343.0</ele><time>2026-04-21T05:50:04.039Z</time></trkpt><trkpt lat="44.8459385" lon="7.3355472"><ele>343.0</ele><time>2026-04-21T05:50:05.036Z</time></trkpt><trkpt lat="44.845895" lon="7.3354677"><ele>343.0</ele><time>2026-04-21T05:50:08.038Z</time></trkpt><trkpt lat="44.8458448" lon="7.3353701"><ele>342.59999999999997</ele><time>2026-04-21T05:50:10.038Z</time></trkpt><trkpt lat="44.8457385" lon="7.335269"><ele>342.2</ele><time>2026-04-21T05:50:12.038Z</time></trkpt><trkpt lat="44.8456486" lon="7.3352735"><ele>341.8</ele><time>2026-04-21T05:50:13.043Z</time></trkpt><trkpt lat="44.84556" lon="7.3353391"><ele>341.4</ele><time>2026-04-21T05:50:14.043Z</time></trkpt><trkpt lat="44.8454991" lon="7.3354483"><ele>341.0</ele><time>2026-04-21T05:50:15.042Z</time></trkpt><trkpt lat="44.8454863" lon="7.3356069"><ele>341.0</ele><time>2026-04-21T05:50:16.035Z</time></trkpt><trkpt lat="44.8454951" lon="7.3357915"><ele>341.0</ele><time>2026-04-21T05:50:17.04Z</time></trkpt><trkpt lat="44.8454979" lon="7.3359694"><ele>341.0</ele><time>2026-04-21T05:50:18.037Z</time></trkpt><trkpt lat="44.8454706" lon="7.3361459"><ele>341.0</ele><time>2026-04-21T05:50:19.04Z</time></trkpt><trkpt lat="44.8454296" lon="7.3363309"><ele>341.33333333333337</ele><time>2026-04-21T05:50:20.042Z</time></trkpt><trkpt lat="44.845384" lon="7.3365321"><ele>341.6666666666667</ele><time>2026-04-21T05:50:21.042Z</time></trkpt><trkpt lat="44.8453256" lon="7.3367418"><ele>342.0</ele><time>2026-04-21T05:50:22.04Z</time></trkpt><trkpt lat="44.8452614" lon="7.336968"><ele>342.0</ele><time>2026-04-21T05:50:23.049Z</time></trkpt><trkpt lat="44.8451934" lon="7.3372127"><ele>342.0</ele><time>2026-04-21T05:50:24.04Z</time></trkpt><trkpt lat="44.8451212" lon="7.3374677"><ele>342.0</ele><time>2026-04-21T05:50:25.035Z</time></trkpt><trkpt lat="44.8450412" lon="7.3377309"><ele>341.3333333333333</ele><time>2026-04-21T05:50:26.045Z</time></trkpt><trkpt lat="44.8449624" lon="7.3380053"><ele>340.66666666666663</ele><time>2026-04-21T05:50:27.042Z</time></trkpt><trkpt lat="44.8448846" lon="7.3382914"><ele>340.0</ele><time>2026-04-21T05:50:28.039Z</time></trkpt><trkpt lat="44.8448064" lon="7.3385846"><ele>338.5</ele><time>2026-04-21T05:50:29.04Z</time></trkpt><trkpt lat="44.8447373" lon="7.3388886"><ele>337.0</ele><time>2026-04-21T05:50:30.046Z</time></trkpt><trkpt lat="44.844683" lon="7.3392071"><ele>337.0</ele><time>2026-04-21T05:50:31.039Z</time></trkpt><trkpt lat="44.8446415" lon="7.3395308"><ele>337.0</ele><time>2026-04-21T05:50:32.038Z</time></trkpt><trkpt lat="44.8446148" lon="7.3398673"><ele>338.0</ele><time>2026-04-21T05:50:33.035Z</time></trkpt><trkpt lat="44.8445962" lon="7.3402064"><ele>339.0</ele><time>2026-04-21T05:50:34.043Z</time></trkpt><trkpt lat="44.8445837" lon="7.3405466"><ele>339.0</ele><time>2026-04-21T05:50:35.045Z</time></trkpt><trkpt lat="44.8445707" lon="7.3408825"><ele>339.0</ele><time>2026-04-21T05:50:36.04Z</time></trkpt><trkpt lat="44.8445577" lon="7.3412207"><ele>338.5</ele><time>2026-04-21T05:50:37.045Z</time></trkpt><trkpt lat="44.8445455" lon="7.3415605"><ele>338.0</ele><time>2026-04-21T05:50:38.038Z</time></trkpt><trkpt lat="44.8445314" lon="7.3419007"><ele>338.0</ele><time>2026-04-21T05:50:39.043Z</time></trkpt><trkpt lat="44.8445192" lon="7.3422442"><ele>338.0</ele><time>2026-04-21T05:50:40.035Z</time></trkpt><trkpt lat="44.8445051" lon="7.3425823"><ele>338.0</ele><time>2026-04-21T05:50:41.038Z</time></trkpt><trkpt lat="44.8444902" lon="7.3429178"><ele>338.0</ele><time>2026-04-21T05:50:42.037Z</time></trkpt><trkpt lat="44.8444766" lon="7.3432532"><ele>337.0</ele><time>2026-04-21T05:50:43.046Z</time></trkpt><trkpt lat="44.8444622" lon="7.343587"><ele>336.0</ele><time>2026-04-21T05:50:44.045Z</time></trkpt><trkpt lat="44.8444473" lon="7.343921"><ele>335.0</ele><time>2026-04-21T05:50:45.038Z</time></trkpt><trkpt lat="44.8444323" lon="7.3442551"><ele>334.0</ele><time>2026-04-21T05:50:46.041Z</time></trkpt><trkpt lat="44.8444162" lon="7.3445906"><ele>334.5</ele><time>2026-04-21T05:50:47.045Z</time></trkpt><trkpt lat="44.8444007" lon="7.3449282"><ele>335.0</ele><time>2026-04-21T05:50:48.034Z</time></trkpt><trkpt lat="44.8443869" lon="7.3452688"><ele>335.0</ele><time>2026-04-21T05:50:49.041Z</time></trkpt><trkpt lat="44.8443738" lon="7.3456107"><ele>335.0</ele><time>2026-04-21T05:50:50.04Z</time></trkpt><trkpt lat="44.84436" lon="7.3459499"><ele>335.0</ele><time>2026-04-21T05:50:51.038Z</time></trkpt><trkpt lat="44.8443467" lon="7.346289"><ele>335.0</ele><time>2026-04-21T05:50:52.043Z</time></trkpt><trkpt lat="44.8443313" lon="7.3466267"><ele>335.5</ele><time>2026-04-21T05:50:53.051Z</time></trkpt><trkpt lat="44.8443108" lon="7.3469645"><ele>336.0</ele><time>2026-04-21T05:50:54.04Z</time></trkpt><trkpt lat="44.8442788" lon="7.3472993"><ele>336.0</ele><time>2026-04-21T05:50:55.043Z</time></trkpt><trkpt lat="44.84423" lon="7.3476305"><ele>336.0</ele><time>2026-04-21T05:50:56.039Z</time></trkpt><trkpt lat="44.8441667" lon="7.347959"><ele>335.0</ele><time>2026-04-21T05:50:57.041Z</time></trkpt><trkpt lat="44.8440921" lon="7.3482842"><ele>334.0</ele><time>2026-04-21T05:50:58.042Z</time></trkpt><trkpt lat="44.8440104" lon="7.3486058"><ele>334.0</ele><time>2026-04-21T05:50:59.044Z</time></trkpt><trkpt lat="44.8439273" lon="7.3489284"><ele>334.0</ele><time>2026-04-21T05:51:00.041Z</time></trkpt><trkpt lat="44.8438385" lon="7.3492528"><ele>334.0</ele><time>2026-04-21T05:51:01.039Z</time></trkpt><trkpt lat="44.8437529" lon="7.3495764"><ele>334.0</ele><time>2026-04-21T05:51:02.043Z</time></trkpt><trkpt lat="44.8436676" lon="7.3498947"><ele>333.66666666666663</ele><time>2026-04-21T05:51:03.035Z</time></trkpt><trkpt lat="44.8435865" lon="7.350206"><ele>333.3333333333333</ele><time>2026-04-21T05:51:04.04Z</time></trkpt><trkpt lat="44.8435128" lon="7.3504864"><ele>333.0</ele><time>2026-04-21T05:51:05.037Z</time></trkpt><trkpt lat="44.8434455" lon="7.3507297"><ele>332.3333333333333</ele><time>2026-04-21T05:51:06.042Z</time></trkpt><trkpt lat="44.8433666" lon="7.3509508"><ele>331.66666666666663</ele><time>2026-04-21T05:51:07.044Z</time></trkpt><trkpt lat="44.8432661" lon="7.3511503"><ele>331.0</ele><time>2026-04-21T05:51:08.039Z</time></trkpt><trkpt lat="44.8431542" lon="7.3513697"><ele>331.0</ele><time>2026-04-21T05:51:09.041Z</time></trkpt><trkpt lat="44.8430424" lon="7.3516003"><ele>331.0</ele><time>2026-04-21T05:51:10.042Z</time></trkpt><trkpt lat="44.8429116" lon="7.3518267"><ele>331.0</ele><time>2026-04-21T05:51:11.043Z</time></trkpt><trkpt lat="44.8427585" lon="7.3520348"><ele>331.3333333333333</ele><time>2026-04-21T05:51:12.044Z</time></trkpt><trkpt lat="44.8425873" lon="7.3522313"><ele>331.6666666666667</ele><time>2026-04-21T05:51:13.047Z</time></trkpt><trkpt lat="44.8424069" lon="7.3524233"><ele>332.0</ele><time>2026-04-21T05:51:14.043Z</time></trkpt><trkpt lat="44.8422226" lon="7.3526216"><ele>332.0</ele><time>2026-04-21T05:51:15.045Z</time></trkpt><trkpt lat="44.8420373" lon="7.3528246"><ele>332.0</ele><time>2026-04-21T05:51:16.045Z</time></trkpt><trkpt lat="44.8418558" lon="7.3530282"><ele>331.0</ele><time>2026-04-21T05:51:17.039Z</time></trkpt><trkpt lat="44.8416861" lon="7.3532239"><ele>330.0</ele><time>2026-04-21T05:51:18.037Z</time></trkpt><trkpt lat="44.8415308" lon="7.3534104"><ele>329.0</ele><time>2026-04-21T05:51:19.038Z</time></trkpt><trkpt lat="44.841387" lon="7.3535811"><ele>329.0</ele><time>2026-04-21T05:51:20.033Z</time></trkpt><trkpt lat="44.8412621" lon="7.3537289"><ele>329.0</ele><time>2026-04-21T05:51:21.042Z</time></trkpt><trkpt lat="44.8411577" lon="7.3538543"><ele>329.0</ele><time>2026-04-21T05:51:22.038Z</time></trkpt><trkpt lat="44.841061" lon="7.3539551"><ele>329.0</ele><time>2026-04-21T05:51:23.049Z</time></trkpt><trkpt lat="44.8409772" lon="7.3540406"><ele>329.0</ele><time>2026-04-21T05:51:24.037Z</time></trkpt><trkpt lat="44.8409061" lon="7.3541156"><ele>329.0</ele><time>2026-04-21T05:51:25.039Z</time></trkpt><trkpt lat="44.8408428" lon="7.3541648"><ele>329.0</ele><time>2026-04-21T05:51:26.036Z</time></trkpt><trkpt lat="44.8407839" lon="7.3541997"><ele>329.0</ele><time>2026-04-21T05:51:27.041Z</time></trkpt><trkpt lat="44.8406823" lon="7.3542529"><ele>329.0</ele><time>2026-04-21T05:51:29.04Z</time></trkpt><trkpt lat="44.8406332" lon="7.3543142"><ele>329.0</ele><time>2026-04-21T05:51:30.037Z</time></trkpt><trkpt lat="44.8405887" lon="7.3544146"><ele>329.0</ele><time>2026-04-21T05:51:31.042Z</time></trkpt><trkpt lat="44.8405274" lon="7.3545423"><ele>329.0</ele><time>2026-04-21T05:51:32.038Z</time></trkpt><trkpt lat="44.8404382" lon="7.3546857"><ele>329.0</ele><time>2026-04-21T05:51:33.043Z</time></trkpt><trkpt lat="44.8403327" lon="7.3548399"><ele>329.0</ele><time>2026-04-21T05:51:34.042Z</time></trkpt><trkpt lat="44.8402123" lon="7.3549869"><ele>328.6666666666667</ele><time>2026-04-21T05:51:35.042Z</time></trkpt><trkpt lat="44.8400783" lon="7.3551432"><ele>328.3333333333333</ele><time>2026-04-21T05:51:36.038Z</time></trkpt><trkpt lat="44.8399387" lon="7.3553057"><ele>328.0</ele><time>2026-04-21T05:51:37.038Z</time></trkpt><trkpt lat="44.8397932" lon="7.3554762"><ele>327.66666666666663</ele><time>2026-04-21T05:51:38.047Z</time></trkpt><trkpt lat="44.8396381" lon="7.3556489"><ele>327.3333333333333</ele><time>2026-04-21T05:51:39.041Z</time></trkpt><trkpt lat="44.8394797" lon="7.3558221"><ele>327.0</ele><time>2026-04-21T05:51:40.045Z</time></trkpt><trkpt lat="44.839319" lon="7.3559986"><ele>326.3333333333333</ele><time>2026-04-21T05:51:41.05Z</time></trkpt><trkpt lat="44.8391578" lon="7.3561791"><ele>325.66666666666663</ele><time>2026-04-21T05:51:42.043Z</time></trkpt><trkpt lat="44.8389942" lon="7.3563626"><ele>325.0</ele><time>2026-04-21T05:51:43.044Z</time></trkpt><trkpt lat="44.8388305" lon="7.3565501"><ele>324.66666666666663</ele><time>2026-04-21T05:51:44.045Z</time></trkpt><trkpt lat="44.8386611" lon="7.3567405"><ele>324.3333333333333</ele><time>2026-04-21T05:51:45.036Z</time></trkpt><trkpt lat="44.8384911" lon="7.356932"><ele>324.0</ele><time>2026-04-21T05:51:46.037Z</time></trkpt><trkpt lat="44.8383206" lon="7.3571304"><ele>324.0</ele><time>2026-04-21T05:51:47.041Z</time></trkpt><trkpt lat="44.838147" lon="7.3573307"><ele>324.0</ele><time>2026-04-21T05:51:48.049Z</time></trkpt><trkpt lat="44.8379732" lon="7.3575312"><ele>324.0</ele><time>2026-04-21T05:51:49.045Z</time></trkpt><trkpt lat="44.8377996" lon="7.3577349"><ele>323.5</ele><time>2026-04-21T05:51:50.04Z</time></trkpt><trkpt lat="44.8376268" lon="7.3579411"><ele>323.0</ele><time>2026-04-21T05:51:51.041Z</time></trkpt><trkpt lat="44.837452" lon="7.3581452"><ele>323.0</ele><time>2026-04-21T05:51:52.045Z</time></trkpt><trkpt lat="44.8372797" lon="7.3583542"><ele>323.0</ele><time>2026-04-21T05:51:53.047Z</time></trkpt><trkpt lat="44.837106" lon="7.3585634"><ele>323.0</ele><time>2026-04-21T05:51:54.042Z</time></trkpt><trkpt lat="44.8369336" lon="7.358773"><ele>323.0</ele><time>2026-04-21T05:51:55.039Z</time></trkpt><trkpt lat="44.8367627" lon="7.3589817"><ele>322.0</ele><time>2026-04-21T05:51:56.039Z</time></trkpt><trkpt lat="44.8365939" lon="7.3591892"><ele>321.0</ele><time>2026-04-21T05:51:57.039Z</time></trkpt><trkpt lat="44.8364237" lon="7.3593991"><ele>321.0</ele><time>2026-04-21T05:51:58.051Z</time></trkpt><trkpt lat="44.8362561" lon="7.3596116"><ele>321.0</ele><time>2026-04-21T05:51:59.043Z</time></trkpt><trkpt lat="44.8360891" lon="7.3598253"><ele>320.5</ele><time>2026-04-21T05:52:00.06Z</time></trkpt><trkpt lat="44.8359222" lon="7.3600405"><ele>320.0</ele><time>2026-04-21T05:52:01.046Z</time></trkpt><trkpt lat="44.835756" lon="7.3602542"><ele>320.0</ele><time>2026-04-21T05:52:02.044Z</time></trkpt><trkpt lat="44.8355909" lon="7.3604656"><ele>320.0</ele><time>2026-04-21T05:52:03.046Z</time></trkpt><trkpt lat="44.8354232" lon="7.3606783"><ele>320.0</ele><time>2026-04-21T05:52:04.036Z</time></trkpt><trkpt lat="44.8352581" lon="7.3608898"><ele>319.33333333333337</ele><time>2026-04-21T05:52:05.061Z</time></trkpt><trkpt lat="44.835098" lon="7.361101"><ele>318.6666666666667</ele><time>2026-04-21T05:52:06.049Z</time></trkpt><trkpt lat="44.8349365" lon="7.36131"><ele>318.0</ele><time>2026-04-21T05:52:07.058Z</time></trkpt><trkpt lat="44.8347733" lon="7.3615203"><ele>317.6666666666667</ele><time>2026-04-21T05:52:08.045Z</time></trkpt><trkpt lat="44.8346096" lon="7.3617335"><ele>317.33333333333337</ele><time>2026-04-21T05:52:09.047Z</time></trkpt><trkpt lat="44.8344432" lon="7.3619461"><ele>317.0</ele><time>2026-04-21T05:52:10.049Z</time></trkpt><trkpt lat="44.8342713" lon="7.3621598"><ele>315.5</ele><time>2026-04-21T05:52:11.055Z</time></trkpt><trkpt lat="44.8340985" lon="7.3623758"><ele>314.0</ele><time>2026-04-21T05:52:12.05Z</time></trkpt><trkpt lat="44.833927" lon="7.3625923"><ele>314.0</ele><time>2026-04-21T05:52:13.056Z</time></trkpt><trkpt lat="44.8337551" lon="7.3628055"><ele>314.0</ele><time>2026-04-21T05:52:14.043Z</time></trkpt><trkpt lat="44.8335855" lon="7.3630223"><ele>314.5</ele><time>2026-04-21T05:52:15.062Z</time></trkpt><trkpt lat="44.8334156" lon="7.3632406"><ele>315.0</ele><time>2026-04-21T05:52:16.053Z</time></trkpt><trkpt lat="44.8332478" lon="7.363458"><ele>315.0</ele><time>2026-04-21T05:52:17.054Z</time></trkpt><trkpt lat="44.8330799" lon="7.3636692"><ele>315.0</ele><time>2026-04-21T05:52:18.038Z</time></trkpt><trkpt lat="44.8329125" lon="7.3638812"><ele>315.0</ele><time>2026-04-21T05:52:19.056Z</time></trkpt><trkpt lat="44.8327461" lon="7.3640916"><ele>315.0</ele><time>2026-04-21T05:52:20.056Z</time></trkpt><trkpt lat="44.8325819" lon="7.3643017"><ele>315.0</ele><time>2026-04-21T05:52:21.062Z</time></trkpt><trkpt lat="44.8324155" lon="7.3645122"><ele>315.3333333333333</ele><time>2026-04-21T05:52:22.053Z</time></trkpt><trkpt lat="44.8322497" lon="7.3647195"><ele>315.66666666666663</ele><time>2026-04-21T05:52:23.055Z</time></trkpt><trkpt lat="44.8320847" lon="7.3649282"><ele>316.0</ele><time>2026-04-21T05:52:24.063Z</time></trkpt><trkpt lat="44.8319187" lon="7.3651335"><ele>316.0</ele><time>2026-04-21T05:52:25.05Z</time></trkpt><trkpt lat="44.8317567" lon="7.3653419"><ele>316.0</ele><time>2026-04-21T05:52:26.061Z</time></trkpt><trkpt lat="44.831595" lon="7.3655507"><ele>316.0</ele><time>2026-04-21T05:52:27.06Z</time></trkpt><trkpt lat="44.8314336" lon="7.3657609"><ele>315.3333333333333</ele><time>2026-04-21T05:52:28.051Z</time></trkpt><trkpt lat="44.8312689" lon="7.3659715"><ele>314.6666666666667</ele><time>2026-04-21T05:52:29.062Z</time></trkpt><trkpt lat="44.8311035" lon="7.3661803"><ele>314.0</ele><time>2026-04-21T05:52:30.056Z</time></trkpt><trkpt lat="44.8309389" lon="7.3663891"><ele>314.0</ele><time>2026-04-21T05:52:31.047Z</time></trkpt><trkpt lat="44.8307749" lon="7.3665996"><ele>314.0</ele><time>2026-04-21T05:52:32.046Z</time></trkpt><trkpt lat="44.83061" lon="7.3668089"><ele>314.0</ele><time>2026-04-21T05:52:33.058Z</time></trkpt><trkpt lat="44.8304431" lon="7.3670138"><ele>313.33333333333337</ele><time>2026-04-21T05:52:34.058Z</time></trkpt><trkpt lat="44.8302669" lon="7.3672043"><ele>312.6666666666667</ele><time>2026-04-21T05:52:35.049Z</time></trkpt><trkpt lat="44.8300849" lon="7.3673716"><ele>312.0</ele><time>2026-04-21T05:52:36.051Z</time></trkpt><trkpt lat="44.8298943" lon="7.3675049"><ele>312.0</ele><time>2026-04-21T05:52:37.044Z</time></trkpt><trkpt lat="44.8296909" lon="7.3676079"><ele>312.0</ele><time>2026-04-21T05:52:38.049Z</time></trkpt><trkpt lat="44.8294808" lon="7.3676877"><ele>312.0</ele><time>2026-04-21T05:52:39.062Z</time></trkpt><trkpt lat="44.8292685" lon="7.367764"><ele>312.0</ele><time>2026-04-21T05:52:40.048Z</time></trkpt><trkpt lat="44.8290525" lon="7.3678449"><ele>312.0</ele><time>2026-04-21T05:52:41.06Z</time></trkpt><trkpt lat="44.8288389" lon="7.3679333"><ele>312.0</ele><time>2026-04-21T05:52:42.052Z</time></trkpt><trkpt lat="44.8286274" lon="7.3680276"><ele>312.3333333333333</ele><time>2026-04-21T05:52:43.063Z</time></trkpt><trkpt lat="44.828413" lon="7.3681139"><ele>312.66666666666663</ele><time>2026-04-21T05:52:44.048Z</time></trkpt><trkpt lat="44.8281988" lon="7.3682015"><ele>313.0</ele><time>2026-04-21T05:52:45.061Z</time></trkpt><trkpt lat="44.8279847" lon="7.3682899"><ele>313.0</ele><time>2026-04-21T05:52:46.044Z</time></trkpt><trkpt lat="44.8277708" lon="7.3683807"><ele>313.0</ele><time>2026-04-21T05:52:47.05Z</time></trkpt><trkpt lat="44.8275564" lon="7.3684719"><ele>313.0</ele><time>2026-04-21T05:52:48.05Z</time></trkpt><trkpt lat="44.8273424" lon="7.3685631"><ele>313.0</ele><time>2026-04-21T05:52:49.051Z</time></trkpt><trkpt lat="44.8271313" lon="7.3686539"><ele>313.0</ele><time>2026-04-21T05:52:50.041Z</time></trkpt><trkpt lat="44.8269192" lon="7.3687424"><ele>313.0</ele><time>2026-04-21T05:52:51.058Z</time></trkpt><trkpt lat="44.8267051" lon="7.3688292"><ele>312.66666666666663</ele><time>2026-04-21T05:52:52.045Z</time></trkpt><trkpt lat="44.82649" lon="7.3689169"><ele>312.3333333333333</ele><time>2026-04-21T05:52:53.063Z</time></trkpt><trkpt lat="44.8262751" lon="7.3690037"><ele>312.0</ele><time>2026-04-21T05:52:54.062Z</time></trkpt><trkpt lat="44.8260603" lon="7.369088"><ele>313.0</ele><time>2026-04-21T05:52:55.046Z</time></trkpt><trkpt lat="44.8258446" lon="7.3691716"><ele>314.0</ele><time>2026-04-21T05:52:56.059Z</time></trkpt><trkpt lat="44.8256303" lon="7.3692554"><ele>315.0</ele><time>2026-04-21T05:52:57.051Z</time></trkpt><trkpt lat="44.8254168" lon="7.36934"><ele>315.0</ele><time>2026-04-21T05:52:58.058Z</time></trkpt><trkpt lat="44.8252037" lon="7.3694235"><ele>315.0</ele><time>2026-04-21T05:52:59.041Z</time></trkpt><trkpt lat="44.8249894" lon="7.3695043"><ele>315.0</ele><time>2026-04-21T05:53:00.049Z</time></trkpt><trkpt lat="44.8247747" lon="7.3695869"><ele>315.0</ele><time>2026-04-21T05:53:01.05Z</time></trkpt><trkpt lat="44.8245609" lon="7.3696698"><ele>315.0</ele><time>2026-04-21T05:53:02.058Z</time></trkpt><trkpt lat="44.8243479" lon="7.369752"><ele>315.0</ele><time>2026-04-21T05:53:03.06Z</time></trkpt><trkpt lat="44.8241344" lon="7.3698351"><ele>314.3333333333333</ele><time>2026-04-21T05:53:04.055Z</time></trkpt><trkpt lat="44.8239188" lon="7.3699158"><ele>313.66666666666663</ele><time>2026-04-21T05:53:05.054Z</time></trkpt><trkpt lat="44.8237024" lon="7.3699914"><ele>313.0</ele><time>2026-04-21T05:53:06.049Z</time></trkpt><trkpt lat="44.823483" lon="7.3700618"><ele>312.66666666666663</ele><time>2026-04-21T05:53:07.056Z</time></trkpt><trkpt lat="44.8232625" lon="7.3701223"><ele>312.3333333333333</ele><time>2026-04-21T05:53:08.051Z</time></trkpt><trkpt lat="44.8230406" lon="7.3701735"><ele>312.0</ele><time>2026-04-21T05:53:09.043Z</time></trkpt><trkpt lat="44.8228164" lon="7.3702184"><ele>312.5</ele><time>2026-04-21T05:53:10.062Z</time></trkpt><trkpt lat="44.8225911" lon="7.3702571"><ele>313.0</ele><time>2026-04-21T05:53:11.047Z</time></trkpt><trkpt lat="44.8223637" lon="7.3702927"><ele>313.0</ele><time>2026-04-21T05:53:12.063Z</time></trkpt><trkpt lat="44.8221369" lon="7.3703275"><ele>313.0</ele><time>2026-04-21T05:53:13.053Z</time></trkpt><trkpt lat="44.8219096" lon="7.3703601"><ele>312.5</ele><time>2026-04-21T05:53:14.053Z</time></trkpt><trkpt lat="44.8216832" lon="7.3703947"><ele>312.0</ele><time>2026-04-21T05:53:15.059Z</time></trkpt><trkpt lat="44.8214552" lon="7.3704297"><ele>312.0</ele><time>2026-04-21T05:53:16.055Z</time></trkpt><trkpt lat="44.8212274" lon="7.3704649"><ele>312.0</ele><time>2026-04-21T05:53:17.059Z</time></trkpt><trkpt lat="44.8209995" lon="7.3704985"><ele>311.5</ele><time>2026-04-21T05:53:18.052Z</time></trkpt><trkpt lat="44.820771" lon="7.370532"><ele>311.0</ele><time>2026-04-21T05:53:19.045Z</time></trkpt><trkpt lat="44.8205435" lon="7.3705692"><ele>311.0</ele><time>2026-04-21T05:53:20.049Z</time></trkpt><trkpt lat="44.8203159" lon="7.3706054"><ele>311.0</ele><time>2026-04-21T05:53:21.046Z</time></trkpt><trkpt lat="44.8200885" lon="7.3706388"><ele>310.5</ele><time>2026-04-21T05:53:22.061Z</time></trkpt><trkpt lat="44.8198624" lon="7.3706738"><ele>310.0</ele><time>2026-04-21T05:53:23.046Z</time></trkpt><trkpt lat="44.819637" lon="7.3707065"><ele>310.0</ele><time>2026-04-21T05:53:24.059Z</time></trkpt><trkpt lat="44.8194123" lon="7.3707388"><ele>310.0</ele><time>2026-04-21T05:53:25.053Z</time></trkpt><trkpt lat="44.8191878" lon="7.3707732"><ele>311.0</ele><time>2026-04-21T05:53:26.059Z</time></trkpt><trkpt lat="44.8189646" lon="7.3708093"><ele>312.0</ele><time>2026-04-21T05:53:27.06Z</time></trkpt><trkpt lat="44.8187434" lon="7.3708462"><ele>313.0</ele><time>2026-04-21T05:53:28.057Z</time></trkpt><trkpt lat="44.818525" lon="7.3708839"><ele>312.66666666666663</ele><time>2026-04-21T05:53:29.05Z</time></trkpt><trkpt lat="44.8183069" lon="7.3709183"><ele>312.3333333333333</ele><time>2026-04-21T05:53:30.04Z</time></trkpt><trkpt lat="44.8180901" lon="7.3709517"><ele>312.0</ele><time>2026-04-21T05:53:31.049Z</time></trkpt><trkpt lat="44.8178738" lon="7.3709873"><ele>312.0</ele><time>2026-04-21T05:53:32.04Z</time></trkpt><trkpt lat="44.8176621" lon="7.37102"><ele>312.0</ele><time>2026-04-21T05:53:33.053Z</time></trkpt><trkpt lat="44.8174617" lon="7.3710455"><ele>312.0</ele><time>2026-04-21T05:53:34.057Z</time></trkpt><trkpt lat="44.8172772" lon="7.3710622"><ele>312.0</ele><time>2026-04-21T05:53:35.051Z</time></trkpt><trkpt lat="44.817116" lon="7.371064"><ele>312.0</ele><time>2026-04-21T05:53:36.051Z</time></trkpt><trkpt lat="44.8169726" lon="7.3710424"><ele>312.0</ele><time>2026-04-21T05:53:37.05Z</time></trkpt><trkpt lat="44.8168391" lon="7.3710081"><ele>312.0</ele><time>2026-04-21T05:53:38.04Z</time></trkpt><trkpt lat="44.8167085" lon="7.3709923"><ele>312.3333333333333</ele><time>2026-04-21T05:53:39.04Z</time></trkpt><trkpt lat="44.8165727" lon="7.3710257"><ele>312.66666666666663</ele><time>2026-04-21T05:53:40.038Z</time></trkpt><trkpt lat="44.8164289" lon="7.3711133"><ele>313.0</ele><time>2026-04-21T05:53:41.043Z</time></trkpt><trkpt lat="44.8162806" lon="7.3711998"><ele>313.0</ele><time>2026-04-21T05:53:42.043Z</time></trkpt><trkpt lat="44.8161181" lon="7.3712634"><ele>313.0</ele><time>2026-04-21T05:53:43.042Z</time></trkpt><trkpt lat="44.8159349" lon="7.3713033"><ele>313.0</ele><time>2026-04-21T05:53:44.046Z</time></trkpt><trkpt lat="44.8157394" lon="7.3713353"><ele>312.66666666666663</ele><time>2026-04-21T05:53:45.04Z</time></trkpt><trkpt lat="44.8155398" lon="7.3713618"><ele>312.3333333333333</ele><time>2026-04-21T05:53:46.039Z</time></trkpt><trkpt lat="44.8153349" lon="7.3713903"><ele>312.0</ele><time>2026-04-21T05:53:47.04Z</time></trkpt><trkpt lat="44.8151257" lon="7.3714235"><ele>312.0</ele><time>2026-04-21T05:53:48.042Z</time></trkpt><trkpt lat="44.8149092" lon="7.3714536"><ele>312.0</ele><time>2026-04-21T05:53:49.044Z</time></trkpt><trkpt lat="44.8146898" lon="7.3714827"><ele>312.0</ele><time>2026-04-21T05:53:50.039Z</time></trkpt><trkpt lat="44.8144724" lon="7.371509"><ele>311.6666666666667</ele><time>2026-04-21T05:53:51.039Z</time></trkpt><trkpt lat="44.8142559" lon="7.3715398"><ele>311.33333333333337</ele><time>2026-04-21T05:53:52.039Z</time></trkpt><trkpt lat="44.8140442" lon="7.3715717"><ele>311.0</ele><time>2026-04-21T05:53:53.053Z</time></trkpt><trkpt lat="44.8138426" lon="7.3716038"><ele>311.0</ele><time>2026-04-21T05:53:54.041Z</time></trkpt><trkpt lat="44.8136528" lon="7.3716333"><ele>311.0</ele><time>2026-04-21T05:53:55.048Z</time></trkpt><trkpt lat="44.8134756" lon="7.3716609"><ele>311.0</ele><time>2026-04-21T05:53:56.044Z</time></trkpt><trkpt lat="44.8133112" lon="7.3716888"><ele>311.33333333333337</ele><time>2026-04-21T05:53:57.033Z</time></trkpt><trkpt lat="44.8131524" lon="7.3717167"><ele>311.6666666666667</ele><time>2026-04-21T05:53:58.036Z</time></trkpt><trkpt lat="44.8129982" lon="7.3717457"><ele>312.0</ele><time>2026-04-21T05:53:59.041Z</time></trkpt><trkpt lat="44.8128444" lon="7.3717748"><ele>312.0</ele><time>2026-04-21T05:54:00.042Z</time></trkpt><trkpt lat="44.8126886" lon="7.371802"><ele>312.0</ele><time>2026-04-21T05:54:01.045Z</time></trkpt><trkpt lat="44.8125312" lon="7.37182"><ele>312.0</ele><time>2026-04-21T05:54:02.039Z</time></trkpt><trkpt lat="44.81238" lon="7.371838"><ele>312.0</ele><time>2026-04-21T05:54:03.035Z</time></trkpt><trkpt lat="44.8122313" lon="7.3718624"><ele>312.0</ele><time>2026-04-21T05:54:04.04Z</time></trkpt><trkpt lat="44.8120871" lon="7.3718935"><ele>312.0</ele><time>2026-04-21T05:54:05.035Z</time></trkpt><trkpt lat="44.8119271" lon="7.3719232"><ele>312.0</ele><time>2026-04-21T05:54:06.047Z</time></trkpt><trkpt lat="44.8117566" lon="7.3719587"><ele>312.0</ele><time>2026-04-21T05:54:07.04Z</time></trkpt><trkpt lat="44.8115725" lon="7.3720009"><ele>312.0</ele><time>2026-04-21T05:54:08.038Z</time></trkpt><trkpt lat="44.8113764" lon="7.3720359"><ele>312.0</ele><time>2026-04-21T05:54:09.049Z</time></trkpt><trkpt lat="44.8111701" lon="7.3720685"><ele>312.0</ele><time>2026-04-21T05:54:10.045Z</time></trkpt><trkpt lat="44.8109598" lon="7.372099"><ele>312.0</ele><time>2026-04-21T05:54:11.042Z</time></trkpt><trkpt lat="44.8107501" lon="7.3721251"><ele>312.0</ele><time>2026-04-21T05:54:12.049Z</time></trkpt><trkpt lat="44.8105431" lon="7.3721499"><ele>312.0</ele><time>2026-04-21T05:54:13.042Z</time></trkpt><trkpt lat="44.8103464" lon="7.3721699"><ele>312.0</ele><time>2026-04-21T05:54:14.047Z</time></trkpt><trkpt lat="44.8101568" lon="7.3721936"><ele>312.0</ele><time>2026-04-21T05:54:15.045Z</time></trkpt><trkpt lat="44.8099775" lon="7.3722217"><ele>312.0</ele><time>2026-04-21T05:54:16.039Z</time></trkpt><trkpt lat="44.8098077" lon="7.3722471"><ele>312.0</ele><time>2026-04-21T05:54:17.041Z</time></trkpt><trkpt lat="44.8096466" lon="7.372268"><ele>312.0</ele><time>2026-04-21T05:54:18.044Z</time></trkpt><trkpt lat="44.8094941" lon="7.3722869"><ele>312.0</ele><time>2026-04-21T05:54:19.045Z</time></trkpt><trkpt lat="44.8093482" lon="7.3723078"><ele>312.0</ele><time>2026-04-21T05:54:20.041Z</time></trkpt><trkpt lat="44.8092082" lon="7.3723312"><ele>312.0</ele><time>2026-04-21T05:54:21.042Z</time></trkpt><trkpt lat="44.8090754" lon="7.3723514"><ele>311.75</ele><time>2026-04-21T05:54:22.043Z</time></trkpt><trkpt lat="44.8089474" lon="7.3723741"><ele>311.5</ele><time>2026-04-21T05:54:23.035Z</time></trkpt><trkpt lat="44.8088148" lon="7.3723969"><ele>311.25</ele><time>2026-04-21T05:54:24.046Z</time></trkpt><trkpt lat="44.8086767" lon="7.3724235"><ele>311.0</ele><time>2026-04-21T05:54:25.043Z</time></trkpt><trkpt lat="44.8085369" lon="7.3724441"><ele>311.25</ele><time>2026-04-21T05:54:26.042Z</time></trkpt><trkpt lat="44.8083975" lon="7.3724627"><ele>311.5</ele><time>2026-04-21T05:54:27.055Z</time></trkpt><trkpt lat="44.8082621" lon="7.3724868"><ele>311.75</ele><time>2026-04-21T05:54:28.051Z</time></trkpt><trkpt lat="44.8081287" lon="7.3725085"><ele>312.0</ele><time>2026-04-21T05:54:29.047Z</time></trkpt><trkpt lat="44.8079992" lon="7.3725263"><ele>312.0</ele><time>2026-04-21T05:54:30.045Z</time></trkpt><trkpt lat="44.8078703" lon="7.3725464"><ele>312.0</ele><time>2026-04-21T05:54:31.039Z</time></trkpt><trkpt lat="44.8077362" lon="7.3725645"><ele>312.0</ele><time>2026-04-21T05:54:32.044Z</time></trkpt><trkpt lat="44.8075984" lon="7.3725838"><ele>312.0</ele><time>2026-04-21T05:54:33.054Z</time></trkpt><trkpt lat="44.807457" lon="7.3726083"><ele>312.25</ele><time>2026-04-21T05:54:34.044Z</time></trkpt><trkpt lat="44.8073135" lon="7.3726317"><ele>312.5</ele><time>2026-04-21T05:54:35.049Z</time></trkpt><trkpt lat="44.8071727" lon="7.3726558"><ele>312.75</ele><time>2026-04-21T05:54:36.043Z</time></trkpt><trkpt lat="44.8070316" lon="7.3726802"><ele>313.0</ele><time>2026-04-21T05:54:37.04Z</time></trkpt><trkpt lat="44.8068856" lon="7.3727061"><ele>312.3333333333333</ele><time>2026-04-21T05:54:38.044Z</time></trkpt><trkpt lat="44.8067332" lon="7.3727309"><ele>311.6666666666667</ele><time>2026-04-21T05:54:39.045Z</time></trkpt><trkpt lat="44.8065706" lon="7.3727566"><ele>311.0</ele><time>2026-04-21T05:54:40.046Z</time></trkpt><trkpt lat="44.806392" lon="7.3727953"><ele>311.0</ele><time>2026-04-21T05:54:41.039Z</time></trkpt><trkpt lat="44.806198" lon="7.3728428"><ele>311.0</ele><time>2026-04-21T05:54:42.043Z</time></trkpt><trkpt lat="44.8059947" lon="7.3728816"><ele>311.0</ele><time>2026-04-21T05:54:43.053Z</time></trkpt><trkpt lat="44.8057947" lon="7.3729052"><ele>311.0</ele><time>2026-04-21T05:54:44.036Z</time></trkpt><trkpt lat="44.8056087" lon="7.3729157"><ele>311.0</ele><time>2026-04-21T05:54:45.047Z</time></trkpt><trkpt lat="44.8054429" lon="7.3729298"><ele>311.0</ele><time>2026-04-21T05:54:46.045Z</time></trkpt><trkpt lat="44.805298" lon="7.3729465"><ele>311.0</ele><time>2026-04-21T05:54:47.044Z</time></trkpt><trkpt lat="44.8051686" lon="7.3729669"><ele>311.0</ele><time>2026-04-21T05:54:48.045Z</time></trkpt><trkpt lat="44.8050454" lon="7.3729896"><ele>311.0</ele><time>2026-04-21T05:54:49.037Z</time></trkpt><trkpt lat="44.8049193" lon="7.3730068"><ele>311.0</ele><time>2026-04-21T05:54:50.043Z</time></trkpt><trkpt lat="44.8047878" lon="7.373028"><ele>311.0</ele><time>2026-04-21T05:54:51.041Z</time></trkpt><trkpt lat="44.8046505" lon="7.3730474"><ele>311.0</ele><time>2026-04-21T05:54:52.048Z</time></trkpt><trkpt lat="44.8045124" lon="7.3730647"><ele>311.0</ele><time>2026-04-21T05:54:53.041Z</time></trkpt><trkpt lat="44.8043777" lon="7.3730839"><ele>311.0</ele><time>2026-04-21T05:54:54.035Z</time></trkpt><trkpt lat="44.8042492" lon="7.3731043"><ele>311.0</ele><time>2026-04-21T05:54:55.043Z</time></trkpt><trkpt lat="44.8041226" lon="7.3731291"><ele>311.0</ele><time>2026-04-21T05:54:56.043Z</time></trkpt><trkpt lat="44.8039934" lon="7.3731578"><ele>311.0</ele><time>2026-04-21T05:54:57.04Z</time></trkpt><trkpt lat="44.8038648" lon="7.3731837"><ele>311.0</ele><time>2026-04-21T05:54:58.047Z</time></trkpt><trkpt lat="44.8037357" lon="7.3732048"><ele>311.0</ele><time>2026-04-21T05:54:59.04Z</time></trkpt><trkpt lat="44.8036062" lon="7.3732206"><ele>311.0</ele><time>2026-04-21T05:55:00.047Z</time></trkpt><trkpt lat="44.8034762" lon="7.3732421"><ele>311.0</ele><time>2026-04-21T05:55:01.04Z</time></trkpt><trkpt lat="44.803345" lon="7.3732653"><ele>311.0</ele><time>2026-04-21T05:55:02.046Z</time></trkpt><trkpt lat="44.8032077" lon="7.3732885"><ele>310.75</ele><time>2026-04-21T05:55:03.053Z</time></trkpt><trkpt lat="44.803064" lon="7.3733071"><ele>310.5</ele><time>2026-04-21T05:55:04.05Z</time></trkpt><trkpt lat="44.8029167" lon="7.3733249"><ele>310.25</ele><time>2026-04-21T05:55:05.038Z</time></trkpt><trkpt lat="44.8027691" lon="7.37335"><ele>310.0</ele><time>2026-04-21T05:55:06.042Z</time></trkpt><trkpt lat="44.8026161" lon="7.3733732"><ele>310.0</ele><time>2026-04-21T05:55:07.037Z</time></trkpt><trkpt lat="44.8024602" lon="7.373393"><ele>310.0</ele><time>2026-04-21T05:55:08.043Z</time></trkpt><trkpt lat="44.8023054" lon="7.3734125"><ele>310.0</ele><time>2026-04-21T05:55:09.043Z</time></trkpt><trkpt lat="44.8021553" lon="7.3734327"><ele>310.0</ele><time>2026-04-21T05:55:10.037Z</time></trkpt><trkpt lat="44.802009" lon="7.3734513"><ele>310.0</ele><time>2026-04-21T05:55:11.041Z</time></trkpt><trkpt lat="44.8018643" lon="7.3734709"><ele>310.0</ele><time>2026-04-21T05:55:12.035Z</time></trkpt><trkpt lat="44.8017205" lon="7.373493"><ele>310.0</ele><time>2026-04-21T05:55:13.041Z</time></trkpt><trkpt lat="44.8015768" lon="7.37352"><ele>309.75</ele><time>2026-04-21T05:55:14.041Z</time></trkpt><trkpt lat="44.8014307" lon="7.373545"><ele>309.5</ele><time>2026-04-21T05:55:15.037Z</time></trkpt><trkpt lat="44.8012847" lon="7.3735689"><ele>309.25</ele><time>2026-04-21T05:55:16.048Z</time></trkpt><trkpt lat="44.8011398" lon="7.3735953"><ele>309.0</ele><time>2026-04-21T05:55:17.04Z</time></trkpt><trkpt lat="44.8009964" lon="7.3736247"><ele>308.75</ele><time>2026-04-21T05:55:18.048Z</time></trkpt><trkpt lat="44.8008546" lon="7.3736547"><ele>308.5</ele><time>2026-04-21T05:55:19.042Z</time></trkpt><trkpt lat="44.8007159" lon="7.3736782"><ele>308.25</ele><time>2026-04-21T05:55:20.039Z</time></trkpt><trkpt lat="44.8005811" lon="7.3736973"><ele>308.0</ele><time>2026-04-21T05:55:21.044Z</time></trkpt><trkpt lat="44.8004559" lon="7.373717"><ele>308.0</ele><time>2026-04-21T05:55:22.047Z</time></trkpt><trkpt lat="44.8003343" lon="7.3737354"><ele>308.0</ele><time>2026-04-21T05:55:23.037Z</time></trkpt><trkpt lat="44.8002102" lon="7.3737592"><ele>308.0</ele><time>2026-04-21T05:55:24.043Z</time></trkpt><trkpt lat="44.8000852" lon="7.3737841"><ele>308.0</ele><time>2026-04-21T05:55:25.043Z</time></trkpt><trkpt lat="44.7999543" lon="7.3738084"><ele>308.33333333333337</ele><time>2026-04-21T05:55:26.039Z</time></trkpt><trkpt lat="44.7998088" lon="7.3738396"><ele>308.6666666666667</ele><time>2026-04-21T05:55:27.038Z</time></trkpt><trkpt lat="44.7996482" lon="7.3738705"><ele>309.0</ele><time>2026-04-21T05:55:28.038Z</time></trkpt><trkpt lat="44.7994779" lon="7.3739012"><ele>308.6666666666667</ele><time>2026-04-21T05:55:29.041Z</time></trkpt><trkpt lat="44.7993034" lon="7.3739249"><ele>308.33333333333337</ele><time>2026-04-21T05:55:30.041Z</time></trkpt><trkpt lat="44.799132" lon="7.3739436"><ele>308.0</ele><time>2026-04-21T05:55:31.037Z</time></trkpt><trkpt lat="44.7989625" lon="7.3739548"><ele>308.0</ele><time>2026-04-21T05:55:32.044Z</time></trkpt><trkpt lat="44.7987945" lon="7.3739639"><ele>308.0</ele><time>2026-04-21T05:55:33.051Z</time></trkpt><trkpt lat="44.7986298" lon="7.3739822"><ele>308.0</ele><time>2026-04-21T05:55:34.039Z</time></trkpt><trkpt lat="44.7984694" lon="7.3740088"><ele>308.0</ele><time>2026-04-21T05:55:35.045Z</time></trkpt><trkpt lat="44.7983144" lon="7.3740412"><ele>308.0</ele><time>2026-04-21T05:55:36.045Z</time></trkpt><trkpt lat="44.7981601" lon="7.3740675"><ele>308.0</ele><time>2026-04-21T05:55:37.038Z</time></trkpt><trkpt lat="44.7980085" lon="7.3740969"><ele>308.0</ele><time>2026-04-21T05:55:38.044Z</time></trkpt><trkpt lat="44.7978524" lon="7.3741171"><ele>308.0</ele><time>2026-04-21T05:55:39.044Z</time></trkpt><trkpt lat="44.7976975" lon="7.3741377"><ele>308.0</ele><time>2026-04-21T05:55:40.036Z</time></trkpt><trkpt lat="44.7975436" lon="7.3741588"><ele>308.33333333333337</ele><time>2026-04-21T05:55:41.043Z</time></trkpt><trkpt lat="44.7973929" lon="7.3741817"><ele>308.6666666666667</ele><time>2026-04-21T05:55:42.043Z</time></trkpt><trkpt lat="44.7972451" lon="7.3742078"><ele>309.0</ele><time>2026-04-21T05:55:43.051Z</time></trkpt><trkpt lat="44.7970967" lon="7.3742372"><ele>309.0</ele><time>2026-04-21T05:55:44.037Z</time></trkpt><trkpt lat="44.7969504" lon="7.3742662"><ele>309.0</ele><time>2026-04-21T05:55:45.046Z</time></trkpt><trkpt lat="44.7968078" lon="7.3742873"><ele>309.0</ele><time>2026-04-21T05:55:46.049Z</time></trkpt><trkpt lat="44.7966732" lon="7.3743064"><ele>309.0</ele><time>2026-04-21T05:55:47.042Z</time></trkpt><trkpt lat="44.7965418" lon="7.3743261"><ele>308.5</ele><time>2026-04-21T05:55:48.049Z</time></trkpt><trkpt lat="44.7964084" lon="7.3743478"><ele>308.0</ele><time>2026-04-21T05:55:49.047Z</time></trkpt><trkpt lat="44.7962712" lon="7.3743702"><ele>307.5</ele><time>2026-04-21T05:55:50.036Z</time></trkpt><trkpt lat="44.7961287" lon="7.3743933"><ele>307.0</ele><time>2026-04-21T05:55:51.044Z</time></trkpt><trkpt lat="44.7959843" lon="7.3744129"><ele>306.75</ele><time>2026-04-21T05:55:52.043Z</time></trkpt><trkpt lat="44.7958435" lon="7.3744311"><ele>306.5</ele><time>2026-04-21T05:55:53.043Z</time></trkpt><trkpt lat="44.7957074" lon="7.3744475"><ele>306.25</ele><time>2026-04-21T05:55:54.047Z</time></trkpt><trkpt lat="44.7955775" lon="7.3744658"><ele>306.0</ele><time>2026-04-21T05:55:55.044Z</time></trkpt><trkpt lat="44.7954515" lon="7.3744863"><ele>306.0</ele><time>2026-04-21T05:55:56.046Z</time></trkpt><trkpt lat="44.7953261" lon="7.3745084"><ele>306.0</ele><time>2026-04-21T05:55:57.045Z</time></trkpt><trkpt lat="44.7952015" lon="7.3745303"><ele>306.0</ele><time>2026-04-21T05:55:58.039Z</time></trkpt><trkpt lat="44.7950789" lon="7.3745523"><ele>306.0</ele><time>2026-04-21T05:55:59.037Z</time></trkpt><trkpt lat="44.7949594" lon="7.3745699"><ele>305.8</ele><time>2026-04-21T05:56:00.04Z</time></trkpt><trkpt lat="44.7948446" lon="7.3745849"><ele>305.6</ele><time>2026-04-21T05:56:01.046Z</time></trkpt><trkpt lat="44.7947331" lon="7.3745979"><ele>305.4</ele><time>2026-04-21T05:56:02.046Z</time></trkpt><trkpt lat="44.794625" lon="7.374612"><ele>305.2</ele><time>2026-04-21T05:56:03.046Z</time></trkpt><trkpt lat="44.7945211" lon="7.3746253"><ele>305.0</ele><time>2026-04-21T05:56:04.038Z</time></trkpt><trkpt lat="44.7944233" lon="7.3746389"><ele>305.4</ele><time>2026-04-21T05:56:05.038Z</time></trkpt><trkpt lat="44.7943293" lon="7.3746564"><ele>305.8</ele><time>2026-04-21T05:56:06.043Z</time></trkpt><trkpt lat="44.7942381" lon="7.3746734"><ele>306.2</ele><time>2026-04-21T05:56:07.039Z</time></trkpt><trkpt lat="44.7941436" lon="7.3746856"><ele>306.6</ele><time>2026-04-21T05:56:08.046Z</time></trkpt><trkpt lat="44.7940468" lon="7.3746908"><ele>307.0</ele><time>2026-04-21T05:56:09.043Z</time></trkpt><trkpt lat="44.7939487" lon="7.3746873"><ele>307.0</ele><time>2026-04-21T05:56:10.042Z</time></trkpt><trkpt lat="44.7938487" lon="7.374684"><ele>307.0</ele><time>2026-04-21T05:56:11.045Z</time></trkpt><trkpt lat="44.7937465" lon="7.3746898"><ele>307.0</ele><time>2026-04-21T05:56:12.04Z</time></trkpt><trkpt lat="44.7936428" lon="7.3747043"><ele>307.0</ele><time>2026-04-21T05:56:13.049Z</time></trkpt><trkpt lat="44.7935404" lon="7.3747286"><ele>307.0</ele><time>2026-04-21T05:56:14.043Z</time></trkpt><trkpt lat="44.7934385" lon="7.3747547"><ele>307.0</ele><time>2026-04-21T05:56:15.047Z</time></trkpt><trkpt lat="44.7933394" lon="7.3747827"><ele>307.0</ele><time>2026-04-21T05:56:16.044Z</time></trkpt><trkpt lat="44.7932446" lon="7.3748146"><ele>307.0</ele><time>2026-04-21T05:56:17.039Z</time></trkpt><trkpt lat="44.7931496" lon="7.3748438"><ele>307.0</ele><time>2026-04-21T05:56:18.038Z</time></trkpt><trkpt lat="44.7930508" lon="7.3748685"><ele>307.0</ele><time>2026-04-21T05:56:19.044Z</time></trkpt><trkpt lat="44.792949" lon="7.3748826"><ele>307.0</ele><time>2026-04-21T05:56:20.039Z</time></trkpt><trkpt lat="44.7928491" lon="7.3748962"><ele>307.0</ele><time>2026-04-21T05:56:21.047Z</time></trkpt><trkpt lat="44.7927549" lon="7.3749113"><ele>307.0</ele><time>2026-04-21T05:56:22.043Z</time></trkpt><trkpt lat="44.7926648" lon="7.3749232"><ele>307.0</ele><time>2026-04-21T05:56:23.045Z</time></trkpt><trkpt lat="44.792574" lon="7.374939"><ele>307.0</ele><time>2026-04-21T05:56:24.044Z</time></trkpt><trkpt lat="44.7924797" lon="7.3749575"><ele>307.2</ele><time>2026-04-21T05:56:25.04Z</time></trkpt><trkpt lat="44.7923789" lon="7.3749765"><ele>307.4</ele><time>2026-04-21T05:56:26.043Z</time></trkpt><trkpt lat="44.7922767" lon="7.3749944"><ele>307.6</ele><time>2026-04-21T05:56:27.035Z</time></trkpt><trkpt lat="44.7921699" lon="7.3750156"><ele>307.8</ele><time>2026-04-21T05:56:28.042Z</time></trkpt><trkpt lat="44.7920573" lon="7.3750376"><ele>308.0</ele><time>2026-04-21T05:56:29.039Z</time></trkpt><trkpt lat="44.7919407" lon="7.375057"><ele>308.0</ele><time>2026-04-21T05:56:30.035Z</time></trkpt><trkpt lat="44.7918211" lon="7.375076"><ele>308.0</ele><time>2026-04-21T05:56:31.041Z</time></trkpt><trkpt lat="44.7917009" lon="7.3750954"><ele>308.0</ele><time>2026-04-21T05:56:32.037Z</time></trkpt><trkpt lat="44.7915825" lon="7.3751115"><ele>308.0</ele><time>2026-04-21T05:56:33.035Z</time></trkpt><trkpt lat="44.791464" lon="7.3751273"><ele>308.0</ele><time>2026-04-21T05:56:34.041Z</time></trkpt><trkpt lat="44.7913438" lon="7.3751411"><ele>308.0</ele><time>2026-04-21T05:56:35.036Z</time></trkpt><trkpt lat="44.7912254" lon="7.3751547"><ele>308.0</ele><time>2026-04-21T05:56:36.046Z</time></trkpt><trkpt lat="44.7911126" lon="7.3751713"><ele>308.0</ele><time>2026-04-21T05:56:37.039Z</time></trkpt><trkpt lat="44.791001" lon="7.37519"><ele>307.5</ele><time>2026-04-21T05:56:38.039Z</time></trkpt><trkpt lat="44.7908895" lon="7.3752106"><ele>307.0</ele><time>2026-04-21T05:56:39.039Z</time></trkpt><trkpt lat="44.7907763" lon="7.3752268"><ele>306.5</ele><time>2026-04-21T05:56:40.044Z</time></trkpt><trkpt lat="44.7906626" lon="7.3752429"><ele>306.0</ele><time>2026-04-21T05:56:41.04Z</time></trkpt><trkpt lat="44.79055" lon="7.3752609"><ele>306.0</ele><time>2026-04-21T05:56:42.043Z</time></trkpt><trkpt lat="44.7904404" lon="7.3752743"><ele>306.0</ele><time>2026-04-21T05:56:43.042Z</time></trkpt><trkpt lat="44.7903369" lon="7.3752851"><ele>306.0</ele><time>2026-04-21T05:56:44.038Z</time></trkpt><trkpt lat="44.7902384" lon="7.3752984"><ele>306.0</ele><time>2026-04-21T05:56:45.038Z</time></trkpt><trkpt lat="44.7901408" lon="7.3753142"><ele>306.0</ele><time>2026-04-21T05:56:46.044Z</time></trkpt><trkpt lat="44.790041" lon="7.3753313"><ele>306.0</ele><time>2026-04-21T05:56:47.045Z</time></trkpt><trkpt lat="44.7899382" lon="7.3753479"><ele>306.0</ele><time>2026-04-21T05:56:48.046Z</time></trkpt><trkpt lat="44.7898297" lon="7.3753651"><ele>306.0</ele><time>2026-04-21T05:56:49.04Z</time></trkpt><trkpt lat="44.7897165" lon="7.3753815"><ele>306.0</ele><time>2026-04-21T05:56:50.037Z</time></trkpt><trkpt lat="44.7895973" lon="7.375396"><ele>306.0</ele><time>2026-04-21T05:56:51.036Z</time></trkpt><trkpt lat="44.7894758" lon="7.3754144"><ele>306.0</ele><time>2026-04-21T05:56:52.043Z</time></trkpt><trkpt lat="44.7893511" lon="7.3754293"><ele>306.0</ele><time>2026-04-21T05:56:53.045Z</time></trkpt><trkpt lat="44.7892279" lon="7.3754449"><ele>306.0</ele><time>2026-04-21T05:56:54.048Z</time></trkpt><trkpt lat="44.7891086" lon="7.3754599"><ele>306.0</ele><time>2026-04-21T05:56:55.037Z</time></trkpt><trkpt lat="44.7889987" lon="7.3754788"><ele>305.6</ele><time>2026-04-21T05:56:56.043Z</time></trkpt><trkpt lat="44.788896" lon="7.3754922"><ele>305.20000000000005</ele><time>2026-04-21T05:56:57.037Z</time></trkpt><trkpt lat="44.7887989" lon="7.3754999"><ele>304.79999999999995</ele><time>2026-04-21T05:56:58.035Z</time></trkpt><trkpt lat="44.7886999" lon="7.3754993"><ele>304.4</ele><time>2026-04-21T05:56:59.043Z</time></trkpt><trkpt lat="44.7885971" lon="7.3754938"><ele>304.0</ele><time>2026-04-21T05:57:00.042Z</time></trkpt><trkpt lat="44.7884885" lon="7.375479"><ele>303.75</ele><time>2026-04-21T05:57:01.036Z</time></trkpt><trkpt lat="44.7883761" lon="7.3754577"><ele>303.5</ele><time>2026-04-21T05:57:02.039Z</time></trkpt><trkpt lat="44.7882625" lon="7.3754336"><ele>303.25</ele><time>2026-04-21T05:57:03.038Z</time></trkpt><trkpt lat="44.7881501" lon="7.3754121"><ele>303.0</ele><time>2026-04-21T05:57:04.041Z</time></trkpt><trkpt lat="44.7880433" lon="7.375391"><ele>303.0</ele><time>2026-04-21T05:57:05.042Z</time></trkpt><trkpt lat="44.7879412" lon="7.3753696"><ele>303.0</ele><time>2026-04-21T05:57:06.037Z</time></trkpt><trkpt lat="44.7878451" lon="7.3753472"><ele>303.0</ele><time>2026-04-21T05:57:07.038Z</time></trkpt><trkpt lat="44.7877557" lon="7.3753261"><ele>303.0</ele><time>2026-04-21T05:57:08.034Z</time></trkpt><trkpt lat="44.7876681" lon="7.3753104"><ele>303.0</ele><time>2026-04-21T05:57:09.034Z</time></trkpt><trkpt lat="44.7875853" lon="7.375295"><ele>303.0</ele><time>2026-04-21T05:57:10.033Z</time></trkpt><trkpt lat="44.7875062" lon="7.3752779"><ele>303.0</ele><time>2026-04-21T05:57:11.04Z</time></trkpt><trkpt lat="44.7874249" lon="7.3752658"><ele>303.0</ele><time>2026-04-21T05:57:12.039Z</time></trkpt><trkpt lat="44.787333" lon="7.3752599"><ele>303.0</ele><time>2026-04-21T05:57:13.044Z</time></trkpt><trkpt lat="44.7872373" lon="7.375255"><ele>303.0</ele><time>2026-04-21T05:57:14.039Z</time></trkpt><trkpt lat="44.7871497" lon="7.3752412"><ele>303.0</ele><time>2026-04-21T05:57:15.04Z</time></trkpt><trkpt lat="44.7870721" lon="7.3752255"><ele>303.0</ele><time>2026-04-21T05:57:16.039Z</time></trkpt><trkpt lat="44.7870079" lon="7.3752128"><ele>303.0</ele><time>2026-04-21T05:57:17.04Z</time></trkpt><trkpt lat="44.7869001" lon="7.3751926"><ele>303.0</ele><time>2026-04-21T05:57:19.037Z</time></trkpt><trkpt lat="44.7868148" lon="7.3751714"><ele>303.0</ele><time>2026-04-21T05:57:21.04Z</time></trkpt><trkpt lat="44.7867294" lon="7.3751512"><ele>303.0</ele><time>2026-04-21T05:57:23.042Z</time></trkpt><trkpt lat="44.7866502" lon="7.375142"><ele>303.0</ele><time>2026-04-21T05:57:25.037Z</time></trkpt><trkpt lat="44.7865491" lon="7.3751489"><ele>303.2</ele><time>2026-04-21T05:57:27.041Z</time></trkpt><trkpt lat="44.7864488" lon="7.3752124"><ele>303.4</ele><time>2026-04-21T05:57:29.046Z</time></trkpt><trkpt lat="44.7863792" lon="7.3753632"><ele>303.59999999999997</ele><time>2026-04-21T05:57:31.042Z</time></trkpt><trkpt lat="44.7863616" lon="7.3754677"><ele>303.8</ele><time>2026-04-21T05:57:32.031Z</time></trkpt><trkpt lat="44.7863474" lon="7.3755813"><ele>304.0</ele><time>2026-04-21T05:57:33.034Z</time></trkpt><trkpt lat="44.7863301" lon="7.3757001"><ele>304.0</ele><time>2026-04-21T05:57:34.037Z</time></trkpt><trkpt lat="44.786306" lon="7.3758213"><ele>304.0</ele><time>2026-04-21T05:57:35.037Z</time></trkpt><trkpt lat="44.7862742" lon="7.3759401"><ele>304.0</ele><time>2026-04-21T05:57:36.037Z</time></trkpt><trkpt lat="44.7862334" lon="7.3760481"><ele>304.0</ele><time>2026-04-21T05:57:37.041Z</time></trkpt><trkpt lat="44.7861754" lon="7.376153"><ele>304.0</ele><time>2026-04-21T05:57:38.038Z</time></trkpt><trkpt lat="44.7861115" lon="7.3762327"><ele>304.0</ele><time>2026-04-21T05:57:39.035Z</time></trkpt><trkpt lat="44.7860429" lon="7.376306"><ele>303.59999999999997</ele><time>2026-04-21T05:57:40.037Z</time></trkpt><trkpt lat="44.7859643" lon="7.376374"><ele>303.2</ele><time>2026-04-21T05:57:41.036Z</time></trkpt><trkpt lat="44.7858755" lon="7.37644"><ele>302.79999999999995</ele><time>2026-04-21T05:57:42.038Z</time></trkpt><trkpt lat="44.7857752" lon="7.3765121"><ele>302.4</ele><time>2026-04-21T05:57:43.035Z</time></trkpt><trkpt lat="44.785664" lon="7.3765848"><ele>302.0</ele><time>2026-04-21T05:57:44.034Z</time></trkpt><trkpt lat="44.7855387" lon="7.3766602"><ele>302.0</ele><time>2026-04-21T05:57:45.034Z</time></trkpt><trkpt lat="44.7854032" lon="7.3767267"><ele>302.0</ele><time>2026-04-21T05:57:46.035Z</time></trkpt><trkpt lat="44.7852703" lon="7.3767744"><ele>302.0</ele><time>2026-04-21T05:57:47.038Z</time></trkpt><trkpt lat="44.7851451" lon="7.3768071"><ele>302.0</ele><time>2026-04-21T05:57:48.036Z</time></trkpt><trkpt lat="44.7850387" lon="7.3768412"><ele>302.1666666666667</ele><time>2026-04-21T05:57:49.034Z</time></trkpt><trkpt lat="44.7849504" lon="7.3768728"><ele>302.33333333333337</ele><time>2026-04-21T05:57:50.037Z</time></trkpt><trkpt lat="44.7848729" lon="7.3769062"><ele>302.5</ele><time>2026-04-21T05:57:51.037Z</time></trkpt><trkpt lat="44.7848012" lon="7.3769369"><ele>302.6666666666667</ele><time>2026-04-21T05:57:52.038Z</time></trkpt><trkpt lat="44.7847315" lon="7.3769663"><ele>302.8333333333333</ele><time>2026-04-21T05:57:53.046Z</time></trkpt><trkpt lat="44.7846625" lon="7.3770005"><ele>303.0</ele><time>2026-04-21T05:57:54.033Z</time></trkpt><trkpt lat="44.784596" lon="7.3770358"><ele>303.0</ele><time>2026-04-21T05:57:55.037Z</time></trkpt><trkpt lat="44.7845339" lon="7.377066"><ele>303.0</ele><time>2026-04-21T05:57:56.04Z</time></trkpt><trkpt lat="44.7844755" lon="7.3770997"><ele>303.0</ele><time>2026-04-21T05:57:57.041Z</time></trkpt><trkpt lat="44.784373" lon="7.3771527"><ele>303.0</ele><time>2026-04-21T05:57:59.04Z</time></trkpt><trkpt lat="44.7842836" lon="7.3772181"><ele>303.0</ele><time>2026-04-21T05:58:01.036Z</time></trkpt><trkpt lat="44.7842058" lon="7.377312"><ele>303.0</ele><time>2026-04-21T05:58:03.043Z</time></trkpt><trkpt lat="44.7841608" lon="7.3774921"><ele>302.6</ele><time>2026-04-21T05:58:05.036Z</time></trkpt><trkpt lat="44.7841508" lon="7.3776243"><ele>302.20000000000005</ele><time>2026-04-21T05:58:06.036Z</time></trkpt><trkpt lat="44.7841392" lon="7.3777809"><ele>301.8</ele><time>2026-04-21T05:58:07.037Z</time></trkpt><trkpt lat="44.7841244" lon="7.3779479"><ele>301.40000000000003</ele><time>2026-04-21T05:58:08.034Z</time></trkpt><trkpt lat="44.7841076" lon="7.3781011"><ele>301.0</ele><time>2026-04-21T05:58:09.04Z</time></trkpt><trkpt lat="44.7840905" lon="7.378246"><ele>301.0</ele><time>2026-04-21T05:58:10.037Z</time></trkpt><trkpt lat="44.7840677" lon="7.3783691"><ele>301.0</ele><time>2026-04-21T05:58:11.035Z</time></trkpt><trkpt lat="44.7840391" lon="7.3784831"><ele>301.0</ele><time>2026-04-21T05:58:12.039Z</time></trkpt><trkpt lat="44.7840105" lon="7.378595"><ele>301.0</ele><time>2026-04-21T05:58:13.041Z</time></trkpt><trkpt lat="44.7839771" lon="7.3787042"><ele>301.0</ele><time>2026-04-21T05:58:14.044Z</time></trkpt><trkpt lat="44.7839439" lon="7.3788166"><ele>301.0</ele><time>2026-04-21T05:58:15.045Z</time></trkpt><trkpt lat="44.783907" lon="7.3789289"><ele>301.2</ele><time>2026-04-21T05:58:16.039Z</time></trkpt><trkpt lat="44.7838607" lon="7.3790361"><ele>301.40000000000003</ele><time>2026-04-21T05:58:17.035Z</time></trkpt><trkpt lat="44.7838144" lon="7.3791457"><ele>301.6</ele><time>2026-04-21T05:58:18.041Z</time></trkpt><trkpt lat="44.7837716" lon="7.3792556"><ele>301.8</ele><time>2026-04-21T05:58:19.038Z</time></trkpt><trkpt lat="44.7837278" lon="7.3793717"><ele>302.0</ele><time>2026-04-21T05:58:20.037Z</time></trkpt><trkpt lat="44.7836804" lon="7.3794958"><ele>302.0</ele><time>2026-04-21T05:58:21.042Z</time></trkpt><trkpt lat="44.7836295" lon="7.3796241"><ele>302.0</ele><time>2026-04-21T05:58:22.047Z</time></trkpt><trkpt lat="44.7835804" lon="7.3797439"><ele>302.0</ele><time>2026-04-21T05:58:23.042Z</time></trkpt><trkpt lat="44.7835298" lon="7.3798584"><ele>302.0</ele><time>2026-04-21T05:58:24.044Z</time></trkpt><trkpt lat="44.7834736" lon="7.3799669"><ele>302.0</ele><time>2026-04-21T05:58:25.037Z</time></trkpt><trkpt lat="44.7834201" lon="7.3800779"><ele>301.2</ele><time>2026-04-21T05:58:26.039Z</time></trkpt><trkpt lat="44.7833657" lon="7.380197"><ele>300.4</ele><time>2026-04-21T05:58:27.036Z</time></trkpt><trkpt lat="44.7833087" lon="7.3803188"><ele>299.6</ele><time>2026-04-21T05:58:28.043Z</time></trkpt><trkpt lat="44.7832516" lon="7.3804355"><ele>298.8</ele><time>2026-04-21T05:58:29.039Z</time></trkpt><trkpt lat="44.7831973" lon="7.380546"><ele>298.0</ele><time>2026-04-21T05:58:30.04Z</time></trkpt><trkpt lat="44.7831365" lon="7.380659"><ele>298.0</ele><time>2026-04-21T05:58:31.039Z</time></trkpt><trkpt lat="44.7830702" lon="7.3807761"><ele>298.0</ele><time>2026-04-21T05:58:32.033Z</time></trkpt><trkpt lat="44.7830048" lon="7.3808891"><ele>298.0</ele><time>2026-04-21T05:58:33.044Z</time></trkpt><trkpt lat="44.7829422" lon="7.3809986"><ele>298.0</ele><time>2026-04-21T05:58:34.038Z</time></trkpt><trkpt lat="44.7828785" lon="7.3811026"><ele>298.0</ele><time>2026-04-21T05:58:35.04Z</time></trkpt><trkpt lat="44.7828183" lon="7.3812012"><ele>298.0</ele><time>2026-04-21T05:58:36.038Z</time></trkpt><trkpt lat="44.7827601" lon="7.3812932"><ele>298.0</ele><time>2026-04-21T05:58:37.037Z</time></trkpt><trkpt lat="44.782703" lon="7.3813808"><ele>298.0</ele><time>2026-04-21T05:58:38.035Z</time></trkpt><trkpt lat="44.7826493" lon="7.3814668"><ele>298.0</ele><time>2026-04-21T05:58:39.036Z</time></trkpt><trkpt lat="44.782597" lon="7.381552"><ele>298.0</ele><time>2026-04-21T05:58:40.043Z</time></trkpt><trkpt lat="44.7825502" lon="7.3816254"><ele>298.0</ele><time>2026-04-21T05:58:41.036Z</time></trkpt><trkpt lat="44.7824647" lon="7.3817482"><ele>298.0</ele><time>2026-04-21T05:58:43.044Z</time></trkpt><trkpt lat="44.7823732" lon="7.3818392"><ele>298.0</ele><time>2026-04-21T05:58:45.039Z</time></trkpt><trkpt lat="44.7822664" lon="7.3819002"><ele>298.0</ele><time>2026-04-21T05:58:47.039Z</time></trkpt><trkpt lat="44.78215" lon="7.3819786"><ele>298.0</ele><time>2026-04-21T05:58:49.037Z</time></trkpt><trkpt lat="44.7820931" lon="7.3820442"><ele>298.0</ele><time>2026-04-21T05:58:50.039Z</time></trkpt><trkpt lat="44.7820481" lon="7.3821249"><ele>297.66666666666663</ele><time>2026-04-21T05:58:51.047Z</time></trkpt><trkpt lat="44.7820152" lon="7.3822136"><ele>297.3333333333333</ele><time>2026-04-21T05:58:52.039Z</time></trkpt><trkpt lat="44.7819868" lon="7.3823094"><ele>297.0</ele><time>2026-04-21T05:58:53.044Z</time></trkpt><trkpt lat="44.781958" lon="7.3824068"><ele>296.6666666666667</ele><time>2026-04-21T05:58:54.036Z</time></trkpt><trkpt lat="44.7819232" lon="7.3825077"><ele>296.33333333333337</ele><time>2026-04-21T05:58:55.042Z</time></trkpt><trkpt lat="44.7818734" lon="7.382594"><ele>296.0</ele><time>2026-04-21T05:58:56.034Z</time></trkpt><trkpt lat="44.7818092" lon="7.3826746"><ele>296.0</ele><time>2026-04-21T05:58:57.04Z</time></trkpt><trkpt lat="44.7817405" lon="7.3827537"><ele>296.0</ele><time>2026-04-21T05:58:58.041Z</time></trkpt><trkpt lat="44.7816692" lon="7.3828293"><ele>296.0</ele><time>2026-04-21T05:58:59.038Z</time></trkpt><trkpt lat="44.7815942" lon="7.3829079"><ele>296.0</ele><time>2026-04-21T05:59:00.04Z</time></trkpt><trkpt lat="44.781515" lon="7.3829865"><ele>296.0</ele><time>2026-04-21T05:59:01.052Z</time></trkpt><trkpt lat="44.7814325" lon="7.3830649"><ele>296.2</ele><time>2026-04-21T05:59:02.037Z</time></trkpt><trkpt lat="44.7813418" lon="7.3831333"><ele>296.40000000000003</ele><time>2026-04-21T05:59:03.043Z</time></trkpt><trkpt lat="44.7812505" lon="7.3832076"><ele>296.6</ele><time>2026-04-21T05:59:04.043Z</time></trkpt><trkpt lat="44.7811606" lon="7.3832878"><ele>296.8</ele><time>2026-04-21T05:59:05.039Z</time></trkpt><trkpt lat="44.7810702" lon="7.3833767"><ele>297.0</ele><time>2026-04-21T05:59:06.04Z</time></trkpt><trkpt lat="44.7809722" lon="7.3834646"><ele>296.0</ele><time>2026-04-21T05:59:07.044Z</time></trkpt><trkpt lat="44.7808705" lon="7.3835541"><ele>295.0</ele><time>2026-04-21T05:59:08.042Z</time></trkpt><trkpt lat="44.7807625" lon="7.3836503"><ele>294.0</ele><time>2026-04-21T05:59:09.041Z</time></trkpt><trkpt lat="44.7806366" lon="7.3837546"><ele>293.0</ele><time>2026-04-21T05:59:10.042Z</time></trkpt><trkpt lat="44.7804911" lon="7.3838748"><ele>293.0</ele><time>2026-04-21T05:59:11.046Z</time></trkpt><trkpt lat="44.7803275" lon="7.3840087"><ele>293.0</ele><time>2026-04-21T05:59:12.038Z</time></trkpt><trkpt lat="44.7801512" lon="7.3841464"><ele>293.0</ele><time>2026-04-21T05:59:13.041Z</time></trkpt><trkpt lat="44.7799643" lon="7.3842727"><ele>293.33333333333337</ele><time>2026-04-21T05:59:14.04Z</time></trkpt><trkpt lat="44.77977" lon="7.3843963"><ele>293.6666666666667</ele><time>2026-04-21T05:59:15.04Z</time></trkpt><trkpt lat="44.7795731" lon="7.3845185"><ele>294.0</ele><time>2026-04-21T05:59:16.044Z</time></trkpt><trkpt lat="44.7793876" lon="7.3846517"><ele>293.0</ele><time>2026-04-21T05:59:17.037Z</time></trkpt><trkpt lat="44.7792115" lon="7.3847956"><ele>292.0</ele><time>2026-04-21T05:59:18.042Z</time></trkpt><trkpt lat="44.7790348" lon="7.3849365"><ele>291.0</ele><time>2026-04-21T05:59:19.04Z</time></trkpt><trkpt lat="44.7788567" lon="7.3850761"><ele>291.0</ele><time>2026-04-21T05:59:20.045Z</time></trkpt><trkpt lat="44.7786769" lon="7.3852156"><ele>291.0</ele><time>2026-04-21T05:59:21.042Z</time></trkpt><trkpt lat="44.778495" lon="7.3853536"><ele>291.0</ele><time>2026-04-21T05:59:22.039Z</time></trkpt><trkpt lat="44.7783109" lon="7.3854936"><ele>289.3333333333333</ele><time>2026-04-21T05:59:23.046Z</time></trkpt><trkpt lat="44.7781265" lon="7.3856357"><ele>287.66666666666663</ele><time>2026-04-21T05:59:24.042Z</time></trkpt><trkpt lat="44.7779425" lon="7.3857765"><ele>286.0</ele><time>2026-04-21T05:59:25.038Z</time></trkpt><trkpt lat="44.7777586" lon="7.3859167"><ele>287.0</ele><time>2026-04-21T05:59:26.044Z</time></trkpt><trkpt lat="44.777578" lon="7.3860566"><ele>288.0</ele><time>2026-04-21T05:59:27.049Z</time></trkpt><trkpt lat="44.7773968" lon="7.3861955"><ele>289.0</ele><time>2026-04-21T05:59:28.046Z</time></trkpt><trkpt lat="44.7772187" lon="7.3863363"><ele>289.0</ele><time>2026-04-21T05:59:29.047Z</time></trkpt><trkpt lat="44.7770389" lon="7.3864736"><ele>289.0</ele><time>2026-04-21T05:59:30.045Z</time></trkpt><trkpt lat="44.7768588" lon="7.3866087"><ele>289.0</ele><time>2026-04-21T05:59:31.045Z</time></trkpt><trkpt lat="44.7766784" lon="7.3867438"><ele>289.0</ele><time>2026-04-21T05:59:32.046Z</time></trkpt><trkpt lat="44.7764986" lon="7.3868805"><ele>289.0</ele><time>2026-04-21T05:59:33.043Z</time></trkpt><trkpt lat="44.7763194" lon="7.3870188"><ele>289.0</ele><time>2026-04-21T05:59:34.043Z</time></trkpt><trkpt lat="44.7761384" lon="7.3871574"><ele>288.0</ele><time>2026-04-21T05:59:35.044Z</time></trkpt><trkpt lat="44.7759565" lon="7.3872958"><ele>287.0</ele><time>2026-04-21T05:59:36.045Z</time></trkpt><trkpt lat="44.7757756" lon="7.3874351"><ele>286.0</ele><time>2026-04-21T05:59:37.043Z</time></trkpt><trkpt lat="44.775596" lon="7.3875748"><ele>286.0</ele><time>2026-04-21T05:59:38.046Z</time></trkpt><trkpt lat="44.7754161" lon="7.3877137"><ele>286.0</ele><time>2026-04-21T05:59:39.043Z</time></trkpt><trkpt lat="44.7752342" lon="7.3878501"><ele>286.0</ele><time>2026-04-21T05:59:40.044Z</time></trkpt><trkpt lat="44.7750546" lon="7.3879892"><ele>285.3333333333333</ele><time>2026-04-21T05:59:41.041Z</time></trkpt><trkpt lat="44.7748741" lon="7.3881287"><ele>284.6666666666667</ele><time>2026-04-21T05:59:42.041Z</time></trkpt><trkpt lat="44.7746922" lon="7.3882698"><ele>284.0</ele><time>2026-04-21T05:59:43.053Z</time></trkpt><trkpt lat="44.7745094" lon="7.3884101"><ele>284.0</ele><time>2026-04-21T05:59:44.04Z</time></trkpt><trkpt lat="44.7743273" lon="7.3885506"><ele>284.0</ele><time>2026-04-21T05:59:45.048Z</time></trkpt><trkpt lat="44.7741456" lon="7.3886903"><ele>284.0</ele><time>2026-04-21T05:59:46.045Z</time></trkpt><trkpt lat="44.7739625" lon="7.3888285"><ele>284.0</ele><time>2026-04-21T05:59:47.038Z</time></trkpt><trkpt lat="44.7737783" lon="7.3889662"><ele>284.0</ele><time>2026-04-21T05:59:48.037Z</time></trkpt><trkpt lat="44.7735935" lon="7.3891043"><ele>284.0</ele><time>2026-04-21T05:59:49.044Z</time></trkpt><trkpt lat="44.7734081" lon="7.3892416"><ele>284.0</ele><time>2026-04-21T05:59:50.043Z</time></trkpt><trkpt lat="44.7732234" lon="7.3893831"><ele>284.0</ele><time>2026-04-21T05:59:51.048Z</time></trkpt><trkpt lat="44.7730392" lon="7.3895253"><ele>284.0</ele><time>2026-04-21T05:59:52.046Z</time></trkpt><trkpt lat="44.7728543" lon="7.3896674"><ele>283.0</ele><time>2026-04-21T05:59:53.042Z</time></trkpt><trkpt lat="44.7726676" lon="7.3898082"><ele>282.0</ele><time>2026-04-21T05:59:54.044Z</time></trkpt><trkpt lat="44.7724804" lon="7.3899488"><ele>281.0</ele><time>2026-04-21T05:59:55.038Z</time></trkpt><trkpt lat="44.7722937" lon="7.3900902"><ele>281.0</ele><time>2026-04-21T05:59:56.045Z</time></trkpt><trkpt lat="44.7721067" lon="7.3902322"><ele>281.0</ele><time>2026-04-21T05:59:57.045Z</time></trkpt><trkpt lat="44.7719186" lon="7.3903747"><ele>281.0</ele><time>2026-04-21T05:59:58.046Z</time></trkpt><trkpt lat="44.7717299" lon="7.3905186"><ele>281.0</ele><time>2026-04-21T05:59:59.043Z</time></trkpt><trkpt lat="44.7715398" lon="7.3906632"><ele>281.0</ele><time>2026-04-21T06:00:00.037Z</time></trkpt><trkpt lat="44.7713506" lon="7.3908074"><ele>281.0</ele><time>2026-04-21T06:00:01.04Z</time></trkpt><trkpt lat="44.7711613" lon="7.3909526"><ele>281.0</ele><time>2026-04-21T06:00:02.04Z</time></trkpt><trkpt lat="44.7709724" lon="7.3911006"><ele>281.0</ele><time>2026-04-21T06:00:03.047Z</time></trkpt><trkpt lat="44.7707835" lon="7.3912475"><ele>281.0</ele><time>2026-04-21T06:00:04.041Z</time></trkpt><trkpt lat="44.7705935" lon="7.3913922"><ele>281.0</ele><time>2026-04-21T06:00:05.036Z</time></trkpt><trkpt lat="44.7704029" lon="7.3915387"><ele>281.0</ele><time>2026-04-21T06:00:06.033Z</time></trkpt><trkpt lat="44.7702111" lon="7.391684"><ele>281.0</ele><time>2026-04-21T06:00:07.033Z</time></trkpt><trkpt lat="44.7700203" lon="7.3918282"><ele>281.0</ele><time>2026-04-21T06:00:08.038Z</time></trkpt><trkpt lat="44.7698289" lon="7.3919714"><ele>281.0</ele><time>2026-04-21T06:00:09.042Z</time></trkpt><trkpt lat="44.7696417" lon="7.3921145"><ele>281.0</ele><time>2026-04-21T06:00:10.045Z</time></trkpt><trkpt lat="44.7694496" lon="7.3922597"><ele>280.33333333333337</ele><time>2026-04-21T06:00:11.04Z</time></trkpt><trkpt lat="44.7692576" lon="7.3924066"><ele>279.6666666666667</ele><time>2026-04-21T06:00:12.042Z</time></trkpt><trkpt lat="44.769066" lon="7.3925551"><ele>279.0</ele><time>2026-04-21T06:00:13.04Z</time></trkpt><trkpt lat="44.7688742" lon="7.3927053"><ele>279.0</ele><time>2026-04-21T06:00:14.045Z</time></trkpt><trkpt lat="44.7686827" lon="7.3928528"><ele>279.0</ele><time>2026-04-21T06:00:15.043Z</time></trkpt><trkpt lat="44.7684941" lon="7.3929942"><ele>279.0</ele><time>2026-04-21T06:00:16.041Z</time></trkpt><trkpt lat="44.7683044" lon="7.3931403"><ele>278.6666666666667</ele><time>2026-04-21T06:00:17.04Z</time></trkpt><trkpt lat="44.7681124" lon="7.3932841"><ele>278.33333333333337</ele><time>2026-04-21T06:00:18.041Z</time></trkpt><trkpt lat="44.7679206" lon="7.3934285"><ele>278.0</ele><time>2026-04-21T06:00:19.039Z</time></trkpt><trkpt lat="44.7677302" lon="7.3935743"><ele>278.0</ele><time>2026-04-21T06:00:20.044Z</time></trkpt><trkpt lat="44.7675399" lon="7.3937189"><ele>278.0</ele><time>2026-04-21T06:00:21.038Z</time></trkpt><trkpt lat="44.767351" lon="7.3938669"><ele>278.0</ele><time>2026-04-21T06:00:22.045Z</time></trkpt><trkpt lat="44.76716" lon="7.3940158"><ele>278.0</ele><time>2026-04-21T06:00:23.044Z</time></trkpt><trkpt lat="44.7669698" lon="7.3941651"><ele>278.0</ele><time>2026-04-21T06:00:24.042Z</time></trkpt><trkpt lat="44.7667793" lon="7.3943144"><ele>278.0</ele><time>2026-04-21T06:00:25.04Z</time></trkpt><trkpt lat="44.766588" lon="7.3944626"><ele>278.0</ele><time>2026-04-21T06:00:26.044Z</time></trkpt><trkpt lat="44.7663953" lon="7.394612"><ele>278.0</ele><time>2026-04-21T06:00:27.045Z</time></trkpt><trkpt lat="44.7662015" lon="7.3947598"><ele>278.0</ele><time>2026-04-21T06:00:28.039Z</time></trkpt><trkpt lat="44.7660073" lon="7.3949057"><ele>278.0</ele><time>2026-04-21T06:00:29.043Z</time></trkpt><trkpt lat="44.7658128" lon="7.3950519"><ele>278.0</ele><time>2026-04-21T06:00:30.042Z</time></trkpt><trkpt lat="44.7656193" lon="7.3951991"><ele>278.0</ele><time>2026-04-21T06:00:31.046Z</time></trkpt><trkpt lat="44.7654253" lon="7.3953468"><ele>278.0</ele><time>2026-04-21T06:00:32.051Z</time></trkpt><trkpt lat="44.7652299" lon="7.3954967"><ele>278.0</ele><time>2026-04-21T06:00:33.047Z</time></trkpt><trkpt lat="44.7650346" lon="7.3956422"><ele>278.0</ele><time>2026-04-21T06:00:34.042Z</time></trkpt><trkpt lat="44.7648399" lon="7.3957873"><ele>277.33333333333337</ele><time>2026-04-21T06:00:35.04Z</time></trkpt><trkpt lat="44.7646461" lon="7.3959338"><ele>276.6666666666667</ele><time>2026-04-21T06:00:36.041Z</time></trkpt><trkpt lat="44.7644516" lon="7.3960803"><ele>276.0</ele><time>2026-04-21T06:00:37.035Z</time></trkpt><trkpt lat="44.7642573" lon="7.3962253"><ele>276.3333333333333</ele><time>2026-04-21T06:00:38.039Z</time></trkpt><trkpt lat="44.7640633" lon="7.3963693"><ele>276.66666666666663</ele><time>2026-04-21T06:00:39.044Z</time></trkpt><trkpt lat="44.763871" lon="7.3965128"><ele>277.0</ele><time>2026-04-21T06:00:40.039Z</time></trkpt><trkpt lat="44.7636797" lon="7.3966562"><ele>276.3333333333333</ele><time>2026-04-21T06:00:41.04Z</time></trkpt><trkpt lat="44.7634916" lon="7.3968018"><ele>275.6666666666667</ele><time>2026-04-21T06:00:42.049Z</time></trkpt><trkpt lat="44.7633033" lon="7.3969478"><ele>275.0</ele><time>2026-04-21T06:00:43.05Z</time></trkpt><trkpt lat="44.7631161" lon="7.3970936"><ele>275.0</ele><time>2026-04-21T06:00:44.046Z</time></trkpt><trkpt lat="44.7629271" lon="7.3972426"><ele>275.0</ele><time>2026-04-21T06:00:45.046Z</time></trkpt><trkpt lat="44.7627389" lon="7.3973911"><ele>275.0</ele><time>2026-04-21T06:00:46.046Z</time></trkpt><trkpt lat="44.7625499" lon="7.3975388"><ele>275.0</ele><time>2026-04-21T06:00:47.038Z</time></trkpt><trkpt lat="44.7623608" lon="7.3976845"><ele>275.0</ele><time>2026-04-21T06:00:48.044Z</time></trkpt><trkpt lat="44.7621716" lon="7.397827"><ele>275.0</ele><time>2026-04-21T06:00:49.051Z</time></trkpt><trkpt lat="44.7619828" lon="7.3979688"><ele>274.6666666666667</ele><time>2026-04-21T06:00:50.042Z</time></trkpt><trkpt lat="44.7617925" lon="7.3981099"><ele>274.3333333333333</ele><time>2026-04-21T06:00:51.045Z</time></trkpt><trkpt lat="44.7616032" lon="7.3982493"><ele>274.0</ele><time>2026-04-21T06:00:52.041Z</time></trkpt><trkpt lat="44.7614161" lon="7.3983887"><ele>274.0</ele><time>2026-04-21T06:00:53.054Z</time></trkpt><trkpt lat="44.761231" lon="7.3985267"><ele>274.0</ele><time>2026-04-21T06:00:54.041Z</time></trkpt><trkpt lat="44.7610461" lon="7.3986657"><ele>274.0</ele><time>2026-04-21T06:00:55.045Z</time></trkpt><trkpt lat="44.7608616" lon="7.3988072"><ele>273.66666666666663</ele><time>2026-04-21T06:00:56.046Z</time></trkpt><trkpt lat="44.7606798" lon="7.3989565"><ele>273.3333333333333</ele><time>2026-04-21T06:00:57.043Z</time></trkpt><trkpt lat="44.760496" lon="7.3990988"><ele>273.0</ele><time>2026-04-21T06:00:58.04Z</time></trkpt><trkpt lat="44.7603106" lon="7.3992402"><ele>273.3333333333333</ele><time>2026-04-21T06:00:59.045Z</time></trkpt><trkpt lat="44.7601249" lon="7.3993808"><ele>273.66666666666663</ele><time>2026-04-21T06:01:00.042Z</time></trkpt><trkpt lat="44.7599405" lon="7.3995232"><ele>274.0</ele><time>2026-04-21T06:01:01.05Z</time></trkpt><trkpt lat="44.7597536" lon="7.3996632"><ele>273.66666666666663</ele><time>2026-04-21T06:01:02.042Z</time></trkpt><trkpt lat="44.7595657" lon="7.3998049"><ele>273.3333333333333</ele><time>2026-04-21T06:01:03.048Z</time></trkpt><trkpt lat="44.7593783" lon="7.3999455"><ele>273.0</ele><time>2026-04-21T06:01:04.045Z</time></trkpt><trkpt lat="44.7591918" lon="7.4000839"><ele>273.0</ele><time>2026-04-21T06:01:05.044Z</time></trkpt><trkpt lat="44.7590061" lon="7.4002214"><ele>273.0</ele><time>2026-04-21T06:01:06.039Z</time></trkpt><trkpt lat="44.7588204" lon="7.4003599"><ele>273.0</ele><time>2026-04-21T06:01:07.046Z</time></trkpt><trkpt lat="44.758637" lon="7.4004998"><ele>273.0</ele><time>2026-04-21T06:01:08.047Z</time></trkpt><trkpt lat="44.7584556" lon="7.4006403"><ele>273.0</ele><time>2026-04-21T06:01:09.053Z</time></trkpt><trkpt lat="44.758275" lon="7.4007809"><ele>273.0</ele><time>2026-04-21T06:01:10.049Z</time></trkpt><trkpt lat="44.7580951" lon="7.4009208"><ele>273.0</ele><time>2026-04-21T06:01:11.055Z</time></trkpt><trkpt lat="44.757915" lon="7.4010609"><ele>273.0</ele><time>2026-04-21T06:01:12.053Z</time></trkpt><trkpt lat="44.7577334" lon="7.4012031"><ele>273.0</ele><time>2026-04-21T06:01:13.061Z</time></trkpt><trkpt lat="44.7575529" lon="7.4013447"><ele>272.3333333333333</ele><time>2026-04-21T06:01:14.046Z</time></trkpt><trkpt lat="44.7573721" lon="7.4014849"><ele>271.66666666666663</ele><time>2026-04-21T06:01:15.05Z</time></trkpt><trkpt lat="44.7571903" lon="7.4016229"><ele>271.0</ele><time>2026-04-21T06:01:16.05Z</time></trkpt><trkpt lat="44.7570075" lon="7.40176"><ele>271.0</ele><time>2026-04-21T06:01:17.049Z</time></trkpt><trkpt lat="44.7568235" lon="7.4018976"><ele>271.0</ele><time>2026-04-21T06:01:18.049Z</time></trkpt><trkpt lat="44.7566395" lon="7.4020385"><ele>271.0</ele><time>2026-04-21T06:01:19.047Z</time></trkpt><trkpt lat="44.7564561" lon="7.4021804"><ele>271.0</ele><time>2026-04-21T06:01:20.052Z</time></trkpt><trkpt lat="44.756272" lon="7.402322"><ele>271.0</ele><time>2026-04-21T06:01:21.061Z</time></trkpt><trkpt lat="44.7560866" lon="7.4024625"><ele>271.0</ele><time>2026-04-21T06:01:22.057Z</time></trkpt><trkpt lat="44.7559009" lon="7.4026034"><ele>271.3333333333333</ele><time>2026-04-21T06:01:23.051Z</time></trkpt><trkpt lat="44.755715" lon="7.4027456"><ele>271.6666666666667</ele><time>2026-04-21T06:01:24.049Z</time></trkpt><trkpt lat="44.7555292" lon="7.4028883"><ele>272.0</ele><time>2026-04-21T06:01:25.062Z</time></trkpt><trkpt lat="44.7553424" lon="7.4030314"><ele>272.0</ele><time>2026-04-21T06:01:26.054Z</time></trkpt><trkpt lat="44.7551537" lon="7.4031746"><ele>272.0</ele><time>2026-04-21T06:01:27.054Z</time></trkpt><trkpt lat="44.7549645" lon="7.4033161"><ele>272.0</ele><time>2026-04-21T06:01:28.051Z</time></trkpt><trkpt lat="44.7547755" lon="7.4034578"><ele>272.0</ele><time>2026-04-21T06:01:29.06Z</time></trkpt><trkpt lat="44.754586" lon="7.4035995"><ele>272.0</ele><time>2026-04-21T06:01:30.054Z</time></trkpt><trkpt lat="44.7543959" lon="7.403742"><ele>272.0</ele><time>2026-04-21T06:01:31.047Z</time></trkpt><trkpt lat="44.7542054" lon="7.403886"><ele>272.33333333333337</ele><time>2026-04-21T06:01:32.052Z</time></trkpt><trkpt lat="44.7540155" lon="7.4040313"><ele>272.6666666666667</ele><time>2026-04-21T06:01:33.068Z</time></trkpt><trkpt lat="44.7538257" lon="7.4041762"><ele>273.0</ele><time>2026-04-21T06:01:34.05Z</time></trkpt><trkpt lat="44.7536347" lon="7.4043207"><ele>272.6666666666667</ele><time>2026-04-21T06:01:35.05Z</time></trkpt><trkpt lat="44.7534458" lon="7.4044662"><ele>272.33333333333337</ele><time>2026-04-21T06:01:36.05Z</time></trkpt><trkpt lat="44.7532542" lon="7.4046114"><ele>272.0</ele><time>2026-04-21T06:01:37.053Z</time></trkpt><trkpt lat="44.7530621" lon="7.404758"><ele>272.0</ele><time>2026-04-21T06:01:38.065Z</time></trkpt><trkpt lat="44.7528704" lon="7.4049055"><ele>272.0</ele><time>2026-04-21T06:01:39.061Z</time></trkpt><trkpt lat="44.7526808" lon="7.4050546"><ele>272.0</ele><time>2026-04-21T06:01:40.05Z</time></trkpt><trkpt lat="44.7524908" lon="7.4052035"><ele>272.0</ele><time>2026-04-21T06:01:41.046Z</time></trkpt><trkpt lat="44.7523032" lon="7.4053506"><ele>272.0</ele><time>2026-04-21T06:01:42.047Z</time></trkpt><trkpt lat="44.7521138" lon="7.4054993"><ele>272.0</ele><time>2026-04-21T06:01:43.07Z</time></trkpt><trkpt lat="44.7519192" lon="7.4056465"><ele>271.33333333333337</ele><time>2026-04-21T06:01:44.05Z</time></trkpt><trkpt lat="44.7517256" lon="7.405795"><ele>270.6666666666667</ele><time>2026-04-21T06:01:45.064Z</time></trkpt><trkpt lat="44.751533" lon="7.4059446"><ele>270.0</ele><time>2026-04-21T06:01:46.064Z</time></trkpt><trkpt lat="44.7513409" lon="7.4060895"><ele>270.0</ele><time>2026-04-21T06:01:47.053Z</time></trkpt><trkpt lat="44.7511506" lon="7.4062333"><ele>270.0</ele><time>2026-04-21T06:01:48.056Z</time></trkpt><trkpt lat="44.7509634" lon="7.4063737"><ele>270.0</ele><time>2026-04-21T06:01:49.064Z</time></trkpt><trkpt lat="44.7507845" lon="7.4065119"><ele>270.3333333333333</ele><time>2026-04-21T06:01:50.062Z</time></trkpt><trkpt lat="44.7506159" lon="7.4066408"><ele>270.66666666666663</ele><time>2026-04-21T06:01:51.067Z</time></trkpt><trkpt lat="44.7504554" lon="7.4067681"><ele>271.0</ele><time>2026-04-21T06:01:52.047Z</time></trkpt><trkpt lat="44.7502969" lon="7.4068931"><ele>271.0</ele><time>2026-04-21T06:01:53.054Z</time></trkpt><trkpt lat="44.7501374" lon="7.4070169"><ele>271.0</ele><time>2026-04-21T06:01:54.051Z</time></trkpt><trkpt lat="44.7499765" lon="7.4071392"><ele>271.0</ele><time>2026-04-21T06:01:55.052Z</time></trkpt><trkpt lat="44.749816" lon="7.4072601"><ele>271.3333333333333</ele><time>2026-04-21T06:01:56.065Z</time></trkpt><trkpt lat="44.7496566" lon="7.4073817"><ele>271.6666666666667</ele><time>2026-04-21T06:01:57.061Z</time></trkpt><trkpt lat="44.7494972" lon="7.4075025"><ele>272.0</ele><time>2026-04-21T06:01:58.051Z</time></trkpt><trkpt lat="44.7493379" lon="7.4076217"><ele>272.0</ele><time>2026-04-21T06:01:59.052Z</time></trkpt><trkpt lat="44.7491795" lon="7.40774"><ele>272.0</ele><time>2026-04-21T06:02:00.052Z</time></trkpt><trkpt lat="44.7490216" lon="7.407859"><ele>272.0</ele><time>2026-04-21T06:02:01.051Z</time></trkpt><trkpt lat="44.7488672" lon="7.4079763"><ele>271.6666666666667</ele><time>2026-04-21T06:02:02.055Z</time></trkpt><trkpt lat="44.7487148" lon="7.4080971"><ele>271.3333333333333</ele><time>2026-04-21T06:02:03.055Z</time></trkpt><trkpt lat="44.7485645" lon="7.4082187"><ele>271.0</ele><time>2026-04-21T06:02:04.053Z</time></trkpt><trkpt lat="44.7484122" lon="7.4083396"><ele>271.0</ele><time>2026-04-21T06:02:05.059Z</time></trkpt><trkpt lat="44.7482624" lon="7.4084537"><ele>271.0</ele><time>2026-04-21T06:02:06.069Z</time></trkpt><trkpt lat="44.748115" lon="7.4085637"><ele>271.0</ele><time>2026-04-21T06:02:07.061Z</time></trkpt><trkpt lat="44.7479667" lon="7.4086774"><ele>271.0</ele><time>2026-04-21T06:02:08.048Z</time></trkpt><trkpt lat="44.7478193" lon="7.4087897"><ele>271.0</ele><time>2026-04-21T06:02:09.052Z</time></trkpt><trkpt lat="44.7476704" lon="7.408899"><ele>271.0</ele><time>2026-04-21T06:02:10.052Z</time></trkpt><trkpt lat="44.7475195" lon="7.4090111"><ele>271.3333333333333</ele><time>2026-04-21T06:02:11.045Z</time></trkpt><trkpt lat="44.7473688" lon="7.4091261"><ele>271.6666666666667</ele><time>2026-04-21T06:02:12.06Z</time></trkpt><trkpt lat="44.747218" lon="7.4092421"><ele>272.0</ele><time>2026-04-21T06:02:13.052Z</time></trkpt><trkpt lat="44.7470703" lon="7.4093552"><ele>272.0</ele><time>2026-04-21T06:02:14.045Z</time></trkpt><trkpt lat="44.7469271" lon="7.409464"><ele>272.0</ele><time>2026-04-21T06:02:15.05Z</time></trkpt><trkpt lat="44.7467915" lon="7.4095629"><ele>272.0</ele><time>2026-04-21T06:02:16.049Z</time></trkpt><trkpt lat="44.7466671" lon="7.4096472"><ele>271.83333333333337</ele><time>2026-04-21T06:02:17.049Z</time></trkpt><trkpt lat="44.7465606" lon="7.4097091"><ele>271.6666666666667</ele><time>2026-04-21T06:02:18.052Z</time></trkpt><trkpt lat="44.7464762" lon="7.4097581"><ele>271.5</ele><time>2026-04-21T06:02:19.053Z</time></trkpt><trkpt lat="44.7464036" lon="7.4097822"><ele>271.3333333333333</ele><time>2026-04-21T06:02:20.045Z</time></trkpt><trkpt lat="44.7463307" lon="7.4097708"><ele>271.16666666666663</ele><time>2026-04-21T06:02:22.042Z</time></trkpt><trkpt lat="44.7462686" lon="7.4097264"><ele>271.0</ele><time>2026-04-21T06:02:24.04Z</time></trkpt><trkpt lat="44.7461487" lon="7.4096272"><ele>271.2</ele><time>2026-04-21T06:02:26.037Z</time></trkpt><trkpt lat="44.7460558" lon="7.4095996"><ele>271.40000000000003</ele><time>2026-04-21T06:02:27.041Z</time></trkpt><trkpt lat="44.7459585" lon="7.4096193"><ele>271.6</ele><time>2026-04-21T06:02:28.041Z</time></trkpt><trkpt lat="44.7458722" lon="7.4096865"><ele>271.8</ele><time>2026-04-21T06:02:29.042Z</time></trkpt><trkpt lat="44.7458151" lon="7.4098134"><ele>272.0</ele><time>2026-04-21T06:02:30.048Z</time></trkpt><trkpt lat="44.7457708" lon="7.4099611"><ele>272.0</ele><time>2026-04-21T06:02:31.046Z</time></trkpt><trkpt lat="44.7457176" lon="7.4101541"><ele>272.0</ele><time>2026-04-21T06:02:32.051Z</time></trkpt><trkpt lat="44.7456231" lon="7.4103272"><ele>272.0</ele><time>2026-04-21T06:02:33.048Z</time></trkpt><trkpt lat="44.7455092" lon="7.4105075"><ele>272.0</ele><time>2026-04-21T06:02:34.045Z</time></trkpt><trkpt lat="44.745375" lon="7.4106437"><ele>272.0</ele><time>2026-04-21T06:02:35.04Z</time></trkpt><trkpt lat="44.745231" lon="7.4107708"><ele>272.0</ele><time>2026-04-21T06:02:36.051Z</time></trkpt><trkpt lat="44.745078" lon="7.4108932"><ele>271.33333333333337</ele><time>2026-04-21T06:02:37.044Z</time></trkpt><trkpt lat="44.744922" lon="7.4110136"><ele>270.6666666666667</ele><time>2026-04-21T06:02:38.04Z</time></trkpt><trkpt lat="44.7447613" lon="7.4111243"><ele>270.0</ele><time>2026-04-21T06:02:39.044Z</time></trkpt><trkpt lat="44.744598" lon="7.411242"><ele>270.0</ele><time>2026-04-21T06:02:40.04Z</time></trkpt><trkpt lat="44.7444324" lon="7.4113605"><ele>270.0</ele><time>2026-04-21T06:02:41.049Z</time></trkpt><trkpt lat="44.7442656" lon="7.4114839"><ele>270.0</ele><time>2026-04-21T06:02:42.041Z</time></trkpt><trkpt lat="44.744098" lon="7.4116093"><ele>269.6666666666667</ele><time>2026-04-21T06:02:43.053Z</time></trkpt><trkpt lat="44.7439267" lon="7.4117399"><ele>269.33333333333337</ele><time>2026-04-21T06:02:44.05Z</time></trkpt><trkpt lat="44.7437524" lon="7.4118762"><ele>269.0</ele><time>2026-04-21T06:02:45.047Z</time></trkpt><trkpt lat="44.7435743" lon="7.4120152"><ele>269.0</ele><time>2026-04-21T06:02:46.046Z</time></trkpt><trkpt lat="44.7433929" lon="7.4121534"><ele>269.0</ele><time>2026-04-21T06:02:47.044Z</time></trkpt><trkpt lat="44.7432064" lon="7.4122921"><ele>269.0</ele><time>2026-04-21T06:02:48.047Z</time></trkpt><trkpt lat="44.7430179" lon="7.4124347"><ele>268.6666666666667</ele><time>2026-04-21T06:02:49.049Z</time></trkpt><trkpt lat="44.7428266" lon="7.4125792"><ele>268.3333333333333</ele><time>2026-04-21T06:02:50.047Z</time></trkpt><trkpt lat="44.7426341" lon="7.4127254"><ele>268.0</ele><time>2026-04-21T06:02:51.042Z</time></trkpt><trkpt lat="44.7424418" lon="7.4128719"><ele>268.0</ele><time>2026-04-21T06:02:52.044Z</time></trkpt><trkpt lat="44.7422498" lon="7.4130183"><ele>268.0</ele><time>2026-04-21T06:02:53.046Z</time></trkpt><trkpt lat="44.7420593" lon="7.4131654"><ele>268.0</ele><time>2026-04-21T06:02:54.039Z</time></trkpt><trkpt lat="44.7418752" lon="7.4133141"><ele>268.0</ele><time>2026-04-21T06:02:55.047Z</time></trkpt><trkpt lat="44.7416921" lon="7.4134487"><ele>268.0</ele><time>2026-04-21T06:02:56.047Z</time></trkpt><trkpt lat="44.741515" lon="7.4135795"><ele>268.0</ele><time>2026-04-21T06:02:57.048Z</time></trkpt><trkpt lat="44.7413432" lon="7.41371"><ele>268.0</ele><time>2026-04-21T06:02:58.049Z</time></trkpt><trkpt lat="44.7411783" lon="7.4138396"><ele>268.0</ele><time>2026-04-21T06:02:59.046Z</time></trkpt><trkpt lat="44.7410111" lon="7.413968"><ele>268.0</ele><time>2026-04-21T06:03:00.047Z</time></trkpt><trkpt lat="44.7408423" lon="7.4140954"><ele>268.0</ele><time>2026-04-21T06:03:01.046Z</time></trkpt><trkpt lat="44.7406696" lon="7.4142226"><ele>268.0</ele><time>2026-04-21T06:03:02.046Z</time></trkpt><trkpt lat="44.7404919" lon="7.4143532"><ele>268.0</ele><time>2026-04-21T06:03:03.054Z</time></trkpt><trkpt lat="44.7403141" lon="7.4144875"><ele>267.3333333333333</ele><time>2026-04-21T06:03:04.04Z</time></trkpt><trkpt lat="44.7401353" lon="7.4146238"><ele>266.6666666666667</ele><time>2026-04-21T06:03:05.047Z</time></trkpt><trkpt lat="44.7399546" lon="7.414762"><ele>266.0</ele><time>2026-04-21T06:03:06.048Z</time></trkpt><trkpt lat="44.7397722" lon="7.4149006"><ele>266.0</ele><time>2026-04-21T06:03:07.051Z</time></trkpt><trkpt lat="44.7395902" lon="7.4150416"><ele>266.0</ele><time>2026-04-21T06:03:08.051Z</time></trkpt><trkpt lat="44.7394083" lon="7.4151807"><ele>266.0</ele><time>2026-04-21T06:03:09.047Z</time></trkpt><trkpt lat="44.7392271" lon="7.4153219"><ele>266.0</ele><time>2026-04-21T06:03:10.049Z</time></trkpt><trkpt lat="44.7390487" lon="7.4154655"><ele>266.0</ele><time>2026-04-21T06:03:11.046Z</time></trkpt><trkpt lat="44.7388756" lon="7.4156106"><ele>266.0</ele><time>2026-04-21T06:03:12.043Z</time></trkpt><trkpt lat="44.7387142" lon="7.4157533"><ele>266.0</ele><time>2026-04-21T06:03:13.053Z</time></trkpt><trkpt lat="44.7385656" lon="7.4158936"><ele>266.0</ele><time>2026-04-21T06:03:14.044Z</time></trkpt><trkpt lat="44.7384303" lon="7.4160361"><ele>266.0</ele><time>2026-04-21T06:03:15.047Z</time></trkpt><trkpt lat="44.7383086" lon="7.4161805"><ele>266.33333333333337</ele><time>2026-04-21T06:03:16.048Z</time></trkpt><trkpt lat="44.7381939" lon="7.4163261"><ele>266.6666666666667</ele><time>2026-04-21T06:03:17.049Z</time></trkpt><trkpt lat="44.7380817" lon="7.4164693"><ele>267.0</ele><time>2026-04-21T06:03:18.047Z</time></trkpt><trkpt lat="44.7379655" lon="7.4166262"><ele>267.0</ele><time>2026-04-21T06:03:19.042Z</time></trkpt><trkpt lat="44.7378458" lon="7.4167978"><ele>267.0</ele><time>2026-04-21T06:03:20.046Z</time></trkpt><trkpt lat="44.7377221" lon="7.416979"><ele>267.0</ele><time>2026-04-21T06:03:21.05Z</time></trkpt><trkpt lat="44.7375973" lon="7.4171581"><ele>266.6666666666667</ele><time>2026-04-21T06:03:22.049Z</time></trkpt><trkpt lat="44.7374717" lon="7.4173219"><ele>266.33333333333337</ele><time>2026-04-21T06:03:23.054Z</time></trkpt><trkpt lat="44.7373523" lon="7.4174756"><ele>266.0</ele><time>2026-04-21T06:03:24.044Z</time></trkpt><trkpt lat="44.7372473" lon="7.4176192"><ele>266.0</ele><time>2026-04-21T06:03:25.049Z</time></trkpt><trkpt lat="44.7371573" lon="7.4177473"><ele>266.0</ele><time>2026-04-21T06:03:26.048Z</time></trkpt><trkpt lat="44.7370777" lon="7.4178543"><ele>266.0</ele><time>2026-04-21T06:03:27.047Z</time></trkpt><trkpt lat="44.737009" lon="7.4179469"><ele>266.0</ele><time>2026-04-21T06:03:28.043Z</time></trkpt><trkpt lat="44.7369508" lon="7.4180224"><ele>266.0</ele><time>2026-04-21T06:03:29.039Z</time></trkpt><trkpt lat="44.7368951" lon="7.4180976"><ele>265.6</ele><time>2026-04-21T06:03:30.046Z</time></trkpt><trkpt lat="44.7368385" lon="7.4181755"><ele>265.20000000000005</ele><time>2026-04-21T06:03:31.052Z</time></trkpt><trkpt lat="44.7367763" lon="7.4182616"><ele>264.79999999999995</ele><time>2026-04-21T06:03:32.048Z</time></trkpt><trkpt lat="44.7367105" lon="7.4183559"><ele>264.4</ele><time>2026-04-21T06:03:33.044Z</time></trkpt><trkpt lat="44.7366392" lon="7.4184591"><ele>264.0</ele><time>2026-04-21T06:03:34.042Z</time></trkpt><trkpt lat="44.7365591" lon="7.4185658"><ele>264.0</ele><time>2026-04-21T06:03:35.051Z</time></trkpt><trkpt lat="44.7364761" lon="7.4186803"><ele>264.0</ele><time>2026-04-21T06:03:36.041Z</time></trkpt><trkpt lat="44.736391" lon="7.4188023"><ele>264.0</ele><time>2026-04-21T06:03:37.048Z</time></trkpt><trkpt lat="44.7363028" lon="7.4189292"><ele>264.0</ele><time>2026-04-21T06:03:38.041Z</time></trkpt><trkpt lat="44.7362113" lon="7.4190578"><ele>264.0</ele><time>2026-04-21T06:03:39.044Z</time></trkpt><trkpt lat="44.7361211" lon="7.4191834"><ele>264.0</ele><time>2026-04-21T06:03:40.044Z</time></trkpt><trkpt lat="44.7360302" lon="7.4193095"><ele>264.0</ele><time>2026-04-21T06:03:41.049Z</time></trkpt><trkpt lat="44.7359323" lon="7.419441"><ele>264.0</ele><time>2026-04-21T06:03:42.043Z</time></trkpt><trkpt lat="44.7358289" lon="7.4195775"><ele>264.3333333333333</ele><time>2026-04-21T06:03:43.039Z</time></trkpt><trkpt lat="44.7357215" lon="7.4197206"><ele>264.66666666666663</ele><time>2026-04-21T06:03:44.042Z</time></trkpt><trkpt lat="44.7356152" lon="7.4198706"><ele>265.0</ele><time>2026-04-21T06:03:45.044Z</time></trkpt><trkpt lat="44.7355109" lon="7.420026"><ele>265.0</ele><time>2026-04-21T06:03:46.048Z</time></trkpt><trkpt lat="44.735414" lon="7.4201836"><ele>265.0</ele><time>2026-04-21T06:03:47.041Z</time></trkpt><trkpt lat="44.7353242" lon="7.420337"><ele>265.0</ele><time>2026-04-21T06:03:48.04Z</time></trkpt><trkpt lat="44.7352398" lon="7.4204841"><ele>265.0</ele><time>2026-04-21T06:03:49.049Z</time></trkpt><trkpt lat="44.7351586" lon="7.4206224"><ele>265.2</ele><time>2026-04-21T06:03:50.046Z</time></trkpt><trkpt lat="44.7350828" lon="7.4207519"><ele>265.4</ele><time>2026-04-21T06:03:51.038Z</time></trkpt><trkpt lat="44.7350108" lon="7.4208723"><ele>265.6</ele><time>2026-04-21T06:03:52.046Z</time></trkpt><trkpt lat="44.7349427" lon="7.4209858"><ele>265.8</ele><time>2026-04-21T06:03:53.048Z</time></trkpt><trkpt lat="44.7348773" lon="7.4210912"><ele>266.0</ele><time>2026-04-21T06:03:54.048Z</time></trkpt><trkpt lat="44.7348127" lon="7.4211834"><ele>266.0</ele><time>2026-04-21T06:03:55.041Z</time></trkpt><trkpt lat="44.7347505" lon="7.4212583"><ele>266.0</ele><time>2026-04-21T06:03:56.04Z</time></trkpt><trkpt lat="44.7346886" lon="7.421316"><ele>266.0</ele><time>2026-04-21T06:03:57.042Z</time></trkpt><trkpt lat="44.7346258" lon="7.4213619"><ele>266.0</ele><time>2026-04-21T06:03:58.047Z</time></trkpt><trkpt lat="44.7345591" lon="7.4214159"><ele>266.0</ele><time>2026-04-21T06:03:59.045Z</time></trkpt><trkpt lat="44.7344955" lon="7.4214906"><ele>266.0</ele><time>2026-04-21T06:04:00.043Z</time></trkpt><trkpt lat="44.7344398" lon="7.4215908"><ele>265.75</ele><time>2026-04-21T06:04:01.043Z</time></trkpt><trkpt lat="44.7343793" lon="7.4217091"><ele>265.5</ele><time>2026-04-21T06:04:02.048Z</time></trkpt><trkpt lat="44.7343028" lon="7.4218342"><ele>265.25</ele><time>2026-04-21T06:04:03.047Z</time></trkpt><trkpt lat="44.7342067" lon="7.4219715"><ele>265.0</ele><time>2026-04-21T06:04:04.038Z</time></trkpt><trkpt lat="44.734092" lon="7.4221219"><ele>264.66666666666663</ele><time>2026-04-21T06:04:05.042Z</time></trkpt><trkpt lat="44.7339602" lon="7.4222837"><ele>264.3333333333333</ele><time>2026-04-21T06:04:06.051Z</time></trkpt><trkpt lat="44.7338102" lon="7.4224595"><ele>264.0</ele><time>2026-04-21T06:04:07.049Z</time></trkpt><trkpt lat="44.7336471" lon="7.4226537"><ele>264.3333333333333</ele><time>2026-04-21T06:04:08.045Z</time></trkpt><trkpt lat="44.7334803" lon="7.4228552"><ele>264.66666666666663</ele><time>2026-04-21T06:04:09.044Z</time></trkpt><trkpt lat="44.7333255" lon="7.4230509"><ele>265.0</ele><time>2026-04-21T06:04:10.048Z</time></trkpt><trkpt lat="44.7331749" lon="7.4232424"><ele>264.3333333333333</ele><time>2026-04-21T06:04:11.042Z</time></trkpt><trkpt lat="44.7330278" lon="7.4234382"><ele>263.6666666666667</ele><time>2026-04-21T06:04:12.047Z</time></trkpt><trkpt lat="44.732884" lon="7.4236418"><ele>263.0</ele><time>2026-04-21T06:04:13.042Z</time></trkpt><trkpt lat="44.7327377" lon="7.4238565"><ele>263.5</ele><time>2026-04-21T06:04:14.048Z</time></trkpt><trkpt lat="44.7325851" lon="7.4240885"><ele>264.0</ele><time>2026-04-21T06:04:15.048Z</time></trkpt><trkpt lat="44.7324233" lon="7.4243305"><ele>264.0</ele><time>2026-04-21T06:04:16.045Z</time></trkpt><trkpt lat="44.7322524" lon="7.4245683"><ele>264.0</ele><time>2026-04-21T06:04:17.049Z</time></trkpt><trkpt lat="44.7320742" lon="7.4247977"><ele>264.0</ele><time>2026-04-21T06:04:18.045Z</time></trkpt><trkpt lat="44.7318917" lon="7.4250236"><ele>264.0</ele><time>2026-04-21T06:04:19.045Z</time></trkpt><trkpt lat="44.7317059" lon="7.4252435"><ele>264.0</ele><time>2026-04-21T06:04:20.048Z</time></trkpt><trkpt lat="44.7315242" lon="7.4254713"><ele>264.0</ele><time>2026-04-21T06:04:21.043Z</time></trkpt><trkpt lat="44.73135" lon="7.4257054"><ele>262.5</ele><time>2026-04-21T06:04:22.045Z</time></trkpt><trkpt lat="44.7311789" lon="7.4259442"><ele>261.0</ele><time>2026-04-21T06:04:23.042Z</time></trkpt><trkpt lat="44.7310101" lon="7.4261857"><ele>261.0</ele><time>2026-04-21T06:04:24.049Z</time></trkpt><trkpt lat="44.7308431" lon="7.4264288"><ele>261.0</ele><time>2026-04-21T06:04:25.05Z</time></trkpt><trkpt lat="44.730676" lon="7.4266702"><ele>261.0</ele><time>2026-04-21T06:04:26.046Z</time></trkpt><trkpt lat="44.7305092" lon="7.4269103"><ele>261.0</ele><time>2026-04-21T06:04:27.039Z</time></trkpt><trkpt lat="44.7303404" lon="7.4271456"><ele>261.5</ele><time>2026-04-21T06:04:28.041Z</time></trkpt><trkpt lat="44.730171" lon="7.4273782"><ele>262.0</ele><time>2026-04-21T06:04:29.044Z</time></trkpt><trkpt lat="44.7300027" lon="7.427607"><ele>262.0</ele><time>2026-04-21T06:04:30.038Z</time></trkpt><trkpt lat="44.7298356" lon="7.4278386"><ele>262.0</ele><time>2026-04-21T06:04:31.049Z</time></trkpt><trkpt lat="44.7296682" lon="7.4280683"><ele>262.0</ele><time>2026-04-21T06:04:32.05Z</time></trkpt><trkpt lat="44.7295024" lon="7.428297"><ele>262.0</ele><time>2026-04-21T06:04:33.046Z</time></trkpt><trkpt lat="44.7293359" lon="7.4285269"><ele>262.0</ele><time>2026-04-21T06:04:34.046Z</time></trkpt><trkpt lat="44.7291705" lon="7.428756"><ele>262.0</ele><time>2026-04-21T06:04:35.044Z</time></trkpt><trkpt lat="44.7290082" lon="7.4289856"><ele>262.0</ele><time>2026-04-21T06:04:36.043Z</time></trkpt><trkpt lat="44.7288454" lon="7.4292133"><ele>262.0</ele><time>2026-04-21T06:04:37.041Z</time></trkpt><trkpt lat="44.7286801" lon="7.4294383"><ele>261.0</ele><time>2026-04-21T06:04:38.041Z</time></trkpt><trkpt lat="44.7285136" lon="7.4296642"><ele>260.0</ele><time>2026-04-21T06:04:39.047Z</time></trkpt><trkpt lat="44.7283502" lon="7.4298924"><ele>260.0</ele><time>2026-04-21T06:04:40.042Z</time></trkpt><trkpt lat="44.7281849" lon="7.4301224"><ele>260.0</ele><time>2026-04-21T06:04:41.048Z</time></trkpt><trkpt lat="44.7280178" lon="7.4303532"><ele>260.0</ele><time>2026-04-21T06:04:42.041Z</time></trkpt><trkpt lat="44.7278499" lon="7.4305828"><ele>260.0</ele><time>2026-04-21T06:04:43.043Z</time></trkpt><trkpt lat="44.727682" lon="7.4308123"><ele>260.0</ele><time>2026-04-21T06:04:44.045Z</time></trkpt><trkpt lat="44.7275145" lon="7.4310411"><ele>260.0</ele><time>2026-04-21T06:04:45.049Z</time></trkpt><trkpt lat="44.7273486" lon="7.4312707"><ele>259.5</ele><time>2026-04-21T06:04:46.048Z</time></trkpt><trkpt lat="44.7271807" lon="7.4315014"><ele>259.0</ele><time>2026-04-21T06:04:47.043Z</time></trkpt><trkpt lat="44.7270137" lon="7.4317323"><ele>259.5</ele><time>2026-04-21T06:04:48.049Z</time></trkpt><trkpt lat="44.7268469" lon="7.4319625"><ele>260.0</ele><time>2026-04-21T06:04:49.044Z</time></trkpt><trkpt lat="44.726681" lon="7.4321923"><ele>260.0</ele><time>2026-04-21T06:04:50.038Z</time></trkpt><trkpt lat="44.7265163" lon="7.432424"><ele>260.0</ele><time>2026-04-21T06:04:51.038Z</time></trkpt><trkpt lat="44.7263509" lon="7.4326543"><ele>260.0</ele><time>2026-04-21T06:04:52.045Z</time></trkpt><trkpt lat="44.726184" lon="7.4328832"><ele>260.0</ele><time>2026-04-21T06:04:53.052Z</time></trkpt><trkpt lat="44.7260186" lon="7.4331124"><ele>260.5</ele><time>2026-04-21T06:04:54.045Z</time></trkpt><trkpt lat="44.7258533" lon="7.4333424"><ele>261.0</ele><time>2026-04-21T06:04:55.042Z</time></trkpt><trkpt lat="44.7256873" lon="7.4335727"><ele>261.0</ele><time>2026-04-21T06:04:56.051Z</time></trkpt><trkpt lat="44.7255221" lon="7.4338031"><ele>261.0</ele><time>2026-04-21T06:04:57.049Z</time></trkpt><trkpt lat="44.7253571" lon="7.4340318"><ele>262.0</ele><time>2026-04-21T06:04:58.048Z</time></trkpt><trkpt lat="44.7251922" lon="7.43426"><ele>263.0</ele><time>2026-04-21T06:04:59.044Z</time></trkpt><trkpt lat="44.7250268" lon="7.4344872"><ele>262.5</ele><time>2026-04-21T06:05:00.039Z</time></trkpt><trkpt lat="44.7248613" lon="7.434715"><ele>262.0</ele><time>2026-04-21T06:05:01.048Z</time></trkpt><trkpt lat="44.7246968" lon="7.4349424"><ele>262.0</ele><time>2026-04-21T06:05:02.039Z</time></trkpt><trkpt lat="44.7245343" lon="7.4351719"><ele>262.0</ele><time>2026-04-21T06:05:03.051Z</time></trkpt><trkpt lat="44.7243704" lon="7.4353977"><ele>261.5</ele><time>2026-04-21T06:05:04.044Z</time></trkpt><trkpt lat="44.7242083" lon="7.4356227"><ele>261.0</ele><time>2026-04-21T06:05:05.047Z</time></trkpt><trkpt lat="44.724047" lon="7.4358471"><ele>261.0</ele><time>2026-04-21T06:05:06.042Z</time></trkpt><trkpt lat="44.723885" lon="7.4360729"><ele>261.0</ele><time>2026-04-21T06:05:07.053Z</time></trkpt><trkpt lat="44.7237224" lon="7.4362995"><ele>261.0</ele><time>2026-04-21T06:05:08.042Z</time></trkpt><trkpt lat="44.7235588" lon="7.4365262"><ele>261.0</ele><time>2026-04-21T06:05:09.045Z</time></trkpt><trkpt lat="44.7233987" lon="7.4367495"><ele>261.0</ele><time>2026-04-21T06:05:10.036Z</time></trkpt><trkpt lat="44.7232437" lon="7.4369652"><ele>261.0</ele><time>2026-04-21T06:05:11.041Z</time></trkpt><trkpt lat="44.7230891" lon="7.4371757"><ele>261.0</ele><time>2026-04-21T06:05:12.047Z</time></trkpt><trkpt lat="44.7229365" lon="7.4373918"><ele>261.6666666666667</ele><time>2026-04-21T06:05:13.051Z</time></trkpt><trkpt lat="44.7227832" lon="7.4376083"><ele>262.33333333333337</ele><time>2026-04-21T06:05:14.046Z</time></trkpt><trkpt lat="44.7226258" lon="7.4378209"><ele>263.0</ele><time>2026-04-21T06:05:15.051Z</time></trkpt><trkpt lat="44.7224657" lon="7.4380317"><ele>263.33333333333337</ele><time>2026-04-21T06:05:16.05Z</time></trkpt><trkpt lat="44.7223071" lon="7.4382469"><ele>263.6666666666667</ele><time>2026-04-21T06:05:17.044Z</time></trkpt><trkpt lat="44.7221519" lon="7.4384628"><ele>264.0</ele><time>2026-04-21T06:05:18.048Z</time></trkpt><trkpt lat="44.7220044" lon="7.4386687"><ele>264.0</ele><time>2026-04-21T06:05:19.042Z</time></trkpt><trkpt lat="44.7218688" lon="7.4388569"><ele>264.0</ele><time>2026-04-21T06:05:20.047Z</time></trkpt><trkpt lat="44.7217418" lon="7.4390326"><ele>264.0</ele><time>2026-04-21T06:05:21.049Z</time></trkpt><trkpt lat="44.7216184" lon="7.4392053"><ele>264.0</ele><time>2026-04-21T06:05:22.041Z</time></trkpt><trkpt lat="44.7214941" lon="7.4393805"><ele>264.0</ele><time>2026-04-21T06:05:23.046Z</time></trkpt><trkpt lat="44.7213671" lon="7.4395598"><ele>264.0</ele><time>2026-04-21T06:05:24.045Z</time></trkpt><trkpt lat="44.7212377" lon="7.4397404"><ele>263.6666666666667</ele><time>2026-04-21T06:05:25.049Z</time></trkpt><trkpt lat="44.7211035" lon="7.4399226"><ele>263.33333333333337</ele><time>2026-04-21T06:05:26.047Z</time></trkpt><trkpt lat="44.7209658" lon="7.4401077"><ele>263.0</ele><time>2026-04-21T06:05:27.042Z</time></trkpt><trkpt lat="44.7208266" lon="7.4402953"><ele>262.6666666666667</ele><time>2026-04-21T06:05:28.052Z</time></trkpt><trkpt lat="44.7206871" lon="7.440486"><ele>262.3333333333333</ele><time>2026-04-21T06:05:29.052Z</time></trkpt><trkpt lat="44.7205471" lon="7.4406798"><ele>262.0</ele><time>2026-04-21T06:05:30.042Z</time></trkpt><trkpt lat="44.7204054" lon="7.440877"><ele>262.0</ele><time>2026-04-21T06:05:31.051Z</time></trkpt><trkpt lat="44.7202627" lon="7.4410797"><ele>262.0</ele><time>2026-04-21T06:05:32.051Z</time></trkpt><trkpt lat="44.7201184" lon="7.4412818"><ele>262.0</ele><time>2026-04-21T06:05:33.056Z</time></trkpt><trkpt lat="44.7199725" lon="7.4414848"><ele>262.0</ele><time>2026-04-21T06:05:34.042Z</time></trkpt><trkpt lat="44.7198255" lon="7.4416898"><ele>262.0</ele><time>2026-04-21T06:05:35.043Z</time></trkpt><trkpt lat="44.7196781" lon="7.4418932"><ele>262.0</ele><time>2026-04-21T06:05:36.046Z</time></trkpt><trkpt lat="44.7195256" lon="7.4420967"><ele>262.3333333333333</ele><time>2026-04-21T06:05:37.049Z</time></trkpt><trkpt lat="44.7193691" lon="7.442302"><ele>262.6666666666667</ele><time>2026-04-21T06:05:38.04Z</time></trkpt><trkpt lat="44.7192136" lon="7.4425084"><ele>263.0</ele><time>2026-04-21T06:05:39.05Z</time></trkpt><trkpt lat="44.7190613" lon="7.4427197"><ele>263.0</ele><time>2026-04-21T06:05:40.05Z</time></trkpt><trkpt lat="44.7189111" lon="7.4429337"><ele>263.0</ele><time>2026-04-21T06:05:41.046Z</time></trkpt><trkpt lat="44.718759" lon="7.4431481"><ele>263.0</ele><time>2026-04-21T06:05:42.05Z</time></trkpt><trkpt lat="44.7186049" lon="7.4433609"><ele>263.0</ele><time>2026-04-21T06:05:43.051Z</time></trkpt><trkpt lat="44.7184494" lon="7.4435745"><ele>263.0</ele><time>2026-04-21T06:05:44.051Z</time></trkpt><trkpt lat="44.7182917" lon="7.4437872"><ele>263.0</ele><time>2026-04-21T06:05:45.042Z</time></trkpt><trkpt lat="44.7181367" lon="7.4440015"><ele>263.0</ele><time>2026-04-21T06:05:46.043Z</time></trkpt><trkpt lat="44.7179807" lon="7.4442173"><ele>263.0</ele><time>2026-04-21T06:05:47.053Z</time></trkpt><trkpt lat="44.7178233" lon="7.4444335"><ele>263.0</ele><time>2026-04-21T06:05:48.048Z</time></trkpt><trkpt lat="44.717666" lon="7.444652"><ele>263.6666666666667</ele><time>2026-04-21T06:05:49.044Z</time></trkpt><trkpt lat="44.7175072" lon="7.4448679"><ele>264.3333333333333</ele><time>2026-04-21T06:05:50.04Z</time></trkpt><trkpt lat="44.7173488" lon="7.4450865"><ele>265.0</ele><time>2026-04-21T06:05:51.042Z</time></trkpt><trkpt lat="44.7171884" lon="7.4453062"><ele>264.66666666666663</ele><time>2026-04-21T06:05:52.046Z</time></trkpt><trkpt lat="44.717028" lon="7.4455253"><ele>264.3333333333333</ele><time>2026-04-21T06:05:53.053Z</time></trkpt><trkpt lat="44.7168701" lon="7.445743"><ele>264.0</ele><time>2026-04-21T06:05:54.05Z</time></trkpt><trkpt lat="44.7167128" lon="7.4459645"><ele>264.0</ele><time>2026-04-21T06:05:55.049Z</time></trkpt><trkpt lat="44.716554" lon="7.4461857"><ele>264.0</ele><time>2026-04-21T06:05:56.047Z</time></trkpt><trkpt lat="44.7163953" lon="7.4464061"><ele>264.0</ele><time>2026-04-21T06:05:57.047Z</time></trkpt><trkpt lat="44.7162361" lon="7.4466271"><ele>264.3333333333333</ele><time>2026-04-21T06:05:58.043Z</time></trkpt><trkpt lat="44.7160753" lon="7.4468466"><ele>264.66666666666663</ele><time>2026-04-21T06:05:59.043Z</time></trkpt><trkpt lat="44.7159159" lon="7.4470677"><ele>265.0</ele><time>2026-04-21T06:06:00.047Z</time></trkpt><trkpt lat="44.7157546" lon="7.447289"><ele>265.5</ele><time>2026-04-21T06:06:01.047Z</time></trkpt><trkpt lat="44.7155932" lon="7.4475112"><ele>266.0</ele><time>2026-04-21T06:06:02.042Z</time></trkpt><trkpt lat="44.7154317" lon="7.4477351"><ele>266.0</ele><time>2026-04-21T06:06:03.054Z</time></trkpt><trkpt lat="44.7152693" lon="7.4479589"><ele>266.0</ele><time>2026-04-21T06:06:04.045Z</time></trkpt><trkpt lat="44.7151082" lon="7.4481813"><ele>266.0</ele><time>2026-04-21T06:06:05.045Z</time></trkpt><trkpt lat="44.7149497" lon="7.4484047"><ele>266.0</ele><time>2026-04-21T06:06:06.046Z</time></trkpt><trkpt lat="44.7147912" lon="7.4486277"><ele>266.0</ele><time>2026-04-21T06:06:07.046Z</time></trkpt><trkpt lat="44.7146318" lon="7.4488489"><ele>265.0</ele><time>2026-04-21T06:06:08.048Z</time></trkpt><trkpt lat="44.7144705" lon="7.4490711"><ele>264.0</ele><time>2026-04-21T06:06:09.045Z</time></trkpt><trkpt lat="44.714309" lon="7.4492934"><ele>264.0</ele><time>2026-04-21T06:06:10.047Z</time></trkpt><trkpt lat="44.7141484" lon="7.4495166"><ele>264.0</ele><time>2026-04-21T06:06:11.041Z</time></trkpt><trkpt lat="44.7139871" lon="7.4497419"><ele>264.0</ele><time>2026-04-21T06:06:12.048Z</time></trkpt><trkpt lat="44.7138232" lon="7.4499691"><ele>264.0</ele><time>2026-04-21T06:06:13.046Z</time></trkpt><trkpt lat="44.7136602" lon="7.4501965"><ele>264.5</ele><time>2026-04-21T06:06:14.051Z</time></trkpt><trkpt lat="44.7134963" lon="7.4504227"><ele>265.0</ele><time>2026-04-21T06:06:15.043Z</time></trkpt><trkpt lat="44.7133326" lon="7.4506469"><ele>265.5</ele><time>2026-04-21T06:06:16.044Z</time></trkpt><trkpt lat="44.7131674" lon="7.4508732"><ele>266.0</ele><time>2026-04-21T06:06:17.038Z</time></trkpt><trkpt lat="44.7130009" lon="7.4511007"><ele>266.0</ele><time>2026-04-21T06:06:18.046Z</time></trkpt><trkpt lat="44.7128341" lon="7.4513271"><ele>266.0</ele><time>2026-04-21T06:06:19.044Z</time></trkpt><trkpt lat="44.7126685" lon="7.4515558"><ele>266.5</ele><time>2026-04-21T06:06:20.043Z</time></trkpt><trkpt lat="44.7125024" lon="7.4517852"><ele>267.0</ele><time>2026-04-21T06:06:21.044Z</time></trkpt><trkpt lat="44.7123373" lon="7.4520145"><ele>267.0</ele><time>2026-04-21T06:06:22.044Z</time></trkpt><trkpt lat="44.7121701" lon="7.4522425"><ele>267.0</ele><time>2026-04-21T06:06:23.05Z</time></trkpt><trkpt lat="44.7120057" lon="7.4524699"><ele>267.0</ele><time>2026-04-21T06:06:24.042Z</time></trkpt><trkpt lat="44.711842" lon="7.4526983"><ele>267.0</ele><time>2026-04-21T06:06:25.049Z</time></trkpt><trkpt lat="44.7116795" lon="7.4529263"><ele>266.5</ele><time>2026-04-21T06:06:26.042Z</time></trkpt><trkpt lat="44.7115146" lon="7.4531537"><ele>266.0</ele><time>2026-04-21T06:06:27.055Z</time></trkpt><trkpt lat="44.7113504" lon="7.4533817"><ele>266.0</ele><time>2026-04-21T06:06:28.047Z</time></trkpt><trkpt lat="44.7111867" lon="7.4536096"><ele>266.0</ele><time>2026-04-21T06:06:29.05Z</time></trkpt><trkpt lat="44.7110207" lon="7.4538372"><ele>265.5</ele><time>2026-04-21T06:06:30.046Z</time></trkpt><trkpt lat="44.7108535" lon="7.4540677"><ele>265.0</ele><time>2026-04-21T06:06:31.044Z</time></trkpt><trkpt lat="44.7106899" lon="7.4543019"><ele>265.0</ele><time>2026-04-21T06:06:32.047Z</time></trkpt><trkpt lat="44.7105273" lon="7.4545385"><ele>265.0</ele><time>2026-04-21T06:06:33.043Z</time></trkpt><trkpt lat="44.7103627" lon="7.4547733"><ele>266.0</ele><time>2026-04-21T06:06:34.041Z</time></trkpt><trkpt lat="44.7101959" lon="7.455006"><ele>267.0</ele><time>2026-04-21T06:06:35.049Z</time></trkpt><trkpt lat="44.710028" lon="7.4552329"><ele>267.0</ele><time>2026-04-21T06:06:36.042Z</time></trkpt><trkpt lat="44.7098603" lon="7.4554612"><ele>267.0</ele><time>2026-04-21T06:06:37.049Z</time></trkpt><trkpt lat="44.709692" lon="7.455694"><ele>267.0</ele><time>2026-04-21T06:06:38.049Z</time></trkpt><trkpt lat="44.709525" lon="7.455929"><ele>267.0</ele><time>2026-04-21T06:06:39.045Z</time></trkpt><trkpt lat="44.7093587" lon="7.4561632"><ele>266.5</ele><time>2026-04-21T06:06:40.038Z</time></trkpt><trkpt lat="44.7091901" lon="7.4563951"><ele>266.0</ele><time>2026-04-21T06:06:41.044Z</time></trkpt><trkpt lat="44.7090179" lon="7.4566265"><ele>266.0</ele><time>2026-04-21T06:06:42.043Z</time></trkpt><trkpt lat="44.7088442" lon="7.4568589"><ele>266.0</ele><time>2026-04-21T06:06:43.049Z</time></trkpt><trkpt lat="44.7086715" lon="7.4570913"><ele>267.0</ele><time>2026-04-21T06:06:44.049Z</time></trkpt><trkpt lat="44.7084999" lon="7.4573249"><ele>268.0</ele><time>2026-04-21T06:06:45.045Z</time></trkpt><trkpt lat="44.7083283" lon="7.4575598"><ele>268.0</ele><time>2026-04-21T06:06:46.044Z</time></trkpt><trkpt lat="44.7081597" lon="7.457797"><ele>268.0</ele><time>2026-04-21T06:06:47.047Z</time></trkpt><trkpt lat="44.707991" lon="7.4580328"><ele>268.0</ele><time>2026-04-21T06:06:48.044Z</time></trkpt><trkpt lat="44.7078214" lon="7.4582683"><ele>268.0</ele><time>2026-04-21T06:06:49.051Z</time></trkpt><trkpt lat="44.7076515" lon="7.4585042"><ele>268.0</ele><time>2026-04-21T06:06:50.046Z</time></trkpt><trkpt lat="44.7074793" lon="7.4587371"><ele>268.0</ele><time>2026-04-21T06:06:51.051Z</time></trkpt><trkpt lat="44.7073084" lon="7.4589679"><ele>268.5</ele><time>2026-04-21T06:06:52.046Z</time></trkpt><trkpt lat="44.7071373" lon="7.4592011"><ele>269.0</ele><time>2026-04-21T06:06:53.041Z</time></trkpt><trkpt lat="44.7069654" lon="7.4594359"><ele>268.0</ele><time>2026-04-21T06:06:54.039Z</time></trkpt><trkpt lat="44.7067932" lon="7.4596684"><ele>267.0</ele><time>2026-04-21T06:06:55.041Z</time></trkpt><trkpt lat="44.7066214" lon="7.4598962"><ele>267.0</ele><time>2026-04-21T06:06:56.046Z</time></trkpt><trkpt lat="44.7064457" lon="7.4601196"><ele>267.0</ele><time>2026-04-21T06:06:57.066Z</time></trkpt><trkpt lat="44.7062625" lon="7.4603301"><ele>269.0</ele><time>2026-04-21T06:06:58.06Z</time></trkpt><trkpt lat="44.7060714" lon="7.4605227"><ele>271.0</ele><time>2026-04-21T06:06:59.05Z</time></trkpt><trkpt lat="44.7058684" lon="7.4606923"><ele>271.0</ele><time>2026-04-21T06:07:00.045Z</time></trkpt><trkpt lat="44.705656" lon="7.4608389"><ele>271.0</ele><time>2026-04-21T06:07:01.053Z</time></trkpt><trkpt lat="44.7054372" lon="7.4609622"><ele>269.5</ele><time>2026-04-21T06:07:02.054Z</time></trkpt><trkpt lat="44.7052169" lon="7.4610729"><ele>268.0</ele><time>2026-04-21T06:07:03.051Z</time></trkpt><trkpt lat="44.7049964" lon="7.4611796"><ele>268.5</ele><time>2026-04-21T06:07:04.06Z</time></trkpt><trkpt lat="44.7047761" lon="7.461284"><ele>269.0</ele><time>2026-04-21T06:07:05.062Z</time></trkpt><trkpt lat="44.7045552" lon="7.4613938"><ele>269.0</ele><time>2026-04-21T06:07:06.065Z</time></trkpt><trkpt lat="44.7043338" lon="7.4615043"><ele>269.0</ele><time>2026-04-21T06:07:07.048Z</time></trkpt><trkpt lat="44.7041083" lon="7.4616118"><ele>269.0</ele><time>2026-04-21T06:07:08.064Z</time></trkpt><trkpt lat="44.7038828" lon="7.4617255"><ele>269.0</ele><time>2026-04-21T06:07:09.051Z</time></trkpt><trkpt lat="44.7036598" lon="7.4618393"><ele>268.0</ele><time>2026-04-21T06:07:10.053Z</time></trkpt><trkpt lat="44.7034371" lon="7.4619549"><ele>267.0</ele><time>2026-04-21T06:07:11.051Z</time></trkpt><trkpt lat="44.7032128" lon="7.462069"><ele>268.5</ele><time>2026-04-21T06:07:12.05Z</time></trkpt><trkpt lat="44.7029885" lon="7.4621826"><ele>270.0</ele><time>2026-04-21T06:07:13.059Z</time></trkpt><trkpt lat="44.7027642" lon="7.4622978"><ele>270.0</ele><time>2026-04-21T06:07:14.045Z</time></trkpt><trkpt lat="44.7025384" lon="7.4624133"><ele>270.0</ele><time>2026-04-21T06:07:15.065Z</time></trkpt><trkpt lat="44.7023101" lon="7.4625291"><ele>270.0</ele><time>2026-04-21T06:07:16.054Z</time></trkpt><trkpt lat="44.7020882" lon="7.4626383"><ele>270.0</ele><time>2026-04-21T06:07:17.065Z</time></trkpt><trkpt lat="44.7018781" lon="7.4627395"><ele>270.3333333333333</ele><time>2026-04-21T06:07:18.045Z</time></trkpt><trkpt lat="44.701692" lon="7.462829"><ele>270.66666666666663</ele><time>2026-04-21T06:07:19.049Z</time></trkpt><trkpt lat="44.7015294" lon="7.4629136"><ele>271.0</ele><time>2026-04-21T06:07:20.049Z</time></trkpt><trkpt lat="44.7013823" lon="7.4629879"><ele>271.0</ele><time>2026-04-21T06:07:21.049Z</time></trkpt><trkpt lat="44.7012395" lon="7.4630591"><ele>271.0</ele><time>2026-04-21T06:07:22.062Z</time></trkpt><trkpt lat="44.7010927" lon="7.4631344"><ele>271.0</ele><time>2026-04-21T06:07:23.054Z</time></trkpt><trkpt lat="44.7009401" lon="7.4632202"><ele>271.0</ele><time>2026-04-21T06:07:24.055Z</time></trkpt><trkpt lat="44.7007781" lon="7.4633147"><ele>271.0</ele><time>2026-04-21T06:07:25.052Z</time></trkpt><trkpt lat="44.7006068" lon="7.4634098"><ele>271.0</ele><time>2026-04-21T06:07:26.066Z</time></trkpt><trkpt lat="44.7004255" lon="7.4635031"><ele>271.0</ele><time>2026-04-21T06:07:27.06Z</time></trkpt><trkpt lat="44.7002344" lon="7.4635996"><ele>271.0</ele><time>2026-04-21T06:07:28.055Z</time></trkpt><trkpt lat="44.7000356" lon="7.4636993"><ele>271.0</ele><time>2026-04-21T06:07:29.054Z</time></trkpt><trkpt lat="44.6998311" lon="7.4638"><ele>271.0</ele><time>2026-04-21T06:07:30.061Z</time></trkpt><trkpt lat="44.6996232" lon="7.4639026"><ele>271.0</ele><time>2026-04-21T06:07:31.058Z</time></trkpt><trkpt lat="44.6994197" lon="7.4640132"><ele>271.0</ele><time>2026-04-21T06:07:32.061Z</time></trkpt><trkpt lat="44.6992144" lon="7.4641212"><ele>271.3333333333333</ele><time>2026-04-21T06:07:33.062Z</time></trkpt><trkpt lat="44.6990073" lon="7.4642258"><ele>271.6666666666667</ele><time>2026-04-21T06:07:34.048Z</time></trkpt><trkpt lat="44.6987986" lon="7.4643335"><ele>272.0</ele><time>2026-04-21T06:07:35.047Z</time></trkpt><trkpt lat="44.6985875" lon="7.4644434"><ele>272.0</ele><time>2026-04-21T06:07:36.051Z</time></trkpt><trkpt lat="44.6983742" lon="7.4645508"><ele>272.0</ele><time>2026-04-21T06:07:37.045Z</time></trkpt><trkpt lat="44.6981586" lon="7.4646558"><ele>272.0</ele><time>2026-04-21T06:07:38.064Z</time></trkpt><trkpt lat="44.69794" lon="7.4647635"><ele>272.0</ele><time>2026-04-21T06:07:39.065Z</time></trkpt><trkpt lat="44.6977199" lon="7.464873"><ele>272.0</ele><time>2026-04-21T06:07:40.063Z</time></trkpt><trkpt lat="44.6974995" lon="7.4649828"><ele>272.0</ele><time>2026-04-21T06:07:41.051Z</time></trkpt><trkpt lat="44.6972789" lon="7.4650966"><ele>272.0</ele><time>2026-04-21T06:07:42.05Z</time></trkpt><trkpt lat="44.6970567" lon="7.4652102"><ele>272.0</ele><time>2026-04-21T06:07:43.069Z</time></trkpt><trkpt lat="44.6968348" lon="7.4653234"><ele>272.0</ele><time>2026-04-21T06:07:44.063Z</time></trkpt><trkpt lat="44.6966121" lon="7.4654328"><ele>272.0</ele><time>2026-04-21T06:07:45.068Z</time></trkpt><trkpt lat="44.6963871" lon="7.4655457"><ele>272.0</ele><time>2026-04-21T06:07:46.054Z</time></trkpt><trkpt lat="44.6961611" lon="7.4656605"><ele>272.0</ele><time>2026-04-21T06:07:47.04Z</time></trkpt><trkpt lat="44.6959346" lon="7.4657759"><ele>272.5</ele><time>2026-04-21T06:07:48.053Z</time></trkpt><trkpt lat="44.6957073" lon="7.4658934"><ele>273.0</ele><time>2026-04-21T06:07:49.052Z</time></trkpt><trkpt lat="44.6954793" lon="7.4660083"><ele>272.5</ele><time>2026-04-21T06:07:50.049Z</time></trkpt><trkpt lat="44.6952522" lon="7.4661242"><ele>272.0</ele><time>2026-04-21T06:07:51.067Z</time></trkpt><trkpt lat="44.6950269" lon="7.4662414"><ele>271.0</ele><time>2026-04-21T06:07:52.053Z</time></trkpt><trkpt lat="44.6948029" lon="7.4663591"><ele>270.0</ele><time>2026-04-21T06:07:53.056Z</time></trkpt><trkpt lat="44.6945796" lon="7.4664746"><ele>271.5</ele><time>2026-04-21T06:07:54.043Z</time></trkpt><trkpt lat="44.6943568" lon="7.4665881"><ele>273.0</ele><time>2026-04-21T06:07:55.048Z</time></trkpt><trkpt lat="44.6941343" lon="7.4667004"><ele>273.0</ele><time>2026-04-21T06:07:56.062Z</time></trkpt><trkpt lat="44.6939118" lon="7.4668127"><ele>273.0</ele><time>2026-04-21T06:07:57.06Z</time></trkpt><trkpt lat="44.6936899" lon="7.466926"><ele>273.5</ele><time>2026-04-21T06:07:58.064Z</time></trkpt><trkpt lat="44.6934706" lon="7.4670377"><ele>274.0</ele><time>2026-04-21T06:07:59.053Z</time></trkpt><trkpt lat="44.69325" lon="7.4671507"><ele>274.0</ele><time>2026-04-21T06:08:00.047Z</time></trkpt><trkpt lat="44.6930273" lon="7.4672632"><ele>274.0</ele><time>2026-04-21T06:08:01.052Z</time></trkpt><trkpt lat="44.6928044" lon="7.4673739"><ele>274.0</ele><time>2026-04-21T06:08:02.048Z</time></trkpt><trkpt lat="44.6925813" lon="7.4674862"><ele>274.0</ele><time>2026-04-21T06:08:03.071Z</time></trkpt><trkpt lat="44.6923589" lon="7.4676014"><ele>274.0</ele><time>2026-04-21T06:08:04.057Z</time></trkpt><trkpt lat="44.6921353" lon="7.4677141"><ele>274.0</ele><time>2026-04-21T06:08:05.053Z</time></trkpt><trkpt lat="44.6919111" lon="7.467828"><ele>274.5</ele><time>2026-04-21T06:08:06.062Z</time></trkpt><trkpt lat="44.6916875" lon="7.4679417"><ele>275.0</ele><time>2026-04-21T06:08:07.064Z</time></trkpt><trkpt lat="44.6914638" lon="7.468057"><ele>275.0</ele><time>2026-04-21T06:08:08.066Z</time></trkpt><trkpt lat="44.6912397" lon="7.4681715"><ele>275.0</ele><time>2026-04-21T06:08:09.061Z</time></trkpt><trkpt lat="44.6910163" lon="7.4682869"><ele>275.0</ele><time>2026-04-21T06:08:10.047Z</time></trkpt><trkpt lat="44.6907919" lon="7.4684029"><ele>275.0</ele><time>2026-04-21T06:08:11.052Z</time></trkpt><trkpt lat="44.6905672" lon="7.468518"><ele>275.0</ele><time>2026-04-21T06:08:12.052Z</time></trkpt><trkpt lat="44.6903449" lon="7.4686325"><ele>275.0</ele><time>2026-04-21T06:08:13.052Z</time></trkpt><trkpt lat="44.6901221" lon="7.4687454"><ele>275.5</ele><time>2026-04-21T06:08:14.048Z</time></trkpt><trkpt lat="44.6898975" lon="7.4688605"><ele>276.0</ele><time>2026-04-21T06:08:15.064Z</time></trkpt><trkpt lat="44.689673" lon="7.4689747"><ele>276.0</ele><time>2026-04-21T06:08:16.044Z</time></trkpt><trkpt lat="44.6894478" lon="7.4690903"><ele>276.0</ele><time>2026-04-21T06:08:17.063Z</time></trkpt><trkpt lat="44.6892241" lon="7.4692054"><ele>276.0</ele><time>2026-04-21T06:08:18.044Z</time></trkpt><trkpt lat="44.6889983" lon="7.4693187"><ele>276.0</ele><time>2026-04-21T06:08:19.049Z</time></trkpt><trkpt lat="44.6887748" lon="7.4694331"><ele>276.0</ele><time>2026-04-21T06:08:20.053Z</time></trkpt><trkpt lat="44.6885504" lon="7.4695478"><ele>276.0</ele><time>2026-04-21T06:08:21.05Z</time></trkpt><trkpt lat="44.6883266" lon="7.4696626"><ele>276.5</ele><time>2026-04-21T06:08:22.064Z</time></trkpt><trkpt lat="44.6881029" lon="7.4697761"><ele>277.0</ele><time>2026-04-21T06:08:23.054Z</time></trkpt><trkpt lat="44.687879" lon="7.4698904"><ele>277.5</ele><time>2026-04-21T06:08:24.051Z</time></trkpt><trkpt lat="44.6876546" lon="7.4700045"><ele>278.0</ele><time>2026-04-21T06:08:25.061Z</time></trkpt><trkpt lat="44.6874313" lon="7.4701181"><ele>278.0</ele><time>2026-04-21T06:08:26.047Z</time></trkpt><trkpt lat="44.6872115" lon="7.4702328"><ele>278.0</ele><time>2026-04-21T06:08:27.068Z</time></trkpt><trkpt lat="44.6869899" lon="7.4703448"><ele>277.0</ele><time>2026-04-21T06:08:28.052Z</time></trkpt><trkpt lat="44.6867665" lon="7.4704569"><ele>276.0</ele><time>2026-04-21T06:08:29.064Z</time></trkpt><trkpt lat="44.6865445" lon="7.4705711"><ele>276.0</ele><time>2026-04-21T06:08:30.068Z</time></trkpt><trkpt lat="44.6863229" lon="7.4706896"><ele>276.0</ele><time>2026-04-21T06:08:31.053Z</time></trkpt><trkpt lat="44.6861018" lon="7.4708128"><ele>276.5</ele><time>2026-04-21T06:08:32.052Z</time></trkpt><trkpt lat="44.6858803" lon="7.4709364"><ele>277.0</ele><time>2026-04-21T06:08:33.042Z</time></trkpt><trkpt lat="44.6856581" lon="7.4710557"><ele>277.0</ele><time>2026-04-21T06:08:34.066Z</time></trkpt><trkpt lat="44.6854367" lon="7.4711712"><ele>277.0</ele><time>2026-04-21T06:08:35.051Z</time></trkpt><trkpt lat="44.685214" lon="7.4712826"><ele>277.5</ele><time>2026-04-21T06:08:36.056Z</time></trkpt><trkpt lat="44.6849885" lon="7.4713895"><ele>278.0</ele><time>2026-04-21T06:08:37.049Z</time></trkpt><trkpt lat="44.6847614" lon="7.4714912"><ele>278.0</ele><time>2026-04-21T06:08:38.045Z</time></trkpt><trkpt lat="44.6845337" lon="7.4715915"><ele>278.0</ele><time>2026-04-21T06:08:39.064Z</time></trkpt><trkpt lat="44.6843082" lon="7.4716981"><ele>278.0</ele><time>2026-04-21T06:08:40.049Z</time></trkpt><trkpt lat="44.6840845" lon="7.4718104"><ele>278.0</ele><time>2026-04-21T06:08:41.065Z</time></trkpt><trkpt lat="44.6838616" lon="7.4719256"><ele>278.0</ele><time>2026-04-21T06:08:42.048Z</time></trkpt><trkpt lat="44.6836373" lon="7.4720456"><ele>278.0</ele><time>2026-04-21T06:08:43.058Z</time></trkpt><trkpt lat="44.6834125" lon="7.4721599"><ele>278.5</ele><time>2026-04-21T06:08:44.061Z</time></trkpt><trkpt lat="44.6831887" lon="7.4722715"><ele>279.0</ele><time>2026-04-21T06:08:45.052Z</time></trkpt><trkpt lat="44.6829655" lon="7.4723859"><ele>280.0</ele><time>2026-04-21T06:08:46.056Z</time></trkpt><trkpt lat="44.6827421" lon="7.4724998"><ele>281.0</ele><time>2026-04-21T06:08:47.055Z</time></trkpt><trkpt lat="44.6825214" lon="7.4726109"><ele>281.0</ele><time>2026-04-21T06:08:48.043Z</time></trkpt><trkpt lat="44.6823055" lon="7.4727201"><ele>281.0</ele><time>2026-04-21T06:08:49.068Z</time></trkpt><trkpt lat="44.6820887" lon="7.47283"><ele>281.5</ele><time>2026-04-21T06:08:50.046Z</time></trkpt><trkpt lat="44.6818744" lon="7.4729415"><ele>282.0</ele><time>2026-04-21T06:08:51.06Z</time></trkpt><trkpt lat="44.6816608" lon="7.4730537"><ele>282.0</ele><time>2026-04-21T06:08:52.05Z</time></trkpt><trkpt lat="44.6814461" lon="7.4731636"><ele>282.0</ele><time>2026-04-21T06:08:53.053Z</time></trkpt><trkpt lat="44.6812319" lon="7.4732711"><ele>281.5</ele><time>2026-04-21T06:08:54.05Z</time></trkpt><trkpt lat="44.681019" lon="7.4733765"><ele>281.0</ele><time>2026-04-21T06:08:55.052Z</time></trkpt><trkpt lat="44.6808054" lon="7.4734835"><ele>281.0</ele><time>2026-04-21T06:08:56.067Z</time></trkpt><trkpt lat="44.6805923" lon="7.473593"><ele>281.0</ele><time>2026-04-21T06:08:57.06Z</time></trkpt><trkpt lat="44.6803832" lon="7.4737081"><ele>281.5</ele><time>2026-04-21T06:08:58.046Z</time></trkpt><trkpt lat="44.6801714" lon="7.473818"><ele>282.0</ele><time>2026-04-21T06:08:59.053Z</time></trkpt><trkpt lat="44.6799585" lon="7.473927"><ele>282.0</ele><time>2026-04-21T06:09:00.049Z</time></trkpt><trkpt lat="44.6797439" lon="7.4740338"><ele>282.0</ele><time>2026-04-21T06:09:01.065Z</time></trkpt><trkpt lat="44.6795285" lon="7.4741421"><ele>282.5</ele><time>2026-04-21T06:09:02.048Z</time></trkpt><trkpt lat="44.6793128" lon="7.4742495"><ele>283.0</ele><time>2026-04-21T06:09:03.066Z</time></trkpt><trkpt lat="44.6790947" lon="7.4743569"><ele>283.0</ele><time>2026-04-21T06:09:04.052Z</time></trkpt><trkpt lat="44.6788771" lon="7.4744644"><ele>283.0</ele><time>2026-04-21T06:09:05.053Z</time></trkpt><trkpt lat="44.6786625" lon="7.4745724"><ele>283.0</ele><time>2026-04-21T06:09:06.046Z</time></trkpt><trkpt lat="44.6784475" lon="7.474682"><ele>283.0</ele><time>2026-04-21T06:09:07.052Z</time></trkpt><trkpt lat="44.6782328" lon="7.4747925"><ele>283.0</ele><time>2026-04-21T06:09:08.045Z</time></trkpt><trkpt lat="44.6780185" lon="7.4749063"><ele>283.0</ele><time>2026-04-21T06:09:09.065Z</time></trkpt><trkpt lat="44.6778033" lon="7.4750175"><ele>284.0</ele><time>2026-04-21T06:09:10.05Z</time></trkpt><trkpt lat="44.6775886" lon="7.4751272"><ele>285.0</ele><time>2026-04-21T06:09:11.05Z</time></trkpt><trkpt lat="44.6773735" lon="7.4752336"><ele>285.0</ele><time>2026-04-21T06:09:12.052Z</time></trkpt><trkpt lat="44.6771597" lon="7.4753397"><ele>285.0</ele><time>2026-04-21T06:09:13.057Z</time></trkpt><trkpt lat="44.6769459" lon="7.4754474"><ele>286.5</ele><time>2026-04-21T06:09:14.053Z</time></trkpt><trkpt lat="44.6767306" lon="7.4755554"><ele>288.0</ele><time>2026-04-21T06:09:15.065Z</time></trkpt><trkpt lat="44.6765178" lon="7.4756615"><ele>288.0</ele><time>2026-04-21T06:09:16.043Z</time></trkpt><trkpt lat="44.6763052" lon="7.4757672"><ele>288.0</ele><time>2026-04-21T06:09:17.066Z</time></trkpt><trkpt lat="44.6760938" lon="7.4758754"><ele>287.5</ele><time>2026-04-21T06:09:18.047Z</time></trkpt><trkpt lat="44.6758827" lon="7.4759855"><ele>287.0</ele><time>2026-04-21T06:09:19.046Z</time></trkpt><trkpt lat="44.6756716" lon="7.4760942"><ele>287.0</ele><time>2026-04-21T06:09:20.054Z</time></trkpt><trkpt lat="44.6754597" lon="7.4762038"><ele>287.0</ele><time>2026-04-21T06:09:21.049Z</time></trkpt><trkpt lat="44.6752479" lon="7.4763114"><ele>287.5</ele><time>2026-04-21T06:09:22.067Z</time></trkpt><trkpt lat="44.6750356" lon="7.4764195"><ele>288.0</ele><time>2026-04-21T06:09:23.054Z</time></trkpt><trkpt lat="44.6748231" lon="7.4765282"><ele>288.0</ele><time>2026-04-21T06:09:24.067Z</time></trkpt><trkpt lat="44.6746105" lon="7.4766402"><ele>288.0</ele><time>2026-04-21T06:09:25.055Z</time></trkpt><trkpt lat="44.6743957" lon="7.4767547"><ele>287.5</ele><time>2026-04-21T06:09:26.052Z</time></trkpt><trkpt lat="44.6741814" lon="7.4768665"><ele>287.0</ele><time>2026-04-21T06:09:27.046Z</time></trkpt><trkpt lat="44.673969" lon="7.476977"><ele>287.0</ele><time>2026-04-21T06:09:28.06Z</time></trkpt><trkpt lat="44.6737561" lon="7.4770848"><ele>287.0</ele><time>2026-04-21T06:09:29.054Z</time></trkpt><trkpt lat="44.6735423" lon="7.4771922"><ele>288.5</ele><time>2026-04-21T06:09:30.054Z</time></trkpt><trkpt lat="44.6733287" lon="7.4772988"><ele>290.0</ele><time>2026-04-21T06:09:31.064Z</time></trkpt><trkpt lat="44.6731174" lon="7.4774071"><ele>290.0</ele><time>2026-04-21T06:09:32.046Z</time></trkpt><trkpt lat="44.6729041" lon="7.4775161"><ele>290.0</ele><time>2026-04-21T06:09:33.072Z</time></trkpt><trkpt lat="44.67269" lon="7.4776237"><ele>290.0</ele><time>2026-04-21T06:09:34.052Z</time></trkpt><trkpt lat="44.6724758" lon="7.4777308"><ele>290.0</ele><time>2026-04-21T06:09:35.041Z</time></trkpt><trkpt lat="44.6722632" lon="7.477835"><ele>290.0</ele><time>2026-04-21T06:09:36.052Z</time></trkpt><trkpt lat="44.6720514" lon="7.4779408"><ele>290.0</ele><time>2026-04-21T06:09:37.053Z</time></trkpt><trkpt lat="44.6718388" lon="7.4780485"><ele>290.0</ele><time>2026-04-21T06:09:38.066Z</time></trkpt><trkpt lat="44.6716277" lon="7.4781582"><ele>290.0</ele><time>2026-04-21T06:09:39.051Z</time></trkpt><trkpt lat="44.6714193" lon="7.4782692"><ele>290.0</ele><time>2026-04-21T06:09:40.052Z</time></trkpt><trkpt lat="44.6712106" lon="7.4783809"><ele>290.33333333333337</ele><time>2026-04-21T06:09:41.049Z</time></trkpt><trkpt lat="44.6710018" lon="7.4784903"><ele>290.6666666666667</ele><time>2026-04-21T06:09:42.049Z</time></trkpt><trkpt lat="44.6707929" lon="7.4785977"><ele>291.0</ele><time>2026-04-21T06:09:43.055Z</time></trkpt><trkpt lat="44.6705844" lon="7.4787032"><ele>291.0</ele><time>2026-04-21T06:09:44.048Z</time></trkpt><trkpt lat="44.6703744" lon="7.4788067"><ele>291.0</ele><time>2026-04-21T06:09:45.053Z</time></trkpt><trkpt lat="44.6701655" lon="7.478913"><ele>291.0</ele><time>2026-04-21T06:09:46.053Z</time></trkpt><trkpt lat="44.6699565" lon="7.4790168"><ele>291.6666666666667</ele><time>2026-04-21T06:09:47.061Z</time></trkpt><trkpt lat="44.6697487" lon="7.479123"><ele>292.33333333333337</ele><time>2026-04-21T06:09:48.066Z</time></trkpt><trkpt lat="44.6695405" lon="7.4792261"><ele>293.0</ele><time>2026-04-21T06:09:49.045Z</time></trkpt><trkpt lat="44.6693405" lon="7.4793257"><ele>295.0</ele><time>2026-04-21T06:09:50.053Z</time></trkpt><trkpt lat="44.6691539" lon="7.4794173"><ele>297.0</ele><time>2026-04-21T06:09:51.048Z</time></trkpt><trkpt lat="44.6689805" lon="7.4795075"><ele>299.0</ele><time>2026-04-21T06:09:52.054Z</time></trkpt><trkpt lat="44.6688182" lon="7.4795894"><ele>298.75</ele><time>2026-04-21T06:09:53.046Z</time></trkpt><trkpt lat="44.6686692" lon="7.4796632"><ele>298.5</ele><time>2026-04-21T06:09:54.052Z</time></trkpt><trkpt lat="44.668534" lon="7.479732"><ele>298.25</ele><time>2026-04-21T06:09:55.061Z</time></trkpt><trkpt lat="44.6684126" lon="7.4797982"><ele>298.0</ele><time>2026-04-21T06:09:56.048Z</time></trkpt><trkpt lat="44.6683033" lon="7.4798463"><ele>297.66666666666663</ele><time>2026-04-21T06:09:57.052Z</time></trkpt><trkpt lat="44.6682051" lon="7.4798783"><ele>297.3333333333333</ele><time>2026-04-21T06:09:58.044Z</time></trkpt><trkpt lat="44.6681329" lon="7.4798786"><ele>297.0</ele><time>2026-04-21T06:09:59.047Z</time></trkpt><trkpt lat="44.6680673" lon="7.4798828"><ele>296.6666666666667</ele><time>2026-04-21T06:10:01.044Z</time></trkpt><trkpt lat="44.6679564" lon="7.4798416"><ele>296.33333333333337</ele><time>2026-04-21T06:10:08.04Z</time></trkpt><trkpt lat="44.6678931" lon="7.4798272"><ele>296.0</ele><time>2026-04-21T06:10:09.043Z</time></trkpt><trkpt lat="44.6677704" lon="7.4798405"><ele>295.7142857142857</ele><time>2026-04-21T06:10:11.04Z</time></trkpt><trkpt lat="44.6677098" lon="7.4798825"><ele>295.42857142857144</ele><time>2026-04-21T06:10:12.038Z</time></trkpt><trkpt lat="44.6676597" lon="7.4799456"><ele>295.1428571428571</ele><time>2026-04-21T06:10:13.056Z</time></trkpt><trkpt lat="44.6676175" lon="7.4800246"><ele>294.8571428571429</ele><time>2026-04-21T06:10:14.047Z</time></trkpt><trkpt lat="44.66758" lon="7.4801301"><ele>294.57142857142856</ele><time>2026-04-21T06:10:15.043Z</time></trkpt><trkpt lat="44.6675301" lon="7.4802074"><ele>294.2857142857143</ele><time>2026-04-21T06:10:16.043Z</time></trkpt><trkpt lat="44.6674644" lon="7.4802778"><ele>294.0</ele><time>2026-04-21T06:10:17.048Z</time></trkpt><trkpt lat="44.6673773" lon="7.4803386"><ele>294.0</ele><time>2026-04-21T06:10:18.039Z</time></trkpt><trkpt lat="44.6672768" lon="7.4803864"><ele>294.0</ele><time>2026-04-21T06:10:19.048Z</time></trkpt><trkpt lat="44.6671708" lon="7.4804285"><ele>294.0</ele><time>2026-04-21T06:10:20.045Z</time></trkpt><trkpt lat="44.6670744" lon="7.4804738"><ele>294.0</ele><time>2026-04-21T06:10:21.041Z</time></trkpt><trkpt lat="44.6669831" lon="7.4805255"><ele>294.0</ele><time>2026-04-21T06:10:22.039Z</time></trkpt><trkpt lat="44.6668897" lon="7.4805742"><ele>294.4</ele><time>2026-04-21T06:10:23.05Z</time></trkpt><trkpt lat="44.6668018" lon="7.4806212"><ele>294.79999999999995</ele><time>2026-04-21T06:10:24.052Z</time></trkpt><trkpt lat="44.6667124" lon="7.4806737"><ele>295.20000000000005</ele><time>2026-04-21T06:10:25.041Z</time></trkpt><trkpt lat="44.6666166" lon="7.4807288"><ele>295.6</ele><time>2026-04-21T06:10:26.042Z</time></trkpt><trkpt lat="44.6665164" lon="7.4807847"><ele>296.0</ele><time>2026-04-21T06:10:27.043Z</time></trkpt><trkpt lat="44.6664098" lon="7.4808416"><ele>296.0</ele><time>2026-04-21T06:10:28.044Z</time></trkpt><trkpt lat="44.6662916" lon="7.4809023"><ele>296.0</ele><time>2026-04-21T06:10:29.044Z</time></trkpt><trkpt lat="44.6661577" lon="7.4809809"><ele>296.0</ele><time>2026-04-21T06:10:30.048Z</time></trkpt><trkpt lat="44.666008" lon="7.4810711"><ele>296.0</ele><time>2026-04-21T06:10:31.049Z</time></trkpt><trkpt lat="44.665845" lon="7.4811672"><ele>297.33333333333337</ele><time>2026-04-21T06:10:32.045Z</time></trkpt><trkpt lat="44.6656693" lon="7.4812619"><ele>298.6666666666667</ele><time>2026-04-21T06:10:33.044Z</time></trkpt><trkpt lat="44.6654825" lon="7.4813585"><ele>300.0</ele><time>2026-04-21T06:10:34.041Z</time></trkpt><trkpt lat="44.6652895" lon="7.4814588"><ele>301.0</ele><time>2026-04-21T06:10:35.039Z</time></trkpt><trkpt lat="44.6650905" lon="7.4815518"><ele>302.0</ele><time>2026-04-21T06:10:36.044Z</time></trkpt><trkpt lat="44.664889" lon="7.4816476"><ele>303.0</ele><time>2026-04-21T06:10:37.041Z</time></trkpt><trkpt lat="44.6646891" lon="7.4817421"><ele>303.0</ele><time>2026-04-21T06:10:38.041Z</time></trkpt><trkpt lat="44.6644851" lon="7.4818277"><ele>303.0</ele><time>2026-04-21T06:10:39.036Z</time></trkpt><trkpt lat="44.6642784" lon="7.4819116"><ele>303.0</ele><time>2026-04-21T06:10:40.046Z</time></trkpt><trkpt lat="44.6640741" lon="7.4820037"><ele>304.3333333333333</ele><time>2026-04-21T06:10:41.045Z</time></trkpt><trkpt lat="44.6638698" lon="7.4821044"><ele>305.66666666666663</ele><time>2026-04-21T06:10:42.043Z</time></trkpt><trkpt lat="44.6636621" lon="7.4822059"><ele>307.0</ele><time>2026-04-21T06:10:43.06Z</time></trkpt><trkpt lat="44.6634552" lon="7.4823116"><ele>307.0</ele><time>2026-04-21T06:10:44.048Z</time></trkpt><trkpt lat="44.6632484" lon="7.4824183"><ele>307.0</ele><time>2026-04-21T06:10:45.048Z</time></trkpt><trkpt lat="44.6630426" lon="7.4825276"><ele>307.0</ele><time>2026-04-21T06:10:46.053Z</time></trkpt><trkpt lat="44.6628374" lon="7.4826381"><ele>307.66666666666663</ele><time>2026-04-21T06:10:47.043Z</time></trkpt><trkpt lat="44.6626281" lon="7.4827498"><ele>308.3333333333333</ele><time>2026-04-21T06:10:48.047Z</time></trkpt><trkpt lat="44.6624165" lon="7.4828551"><ele>309.0</ele><time>2026-04-21T06:10:49.041Z</time></trkpt><trkpt lat="44.6622065" lon="7.4829585"><ele>309.0</ele><time>2026-04-21T06:10:50.052Z</time></trkpt><trkpt lat="44.661996" lon="7.4830646"><ele>309.0</ele><time>2026-04-21T06:10:51.052Z</time></trkpt><trkpt lat="44.6617833" lon="7.4831748"><ele>311.5</ele><time>2026-04-21T06:10:52.044Z</time></trkpt><trkpt lat="44.6615697" lon="7.4832852"><ele>314.0</ele><time>2026-04-21T06:10:53.051Z</time></trkpt><trkpt lat="44.6613592" lon="7.4833973"><ele>314.0</ele><time>2026-04-21T06:10:54.05Z</time></trkpt><trkpt lat="44.6611501" lon="7.4835163"><ele>314.0</ele><time>2026-04-21T06:10:55.051Z</time></trkpt><trkpt lat="44.6609443" lon="7.4836477"><ele>313.0</ele><time>2026-04-21T06:10:56.046Z</time></trkpt><trkpt lat="44.6607408" lon="7.483796"><ele>312.0</ele><time>2026-04-21T06:10:57.05Z</time></trkpt><trkpt lat="44.6605388" lon="7.4839518"><ele>312.0</ele><time>2026-04-21T06:10:58.044Z</time></trkpt><trkpt lat="44.6603375" lon="7.4841057"><ele>312.0</ele><time>2026-04-21T06:10:59.048Z</time></trkpt><trkpt lat="44.6601373" lon="7.4842608"><ele>313.5</ele><time>2026-04-21T06:11:00.043Z</time></trkpt><trkpt lat="44.6599381" lon="7.4844181"><ele>315.0</ele><time>2026-04-21T06:11:01.048Z</time></trkpt><trkpt lat="44.659738" lon="7.4845759"><ele>316.0</ele><time>2026-04-21T06:11:02.044Z</time></trkpt><trkpt lat="44.6595366" lon="7.484735"><ele>317.0</ele><time>2026-04-21T06:11:03.051Z</time></trkpt><trkpt lat="44.6593386" lon="7.4848908"><ele>317.5</ele><time>2026-04-21T06:11:04.048Z</time></trkpt><trkpt lat="44.6591406" lon="7.485045"><ele>318.0</ele><time>2026-04-21T06:11:05.044Z</time></trkpt><trkpt lat="44.658941" lon="7.4852019"><ele>318.0</ele><time>2026-04-21T06:11:06.047Z</time></trkpt><trkpt lat="44.6587434" lon="7.4853545"><ele>318.0</ele><time>2026-04-21T06:11:07.036Z</time></trkpt><trkpt lat="44.658546" lon="7.485506"><ele>318.6666666666667</ele><time>2026-04-21T06:11:08.04Z</time></trkpt><trkpt lat="44.6583527" lon="7.4856557"><ele>319.33333333333337</ele><time>2026-04-21T06:11:09.041Z</time></trkpt><trkpt lat="44.6581671" lon="7.4858003"><ele>320.0</ele><time>2026-04-21T06:11:10.042Z</time></trkpt><trkpt lat="44.6579895" lon="7.4859404"><ele>320.0</ele><time>2026-04-21T06:11:11.049Z</time></trkpt><trkpt lat="44.6578105" lon="7.4860793"><ele>320.0</ele><time>2026-04-21T06:11:12.037Z</time></trkpt><trkpt lat="44.6576371" lon="7.486213"><ele>320.0</ele><time>2026-04-21T06:11:13.054Z</time></trkpt><trkpt lat="44.6574711" lon="7.4863395"><ele>320.6666666666667</ele><time>2026-04-21T06:11:14.045Z</time></trkpt><trkpt lat="44.6573154" lon="7.486458"><ele>321.3333333333333</ele><time>2026-04-21T06:11:15.045Z</time></trkpt><trkpt lat="44.6571739" lon="7.4865668"><ele>322.0</ele><time>2026-04-21T06:11:16.042Z</time></trkpt><trkpt lat="44.6570384" lon="7.486666"><ele>322.5</ele><time>2026-04-21T06:11:17.042Z</time></trkpt><trkpt lat="44.6569122" lon="7.4867667"><ele>323.0</ele><time>2026-04-21T06:11:18.039Z</time></trkpt><trkpt lat="44.6568025" lon="7.4868516"><ele>323.5</ele><time>2026-04-21T06:11:19.042Z</time></trkpt><trkpt lat="44.6567135" lon="7.48692"><ele>324.0</ele><time>2026-04-21T06:11:20.038Z</time></trkpt><trkpt lat="44.6566412" lon="7.486976"><ele>324.0</ele><time>2026-04-21T06:11:21.044Z</time></trkpt><trkpt lat="44.65658" lon="7.4870252"><ele>324.0</ele><time>2026-04-21T06:11:22.039Z</time></trkpt><trkpt lat="44.6565245" lon="7.4870733"><ele>324.0</ele><time>2026-04-21T06:11:23.043Z</time></trkpt><trkpt lat="44.6564164" lon="7.4871728"><ele>324.0</ele><time>2026-04-21T06:11:25.041Z</time></trkpt><trkpt lat="44.6563548" lon="7.487221"><ele>324.0</ele><time>2026-04-21T06:11:26.045Z</time></trkpt><trkpt lat="44.6562826" lon="7.4872635"><ele>324.0</ele><time>2026-04-21T06:11:27.048Z</time></trkpt><trkpt lat="44.6562025" lon="7.4872894"><ele>324.0</ele><time>2026-04-21T06:11:28.039Z</time></trkpt><trkpt lat="44.656118" lon="7.4872954"><ele>324.0</ele><time>2026-04-21T06:11:29.041Z</time></trkpt><trkpt lat="44.6560381" lon="7.487288"><ele>324.0</ele><time>2026-04-21T06:11:30.045Z</time></trkpt><trkpt lat="44.6559567" lon="7.4872875"><ele>324.0</ele><time>2026-04-21T06:11:31.048Z</time></trkpt><trkpt lat="44.6558746" lon="7.4873118"><ele>324.0</ele><time>2026-04-21T06:11:32.043Z</time></trkpt><trkpt lat="44.6558016" lon="7.4873655"><ele>324.0</ele><time>2026-04-21T06:11:33.042Z</time></trkpt><trkpt lat="44.6557512" lon="7.4874488"><ele>324.0</ele><time>2026-04-21T06:11:34.039Z</time></trkpt><trkpt lat="44.655713" lon="7.4875517"><ele>324.0</ele><time>2026-04-21T06:11:35.041Z</time></trkpt><trkpt lat="44.655671" lon="7.4876666"><ele>324.0</ele><time>2026-04-21T06:11:36.037Z</time></trkpt><trkpt lat="44.655622" lon="7.4877831"><ele>324.0</ele><time>2026-04-21T06:11:37.038Z</time></trkpt><trkpt lat="44.6555619" lon="7.4878677"><ele>324.0</ele><time>2026-04-21T06:11:38.041Z</time></trkpt><trkpt lat="44.6554967" lon="7.487929"><ele>324.0</ele><time>2026-04-21T06:11:39.042Z</time></trkpt><trkpt lat="44.6554234" lon="7.4879836"><ele>324.2</ele><time>2026-04-21T06:11:40.045Z</time></trkpt><trkpt lat="44.6553449" lon="7.4880379"><ele>324.4</ele><time>2026-04-21T06:11:41.045Z</time></trkpt><trkpt lat="44.6552623" lon="7.4880952"><ele>324.6</ele><time>2026-04-21T06:11:42.049Z</time></trkpt><trkpt lat="44.6551791" lon="7.4881554"><ele>324.8</ele><time>2026-04-21T06:11:43.048Z</time></trkpt><trkpt lat="44.6550951" lon="7.4882192"><ele>325.0</ele><time>2026-04-21T06:11:44.045Z</time></trkpt><trkpt lat="44.6550098" lon="7.4882848"><ele>325.2</ele><time>2026-04-21T06:11:45.042Z</time></trkpt><trkpt lat="44.6549243" lon="7.488347"><ele>325.4</ele><time>2026-04-21T06:11:46.042Z</time></trkpt><trkpt lat="44.6548332" lon="7.488414"><ele>325.6</ele><time>2026-04-21T06:11:47.047Z</time></trkpt><trkpt lat="44.6547371" lon="7.4884831"><ele>325.8</ele><time>2026-04-21T06:11:48.047Z</time></trkpt><trkpt lat="44.6546449" lon="7.4885502"><ele>326.0</ele><time>2026-04-21T06:11:49.047Z</time></trkpt><trkpt lat="44.6545554" lon="7.4886151"><ele>326.0</ele><time>2026-04-21T06:11:50.044Z</time></trkpt><trkpt lat="44.6544648" lon="7.488682"><ele>326.0</ele><time>2026-04-21T06:11:51.048Z</time></trkpt><trkpt lat="44.6543722" lon="7.4887557"><ele>326.0</ele><time>2026-04-21T06:11:52.05Z</time></trkpt><trkpt lat="44.6542724" lon="7.4888382"><ele>326.0</ele><time>2026-04-21T06:11:53.047Z</time></trkpt><trkpt lat="44.6541642" lon="7.4889226"><ele>326.0</ele><time>2026-04-21T06:11:54.044Z</time></trkpt><trkpt lat="44.6540534" lon="7.4890061"><ele>327.0</ele><time>2026-04-21T06:11:55.045Z</time></trkpt><trkpt lat="44.6539429" lon="7.4890868"><ele>328.0</ele><time>2026-04-21T06:11:56.049Z</time></trkpt><trkpt lat="44.6538381" lon="7.4891629"><ele>329.0</ele><time>2026-04-21T06:11:57.041Z</time></trkpt><trkpt lat="44.6537337" lon="7.4892434"><ele>330.0</ele><time>2026-04-21T06:11:58.048Z</time></trkpt><trkpt lat="44.6536262" lon="7.4893235"><ele>330.25</ele><time>2026-04-21T06:11:59.051Z</time></trkpt><trkpt lat="44.6535146" lon="7.4894058"><ele>330.5</ele><time>2026-04-21T06:12:00.042Z</time></trkpt><trkpt lat="44.6534024" lon="7.4894917"><ele>330.75</ele><time>2026-04-21T06:12:01.051Z</time></trkpt><trkpt lat="44.6532889" lon="7.4895802"><ele>331.0</ele><time>2026-04-21T06:12:02.045Z</time></trkpt><trkpt lat="44.6531757" lon="7.4896677"><ele>331.0</ele><time>2026-04-21T06:12:03.05Z</time></trkpt><trkpt lat="44.6530687" lon="7.48975"><ele>331.0</ele><time>2026-04-21T06:12:04.044Z</time></trkpt><trkpt lat="44.6529681" lon="7.4898322"><ele>331.0</ele><time>2026-04-21T06:12:05.05Z</time></trkpt><trkpt lat="44.6528778" lon="7.4898992"><ele>331.0</ele><time>2026-04-21T06:12:06.046Z</time></trkpt><trkpt lat="44.6527992" lon="7.4899552"><ele>331.0</ele><time>2026-04-21T06:12:07.044Z</time></trkpt><trkpt lat="44.6527289" lon="7.4900096"><ele>331.42857142857144</ele><time>2026-04-21T06:12:08.045Z</time></trkpt><trkpt lat="44.6526603" lon="7.4900637"><ele>331.85714285714283</ele><time>2026-04-21T06:12:09.043Z</time></trkpt><trkpt lat="44.6525921" lon="7.4901171"><ele>332.2857142857143</ele><time>2026-04-21T06:12:10.038Z</time></trkpt><trkpt lat="44.6525272" lon="7.4901675"><ele>332.7142857142857</ele><time>2026-04-21T06:12:11.044Z</time></trkpt><trkpt lat="44.6524647" lon="7.4902173"><ele>333.14285714285717</ele><time>2026-04-21T06:12:12.041Z</time></trkpt><trkpt lat="44.6524041" lon="7.490266"><ele>333.57142857142856</ele><time>2026-04-21T06:12:13.049Z</time></trkpt><trkpt lat="44.6523445" lon="7.4903138"><ele>334.0</ele><time>2026-04-21T06:12:14.039Z</time></trkpt><trkpt lat="44.6522848" lon="7.4903614"><ele>334.0</ele><time>2026-04-21T06:12:15.042Z</time></trkpt><trkpt lat="44.6522239" lon="7.4904071"><ele>334.0</ele><time>2026-04-21T06:12:16.042Z</time></trkpt><trkpt lat="44.6521626" lon="7.4904528"><ele>334.0</ele><time>2026-04-21T06:12:17.038Z</time></trkpt><trkpt lat="44.6521028" lon="7.4904987"><ele>334.0</ele><time>2026-04-21T06:12:18.041Z</time></trkpt><trkpt lat="44.6520441" lon="7.4905452"><ele>334.0</ele><time>2026-04-21T06:12:19.043Z</time></trkpt><trkpt lat="44.6519864" lon="7.4905928"><ele>334.0</ele><time>2026-04-21T06:12:20.045Z</time></trkpt><trkpt lat="44.6519266" lon="7.4906372"><ele>334.0</ele><time>2026-04-21T06:12:21.045Z</time></trkpt><trkpt lat="44.6518652" lon="7.4906851"><ele>334.0</ele><time>2026-04-21T06:12:22.047Z</time></trkpt><trkpt lat="44.6517993" lon="7.4907354"><ele>334.0</ele><time>2026-04-21T06:12:23.049Z</time></trkpt><trkpt lat="44.651735" lon="7.4907913"><ele>334.0</ele><time>2026-04-21T06:12:24.043Z</time></trkpt><trkpt lat="44.6516669" lon="7.4908484"><ele>334.0</ele><time>2026-04-21T06:12:25.045Z</time></trkpt><trkpt lat="44.6515964" lon="7.4909032"><ele>334.0</ele><time>2026-04-21T06:12:26.044Z</time></trkpt><trkpt lat="44.6515285" lon="7.4909557"><ele>334.0</ele><time>2026-04-21T06:12:27.043Z</time></trkpt><trkpt lat="44.6514662" lon="7.4910134"><ele>334.0</ele><time>2026-04-21T06:12:28.038Z</time></trkpt><trkpt lat="44.6514069" lon="7.4910701"><ele>334.0</ele><time>2026-04-21T06:12:29.041Z</time></trkpt><trkpt lat="44.6513487" lon="7.4911187"><ele>334.0</ele><time>2026-04-21T06:12:30.043Z</time></trkpt><trkpt lat="44.6512904" lon="7.4911593"><ele>334.0</ele><time>2026-04-21T06:12:31.044Z</time></trkpt><trkpt lat="44.6511668" lon="7.4911817"><ele>334.0</ele><time>2026-04-21T06:12:33.046Z</time></trkpt><trkpt lat="44.6511015" lon="7.4911663"><ele>334.0</ele><time>2026-04-21T06:12:34.042Z</time></trkpt><trkpt lat="44.6509848" lon="7.4911715"><ele>334.66666666666663</ele><time>2026-04-21T06:12:36.043Z</time></trkpt><trkpt lat="44.6509078" lon="7.4912875"><ele>335.3333333333333</ele><time>2026-04-21T06:12:38.042Z</time></trkpt><trkpt lat="44.6508726" lon="7.4913699"><ele>336.0</ele><time>2026-04-21T06:12:39.041Z</time></trkpt><trkpt lat="44.6508257" lon="7.4914558"><ele>336.6666666666667</ele><time>2026-04-21T06:12:40.039Z</time></trkpt><trkpt lat="44.6507682" lon="7.491536"><ele>337.33333333333337</ele><time>2026-04-21T06:12:41.041Z</time></trkpt><trkpt lat="44.6507002" lon="7.491606"><ele>338.0</ele><time>2026-04-21T06:12:42.042Z</time></trkpt><trkpt lat="44.6506256" lon="7.491673"><ele>338.0</ele><time>2026-04-21T06:12:43.045Z</time></trkpt><trkpt lat="44.650548" lon="7.4917305"><ele>338.0</ele><time>2026-04-21T06:12:44.044Z</time></trkpt><trkpt lat="44.6504697" lon="7.4917825"><ele>338.0</ele><time>2026-04-21T06:12:45.045Z</time></trkpt><trkpt lat="44.6503961" lon="7.4918255"><ele>338.0</ele><time>2026-04-21T06:12:46.04Z</time></trkpt><trkpt lat="44.6503304" lon="7.4918609"><ele>338.0</ele><time>2026-04-21T06:12:47.041Z</time></trkpt><trkpt lat="44.6502579" lon="7.4918939"><ele>338.0</ele><time>2026-04-21T06:12:49.041Z</time></trkpt><trkpt lat="44.6501823" lon="7.4919391"><ele>338.1666666666667</ele><time>2026-04-21T06:12:57.051Z</time></trkpt><trkpt lat="44.650064" lon="7.4919833"><ele>338.33333333333337</ele><time>2026-04-21T06:12:59.044Z</time></trkpt><trkpt lat="44.6500074" lon="7.4920344"><ele>338.5</ele><time>2026-04-21T06:13:00.045Z</time></trkpt><trkpt lat="44.6499815" lon="7.4921594"><ele>338.6666666666667</ele><time>2026-04-21T06:13:02.043Z</time></trkpt><trkpt lat="44.6499876" lon="7.4922601"><ele>338.8333333333333</ele><time>2026-04-21T06:13:04.04Z</time></trkpt><trkpt lat="44.6499578" lon="7.4923816"><ele>339.0</ele><time>2026-04-21T06:13:07.039Z</time></trkpt><trkpt lat="44.649912" lon="7.4924805"><ele>339.0</ele><time>2026-04-21T06:13:09.042Z</time></trkpt><trkpt lat="44.649847" lon="7.4926076"><ele>339.0</ele><time>2026-04-21T06:13:11.047Z</time></trkpt><trkpt lat="44.6497773" lon="7.492758"><ele>339.0</ele><time>2026-04-21T06:13:13.041Z</time></trkpt><trkpt lat="44.6497399" lon="7.492835"><ele>339.0</ele><time>2026-04-21T06:13:14.041Z</time></trkpt><trkpt lat="44.649703" lon="7.4929103"><ele>339.0</ele><time>2026-04-21T06:13:15.042Z</time></trkpt><trkpt lat="44.6496646" lon="7.4929878"><ele>339.0</ele><time>2026-04-21T06:13:16.044Z</time></trkpt><trkpt lat="44.6496238" lon="7.4930652"><ele>339.4285714285714</ele><time>2026-04-21T06:13:17.047Z</time></trkpt><trkpt lat="44.6495801" lon="7.4931418"><ele>339.8571428571429</ele><time>2026-04-21T06:13:18.05Z</time></trkpt><trkpt lat="44.6495351" lon="7.493219"><ele>340.2857142857143</ele><time>2026-04-21T06:13:19.047Z</time></trkpt><trkpt lat="44.6494901" lon="7.4932942"><ele>340.71428571428567</ele><time>2026-04-21T06:13:20.049Z</time></trkpt><trkpt lat="44.6494491" lon="7.4933688"><ele>341.1428571428571</ele><time>2026-04-21T06:13:21.041Z</time></trkpt><trkpt lat="44.6494066" lon="7.493445"><ele>341.57142857142856</ele><time>2026-04-21T06:13:22.045Z</time></trkpt><trkpt lat="44.6493645" lon="7.4935205"><ele>342.0</ele><time>2026-04-21T06:13:23.049Z</time></trkpt><trkpt lat="44.6493238" lon="7.4935943"><ele>342.5</ele><time>2026-04-21T06:13:24.042Z</time></trkpt><trkpt lat="44.6492798" lon="7.4936779"><ele>343.0</ele><time>2026-04-21T06:13:25.047Z</time></trkpt><trkpt lat="44.6492346" lon="7.4937693"><ele>343.5</ele><time>2026-04-21T06:13:26.046Z</time></trkpt><trkpt lat="44.6491919" lon="7.493866"><ele>344.0</ele><time>2026-04-21T06:13:27.047Z</time></trkpt><trkpt lat="44.649144" lon="7.4939654"><ele>344.5</ele><time>2026-04-21T06:13:28.043Z</time></trkpt><trkpt lat="44.6490894" lon="7.4940616"><ele>345.0</ele><time>2026-04-21T06:13:29.044Z</time></trkpt><trkpt lat="44.6490341" lon="7.494154"><ele>345.0</ele><time>2026-04-21T06:13:30.041Z</time></trkpt><trkpt lat="44.6489864" lon="7.4942399"><ele>345.0</ele><time>2026-04-21T06:13:31.049Z</time></trkpt><trkpt lat="44.6489431" lon="7.4943222"><ele>345.0</ele><time>2026-04-21T06:13:32.041Z</time></trkpt><trkpt lat="44.6488971" lon="7.4944063"><ele>345.0</ele><time>2026-04-21T06:13:33.039Z</time></trkpt><trkpt lat="44.6488438" lon="7.4944959"><ele>345.0</ele><time>2026-04-21T06:13:34.046Z</time></trkpt><trkpt lat="44.6487899" lon="7.4945908"><ele>345.0</ele><time>2026-04-21T06:13:35.044Z</time></trkpt><trkpt lat="44.648734" lon="7.4946838"><ele>344.3333333333333</ele><time>2026-04-21T06:13:36.045Z</time></trkpt><trkpt lat="44.6486811" lon="7.4947636"><ele>343.6666666666667</ele><time>2026-04-21T06:13:37.038Z</time></trkpt><trkpt lat="44.6486299" lon="7.4948296"><ele>343.0</ele><time>2026-04-21T06:13:38.039Z</time></trkpt><trkpt lat="44.6485365" lon="7.4949208"><ele>342.33333333333337</ele><time>2026-04-21T06:13:40.04Z</time></trkpt><trkpt lat="44.6484591" lon="7.4949723"><ele>341.6666666666667</ele><time>2026-04-21T06:13:42.041Z</time></trkpt><trkpt lat="44.6483966" lon="7.4950027"><ele>341.0</ele><time>2026-04-21T06:13:44.039Z</time></trkpt><trkpt lat="44.6483129" lon="7.4950439"><ele>340.83333333333337</ele><time>2026-04-21T06:13:47.044Z</time></trkpt><trkpt lat="44.6482516" lon="7.495068"><ele>340.6666666666667</ele><time>2026-04-21T06:13:49.041Z</time></trkpt><trkpt lat="44.6481847" lon="7.4950886"><ele>340.5</ele><time>2026-04-21T06:13:51.042Z</time></trkpt><trkpt lat="44.6481013" lon="7.4951153"><ele>340.3333333333333</ele><time>2026-04-21T06:13:53.047Z</time></trkpt><trkpt lat="44.6480003" lon="7.4951519"><ele>340.16666666666663</ele><time>2026-04-21T06:13:55.045Z</time></trkpt><trkpt lat="44.6479348" lon="7.4951828"><ele>340.0</ele><time>2026-04-21T06:13:56.041Z</time></trkpt><trkpt lat="44.6478423" lon="7.4952261"><ele>341.0</ele><time>2026-04-21T06:13:57.046Z</time></trkpt><trkpt lat="44.6477173" lon="7.4952705"><ele>342.0</ele><time>2026-04-21T06:13:58.045Z</time></trkpt><trkpt lat="44.6475692" lon="7.495291"><ele>343.0</ele><time>2026-04-21T06:13:59.046Z</time></trkpt><trkpt lat="44.6474345" lon="7.495313"><ele>344.0</ele><time>2026-04-21T06:14:00.042Z</time></trkpt><trkpt lat="44.6473195" lon="7.4953304"><ele>344.0</ele><time>2026-04-21T06:14:01.04Z</time></trkpt><trkpt lat="44.647226" lon="7.4953478"><ele>344.0</ele><time>2026-04-21T06:14:02.041Z</time></trkpt><trkpt lat="44.6471398" lon="7.4953752"><ele>344.0</ele><time>2026-04-21T06:14:03.045Z</time></trkpt><trkpt lat="44.6470493" lon="7.4953995"><ele>344.0</ele><time>2026-04-21T06:14:04.038Z</time></trkpt><trkpt lat="44.6469596" lon="7.4954184"><ele>344.0</ele><time>2026-04-21T06:14:05.038Z</time></trkpt><trkpt lat="44.6468745" lon="7.495435"><ele>344.28571428571433</ele><time>2026-04-21T06:14:06.038Z</time></trkpt><trkpt lat="44.646797" lon="7.4954535"><ele>344.57142857142856</ele><time>2026-04-21T06:14:07.042Z</time></trkpt><trkpt lat="44.646724" lon="7.4954756"><ele>344.8571428571429</ele><time>2026-04-21T06:14:08.043Z</time></trkpt><trkpt lat="44.6466527" lon="7.4955031"><ele>345.14285714285717</ele><time>2026-04-21T06:14:09.041Z</time></trkpt><trkpt lat="44.646587" lon="7.4955291"><ele>345.42857142857144</ele><time>2026-04-21T06:14:10.037Z</time></trkpt><trkpt lat="44.6465245" lon="7.4955523"><ele>345.7142857142857</ele><time>2026-04-21T06:14:11.041Z</time></trkpt><trkpt lat="44.6464617" lon="7.4955743"><ele>346.0</ele><time>2026-04-21T06:14:12.039Z</time></trkpt><trkpt lat="44.6463981" lon="7.4955982"><ele>346.0</ele><time>2026-04-21T06:14:13.045Z</time></trkpt><trkpt lat="44.6463353" lon="7.4956172"><ele>346.0</ele><time>2026-04-21T06:14:14.042Z</time></trkpt><trkpt lat="44.646271" lon="7.4956363"><ele>346.0</ele><time>2026-04-21T06:14:15.04Z</time></trkpt><trkpt lat="44.6462009" lon="7.495657"><ele>346.0</ele><time>2026-04-21T06:14:16.039Z</time></trkpt><trkpt lat="44.646121" lon="7.4956736"><ele>346.0</ele><time>2026-04-21T06:14:17.044Z</time></trkpt><trkpt lat="44.6460401" lon="7.4956981"><ele>346.0</ele><time>2026-04-21T06:14:18.043Z</time></trkpt><trkpt lat="44.6459655" lon="7.495721"><ele>346.0</ele><time>2026-04-21T06:14:19.04Z</time></trkpt><trkpt lat="44.6458956" lon="7.4957408"><ele>346.5</ele><time>2026-04-21T06:14:20.04Z</time></trkpt><trkpt lat="44.6458334" lon="7.4957573"><ele>347.0</ele><time>2026-04-21T06:14:21.038Z</time></trkpt><trkpt lat="44.645735" lon="7.4957731"><ele>347.5</ele><time>2026-04-21T06:14:23.038Z</time></trkpt><trkpt lat="44.6456605" lon="7.4957794"><ele>348.0</ele><time>2026-04-21T06:14:29.044Z</time></trkpt><trkpt lat="44.6455807" lon="7.4957761"><ele>348.5</ele><time>2026-04-21T06:14:31.045Z</time></trkpt><trkpt lat="44.6455078" lon="7.4958134"><ele>349.0</ele><time>2026-04-21T06:14:34.04Z</time></trkpt><trkpt lat="44.6454508" lon="7.4958668"><ele>349.0</ele><time>2026-04-21T06:14:36.041Z</time></trkpt><trkpt lat="44.6453745" lon="7.4959538"><ele>349.0</ele><time>2026-04-21T06:14:38.037Z</time></trkpt><trkpt lat="44.6453147" lon="7.4960011"><ele>349.0</ele><time>2026-04-21T06:14:39.035Z</time></trkpt><trkpt lat="44.6452451" lon="7.4960411"><ele>349.0</ele><time>2026-04-21T06:14:40.043Z</time></trkpt><trkpt lat="44.6451657" lon="7.4960847"><ele>349.0</ele><time>2026-04-21T06:14:41.051Z</time></trkpt><trkpt lat="44.6450791" lon="7.4961281"><ele>349.0</ele><time>2026-04-21T06:14:42.044Z</time></trkpt><trkpt lat="44.644985" lon="7.4961719"><ele>349.6</ele><time>2026-04-21T06:14:43.041Z</time></trkpt><trkpt lat="44.6448885" lon="7.4962153"><ele>350.2</ele><time>2026-04-21T06:14:44.041Z</time></trkpt><trkpt lat="44.644794" lon="7.4962558"><ele>350.8</ele><time>2026-04-21T06:14:45.049Z</time></trkpt><trkpt lat="44.6447047" lon="7.4962948"><ele>351.40000000000003</ele><time>2026-04-21T06:14:46.043Z</time></trkpt><trkpt lat="44.6446202" lon="7.4963388"><ele>352.0</ele><time>2026-04-21T06:14:47.043Z</time></trkpt><trkpt lat="44.6445343" lon="7.4963878"><ele>352.6</ele><time>2026-04-21T06:14:48.041Z</time></trkpt><trkpt lat="44.6444469" lon="7.4964402"><ele>353.20000000000005</ele><time>2026-04-21T06:14:49.038Z</time></trkpt><trkpt lat="44.6443572" lon="7.4964918"><ele>353.8</ele><time>2026-04-21T06:14:50.045Z</time></trkpt><trkpt lat="44.6442612" lon="7.4965449"><ele>354.4</ele><time>2026-04-21T06:14:51.038Z</time></trkpt><trkpt lat="44.6441594" lon="7.4965957"><ele>355.0</ele><time>2026-04-21T06:14:52.037Z</time></trkpt><trkpt lat="44.6440548" lon="7.4966455"><ele>355.0</ele><time>2026-04-21T06:14:53.044Z</time></trkpt><trkpt lat="44.6439532" lon="7.4966946"><ele>355.0</ele><time>2026-04-21T06:14:54.035Z</time></trkpt><trkpt lat="44.6438605" lon="7.4967386"><ele>355.0</ele><time>2026-04-21T06:14:55.044Z</time></trkpt><trkpt lat="44.6437792" lon="7.4967807"><ele>355.0</ele><time>2026-04-21T06:14:56.042Z</time></trkpt><trkpt lat="44.6437056" lon="7.4968189"><ele>355.0</ele><time>2026-04-21T06:14:57.041Z</time></trkpt><trkpt lat="44.6436353" lon="7.4968544"><ele>355.0</ele><time>2026-04-21T06:14:58.049Z</time></trkpt><trkpt lat="44.6435663" lon="7.4968893"><ele>355.2857142857143</ele><time>2026-04-21T06:14:59.039Z</time></trkpt><trkpt lat="44.6434904" lon="7.4969297"><ele>355.57142857142856</ele><time>2026-04-21T06:15:00.043Z</time></trkpt><trkpt lat="44.643417" lon="7.4969682"><ele>355.8571428571429</ele><time>2026-04-21T06:15:01.039Z</time></trkpt><trkpt lat="44.6433498" lon="7.4970057"><ele>356.1428571428571</ele><time>2026-04-21T06:15:02.042Z</time></trkpt><trkpt lat="44.643283" lon="7.4970423"><ele>356.42857142857144</ele><time>2026-04-21T06:15:03.043Z</time></trkpt><trkpt lat="44.6432205" lon="7.4970767"><ele>356.7142857142857</ele><time>2026-04-21T06:15:04.036Z</time></trkpt><trkpt lat="44.6431612" lon="7.4971089"><ele>357.0</ele><time>2026-04-21T06:15:05.036Z</time></trkpt><trkpt lat="44.6430505" lon="7.4971657"><ele>357.0</ele><time>2026-04-21T06:15:07.037Z</time></trkpt><trkpt lat="44.6429517" lon="7.497214"><ele>357.0</ele><time>2026-04-21T06:15:09.039Z</time></trkpt><trkpt lat="44.6428784" lon="7.4972498"><ele>357.0</ele><time>2026-04-21T06:15:11.039Z</time></trkpt><trkpt lat="44.6428097" lon="7.4972856"><ele>357.0</ele><time>2026-04-21T06:15:13.056Z</time></trkpt><trkpt lat="44.642742" lon="7.4973198"><ele>357.0</ele><time>2026-04-21T06:15:15.044Z</time></trkpt><trkpt lat="44.6426626" lon="7.4973575"><ele>357.0</ele><time>2026-04-21T06:15:17.04Z</time></trkpt><trkpt lat="44.6425754" lon="7.4973979"><ele>356.3333333333333</ele><time>2026-04-21T06:15:19.041Z</time></trkpt><trkpt lat="44.642487" lon="7.4974376"><ele>355.6666666666667</ele><time>2026-04-21T06:15:21.038Z</time></trkpt><trkpt lat="44.6424183" lon="7.4974753"><ele>355.0</ele><time>2026-04-21T06:15:23.047Z</time></trkpt><trkpt lat="44.6423444" lon="7.4975025"><ele>354.33333333333337</ele><time>2026-04-21T06:15:25.042Z</time></trkpt><trkpt lat="44.6422665" lon="7.4975218"><ele>353.6666666666667</ele><time>2026-04-21T06:15:27.041Z</time></trkpt><trkpt lat="44.642161" lon="7.4975049"><ele>353.0</ele><time>2026-04-21T06:15:29.044Z</time></trkpt><trkpt lat="44.6420793" lon="7.4974796"><ele>353.0</ele><time>2026-04-21T06:15:31.039Z</time></trkpt><trkpt lat="44.6420262" lon="7.4975394"><ele>353.0</ele><time>2026-04-21T06:15:33.042Z</time></trkpt><trkpt lat="44.6420539" lon="7.4976529"><ele>353.0</ele><time>2026-04-21T06:15:35.042Z</time></trkpt><trkpt lat="44.6421229" lon="7.4976576"><ele>353.0</ele><time>2026-04-21T06:15:37.039Z</time></trkpt><trkpt lat="44.642209" lon="7.4976263"><ele>353.0</ele><time>2026-04-21T06:15:40.043Z</time></trkpt><trkpt lat="44.6423014" lon="7.4976135"><ele>353.0</ele><time>2026-04-21T06:15:42.04Z</time></trkpt><trkpt lat="44.6423647" lon="7.497592"><ele>353.0</ele><time>2026-04-21T06:15:43.042Z</time></trkpt><trkpt lat="44.642442" lon="7.4975642"><ele>353.0</ele><time>2026-04-21T06:15:44.043Z</time></trkpt><trkpt lat="44.6425281" lon="7.4975261"><ele>353.0</ele><time>2026-04-21T06:15:45.036Z</time></trkpt><trkpt lat="44.6426155" lon="7.4974843"><ele>353.0</ele><time>2026-04-21T06:15:46.043Z</time></trkpt><trkpt lat="44.6427032" lon="7.4974404"><ele>353.0</ele><time>2026-04-21T06:15:47.037Z</time></trkpt><trkpt lat="44.6427957" lon="7.4973941"><ele>353.79999999999995</ele><time>2026-04-21T06:15:48.043Z</time></trkpt><trkpt lat="44.6428897" lon="7.4973448"><ele>354.6</ele><time>2026-04-21T06:15:49.038Z</time></trkpt><trkpt lat="44.6429887" lon="7.4972963"><ele>355.4</ele><time>2026-04-21T06:15:50.042Z</time></trkpt><trkpt lat="44.6430917" lon="7.4972433"><ele>356.20000000000005</ele><time>2026-04-21T06:15:51.05Z</time></trkpt><trkpt lat="44.6431975" lon="7.4971903"><ele>357.0</ele><time>2026-04-21T06:15:52.041Z</time></trkpt><trkpt lat="44.6433023" lon="7.4971379"><ele>356.6</ele><time>2026-04-21T06:15:53.041Z</time></trkpt><trkpt lat="44.6434015" lon="7.4970847"><ele>356.20000000000005</ele><time>2026-04-21T06:15:54.046Z</time></trkpt><trkpt lat="44.6434975" lon="7.4970326"><ele>355.8</ele><time>2026-04-21T06:15:55.041Z</time></trkpt><trkpt lat="44.643591" lon="7.4969834"><ele>355.4</ele><time>2026-04-21T06:15:56.045Z</time></trkpt><trkpt lat="44.6436848" lon="7.4969364"><ele>355.0</ele><time>2026-04-21T06:15:57.049Z</time></trkpt><trkpt lat="44.6437846" lon="7.4968891"><ele>355.0</ele><time>2026-04-21T06:15:58.038Z</time></trkpt><trkpt lat="44.643885" lon="7.4968382"><ele>355.0</ele><time>2026-04-21T06:15:59.039Z</time></trkpt><trkpt lat="44.6439864" lon="7.4967853"><ele>355.0</ele><time>2026-04-21T06:16:00.038Z</time></trkpt><trkpt lat="44.6440871" lon="7.4967339"><ele>355.0</ele><time>2026-04-21T06:16:01.041Z</time></trkpt><trkpt lat="44.6441835" lon="7.4966828"><ele>355.0</ele><time>2026-04-21T06:16:02.051Z</time></trkpt><trkpt lat="44.6442773" lon="7.4966314"><ele>355.0</ele><time>2026-04-21T06:16:03.037Z</time></trkpt><trkpt lat="44.6443659" lon="7.4965826"><ele>355.0</ele><time>2026-04-21T06:16:04.04Z</time></trkpt><trkpt lat="44.6444478" lon="7.4965349"><ele>355.0</ele><time>2026-04-21T06:16:05.04Z</time></trkpt><trkpt lat="44.6445306" lon="7.4964931"><ele>355.0</ele><time>2026-04-21T06:16:06.039Z</time></trkpt><trkpt lat="44.6446153" lon="7.4964554"><ele>355.0</ele><time>2026-04-21T06:16:07.039Z</time></trkpt><trkpt lat="44.6446961" lon="7.4964206"><ele>355.0</ele><time>2026-04-21T06:16:08.039Z</time></trkpt><trkpt lat="44.644767" lon="7.4963842"><ele>354.5</ele><time>2026-04-21T06:16:09.037Z</time></trkpt><trkpt lat="44.6448302" lon="7.4963481"><ele>354.0</ele><time>2026-04-21T06:16:10.038Z</time></trkpt><trkpt lat="44.644936" lon="7.4962873"><ele>353.5</ele><time>2026-04-21T06:16:12.045Z</time></trkpt><trkpt lat="44.645026" lon="7.4962361"><ele>353.0</ele><time>2026-04-21T06:16:14.037Z</time></trkpt><trkpt lat="44.6451082" lon="7.4962113"><ele>352.5</ele><time>2026-04-21T06:16:17.04Z</time></trkpt><trkpt lat="44.6451702" lon="7.4961808"><ele>352.0</ele><time>2026-04-21T06:16:24.042Z</time></trkpt><trkpt lat="44.6452403" lon="7.4961432"><ele>351.57142857142856</ele><time>2026-04-21T06:16:29.04Z</time></trkpt><trkpt lat="44.6453038" lon="7.4961199"><ele>351.1428571428571</ele><time>2026-04-21T06:16:31.039Z</time></trkpt><trkpt lat="44.6453989" lon="7.4961601"><ele>350.71428571428567</ele><time>2026-04-21T06:16:33.038Z</time></trkpt><trkpt lat="44.6454603" lon="7.4962121"><ele>350.2857142857143</ele><time>2026-04-21T06:16:34.044Z</time></trkpt><trkpt lat="44.6455215" lon="7.4962458"><ele>349.85714285714283</ele><time>2026-04-21T06:16:35.035Z</time></trkpt><trkpt lat="44.6455876" lon="7.4962616"><ele>349.4285714285714</ele><time>2026-04-21T06:16:36.044Z</time></trkpt><trkpt lat="44.6456563" lon="7.4962768"><ele>349.0</ele><time>2026-04-21T06:16:37.041Z</time></trkpt><trkpt lat="44.645714" lon="7.4963271"><ele>348.85714285714283</ele><time>2026-04-21T06:16:38.049Z</time></trkpt><trkpt lat="44.6457667" lon="7.4963985"><ele>348.7142857142857</ele><time>2026-04-21T06:16:39.045Z</time></trkpt><trkpt lat="44.6458124" lon="7.4964853"><ele>348.57142857142856</ele><time>2026-04-21T06:16:40.042Z</time></trkpt><trkpt lat="44.6458519" lon="7.4965768"><ele>348.42857142857144</ele><time>2026-04-21T06:16:41.044Z</time></trkpt><trkpt lat="44.645884" lon="7.4966719"><ele>348.2857142857143</ele><time>2026-04-21T06:16:42.035Z</time></trkpt><trkpt lat="44.6459147" lon="7.4967656"><ele>348.1428571428571</ele><time>2026-04-21T06:16:43.045Z</time></trkpt><trkpt lat="44.6459424" lon="7.4968548"><ele>348.0</ele><time>2026-04-21T06:16:44.045Z</time></trkpt><trkpt lat="44.6459702" lon="7.4969423"><ele>348.0</ele><time>2026-04-21T06:16:45.047Z</time></trkpt><trkpt lat="44.6460004" lon="7.4970248"><ele>348.0</ele><time>2026-04-21T06:16:46.05Z</time></trkpt><trkpt lat="44.6460304" lon="7.4971032"><ele>348.0</ele><time>2026-04-21T06:16:47.038Z</time></trkpt><trkpt lat="44.6460881" lon="7.4972348"><ele>348.0</ele><time>2026-04-21T06:16:49.047Z</time></trkpt><trkpt lat="44.6461176" lon="7.4973323"><ele>348.0</ele><time>2026-04-21T06:16:51.048Z</time></trkpt><trkpt lat="44.6461486" lon="7.4974225"><ele>348.0</ele><time>2026-04-21T06:16:56.047Z</time></trkpt><trkpt lat="44.6461899" lon="7.4975255"><ele>348.1666666666667</ele><time>2026-04-21T06:17:00.042Z</time></trkpt><trkpt lat="44.6462221" lon="7.4976186"><ele>348.3333333333333</ele><time>2026-04-21T06:17:03.046Z</time></trkpt><trkpt lat="44.6462559" lon="7.4977108"><ele>348.5</ele><time>2026-04-21T06:17:08.044Z</time></trkpt><trkpt lat="44.6463067" lon="7.4978353"><ele>348.66666666666663</ele><time>2026-04-21T06:17:10.042Z</time></trkpt><trkpt lat="44.6463399" lon="7.4979179"><ele>348.8333333333333</ele><time>2026-04-21T06:17:11.042Z</time></trkpt><trkpt lat="44.6463785" lon="7.4980089"><ele>349.0</ele><time>2026-04-21T06:17:12.045Z</time></trkpt><trkpt lat="44.6464212" lon="7.4981143"><ele>349.4</ele><time>2026-04-21T06:17:13.044Z</time></trkpt><trkpt lat="44.6464645" lon="7.4982317"><ele>349.79999999999995</ele><time>2026-04-21T06:17:14.043Z</time></trkpt><trkpt lat="44.6465072" lon="7.4983599"><ele>350.20000000000005</ele><time>2026-04-21T06:17:15.041Z</time></trkpt><trkpt lat="44.646555" lon="7.4984969"><ele>350.6</ele><time>2026-04-21T06:17:16.045Z</time></trkpt><trkpt lat="44.646606" lon="7.4986408"><ele>351.0</ele><time>2026-04-21T06:17:17.045Z</time></trkpt><trkpt lat="44.6466583" lon="7.4987892"><ele>349.75</ele><time>2026-04-21T06:17:18.047Z</time></trkpt><trkpt lat="44.6467111" lon="7.4989433"><ele>348.5</ele><time>2026-04-21T06:17:19.04Z</time></trkpt><trkpt lat="44.6467676" lon="7.4991002"><ele>347.25</ele><time>2026-04-21T06:17:20.056Z</time></trkpt><trkpt lat="44.6468246" lon="7.4992574"><ele>346.0</ele><time>2026-04-21T06:17:21.041Z</time></trkpt><trkpt lat="44.646884" lon="7.4994199"><ele>345.75</ele><time>2026-04-21T06:17:22.048Z</time></trkpt><trkpt lat="44.6469448" lon="7.4995876"><ele>345.5</ele><time>2026-04-21T06:17:23.04Z</time></trkpt><trkpt lat="44.6470062" lon="7.4997618"><ele>345.25</ele><time>2026-04-21T06:17:24.047Z</time></trkpt><trkpt lat="44.6470682" lon="7.4999443"><ele>345.0</ele><time>2026-04-21T06:17:25.045Z</time></trkpt><trkpt lat="44.64713" lon="7.5001341"><ele>344.6666666666667</ele><time>2026-04-21T06:17:26.041Z</time></trkpt><trkpt lat="44.6471909" lon="7.5003325"><ele>344.33333333333337</ele><time>2026-04-21T06:17:27.041Z</time></trkpt><trkpt lat="44.6472501" lon="7.5005406"><ele>344.0</ele><time>2026-04-21T06:17:28.044Z</time></trkpt><trkpt lat="44.6473065" lon="7.5007585"><ele>344.0</ele><time>2026-04-21T06:17:29.043Z</time></trkpt><trkpt lat="44.6473679" lon="7.5009856"><ele>344.0</ele><time>2026-04-21T06:17:30.048Z</time></trkpt><trkpt lat="44.6474317" lon="7.5012168"><ele>344.0</ele><time>2026-04-21T06:17:31.044Z</time></trkpt><trkpt lat="44.6474958" lon="7.5014485"><ele>344.0</ele><time>2026-04-21T06:17:32.047Z</time></trkpt><trkpt lat="44.6475588" lon="7.5016803"><ele>344.0</ele><time>2026-04-21T06:17:33.049Z</time></trkpt><trkpt lat="44.6476219" lon="7.5019147"><ele>344.0</ele><time>2026-04-21T06:17:34.043Z</time></trkpt><trkpt lat="44.6476843" lon="7.5021492"><ele>343.6666666666667</ele><time>2026-04-21T06:17:35.045Z</time></trkpt><trkpt lat="44.6477468" lon="7.5023846"><ele>343.3333333333333</ele><time>2026-04-21T06:17:36.038Z</time></trkpt><trkpt lat="44.6478071" lon="7.5026258"><ele>343.0</ele><time>2026-04-21T06:17:37.037Z</time></trkpt><trkpt lat="44.6478479" lon="7.502857"><ele>341.66666666666663</ele><time>2026-04-21T06:17:38.04Z</time></trkpt><trkpt lat="44.6478604" lon="7.5030816"><ele>340.3333333333333</ele><time>2026-04-21T06:17:39.04Z</time></trkpt><trkpt lat="44.6478425" lon="7.5032976"><ele>339.0</ele><time>2026-04-21T06:17:40.042Z</time></trkpt><trkpt lat="44.6478047" lon="7.5035039"><ele>339.0</ele><time>2026-04-21T06:17:41.05Z</time></trkpt><trkpt lat="44.6477627" lon="7.5037089"><ele>339.0</ele><time>2026-04-21T06:17:42.04Z</time></trkpt><trkpt lat="44.6477284" lon="7.5039181"><ele>339.0</ele><time>2026-04-21T06:17:43.041Z</time></trkpt><trkpt lat="44.6477121" lon="7.5041365"><ele>339.0</ele><time>2026-04-21T06:17:44.039Z</time></trkpt><trkpt lat="44.6477093" lon="7.5043672"><ele>339.0</ele><time>2026-04-21T06:17:45.038Z</time></trkpt><trkpt lat="44.6477053" lon="7.504598"><ele>339.0</ele><time>2026-04-21T06:17:46.049Z</time></trkpt><trkpt lat="44.6477022" lon="7.504824"><ele>339.3333333333333</ele><time>2026-04-21T06:17:47.043Z</time></trkpt><trkpt lat="44.6477008" lon="7.5050435"><ele>339.66666666666663</ele><time>2026-04-21T06:17:48.048Z</time></trkpt><trkpt lat="44.6477001" lon="7.5052623"><ele>340.0</ele><time>2026-04-21T06:17:49.047Z</time></trkpt><trkpt lat="44.6477017" lon="7.5054817"><ele>340.0</ele><time>2026-04-21T06:17:50.047Z</time></trkpt><trkpt lat="44.6477066" lon="7.5056975"><ele>340.0</ele><time>2026-04-21T06:17:51.045Z</time></trkpt><trkpt lat="44.6477127" lon="7.5059152"><ele>340.0</ele><time>2026-04-21T06:17:52.041Z</time></trkpt><trkpt lat="44.6477182" lon="7.5061357"><ele>340.0</ele><time>2026-04-21T06:17:53.051Z</time></trkpt><trkpt lat="44.6477217" lon="7.5063549"><ele>340.0</ele><time>2026-04-21T06:17:54.046Z</time></trkpt><trkpt lat="44.6477213" lon="7.506578"><ele>340.0</ele><time>2026-04-21T06:17:55.049Z</time></trkpt><trkpt lat="44.647723" lon="7.5067991"><ele>340.0</ele><time>2026-04-21T06:17:56.051Z</time></trkpt><trkpt lat="44.6477263" lon="7.507022"><ele>340.0</ele><time>2026-04-21T06:17:57.051Z</time></trkpt><trkpt lat="44.6477302" lon="7.5072413"><ele>340.0</ele><time>2026-04-21T06:17:58.059Z</time></trkpt><trkpt lat="44.6477341" lon="7.5074564"><ele>340.0</ele><time>2026-04-21T06:17:59.052Z</time></trkpt><trkpt lat="44.6477337" lon="7.5076694"><ele>340.0</ele><time>2026-04-21T06:18:00.058Z</time></trkpt><trkpt lat="44.6477351" lon="7.5078751"><ele>340.0</ele><time>2026-04-21T06:18:01.045Z</time></trkpt><trkpt lat="44.6477374" lon="7.508074"><ele>340.0</ele><time>2026-04-21T06:18:02.049Z</time></trkpt><trkpt lat="44.6477427" lon="7.5082565"><ele>339.6</ele><time>2026-04-21T06:18:03.063Z</time></trkpt><trkpt lat="44.6477647" lon="7.5084247"><ele>339.2</ele><time>2026-04-21T06:18:04.05Z</time></trkpt><trkpt lat="44.6478046" lon="7.50857"><ele>338.79999999999995</ele><time>2026-04-21T06:18:05.053Z</time></trkpt><trkpt lat="44.6478587" lon="7.5086974"><ele>338.4</ele><time>2026-04-21T06:18:06.051Z</time></trkpt><trkpt lat="44.6479253" lon="7.5088117"><ele>338.0</ele><time>2026-04-21T06:18:07.05Z</time></trkpt><trkpt lat="44.6480053" lon="7.5089098"><ele>337.59999999999997</ele><time>2026-04-21T06:18:08.046Z</time></trkpt><trkpt lat="44.6480897" lon="7.5089988"><ele>337.2</ele><time>2026-04-21T06:18:09.057Z</time></trkpt><trkpt lat="44.6481745" lon="7.5090842"><ele>336.8</ele><time>2026-04-21T06:18:10.054Z</time></trkpt><trkpt lat="44.6482603" lon="7.5091786"><ele>336.4</ele><time>2026-04-21T06:18:11.046Z</time></trkpt><trkpt lat="44.6483457" lon="7.5092861"><ele>336.0</ele><time>2026-04-21T06:18:12.048Z</time></trkpt><trkpt lat="44.6484268" lon="7.5094038"><ele>336.0</ele><time>2026-04-21T06:18:13.046Z</time></trkpt><trkpt lat="44.6484976" lon="7.5095206"><ele>336.0</ele><time>2026-04-21T06:18:14.051Z</time></trkpt><trkpt lat="44.6485497" lon="7.5096437"><ele>336.0</ele><time>2026-04-21T06:18:15.052Z</time></trkpt><trkpt lat="44.6485853" lon="7.509767"><ele>336.0</ele><time>2026-04-21T06:18:16.045Z</time></trkpt><trkpt lat="44.6486123" lon="7.5098916"><ele>336.0</ele><time>2026-04-21T06:18:17.051Z</time></trkpt><trkpt lat="44.6486387" lon="7.5100096"><ele>336.1666666666667</ele><time>2026-04-21T06:18:18.052Z</time></trkpt><trkpt lat="44.6486612" lon="7.5101255"><ele>336.3333333333333</ele><time>2026-04-21T06:18:19.047Z</time></trkpt><trkpt lat="44.6486766" lon="7.510237"><ele>336.5</ele><time>2026-04-21T06:18:20.045Z</time></trkpt><trkpt lat="44.6486843" lon="7.5103355"><ele>336.66666666666663</ele><time>2026-04-21T06:18:21.061Z</time></trkpt><trkpt lat="44.6487003" lon="7.5104591"><ele>336.8333333333333</ele><time>2026-04-21T06:18:23.052Z</time></trkpt><trkpt lat="44.6487003" lon="7.5105767"><ele>337.0</ele><time>2026-04-21T06:18:25.047Z</time></trkpt><trkpt lat="44.6486732" lon="7.5106733"><ele>337.0</ele><time>2026-04-21T06:18:27.047Z</time></trkpt><trkpt lat="44.6486229" lon="7.5107656"><ele>337.0</ele><time>2026-04-21T06:18:31.048Z</time></trkpt><trkpt lat="44.6485426" lon="7.5108589"><ele>337.0</ele><time>2026-04-21T06:18:33.05Z</time></trkpt><trkpt lat="44.6484793" lon="7.5109175"><ele>337.0</ele><time>2026-04-21T06:18:34.052Z</time></trkpt><trkpt lat="44.6484148" lon="7.5109898"><ele>337.0</ele><time>2026-04-21T06:18:35.044Z</time></trkpt><trkpt lat="44.6483637" lon="7.5110848"><ele>337.0</ele><time>2026-04-21T06:18:36.05Z</time></trkpt><trkpt lat="44.6483437" lon="7.5112081"><ele>337.0</ele><time>2026-04-21T06:18:37.057Z</time></trkpt><trkpt lat="44.6483446" lon="7.5113568"><ele>337.0</ele><time>2026-04-21T06:18:38.052Z</time></trkpt><trkpt lat="44.648365" lon="7.5115193"><ele>337.0</ele><time>2026-04-21T06:18:39.061Z</time></trkpt><trkpt lat="44.6483889" lon="7.5116787"><ele>337.0</ele><time>2026-04-21T06:18:40.053Z</time></trkpt><trkpt lat="44.6483947" lon="7.5118368"><ele>337.0</ele><time>2026-04-21T06:18:41.052Z</time></trkpt><trkpt lat="44.6483687" lon="7.5119894"><ele>337.0</ele><time>2026-04-21T06:18:42.059Z</time></trkpt><trkpt lat="44.64831" lon="7.5121406"><ele>337.0</ele><time>2026-04-21T06:18:43.045Z</time></trkpt><trkpt lat="44.6482447" lon="7.5122866"><ele>337.0</ele><time>2026-04-21T06:18:44.061Z</time></trkpt><trkpt lat="44.6481755" lon="7.5124453"><ele>337.0</ele><time>2026-04-21T06:18:45.058Z</time></trkpt><trkpt lat="44.6481053" lon="7.5126157"><ele>337.0</ele><time>2026-04-21T06:18:46.059Z</time></trkpt><trkpt lat="44.6480299" lon="7.5127886"><ele>337.0</ele><time>2026-04-21T06:18:47.049Z</time></trkpt><trkpt lat="44.6479597" lon="7.5129664"><ele>337.0</ele><time>2026-04-21T06:18:48.048Z</time></trkpt><trkpt lat="44.6478945" lon="7.5131587"><ele>336.66666666666663</ele><time>2026-04-21T06:18:49.065Z</time></trkpt><trkpt lat="44.6478428" lon="7.5133554"><ele>336.3333333333333</ele><time>2026-04-21T06:18:50.05Z</time></trkpt><trkpt lat="44.647806" lon="7.5135623"><ele>336.0</ele><time>2026-04-21T06:18:51.063Z</time></trkpt><trkpt lat="44.647778" lon="7.5137808"><ele>335.6666666666667</ele><time>2026-04-21T06:18:52.046Z</time></trkpt><trkpt lat="44.6477686" lon="7.5140073"><ele>335.33333333333337</ele><time>2026-04-21T06:18:53.048Z</time></trkpt><trkpt lat="44.6477665" lon="7.5142431"><ele>335.0</ele><time>2026-04-21T06:18:54.05Z</time></trkpt><trkpt lat="44.6477672" lon="7.5144788"><ele>335.33333333333337</ele><time>2026-04-21T06:18:55.055Z</time></trkpt><trkpt lat="44.647769" lon="7.5147131"><ele>335.6666666666667</ele><time>2026-04-21T06:18:56.062Z</time></trkpt><trkpt lat="44.6477696" lon="7.5149517"><ele>336.0</ele><time>2026-04-21T06:18:57.043Z</time></trkpt><trkpt lat="44.6477721" lon="7.515195"><ele>336.0</ele><time>2026-04-21T06:18:58.058Z</time></trkpt><trkpt lat="44.6477757" lon="7.5154369"><ele>336.0</ele><time>2026-04-21T06:18:59.057Z</time></trkpt><trkpt lat="44.6477769" lon="7.5156822"><ele>336.0</ele><time>2026-04-21T06:19:00.052Z</time></trkpt><trkpt lat="44.6477796" lon="7.515928"><ele>336.0</ele><time>2026-04-21T06:19:01.065Z</time></trkpt><trkpt lat="44.6477819" lon="7.5161726"><ele>336.0</ele><time>2026-04-21T06:19:02.057Z</time></trkpt><trkpt lat="44.6477844" lon="7.5164064"><ele>336.0</ele><time>2026-04-21T06:19:03.071Z</time></trkpt><trkpt lat="44.6477879" lon="7.5166135"><ele>336.25</ele><time>2026-04-21T06:19:04.054Z</time></trkpt><trkpt lat="44.647791" lon="7.5167919"><ele>336.5</ele><time>2026-04-21T06:19:05.053Z</time></trkpt><trkpt lat="44.6477915" lon="7.5169659"><ele>336.75</ele><time>2026-04-21T06:19:06.06Z</time></trkpt><trkpt lat="44.6477849" lon="7.5171512"><ele>337.0</ele><time>2026-04-21T06:19:07.059Z</time></trkpt><trkpt lat="44.6477788" lon="7.5173506"><ele>337.0</ele><time>2026-04-21T06:19:08.065Z</time></trkpt><trkpt lat="44.6477805" lon="7.5175616"><ele>337.0</ele><time>2026-04-21T06:19:09.053Z</time></trkpt><trkpt lat="44.6477862" lon="7.5177879"><ele>337.0</ele><time>2026-04-21T06:19:10.051Z</time></trkpt><trkpt lat="44.6477939" lon="7.5180248"><ele>337.0</ele><time>2026-04-21T06:19:11.054Z</time></trkpt><trkpt lat="44.6477968" lon="7.5182702"><ele>337.0</ele><time>2026-04-21T06:19:12.06Z</time></trkpt><trkpt lat="44.6477943" lon="7.5185247"><ele>337.0</ele><time>2026-04-21T06:19:13.063Z</time></trkpt><trkpt lat="44.6477934" lon="7.518784"><ele>336.66666666666663</ele><time>2026-04-21T06:19:14.062Z</time></trkpt><trkpt lat="44.6477947" lon="7.5190455"><ele>336.3333333333333</ele><time>2026-04-21T06:19:15.062Z</time></trkpt><trkpt lat="44.6477962" lon="7.5193106"><ele>336.0</ele><time>2026-04-21T06:19:16.06Z</time></trkpt><trkpt lat="44.6477972" lon="7.5195798"><ele>335.6666666666667</ele><time>2026-04-21T06:19:17.062Z</time></trkpt><trkpt lat="44.647797" lon="7.5198527"><ele>335.33333333333337</ele><time>2026-04-21T06:19:18.049Z</time></trkpt><trkpt lat="44.6477968" lon="7.5201301"><ele>335.0</ele><time>2026-04-21T06:19:19.058Z</time></trkpt><trkpt lat="44.6477952" lon="7.5204071"><ele>334.6666666666667</ele><time>2026-04-21T06:19:20.054Z</time></trkpt><trkpt lat="44.6477942" lon="7.5206868"><ele>334.3333333333333</ele><time>2026-04-21T06:19:21.057Z</time></trkpt><trkpt lat="44.6477959" lon="7.5209701"><ele>334.0</ele><time>2026-04-21T06:19:22.059Z</time></trkpt><trkpt lat="44.6477975" lon="7.5212562"><ele>334.0</ele><time>2026-04-21T06:19:23.064Z</time></trkpt><trkpt lat="44.6477982" lon="7.5215444"><ele>334.0</ele><time>2026-04-21T06:19:24.053Z</time></trkpt><trkpt lat="44.6477975" lon="7.521834"><ele>334.0</ele><time>2026-04-21T06:19:25.063Z</time></trkpt><trkpt lat="44.647798" lon="7.5221233"><ele>334.0</ele><time>2026-04-21T06:19:26.052Z</time></trkpt><trkpt lat="44.647798" lon="7.522412"><ele>334.0</ele><time>2026-04-21T06:19:27.049Z</time></trkpt><trkpt lat="44.6477979" lon="7.5227012"><ele>334.0</ele><time>2026-04-21T06:19:28.059Z</time></trkpt><trkpt lat="44.6477996" lon="7.5229892"><ele>334.66666666666663</ele><time>2026-04-21T06:19:29.062Z</time></trkpt><trkpt lat="44.6478026" lon="7.5232767"><ele>335.3333333333333</ele><time>2026-04-21T06:19:30.06Z</time></trkpt><trkpt lat="44.6478051" lon="7.5235656"><ele>336.0</ele><time>2026-04-21T06:19:31.064Z</time></trkpt><trkpt lat="44.6478073" lon="7.5238564"><ele>336.0</ele><time>2026-04-21T06:19:32.068Z</time></trkpt><trkpt lat="44.647809" lon="7.5241455"><ele>336.0</ele><time>2026-04-21T06:19:33.05Z</time></trkpt><trkpt lat="44.6478099" lon="7.5244357"><ele>336.0</ele><time>2026-04-21T06:19:34.063Z</time></trkpt><trkpt lat="44.6478099" lon="7.5247273"><ele>336.0</ele><time>2026-04-21T06:19:35.063Z</time></trkpt><trkpt lat="44.64781" lon="7.5250174"><ele>336.0</ele><time>2026-04-21T06:19:36.059Z</time></trkpt><trkpt lat="44.6478113" lon="7.5253068"><ele>336.0</ele><time>2026-04-21T06:19:37.051Z</time></trkpt><trkpt lat="44.6478139" lon="7.5255968"><ele>336.0</ele><time>2026-04-21T06:19:38.052Z</time></trkpt><trkpt lat="44.6478151" lon="7.5258902"><ele>336.0</ele><time>2026-04-21T06:19:39.041Z</time></trkpt><trkpt lat="44.6478157" lon="7.5261852"><ele>336.0</ele><time>2026-04-21T06:19:40.058Z</time></trkpt><trkpt lat="44.6478154" lon="7.5264784"><ele>335.6666666666667</ele><time>2026-04-21T06:19:41.054Z</time></trkpt><trkpt lat="44.647815" lon="7.5267717"><ele>335.33333333333337</ele><time>2026-04-21T06:19:42.063Z</time></trkpt><trkpt lat="44.6478162" lon="7.5270637"><ele>335.0</ele><time>2026-04-21T06:19:43.07Z</time></trkpt><trkpt lat="44.6478181" lon="7.5273582"><ele>335.0</ele><time>2026-04-21T06:19:44.047Z</time></trkpt><trkpt lat="44.6478196" lon="7.5276525"><ele>335.0</ele><time>2026-04-21T06:19:45.064Z</time></trkpt><trkpt lat="44.6478208" lon="7.5279468"><ele>335.0</ele><time>2026-04-21T06:19:46.047Z</time></trkpt><trkpt lat="44.6478218" lon="7.5282436"><ele>334.6666666666667</ele><time>2026-04-21T06:19:47.052Z</time></trkpt><trkpt lat="44.6478225" lon="7.5285405"><ele>334.3333333333333</ele><time>2026-04-21T06:19:48.052Z</time></trkpt><trkpt lat="44.647823" lon="7.5288368"><ele>334.0</ele><time>2026-04-21T06:19:49.056Z</time></trkpt><trkpt lat="44.6478244" lon="7.5291346"><ele>334.0</ele><time>2026-04-21T06:19:50.067Z</time></trkpt><trkpt lat="44.6478251" lon="7.5294322"><ele>334.0</ele><time>2026-04-21T06:19:51.053Z</time></trkpt><trkpt lat="44.6478255" lon="7.5297327"><ele>334.0</ele><time>2026-04-21T06:19:52.06Z</time></trkpt><trkpt lat="44.647824" lon="7.5300331"><ele>333.3333333333333</ele><time>2026-04-21T06:19:53.067Z</time></trkpt><trkpt lat="44.6478235" lon="7.5303335"><ele>332.6666666666667</ele><time>2026-04-21T06:19:54.052Z</time></trkpt><trkpt lat="44.6478239" lon="7.5306349"><ele>332.0</ele><time>2026-04-21T06:19:55.063Z</time></trkpt><trkpt lat="44.6478254" lon="7.5309373"><ele>332.33333333333337</ele><time>2026-04-21T06:19:56.054Z</time></trkpt><trkpt lat="44.6478288" lon="7.5312419"><ele>332.6666666666667</ele><time>2026-04-21T06:19:57.063Z</time></trkpt><trkpt lat="44.647832" lon="7.5315478"><ele>333.0</ele><time>2026-04-21T06:19:58.046Z</time></trkpt><trkpt lat="44.6478345" lon="7.5318532"><ele>333.0</ele><time>2026-04-21T06:19:59.046Z</time></trkpt><trkpt lat="44.6478343" lon="7.5321598"><ele>333.0</ele><time>2026-04-21T06:20:00.053Z</time></trkpt><trkpt lat="44.6478346" lon="7.5324657"><ele>333.0</ele><time>2026-04-21T06:20:01.052Z</time></trkpt><trkpt lat="44.6478353" lon="7.5327716"><ele>332.6666666666667</ele><time>2026-04-21T06:20:02.053Z</time></trkpt><trkpt lat="44.6478369" lon="7.5330784"><ele>332.33333333333337</ele><time>2026-04-21T06:20:03.067Z</time></trkpt><trkpt lat="44.6478391" lon="7.5333853"><ele>332.0</ele><time>2026-04-21T06:20:04.044Z</time></trkpt><trkpt lat="44.6478405" lon="7.5336944"><ele>332.0</ele><time>2026-04-21T06:20:05.069Z</time></trkpt><trkpt lat="44.6478414" lon="7.5340042"><ele>332.0</ele><time>2026-04-21T06:20:06.052Z</time></trkpt><trkpt lat="44.6478422" lon="7.5343142"><ele>332.0</ele><time>2026-04-21T06:20:07.051Z</time></trkpt><trkpt lat="44.6478446" lon="7.5346227"><ele>332.0</ele><time>2026-04-21T06:20:08.063Z</time></trkpt><trkpt lat="44.6478458" lon="7.5349323"><ele>332.0</ele><time>2026-04-21T06:20:09.064Z</time></trkpt><trkpt lat="44.6478461" lon="7.535241"><ele>332.0</ele><time>2026-04-21T06:20:10.048Z</time></trkpt><trkpt lat="44.647847" lon="7.5355481"><ele>332.6666666666667</ele><time>2026-04-21T06:20:11.068Z</time></trkpt><trkpt lat="44.6478491" lon="7.5358544"><ele>333.3333333333333</ele><time>2026-04-21T06:20:12.062Z</time></trkpt><trkpt lat="44.6478505" lon="7.536159"><ele>334.0</ele><time>2026-04-21T06:20:13.052Z</time></trkpt><trkpt lat="44.6478516" lon="7.5364649"><ele>334.0</ele><time>2026-04-21T06:20:14.053Z</time></trkpt><trkpt lat="44.6478526" lon="7.5367723"><ele>334.0</ele><time>2026-04-21T06:20:15.052Z</time></trkpt><trkpt lat="44.6478538" lon="7.5370787"><ele>334.0</ele><time>2026-04-21T06:20:16.067Z</time></trkpt><trkpt lat="44.6478556" lon="7.5373847"><ele>333.0</ele><time>2026-04-21T06:20:17.057Z</time></trkpt><trkpt lat="44.6478594" lon="7.5376904"><ele>332.0</ele><time>2026-04-21T06:20:18.054Z</time></trkpt><trkpt lat="44.6478624" lon="7.5379953"><ele>331.0</ele><time>2026-04-21T06:20:19.052Z</time></trkpt><trkpt lat="44.6478627" lon="7.5383005"><ele>331.0</ele><time>2026-04-21T06:20:20.062Z</time></trkpt><trkpt lat="44.6478615" lon="7.5386027"><ele>331.0</ele><time>2026-04-21T06:20:21.061Z</time></trkpt><trkpt lat="44.6478596" lon="7.5389035"><ele>331.0</ele><time>2026-04-21T06:20:22.055Z</time></trkpt><trkpt lat="44.6478598" lon="7.5392064"><ele>331.0</ele><time>2026-04-21T06:20:23.067Z</time></trkpt><trkpt lat="44.647863" lon="7.5395104"><ele>331.0</ele><time>2026-04-21T06:20:24.062Z</time></trkpt><trkpt lat="44.6478662" lon="7.5398136"><ele>331.0</ele><time>2026-04-21T06:20:25.068Z</time></trkpt><trkpt lat="44.6478675" lon="7.5401185"><ele>331.0</ele><time>2026-04-21T06:20:26.063Z</time></trkpt><trkpt lat="44.6478691" lon="7.540422"><ele>331.0</ele><time>2026-04-21T06:20:27.063Z</time></trkpt><trkpt lat="44.6478723" lon="7.5407245"><ele>331.0</ele><time>2026-04-21T06:20:28.067Z</time></trkpt><trkpt lat="44.6478745" lon="7.5410279"><ele>331.0</ele><time>2026-04-21T06:20:29.065Z</time></trkpt><trkpt lat="44.6478772" lon="7.5413326"><ele>331.0</ele><time>2026-04-21T06:20:30.065Z</time></trkpt><trkpt lat="44.6478791" lon="7.5416374"><ele>331.0</ele><time>2026-04-21T06:20:31.069Z</time></trkpt><trkpt lat="44.6478798" lon="7.541943"><ele>331.0</ele><time>2026-04-21T06:20:32.055Z</time></trkpt><trkpt lat="44.6478797" lon="7.5422484"><ele>331.0</ele><time>2026-04-21T06:20:33.075Z</time></trkpt><trkpt lat="44.6478803" lon="7.5425521"><ele>331.0</ele><time>2026-04-21T06:20:34.069Z</time></trkpt><trkpt lat="44.6478812" lon="7.5428576"><ele>330.66666666666663</ele><time>2026-04-21T06:20:35.054Z</time></trkpt><trkpt lat="44.6478811" lon="7.5431638"><ele>330.3333333333333</ele><time>2026-04-21T06:20:36.06Z</time></trkpt><trkpt lat="44.64788" lon="7.5434705"><ele>330.0</ele><time>2026-04-21T06:20:37.051Z</time></trkpt><trkpt lat="44.64788" lon="7.543777"><ele>330.0</ele><time>2026-04-21T06:20:38.052Z</time></trkpt><trkpt lat="44.647881" lon="7.5440835"><ele>330.0</ele><time>2026-04-21T06:20:39.052Z</time></trkpt><trkpt lat="44.6478828" lon="7.5443908"><ele>330.0</ele><time>2026-04-21T06:20:40.063Z</time></trkpt><trkpt lat="44.6478849" lon="7.5446988"><ele>329.6666666666667</ele><time>2026-04-21T06:20:41.066Z</time></trkpt><trkpt lat="44.6478868" lon="7.5450053"><ele>329.33333333333337</ele><time>2026-04-21T06:20:42.06Z</time></trkpt><trkpt lat="44.6478871" lon="7.5453108"><ele>329.0</ele><time>2026-04-21T06:20:43.073Z</time></trkpt><trkpt lat="44.6478866" lon="7.5456128"><ele>329.0</ele><time>2026-04-21T06:20:44.059Z</time></trkpt><trkpt lat="44.6478862" lon="7.545913"><ele>329.0</ele><time>2026-04-21T06:20:45.051Z</time></trkpt><trkpt lat="44.6478871" lon="7.5462124"><ele>329.0</ele><time>2026-04-21T06:20:46.042Z</time></trkpt><trkpt lat="44.6478886" lon="7.5465108"><ele>329.0</ele><time>2026-04-21T06:20:47.061Z</time></trkpt><trkpt lat="44.6478905" lon="7.5468059"><ele>329.0</ele><time>2026-04-21T06:20:48.047Z</time></trkpt><trkpt lat="44.6478919" lon="7.5470993"><ele>329.0</ele><time>2026-04-21T06:20:49.061Z</time></trkpt><trkpt lat="44.6478917" lon="7.5473941"><ele>329.0</ele><time>2026-04-21T06:20:50.061Z</time></trkpt><trkpt lat="44.6478931" lon="7.547688"><ele>329.0</ele><time>2026-04-21T06:20:51.06Z</time></trkpt><trkpt lat="44.6478939" lon="7.5479811"><ele>329.0</ele><time>2026-04-21T06:20:52.064Z</time></trkpt><trkpt lat="44.6478944" lon="7.5482759"><ele>329.0</ele><time>2026-04-21T06:20:53.053Z</time></trkpt><trkpt lat="44.6478958" lon="7.5485682"><ele>329.0</ele><time>2026-04-21T06:20:54.062Z</time></trkpt><trkpt lat="44.6478987" lon="7.5488597"><ele>329.0</ele><time>2026-04-21T06:20:55.049Z</time></trkpt><trkpt lat="44.6479015" lon="7.5491499"><ele>329.0</ele><time>2026-04-21T06:20:56.066Z</time></trkpt><trkpt lat="44.6479036" lon="7.5494413"><ele>329.0</ele><time>2026-04-21T06:20:57.047Z</time></trkpt><trkpt lat="44.647905" lon="7.5497356"><ele>329.0</ele><time>2026-04-21T06:20:58.054Z</time></trkpt><trkpt lat="44.6479062" lon="7.5500293"><ele>329.0</ele><time>2026-04-21T06:20:59.063Z</time></trkpt><trkpt lat="44.6479079" lon="7.5503232"><ele>329.0</ele><time>2026-04-21T06:21:00.051Z</time></trkpt><trkpt lat="44.6479122" lon="7.5506179"><ele>329.0</ele><time>2026-04-21T06:21:01.056Z</time></trkpt><trkpt lat="44.6479143" lon="7.5509131"><ele>328.6666666666667</ele><time>2026-04-21T06:21:02.067Z</time></trkpt><trkpt lat="44.6479158" lon="7.5512094"><ele>328.3333333333333</ele><time>2026-04-21T06:21:03.074Z</time></trkpt><trkpt lat="44.6479159" lon="7.5515056"><ele>328.0</ele><time>2026-04-21T06:21:04.062Z</time></trkpt><trkpt lat="44.6479157" lon="7.5518003"><ele>327.66666666666663</ele><time>2026-04-21T06:21:05.045Z</time></trkpt><trkpt lat="44.6479148" lon="7.5520981"><ele>327.3333333333333</ele><time>2026-04-21T06:21:06.052Z</time></trkpt><trkpt lat="44.6479155" lon="7.5523959"><ele>327.0</ele><time>2026-04-21T06:21:07.049Z</time></trkpt><trkpt lat="44.6479176" lon="7.5526941"><ele>326.3333333333333</ele><time>2026-04-21T06:21:08.067Z</time></trkpt><trkpt lat="44.64792" lon="7.5529939"><ele>325.66666666666663</ele><time>2026-04-21T06:21:09.056Z</time></trkpt><trkpt lat="44.6479212" lon="7.553295"><ele>325.0</ele><time>2026-04-21T06:21:10.052Z</time></trkpt><trkpt lat="44.6479233" lon="7.5535993"><ele>325.0</ele><time>2026-04-21T06:21:11.067Z</time></trkpt><trkpt lat="44.6479262" lon="7.5539026"><ele>325.0</ele><time>2026-04-21T06:21:12.053Z</time></trkpt><trkpt lat="44.6479292" lon="7.5542062"><ele>325.0</ele><time>2026-04-21T06:21:13.069Z</time></trkpt><trkpt lat="44.6479307" lon="7.5545121"><ele>325.0</ele><time>2026-04-21T06:21:14.066Z</time></trkpt><trkpt lat="44.647932" lon="7.5548181"><ele>325.0</ele><time>2026-04-21T06:21:15.042Z</time></trkpt><trkpt lat="44.6479337" lon="7.5551177"><ele>325.0</ele><time>2026-04-21T06:21:16.053Z</time></trkpt><trkpt lat="44.6479353" lon="7.5554117"><ele>325.0</ele><time>2026-04-21T06:21:17.054Z</time></trkpt><trkpt lat="44.6479368" lon="7.5557016"><ele>325.0</ele><time>2026-04-21T06:21:18.053Z</time></trkpt><trkpt lat="44.647938" lon="7.5559886"><ele>325.0</ele><time>2026-04-21T06:21:19.056Z</time></trkpt><trkpt lat="44.64794" lon="7.556268"><ele>325.3333333333333</ele><time>2026-04-21T06:21:20.064Z</time></trkpt><trkpt lat="44.6479413" lon="7.5565398"><ele>325.6666666666667</ele><time>2026-04-21T06:21:21.051Z</time></trkpt><trkpt lat="44.6479427" lon="7.5568066"><ele>326.0</ele><time>2026-04-21T06:21:22.064Z</time></trkpt><trkpt lat="44.6479442" lon="7.5570732"><ele>325.6666666666667</ele><time>2026-04-21T06:21:23.055Z</time></trkpt><trkpt lat="44.6479458" lon="7.5573405"><ele>325.3333333333333</ele><time>2026-04-21T06:21:24.064Z</time></trkpt><trkpt lat="44.6479478" lon="7.5576067"><ele>325.0</ele><time>2026-04-21T06:21:25.05Z</time></trkpt><trkpt lat="44.6479463" lon="7.557874"><ele>325.0</ele><time>2026-04-21T06:21:26.062Z</time></trkpt><trkpt lat="44.6479465" lon="7.5581425"><ele>325.0</ele><time>2026-04-21T06:21:27.053Z</time></trkpt><trkpt lat="44.6479472" lon="7.558411"><ele>325.0</ele><time>2026-04-21T06:21:28.054Z</time></trkpt><trkpt lat="44.6479493" lon="7.5586809"><ele>325.0</ele><time>2026-04-21T06:21:29.054Z</time></trkpt><trkpt lat="44.647951" lon="7.5589537"><ele>325.0</ele><time>2026-04-21T06:21:30.063Z</time></trkpt><trkpt lat="44.6479524" lon="7.559227"><ele>325.0</ele><time>2026-04-21T06:21:31.051Z</time></trkpt><trkpt lat="44.6479542" lon="7.5595049"><ele>325.3333333333333</ele><time>2026-04-21T06:21:32.063Z</time></trkpt><trkpt lat="44.6479557" lon="7.5597824"><ele>325.6666666666667</ele><time>2026-04-21T06:21:33.052Z</time></trkpt><trkpt lat="44.6479576" lon="7.5600622"><ele>326.0</ele><time>2026-04-21T06:21:34.053Z</time></trkpt><trkpt lat="44.6479599" lon="7.5603431"><ele>325.6666666666667</ele><time>2026-04-21T06:21:35.061Z</time></trkpt><trkpt lat="44.6479618" lon="7.5606273"><ele>325.3333333333333</ele><time>2026-04-21T06:21:36.053Z</time></trkpt><trkpt lat="44.6479611" lon="7.5609109"><ele>325.0</ele><time>2026-04-21T06:21:37.042Z</time></trkpt><trkpt lat="44.6479607" lon="7.5611943"><ele>324.66666666666663</ele><time>2026-04-21T06:21:38.053Z</time></trkpt><trkpt lat="44.6479621" lon="7.5614795"><ele>324.3333333333333</ele><time>2026-04-21T06:21:39.067Z</time></trkpt><trkpt lat="44.6479647" lon="7.5617668"><ele>324.0</ele><time>2026-04-21T06:21:40.067Z</time></trkpt><trkpt lat="44.6479665" lon="7.5620541"><ele>324.0</ele><time>2026-04-21T06:21:41.068Z</time></trkpt><trkpt lat="44.6479674" lon="7.5623395"><ele>324.0</ele><time>2026-04-21T06:21:42.049Z</time></trkpt><trkpt lat="44.6479663" lon="7.5626241"><ele>324.0</ele><time>2026-04-21T06:21:43.067Z</time></trkpt><trkpt lat="44.6479656" lon="7.5629089"><ele>323.6666666666667</ele><time>2026-04-21T06:21:44.051Z</time></trkpt><trkpt lat="44.6479665" lon="7.5631947"><ele>323.33333333333337</ele><time>2026-04-21T06:21:45.054Z</time></trkpt><trkpt lat="44.647969" lon="7.5634824"><ele>323.0</ele><time>2026-04-21T06:21:46.053Z</time></trkpt><trkpt lat="44.6479715" lon="7.5637712"><ele>323.0</ele><time>2026-04-21T06:21:47.059Z</time></trkpt><trkpt lat="44.6479735" lon="7.5640605"><ele>323.0</ele><time>2026-04-21T06:21:48.063Z</time></trkpt><trkpt lat="44.6479745" lon="7.5643537"><ele>323.0</ele><time>2026-04-21T06:21:49.054Z</time></trkpt><trkpt lat="44.6479751" lon="7.5646473"><ele>323.33333333333337</ele><time>2026-04-21T06:21:50.069Z</time></trkpt><trkpt lat="44.6479747" lon="7.5649444"><ele>323.6666666666667</ele><time>2026-04-21T06:21:51.065Z</time></trkpt><trkpt lat="44.6479751" lon="7.5652424"><ele>324.0</ele><time>2026-04-21T06:21:52.057Z</time></trkpt><trkpt lat="44.6479755" lon="7.5655412"><ele>323.6666666666667</ele><time>2026-04-21T06:21:53.069Z</time></trkpt><trkpt lat="44.6479761" lon="7.5658433"><ele>323.33333333333337</ele><time>2026-04-21T06:21:54.057Z</time></trkpt><trkpt lat="44.6479774" lon="7.566147"><ele>323.0</ele><time>2026-04-21T06:21:55.067Z</time></trkpt><trkpt lat="44.6479783" lon="7.5664551"><ele>323.0</ele><time>2026-04-21T06:21:56.054Z</time></trkpt><trkpt lat="44.6479804" lon="7.5667638"><ele>323.0</ele><time>2026-04-21T06:21:57.065Z</time></trkpt><trkpt lat="44.6479824" lon="7.5670735"><ele>323.0</ele><time>2026-04-21T06:21:58.068Z</time></trkpt><trkpt lat="44.6479836" lon="7.5673865"><ele>323.0</ele><time>2026-04-21T06:21:59.062Z</time></trkpt><trkpt lat="44.647985" lon="7.5677008"><ele>323.0</ele><time>2026-04-21T06:22:00.064Z</time></trkpt><trkpt lat="44.6479863" lon="7.5680176"><ele>323.0</ele><time>2026-04-21T06:22:01.054Z</time></trkpt><trkpt lat="44.6479884" lon="7.5683357"><ele>323.0</ele><time>2026-04-21T06:22:02.05Z</time></trkpt><trkpt lat="44.6479906" lon="7.568659"><ele>323.0</ele><time>2026-04-21T06:22:03.064Z</time></trkpt><trkpt lat="44.6479932" lon="7.5689793"><ele>323.5</ele><time>2026-04-21T06:22:04.057Z</time></trkpt><trkpt lat="44.6479938" lon="7.5693002"><ele>324.0</ele><time>2026-04-21T06:22:05.063Z</time></trkpt><trkpt lat="44.6479946" lon="7.5696216"><ele>324.0</ele><time>2026-04-21T06:22:06.059Z</time></trkpt><trkpt lat="44.6479953" lon="7.5699442"><ele>324.0</ele><time>2026-04-21T06:22:07.059Z</time></trkpt><trkpt lat="44.647996" lon="7.5702665"><ele>323.5</ele><time>2026-04-21T06:22:08.062Z</time></trkpt><trkpt lat="44.6479961" lon="7.5705867"><ele>323.0</ele><time>2026-04-21T06:22:09.053Z</time></trkpt><trkpt lat="44.6479976" lon="7.5709057"><ele>322.6666666666667</ele><time>2026-04-21T06:22:10.067Z</time></trkpt><trkpt lat="44.6479991" lon="7.5712216"><ele>322.3333333333333</ele><time>2026-04-21T06:22:11.062Z</time></trkpt><trkpt lat="44.6480002" lon="7.5715242"><ele>322.0</ele><time>2026-04-21T06:22:12.063Z</time></trkpt><trkpt lat="44.6480031" lon="7.5718102"><ele>322.0</ele><time>2026-04-21T06:22:13.067Z</time></trkpt><trkpt lat="44.6480079" lon="7.5720796"><ele>322.0</ele><time>2026-04-21T06:22:14.061Z</time></trkpt><trkpt lat="44.6480115" lon="7.5723343"><ele>322.0</ele><time>2026-04-21T06:22:15.068Z</time></trkpt><trkpt lat="44.6480133" lon="7.5725765"><ele>322.0</ele><time>2026-04-21T06:22:16.054Z</time></trkpt><trkpt lat="44.6480114" lon="7.5728077"><ele>322.0</ele><time>2026-04-21T06:22:17.053Z</time></trkpt><trkpt lat="44.6480104" lon="7.5730236"><ele>322.0</ele><time>2026-04-21T06:22:18.052Z</time></trkpt><trkpt lat="44.6480091" lon="7.5732116"><ele>322.0</ele><time>2026-04-21T06:22:19.052Z</time></trkpt><trkpt lat="44.648007" lon="7.5733625"><ele>322.0</ele><time>2026-04-21T06:22:20.05Z</time></trkpt><trkpt lat="44.6480122" lon="7.5734648"><ele>322.0</ele><time>2026-04-21T06:22:21.054Z</time></trkpt><trkpt lat="44.6480048" lon="7.5736014"><ele>322.0</ele><time>2026-04-21T06:22:23.054Z</time></trkpt><trkpt lat="44.6480028" lon="7.5737071"><ele>322.0</ele><time>2026-04-21T06:22:25.044Z</time></trkpt><trkpt lat="44.6480068" lon="7.5738551"><ele>321.8</ele><time>2026-04-21T06:22:27.047Z</time></trkpt><trkpt lat="44.6480111" lon="7.5740027"><ele>321.6</ele><time>2026-04-21T06:22:29.045Z</time></trkpt><trkpt lat="44.6480071" lon="7.5741656"><ele>321.40000000000003</ele><time>2026-04-21T06:22:31.046Z</time></trkpt><trkpt lat="44.6480038" lon="7.5742561"><ele>321.20000000000005</ele><time>2026-04-21T06:22:32.044Z</time></trkpt><trkpt lat="44.6479838" lon="7.5744171"><ele>321.0</ele><time>2026-04-21T06:22:34.045Z</time></trkpt><trkpt lat="44.6479651" lon="7.5745017"><ele>321.4</ele><time>2026-04-21T06:22:35.041Z</time></trkpt><trkpt lat="44.6479433" lon="7.5746009"><ele>321.8</ele><time>2026-04-21T06:22:36.042Z</time></trkpt><trkpt lat="44.6479202" lon="7.5747172"><ele>322.2</ele><time>2026-04-21T06:22:37.044Z</time></trkpt><trkpt lat="44.6479079" lon="7.5748503"><ele>322.59999999999997</ele><time>2026-04-21T06:22:38.043Z</time></trkpt><trkpt lat="44.6479165" lon="7.5749917"><ele>323.0</ele><time>2026-04-21T06:22:39.049Z</time></trkpt><trkpt lat="44.6479498" lon="7.5751323"><ele>323.0</ele><time>2026-04-21T06:22:40.046Z</time></trkpt><trkpt lat="44.6479862" lon="7.5752684"><ele>323.0</ele><time>2026-04-21T06:22:41.048Z</time></trkpt><trkpt lat="44.6480073" lon="7.5754047"><ele>323.0</ele><time>2026-04-21T06:22:42.05Z</time></trkpt><trkpt lat="44.6480149" lon="7.575545"><ele>323.0</ele><time>2026-04-21T06:22:43.049Z</time></trkpt><trkpt lat="44.6480204" lon="7.5756961"><ele>323.0</ele><time>2026-04-21T06:22:44.05Z</time></trkpt><trkpt lat="44.6480242" lon="7.5758552"><ele>322.75</ele><time>2026-04-21T06:22:45.042Z</time></trkpt><trkpt lat="44.648025" lon="7.5760192"><ele>322.5</ele><time>2026-04-21T06:22:46.044Z</time></trkpt><trkpt lat="44.6480221" lon="7.57619"><ele>322.25</ele><time>2026-04-21T06:22:47.046Z</time></trkpt><trkpt lat="44.6480188" lon="7.5763667"><ele>322.0</ele><time>2026-04-21T06:22:48.048Z</time></trkpt><trkpt lat="44.6480213" lon="7.5765498"><ele>322.0</ele><time>2026-04-21T06:22:49.051Z</time></trkpt><trkpt lat="44.648021" lon="7.5767308"><ele>322.0</ele><time>2026-04-21T06:22:50.044Z</time></trkpt><trkpt lat="44.6480192" lon="7.5769153"><ele>322.0</ele><time>2026-04-21T06:22:51.043Z</time></trkpt><trkpt lat="44.6480267" lon="7.5770994"><ele>322.0</ele><time>2026-04-21T06:22:52.05Z</time></trkpt><trkpt lat="44.6480318" lon="7.5772771"><ele>321.75</ele><time>2026-04-21T06:22:53.055Z</time></trkpt><trkpt lat="44.6480261" lon="7.5774472"><ele>321.5</ele><time>2026-04-21T06:22:54.048Z</time></trkpt><trkpt lat="44.6480282" lon="7.57761"><ele>321.25</ele><time>2026-04-21T06:22:55.042Z</time></trkpt><trkpt lat="44.6480321" lon="7.5777659"><ele>321.0</ele><time>2026-04-21T06:22:56.041Z</time></trkpt><trkpt lat="44.6480293" lon="7.5779194"><ele>321.0</ele><time>2026-04-21T06:22:57.045Z</time></trkpt><trkpt lat="44.6480308" lon="7.5780768"><ele>321.0</ele><time>2026-04-21T06:22:58.052Z</time></trkpt><trkpt lat="44.6480373" lon="7.5782389"><ele>321.0</ele><time>2026-04-21T06:22:59.044Z</time></trkpt><trkpt lat="44.6480397" lon="7.5783999"><ele>321.0</ele><time>2026-04-21T06:23:00.048Z</time></trkpt><trkpt lat="44.6480415" lon="7.5785586"><ele>320.75</ele><time>2026-04-21T06:23:01.045Z</time></trkpt><trkpt lat="44.6480469" lon="7.5787206"><ele>320.5</ele><time>2026-04-21T06:23:02.05Z</time></trkpt><trkpt lat="44.6480509" lon="7.5788836"><ele>320.25</ele><time>2026-04-21T06:23:03.044Z</time></trkpt><trkpt lat="44.6480523" lon="7.5790542"><ele>320.0</ele><time>2026-04-21T06:23:04.047Z</time></trkpt><trkpt lat="44.6480487" lon="7.5792314"><ele>320.0</ele><time>2026-04-21T06:23:05.05Z</time></trkpt><trkpt lat="44.6480447" lon="7.5794151"><ele>320.0</ele><time>2026-04-21T06:23:06.048Z</time></trkpt><trkpt lat="44.6480446" lon="7.5796008"><ele>320.0</ele><time>2026-04-21T06:23:07.05Z</time></trkpt><trkpt lat="44.6480437" lon="7.5797915"><ele>320.0</ele><time>2026-04-21T06:23:08.041Z</time></trkpt><trkpt lat="44.6480457" lon="7.5799889"><ele>320.0</ele><time>2026-04-21T06:23:09.05Z</time></trkpt><trkpt lat="44.6480527" lon="7.580195"><ele>320.0</ele><time>2026-04-21T06:23:10.055Z</time></trkpt><trkpt lat="44.6480583" lon="7.5804134"><ele>320.0</ele><time>2026-04-21T06:23:11.05Z</time></trkpt><trkpt lat="44.6480626" lon="7.5806459"><ele>320.0</ele><time>2026-04-21T06:23:12.05Z</time></trkpt><trkpt lat="44.6480668" lon="7.5808901"><ele>320.0</ele><time>2026-04-21T06:23:13.056Z</time></trkpt><trkpt lat="44.6480708" lon="7.581146"><ele>320.0</ele><time>2026-04-21T06:23:14.048Z</time></trkpt><trkpt lat="44.6480746" lon="7.5814093"><ele>320.0</ele><time>2026-04-21T06:23:15.049Z</time></trkpt><trkpt lat="44.6480764" lon="7.5816838"><ele>320.0</ele><time>2026-04-21T06:23:16.046Z</time></trkpt><trkpt lat="44.6480747" lon="7.5819645"><ele>320.0</ele><time>2026-04-21T06:23:17.054Z</time></trkpt><trkpt lat="44.6480727" lon="7.5822527"><ele>320.0</ele><time>2026-04-21T06:23:18.046Z</time></trkpt><trkpt lat="44.6480698" lon="7.5825497"><ele>320.0</ele><time>2026-04-21T06:23:19.051Z</time></trkpt><trkpt lat="44.648072" lon="7.5828526"><ele>320.0</ele><time>2026-04-21T06:23:20.051Z</time></trkpt><trkpt lat="44.6480762" lon="7.5831665"><ele>320.0</ele><time>2026-04-21T06:23:21.048Z</time></trkpt><trkpt lat="44.6480782" lon="7.5834862"><ele>320.0</ele><time>2026-04-21T06:23:22.053Z</time></trkpt><trkpt lat="44.6480772" lon="7.583796"><ele>320.0</ele><time>2026-04-21T06:23:23.057Z</time></trkpt><trkpt lat="44.6480732" lon="7.5840901"><ele>320.33333333333337</ele><time>2026-04-21T06:23:24.051Z</time></trkpt><trkpt lat="44.6480721" lon="7.5843615"><ele>320.6666666666667</ele><time>2026-04-21T06:23:25.054Z</time></trkpt><trkpt lat="44.6480711" lon="7.5846195"><ele>321.0</ele><time>2026-04-21T06:23:26.055Z</time></trkpt><trkpt lat="44.6480713" lon="7.5848656"><ele>321.0</ele><time>2026-04-21T06:23:27.054Z</time></trkpt><trkpt lat="44.6480663" lon="7.5851093"><ele>321.0</ele><time>2026-04-21T06:23:28.051Z</time></trkpt><trkpt lat="44.6480638" lon="7.5853505"><ele>321.0</ele><time>2026-04-21T06:23:29.057Z</time></trkpt><trkpt lat="44.6480624" lon="7.585595"><ele>321.0</ele><time>2026-04-21T06:23:30.058Z</time></trkpt><trkpt lat="44.6480638" lon="7.5858407"><ele>321.0</ele><time>2026-04-21T06:23:31.055Z</time></trkpt><trkpt lat="44.6480626" lon="7.5860873"><ele>321.0</ele><time>2026-04-21T06:23:32.053Z</time></trkpt><trkpt lat="44.6480603" lon="7.5863423"><ele>321.3333333333333</ele><time>2026-04-21T06:23:33.052Z</time></trkpt><trkpt lat="44.6480617" lon="7.5865994"><ele>321.66666666666663</ele><time>2026-04-21T06:23:34.053Z</time></trkpt><trkpt lat="44.6480629" lon="7.5868603"><ele>322.0</ele><time>2026-04-21T06:23:35.051Z</time></trkpt><trkpt lat="44.6480673" lon="7.5871205"><ele>321.3333333333333</ele><time>2026-04-21T06:23:36.055Z</time></trkpt><trkpt lat="44.6480688" lon="7.5873873"><ele>320.6666666666667</ele><time>2026-04-21T06:23:37.05Z</time></trkpt><trkpt lat="44.6480686" lon="7.5876545"><ele>320.0</ele><time>2026-04-21T06:23:38.053Z</time></trkpt><trkpt lat="44.6480678" lon="7.587919"><ele>320.0</ele><time>2026-04-21T06:23:39.06Z</time></trkpt><trkpt lat="44.6480686" lon="7.5881756"><ele>320.0</ele><time>2026-04-21T06:23:40.058Z</time></trkpt><trkpt lat="44.6480696" lon="7.5884296"><ele>320.0</ele><time>2026-04-21T06:23:41.053Z</time></trkpt><trkpt lat="44.6480692" lon="7.5886866"><ele>320.0</ele><time>2026-04-21T06:23:42.054Z</time></trkpt><trkpt lat="44.6480682" lon="7.5889466"><ele>320.0</ele><time>2026-04-21T06:23:43.048Z</time></trkpt><trkpt lat="44.6480673" lon="7.589207"><ele>320.0</ele><time>2026-04-21T06:23:44.055Z</time></trkpt><trkpt lat="44.6480693" lon="7.5894691"><ele>320.33333333333337</ele><time>2026-04-21T06:23:45.057Z</time></trkpt><trkpt lat="44.648072" lon="7.5897353"><ele>320.6666666666667</ele><time>2026-04-21T06:23:46.046Z</time></trkpt><trkpt lat="44.6480746" lon="7.5900009"><ele>321.0</ele><time>2026-04-21T06:23:47.05Z</time></trkpt><trkpt lat="44.648077" lon="7.590266"><ele>320.6666666666667</ele><time>2026-04-21T06:23:48.048Z</time></trkpt><trkpt lat="44.6480792" lon="7.5905331"><ele>320.33333333333337</ele><time>2026-04-21T06:23:49.047Z</time></trkpt><trkpt lat="44.6480831" lon="7.5908037"><ele>320.0</ele><time>2026-04-21T06:23:50.046Z</time></trkpt><trkpt lat="44.6480851" lon="7.5910767"><ele>319.6666666666667</ele><time>2026-04-21T06:23:51.048Z</time></trkpt><trkpt lat="44.6480872" lon="7.591351"><ele>319.3333333333333</ele><time>2026-04-21T06:23:52.048Z</time></trkpt><trkpt lat="44.6480881" lon="7.591628"><ele>319.0</ele><time>2026-04-21T06:23:53.056Z</time></trkpt><trkpt lat="44.6480868" lon="7.5919056"><ele>318.66666666666663</ele><time>2026-04-21T06:23:54.054Z</time></trkpt><trkpt lat="44.6480851" lon="7.5921862"><ele>318.3333333333333</ele><time>2026-04-21T06:23:55.059Z</time></trkpt><trkpt lat="44.6480842" lon="7.5924684"><ele>318.0</ele><time>2026-04-21T06:23:56.056Z</time></trkpt><trkpt lat="44.6480864" lon="7.592749"><ele>318.3333333333333</ele><time>2026-04-21T06:23:57.051Z</time></trkpt><trkpt lat="44.6480902" lon="7.5930312"><ele>318.66666666666663</ele><time>2026-04-21T06:23:58.053Z</time></trkpt><trkpt lat="44.6480928" lon="7.5933144"><ele>319.0</ele><time>2026-04-21T06:23:59.042Z</time></trkpt><trkpt lat="44.6480948" lon="7.5935976"><ele>319.0</ele><time>2026-04-21T06:24:00.05Z</time></trkpt><trkpt lat="44.6480965" lon="7.593879"><ele>319.0</ele><time>2026-04-21T06:24:01.051Z</time></trkpt><trkpt lat="44.6480972" lon="7.5941598"><ele>319.0</ele><time>2026-04-21T06:24:02.054Z</time></trkpt><trkpt lat="44.6480977" lon="7.5944418"><ele>318.66666666666663</ele><time>2026-04-21T06:24:03.058Z</time></trkpt><trkpt lat="44.648097" lon="7.5947256"><ele>318.3333333333333</ele><time>2026-04-21T06:24:04.05Z</time></trkpt><trkpt lat="44.6480974" lon="7.5950108"><ele>318.0</ele><time>2026-04-21T06:24:05.048Z</time></trkpt><trkpt lat="44.6480995" lon="7.5952958"><ele>318.3333333333333</ele><time>2026-04-21T06:24:06.056Z</time></trkpt><trkpt lat="44.6481028" lon="7.5955819"><ele>318.66666666666663</ele><time>2026-04-21T06:24:07.042Z</time></trkpt><trkpt lat="44.6481042" lon="7.5958686"><ele>319.0</ele><time>2026-04-21T06:24:08.053Z</time></trkpt><trkpt lat="44.6481032" lon="7.5961575"><ele>319.3333333333333</ele><time>2026-04-21T06:24:09.046Z</time></trkpt><trkpt lat="44.6481039" lon="7.5964454"><ele>319.6666666666667</ele><time>2026-04-21T06:24:10.053Z</time></trkpt><trkpt lat="44.6481055" lon="7.5967325"><ele>320.0</ele><time>2026-04-21T06:24:11.048Z</time></trkpt><trkpt lat="44.6481073" lon="7.5970198"><ele>320.0</ele><time>2026-04-21T06:24:12.045Z</time></trkpt><trkpt lat="44.6481072" lon="7.5973057"><ele>320.0</ele><time>2026-04-21T06:24:13.056Z</time></trkpt><trkpt lat="44.6481077" lon="7.5975836"><ele>320.0</ele><time>2026-04-21T06:24:14.059Z</time></trkpt><trkpt lat="44.6481103" lon="7.5978553"><ele>319.6666666666667</ele><time>2026-04-21T06:24:15.051Z</time></trkpt><trkpt lat="44.6481123" lon="7.5981184"><ele>319.3333333333333</ele><time>2026-04-21T06:24:16.053Z</time></trkpt><trkpt lat="44.6481138" lon="7.598372"><ele>319.0</ele><time>2026-04-21T06:24:17.053Z</time></trkpt><trkpt lat="44.648114" lon="7.5986223"><ele>319.3333333333333</ele><time>2026-04-21T06:24:18.048Z</time></trkpt><trkpt lat="44.6481145" lon="7.5988736"><ele>319.6666666666667</ele><time>2026-04-21T06:24:19.051Z</time></trkpt><trkpt lat="44.648115" lon="7.5991244"><ele>320.0</ele><time>2026-04-21T06:24:20.054Z</time></trkpt><trkpt lat="44.6481149" lon="7.5993774"><ele>319.0</ele><time>2026-04-21T06:24:21.048Z</time></trkpt><trkpt lat="44.6481144" lon="7.5996341"><ele>318.0</ele><time>2026-04-21T06:24:22.053Z</time></trkpt><trkpt lat="44.648115" lon="7.5998957"><ele>317.0</ele><time>2026-04-21T06:24:23.045Z</time></trkpt><trkpt lat="44.6481161" lon="7.6001617"><ele>317.0</ele><time>2026-04-21T06:24:24.052Z</time></trkpt><trkpt lat="44.6481156" lon="7.6004342"><ele>317.0</ele><time>2026-04-21T06:24:25.051Z</time></trkpt><trkpt lat="44.6481165" lon="7.6007099"><ele>317.0</ele><time>2026-04-21T06:24:26.048Z</time></trkpt><trkpt lat="44.6481165" lon="7.6009892"><ele>317.0</ele><time>2026-04-21T06:24:27.058Z</time></trkpt><trkpt lat="44.6481157" lon="7.6012712"><ele>317.0</ele><time>2026-04-21T06:24:28.052Z</time></trkpt><trkpt lat="44.6481131" lon="7.6015557"><ele>317.0</ele><time>2026-04-21T06:24:29.049Z</time></trkpt><trkpt lat="44.6481128" lon="7.6018405"><ele>317.0</ele><time>2026-04-21T06:24:30.053Z</time></trkpt><trkpt lat="44.6481146" lon="7.6021238"><ele>317.0</ele><time>2026-04-21T06:24:31.05Z</time></trkpt><trkpt lat="44.6481176" lon="7.6024046"><ele>317.0</ele><time>2026-04-21T06:24:32.052Z</time></trkpt><trkpt lat="44.6481186" lon="7.6026863"><ele>317.0</ele><time>2026-04-21T06:24:33.05Z</time></trkpt><trkpt lat="44.6481187" lon="7.6029665"><ele>317.0</ele><time>2026-04-21T06:24:34.049Z</time></trkpt><trkpt lat="44.6481182" lon="7.603247"><ele>317.0</ele><time>2026-04-21T06:24:35.055Z</time></trkpt><trkpt lat="44.648118" lon="7.6035246"><ele>316.6666666666667</ele><time>2026-04-21T06:24:36.051Z</time></trkpt><trkpt lat="44.6481195" lon="7.6038022"><ele>316.3333333333333</ele><time>2026-04-21T06:24:37.053Z</time></trkpt><trkpt lat="44.6481225" lon="7.604081"><ele>316.0</ele><time>2026-04-21T06:24:38.053Z</time></trkpt><trkpt lat="44.648126" lon="7.6043635"><ele>316.0</ele><time>2026-04-21T06:24:39.048Z</time></trkpt><trkpt lat="44.6481283" lon="7.6046472"><ele>316.0</ele><time>2026-04-21T06:24:40.052Z</time></trkpt><trkpt lat="44.6481288" lon="7.6049274"><ele>316.0</ele><time>2026-04-21T06:24:41.052Z</time></trkpt><trkpt lat="44.6481295" lon="7.6052064"><ele>316.3333333333333</ele><time>2026-04-21T06:24:42.049Z</time></trkpt><trkpt lat="44.648131" lon="7.6054834"><ele>316.6666666666667</ele><time>2026-04-21T06:24:43.066Z</time></trkpt><trkpt lat="44.6481332" lon="7.6057602"><ele>317.0</ele><time>2026-04-21T06:24:44.064Z</time></trkpt><trkpt lat="44.6481348" lon="7.606038"><ele>316.6666666666667</ele><time>2026-04-21T06:24:45.064Z</time></trkpt><trkpt lat="44.6481349" lon="7.6063154"><ele>316.3333333333333</ele><time>2026-04-21T06:24:46.069Z</time></trkpt><trkpt lat="44.6481335" lon="7.6065963"><ele>316.0</ele><time>2026-04-21T06:24:47.064Z</time></trkpt><trkpt lat="44.6481341" lon="7.6068781"><ele>316.0</ele><time>2026-04-21T06:24:48.065Z</time></trkpt><trkpt lat="44.6481366" lon="7.6071644"><ele>316.0</ele><time>2026-04-21T06:24:49.062Z</time></trkpt><trkpt lat="44.6481409" lon="7.6074472"><ele>316.0</ele><time>2026-04-21T06:24:50.062Z</time></trkpt><trkpt lat="44.6481415" lon="7.6077245"><ele>316.0</ele><time>2026-04-21T06:24:51.062Z</time></trkpt><trkpt lat="44.6481378" lon="7.6079906"><ele>316.0</ele><time>2026-04-21T06:24:52.069Z</time></trkpt><trkpt lat="44.6481357" lon="7.6082457"><ele>316.0</ele><time>2026-04-21T06:24:53.07Z</time></trkpt><trkpt lat="44.6481389" lon="7.6084988"><ele>315.66666666666663</ele><time>2026-04-21T06:24:54.049Z</time></trkpt><trkpt lat="44.6481434" lon="7.6087498"><ele>315.3333333333333</ele><time>2026-04-21T06:24:55.068Z</time></trkpt><trkpt lat="44.6481462" lon="7.6089948"><ele>315.0</ele><time>2026-04-21T06:24:56.069Z</time></trkpt><trkpt lat="44.6481455" lon="7.6092338"><ele>315.0</ele><time>2026-04-21T06:24:57.067Z</time></trkpt><trkpt lat="44.648146" lon="7.6094698"><ele>315.0</ele><time>2026-04-21T06:24:58.072Z</time></trkpt><trkpt lat="44.6481475" lon="7.6097005"><ele>315.0</ele><time>2026-04-21T06:24:59.049Z</time></trkpt><trkpt lat="44.648146" lon="7.6099273"><ele>315.0</ele><time>2026-04-21T06:25:00.067Z</time></trkpt><trkpt lat="44.6481457" lon="7.6101509"><ele>315.0</ele><time>2026-04-21T06:25:01.07Z</time></trkpt><trkpt lat="44.6481477" lon="7.6103744"><ele>315.0</ele><time>2026-04-21T06:25:02.061Z</time></trkpt><trkpt lat="44.6481473" lon="7.610601"><ele>315.6666666666667</ele><time>2026-04-21T06:25:03.06Z</time></trkpt><trkpt lat="44.6481468" lon="7.6108325"><ele>316.33333333333337</ele><time>2026-04-21T06:25:04.055Z</time></trkpt><trkpt lat="44.6481504" lon="7.6110655"><ele>317.0</ele><time>2026-04-21T06:25:05.058Z</time></trkpt><trkpt lat="44.6481513" lon="7.611297"><ele>317.0</ele><time>2026-04-21T06:25:06.056Z</time></trkpt><trkpt lat="44.6481535" lon="7.6115247"><ele>317.0</ele><time>2026-04-21T06:25:07.066Z</time></trkpt><trkpt lat="44.6481569" lon="7.6117538"><ele>317.0</ele><time>2026-04-21T06:25:08.062Z</time></trkpt><trkpt lat="44.648161" lon="7.6119854"><ele>317.0</ele><time>2026-04-21T06:25:09.067Z</time></trkpt><trkpt lat="44.6481636" lon="7.6122159"><ele>317.0</ele><time>2026-04-21T06:25:10.063Z</time></trkpt><trkpt lat="44.6481644" lon="7.6124453"><ele>317.0</ele><time>2026-04-21T06:25:11.064Z</time></trkpt><trkpt lat="44.648165" lon="7.6126749"><ele>317.33333333333337</ele><time>2026-04-21T06:25:12.071Z</time></trkpt><trkpt lat="44.6481669" lon="7.6129074"><ele>317.6666666666667</ele><time>2026-04-21T06:25:13.066Z</time></trkpt><trkpt lat="44.6481685" lon="7.6131375"><ele>318.0</ele><time>2026-04-21T06:25:14.058Z</time></trkpt><trkpt lat="44.6481686" lon="7.6133619"><ele>318.0</ele><time>2026-04-21T06:25:15.062Z</time></trkpt><trkpt lat="44.64817" lon="7.6135728"><ele>318.0</ele><time>2026-04-21T06:25:16.062Z</time></trkpt><trkpt lat="44.6481715" lon="7.6137749"><ele>318.0</ele><time>2026-04-21T06:25:17.065Z</time></trkpt><trkpt lat="44.6481742" lon="7.6139752"><ele>318.0</ele><time>2026-04-21T06:25:18.061Z</time></trkpt><trkpt lat="44.6481765" lon="7.6141765"><ele>317.75</ele><time>2026-04-21T06:25:19.064Z</time></trkpt><trkpt lat="44.6481753" lon="7.6143693"><ele>317.5</ele><time>2026-04-21T06:25:20.051Z</time></trkpt><trkpt lat="44.6481722" lon="7.6145523"><ele>317.25</ele><time>2026-04-21T06:25:21.058Z</time></trkpt><trkpt lat="44.6481693" lon="7.6147171"><ele>317.0</ele><time>2026-04-21T06:25:22.05Z</time></trkpt><trkpt lat="44.648165" lon="7.6148662"><ele>316.83333333333337</ele><time>2026-04-21T06:25:23.07Z</time></trkpt><trkpt lat="44.6481634" lon="7.6149911"><ele>316.6666666666667</ele><time>2026-04-21T06:25:24.06Z</time></trkpt><trkpt lat="44.6481649" lon="7.615089"><ele>316.5</ele><time>2026-04-21T06:25:25.063Z</time></trkpt><trkpt lat="44.6481605" lon="7.615184"><ele>316.3333333333333</ele><time>2026-04-21T06:25:26.052Z</time></trkpt><trkpt lat="44.6481606" lon="7.6153602"><ele>316.16666666666663</ele><time>2026-04-21T06:25:28.058Z</time></trkpt><trkpt lat="44.6481623" lon="7.6154492"><ele>316.0</ele><time>2026-04-21T06:25:29.062Z</time></trkpt><trkpt lat="44.6481579" lon="7.6156233"><ele>315.8571428571429</ele><time>2026-04-21T06:25:31.062Z</time></trkpt><trkpt lat="44.6481501" lon="7.6157167"><ele>315.7142857142857</ele><time>2026-04-21T06:25:32.061Z</time></trkpt><trkpt lat="44.6481248" lon="7.6158104"><ele>315.57142857142856</ele><time>2026-04-21T06:25:33.064Z</time></trkpt><trkpt lat="44.6480807" lon="7.615897"><ele>315.42857142857144</ele><time>2026-04-21T06:25:34.059Z</time></trkpt><trkpt lat="44.6480315" lon="7.6159757"><ele>315.2857142857143</ele><time>2026-04-21T06:25:35.055Z</time></trkpt><trkpt lat="44.6479884" lon="7.6160502"><ele>315.14285714285717</ele><time>2026-04-21T06:25:36.052Z</time></trkpt><trkpt lat="44.6479587" lon="7.6161305"><ele>315.0</ele><time>2026-04-21T06:25:37.059Z</time></trkpt><trkpt lat="44.6479397" lon="7.6162231"><ele>314.8333333333333</ele><time>2026-04-21T06:25:38.06Z</time></trkpt><trkpt lat="44.6479433" lon="7.6163233"><ele>314.6666666666667</ele><time>2026-04-21T06:25:39.06Z</time></trkpt><trkpt lat="44.6479696" lon="7.6164324"><ele>314.5</ele><time>2026-04-21T06:25:40.065Z</time></trkpt><trkpt lat="44.6480039" lon="7.6165334"><ele>314.33333333333337</ele><time>2026-04-21T06:25:41.066Z</time></trkpt><trkpt lat="44.6480515" lon="7.6166208"><ele>314.1666666666667</ele><time>2026-04-21T06:25:42.056Z</time></trkpt><trkpt lat="44.6481059" lon="7.6167135"><ele>314.0</ele><time>2026-04-21T06:25:43.053Z</time></trkpt><trkpt lat="44.6481563" lon="7.616815"><ele>314.0</ele><time>2026-04-21T06:25:44.064Z</time></trkpt><trkpt lat="44.6481779" lon="7.6169413"><ele>314.0</ele><time>2026-04-21T06:25:45.063Z</time></trkpt><trkpt lat="44.648181" lon="7.6170878"><ele>314.0</ele><time>2026-04-21T06:25:46.063Z</time></trkpt><trkpt lat="44.6481781" lon="7.6172341"><ele>314.0</ele><time>2026-04-21T06:25:47.071Z</time></trkpt><trkpt lat="44.6481792" lon="7.6173731"><ele>314.0</ele><time>2026-04-21T06:25:48.061Z</time></trkpt><trkpt lat="44.6481811" lon="7.6175146"><ele>314.2</ele><time>2026-04-21T06:25:49.058Z</time></trkpt><trkpt lat="44.6481793" lon="7.6176573"><ele>314.4</ele><time>2026-04-21T06:25:50.054Z</time></trkpt><trkpt lat="44.6481779" lon="7.6177979"><ele>314.6</ele><time>2026-04-21T06:25:51.056Z</time></trkpt><trkpt lat="44.6481781" lon="7.6179438"><ele>314.8</ele><time>2026-04-21T06:25:52.065Z</time></trkpt><trkpt lat="44.6481767" lon="7.6180986"><ele>315.0</ele><time>2026-04-21T06:25:53.061Z</time></trkpt><trkpt lat="44.6481767" lon="7.6182583"><ele>314.75</ele><time>2026-04-21T06:25:54.053Z</time></trkpt><trkpt lat="44.6481764" lon="7.6184215"><ele>314.5</ele><time>2026-04-21T06:25:55.054Z</time></trkpt><trkpt lat="44.6481764" lon="7.6185897"><ele>314.25</ele><time>2026-04-21T06:25:56.068Z</time></trkpt><trkpt lat="44.6481753" lon="7.618765"><ele>314.0</ele><time>2026-04-21T06:25:57.06Z</time></trkpt><trkpt lat="44.648173" lon="7.6189412"><ele>314.0</ele><time>2026-04-21T06:25:58.063Z</time></trkpt><trkpt lat="44.6481764" lon="7.6191195"><ele>314.0</ele><time>2026-04-21T06:25:59.05Z</time></trkpt><trkpt lat="44.6481773" lon="7.6192967"><ele>314.0</ele><time>2026-04-21T06:26:00.052Z</time></trkpt><trkpt lat="44.6481783" lon="7.6194722"><ele>314.0</ele><time>2026-04-21T06:26:01.05Z</time></trkpt><trkpt lat="44.6481779" lon="7.6196473"><ele>314.0</ele><time>2026-04-21T06:26:02.061Z</time></trkpt><trkpt lat="44.6481775" lon="7.6198174"><ele>314.0</ele><time>2026-04-21T06:26:03.071Z</time></trkpt><trkpt lat="44.6481801" lon="7.6199725"><ele>314.0</ele><time>2026-04-21T06:26:04.051Z</time></trkpt><trkpt lat="44.6481795" lon="7.6201188"><ele>314.0</ele><time>2026-04-21T06:26:05.06Z</time></trkpt><trkpt lat="44.6481757" lon="7.6202643"><ele>314.0</ele><time>2026-04-21T06:26:06.063Z</time></trkpt><trkpt lat="44.6481695" lon="7.6204169"><ele>314.0</ele><time>2026-04-21T06:26:07.061Z</time></trkpt><trkpt lat="44.6481647" lon="7.6205754"><ele>314.0</ele><time>2026-04-21T06:26:08.047Z</time></trkpt><trkpt lat="44.6481615" lon="7.6207467"><ele>314.0</ele><time>2026-04-21T06:26:09.063Z</time></trkpt><trkpt lat="44.6481598" lon="7.6209238"><ele>314.0</ele><time>2026-04-21T06:26:10.062Z</time></trkpt><trkpt lat="44.6481597" lon="7.6211065"><ele>314.0</ele><time>2026-04-21T06:26:11.064Z</time></trkpt><trkpt lat="44.6481606" lon="7.6212941"><ele>314.0</ele><time>2026-04-21T06:26:12.051Z</time></trkpt><trkpt lat="44.6481625" lon="7.6214836"><ele>314.0</ele><time>2026-04-21T06:26:13.065Z</time></trkpt><trkpt lat="44.6481639" lon="7.6216756"><ele>314.0</ele><time>2026-04-21T06:26:14.058Z</time></trkpt><trkpt lat="44.6481646" lon="7.6218683"><ele>314.25</ele><time>2026-04-21T06:26:15.053Z</time></trkpt><trkpt lat="44.6481652" lon="7.6220577"><ele>314.5</ele><time>2026-04-21T06:26:16.06Z</time></trkpt><trkpt lat="44.6481662" lon="7.6222469"><ele>314.75</ele><time>2026-04-21T06:26:17.062Z</time></trkpt><trkpt lat="44.6481683" lon="7.6224405"><ele>315.0</ele><time>2026-04-21T06:26:18.065Z</time></trkpt><trkpt lat="44.6481719" lon="7.6226386"><ele>315.5</ele><time>2026-04-21T06:26:19.063Z</time></trkpt><trkpt lat="44.6481788" lon="7.6228427"><ele>316.0</ele><time>2026-04-21T06:26:20.057Z</time></trkpt><trkpt lat="44.6481889" lon="7.6230518"><ele>316.5</ele><time>2026-04-21T06:26:21.062Z</time></trkpt><trkpt lat="44.6481978" lon="7.6232653"><ele>317.0</ele><time>2026-04-21T06:26:22.06Z</time></trkpt><trkpt lat="44.6482019" lon="7.6234828"><ele>316.6666666666667</ele><time>2026-04-21T06:26:23.07Z</time></trkpt><trkpt lat="44.6482032" lon="7.623699"><ele>316.3333333333333</ele><time>2026-04-21T06:26:24.053Z</time></trkpt><trkpt lat="44.6482049" lon="7.62392"><ele>316.0</ele><time>2026-04-21T06:26:25.07Z</time></trkpt><trkpt lat="44.6482074" lon="7.6241465"><ele>316.0</ele><time>2026-04-21T06:26:26.061Z</time></trkpt><trkpt lat="44.648208" lon="7.6243783"><ele>316.0</ele><time>2026-04-21T06:26:27.069Z</time></trkpt><trkpt lat="44.6482062" lon="7.624614"><ele>316.0</ele><time>2026-04-21T06:26:28.061Z</time></trkpt><trkpt lat="44.6482037" lon="7.6248532"><ele>315.3333333333333</ele><time>2026-04-21T06:26:29.049Z</time></trkpt><trkpt lat="44.6482043" lon="7.6250924"><ele>314.6666666666667</ele><time>2026-04-21T06:26:30.049Z</time></trkpt><trkpt lat="44.6482048" lon="7.6253256"><ele>314.0</ele><time>2026-04-21T06:26:31.071Z</time></trkpt><trkpt lat="44.648203" lon="7.6255513"><ele>313.75</ele><time>2026-04-21T06:26:32.062Z</time></trkpt><trkpt lat="44.6482017" lon="7.6257623"><ele>313.5</ele><time>2026-04-21T06:26:33.073Z</time></trkpt><trkpt lat="44.6482007" lon="7.625972"><ele>313.25</ele><time>2026-04-21T06:26:34.063Z</time></trkpt><trkpt lat="44.6482011" lon="7.6261819"><ele>313.0</ele><time>2026-04-21T06:26:35.062Z</time></trkpt><trkpt lat="44.6482031" lon="7.626392"><ele>313.0</ele><time>2026-04-21T06:26:36.063Z</time></trkpt><trkpt lat="44.6482047" lon="7.6266017"><ele>313.0</ele><time>2026-04-21T06:26:37.059Z</time></trkpt><trkpt lat="44.6482069" lon="7.626811"><ele>313.0</ele><time>2026-04-21T06:26:38.062Z</time></trkpt><trkpt lat="44.6482108" lon="7.6270234"><ele>313.0</ele><time>2026-04-21T06:26:39.065Z</time></trkpt><trkpt lat="44.6482129" lon="7.6272402"><ele>313.25</ele><time>2026-04-21T06:26:40.064Z</time></trkpt><trkpt lat="44.6482112" lon="7.6274526"><ele>313.5</ele><time>2026-04-21T06:26:41.065Z</time></trkpt><trkpt lat="44.6482097" lon="7.6276601"><ele>313.75</ele><time>2026-04-21T06:26:42.062Z</time></trkpt><trkpt lat="44.6482101" lon="7.6278651"><ele>314.0</ele><time>2026-04-21T06:26:43.07Z</time></trkpt><trkpt lat="44.6482119" lon="7.6280696"><ele>314.0</ele><time>2026-04-21T06:26:44.063Z</time></trkpt><trkpt lat="44.6482137" lon="7.6282762"><ele>314.0</ele><time>2026-04-21T06:26:45.059Z</time></trkpt><trkpt lat="44.6482148" lon="7.6284873"><ele>314.0</ele><time>2026-04-21T06:26:46.064Z</time></trkpt><trkpt lat="44.6482167" lon="7.6287069"><ele>313.6666666666667</ele><time>2026-04-21T06:26:47.069Z</time></trkpt><trkpt lat="44.6482191" lon="7.6289346"><ele>313.3333333333333</ele><time>2026-04-21T06:26:48.062Z</time></trkpt><trkpt lat="44.6482189" lon="7.6291672"><ele>313.0</ele><time>2026-04-21T06:26:49.072Z</time></trkpt><trkpt lat="44.6482206" lon="7.6294081"><ele>313.0</ele><time>2026-04-21T06:26:50.06Z</time></trkpt><trkpt lat="44.6482226" lon="7.6296527"><ele>313.0</ele><time>2026-04-21T06:26:51.064Z</time></trkpt><trkpt lat="44.648222" lon="7.629901"><ele>313.0</ele><time>2026-04-21T06:26:52.067Z</time></trkpt><trkpt lat="44.6482242" lon="7.6301502"><ele>313.0</ele><time>2026-04-21T06:26:53.062Z</time></trkpt><trkpt lat="44.6482256" lon="7.6304027"><ele>313.0</ele><time>2026-04-21T06:26:54.053Z</time></trkpt><trkpt lat="44.6482256" lon="7.63066"><ele>313.0</ele><time>2026-04-21T06:26:55.065Z</time></trkpt><trkpt lat="44.6482275" lon="7.6309164"><ele>313.0</ele><time>2026-04-21T06:26:56.063Z</time></trkpt><trkpt lat="44.6482275" lon="7.6311691"><ele>313.0</ele><time>2026-04-21T06:26:57.052Z</time></trkpt><trkpt lat="44.6482278" lon="7.6314135"><ele>313.0</ele><time>2026-04-21T06:26:58.054Z</time></trkpt><trkpt lat="44.6482316" lon="7.63166"><ele>313.0</ele><time>2026-04-21T06:26:59.053Z</time></trkpt><trkpt lat="44.6482334" lon="7.631905"><ele>313.0</ele><time>2026-04-21T06:27:00.06Z</time></trkpt><trkpt lat="44.6482329" lon="7.6321504"><ele>313.0</ele><time>2026-04-21T06:27:01.068Z</time></trkpt><trkpt lat="44.6482331" lon="7.6323939"><ele>313.0</ele><time>2026-04-21T06:27:02.054Z</time></trkpt><trkpt lat="44.6482333" lon="7.6326415"><ele>313.0</ele><time>2026-04-21T06:27:03.073Z</time></trkpt><trkpt lat="44.6482339" lon="7.6328868"><ele>313.0</ele><time>2026-04-21T06:27:04.067Z</time></trkpt><trkpt lat="44.6482337" lon="7.6331328"><ele>313.0</ele><time>2026-04-21T06:27:05.062Z</time></trkpt><trkpt lat="44.648235" lon="7.6333772"><ele>313.0</ele><time>2026-04-21T06:27:06.068Z</time></trkpt><trkpt lat="44.6482344" lon="7.6336203"><ele>313.0</ele><time>2026-04-21T06:27:07.061Z</time></trkpt><trkpt lat="44.6482319" lon="7.633862"><ele>313.0</ele><time>2026-04-21T06:27:08.047Z</time></trkpt><trkpt lat="44.6482276" lon="7.6341054"><ele>313.0</ele><time>2026-04-21T06:27:09.064Z</time></trkpt><trkpt lat="44.6482267" lon="7.6343514"><ele>313.0</ele><time>2026-04-21T06:27:10.061Z</time></trkpt><trkpt lat="44.6482264" lon="7.6346012"><ele>312.3333333333333</ele><time>2026-04-21T06:27:11.06Z</time></trkpt><trkpt lat="44.6482282" lon="7.6348486"><ele>311.6666666666667</ele><time>2026-04-21T06:27:12.063Z</time></trkpt><trkpt lat="44.6482322" lon="7.635097"><ele>311.0</ele><time>2026-04-21T06:27:13.065Z</time></trkpt><trkpt lat="44.6482349" lon="7.6353434"><ele>312.33333333333337</ele><time>2026-04-21T06:27:14.059Z</time></trkpt><trkpt lat="44.6482357" lon="7.6355886"><ele>313.6666666666667</ele><time>2026-04-21T06:27:15.068Z</time></trkpt><trkpt lat="44.6482358" lon="7.6358369"><ele>315.0</ele><time>2026-04-21T06:27:16.062Z</time></trkpt><trkpt lat="44.6482349" lon="7.6360928"><ele>315.3333333333333</ele><time>2026-04-21T06:27:17.069Z</time></trkpt><trkpt lat="44.6482341" lon="7.6363634"><ele>315.66666666666663</ele><time>2026-04-21T06:27:18.054Z</time></trkpt><trkpt lat="44.6482349" lon="7.6366514"><ele>316.0</ele><time>2026-04-21T06:27:19.051Z</time></trkpt><trkpt lat="44.6482386" lon="7.6369572"><ele>315.66666666666663</ele><time>2026-04-21T06:27:20.044Z</time></trkpt><trkpt lat="44.6482404" lon="7.6372647"><ele>315.3333333333333</ele><time>2026-04-21T06:27:21.062Z</time></trkpt><trkpt lat="44.648242" lon="7.6375578"><ele>315.0</ele><time>2026-04-21T06:27:22.063Z</time></trkpt><trkpt lat="44.6482446" lon="7.6378383"><ele>314.6666666666667</ele><time>2026-04-21T06:27:23.065Z</time></trkpt><trkpt lat="44.6482476" lon="7.6381156"><ele>314.33333333333337</ele><time>2026-04-21T06:27:24.047Z</time></trkpt><trkpt lat="44.6482506" lon="7.6383801"><ele>314.0</ele><time>2026-04-21T06:27:25.061Z</time></trkpt><trkpt lat="44.6482514" lon="7.6386402"><ele>313.6666666666667</ele><time>2026-04-21T06:27:26.065Z</time></trkpt><trkpt lat="44.6482517" lon="7.6388961"><ele>313.3333333333333</ele><time>2026-04-21T06:27:27.068Z</time></trkpt><trkpt lat="44.6482527" lon="7.6391513"><ele>313.0</ele><time>2026-04-21T06:27:28.059Z</time></trkpt><trkpt lat="44.6482549" lon="7.6394034"><ele>312.66666666666663</ele><time>2026-04-21T06:27:29.061Z</time></trkpt><trkpt lat="44.6482549" lon="7.6396517"><ele>312.3333333333333</ele><time>2026-04-21T06:27:30.064Z</time></trkpt><trkpt lat="44.6482544" lon="7.6398921"><ele>312.0</ele><time>2026-04-21T06:27:31.065Z</time></trkpt><trkpt lat="44.6482541" lon="7.6401196"><ele>312.3333333333333</ele><time>2026-04-21T06:27:32.06Z</time></trkpt><trkpt lat="44.6482555" lon="7.6403427"><ele>312.66666666666663</ele><time>2026-04-21T06:27:33.069Z</time></trkpt><trkpt lat="44.6482573" lon="7.6405614"><ele>313.0</ele><time>2026-04-21T06:27:34.065Z</time></trkpt><trkpt lat="44.6482567" lon="7.6407833"><ele>313.0</ele><time>2026-04-21T06:27:35.057Z</time></trkpt><trkpt lat="44.6482533" lon="7.6410004"><ele>313.0</ele><time>2026-04-21T06:27:36.048Z</time></trkpt><trkpt lat="44.6482491" lon="7.6412077"><ele>313.0</ele><time>2026-04-21T06:27:37.058Z</time></trkpt><trkpt lat="44.6482436" lon="7.6414017"><ele>313.0</ele><time>2026-04-21T06:27:38.061Z</time></trkpt><trkpt lat="44.6482351" lon="7.6415861"><ele>313.0</ele><time>2026-04-21T06:27:39.07Z</time></trkpt><trkpt lat="44.6482235" lon="7.6417625"><ele>313.0</ele><time>2026-04-21T06:27:40.062Z</time></trkpt><trkpt lat="44.648211" lon="7.6419283"><ele>313.0</ele><time>2026-04-21T06:27:41.062Z</time></trkpt><trkpt lat="44.6481979" lon="7.6420847"><ele>313.0</ele><time>2026-04-21T06:27:42.056Z</time></trkpt><trkpt lat="44.6481853" lon="7.6422322"><ele>313.0</ele><time>2026-04-21T06:27:43.071Z</time></trkpt><trkpt lat="44.6481737" lon="7.6423688"><ele>313.0</ele><time>2026-04-21T06:27:44.048Z</time></trkpt><trkpt lat="44.6481627" lon="7.642492"><ele>313.0</ele><time>2026-04-21T06:27:45.058Z</time></trkpt><trkpt lat="44.6481474" lon="7.6426047"><ele>313.0</ele><time>2026-04-21T06:27:46.059Z</time></trkpt><trkpt lat="44.6481226" lon="7.642704"><ele>313.0</ele><time>2026-04-21T06:27:47.065Z</time></trkpt><trkpt lat="44.6480751" lon="7.6428248"><ele>313.0</ele><time>2026-04-21T06:27:49.059Z</time></trkpt><trkpt lat="44.6479952" lon="7.6429268"><ele>312.8333333333333</ele><time>2026-04-21T06:27:52.052Z</time></trkpt><trkpt lat="44.6479514" lon="7.6429943"><ele>312.66666666666663</ele><time>2026-04-21T06:27:53.07Z</time></trkpt><trkpt lat="44.6479088" lon="7.6430765"><ele>312.5</ele><time>2026-04-21T06:27:54.057Z</time></trkpt><trkpt lat="44.64787" lon="7.643184"><ele>312.3333333333333</ele><time>2026-04-21T06:27:55.063Z</time></trkpt><trkpt lat="44.6478348" lon="7.6433038"><ele>312.1666666666667</ele><time>2026-04-21T06:27:56.058Z</time></trkpt><trkpt lat="44.6477905" lon="7.6434118"><ele>312.0</ele><time>2026-04-21T06:27:57.047Z</time></trkpt><trkpt lat="44.6477439" lon="7.6435044"><ele>312.0</ele><time>2026-04-21T06:27:58.047Z</time></trkpt><trkpt lat="44.6476909" lon="7.643582"><ele>312.0</ele><time>2026-04-21T06:27:59.062Z</time></trkpt><trkpt lat="44.6476222" lon="7.6436635"><ele>312.0</ele><time>2026-04-21T06:28:00.058Z</time></trkpt><trkpt lat="44.6475503" lon="7.6437533"><ele>312.0</ele><time>2026-04-21T06:28:01.065Z</time></trkpt><trkpt lat="44.6474716" lon="7.6438496"><ele>312.0</ele><time>2026-04-21T06:28:02.052Z</time></trkpt><trkpt lat="44.6473808" lon="7.6439453"><ele>312.0</ele><time>2026-04-21T06:28:03.068Z</time></trkpt><trkpt lat="44.6472894" lon="7.6440415"><ele>312.0</ele><time>2026-04-21T06:28:04.066Z</time></trkpt><trkpt lat="44.6471962" lon="7.6441291"><ele>312.0</ele><time>2026-04-21T06:28:05.052Z</time></trkpt><trkpt lat="44.6471013" lon="7.6442052"><ele>312.0</ele><time>2026-04-21T06:28:06.061Z</time></trkpt><trkpt lat="44.6469999" lon="7.6442708"><ele>312.0</ele><time>2026-04-21T06:28:07.065Z</time></trkpt><trkpt lat="44.6468955" lon="7.6443288"><ele>311.75</ele><time>2026-04-21T06:28:08.064Z</time></trkpt><trkpt lat="44.6467841" lon="7.6443818"><ele>311.5</ele><time>2026-04-21T06:28:09.061Z</time></trkpt><trkpt lat="44.6466721" lon="7.6444337"><ele>311.25</ele><time>2026-04-21T06:28:10.072Z</time></trkpt><trkpt lat="44.6465618" lon="7.6444806"><ele>311.0</ele><time>2026-04-21T06:28:11.062Z</time></trkpt><trkpt lat="44.6464495" lon="7.6445201"><ele>311.0</ele><time>2026-04-21T06:28:12.062Z</time></trkpt><trkpt lat="44.6463313" lon="7.644551"><ele>311.0</ele><time>2026-04-21T06:28:13.049Z</time></trkpt><trkpt lat="44.646208" lon="7.6445703"><ele>311.0</ele><time>2026-04-21T06:28:14.051Z</time></trkpt><trkpt lat="44.6460864" lon="7.6445704"><ele>311.0</ele><time>2026-04-21T06:28:15.065Z</time></trkpt><trkpt lat="44.6459625" lon="7.644563"><ele>311.40000000000003</ele><time>2026-04-21T06:28:16.061Z</time></trkpt><trkpt lat="44.6458429" lon="7.6445457"><ele>311.8</ele><time>2026-04-21T06:28:17.061Z</time></trkpt><trkpt lat="44.6457358" lon="7.6445202"><ele>312.20000000000005</ele><time>2026-04-21T06:28:18.071Z</time></trkpt><trkpt lat="44.6456321" lon="7.6444992"><ele>312.6</ele><time>2026-04-21T06:28:19.07Z</time></trkpt><trkpt lat="44.6455397" lon="7.6444776"><ele>313.0</ele><time>2026-04-21T06:28:20.047Z</time></trkpt><trkpt lat="44.6454579" lon="7.6444519"><ele>313.0</ele><time>2026-04-21T06:28:21.064Z</time></trkpt><trkpt lat="44.6453835" lon="7.6444348"><ele>313.0</ele><time>2026-04-21T06:28:22.065Z</time></trkpt><trkpt lat="44.6453163" lon="7.6444298"><ele>313.0</ele><time>2026-04-21T06:28:23.065Z</time></trkpt><trkpt lat="44.6452075" lon="7.6444111"><ele>313.0</ele><time>2026-04-21T06:28:25.064Z</time></trkpt><trkpt lat="44.6451449" lon="7.6443936"><ele>313.0</ele><time>2026-04-21T06:32:49.057Z</time></trkpt><trkpt lat="44.6450016" lon="7.6444173"><ele>313.25</ele><time>2026-04-21T06:32:54.053Z</time></trkpt><trkpt lat="44.6448799" lon="7.6444201"><ele>313.5</ele><time>2026-04-21T06:32:55.065Z</time></trkpt><trkpt lat="44.6447369" lon="7.6444085"><ele>313.75</ele><time>2026-04-21T06:32:56.061Z</time></trkpt><trkpt lat="44.6445891" lon="7.6443879"><ele>314.0</ele><time>2026-04-21T06:32:57.049Z</time></trkpt><trkpt lat="44.6444356" lon="7.6443562"><ele>314.33333333333337</ele><time>2026-04-21T06:32:58.054Z</time></trkpt><trkpt lat="44.6442741" lon="7.6443322"><ele>314.6666666666667</ele><time>2026-04-21T06:32:59.066Z</time></trkpt><trkpt lat="44.6441129" lon="7.6443216"><ele>315.0</ele><time>2026-04-21T06:33:00.046Z</time></trkpt><trkpt lat="44.643951" lon="7.644325"><ele>315.0</ele><time>2026-04-21T06:33:01.062Z</time></trkpt><trkpt lat="44.6437904" lon="7.6443446"><ele>315.0</ele><time>2026-04-21T06:33:02.07Z</time></trkpt><trkpt lat="44.6436329" lon="7.6443793"><ele>315.0</ele><time>2026-04-21T06:33:03.067Z</time></trkpt><trkpt lat="44.6434796" lon="7.6444291"><ele>314.6666666666667</ele><time>2026-04-21T06:33:04.049Z</time></trkpt><trkpt lat="44.6433272" lon="7.6444907"><ele>314.33333333333337</ele><time>2026-04-21T06:33:05.064Z</time></trkpt><trkpt lat="44.6431805" lon="7.644562"><ele>314.0</ele><time>2026-04-21T06:33:06.052Z</time></trkpt><trkpt lat="44.643036" lon="7.6446484"><ele>314.0</ele><time>2026-04-21T06:33:07.051Z</time></trkpt><trkpt lat="44.6428924" lon="7.6447399"><ele>314.0</ele><time>2026-04-21T06:33:08.066Z</time></trkpt><trkpt lat="44.6427499" lon="7.644835"><ele>314.0</ele><time>2026-04-21T06:33:09.051Z</time></trkpt><trkpt lat="44.6426051" lon="7.6449336"><ele>313.6666666666667</ele><time>2026-04-21T06:33:10.069Z</time></trkpt><trkpt lat="44.6424582" lon="7.6450259"><ele>313.3333333333333</ele><time>2026-04-21T06:33:11.063Z</time></trkpt><trkpt lat="44.6423131" lon="7.6451176"><ele>313.0</ele><time>2026-04-21T06:33:12.052Z</time></trkpt><trkpt lat="44.6421653" lon="7.6452074"><ele>313.0</ele><time>2026-04-21T06:33:13.067Z</time></trkpt><trkpt lat="44.6420183" lon="7.645296"><ele>313.0</ele><time>2026-04-21T06:33:14.073Z</time></trkpt><trkpt lat="44.6418711" lon="7.6453879"><ele>313.0</ele><time>2026-04-21T06:33:15.073Z</time></trkpt><trkpt lat="44.6417276" lon="7.6454814"><ele>313.0</ele><time>2026-04-21T06:33:16.053Z</time></trkpt><trkpt lat="44.6415833" lon="7.6455738"><ele>313.0</ele><time>2026-04-21T06:33:17.057Z</time></trkpt><trkpt lat="44.64144" lon="7.6456688"><ele>313.0</ele><time>2026-04-21T06:33:18.061Z</time></trkpt><trkpt lat="44.6412985" lon="7.6457714"><ele>313.0</ele><time>2026-04-21T06:33:19.072Z</time></trkpt><trkpt lat="44.6411664" lon="7.6458894"><ele>313.0</ele><time>2026-04-21T06:33:20.065Z</time></trkpt><trkpt lat="44.641046" lon="7.6460284"><ele>313.0</ele><time>2026-04-21T06:33:21.067Z</time></trkpt><trkpt lat="44.640942" lon="7.6461959"><ele>313.66666666666663</ele><time>2026-04-21T06:33:22.054Z</time></trkpt><trkpt lat="44.6408543" lon="7.6463791"><ele>314.3333333333333</ele><time>2026-04-21T06:33:23.071Z</time></trkpt><trkpt lat="44.6407778" lon="7.6465768"><ele>315.0</ele><time>2026-04-21T06:33:24.075Z</time></trkpt><trkpt lat="44.64072" lon="7.6467837"><ele>315.0</ele><time>2026-04-21T06:33:25.073Z</time></trkpt><trkpt lat="44.640691" lon="7.6469931"><ele>315.0</ele><time>2026-04-21T06:33:26.064Z</time></trkpt><trkpt lat="44.640682" lon="7.6472132"><ele>315.0</ele><time>2026-04-21T06:33:27.068Z</time></trkpt><trkpt lat="44.6406797" lon="7.6474395"><ele>315.0</ele><time>2026-04-21T06:33:28.067Z</time></trkpt><trkpt lat="44.6406809" lon="7.6476628"><ele>315.0</ele><time>2026-04-21T06:33:29.07Z</time></trkpt><trkpt lat="44.6406818" lon="7.6478886"><ele>315.0</ele><time>2026-04-21T06:33:30.061Z</time></trkpt><trkpt lat="44.6406813" lon="7.648112"><ele>315.0</ele><time>2026-04-21T06:33:31.069Z</time></trkpt><trkpt lat="44.6406796" lon="7.6483366"><ele>315.0</ele><time>2026-04-21T06:33:32.052Z</time></trkpt><trkpt lat="44.6406796" lon="7.6485633"><ele>315.0</ele><time>2026-04-21T06:33:33.053Z</time></trkpt><trkpt lat="44.6406777" lon="7.6487866"><ele>315.0</ele><time>2026-04-21T06:33:34.062Z</time></trkpt><trkpt lat="44.6406778" lon="7.649012"><ele>315.0</ele><time>2026-04-21T06:33:35.052Z</time></trkpt><trkpt lat="44.6406772" lon="7.6492315"><ele>315.0</ele><time>2026-04-21T06:33:36.061Z</time></trkpt><trkpt lat="44.6406778" lon="7.6494419"><ele>315.5</ele><time>2026-04-21T06:33:37.061Z</time></trkpt><trkpt lat="44.6406845" lon="7.6496405"><ele>316.0</ele><time>2026-04-21T06:33:38.07Z</time></trkpt><trkpt lat="44.6407049" lon="7.6498251"><ele>316.5</ele><time>2026-04-21T06:33:39.065Z</time></trkpt><trkpt lat="44.6407433" lon="7.6499979"><ele>317.0</ele><time>2026-04-21T06:33:40.061Z</time></trkpt><trkpt lat="44.6407948" lon="7.6501547"><ele>317.0</ele><time>2026-04-21T06:33:41.061Z</time></trkpt><trkpt lat="44.6408467" lon="7.6502839"><ele>317.0</ele><time>2026-04-21T06:33:42.062Z</time></trkpt><trkpt lat="44.6408963" lon="7.6503916"><ele>317.0</ele><time>2026-04-21T06:33:43.061Z</time></trkpt><trkpt lat="44.6409345" lon="7.6504746"><ele>317.0</ele><time>2026-04-21T06:33:44.06Z</time></trkpt><trkpt lat="44.6409763" lon="7.6505565"><ele>317.0</ele><time>2026-04-21T06:33:46.068Z</time></trkpt><trkpt lat="44.6410068" lon="7.6506379"><ele>317.0</ele><time>2026-04-21T06:33:50.062Z</time></trkpt><trkpt lat="44.6410264" lon="7.6507493"><ele>317.0</ele><time>2026-04-21T06:33:52.068Z</time></trkpt><trkpt lat="44.6410425" lon="7.6509313"><ele>317.0</ele><time>2026-04-21T06:33:54.074Z</time></trkpt><trkpt lat="44.6410337" lon="7.6510413"><ele>317.0</ele><time>2026-04-21T06:33:55.062Z</time></trkpt><trkpt lat="44.6410139" lon="7.6511498"><ele>317.0</ele><time>2026-04-21T06:33:56.07Z</time></trkpt><trkpt lat="44.6409884" lon="7.6512453"><ele>317.0</ele><time>2026-04-21T06:33:57.051Z</time></trkpt><trkpt lat="44.6409604" lon="7.65134"><ele>317.0</ele><time>2026-04-21T06:33:58.069Z</time></trkpt><trkpt lat="44.6409303" lon="7.6514374"><ele>317.0</ele><time>2026-04-21T06:33:59.069Z</time></trkpt><trkpt lat="44.6409" lon="7.6515353"><ele>317.0</ele><time>2026-04-21T06:34:00.045Z</time></trkpt><trkpt lat="44.6408713" lon="7.6516266"><ele>317.0</ele><time>2026-04-21T06:34:01.076Z</time></trkpt><trkpt lat="44.6408325" lon="7.6517655"><ele>317.0</ele><time>2026-04-21T06:34:03.053Z</time></trkpt><trkpt lat="44.6408078" lon="7.651871"><ele>317.0</ele><time>2026-04-21T06:34:16.053Z</time></trkpt><trkpt lat="44.6407706" lon="7.6520122"><ele>317.0</ele><time>2026-04-21T06:34:18.044Z</time></trkpt><trkpt lat="44.6407531" lon="7.652098"><ele>317.33333333333337</ele><time>2026-04-21T06:34:19.043Z</time></trkpt><trkpt lat="44.6407286" lon="7.6521917"><ele>317.6666666666667</ele><time>2026-04-21T06:34:20.054Z</time></trkpt><trkpt lat="44.6407014" lon="7.6522899"><ele>318.0</ele><time>2026-04-21T06:34:21.051Z</time></trkpt><trkpt lat="44.6406748" lon="7.6523898"><ele>318.3333333333333</ele><time>2026-04-21T06:34:22.054Z</time></trkpt><trkpt lat="44.6406491" lon="7.6524863"><ele>318.66666666666663</ele><time>2026-04-21T06:34:23.049Z</time></trkpt><trkpt lat="44.6406245" lon="7.6525864"><ele>319.0</ele><time>2026-04-21T06:34:24.051Z</time></trkpt><trkpt lat="44.6405958" lon="7.6526916"><ele>319.0</ele><time>2026-04-21T06:34:25.056Z</time></trkpt><trkpt lat="44.6405673" lon="7.6527906"><ele>319.0</ele><time>2026-04-21T06:34:26.054Z</time></trkpt><trkpt lat="44.6405423" lon="7.6528888"><ele>319.0</ele><time>2026-04-21T06:34:27.053Z</time></trkpt><trkpt lat="44.6405194" lon="7.6529851"><ele>319.0</ele><time>2026-04-21T06:34:28.047Z</time></trkpt><trkpt lat="44.6405037" lon="7.6530772"><ele>319.0</ele><time>2026-04-21T06:34:29.054Z</time></trkpt><trkpt lat="44.6404904" lon="7.6531663"><ele>319.0</ele><time>2026-04-21T06:34:30.055Z</time></trkpt><trkpt lat="44.6404742" lon="7.6532593"><ele>319.0</ele><time>2026-04-21T06:34:31.05Z</time></trkpt><trkpt lat="44.6404529" lon="7.6533657"><ele>319.0</ele><time>2026-04-21T06:34:32.053Z</time></trkpt><trkpt lat="44.6404234" lon="7.6534817"><ele>319.0</ele><time>2026-04-21T06:34:33.058Z</time></trkpt><trkpt lat="44.6403912" lon="7.6536044"><ele>319.0</ele><time>2026-04-21T06:34:34.054Z</time></trkpt><trkpt lat="44.6403593" lon="7.6537359"><ele>319.0</ele><time>2026-04-21T06:34:35.054Z</time></trkpt><trkpt lat="44.6403251" lon="7.6538752"><ele>319.0</ele><time>2026-04-21T06:34:36.052Z</time></trkpt><trkpt lat="44.640291" lon="7.6540178"><ele>318.8</ele><time>2026-04-21T06:34:37.056Z</time></trkpt><trkpt lat="44.6402608" lon="7.6541582"><ele>318.59999999999997</ele><time>2026-04-21T06:34:38.05Z</time></trkpt><trkpt lat="44.6402301" lon="7.654294"><ele>318.4</ele><time>2026-04-21T06:34:39.051Z</time></trkpt><trkpt lat="44.6401953" lon="7.6544267"><ele>318.2</ele><time>2026-04-21T06:34:40.051Z</time></trkpt><trkpt lat="44.6401614" lon="7.6545581"><ele>318.0</ele><time>2026-04-21T06:34:41.053Z</time></trkpt><trkpt lat="44.6401352" lon="7.6546821"><ele>318.0</ele><time>2026-04-21T06:34:42.043Z</time></trkpt><trkpt lat="44.6401095" lon="7.6547978"><ele>318.0</ele><time>2026-04-21T06:34:43.05Z</time></trkpt><trkpt lat="44.6400869" lon="7.6549046"><ele>318.0</ele><time>2026-04-21T06:34:44.046Z</time></trkpt><trkpt lat="44.6400644" lon="7.6550009"><ele>318.0</ele><time>2026-04-21T06:34:45.052Z</time></trkpt><trkpt lat="44.6400458" lon="7.6550869"><ele>318.0</ele><time>2026-04-21T06:34:46.051Z</time></trkpt><trkpt lat="44.6400106" lon="7.655235"><ele>318.0</ele><time>2026-04-21T06:34:48.051Z</time></trkpt><trkpt lat="44.6399854" lon="7.6553389"><ele>318.0</ele><time>2026-04-21T06:34:50.047Z</time></trkpt><trkpt lat="44.6399579" lon="7.6554354"><ele>318.0</ele><time>2026-04-21T06:34:53.063Z</time></trkpt><trkpt lat="44.6399254" lon="7.6555414"><ele>318.0</ele><time>2026-04-21T06:34:56.051Z</time></trkpt><trkpt lat="44.6399056" lon="7.6556256"><ele>318.0</ele><time>2026-04-21T06:34:57.05Z</time></trkpt><trkpt lat="44.6398724" lon="7.6557608"><ele>318.0</ele><time>2026-04-21T06:34:58.049Z</time></trkpt><trkpt lat="44.6398285" lon="7.6559252"><ele>318.0</ele><time>2026-04-21T06:34:59.055Z</time></trkpt><trkpt lat="44.6397806" lon="7.6561009"><ele>318.25</ele><time>2026-04-21T06:35:00.053Z</time></trkpt><trkpt lat="44.6397412" lon="7.6562803"><ele>318.5</ele><time>2026-04-21T06:35:01.051Z</time></trkpt><trkpt lat="44.6396982" lon="7.6564645"><ele>318.75</ele><time>2026-04-21T06:35:02.054Z</time></trkpt><trkpt lat="44.6396579" lon="7.6566481"><ele>319.0</ele><time>2026-04-21T06:35:03.056Z</time></trkpt><trkpt lat="44.6396175" lon="7.6568303"><ele>319.2</ele><time>2026-04-21T06:35:04.053Z</time></trkpt><trkpt lat="44.6395788" lon="7.6570011"><ele>319.4</ele><time>2026-04-21T06:35:05.053Z</time></trkpt><trkpt lat="44.6395443" lon="7.6571529"><ele>319.6</ele><time>2026-04-21T06:35:06.052Z</time></trkpt><trkpt lat="44.6395163" lon="7.6572778"><ele>319.8</ele><time>2026-04-21T06:35:07.049Z</time></trkpt><trkpt lat="44.6394917" lon="7.6573763"><ele>320.0</ele><time>2026-04-21T06:35:08.052Z</time></trkpt><trkpt lat="44.6394734" lon="7.6574937"><ele>320.0</ele><time>2026-04-21T06:35:10.053Z</time></trkpt><trkpt lat="44.6394115" lon="7.6575921"><ele>320.0</ele><time>2026-04-21T06:35:22.054Z</time></trkpt><trkpt lat="44.6393898" lon="7.6577037"><ele>320.0</ele><time>2026-04-21T06:35:24.051Z</time></trkpt><trkpt lat="44.6393754" lon="7.6578013"><ele>320.0</ele><time>2026-04-21T06:35:26.051Z</time></trkpt><trkpt lat="44.6393405" lon="7.6579324"><ele>320.0</ele><time>2026-04-21T06:35:28.052Z</time></trkpt><trkpt lat="44.6393021" lon="7.6581042"><ele>320.0</ele><time>2026-04-21T06:35:30.05Z</time></trkpt><trkpt lat="44.6392793" lon="7.6581899"><ele>320.0</ele><time>2026-04-21T06:35:31.052Z</time></trkpt><trkpt lat="44.6392469" lon="7.6583608"><ele>320.0</ele><time>2026-04-21T06:35:33.05Z</time></trkpt><trkpt lat="44.6392098" lon="7.6585201"><ele>320.0</ele><time>2026-04-21T06:35:35.055Z</time></trkpt><trkpt lat="44.6391719" lon="7.6586819"><ele>320.0</ele><time>2026-04-21T06:35:37.054Z</time></trkpt><trkpt lat="44.6391279" lon="7.6588458"><ele>319.85714285714283</ele><time>2026-04-21T06:35:39.052Z</time></trkpt><trkpt lat="44.6391054" lon="7.6589304"><ele>319.7142857142857</ele><time>2026-04-21T06:35:40.049Z</time></trkpt><trkpt lat="44.6390842" lon="7.659017"><ele>319.57142857142856</ele><time>2026-04-21T06:35:41.052Z</time></trkpt><trkpt lat="44.6390638" lon="7.6591011"><ele>319.42857142857144</ele><time>2026-04-21T06:35:42.051Z</time></trkpt><trkpt lat="44.6390334" lon="7.6592291"><ele>319.2857142857143</ele><time>2026-04-21T06:35:44.058Z</time></trkpt><trkpt lat="44.6390094" lon="7.6593355"><ele>319.14285714285717</ele><time>2026-04-21T06:35:47.049Z</time></trkpt><trkpt lat="44.6389834" lon="7.6594242"><ele>319.0</ele><time>2026-04-21T06:35:50.047Z</time></trkpt><trkpt lat="44.6389669" lon="7.6595131"><ele>318.8</ele><time>2026-04-21T06:35:57.048Z</time></trkpt><trkpt lat="44.6389477" lon="7.6596185"><ele>318.59999999999997</ele><time>2026-04-21T06:36:13.043Z</time></trkpt><trkpt lat="44.6389301" lon="7.6597083"><ele>318.4</ele><time>2026-04-21T06:36:14.054Z</time></trkpt><trkpt lat="44.6388971" lon="7.6598359"><ele>318.2</ele><time>2026-04-21T06:36:15.042Z</time></trkpt><trkpt lat="44.6388551" lon="7.6599871"><ele>318.0</ele><time>2026-04-21T06:36:16.046Z</time></trkpt><trkpt lat="44.6388131" lon="7.6601509"><ele>318.25</ele><time>2026-04-21T06:36:17.052Z</time></trkpt><trkpt lat="44.638776" lon="7.6603165"><ele>318.5</ele><time>2026-04-21T06:36:18.057Z</time></trkpt><trkpt lat="44.6387385" lon="7.660498"><ele>318.75</ele><time>2026-04-21T06:36:19.056Z</time></trkpt><trkpt lat="44.6386978" lon="7.6606764"><ele>319.0</ele><time>2026-04-21T06:36:20.05Z</time></trkpt><trkpt lat="44.6386567" lon="7.6608402"><ele>318.75</ele><time>2026-04-21T06:36:21.056Z</time></trkpt><trkpt lat="44.6386193" lon="7.6609921"><ele>318.5</ele><time>2026-04-21T06:36:22.054Z</time></trkpt><trkpt lat="44.6385803" lon="7.6611533"><ele>318.25</ele><time>2026-04-21T06:36:23.055Z</time></trkpt><trkpt lat="44.6385374" lon="7.6613205"><ele>318.0</ele><time>2026-04-21T06:36:24.045Z</time></trkpt><trkpt lat="44.6384972" lon="7.6614829"><ele>318.0</ele><time>2026-04-21T06:36:25.05Z</time></trkpt><trkpt lat="44.6384622" lon="7.6616344"><ele>318.0</ele><time>2026-04-21T06:36:26.055Z</time></trkpt><trkpt lat="44.6384295" lon="7.6617717"><ele>318.0</ele><time>2026-04-21T06:36:27.053Z</time></trkpt><trkpt lat="44.6383938" lon="7.6619015"><ele>318.0</ele><time>2026-04-21T06:36:28.053Z</time></trkpt><trkpt lat="44.6383635" lon="7.6620154"><ele>318.0</ele><time>2026-04-21T06:36:29.053Z</time></trkpt><trkpt lat="44.638339" lon="7.6621065"><ele>318.0</ele><time>2026-04-21T06:36:30.049Z</time></trkpt><trkpt lat="44.6383013" lon="7.6622472"><ele>318.0</ele><time>2026-04-21T06:36:32.053Z</time></trkpt><trkpt lat="44.6382715" lon="7.6623492"><ele>318.0</ele><time>2026-04-21T06:36:34.045Z</time></trkpt><trkpt lat="44.6382435" lon="7.6624547"><ele>318.0</ele><time>2026-04-21T06:36:36.05Z</time></trkpt><trkpt lat="44.6382074" lon="7.6625733"><ele>318.0</ele><time>2026-04-21T06:36:38.052Z</time></trkpt><trkpt lat="44.63818" lon="7.6626837"><ele>318.0</ele><time>2026-04-21T06:36:40.051Z</time></trkpt><trkpt lat="44.6381471" lon="7.6627921"><ele>318.0</ele><time>2026-04-21T06:36:42.044Z</time></trkpt><trkpt lat="44.6381164" lon="7.6628906"><ele>318.0</ele><time>2026-04-21T06:36:44.05Z</time></trkpt><trkpt lat="44.6380795" lon="7.6629931"><ele>318.0</ele><time>2026-04-21T06:36:46.045Z</time></trkpt><trkpt lat="44.6380327" lon="7.6630944"><ele>318.0</ele><time>2026-04-21T06:36:48.055Z</time></trkpt><trkpt lat="44.637986" lon="7.6631876"><ele>318.0</ele><time>2026-04-21T06:36:50.045Z</time></trkpt><trkpt lat="44.6379376" lon="7.6632719"><ele>318.0</ele><time>2026-04-21T06:36:52.053Z</time></trkpt><trkpt lat="44.6378892" lon="7.663344"><ele>318.0</ele><time>2026-04-21T06:36:54.052Z</time></trkpt><trkpt lat="44.6378416" lon="7.6634166"><ele>318.0</ele><time>2026-04-21T06:36:56.053Z</time></trkpt><trkpt lat="44.637777" lon="7.6635218"><ele>318.0</ele><time>2026-04-21T06:36:59.052Z</time></trkpt><trkpt lat="44.637721" lon="7.6635859"><ele>318.0</ele><time>2026-04-21T06:37:02.047Z</time></trkpt><trkpt lat="44.6376536" lon="7.6636737"><ele>318.0</ele><time>2026-04-21T06:37:07.051Z</time></trkpt><trkpt lat="44.6375683" lon="7.6637858"><ele>318.4</ele><time>2026-04-21T06:37:09.049Z</time></trkpt><trkpt lat="44.6375104" lon="7.6638566"><ele>318.8</ele><time>2026-04-21T06:37:10.047Z</time></trkpt><trkpt lat="44.6374372" lon="7.6639265"><ele>319.2</ele><time>2026-04-21T06:37:11.052Z</time></trkpt><trkpt lat="44.6373545" lon="7.6639902"><ele>319.6</ele><time>2026-04-21T06:37:12.055Z</time></trkpt><trkpt lat="44.6372607" lon="7.664049"><ele>320.0</ele><time>2026-04-21T06:37:13.053Z</time></trkpt><trkpt lat="44.6371566" lon="7.6641028"><ele>320.0</ele><time>2026-04-21T06:37:14.047Z</time></trkpt><trkpt lat="44.6370452" lon="7.664158"><ele>320.0</ele><time>2026-04-21T06:37:15.057Z</time></trkpt><trkpt lat="44.6369265" lon="7.6642083"><ele>320.0</ele><time>2026-04-21T06:37:16.053Z</time></trkpt><trkpt lat="44.6368011" lon="7.6642484"><ele>320.0</ele><time>2026-04-21T06:37:17.044Z</time></trkpt><trkpt lat="44.636672" lon="7.6642799"><ele>319.5</ele><time>2026-04-21T06:37:18.05Z</time></trkpt><trkpt lat="44.636537" lon="7.6643124"><ele>319.0</ele><time>2026-04-21T06:37:19.047Z</time></trkpt><trkpt lat="44.6363936" lon="7.6643455"><ele>318.5</ele><time>2026-04-21T06:37:20.051Z</time></trkpt><trkpt lat="44.6362461" lon="7.6643806"><ele>318.0</ele><time>2026-04-21T06:37:21.051Z</time></trkpt><trkpt lat="44.6360923" lon="7.6644143"><ele>317.0</ele><time>2026-04-21T06:37:22.047Z</time></trkpt><trkpt lat="44.6359338" lon="7.6644517"><ele>316.0</ele><time>2026-04-21T06:37:23.058Z</time></trkpt><trkpt lat="44.6357721" lon="7.6644896"><ele>315.0</ele><time>2026-04-21T06:37:24.049Z</time></trkpt><trkpt lat="44.6356091" lon="7.6645246"><ele>315.0</ele><time>2026-04-21T06:37:25.055Z</time></trkpt><trkpt lat="44.635445" lon="7.6645612"><ele>315.0</ele><time>2026-04-21T06:37:26.057Z</time></trkpt><trkpt lat="44.6352783" lon="7.664601"><ele>315.0</ele><time>2026-04-21T06:37:27.054Z</time></trkpt><trkpt lat="44.6351064" lon="7.6646426"><ele>316.0</ele><time>2026-04-21T06:37:28.056Z</time></trkpt><trkpt lat="44.6349313" lon="7.664679"><ele>317.0</ele><time>2026-04-21T06:37:29.05Z</time></trkpt><trkpt lat="44.6347524" lon="7.6647161"><ele>318.0</ele><time>2026-04-21T06:37:30.047Z</time></trkpt><trkpt lat="44.634572" lon="7.6647527"><ele>319.0</ele><time>2026-04-21T06:37:31.057Z</time></trkpt><trkpt lat="44.6343906" lon="7.6647903"><ele>320.0</ele><time>2026-04-21T06:37:32.052Z</time></trkpt><trkpt lat="44.6342112" lon="7.6648333"><ele>321.0</ele><time>2026-04-21T06:37:33.058Z</time></trkpt><trkpt lat="44.6340288" lon="7.6648774"><ele>321.0</ele><time>2026-04-21T06:37:34.056Z</time></trkpt><trkpt lat="44.6338449" lon="7.6649218"><ele>321.0</ele><time>2026-04-21T06:37:35.052Z</time></trkpt><trkpt lat="44.6336589" lon="7.6649662"><ele>321.0</ele><time>2026-04-21T06:37:36.057Z</time></trkpt><trkpt lat="44.6334722" lon="7.665012"><ele>320.0</ele><time>2026-04-21T06:37:37.057Z</time></trkpt><trkpt lat="44.6332857" lon="7.6650543"><ele>319.0</ele><time>2026-04-21T06:37:38.058Z</time></trkpt><trkpt lat="44.6331024" lon="7.6650979"><ele>318.0</ele><time>2026-04-21T06:37:39.057Z</time></trkpt><trkpt lat="44.6329146" lon="7.6651387"><ele>317.6666666666667</ele><time>2026-04-21T06:37:40.054Z</time></trkpt><trkpt lat="44.6327268" lon="7.6651809"><ele>317.33333333333337</ele><time>2026-04-21T06:37:41.058Z</time></trkpt><trkpt lat="44.6325375" lon="7.6652253"><ele>317.0</ele><time>2026-04-21T06:37:42.053Z</time></trkpt><trkpt lat="44.6323492" lon="7.6652713"><ele>317.33333333333337</ele><time>2026-04-21T06:37:43.058Z</time></trkpt><trkpt lat="44.6321611" lon="7.6653172"><ele>317.6666666666667</ele><time>2026-04-21T06:37:44.054Z</time></trkpt><trkpt lat="44.6319742" lon="7.6653606"><ele>318.0</ele><time>2026-04-21T06:37:45.055Z</time></trkpt><trkpt lat="44.6317861" lon="7.6654029"><ele>318.0</ele><time>2026-04-21T06:37:46.051Z</time></trkpt><trkpt lat="44.6315979" lon="7.6654453"><ele>318.0</ele><time>2026-04-21T06:37:47.058Z</time></trkpt><trkpt lat="44.6314082" lon="7.6654882"><ele>318.0</ele><time>2026-04-21T06:37:48.054Z</time></trkpt><trkpt lat="44.6312209" lon="7.6655301"><ele>318.0</ele><time>2026-04-21T06:37:49.055Z</time></trkpt><trkpt lat="44.6310363" lon="7.6655734"><ele>318.0</ele><time>2026-04-21T06:37:50.052Z</time></trkpt><trkpt lat="44.6308498" lon="7.6656154"><ele>318.0</ele><time>2026-04-21T06:37:51.055Z</time></trkpt><trkpt lat="44.6306613" lon="7.6656568"><ele>318.0</ele><time>2026-04-21T06:37:52.059Z</time></trkpt><trkpt lat="44.6304736" lon="7.6656995"><ele>318.0</ele><time>2026-04-21T06:37:53.061Z</time></trkpt><trkpt lat="44.6302823" lon="7.6657425"><ele>318.0</ele><time>2026-04-21T06:37:54.055Z</time></trkpt><trkpt lat="44.6300906" lon="7.6657877"><ele>317.6666666666667</ele><time>2026-04-21T06:37:55.055Z</time></trkpt><trkpt lat="44.6298994" lon="7.665832"><ele>317.33333333333337</ele><time>2026-04-21T06:37:56.052Z</time></trkpt><trkpt lat="44.6297066" lon="7.6658785"><ele>317.0</ele><time>2026-04-21T06:37:57.051Z</time></trkpt><trkpt lat="44.6295155" lon="7.6659252"><ele>317.33333333333337</ele><time>2026-04-21T06:37:58.056Z</time></trkpt><trkpt lat="44.629324" lon="7.6659706"><ele>317.6666666666667</ele><time>2026-04-21T06:37:59.072Z</time></trkpt><trkpt lat="44.6291299" lon="7.6660172"><ele>318.0</ele><time>2026-04-21T06:38:00.062Z</time></trkpt><trkpt lat="44.6289397" lon="7.6660616"><ele>318.0</ele><time>2026-04-21T06:38:01.071Z</time></trkpt><trkpt lat="44.6287445" lon="7.6661076"><ele>318.0</ele><time>2026-04-21T06:38:02.06Z</time></trkpt><trkpt lat="44.6285488" lon="7.6661508"><ele>318.0</ele><time>2026-04-21T06:38:03.054Z</time></trkpt><trkpt lat="44.6283526" lon="7.6661908"><ele>318.6666666666667</ele><time>2026-04-21T06:38:04.074Z</time></trkpt><trkpt lat="44.6281579" lon="7.666224"><ele>319.33333333333337</ele><time>2026-04-21T06:38:05.052Z</time></trkpt><trkpt lat="44.6279666" lon="7.6662502"><ele>320.0</ele><time>2026-04-21T06:38:06.071Z</time></trkpt><trkpt lat="44.6277736" lon="7.6662622"><ele>320.0</ele><time>2026-04-21T06:38:07.07Z</time></trkpt><trkpt lat="44.6275768" lon="7.6662546"><ele>320.0</ele><time>2026-04-21T06:38:08.061Z</time></trkpt><trkpt lat="44.6273797" lon="7.666237"><ele>320.0</ele><time>2026-04-21T06:38:09.065Z</time></trkpt><trkpt lat="44.6271855" lon="7.6662043"><ele>320.0</ele><time>2026-04-21T06:38:10.058Z</time></trkpt><trkpt lat="44.6269945" lon="7.6661622"><ele>320.0</ele><time>2026-04-21T06:38:11.071Z</time></trkpt><trkpt lat="44.6268036" lon="7.6661163"><ele>320.0</ele><time>2026-04-21T06:38:12.068Z</time></trkpt><trkpt lat="44.626622" lon="7.6660706"><ele>320.0</ele><time>2026-04-21T06:38:13.077Z</time></trkpt><trkpt lat="44.6264499" lon="7.6660275"><ele>320.0</ele><time>2026-04-21T06:38:14.069Z</time></trkpt><trkpt lat="44.6262809" lon="7.6659887"><ele>320.0</ele><time>2026-04-21T06:38:15.071Z</time></trkpt><trkpt lat="44.6261111" lon="7.6659461"><ele>320.0</ele><time>2026-04-21T06:38:16.053Z</time></trkpt><trkpt lat="44.62594" lon="7.6659074"><ele>320.0</ele><time>2026-04-21T06:38:17.072Z</time></trkpt><trkpt lat="44.6257672" lon="7.6658701"><ele>320.0</ele><time>2026-04-21T06:38:18.057Z</time></trkpt><trkpt lat="44.6255908" lon="7.6658313"><ele>320.0</ele><time>2026-04-21T06:38:19.07Z</time></trkpt><trkpt lat="44.6254097" lon="7.6657899"><ele>320.0</ele><time>2026-04-21T06:38:20.062Z</time></trkpt><trkpt lat="44.6252236" lon="7.6657466"><ele>320.0</ele><time>2026-04-21T06:38:21.073Z</time></trkpt><trkpt lat="44.6250381" lon="7.6657043"><ele>320.33333333333337</ele><time>2026-04-21T06:38:22.066Z</time></trkpt><trkpt lat="44.6248489" lon="7.6656605"><ele>320.6666666666667</ele><time>2026-04-21T06:38:23.074Z</time></trkpt><trkpt lat="44.6246552" lon="7.6656151"><ele>321.0</ele><time>2026-04-21T06:38:24.076Z</time></trkpt><trkpt lat="44.6244591" lon="7.6655711"><ele>321.3333333333333</ele><time>2026-04-21T06:38:25.074Z</time></trkpt><trkpt lat="44.6242615" lon="7.6655267"><ele>321.66666666666663</ele><time>2026-04-21T06:38:26.076Z</time></trkpt><trkpt lat="44.6240642" lon="7.6654813"><ele>322.0</ele><time>2026-04-21T06:38:27.067Z</time></trkpt><trkpt lat="44.623868" lon="7.6654352"><ele>322.0</ele><time>2026-04-21T06:38:28.074Z</time></trkpt><trkpt lat="44.6236715" lon="7.6653909"><ele>322.0</ele><time>2026-04-21T06:38:29.064Z</time></trkpt><trkpt lat="44.623473" lon="7.6653462"><ele>322.0</ele><time>2026-04-21T06:38:30.066Z</time></trkpt><trkpt lat="44.6232727" lon="7.6653012"><ele>322.0</ele><time>2026-04-21T06:38:31.071Z</time></trkpt><trkpt lat="44.6230721" lon="7.6652573"><ele>322.0</ele><time>2026-04-21T06:38:32.058Z</time></trkpt><trkpt lat="44.6228701" lon="7.665213"><ele>322.0</ele><time>2026-04-21T06:38:33.069Z</time></trkpt><trkpt lat="44.6226653" lon="7.6651649"><ele>322.0</ele><time>2026-04-21T06:38:34.068Z</time></trkpt><trkpt lat="44.6224588" lon="7.6651134"><ele>322.0</ele><time>2026-04-21T06:38:35.068Z</time></trkpt><trkpt lat="44.6222512" lon="7.6650643"><ele>322.0</ele><time>2026-04-21T06:38:36.062Z</time></trkpt><trkpt lat="44.6220412" lon="7.6650158"><ele>322.66666666666663</ele><time>2026-04-21T06:38:37.063Z</time></trkpt><trkpt lat="44.6218298" lon="7.6649676"><ele>323.3333333333333</ele><time>2026-04-21T06:38:38.064Z</time></trkpt><trkpt lat="44.6216196" lon="7.6649198"><ele>324.0</ele><time>2026-04-21T06:38:39.068Z</time></trkpt><trkpt lat="44.6214094" lon="7.6648715"><ele>324.0</ele><time>2026-04-21T06:38:40.063Z</time></trkpt><trkpt lat="44.6211977" lon="7.6648214"><ele>324.0</ele><time>2026-04-21T06:38:41.056Z</time></trkpt><trkpt lat="44.6209885" lon="7.664773"><ele>324.0</ele><time>2026-04-21T06:38:42.062Z</time></trkpt><trkpt lat="44.6207761" lon="7.664724"><ele>323.6666666666667</ele><time>2026-04-21T06:38:43.06Z</time></trkpt><trkpt lat="44.6205616" lon="7.6646754"><ele>323.33333333333337</ele><time>2026-04-21T06:38:44.068Z</time></trkpt><trkpt lat="44.620347" lon="7.6646289"><ele>323.0</ele><time>2026-04-21T06:38:45.067Z</time></trkpt><trkpt lat="44.6201349" lon="7.6645809"><ele>323.0</ele><time>2026-04-21T06:38:46.064Z</time></trkpt><trkpt lat="44.6199247" lon="7.6645299"><ele>323.0</ele><time>2026-04-21T06:38:47.052Z</time></trkpt><trkpt lat="44.6197139" lon="7.6644788"><ele>323.0</ele><time>2026-04-21T06:38:48.067Z</time></trkpt><trkpt lat="44.6195026" lon="7.6644313"><ele>324.0</ele><time>2026-04-21T06:38:49.066Z</time></trkpt><trkpt lat="44.6192916" lon="7.6643839"><ele>325.0</ele><time>2026-04-21T06:38:50.074Z</time></trkpt><trkpt lat="44.6190814" lon="7.6643362"><ele>326.0</ele><time>2026-04-21T06:38:51.063Z</time></trkpt><trkpt lat="44.6188727" lon="7.6642904"><ele>326.0</ele><time>2026-04-21T06:38:52.069Z</time></trkpt><trkpt lat="44.618664" lon="7.6642437"><ele>326.0</ele><time>2026-04-21T06:38:53.069Z</time></trkpt><trkpt lat="44.6184568" lon="7.6641935"><ele>326.0</ele><time>2026-04-21T06:38:54.069Z</time></trkpt><trkpt lat="44.6182493" lon="7.664145"><ele>326.0</ele><time>2026-04-21T06:38:55.07Z</time></trkpt><trkpt lat="44.6180422" lon="7.6640986"><ele>326.0</ele><time>2026-04-21T06:38:56.064Z</time></trkpt><trkpt lat="44.6178362" lon="7.6640537"><ele>326.0</ele><time>2026-04-21T06:38:57.074Z</time></trkpt><trkpt lat="44.617629" lon="7.6640098"><ele>326.0</ele><time>2026-04-21T06:38:58.069Z</time></trkpt><trkpt lat="44.6174218" lon="7.6639638"><ele>326.0</ele><time>2026-04-21T06:38:59.075Z</time></trkpt><trkpt lat="44.6172161" lon="7.6639163"><ele>326.0</ele><time>2026-04-21T06:39:00.064Z</time></trkpt><trkpt lat="44.6170116" lon="7.6638682"><ele>325.33333333333337</ele><time>2026-04-21T06:39:01.071Z</time></trkpt><trkpt lat="44.6168054" lon="7.6638217"><ele>324.6666666666667</ele><time>2026-04-21T06:39:02.062Z</time></trkpt><trkpt lat="44.6165982" lon="7.6637752"><ele>324.0</ele><time>2026-04-21T06:39:03.078Z</time></trkpt><trkpt lat="44.6163916" lon="7.6637288"><ele>324.0</ele><time>2026-04-21T06:39:04.073Z</time></trkpt><trkpt lat="44.6161833" lon="7.6636827"><ele>324.0</ele><time>2026-04-21T06:39:05.066Z</time></trkpt><trkpt lat="44.6159758" lon="7.663637"><ele>324.0</ele><time>2026-04-21T06:39:06.074Z</time></trkpt><trkpt lat="44.615768" lon="7.6635888"><ele>324.6666666666667</ele><time>2026-04-21T06:39:07.074Z</time></trkpt><trkpt lat="44.6155617" lon="7.6635392"><ele>325.33333333333337</ele><time>2026-04-21T06:39:08.064Z</time></trkpt><trkpt lat="44.6153564" lon="7.6634897"><ele>326.0</ele><time>2026-04-21T06:39:09.057Z</time></trkpt><trkpt lat="44.6151489" lon="7.663443"><ele>326.0</ele><time>2026-04-21T06:39:10.069Z</time></trkpt><trkpt lat="44.6149411" lon="7.663398"><ele>326.0</ele><time>2026-04-21T06:39:11.065Z</time></trkpt><trkpt lat="44.6147344" lon="7.663351"><ele>326.0</ele><time>2026-04-21T06:39:12.068Z</time></trkpt><trkpt lat="44.6145275" lon="7.663305"><ele>326.33333333333337</ele><time>2026-04-21T06:39:13.068Z</time></trkpt><trkpt lat="44.614321" lon="7.6632576"><ele>326.6666666666667</ele><time>2026-04-21T06:39:14.064Z</time></trkpt><trkpt lat="44.6141148" lon="7.6632081"><ele>327.0</ele><time>2026-04-21T06:39:15.068Z</time></trkpt><trkpt lat="44.6139081" lon="7.6631575"><ele>327.0</ele><time>2026-04-21T06:39:16.073Z</time></trkpt><trkpt lat="44.6137003" lon="7.6631094"><ele>327.0</ele><time>2026-04-21T06:39:17.076Z</time></trkpt><trkpt lat="44.6134941" lon="7.6630614"><ele>327.0</ele><time>2026-04-21T06:39:18.072Z</time></trkpt><trkpt lat="44.6132889" lon="7.6630166"><ele>327.3333333333333</ele><time>2026-04-21T06:39:19.054Z</time></trkpt><trkpt lat="44.6130845" lon="7.6629703"><ele>327.66666666666663</ele><time>2026-04-21T06:39:20.053Z</time></trkpt><trkpt lat="44.6128801" lon="7.6629246"><ele>328.0</ele><time>2026-04-21T06:39:21.054Z</time></trkpt><trkpt lat="44.6126759" lon="7.6628766"><ele>328.0</ele><time>2026-04-21T06:39:22.053Z</time></trkpt><trkpt lat="44.6124709" lon="7.6628268"><ele>328.0</ele><time>2026-04-21T06:39:23.067Z</time></trkpt><trkpt lat="44.6122647" lon="7.6627776"><ele>328.0</ele><time>2026-04-21T06:39:24.056Z</time></trkpt><trkpt lat="44.6120584" lon="7.6627299"><ele>328.66666666666663</ele><time>2026-04-21T06:39:25.075Z</time></trkpt><trkpt lat="44.6118532" lon="7.6626826"><ele>329.3333333333333</ele><time>2026-04-21T06:39:26.072Z</time></trkpt><trkpt lat="44.611648" lon="7.6626355"><ele>330.0</ele><time>2026-04-21T06:39:27.058Z</time></trkpt><trkpt lat="44.6114406" lon="7.6625895"><ele>330.0</ele><time>2026-04-21T06:39:28.063Z</time></trkpt><trkpt lat="44.6112344" lon="7.6625427"><ele>330.0</ele><time>2026-04-21T06:39:29.061Z</time></trkpt><trkpt lat="44.6110287" lon="7.6624967"><ele>330.0</ele><time>2026-04-21T06:39:30.067Z</time></trkpt><trkpt lat="44.6108224" lon="7.6624472"><ele>330.0</ele><time>2026-04-21T06:39:31.068Z</time></trkpt><trkpt lat="44.6106146" lon="7.6623984"><ele>330.0</ele><time>2026-04-21T06:39:32.065Z</time></trkpt><trkpt lat="44.610408" lon="7.6623506"><ele>330.0</ele><time>2026-04-21T06:39:33.068Z</time></trkpt><trkpt lat="44.610201" lon="7.6623048"><ele>330.0</ele><time>2026-04-21T06:39:34.074Z</time></trkpt><trkpt lat="44.6099942" lon="7.6622564"><ele>330.0</ele><time>2026-04-21T06:39:35.07Z</time></trkpt><trkpt lat="44.6097852" lon="7.6622062"><ele>330.0</ele><time>2026-04-21T06:39:36.066Z</time></trkpt><trkpt lat="44.6095766" lon="7.6621585"><ele>330.3333333333333</ele><time>2026-04-21T06:39:37.075Z</time></trkpt><trkpt lat="44.6093677" lon="7.6621114"><ele>330.66666666666663</ele><time>2026-04-21T06:39:38.068Z</time></trkpt><trkpt lat="44.609159" lon="7.662064"><ele>331.0</ele><time>2026-04-21T06:39:39.061Z</time></trkpt><trkpt lat="44.6089494" lon="7.6620163"><ele>331.0</ele><time>2026-04-21T06:39:40.059Z</time></trkpt><trkpt lat="44.6087386" lon="7.6619687"><ele>331.0</ele><time>2026-04-21T06:39:41.063Z</time></trkpt><trkpt lat="44.6085279" lon="7.6619219"><ele>331.0</ele><time>2026-04-21T06:39:42.057Z</time></trkpt><trkpt lat="44.608317" lon="7.661875"><ele>331.3333333333333</ele><time>2026-04-21T06:39:43.069Z</time></trkpt><trkpt lat="44.6081049" lon="7.6618287"><ele>331.6666666666667</ele><time>2026-04-21T06:39:44.057Z</time></trkpt><trkpt lat="44.6078935" lon="7.661782"><ele>332.0</ele><time>2026-04-21T06:39:45.056Z</time></trkpt><trkpt lat="44.6076823" lon="7.6617353"><ele>332.0</ele><time>2026-04-21T06:39:46.055Z</time></trkpt><trkpt lat="44.6074718" lon="7.6616872"><ele>332.0</ele><time>2026-04-21T06:39:47.064Z</time></trkpt><trkpt lat="44.6072618" lon="7.6616392"><ele>332.0</ele><time>2026-04-21T06:39:48.068Z</time></trkpt><trkpt lat="44.6070525" lon="7.66159"><ele>332.33333333333337</ele><time>2026-04-21T06:39:49.055Z</time></trkpt><trkpt lat="44.6068455" lon="7.6615414"><ele>332.6666666666667</ele><time>2026-04-21T06:39:50.071Z</time></trkpt><trkpt lat="44.6066423" lon="7.6614931"><ele>333.0</ele><time>2026-04-21T06:39:51.078Z</time></trkpt><trkpt lat="44.6064412" lon="7.6614449"><ele>333.0</ele><time>2026-04-21T06:39:52.049Z</time></trkpt><trkpt lat="44.6062413" lon="7.6613983"><ele>333.0</ele><time>2026-04-21T06:39:53.078Z</time></trkpt><trkpt lat="44.606042" lon="7.6613539"><ele>333.0</ele><time>2026-04-21T06:39:54.067Z</time></trkpt><trkpt lat="44.6058428" lon="7.6613085"><ele>332.6666666666667</ele><time>2026-04-21T06:39:55.06Z</time></trkpt><trkpt lat="44.6056423" lon="7.6612637"><ele>332.33333333333337</ele><time>2026-04-21T06:39:56.068Z</time></trkpt><trkpt lat="44.6054409" lon="7.6612201"><ele>332.0</ele><time>2026-04-21T06:39:57.073Z</time></trkpt><trkpt lat="44.6052391" lon="7.6611764"><ele>332.0</ele><time>2026-04-21T06:39:58.064Z</time></trkpt><trkpt lat="44.6050353" lon="7.6611319"><ele>332.0</ele><time>2026-04-21T06:39:59.074Z</time></trkpt><trkpt lat="44.6048302" lon="7.6610862"><ele>332.0</ele><time>2026-04-21T06:40:00.065Z</time></trkpt><trkpt lat="44.6046256" lon="7.6610416"><ele>332.33333333333337</ele><time>2026-04-21T06:40:01.053Z</time></trkpt><trkpt lat="44.6044221" lon="7.6609969"><ele>332.6666666666667</ele><time>2026-04-21T06:40:02.063Z</time></trkpt><trkpt lat="44.6042176" lon="7.6609515"><ele>333.0</ele><time>2026-04-21T06:40:03.066Z</time></trkpt><trkpt lat="44.6040128" lon="7.6609051"><ele>333.0</ele><time>2026-04-21T06:40:04.071Z</time></trkpt><trkpt lat="44.60381" lon="7.660857"><ele>333.0</ele><time>2026-04-21T06:40:05.056Z</time></trkpt><trkpt lat="44.6036081" lon="7.6608086"><ele>333.0</ele><time>2026-04-21T06:40:06.046Z</time></trkpt><trkpt lat="44.6034098" lon="7.6607619"><ele>334.0</ele><time>2026-04-21T06:40:07.064Z</time></trkpt><trkpt lat="44.6032196" lon="7.6607182"><ele>335.0</ele><time>2026-04-21T06:40:08.058Z</time></trkpt><trkpt lat="44.603039" lon="7.6606755"><ele>336.0</ele><time>2026-04-21T06:40:09.071Z</time></trkpt><trkpt lat="44.6028671" lon="7.6606382"><ele>335.6666666666667</ele><time>2026-04-21T06:40:10.067Z</time></trkpt><trkpt lat="44.6027042" lon="7.6606049"><ele>335.33333333333337</ele><time>2026-04-21T06:40:11.065Z</time></trkpt><trkpt lat="44.6025486" lon="7.6605707"><ele>335.0</ele><time>2026-04-21T06:40:12.07Z</time></trkpt><trkpt lat="44.6024052" lon="7.6605351"><ele>335.0</ele><time>2026-04-21T06:40:13.07Z</time></trkpt><trkpt lat="44.6022795" lon="7.6605011"><ele>335.0</ele><time>2026-04-21T06:40:14.063Z</time></trkpt><trkpt lat="44.602168" lon="7.6604692"><ele>335.0</ele><time>2026-04-21T06:40:15.068Z</time></trkpt><trkpt lat="44.6020696" lon="7.6604347"><ele>335.0</ele><time>2026-04-21T06:40:16.061Z</time></trkpt><trkpt lat="44.6019836" lon="7.6603887"><ele>335.0</ele><time>2026-04-21T06:40:17.063Z</time></trkpt><trkpt lat="44.6019088" lon="7.6603212"><ele>335.1666666666667</ele><time>2026-04-21T06:40:18.064Z</time></trkpt><trkpt lat="44.6018515" lon="7.6602419"><ele>335.33333333333337</ele><time>2026-04-21T06:40:19.061Z</time></trkpt><trkpt lat="44.6017968" lon="7.6601726"><ele>335.5</ele><time>2026-04-21T06:40:20.053Z</time></trkpt><trkpt lat="44.6017343" lon="7.6601253"><ele>335.6666666666667</ele><time>2026-04-21T06:40:21.06Z</time></trkpt><trkpt lat="44.6016598" lon="7.6601224"><ele>335.8333333333333</ele><time>2026-04-21T06:40:22.065Z</time></trkpt><trkpt lat="44.6015651" lon="7.6601629"><ele>336.0</ele><time>2026-04-21T06:40:23.074Z</time></trkpt><trkpt lat="44.6014637" lon="7.6602092"><ele>336.0</ele><time>2026-04-21T06:40:24.063Z</time></trkpt><trkpt lat="44.6013612" lon="7.6602293"><ele>336.0</ele><time>2026-04-21T06:40:25.072Z</time></trkpt><trkpt lat="44.601261" lon="7.6602234"><ele>336.0</ele><time>2026-04-21T06:40:26.062Z</time></trkpt><trkpt lat="44.6011544" lon="7.6602108"><ele>336.0</ele><time>2026-04-21T06:40:27.061Z</time></trkpt><trkpt lat="44.6010459" lon="7.6601833"><ele>336.0</ele><time>2026-04-21T06:40:28.067Z</time></trkpt><trkpt lat="44.6009261" lon="7.6601546"><ele>336.25</ele><time>2026-04-21T06:40:29.054Z</time></trkpt><trkpt lat="44.6007896" lon="7.6601227"><ele>336.5</ele><time>2026-04-21T06:40:30.065Z</time></trkpt><trkpt lat="44.6006449" lon="7.6600915"><ele>336.75</ele><time>2026-04-21T06:40:31.064Z</time></trkpt><trkpt lat="44.6005017" lon="7.6600614"><ele>337.0</ele><time>2026-04-21T06:40:32.053Z</time></trkpt><trkpt lat="44.6003581" lon="7.6600273"><ele>337.25</ele><time>2026-04-21T06:40:33.072Z</time></trkpt><trkpt lat="44.6002256" lon="7.6599925"><ele>337.5</ele><time>2026-04-21T06:40:34.064Z</time></trkpt><trkpt lat="44.6001034" lon="7.6599625"><ele>337.75</ele><time>2026-04-21T06:40:35.058Z</time></trkpt><trkpt lat="44.5999886" lon="7.6599309"><ele>338.0</ele><time>2026-04-21T06:40:36.059Z</time></trkpt><trkpt lat="44.5998805" lon="7.6599029"><ele>338.0</ele><time>2026-04-21T06:40:37.057Z</time></trkpt><trkpt lat="44.5997819" lon="7.6598782"><ele>338.0</ele><time>2026-04-21T06:40:38.064Z</time></trkpt><trkpt lat="44.5996922" lon="7.6598592"><ele>338.0</ele><time>2026-04-21T06:40:39.058Z</time></trkpt><trkpt lat="44.5996029" lon="7.6598347"><ele>338.0</ele><time>2026-04-21T06:40:40.064Z</time></trkpt><trkpt lat="44.5995108" lon="7.6598216"><ele>338.0</ele><time>2026-04-21T06:40:41.053Z</time></trkpt><trkpt lat="44.5994074" lon="7.6598023"><ele>338.25</ele><time>2026-04-21T06:40:42.063Z</time></trkpt><trkpt lat="44.599296" lon="7.6597797"><ele>338.5</ele><time>2026-04-21T06:40:43.062Z</time></trkpt><trkpt lat="44.5991789" lon="7.6597536"><ele>338.75</ele><time>2026-04-21T06:40:44.056Z</time></trkpt><trkpt lat="44.5990658" lon="7.6597257"><ele>339.0</ele><time>2026-04-21T06:40:45.065Z</time></trkpt><trkpt lat="44.5989587" lon="7.6597006"><ele>339.0</ele><time>2026-04-21T06:40:46.066Z</time></trkpt><trkpt lat="44.598862" lon="7.6596814"><ele>339.0</ele><time>2026-04-21T06:40:47.062Z</time></trkpt><trkpt lat="44.5987798" lon="7.6596599"><ele>339.0</ele><time>2026-04-21T06:40:48.05Z</time></trkpt><trkpt lat="44.5987015" lon="7.6596339"><ele>339.0</ele><time>2026-04-21T06:40:49.067Z</time></trkpt><trkpt lat="44.5986214" lon="7.6596046"><ele>339.0</ele><time>2026-04-21T06:40:50.063Z</time></trkpt><trkpt lat="44.5985411" lon="7.6595773"><ele>339.0</ele><time>2026-04-21T06:40:51.061Z</time></trkpt><trkpt lat="44.5984687" lon="7.6595386"><ele>339.0</ele><time>2026-04-21T06:40:52.064Z</time></trkpt><trkpt lat="44.5984104" lon="7.6594745"><ele>339.0</ele><time>2026-04-21T06:40:53.067Z</time></trkpt><trkpt lat="44.5983596" lon="7.6594026"><ele>339.0</ele><time>2026-04-21T06:40:54.055Z</time></trkpt><trkpt lat="44.5983037" lon="7.6593407"><ele>339.0</ele><time>2026-04-21T06:40:55.059Z</time></trkpt><trkpt lat="44.5981895" lon="7.6593105"><ele>339.0</ele><time>2026-04-21T06:40:57.048Z</time></trkpt><trkpt lat="44.5981142" lon="7.659358"><ele>339.0</ele><time>2026-04-21T06:40:58.061Z</time></trkpt><trkpt lat="44.598025" lon="7.6594447"><ele>339.0</ele><time>2026-04-21T06:40:59.065Z</time></trkpt><trkpt lat="44.5979353" lon="7.6595038"><ele>339.0</ele><time>2026-04-21T06:41:00.064Z</time></trkpt><trkpt lat="44.5978402" lon="7.6595169"><ele>339.0</ele><time>2026-04-21T06:41:01.072Z</time></trkpt><trkpt lat="44.5977313" lon="7.6595063"><ele>339.0</ele><time>2026-04-21T06:41:02.063Z</time></trkpt><trkpt lat="44.5976294" lon="7.6594853"><ele>339.0</ele><time>2026-04-21T06:41:03.07Z</time></trkpt><trkpt lat="44.5975262" lon="7.6594563"><ele>339.4</ele><time>2026-04-21T06:41:04.072Z</time></trkpt><trkpt lat="44.597434" lon="7.6594332"><ele>339.79999999999995</ele><time>2026-04-21T06:41:05.053Z</time></trkpt><trkpt lat="44.5973686" lon="7.6594129"><ele>340.20000000000005</ele><time>2026-04-21T06:41:06.05Z</time></trkpt><trkpt lat="44.5972536" lon="7.6593807"><ele>340.6</ele><time>2026-04-21T06:41:08.051Z</time></trkpt><trkpt lat="44.5971256" lon="7.6593519"><ele>341.0</ele><time>2026-04-21T06:41:10.051Z</time></trkpt><trkpt lat="44.5970499" lon="7.6593301"><ele>340.83333333333337</ele><time>2026-04-21T06:41:11.053Z</time></trkpt><trkpt lat="44.5969651" lon="7.6593102"><ele>340.6666666666667</ele><time>2026-04-21T06:41:12.049Z</time></trkpt><trkpt lat="44.5968866" lon="7.6592904"><ele>340.5</ele><time>2026-04-21T06:41:13.053Z</time></trkpt><trkpt lat="44.596821" lon="7.6592747"><ele>340.3333333333333</ele><time>2026-04-21T06:41:14.051Z</time></trkpt><trkpt lat="44.5967016" lon="7.6592546"><ele>340.16666666666663</ele><time>2026-04-21T06:41:16.052Z</time></trkpt><trkpt lat="44.596637" lon="7.6592371"><ele>340.0</ele><time>2026-04-21T06:41:17.052Z</time></trkpt><trkpt lat="44.5965712" lon="7.6592187"><ele>340.0</ele><time>2026-04-21T06:41:18.054Z</time></trkpt><trkpt lat="44.596507" lon="7.6592061"><ele>340.0</ele><time>2026-04-21T06:41:19.059Z</time></trkpt><trkpt lat="44.5964093" lon="7.6591767"><ele>340.0</ele><time>2026-04-21T06:41:21.055Z</time></trkpt><trkpt lat="44.596309" lon="7.6591556"><ele>340.0</ele><time>2026-04-21T06:41:23.056Z</time></trkpt><trkpt lat="44.596208" lon="7.6591348"><ele>340.0</ele><time>2026-04-21T06:41:25.051Z</time></trkpt><trkpt lat="44.5960981" lon="7.6591068"><ele>340.16666666666663</ele><time>2026-04-21T06:41:27.057Z</time></trkpt><trkpt lat="44.5959733" lon="7.6590775"><ele>340.3333333333333</ele><time>2026-04-21T06:41:29.051Z</time></trkpt><trkpt lat="44.5959026" lon="7.6590638"><ele>340.5</ele><time>2026-04-21T06:41:30.05Z</time></trkpt><trkpt lat="44.5958264" lon="7.6590476"><ele>340.6666666666667</ele><time>2026-04-21T06:41:31.059Z</time></trkpt><trkpt lat="44.5957491" lon="7.6590247"><ele>340.83333333333337</ele><time>2026-04-21T06:41:32.054Z</time></trkpt><trkpt lat="44.5956735" lon="7.6590012"><ele>341.0</ele><time>2026-04-21T06:41:33.052Z</time></trkpt><trkpt lat="44.5956" lon="7.6589676"><ele>341.0</ele><time>2026-04-21T06:41:34.051Z</time></trkpt><trkpt lat="44.595527" lon="7.6589188"><ele>341.0</ele><time>2026-04-21T06:41:35.05Z</time></trkpt><trkpt lat="44.5954551" lon="7.6588588"><ele>341.0</ele><time>2026-04-21T06:41:36.049Z</time></trkpt><trkpt lat="44.5953911" lon="7.6588184"><ele>341.0</ele><time>2026-04-21T06:41:37.055Z</time></trkpt><trkpt lat="44.5952774" lon="7.6588589"><ele>341.0</ele><time>2026-04-21T06:41:39.054Z</time></trkpt><trkpt lat="44.5952112" lon="7.6590094"><ele>341.1666666666667</ele><time>2026-04-21T06:41:41.049Z</time></trkpt><trkpt lat="44.5951805" lon="7.6590958"><ele>341.33333333333337</ele><time>2026-04-21T06:41:42.05Z</time></trkpt><trkpt lat="44.59514" lon="7.6591824"><ele>341.5</ele><time>2026-04-21T06:41:43.055Z</time></trkpt><trkpt lat="44.5950795" lon="7.6592506"><ele>341.6666666666667</ele><time>2026-04-21T06:41:44.05Z</time></trkpt><trkpt lat="44.5949958" lon="7.6592984"><ele>341.8333333333333</ele><time>2026-04-21T06:41:45.055Z</time></trkpt><trkpt lat="44.5949019" lon="7.6593287"><ele>342.0</ele><time>2026-04-21T06:41:46.051Z</time></trkpt><trkpt lat="44.5948034" lon="7.6593592"><ele>342.0</ele><time>2026-04-21T06:41:47.059Z</time></trkpt><trkpt lat="44.5947087" lon="7.6593907"><ele>342.0</ele><time>2026-04-21T06:41:48.051Z</time></trkpt><trkpt lat="44.5946174" lon="7.6594148"><ele>342.0</ele><time>2026-04-21T06:41:49.058Z</time></trkpt><trkpt lat="44.5945361" lon="7.6594409"><ele>342.0</ele><time>2026-04-21T06:41:50.054Z</time></trkpt><trkpt lat="44.5944643" lon="7.6594655"><ele>342.0</ele><time>2026-04-21T06:41:51.048Z</time></trkpt><trkpt lat="44.594398" lon="7.6594896"><ele>342.0</ele><time>2026-04-21T06:41:52.048Z</time></trkpt><trkpt lat="44.5943271" lon="7.6595125"><ele>342.6</ele><time>2026-04-21T06:41:53.053Z</time></trkpt><trkpt lat="44.5942501" lon="7.6595393"><ele>343.20000000000005</ele><time>2026-04-21T06:41:54.056Z</time></trkpt><trkpt lat="44.5941644" lon="7.6595716"><ele>343.8</ele><time>2026-04-21T06:41:55.051Z</time></trkpt><trkpt lat="44.594069" lon="7.6596064"><ele>344.4</ele><time>2026-04-21T06:41:56.052Z</time></trkpt><trkpt lat="44.5939675" lon="7.6596433"><ele>345.0</ele><time>2026-04-21T06:41:57.048Z</time></trkpt><trkpt lat="44.5938613" lon="7.6596807"><ele>345.0</ele><time>2026-04-21T06:41:58.051Z</time></trkpt><trkpt lat="44.5937565" lon="7.6597143"><ele>345.0</ele><time>2026-04-21T06:41:59.051Z</time></trkpt><trkpt lat="44.5936545" lon="7.6597503"><ele>345.0</ele><time>2026-04-21T06:42:00.056Z</time></trkpt><trkpt lat="44.5935506" lon="7.6597874"><ele>345.0</ele><time>2026-04-21T06:42:01.055Z</time></trkpt><trkpt lat="44.5934475" lon="7.659823"><ele>345.0</ele><time>2026-04-21T06:42:02.05Z</time></trkpt><trkpt lat="44.5933502" lon="7.6598581"><ele>344.8333333333333</ele><time>2026-04-21T06:42:03.053Z</time></trkpt><trkpt lat="44.5932606" lon="7.6598882"><ele>344.6666666666667</ele><time>2026-04-21T06:42:04.051Z</time></trkpt><trkpt lat="44.5931768" lon="7.6599145"><ele>344.5</ele><time>2026-04-21T06:42:05.053Z</time></trkpt><trkpt lat="44.5930956" lon="7.6599391"><ele>344.33333333333337</ele><time>2026-04-21T06:42:06.054Z</time></trkpt><trkpt lat="44.5930169" lon="7.6599576"><ele>344.1666666666667</ele><time>2026-04-21T06:42:07.051Z</time></trkpt><trkpt lat="44.5929397" lon="7.65996"><ele>344.0</ele><time>2026-04-21T06:42:08.054Z</time></trkpt><trkpt lat="44.5928623" lon="7.6599487"><ele>343.7142857142857</ele><time>2026-04-21T06:42:09.051Z</time></trkpt><trkpt lat="44.5927882" lon="7.6599148"><ele>343.42857142857144</ele><time>2026-04-21T06:42:10.052Z</time></trkpt><trkpt lat="44.5927262" lon="7.6598531"><ele>343.1428571428571</ele><time>2026-04-21T06:42:11.05Z</time></trkpt><trkpt lat="44.592668" lon="7.6597811"><ele>342.8571428571429</ele><time>2026-04-21T06:42:12.052Z</time></trkpt><trkpt lat="44.5926023" lon="7.6597298"><ele>342.57142857142856</ele><time>2026-04-21T06:42:13.057Z</time></trkpt><trkpt lat="44.5925345" lon="7.6596999"><ele>342.2857142857143</ele><time>2026-04-21T06:42:14.053Z</time></trkpt><trkpt lat="44.5924715" lon="7.6597057"><ele>342.0</ele><time>2026-04-21T06:42:15.053Z</time></trkpt><trkpt lat="44.5924283" lon="7.6597743"><ele>342.0</ele><time>2026-04-21T06:42:16.053Z</time></trkpt><trkpt lat="44.5924045" lon="7.659885"><ele>342.0</ele><time>2026-04-21T06:42:17.048Z</time></trkpt><trkpt lat="44.5923772" lon="7.6599985"><ele>342.0</ele><time>2026-04-21T06:42:18.052Z</time></trkpt><trkpt lat="44.5923404" lon="7.6601064"><ele>342.0</ele><time>2026-04-21T06:42:19.049Z</time></trkpt><trkpt lat="44.5922749" lon="7.6602051"><ele>342.0</ele><time>2026-04-21T06:42:20.045Z</time></trkpt><trkpt lat="44.592178" lon="7.6602835"><ele>342.25</ele><time>2026-04-21T06:42:21.057Z</time></trkpt><trkpt lat="44.5920672" lon="7.6603456"><ele>342.5</ele><time>2026-04-21T06:42:22.047Z</time></trkpt><trkpt lat="44.5919476" lon="7.660391"><ele>342.75</ele><time>2026-04-21T06:42:23.059Z</time></trkpt><trkpt lat="44.5918282" lon="7.6604294"><ele>343.0</ele><time>2026-04-21T06:42:24.053Z</time></trkpt><trkpt lat="44.5917128" lon="7.6604643"><ele>343.0</ele><time>2026-04-21T06:42:25.055Z</time></trkpt><trkpt lat="44.5915958" lon="7.6605008"><ele>343.0</ele><time>2026-04-21T06:42:26.058Z</time></trkpt><trkpt lat="44.5914831" lon="7.6605362"><ele>343.0</ele><time>2026-04-21T06:42:27.049Z</time></trkpt><trkpt lat="44.5913783" lon="7.6605681"><ele>343.0</ele><time>2026-04-21T06:42:28.057Z</time></trkpt><trkpt lat="44.5912816" lon="7.6605992"><ele>343.0</ele><time>2026-04-21T06:42:29.052Z</time></trkpt><trkpt lat="44.5911884" lon="7.6606325"><ele>342.79999999999995</ele><time>2026-04-21T06:42:30.059Z</time></trkpt><trkpt lat="44.5910913" lon="7.6606659"><ele>342.6</ele><time>2026-04-21T06:42:31.053Z</time></trkpt><trkpt lat="44.5909917" lon="7.6607005"><ele>342.4</ele><time>2026-04-21T06:42:32.057Z</time></trkpt><trkpt lat="44.5908919" lon="7.6607347"><ele>342.20000000000005</ele><time>2026-04-21T06:42:33.06Z</time></trkpt><trkpt lat="44.5907915" lon="7.6607691"><ele>342.0</ele><time>2026-04-21T06:42:34.045Z</time></trkpt><trkpt lat="44.5906894" lon="7.6608021"><ele>342.0</ele><time>2026-04-21T06:42:35.048Z</time></trkpt><trkpt lat="44.590591" lon="7.6608359"><ele>342.0</ele><time>2026-04-21T06:42:36.048Z</time></trkpt><trkpt lat="44.5904983" lon="7.6608685"><ele>342.0</ele><time>2026-04-21T06:42:37.052Z</time></trkpt><trkpt lat="44.5904111" lon="7.6609007"><ele>342.0</ele><time>2026-04-21T06:42:38.055Z</time></trkpt><trkpt lat="44.5903311" lon="7.6609348"><ele>342.0</ele><time>2026-04-21T06:42:39.054Z</time></trkpt><trkpt lat="44.590257" lon="7.6609607"><ele>342.0</ele><time>2026-04-21T06:42:40.047Z</time></trkpt><trkpt lat="44.590183" lon="7.660986"><ele>342.20000000000005</ele><time>2026-04-21T06:42:41.053Z</time></trkpt><trkpt lat="44.590105" lon="7.6610172"><ele>342.4</ele><time>2026-04-21T06:42:42.047Z</time></trkpt><trkpt lat="44.5900204" lon="7.6610531"><ele>342.6</ele><time>2026-04-21T06:42:43.061Z</time></trkpt><trkpt lat="44.5899312" lon="7.6610855"><ele>342.79999999999995</ele><time>2026-04-21T06:42:44.05Z</time></trkpt><trkpt lat="44.5898325" lon="7.661115"><ele>343.0</ele><time>2026-04-21T06:42:45.048Z</time></trkpt><trkpt lat="44.5897303" lon="7.6611492"><ele>343.2</ele><time>2026-04-21T06:42:46.052Z</time></trkpt><trkpt lat="44.5896278" lon="7.6611851"><ele>343.4</ele><time>2026-04-21T06:42:47.054Z</time></trkpt><trkpt lat="44.5895296" lon="7.6612196"><ele>343.59999999999997</ele><time>2026-04-21T06:42:48.049Z</time></trkpt><trkpt lat="44.5894363" lon="7.6612514"><ele>343.79999999999995</ele><time>2026-04-21T06:42:49.052Z</time></trkpt><trkpt lat="44.58935" lon="7.6612783"><ele>344.0</ele><time>2026-04-21T06:42:50.047Z</time></trkpt><trkpt lat="44.5892649" lon="7.6613033"><ele>344.00000000000006</ele><time>2026-04-21T06:42:51.046Z</time></trkpt><trkpt lat="44.5891841" lon="7.661332"><ele>344.0</ele><time>2026-04-21T06:42:52.047Z</time></trkpt><trkpt lat="44.5891093" lon="7.6613643"><ele>344.0</ele><time>2026-04-21T06:42:53.059Z</time></trkpt><trkpt lat="44.5890395" lon="7.6613941"><ele>344.0</ele><time>2026-04-21T06:42:54.046Z</time></trkpt><trkpt lat="44.5889777" lon="7.6614206"><ele>344.0</ele><time>2026-04-21T06:42:55.047Z</time></trkpt><trkpt lat="44.5889135" lon="7.6614469"><ele>344.00000000000006</ele><time>2026-04-21T06:42:56.053Z</time></trkpt><trkpt lat="44.5888492" lon="7.6614713"><ele>344.0</ele><time>2026-04-21T06:42:57.057Z</time></trkpt><trkpt lat="44.5887832" lon="7.6614927"><ele>344.0</ele><time>2026-04-21T06:42:58.055Z</time></trkpt><trkpt lat="44.5887169" lon="7.6615117"><ele>344.0</ele><time>2026-04-21T06:42:59.048Z</time></trkpt><trkpt lat="44.5886447" lon="7.6615351"><ele>344.0</ele><time>2026-04-21T06:43:00.053Z</time></trkpt><trkpt lat="44.5885772" lon="7.661557"><ele>344.0</ele><time>2026-04-21T06:43:01.05Z</time></trkpt><trkpt lat="44.5884642" lon="7.6615945"><ele>344.0</ele><time>2026-04-21T06:43:03.047Z</time></trkpt><trkpt lat="44.5883627" lon="7.6616381"><ele>344.0</ele><time>2026-04-21T06:43:05.053Z</time></trkpt><trkpt lat="44.5882372" lon="7.6616867"><ele>344.33333333333337</ele><time>2026-04-21T06:43:07.045Z</time></trkpt><trkpt lat="44.5881632" lon="7.6617133"><ele>344.6666666666667</ele><time>2026-04-21T06:43:08.054Z</time></trkpt><trkpt lat="44.5880875" lon="7.6617432"><ele>345.0</ele><time>2026-04-21T06:43:09.047Z</time></trkpt><trkpt lat="44.5880088" lon="7.6617725"><ele>345.3333333333333</ele><time>2026-04-21T06:43:10.049Z</time></trkpt><trkpt lat="44.587931" lon="7.6618013"><ele>345.66666666666663</ele><time>2026-04-21T06:43:11.046Z</time></trkpt><trkpt lat="44.5878616" lon="7.6618234"><ele>346.0</ele><time>2026-04-21T06:43:12.05Z</time></trkpt><trkpt lat="44.5877967" lon="7.6618405"><ele>346.16666666666663</ele><time>2026-04-21T06:43:13.053Z</time></trkpt><trkpt lat="44.5877295" lon="7.6618493"><ele>346.3333333333333</ele><time>2026-04-21T06:43:14.046Z</time></trkpt><trkpt lat="44.5876649" lon="7.6618629"><ele>346.5</ele><time>2026-04-21T06:43:15.049Z</time></trkpt><trkpt lat="44.587572" lon="7.6619132"><ele>346.6666666666667</ele><time>2026-04-21T06:43:17.051Z</time></trkpt><trkpt lat="44.5875531" lon="7.6620387"><ele>346.83333333333337</ele><time>2026-04-21T06:43:19.05Z</time></trkpt><trkpt lat="44.5875749" lon="7.6622097"><ele>347.0</ele><time>2026-04-21T06:43:21.053Z</time></trkpt><trkpt lat="44.5875905" lon="7.6623064"><ele>347.0</ele><time>2026-04-21T06:43:22.054Z</time></trkpt><trkpt lat="44.5876058" lon="7.662409"><ele>347.0</ele><time>2026-04-21T06:43:23.048Z</time></trkpt><trkpt lat="44.5876099" lon="7.6624999"><ele>347.0</ele><time>2026-04-21T06:43:24.044Z</time></trkpt><trkpt lat="44.5876167" lon="7.6626596"><ele>347.0</ele><time>2026-04-21T06:43:26.051Z</time></trkpt><trkpt lat="44.5876266" lon="7.6628053"><ele>347.0</ele><time>2026-04-21T06:43:28.052Z</time></trkpt><trkpt lat="44.5876346" lon="7.6629506"><ele>346.83333333333337</ele><time>2026-04-21T06:43:30.055Z</time></trkpt><trkpt lat="44.5876399" lon="7.6631301"><ele>346.6666666666667</ele><time>2026-04-21T06:43:32.052Z</time></trkpt><trkpt lat="44.5876484" lon="7.6632395"><ele>346.5</ele><time>2026-04-21T06:43:33.064Z</time></trkpt><trkpt lat="44.5876522" lon="7.6633518"><ele>346.3333333333333</ele><time>2026-04-21T06:43:34.05Z</time></trkpt><trkpt lat="44.5876557" lon="7.6634642"><ele>346.16666666666663</ele><time>2026-04-21T06:43:35.05Z</time></trkpt><trkpt lat="44.5876574" lon="7.6635754"><ele>346.0</ele><time>2026-04-21T06:43:36.048Z</time></trkpt><trkpt lat="44.5876576" lon="7.6636914"><ele>346.0</ele><time>2026-04-21T06:43:37.048Z</time></trkpt><trkpt lat="44.5876539" lon="7.663808"><ele>346.0</ele><time>2026-04-21T06:43:38.05Z</time></trkpt><trkpt lat="44.5876439" lon="7.6639219"><ele>346.0</ele><time>2026-04-21T06:43:39.048Z</time></trkpt><trkpt lat="44.5876236" lon="7.6640299"><ele>346.0</ele><time>2026-04-21T06:43:40.048Z</time></trkpt><trkpt lat="44.5875884" lon="7.6641301"><ele>346.0</ele><time>2026-04-21T06:43:41.048Z</time></trkpt><trkpt lat="44.5875345" lon="7.6642121"><ele>346.0</ele><time>2026-04-21T06:43:42.052Z</time></trkpt><trkpt lat="44.5874671" lon="7.6642692"><ele>346.0</ele><time>2026-04-21T06:43:43.051Z</time></trkpt><trkpt lat="44.587388" lon="7.6643098"><ele>346.0</ele><time>2026-04-21T06:43:44.048Z</time></trkpt><trkpt lat="44.5873079" lon="7.6643332"><ele>346.0</ele><time>2026-04-21T06:43:45.051Z</time></trkpt><trkpt lat="44.5872268" lon="7.6643538"><ele>346.0</ele><time>2026-04-21T06:43:46.05Z</time></trkpt><trkpt lat="44.5871502" lon="7.6643848"><ele>346.0</ele><time>2026-04-21T06:43:47.049Z</time></trkpt><trkpt lat="44.587078" lon="7.6644281"><ele>346.0</ele><time>2026-04-21T06:43:48.05Z</time></trkpt><trkpt lat="44.5870065" lon="7.664486"><ele>346.0</ele><time>2026-04-21T06:43:49.053Z</time></trkpt><trkpt lat="44.5869315" lon="7.6645619"><ele>346.0</ele><time>2026-04-21T06:43:50.055Z</time></trkpt><trkpt lat="44.5868581" lon="7.6646549"><ele>346.0</ele><time>2026-04-21T06:43:51.053Z</time></trkpt><trkpt lat="44.5867816" lon="7.6647585"><ele>346.0</ele><time>2026-04-21T06:43:52.056Z</time></trkpt><trkpt lat="44.586706" lon="7.664879"><ele>346.0</ele><time>2026-04-21T06:43:53.051Z</time></trkpt><trkpt lat="44.5866353" lon="7.6650091"><ele>346.0</ele><time>2026-04-21T06:43:54.053Z</time></trkpt><trkpt lat="44.5865636" lon="7.6651504"><ele>346.0</ele><time>2026-04-21T06:43:55.053Z</time></trkpt><trkpt lat="44.5864921" lon="7.665293"><ele>346.0</ele><time>2026-04-21T06:43:56.05Z</time></trkpt><trkpt lat="44.5864233" lon="7.6654327"><ele>346.0</ele><time>2026-04-21T06:43:57.054Z</time></trkpt><trkpt lat="44.5863584" lon="7.665566"><ele>345.8</ele><time>2026-04-21T06:43:58.048Z</time></trkpt><trkpt lat="44.586302" lon="7.6656839"><ele>345.6</ele><time>2026-04-21T06:43:59.054Z</time></trkpt><trkpt lat="44.5862482" lon="7.6657942"><ele>345.4</ele><time>2026-04-21T06:44:00.045Z</time></trkpt><trkpt lat="44.586197" lon="7.6658936"><ele>345.2</ele><time>2026-04-21T06:44:01.05Z</time></trkpt><trkpt lat="44.5861471" lon="7.6659908"><ele>345.0</ele><time>2026-04-21T06:44:02.052Z</time></trkpt><trkpt lat="44.5861" lon="7.6660849"><ele>345.0</ele><time>2026-04-21T06:44:03.058Z</time></trkpt><trkpt lat="44.5860559" lon="7.6661723"><ele>345.0</ele><time>2026-04-21T06:44:04.054Z</time></trkpt><trkpt lat="44.5860134" lon="7.6662564"><ele>345.0</ele><time>2026-04-21T06:44:05.058Z</time></trkpt><trkpt lat="44.5859721" lon="7.6663353"><ele>345.0</ele><time>2026-04-21T06:44:06.057Z</time></trkpt><trkpt lat="44.5859309" lon="7.6664151"><ele>345.0</ele><time>2026-04-21T06:44:07.058Z</time></trkpt><trkpt lat="44.5858849" lon="7.6664991"><ele>345.0</ele><time>2026-04-21T06:44:08.052Z</time></trkpt><trkpt lat="44.5858319" lon="7.666592"><ele>345.0</ele><time>2026-04-21T06:44:09.051Z</time></trkpt><trkpt lat="44.585774" lon="7.6666941"><ele>345.0</ele><time>2026-04-21T06:44:10.057Z</time></trkpt><trkpt lat="44.5857102" lon="7.6668036"><ele>345.0</ele><time>2026-04-21T06:44:11.051Z</time></trkpt><trkpt lat="44.5856459" lon="7.666917"><ele>345.0</ele><time>2026-04-21T06:44:12.049Z</time></trkpt><trkpt lat="44.5855828" lon="7.6670269"><ele>345.0</ele><time>2026-04-21T06:44:13.053Z</time></trkpt><trkpt lat="44.5855151" lon="7.6671344"><ele>345.0</ele><time>2026-04-21T06:44:14.052Z</time></trkpt><trkpt lat="44.5854423" lon="7.6672456"><ele>345.0</ele><time>2026-04-21T06:44:15.053Z</time></trkpt><trkpt lat="44.5853675" lon="7.6673618"><ele>345.0</ele><time>2026-04-21T06:44:16.052Z</time></trkpt><trkpt lat="44.5852919" lon="7.6674789"><ele>345.0</ele><time>2026-04-21T06:44:17.049Z</time></trkpt><trkpt lat="44.5852198" lon="7.6675967"><ele>345.0</ele><time>2026-04-21T06:44:18.044Z</time></trkpt><trkpt lat="44.5851458" lon="7.6677096"><ele>345.2</ele><time>2026-04-21T06:44:19.052Z</time></trkpt><trkpt lat="44.5850734" lon="7.6678206"><ele>345.4</ele><time>2026-04-21T06:44:20.05Z</time></trkpt><trkpt lat="44.5850013" lon="7.6679313"><ele>345.6</ele><time>2026-04-21T06:44:21.053Z</time></trkpt><trkpt lat="44.5849295" lon="7.6680432"><ele>345.8</ele><time>2026-04-21T06:44:22.05Z</time></trkpt><trkpt lat="44.5848578" lon="7.6681556"><ele>346.0</ele><time>2026-04-21T06:44:23.054Z</time></trkpt><trkpt lat="44.5847853" lon="7.6682638"><ele>346.0</ele><time>2026-04-21T06:44:24.051Z</time></trkpt><trkpt lat="44.5847123" lon="7.6683729"><ele>346.0</ele><time>2026-04-21T06:44:25.049Z</time></trkpt><trkpt lat="44.5846401" lon="7.6684828"><ele>346.0</ele><time>2026-04-21T06:44:26.049Z</time></trkpt><trkpt lat="44.5845708" lon="7.668594"><ele>346.0</ele><time>2026-04-21T06:44:27.049Z</time></trkpt><trkpt lat="44.5845052" lon="7.6686955"><ele>346.0</ele><time>2026-04-21T06:44:28.05Z</time></trkpt><trkpt lat="44.5844423" lon="7.6687941"><ele>345.8</ele><time>2026-04-21T06:44:29.047Z</time></trkpt><trkpt lat="44.5843795" lon="7.6688956"><ele>345.6</ele><time>2026-04-21T06:44:30.052Z</time></trkpt><trkpt lat="44.5843161" lon="7.6690025"><ele>345.4</ele><time>2026-04-21T06:44:31.059Z</time></trkpt><trkpt lat="44.5842488" lon="7.6691098"><ele>345.2</ele><time>2026-04-21T06:44:32.053Z</time></trkpt><trkpt lat="44.5841764" lon="7.6692202"><ele>345.0</ele><time>2026-04-21T06:44:33.051Z</time></trkpt><trkpt lat="44.5841014" lon="7.6693347"><ele>345.0</ele><time>2026-04-21T06:44:34.047Z</time></trkpt><trkpt lat="44.5840231" lon="7.669453"><ele>345.0</ele><time>2026-04-21T06:44:35.052Z</time></trkpt><trkpt lat="44.5839439" lon="7.6695766"><ele>345.0</ele><time>2026-04-21T06:44:36.052Z</time></trkpt><trkpt lat="44.583862" lon="7.6697057"><ele>345.0</ele><time>2026-04-21T06:44:37.059Z</time></trkpt><trkpt lat="44.5837775" lon="7.6698374"><ele>345.0</ele><time>2026-04-21T06:44:38.049Z</time></trkpt><trkpt lat="44.5836886" lon="7.6699716"><ele>345.0</ele><time>2026-04-21T06:44:39.055Z</time></trkpt><trkpt lat="44.5835982" lon="7.6701078"><ele>345.0</ele><time>2026-04-21T06:44:40.05Z</time></trkpt><trkpt lat="44.5835057" lon="7.6702486"><ele>345.0</ele><time>2026-04-21T06:44:41.053Z</time></trkpt><trkpt lat="44.5834117" lon="7.670396"><ele>344.75</ele><time>2026-04-21T06:44:42.051Z</time></trkpt><trkpt lat="44.5833144" lon="7.670544"><ele>344.5</ele><time>2026-04-21T06:44:43.063Z</time></trkpt><trkpt lat="44.5832159" lon="7.6706948"><ele>344.25</ele><time>2026-04-21T06:44:44.049Z</time></trkpt><trkpt lat="44.5831144" lon="7.670851"><ele>344.0</ele><time>2026-04-21T06:44:45.055Z</time></trkpt><trkpt lat="44.5830098" lon="7.6710141"><ele>344.33333333333337</ele><time>2026-04-21T06:44:46.053Z</time></trkpt><trkpt lat="44.5829066" lon="7.6711741"><ele>344.6666666666667</ele><time>2026-04-21T06:44:47.058Z</time></trkpt><trkpt lat="44.5828032" lon="7.6713331"><ele>345.0</ele><time>2026-04-21T06:44:48.05Z</time></trkpt><trkpt lat="44.5826978" lon="7.6714921"><ele>345.0</ele><time>2026-04-21T06:44:49.054Z</time></trkpt><trkpt lat="44.5825911" lon="7.6716553"><ele>345.0</ele><time>2026-04-21T06:44:50.055Z</time></trkpt><trkpt lat="44.5824847" lon="7.6718188"><ele>345.0</ele><time>2026-04-21T06:44:51.063Z</time></trkpt><trkpt lat="44.5823783" lon="7.6719875"><ele>345.0</ele><time>2026-04-21T06:44:52.06Z</time></trkpt><trkpt lat="44.5822696" lon="7.6721566"><ele>345.0</ele><time>2026-04-21T06:44:53.052Z</time></trkpt><trkpt lat="44.5821584" lon="7.6723277"><ele>345.0</ele><time>2026-04-21T06:44:54.057Z</time></trkpt><trkpt lat="44.5820459" lon="7.6724999"><ele>345.0</ele><time>2026-04-21T06:44:55.053Z</time></trkpt><trkpt lat="44.5819341" lon="7.6726752"><ele>345.0</ele><time>2026-04-21T06:44:56.056Z</time></trkpt><trkpt lat="44.5818218" lon="7.6728544"><ele>345.0</ele><time>2026-04-21T06:44:57.049Z</time></trkpt><trkpt lat="44.5817079" lon="7.6730353"><ele>345.0</ele><time>2026-04-21T06:44:58.05Z</time></trkpt><trkpt lat="44.5815925" lon="7.6732188"><ele>345.0</ele><time>2026-04-21T06:44:59.055Z</time></trkpt><trkpt lat="44.5814741" lon="7.6733971"><ele>345.0</ele><time>2026-04-21T06:45:00.048Z</time></trkpt><trkpt lat="44.581354" lon="7.6735754"><ele>345.0</ele><time>2026-04-21T06:45:01.052Z</time></trkpt><trkpt lat="44.5812342" lon="7.6737579"><ele>345.0</ele><time>2026-04-21T06:45:02.053Z</time></trkpt><trkpt lat="44.5811152" lon="7.6739451"><ele>345.0</ele><time>2026-04-21T06:45:03.051Z</time></trkpt><trkpt lat="44.5809958" lon="7.6741323"><ele>345.0</ele><time>2026-04-21T06:45:04.05Z</time></trkpt><trkpt lat="44.5808771" lon="7.6743205"><ele>345.0</ele><time>2026-04-21T06:45:05.059Z</time></trkpt><trkpt lat="44.5807594" lon="7.6745083"><ele>345.0</ele><time>2026-04-21T06:45:06.053Z</time></trkpt><trkpt lat="44.5806398" lon="7.6746983"><ele>345.0</ele><time>2026-04-21T06:45:07.053Z</time></trkpt><trkpt lat="44.5805196" lon="7.6748881"><ele>345.0</ele><time>2026-04-21T06:45:08.055Z</time></trkpt><trkpt lat="44.5803988" lon="7.6750781"><ele>345.0</ele><time>2026-04-21T06:45:09.059Z</time></trkpt><trkpt lat="44.5802775" lon="7.6752669"><ele>344.6666666666667</ele><time>2026-04-21T06:45:10.064Z</time></trkpt><trkpt lat="44.5801568" lon="7.6754569"><ele>344.33333333333337</ele><time>2026-04-21T06:45:11.073Z</time></trkpt><trkpt lat="44.5800351" lon="7.6756454"><ele>344.0</ele><time>2026-04-21T06:45:12.071Z</time></trkpt><trkpt lat="44.5799164" lon="7.6758309"><ele>344.0</ele><time>2026-04-21T06:45:13.07Z</time></trkpt><trkpt lat="44.5797978" lon="7.6760137"><ele>344.0</ele><time>2026-04-21T06:45:14.063Z</time></trkpt><trkpt lat="44.5796808" lon="7.6761951"><ele>344.0</ele><time>2026-04-21T06:45:15.054Z</time></trkpt><trkpt lat="44.5795658" lon="7.676372"><ele>344.6666666666667</ele><time>2026-04-21T06:45:16.049Z</time></trkpt><trkpt lat="44.5794499" lon="7.6765486"><ele>345.3333333333333</ele><time>2026-04-21T06:45:17.051Z</time></trkpt><trkpt lat="44.5793342" lon="7.6767258"><ele>346.0</ele><time>2026-04-21T06:45:18.064Z</time></trkpt><trkpt lat="44.5792223" lon="7.6769022"><ele>345.66666666666663</ele><time>2026-04-21T06:45:19.069Z</time></trkpt><trkpt lat="44.5791139" lon="7.677069"><ele>345.3333333333333</ele><time>2026-04-21T06:45:20.064Z</time></trkpt><trkpt lat="44.5790124" lon="7.6772255"><ele>345.0</ele><time>2026-04-21T06:45:21.074Z</time></trkpt><trkpt lat="44.5789143" lon="7.6773797"><ele>345.0</ele><time>2026-04-21T06:45:22.075Z</time></trkpt><trkpt lat="44.578819" lon="7.6775355"><ele>345.0</ele><time>2026-04-21T06:45:23.08Z</time></trkpt><trkpt lat="44.5787215" lon="7.6776954"><ele>345.0</ele><time>2026-04-21T06:45:24.071Z</time></trkpt><trkpt lat="44.5786197" lon="7.6778553"><ele>345.0</ele><time>2026-04-21T06:45:25.074Z</time></trkpt><trkpt lat="44.5785143" lon="7.6780195"><ele>345.3333333333333</ele><time>2026-04-21T06:45:26.061Z</time></trkpt><trkpt lat="44.5784067" lon="7.6781844"><ele>345.66666666666663</ele><time>2026-04-21T06:45:27.063Z</time></trkpt><trkpt lat="44.5782976" lon="7.6783529"><ele>346.0</ele><time>2026-04-21T06:45:28.064Z</time></trkpt><trkpt lat="44.5781887" lon="7.6785246"><ele>345.66666666666663</ele><time>2026-04-21T06:45:29.07Z</time></trkpt><trkpt lat="44.5780777" lon="7.6787012"><ele>345.3333333333333</ele><time>2026-04-21T06:45:30.072Z</time></trkpt><trkpt lat="44.5779634" lon="7.6788782"><ele>345.0</ele><time>2026-04-21T06:45:31.075Z</time></trkpt><trkpt lat="44.5778467" lon="7.6790555"><ele>345.3333333333333</ele><time>2026-04-21T06:45:32.063Z</time></trkpt><trkpt lat="44.5777298" lon="7.6792359"><ele>345.66666666666663</ele><time>2026-04-21T06:45:33.066Z</time></trkpt><trkpt lat="44.5776112" lon="7.6794188"><ele>346.0</ele><time>2026-04-21T06:45:34.074Z</time></trkpt><trkpt lat="44.5774913" lon="7.6796002"><ele>346.0</ele><time>2026-04-21T06:45:35.06Z</time></trkpt><trkpt lat="44.5773697" lon="7.6797847"><ele>346.0</ele><time>2026-04-21T06:45:36.067Z</time></trkpt><trkpt lat="44.5772478" lon="7.6799758"><ele>346.0</ele><time>2026-04-21T06:45:37.064Z</time></trkpt><trkpt lat="44.5771251" lon="7.6801694"><ele>346.3333333333333</ele><time>2026-04-21T06:45:38.069Z</time></trkpt><trkpt lat="44.5770019" lon="7.6803629"><ele>346.6666666666667</ele><time>2026-04-21T06:45:39.067Z</time></trkpt><trkpt lat="44.5768778" lon="7.6805553"><ele>347.0</ele><time>2026-04-21T06:45:40.072Z</time></trkpt><trkpt lat="44.5767522" lon="7.6807463"><ele>347.0</ele><time>2026-04-21T06:45:41.064Z</time></trkpt><trkpt lat="44.5766266" lon="7.6809411"><ele>347.0</ele><time>2026-04-21T06:45:42.068Z</time></trkpt><trkpt lat="44.5765015" lon="7.6811371"><ele>347.0</ele><time>2026-04-21T06:45:43.079Z</time></trkpt><trkpt lat="44.576375" lon="7.6813325"><ele>347.0</ele><time>2026-04-21T06:45:44.051Z</time></trkpt><trkpt lat="44.576247" lon="7.681527"><ele>347.0</ele><time>2026-04-21T06:45:45.072Z</time></trkpt><trkpt lat="44.5761194" lon="7.6817228"><ele>347.0</ele><time>2026-04-21T06:45:46.065Z</time></trkpt><trkpt lat="44.575993" lon="7.6819203"><ele>346.6666666666667</ele><time>2026-04-21T06:45:47.059Z</time></trkpt><trkpt lat="44.5758674" lon="7.6821167"><ele>346.3333333333333</ele><time>2026-04-21T06:45:48.064Z</time></trkpt><trkpt lat="44.57574" lon="7.6823113"><ele>346.0</ele><time>2026-04-21T06:45:49.073Z</time></trkpt><trkpt lat="44.5756126" lon="7.6825073"><ele>346.0</ele><time>2026-04-21T06:45:50.069Z</time></trkpt><trkpt lat="44.5754858" lon="7.6827022"><ele>346.0</ele><time>2026-04-21T06:45:51.065Z</time></trkpt><trkpt lat="44.5753613" lon="7.6828942"><ele>346.0</ele><time>2026-04-21T06:45:52.073Z</time></trkpt><trkpt lat="44.5752382" lon="7.6830854"><ele>346.66666666666663</ele><time>2026-04-21T06:45:53.071Z</time></trkpt><trkpt lat="44.5751179" lon="7.6832707"><ele>347.3333333333333</ele><time>2026-04-21T06:45:54.076Z</time></trkpt><trkpt lat="44.5750016" lon="7.6834498"><ele>348.0</ele><time>2026-04-21T06:45:55.06Z</time></trkpt><trkpt lat="44.5748851" lon="7.6836287"><ele>348.3333333333333</ele><time>2026-04-21T06:45:56.067Z</time></trkpt><trkpt lat="44.5747665" lon="7.6838113"><ele>348.66666666666663</ele><time>2026-04-21T06:45:57.067Z</time></trkpt><trkpt lat="44.5746481" lon="7.683998"><ele>349.0</ele><time>2026-04-21T06:45:58.067Z</time></trkpt><trkpt lat="44.5745314" lon="7.684186"><ele>348.66666666666663</ele><time>2026-04-21T06:45:59.071Z</time></trkpt><trkpt lat="44.5744095" lon="7.6843717"><ele>348.3333333333333</ele><time>2026-04-21T06:46:00.066Z</time></trkpt><trkpt lat="44.5742855" lon="7.6845555"><ele>348.0</ele><time>2026-04-21T06:46:01.069Z</time></trkpt><trkpt lat="44.574162" lon="7.6847426"><ele>347.3333333333333</ele><time>2026-04-21T06:46:02.062Z</time></trkpt><trkpt lat="44.5740414" lon="7.6849344"><ele>346.66666666666663</ele><time>2026-04-21T06:46:03.077Z</time></trkpt><trkpt lat="44.5739247" lon="7.6851254"><ele>346.0</ele><time>2026-04-21T06:46:04.071Z</time></trkpt><trkpt lat="44.5738069" lon="7.6853185"><ele>346.3333333333333</ele><time>2026-04-21T06:46:05.073Z</time></trkpt><trkpt lat="44.5736884" lon="7.6855063"><ele>346.6666666666667</ele><time>2026-04-21T06:46:06.062Z</time></trkpt><trkpt lat="44.5735708" lon="7.685694"><ele>347.0</ele><time>2026-04-21T06:46:07.062Z</time></trkpt><trkpt lat="44.5734498" lon="7.6858805"><ele>347.0</ele><time>2026-04-21T06:46:08.077Z</time></trkpt><trkpt lat="44.5733283" lon="7.686067"><ele>347.0</ele><time>2026-04-21T06:46:09.063Z</time></trkpt><trkpt lat="44.5732113" lon="7.6862532"><ele>347.0</ele><time>2026-04-21T06:46:10.076Z</time></trkpt><trkpt lat="44.5730914" lon="7.6864399"><ele>347.33333333333337</ele><time>2026-04-21T06:46:11.071Z</time></trkpt><trkpt lat="44.5729702" lon="7.6866255"><ele>347.6666666666667</ele><time>2026-04-21T06:46:12.058Z</time></trkpt><trkpt lat="44.5728475" lon="7.6868086"><ele>348.0</ele><time>2026-04-21T06:46:13.072Z</time></trkpt><trkpt lat="44.572726" lon="7.6869922"><ele>348.3333333333333</ele><time>2026-04-21T06:46:14.062Z</time></trkpt><trkpt lat="44.5726063" lon="7.6871764"><ele>348.66666666666663</ele><time>2026-04-21T06:46:15.076Z</time></trkpt><trkpt lat="44.5724861" lon="7.6873611"><ele>349.0</ele><time>2026-04-21T06:46:16.065Z</time></trkpt><trkpt lat="44.5723659" lon="7.6875457"><ele>349.0</ele><time>2026-04-21T06:46:17.066Z</time></trkpt><trkpt lat="44.5722457" lon="7.6877351"><ele>349.0</ele><time>2026-04-21T06:46:18.064Z</time></trkpt><trkpt lat="44.5721266" lon="7.6879242"><ele>349.0</ele><time>2026-04-21T06:46:19.059Z</time></trkpt><trkpt lat="44.5720073" lon="7.6881127"><ele>349.0</ele><time>2026-04-21T06:46:20.074Z</time></trkpt><trkpt lat="44.571887" lon="7.6882986"><ele>349.0</ele><time>2026-04-21T06:46:21.07Z</time></trkpt><trkpt lat="44.5717627" lon="7.6884823"><ele>349.0</ele><time>2026-04-21T06:46:22.074Z</time></trkpt><trkpt lat="44.5716394" lon="7.6886648"><ele>349.0</ele><time>2026-04-21T06:46:23.058Z</time></trkpt><trkpt lat="44.5715192" lon="7.6888494"><ele>349.0</ele><time>2026-04-21T06:46:24.07Z</time></trkpt><trkpt lat="44.571403" lon="7.689035"><ele>349.0</ele><time>2026-04-21T06:46:25.063Z</time></trkpt><trkpt lat="44.5712912" lon="7.689215"><ele>349.0</ele><time>2026-04-21T06:46:26.053Z</time></trkpt><trkpt lat="44.5711876" lon="7.6893819"><ele>349.0</ele><time>2026-04-21T06:46:27.067Z</time></trkpt><trkpt lat="44.5710881" lon="7.6895368"><ele>349.0</ele><time>2026-04-21T06:46:28.064Z</time></trkpt><trkpt lat="44.570993" lon="7.689684"><ele>349.0</ele><time>2026-04-21T06:46:29.066Z</time></trkpt><trkpt lat="44.5709033" lon="7.6898268"><ele>349.0</ele><time>2026-04-21T06:46:30.066Z</time></trkpt><trkpt lat="44.5708164" lon="7.6899568"><ele>349.0</ele><time>2026-04-21T06:46:31.064Z</time></trkpt><trkpt lat="44.5707305" lon="7.6900857"><ele>349.0</ele><time>2026-04-21T06:46:32.063Z</time></trkpt><trkpt lat="44.5706469" lon="7.6902106"><ele>349.0</ele><time>2026-04-21T06:46:33.054Z</time></trkpt><trkpt lat="44.5705645" lon="7.6903333"><ele>348.75</ele><time>2026-04-21T06:46:34.076Z</time></trkpt><trkpt lat="44.5704814" lon="7.6904515"><ele>348.5</ele><time>2026-04-21T06:46:35.062Z</time></trkpt><trkpt lat="44.5703978" lon="7.6905675"><ele>348.25</ele><time>2026-04-21T06:46:36.066Z</time></trkpt><trkpt lat="44.5703163" lon="7.6906779"><ele>348.0</ele><time>2026-04-21T06:46:37.064Z</time></trkpt><trkpt lat="44.5702378" lon="7.6907798"><ele>348.0</ele><time>2026-04-21T06:46:38.069Z</time></trkpt><trkpt lat="44.5701613" lon="7.6908767"><ele>348.0</ele><time>2026-04-21T06:46:39.057Z</time></trkpt><trkpt lat="44.5700837" lon="7.6909664"><ele>348.0</ele><time>2026-04-21T06:46:40.067Z</time></trkpt><trkpt lat="44.569998" lon="7.691046"><ele>348.0</ele><time>2026-04-21T06:46:41.064Z</time></trkpt><trkpt lat="44.5699062" lon="7.691121"><ele>348.0</ele><time>2026-04-21T06:46:42.063Z</time></trkpt><trkpt lat="44.5698189" lon="7.691221"><ele>348.5</ele><time>2026-04-21T06:46:43.078Z</time></trkpt><trkpt lat="44.569748" lon="7.6913576"><ele>349.0</ele><time>2026-04-21T06:46:44.064Z</time></trkpt><trkpt lat="44.5696945" lon="7.6915148"><ele>349.5</ele><time>2026-04-21T06:46:45.067Z</time></trkpt><trkpt lat="44.5696432" lon="7.6916797"><ele>350.0</ele><time>2026-04-21T06:46:46.065Z</time></trkpt><trkpt lat="44.569586" lon="7.6918384"><ele>350.75</ele><time>2026-04-21T06:46:47.07Z</time></trkpt><trkpt lat="44.5695184" lon="7.6919859"><ele>351.5</ele><time>2026-04-21T06:46:48.077Z</time></trkpt><trkpt lat="44.5694447" lon="7.6921303"><ele>352.25</ele><time>2026-04-21T06:46:49.058Z</time></trkpt><trkpt lat="44.5693618" lon="7.6922689"><ele>353.0</ele><time>2026-04-21T06:46:50.077Z</time></trkpt><trkpt lat="44.5692752" lon="7.6924034"><ele>353.0</ele><time>2026-04-21T06:46:51.072Z</time></trkpt><trkpt lat="44.5691858" lon="7.6925393"><ele>353.0</ele><time>2026-04-21T06:46:52.076Z</time></trkpt><trkpt lat="44.5690903" lon="7.6926769"><ele>353.0</ele><time>2026-04-21T06:46:53.062Z</time></trkpt><trkpt lat="44.5689946" lon="7.6928182"><ele>353.0</ele><time>2026-04-21T06:46:54.067Z</time></trkpt><trkpt lat="44.5688963" lon="7.6929677"><ele>352.33333333333337</ele><time>2026-04-21T06:46:55.065Z</time></trkpt><trkpt lat="44.5687958" lon="7.6931192"><ele>351.6666666666667</ele><time>2026-04-21T06:46:56.052Z</time></trkpt><trkpt lat="44.5686908" lon="7.6932772"><ele>351.0</ele><time>2026-04-21T06:46:57.069Z</time></trkpt><trkpt lat="44.5685813" lon="7.6934409"><ele>351.6666666666667</ele><time>2026-04-21T06:46:58.061Z</time></trkpt><trkpt lat="44.5684726" lon="7.6936055"><ele>352.33333333333337</ele><time>2026-04-21T06:46:59.073Z</time></trkpt><trkpt lat="44.5683641" lon="7.6937763"><ele>353.0</ele><time>2026-04-21T06:47:00.058Z</time></trkpt><trkpt lat="44.5682535" lon="7.6939456"><ele>353.0</ele><time>2026-04-21T06:47:01.076Z</time></trkpt><trkpt lat="44.5681405" lon="7.694116"><ele>353.0</ele><time>2026-04-21T06:47:02.072Z</time></trkpt><trkpt lat="44.5680248" lon="7.6942896"><ele>353.0</ele><time>2026-04-21T06:47:03.076Z</time></trkpt><trkpt lat="44.5679105" lon="7.6944648"><ele>352.33333333333337</ele><time>2026-04-21T06:47:04.052Z</time></trkpt><trkpt lat="44.5677959" lon="7.6946437"><ele>351.6666666666667</ele><time>2026-04-21T06:47:05.065Z</time></trkpt><trkpt lat="44.5676814" lon="7.6948231"><ele>351.0</ele><time>2026-04-21T06:47:06.053Z</time></trkpt><trkpt lat="44.567565" lon="7.6950009"><ele>351.0</ele><time>2026-04-21T06:47:07.075Z</time></trkpt><trkpt lat="44.5674484" lon="7.69518"><ele>351.0</ele><time>2026-04-21T06:47:08.066Z</time></trkpt><trkpt lat="44.5673327" lon="7.6953623"><ele>351.0</ele><time>2026-04-21T06:47:09.063Z</time></trkpt><trkpt lat="44.5672153" lon="7.6955441"><ele>351.0</ele><time>2026-04-21T06:47:10.065Z</time></trkpt><trkpt lat="44.5670977" lon="7.6957255"><ele>351.0</ele><time>2026-04-21T06:47:11.07Z</time></trkpt><trkpt lat="44.5669788" lon="7.6959064"><ele>351.0</ele><time>2026-04-21T06:47:12.068Z</time></trkpt><trkpt lat="44.5668609" lon="7.6960867"><ele>351.0</ele><time>2026-04-21T06:47:13.066Z</time></trkpt><trkpt lat="44.5667418" lon="7.6962682"><ele>351.0</ele><time>2026-04-21T06:47:14.066Z</time></trkpt><trkpt lat="44.5666241" lon="7.6964484"><ele>351.0</ele><time>2026-04-21T06:47:15.069Z</time></trkpt><trkpt lat="44.5665102" lon="7.6966228"><ele>351.0</ele><time>2026-04-21T06:47:16.065Z</time></trkpt><trkpt lat="44.5664019" lon="7.6967915"><ele>351.0</ele><time>2026-04-21T06:47:17.063Z</time></trkpt><trkpt lat="44.5662954" lon="7.6969536"><ele>351.0</ele><time>2026-04-21T06:47:18.059Z</time></trkpt><trkpt lat="44.5661937" lon="7.6971095"><ele>350.5</ele><time>2026-04-21T06:47:19.062Z</time></trkpt><trkpt lat="44.5660952" lon="7.6972639"><ele>350.0</ele><time>2026-04-21T06:47:20.069Z</time></trkpt><trkpt lat="44.5659997" lon="7.6974158"><ele>349.5</ele><time>2026-04-21T06:47:21.066Z</time></trkpt><trkpt lat="44.5659048" lon="7.6975667"><ele>349.0</ele><time>2026-04-21T06:47:22.067Z</time></trkpt><trkpt lat="44.565813" lon="7.6977113"><ele>349.5</ele><time>2026-04-21T06:47:23.071Z</time></trkpt><trkpt lat="44.5657235" lon="7.6978448"><ele>350.0</ele><time>2026-04-21T06:47:24.069Z</time></trkpt><trkpt lat="44.5656342" lon="7.6979613"><ele>350.5</ele><time>2026-04-21T06:47:25.067Z</time></trkpt><trkpt lat="44.5655476" lon="7.6980469"><ele>351.0</ele><time>2026-04-21T06:47:26.068Z</time></trkpt><trkpt lat="44.5654586" lon="7.6981032"><ele>351.0</ele><time>2026-04-21T06:47:27.067Z</time></trkpt><trkpt lat="44.565369" lon="7.6981349"><ele>351.0</ele><time>2026-04-21T06:47:28.063Z</time></trkpt><trkpt lat="44.5652747" lon="7.6981685"><ele>351.0</ele><time>2026-04-21T06:47:29.06Z</time></trkpt><trkpt lat="44.5651973" lon="7.6982249"><ele>351.0</ele><time>2026-04-21T06:47:30.069Z</time></trkpt><trkpt lat="44.5651534" lon="7.698316"><ele>351.0</ele><time>2026-04-21T06:47:31.073Z</time></trkpt><trkpt lat="44.5651416" lon="7.6984259"><ele>351.0</ele><time>2026-04-21T06:47:32.062Z</time></trkpt><trkpt lat="44.5651336" lon="7.6985574"><ele>351.0</ele><time>2026-04-21T06:47:33.062Z</time></trkpt><trkpt lat="44.5651211" lon="7.6987014"><ele>351.0</ele><time>2026-04-21T06:47:34.067Z</time></trkpt><trkpt lat="44.5650844" lon="7.6988374"><ele>351.0</ele><time>2026-04-21T06:47:35.06Z</time></trkpt><trkpt lat="44.5650238" lon="7.6989674"><ele>351.0</ele><time>2026-04-21T06:47:36.075Z</time></trkpt><trkpt lat="44.5649563" lon="7.6990919"><ele>351.0</ele><time>2026-04-21T06:47:37.062Z</time></trkpt><trkpt lat="44.5648777" lon="7.6992168"><ele>351.0</ele><time>2026-04-21T06:47:38.061Z</time></trkpt><trkpt lat="44.5647951" lon="7.6993449"><ele>351.0</ele><time>2026-04-21T06:47:39.062Z</time></trkpt><trkpt lat="44.5647079" lon="7.6994732"><ele>351.0</ele><time>2026-04-21T06:47:40.062Z</time></trkpt><trkpt lat="44.5646234" lon="7.6996006"><ele>351.0</ele><time>2026-04-21T06:47:41.061Z</time></trkpt><trkpt lat="44.5645416" lon="7.6997242"><ele>351.0</ele><time>2026-04-21T06:47:42.065Z</time></trkpt><trkpt lat="44.5644603" lon="7.6998485"><ele>351.0</ele><time>2026-04-21T06:47:43.072Z</time></trkpt><trkpt lat="44.564374" lon="7.6999725"><ele>351.0</ele><time>2026-04-21T06:47:44.059Z</time></trkpt><trkpt lat="44.5642846" lon="7.7000978"><ele>351.0</ele><time>2026-04-21T06:47:45.074Z</time></trkpt><trkpt lat="44.5641978" lon="7.7002298"><ele>351.5</ele><time>2026-04-21T06:47:46.071Z</time></trkpt><trkpt lat="44.564113" lon="7.7003682"><ele>352.0</ele><time>2026-04-21T06:47:47.061Z</time></trkpt><trkpt lat="44.5640253" lon="7.7005078"><ele>352.5</ele><time>2026-04-21T06:47:48.06Z</time></trkpt><trkpt lat="44.5639349" lon="7.7006499"><ele>353.0</ele><time>2026-04-21T06:47:49.067Z</time></trkpt><trkpt lat="44.563841" lon="7.7007985"><ele>353.0</ele><time>2026-04-21T06:47:50.064Z</time></trkpt><trkpt lat="44.5637479" lon="7.7009467"><ele>353.0</ele><time>2026-04-21T06:47:51.066Z</time></trkpt><trkpt lat="44.5636523" lon="7.70109"><ele>353.0</ele><time>2026-04-21T06:47:52.078Z</time></trkpt><trkpt lat="44.5635579" lon="7.7012322"><ele>353.0</ele><time>2026-04-21T06:47:53.076Z</time></trkpt><trkpt lat="44.5634659" lon="7.7013696"><ele>352.5</ele><time>2026-04-21T06:47:54.059Z</time></trkpt><trkpt lat="44.5633769" lon="7.7014998"><ele>352.0</ele><time>2026-04-21T06:47:55.073Z</time></trkpt><trkpt lat="44.5632936" lon="7.7016219"><ele>351.5</ele><time>2026-04-21T06:47:56.062Z</time></trkpt><trkpt lat="44.5632164" lon="7.7017389"><ele>351.0</ele><time>2026-04-21T06:47:57.074Z</time></trkpt><trkpt lat="44.5631462" lon="7.7018533"><ele>351.25</ele><time>2026-04-21T06:47:58.064Z</time></trkpt><trkpt lat="44.5630782" lon="7.7019687"><ele>351.5</ele><time>2026-04-21T06:47:59.069Z</time></trkpt><trkpt lat="44.5630082" lon="7.7020917"><ele>351.75</ele><time>2026-04-21T06:48:00.053Z</time></trkpt><trkpt lat="44.5629327" lon="7.7022164"><ele>352.0</ele><time>2026-04-21T06:48:01.067Z</time></trkpt><trkpt lat="44.5628556" lon="7.7023407"><ele>352.20000000000005</ele><time>2026-04-21T06:48:02.064Z</time></trkpt><trkpt lat="44.5627804" lon="7.7024573"><ele>352.4</ele><time>2026-04-21T06:48:03.065Z</time></trkpt><trkpt lat="44.5627083" lon="7.7025697"><ele>352.6</ele><time>2026-04-21T06:48:04.06Z</time></trkpt><trkpt lat="44.5626341" lon="7.7026787"><ele>352.79999999999995</ele><time>2026-04-21T06:48:05.063Z</time></trkpt><trkpt lat="44.5625646" lon="7.702784"><ele>353.0</ele><time>2026-04-21T06:48:06.071Z</time></trkpt><trkpt lat="44.5624997" lon="7.7028848"><ele>353.33333333333337</ele><time>2026-04-21T06:48:07.063Z</time></trkpt><trkpt lat="44.5624367" lon="7.7029773"><ele>353.6666666666667</ele><time>2026-04-21T06:48:08.068Z</time></trkpt><trkpt lat="44.5623784" lon="7.703063"><ele>354.0</ele><time>2026-04-21T06:48:09.067Z</time></trkpt><trkpt lat="44.5623214" lon="7.703144"><ele>354.3333333333333</ele><time>2026-04-21T06:48:10.061Z</time></trkpt><trkpt lat="44.5622633" lon="7.7032172"><ele>354.66666666666663</ele><time>2026-04-21T06:48:11.07Z</time></trkpt><trkpt lat="44.5621976" lon="7.7032823"><ele>355.0</ele><time>2026-04-21T06:48:12.063Z</time></trkpt><trkpt lat="44.5621272" lon="7.7033384"><ele>355.0</ele><time>2026-04-21T06:48:13.071Z</time></trkpt><trkpt lat="44.5620601" lon="7.7034"><ele>355.0</ele><time>2026-04-21T06:48:14.068Z</time></trkpt><trkpt lat="44.5620113" lon="7.7034941"><ele>355.0</ele><time>2026-04-21T06:48:15.062Z</time></trkpt><trkpt lat="44.5619698" lon="7.7036164"><ele>355.0</ele><time>2026-04-21T06:48:16.064Z</time></trkpt><trkpt lat="44.561924" lon="7.7037482"><ele>355.0</ele><time>2026-04-21T06:48:17.061Z</time></trkpt><trkpt lat="44.5618683" lon="7.7038761"><ele>354.25</ele><time>2026-04-21T06:48:18.071Z</time></trkpt><trkpt lat="44.5617995" lon="7.7040009"><ele>353.5</ele><time>2026-04-21T06:48:19.057Z</time></trkpt><trkpt lat="44.5617205" lon="7.7041248"><ele>352.75</ele><time>2026-04-21T06:48:20.076Z</time></trkpt><trkpt lat="44.5616457" lon="7.7042449"><ele>352.0</ele><time>2026-04-21T06:48:21.067Z</time></trkpt><trkpt lat="44.5615712" lon="7.7043575"><ele>352.20000000000005</ele><time>2026-04-21T06:48:22.072Z</time></trkpt><trkpt lat="44.561499" lon="7.7044705"><ele>352.4</ele><time>2026-04-21T06:48:23.072Z</time></trkpt><trkpt lat="44.5614226" lon="7.704584"><ele>352.6</ele><time>2026-04-21T06:48:24.071Z</time></trkpt><trkpt lat="44.5613465" lon="7.7046983"><ele>352.79999999999995</ele><time>2026-04-21T06:48:25.054Z</time></trkpt><trkpt lat="44.5612727" lon="7.7048164"><ele>353.0</ele><time>2026-04-21T06:48:26.06Z</time></trkpt><trkpt lat="44.5611965" lon="7.7049322"><ele>353.2</ele><time>2026-04-21T06:48:27.068Z</time></trkpt><trkpt lat="44.5611193" lon="7.705049"><ele>353.4</ele><time>2026-04-21T06:48:28.064Z</time></trkpt><trkpt lat="44.5610427" lon="7.7051659"><ele>353.59999999999997</ele><time>2026-04-21T06:48:29.067Z</time></trkpt><trkpt lat="44.5609673" lon="7.7052814"><ele>353.79999999999995</ele><time>2026-04-21T06:48:30.066Z</time></trkpt><trkpt lat="44.5608928" lon="7.705396"><ele>354.0</ele><time>2026-04-21T06:48:31.059Z</time></trkpt><trkpt lat="44.560821" lon="7.7055059"><ele>354.0</ele><time>2026-04-21T06:48:32.07Z</time></trkpt><trkpt lat="44.5607479" lon="7.7056094"><ele>354.0</ele><time>2026-04-21T06:48:33.072Z</time></trkpt><trkpt lat="44.5606783" lon="7.7057104"><ele>354.0</ele><time>2026-04-21T06:48:34.066Z</time></trkpt><trkpt lat="44.5606135" lon="7.7058153"><ele>354.0</ele><time>2026-04-21T06:48:35.066Z</time></trkpt><trkpt lat="44.5605474" lon="7.7059251"><ele>354.0</ele><time>2026-04-21T06:48:36.075Z</time></trkpt><trkpt lat="44.5604776" lon="7.7060321"><ele>354.0</ele><time>2026-04-21T06:48:37.069Z</time></trkpt><trkpt lat="44.5604082" lon="7.7061359"><ele>354.0</ele><time>2026-04-21T06:48:38.071Z</time></trkpt><trkpt lat="44.56034" lon="7.7062382"><ele>354.0</ele><time>2026-04-21T06:48:39.066Z</time></trkpt><trkpt lat="44.5602733" lon="7.7063378"><ele>354.0</ele><time>2026-04-21T06:48:40.073Z</time></trkpt><trkpt lat="44.5602092" lon="7.7064363"><ele>354.0</ele><time>2026-04-21T06:48:41.067Z</time></trkpt><trkpt lat="44.5601443" lon="7.70654"><ele>353.79999999999995</ele><time>2026-04-21T06:48:42.075Z</time></trkpt><trkpt lat="44.5600791" lon="7.7066465"><ele>353.59999999999997</ele><time>2026-04-21T06:48:43.052Z</time></trkpt><trkpt lat="44.5600121" lon="7.706749"><ele>353.4</ele><time>2026-04-21T06:48:44.064Z</time></trkpt><trkpt lat="44.5599463" lon="7.7068501"><ele>353.2</ele><time>2026-04-21T06:48:45.063Z</time></trkpt><trkpt lat="44.5598795" lon="7.7069511"><ele>353.0</ele><time>2026-04-21T06:48:46.065Z</time></trkpt><trkpt lat="44.559811" lon="7.707054"><ele>353.2</ele><time>2026-04-21T06:48:47.071Z</time></trkpt><trkpt lat="44.5597421" lon="7.7071624"><ele>353.4</ele><time>2026-04-21T06:48:48.051Z</time></trkpt><trkpt lat="44.5596714" lon="7.7072776"><ele>353.59999999999997</ele><time>2026-04-21T06:48:49.067Z</time></trkpt><trkpt lat="44.5595966" lon="7.7073974"><ele>353.79999999999995</ele><time>2026-04-21T06:48:50.063Z</time></trkpt><trkpt lat="44.5595195" lon="7.7075172"><ele>354.0</ele><time>2026-04-21T06:48:51.073Z</time></trkpt><trkpt lat="44.5594416" lon="7.7076374"><ele>354.5</ele><time>2026-04-21T06:48:52.072Z</time></trkpt><trkpt lat="44.559363" lon="7.7077578"><ele>355.0</ele><time>2026-04-21T06:48:53.076Z</time></trkpt><trkpt lat="44.5592823" lon="7.7078788"><ele>355.5</ele><time>2026-04-21T06:48:54.077Z</time></trkpt><trkpt lat="44.5592028" lon="7.7079982"><ele>356.0</ele><time>2026-04-21T06:48:55.062Z</time></trkpt><trkpt lat="44.5591254" lon="7.7081162"><ele>356.0</ele><time>2026-04-21T06:48:56.074Z</time></trkpt><trkpt lat="44.5590496" lon="7.708236"><ele>356.0</ele><time>2026-04-21T06:48:57.068Z</time></trkpt><trkpt lat="44.558973" lon="7.7083558"><ele>356.0</ele><time>2026-04-21T06:48:58.075Z</time></trkpt><trkpt lat="44.5588945" lon="7.7084775"><ele>356.0</ele><time>2026-04-21T06:48:59.055Z</time></trkpt><trkpt lat="44.5588159" lon="7.7086044"><ele>355.75</ele><time>2026-04-21T06:49:00.064Z</time></trkpt><trkpt lat="44.5587336" lon="7.7087344"><ele>355.5</ele><time>2026-04-21T06:49:01.067Z</time></trkpt><trkpt lat="44.558649" lon="7.7088625"><ele>355.25</ele><time>2026-04-21T06:49:02.068Z</time></trkpt><trkpt lat="44.558567" lon="7.708985"><ele>355.0</ele><time>2026-04-21T06:49:03.065Z</time></trkpt><trkpt lat="44.5584862" lon="7.7091033"><ele>355.0</ele><time>2026-04-21T06:49:04.072Z</time></trkpt><trkpt lat="44.5584074" lon="7.7092236"><ele>355.0</ele><time>2026-04-21T06:49:05.075Z</time></trkpt><trkpt lat="44.5583276" lon="7.7093498"><ele>355.0</ele><time>2026-04-21T06:49:06.074Z</time></trkpt><trkpt lat="44.5582464" lon="7.7094803"><ele>355.0</ele><time>2026-04-21T06:49:07.064Z</time></trkpt><trkpt lat="44.5581626" lon="7.7096113"><ele>355.25</ele><time>2026-04-21T06:49:08.07Z</time></trkpt><trkpt lat="44.5580777" lon="7.7097383"><ele>355.5</ele><time>2026-04-21T06:49:09.056Z</time></trkpt><trkpt lat="44.5579946" lon="7.7098673"><ele>355.75</ele><time>2026-04-21T06:49:10.076Z</time></trkpt><trkpt lat="44.5579114" lon="7.7099979"><ele>356.0</ele><time>2026-04-21T06:49:11.067Z</time></trkpt><trkpt lat="44.5578267" lon="7.7101273"><ele>355.5</ele><time>2026-04-21T06:49:12.066Z</time></trkpt><trkpt lat="44.557742" lon="7.7102605"><ele>355.0</ele><time>2026-04-21T06:49:13.068Z</time></trkpt><trkpt lat="44.5576559" lon="7.7103971"><ele>354.5</ele><time>2026-04-21T06:49:14.069Z</time></trkpt><trkpt lat="44.5575722" lon="7.7105352"><ele>354.0</ele><time>2026-04-21T06:49:15.075Z</time></trkpt><trkpt lat="44.5574917" lon="7.710674"><ele>354.0</ele><time>2026-04-21T06:49:16.065Z</time></trkpt><trkpt lat="44.5574138" lon="7.710806"><ele>354.0</ele><time>2026-04-21T06:49:17.067Z</time></trkpt><trkpt lat="44.5573377" lon="7.7109307"><ele>354.0</ele><time>2026-04-21T06:49:18.053Z</time></trkpt><trkpt lat="44.5572647" lon="7.7110413"><ele>354.0</ele><time>2026-04-21T06:49:19.063Z</time></trkpt><trkpt lat="44.5571917" lon="7.7111478"><ele>354.0</ele><time>2026-04-21T06:49:20.056Z</time></trkpt><trkpt lat="44.5571208" lon="7.7112603"><ele>354.0</ele><time>2026-04-21T06:49:21.068Z</time></trkpt><trkpt lat="44.5570466" lon="7.7113827"><ele>354.0</ele><time>2026-04-21T06:49:22.061Z</time></trkpt><trkpt lat="44.5569678" lon="7.7115115"><ele>354.0</ele><time>2026-04-21T06:49:23.066Z</time></trkpt><trkpt lat="44.5568836" lon="7.711644"><ele>354.0</ele><time>2026-04-21T06:49:24.075Z</time></trkpt><trkpt lat="44.5567994" lon="7.7117703"><ele>354.0</ele><time>2026-04-21T06:49:25.072Z</time></trkpt><trkpt lat="44.5567201" lon="7.7118917"><ele>354.0</ele><time>2026-04-21T06:49:26.065Z</time></trkpt><trkpt lat="44.5566448" lon="7.7120046"><ele>354.0</ele><time>2026-04-21T06:49:27.064Z</time></trkpt><trkpt lat="44.5565704" lon="7.7121171"><ele>353.79999999999995</ele><time>2026-04-21T06:49:28.052Z</time></trkpt><trkpt lat="44.5564966" lon="7.7122268"><ele>353.59999999999997</ele><time>2026-04-21T06:49:29.066Z</time></trkpt><trkpt lat="44.5564248" lon="7.7123308"><ele>353.4</ele><time>2026-04-21T06:49:30.059Z</time></trkpt><trkpt lat="44.556358" lon="7.7124297"><ele>353.2</ele><time>2026-04-21T06:49:31.057Z</time></trkpt><trkpt lat="44.5562935" lon="7.712527"><ele>353.0</ele><time>2026-04-21T06:49:32.066Z</time></trkpt><trkpt lat="44.5562289" lon="7.7126231"><ele>353.33333333333337</ele><time>2026-04-21T06:49:33.078Z</time></trkpt><trkpt lat="44.5561676" lon="7.71271"><ele>353.6666666666667</ele><time>2026-04-21T06:49:34.069Z</time></trkpt><trkpt lat="44.5561078" lon="7.7127929"><ele>354.0</ele><time>2026-04-21T06:49:35.064Z</time></trkpt><trkpt lat="44.5560483" lon="7.712873"><ele>354.3333333333333</ele><time>2026-04-21T06:49:36.065Z</time></trkpt><trkpt lat="44.5559903" lon="7.7129498"><ele>354.66666666666663</ele><time>2026-04-21T06:49:37.061Z</time></trkpt><trkpt lat="44.5559328" lon="7.7130239"><ele>355.0</ele><time>2026-04-21T06:49:38.062Z</time></trkpt><trkpt lat="44.5558778" lon="7.7130937"><ele>355.0</ele><time>2026-04-21T06:49:39.069Z</time></trkpt><trkpt lat="44.5558289" lon="7.7131577"><ele>355.0</ele><time>2026-04-21T06:49:40.067Z</time></trkpt><trkpt lat="44.5557649" lon="7.7132337"><ele>355.0</ele><time>2026-04-21T06:49:42.068Z</time></trkpt><trkpt lat="44.5557081" lon="7.7133008"><ele>355.0</ele><time>2026-04-21T06:49:47.052Z</time></trkpt><trkpt lat="44.555658" lon="7.7133544"><ele>355.0</ele><time>2026-04-21T06:49:52.062Z</time></trkpt><trkpt lat="44.5555888" lon="7.7133753"><ele>355.0</ele><time>2026-04-21T06:49:55.069Z</time></trkpt><trkpt lat="44.5555241" lon="7.71341"><ele>355.0</ele><time>2026-04-21T06:49:58.067Z</time></trkpt><trkpt lat="44.5554338" lon="7.7134361"><ele>355.0</ele><time>2026-04-21T06:50:00.06Z</time></trkpt><trkpt lat="44.5553507" lon="7.7135019"><ele>355.0</ele><time>2026-04-21T06:50:02.061Z</time></trkpt><trkpt lat="44.5553177" lon="7.7136527"><ele>355.0</ele><time>2026-04-21T06:50:04.062Z</time></trkpt><trkpt lat="44.5553221" lon="7.7137467"><ele>355.0</ele><time>2026-04-21T06:50:05.067Z</time></trkpt><trkpt lat="44.5553254" lon="7.7138473"><ele>355.0</ele><time>2026-04-21T06:50:06.059Z</time></trkpt><trkpt lat="44.5553205" lon="7.7139563"><ele>355.0</ele><time>2026-04-21T06:50:07.073Z</time></trkpt><trkpt lat="44.5553022" lon="7.7140665"><ele>355.0</ele><time>2026-04-21T06:50:08.053Z</time></trkpt><trkpt lat="44.5552768" lon="7.7141713"><ele>355.0</ele><time>2026-04-21T06:50:09.068Z</time></trkpt><trkpt lat="44.555252" lon="7.7142646"><ele>355.0</ele><time>2026-04-21T06:50:10.057Z</time></trkpt><trkpt lat="44.5552303" lon="7.7143593"><ele>355.0</ele><time>2026-04-21T06:50:11.061Z</time></trkpt><trkpt lat="44.5552164" lon="7.7144548"><ele>355.0</ele><time>2026-04-21T06:50:12.071Z</time></trkpt><trkpt lat="44.5552026" lon="7.7145572"><ele>355.0</ele><time>2026-04-21T06:50:13.072Z</time></trkpt><trkpt lat="44.5551886" lon="7.7146754"><ele>355.0</ele><time>2026-04-21T06:50:14.066Z</time></trkpt><trkpt lat="44.5551792" lon="7.7148053"><ele>355.0</ele><time>2026-04-21T06:50:15.074Z</time></trkpt><trkpt lat="44.5551714" lon="7.7149399"><ele>355.0</ele><time>2026-04-21T06:50:16.063Z</time></trkpt><trkpt lat="44.5551677" lon="7.7150815"><ele>355.0</ele><time>2026-04-21T06:50:17.06Z</time></trkpt><trkpt lat="44.5551584" lon="7.7152226"><ele>355.0</ele><time>2026-04-21T06:50:18.076Z</time></trkpt><trkpt lat="44.5551536" lon="7.7153657"><ele>355.0</ele><time>2026-04-21T06:50:19.071Z</time></trkpt><trkpt lat="44.5551533" lon="7.7155039"><ele>355.0</ele><time>2026-04-21T06:50:20.06Z</time></trkpt><trkpt lat="44.5551533" lon="7.7156307"><ele>355.0</ele><time>2026-04-21T06:50:21.076Z</time></trkpt><trkpt lat="44.5551532" lon="7.7157514"><ele>355.0</ele><time>2026-04-21T06:50:22.065Z</time></trkpt><trkpt lat="44.5551556" lon="7.7158765"><ele>355.0</ele><time>2026-04-21T06:50:23.078Z</time></trkpt><trkpt lat="44.555157" lon="7.7160106"><ele>354.8</ele><time>2026-04-21T06:50:24.066Z</time></trkpt><trkpt lat="44.5551562" lon="7.7161543"><ele>354.6</ele><time>2026-04-21T06:50:25.067Z</time></trkpt><trkpt lat="44.5551548" lon="7.7163046"><ele>354.4</ele><time>2026-04-21T06:50:26.066Z</time></trkpt><trkpt lat="44.555156" lon="7.716461"><ele>354.2</ele><time>2026-04-21T06:50:27.066Z</time></trkpt><trkpt lat="44.5551583" lon="7.7166188"><ele>354.0</ele><time>2026-04-21T06:50:28.08Z</time></trkpt><trkpt lat="44.5551577" lon="7.7167766"><ele>354.0</ele><time>2026-04-21T06:50:29.059Z</time></trkpt><trkpt lat="44.5551593" lon="7.7169356"><ele>354.0</ele><time>2026-04-21T06:50:30.064Z</time></trkpt><trkpt lat="44.555166" lon="7.717098"><ele>354.0</ele><time>2026-04-21T06:50:31.065Z</time></trkpt><trkpt lat="44.5551786" lon="7.7172608"><ele>354.0</ele><time>2026-04-21T06:50:32.065Z</time></trkpt><trkpt lat="44.5551928" lon="7.7174089"><ele>354.0</ele><time>2026-04-21T06:50:33.069Z</time></trkpt><trkpt lat="44.5552124" lon="7.7175407"><ele>354.0</ele><time>2026-04-21T06:50:34.058Z</time></trkpt><trkpt lat="44.5552318" lon="7.7176604"><ele>354.0</ele><time>2026-04-21T06:50:35.07Z</time></trkpt><trkpt lat="44.5552515" lon="7.7177708"><ele>354.0</ele><time>2026-04-21T06:50:36.062Z</time></trkpt><trkpt lat="44.5552737" lon="7.7178788"><ele>354.0</ele><time>2026-04-21T06:50:37.06Z</time></trkpt><trkpt lat="44.5552904" lon="7.7179723"><ele>354.0</ele><time>2026-04-21T06:50:38.064Z</time></trkpt><trkpt lat="44.5553044" lon="7.7180649"><ele>354.0</ele><time>2026-04-21T06:50:39.068Z</time></trkpt><trkpt lat="44.5553152" lon="7.7181554"><ele>354.0</ele><time>2026-04-21T06:50:40.066Z</time></trkpt><trkpt lat="44.5553207" lon="7.7182468"><ele>354.0</ele><time>2026-04-21T06:50:41.064Z</time></trkpt><trkpt lat="44.5553036" lon="7.7184134"><ele>354.0</ele><time>2026-04-21T06:50:43.071Z</time></trkpt><trkpt lat="44.5552265" lon="7.7185386"><ele>354.0</ele><time>2026-04-21T06:50:45.059Z</time></trkpt><trkpt lat="44.5551679" lon="7.718591"><ele>354.0</ele><time>2026-04-21T06:50:46.079Z</time></trkpt><trkpt lat="44.5551066" lon="7.7186476"><ele>354.0</ele><time>2026-04-21T06:50:47.061Z</time></trkpt><trkpt lat="44.5550439" lon="7.7187098"><ele>354.0</ele><time>2026-04-21T06:50:48.064Z</time></trkpt><trkpt lat="44.5549783" lon="7.7187733"><ele>354.0</ele><time>2026-04-21T06:50:49.074Z</time></trkpt><trkpt lat="44.5549112" lon="7.7188367"><ele>354.0</ele><time>2026-04-21T06:50:50.068Z</time></trkpt><trkpt lat="44.5548464" lon="7.7188997"><ele>354.0</ele><time>2026-04-21T06:50:51.076Z</time></trkpt><trkpt lat="44.5547874" lon="7.7189591"><ele>354.0</ele><time>2026-04-21T06:50:52.077Z</time></trkpt><trkpt lat="44.5547329" lon="7.719014"><ele>354.0</ele><time>2026-04-21T06:50:53.066Z</time></trkpt><trkpt lat="44.5546811" lon="7.7190647"><ele>354.0</ele><time>2026-04-21T06:50:54.069Z</time></trkpt><trkpt lat="44.5545937" lon="7.7191624"><ele>354.0</ele><time>2026-04-21T06:50:56.073Z</time></trkpt><trkpt lat="44.5545116" lon="7.7192455"><ele>354.0</ele><time>2026-04-21T06:50:58.066Z</time></trkpt><trkpt lat="44.5544072" lon="7.7193446"><ele>354.0</ele><time>2026-04-21T06:51:00.065Z</time></trkpt><trkpt lat="44.5543485" lon="7.719401"><ele>354.2</ele><time>2026-04-21T06:51:01.063Z</time></trkpt><trkpt lat="44.5542852" lon="7.7194571"><ele>354.4</ele><time>2026-04-21T06:51:02.07Z</time></trkpt><trkpt lat="44.5542231" lon="7.719513"><ele>354.6</ele><time>2026-04-21T06:51:03.063Z</time></trkpt><trkpt lat="44.5541677" lon="7.7195626"><ele>354.8</ele><time>2026-04-21T06:51:04.075Z</time></trkpt><trkpt lat="44.554074" lon="7.7196567"><ele>355.0</ele><time>2026-04-21T06:51:06.061Z</time></trkpt><trkpt lat="44.5539657" lon="7.7197672"><ele>355.0</ele><time>2026-04-21T06:51:08.068Z</time></trkpt><trkpt lat="44.5539013" lon="7.719828"><ele>355.0</ele><time>2026-04-21T06:51:09.07Z</time></trkpt><trkpt lat="44.5538344" lon="7.7198915"><ele>355.0</ele><time>2026-04-21T06:51:10.062Z</time></trkpt><trkpt lat="44.5537636" lon="7.719959"><ele>355.0</ele><time>2026-04-21T06:51:11.057Z</time></trkpt><trkpt lat="44.5536926" lon="7.7200259"><ele>355.0</ele><time>2026-04-21T06:51:12.064Z</time></trkpt><trkpt lat="44.5536274" lon="7.7200934"><ele>355.0</ele><time>2026-04-21T06:51:13.071Z</time></trkpt><trkpt lat="44.5535649" lon="7.7201635"><ele>355.16666666666663</ele><time>2026-04-21T06:51:14.072Z</time></trkpt><trkpt lat="44.5535024" lon="7.7202277"><ele>355.3333333333333</ele><time>2026-04-21T06:51:15.053Z</time></trkpt><trkpt lat="44.5534406" lon="7.7202912"><ele>355.5</ele><time>2026-04-21T06:51:16.066Z</time></trkpt><trkpt lat="44.5533743" lon="7.7203481"><ele>355.6666666666667</ele><time>2026-04-21T06:51:17.063Z</time></trkpt><trkpt lat="44.5533032" lon="7.7204039"><ele>355.83333333333337</ele><time>2026-04-21T06:51:18.065Z</time></trkpt><trkpt lat="44.5532294" lon="7.7204551"><ele>356.0</ele><time>2026-04-21T06:51:19.062Z</time></trkpt><trkpt lat="44.553156" lon="7.7205116"><ele>356.1666666666667</ele><time>2026-04-21T06:51:20.064Z</time></trkpt><trkpt lat="44.5530831" lon="7.7205787"><ele>356.33333333333337</ele><time>2026-04-21T06:51:21.071Z</time></trkpt><trkpt lat="44.553013" lon="7.7206518"><ele>356.5</ele><time>2026-04-21T06:51:22.075Z</time></trkpt><trkpt lat="44.5529405" lon="7.7207251"><ele>356.6666666666667</ele><time>2026-04-21T06:51:23.061Z</time></trkpt><trkpt lat="44.5528735" lon="7.7207914"><ele>356.8333333333333</ele><time>2026-04-21T06:51:24.076Z</time></trkpt><trkpt lat="44.5528099" lon="7.7208502"><ele>357.0</ele><time>2026-04-21T06:51:25.065Z</time></trkpt><trkpt lat="44.5527507" lon="7.7209101"><ele>357.0</ele><time>2026-04-21T06:51:26.064Z</time></trkpt><trkpt lat="44.5526929" lon="7.7209685"><ele>357.0</ele><time>2026-04-21T06:51:27.067Z</time></trkpt><trkpt lat="44.5525998" lon="7.7210738"><ele>357.0</ele><time>2026-04-21T06:51:29.077Z</time></trkpt><trkpt lat="44.5525149" lon="7.7211642"><ele>357.0</ele><time>2026-04-21T06:51:31.069Z</time></trkpt><trkpt lat="44.5524582" lon="7.7212112"><ele>357.0</ele><time>2026-04-21T06:51:33.069Z</time></trkpt><trkpt lat="44.552376" lon="7.7212524"><ele>357.0</ele><time>2026-04-21T06:51:37.064Z</time></trkpt><trkpt lat="44.5522559" lon="7.7212919"><ele>357.0</ele><time>2026-04-21T06:51:39.071Z</time></trkpt><trkpt lat="44.5521758" lon="7.7213086"><ele>357.0</ele><time>2026-04-21T06:51:40.052Z</time></trkpt><trkpt lat="44.5520873" lon="7.72132"><ele>357.0</ele><time>2026-04-21T06:51:41.073Z</time></trkpt><trkpt lat="44.5520031" lon="7.7213258"><ele>357.0</ele><time>2026-04-21T06:51:42.064Z</time></trkpt><trkpt lat="44.5519081" lon="7.7213334"><ele>357.0</ele><time>2026-04-21T06:51:43.066Z</time></trkpt><trkpt lat="44.55182" lon="7.7213447"><ele>357.0</ele><time>2026-04-21T06:51:44.052Z</time></trkpt><trkpt lat="44.5517283" lon="7.7213484"><ele>357.0</ele><time>2026-04-21T06:51:45.065Z</time></trkpt><trkpt lat="44.5516284" lon="7.7213566"><ele>357.0</ele><time>2026-04-21T06:51:46.064Z</time></trkpt><trkpt lat="44.5515213" lon="7.721365"><ele>357.0</ele><time>2026-04-21T06:51:47.066Z</time></trkpt><trkpt lat="44.5514213" lon="7.7213703"><ele>357.0</ele><time>2026-04-21T06:51:48.061Z</time></trkpt><trkpt lat="44.551333" lon="7.7213743"><ele>357.0</ele><time>2026-04-21T06:51:49.065Z</time></trkpt><trkpt lat="44.5512579" lon="7.7213793"><ele>357.0</ele><time>2026-04-21T06:51:50.065Z</time></trkpt><trkpt lat="44.5512168" lon="7.7214792"><ele>357.0</ele><time>2026-04-21T06:51:53.056Z</time></trkpt><trkpt lat="44.5512261" lon="7.7216459"><ele>357.0</ele><time>2026-04-21T06:51:55.054Z</time></trkpt><trkpt lat="44.5512481" lon="7.7217464"><ele>357.0</ele><time>2026-04-21T06:51:56.056Z</time></trkpt><trkpt lat="44.5512441" lon="7.7218813"><ele>357.5</ele><time>2026-04-21T06:51:57.058Z</time></trkpt><trkpt lat="44.5512242" lon="7.7220283"><ele>358.0</ele><time>2026-04-21T06:51:58.051Z</time></trkpt><trkpt lat="44.5511977" lon="7.7221635"><ele>358.5</ele><time>2026-04-21T06:51:59.051Z</time></trkpt><trkpt lat="44.5511704" lon="7.7222874"><ele>359.0</ele><time>2026-04-21T06:52:00.052Z</time></trkpt><trkpt lat="44.5511449" lon="7.7223947"><ele>359.5</ele><time>2026-04-21T06:52:01.055Z</time></trkpt><trkpt lat="44.5511236" lon="7.7224861"><ele>360.0</ele><time>2026-04-21T06:52:02.055Z</time></trkpt><trkpt lat="44.5510763" lon="7.7226117"><ele>360.8333333333333</ele><time>2026-04-21T06:52:04.047Z</time></trkpt><trkpt lat="44.5510147" lon="7.7226652"><ele>361.6666666666667</ele><time>2026-04-21T06:52:06.047Z</time></trkpt><trkpt lat="44.5510509" lon="7.7225461"><ele>362.5</ele><time>2026-04-21T06:52:37.052Z</time></trkpt><trkpt lat="44.5510793" lon="7.7224268"><ele>363.33333333333337</ele><time>2026-04-21T06:52:39.046Z</time></trkpt><trkpt lat="44.5510954" lon="7.7222746"><ele>364.1666666666667</ele><time>2026-04-21T06:52:41.052Z</time></trkpt><trkpt lat="44.5511003" lon="7.7221737"><ele>365.0</ele><time>2026-04-21T06:52:42.051Z</time></trkpt><trkpt lat="44.5511088" lon="7.7220578"><ele>365.0</ele><time>2026-04-21T06:52:43.052Z</time></trkpt><trkpt lat="44.5511217" lon="7.7219276"><ele>365.0</ele><time>2026-04-21T06:52:44.05Z</time></trkpt><trkpt lat="44.5511336" lon="7.7218042"><ele>365.0</ele><time>2026-04-21T06:52:45.047Z</time></trkpt><trkpt lat="44.5511529" lon="7.7216967"><ele>365.0</ele><time>2026-04-21T06:52:46.047Z</time></trkpt><trkpt lat="44.5511767" lon="7.7215979"><ele>365.0</ele><time>2026-04-21T06:52:47.048Z</time></trkpt><trkpt lat="44.5511919" lon="7.7215113"><ele>365.0</ele><time>2026-04-21T06:52:48.049Z</time></trkpt><trkpt lat="44.5512169" lon="7.721409"><ele>364.0</ele><time>2026-04-21T06:52:50.052Z</time></trkpt><trkpt lat="44.55115" lon="7.7213731"><ele>363.0</ele><time>2026-04-21T06:53:05.049Z</time></trkpt><trkpt lat="44.5510875" lon="7.7213614"><ele>362.0</ele><time>2026-04-21T06:53:06.056Z</time></trkpt><trkpt lat="44.5510042" lon="7.7213579"><ele>361.0</ele><time>2026-04-21T06:53:07.051Z</time></trkpt><trkpt lat="44.5509225" lon="7.721361"><ele>360.0</ele><time>2026-04-21T06:53:08.054Z</time></trkpt><trkpt lat="44.5508411" lon="7.7213597"><ele>359.0</ele><time>2026-04-21T06:53:09.056Z</time></trkpt><trkpt lat="44.5507522" lon="7.7213533"><ele>359.0</ele><time>2026-04-21T06:53:10.055Z</time></trkpt><trkpt lat="44.550667" lon="7.721341"><ele>359.0</ele><time>2026-04-21T06:53:11.057Z</time></trkpt><trkpt lat="44.5505795" lon="7.7213173"><ele>359.0</ele><time>2026-04-21T06:53:12.061Z</time></trkpt><trkpt lat="44.5504908" lon="7.7212798"><ele>359.0</ele><time>2026-04-21T06:53:13.062Z</time></trkpt><trkpt lat="44.5504008" lon="7.7212396"><ele>359.0</ele><time>2026-04-21T06:53:14.056Z</time></trkpt><trkpt lat="44.5503255" lon="7.7212061"><ele>359.0</ele><time>2026-04-21T06:53:15.058Z</time></trkpt><trkpt lat="44.5502615" lon="7.7211849"><ele>359.83333333333337</ele><time>2026-04-21T06:53:16.056Z</time></trkpt><trkpt lat="44.5501547" lon="7.7211636"><ele>360.6666666666667</ele><time>2026-04-21T06:53:18.053Z</time></trkpt><trkpt lat="44.5500935" lon="7.7212106"><ele>361.5</ele><time>2026-04-21T06:53:20.053Z</time></trkpt><trkpt lat="44.550107" lon="7.7213419"><ele>362.3333333333333</ele><time>2026-04-21T06:53:22.053Z</time></trkpt><trkpt lat="44.5501095" lon="7.7214413"><ele>363.16666666666663</ele><time>2026-04-21T06:53:23.057Z</time></trkpt><trkpt lat="44.5501025" lon="7.7215604"><ele>364.0</ele><time>2026-04-21T06:53:24.054Z</time></trkpt><trkpt lat="44.5500975" lon="7.7216823"><ele>364.0</ele><time>2026-04-21T06:53:25.056Z</time></trkpt><trkpt lat="44.5500985" lon="7.721817"><ele>364.0</ele><time>2026-04-21T06:53:26.056Z</time></trkpt><trkpt lat="44.5501001" lon="7.7219627"><ele>364.0</ele><time>2026-04-21T06:53:27.055Z</time></trkpt><trkpt lat="44.5500971" lon="7.722109"><ele>364.0</ele><time>2026-04-21T06:53:28.051Z</time></trkpt><trkpt lat="44.5500877" lon="7.7222471"><ele>364.0</ele><time>2026-04-21T06:53:29.051Z</time></trkpt><trkpt lat="44.5500777" lon="7.72237"><ele>365.66666666666663</ele><time>2026-04-21T06:53:30.049Z</time></trkpt><trkpt lat="44.55007" lon="7.7224767"><ele>367.3333333333333</ele><time>2026-04-21T06:53:31.051Z</time></trkpt><trkpt lat="44.5500701" lon="7.7225675"><ele>369.0</ele><time>2026-04-21T06:53:32.048Z</time></trkpt><trkpt lat="44.5500635" lon="7.7227361"><ele>370.6666666666667</ele><time>2026-04-21T06:53:34.055Z</time></trkpt><trkpt lat="44.5500301" lon="7.7228942"><ele>372.33333333333337</ele><time>2026-04-21T06:53:36.055Z</time></trkpt><trkpt lat="44.5499978" lon="7.722978"><ele>374.0</ele><time>2026-04-21T06:53:37.055Z</time></trkpt><trkpt lat="44.5499641" lon="7.7230706"><ele>375.0</ele><time>2026-04-21T06:53:38.055Z</time></trkpt><trkpt lat="44.5499331" lon="7.7231677"><ele>376.0</ele><time>2026-04-21T06:53:39.051Z</time></trkpt><trkpt lat="44.5499003" lon="7.7232492"><ele>377.0</ele><time>2026-04-21T06:53:40.053Z</time></trkpt><trkpt lat="44.5498429" lon="7.7233704"><ele>378.0</ele><time>2026-04-21T06:53:42.051Z</time></trkpt><trkpt lat="44.5497714" lon="7.7234368"><ele>379.0</ele><time>2026-04-21T06:53:44.053Z</time></trkpt><trkpt lat="44.5496863" lon="7.7234427"><ele>380.0</ele><time>2026-04-21T06:53:46.053Z</time></trkpt><trkpt lat="44.5495674" lon="7.7234115"><ele>380.0</ele><time>2026-04-21T06:53:48.053Z</time></trkpt><trkpt lat="44.5494439" lon="7.7233813"><ele>380.0</ele><time>2026-04-21T06:53:50.051Z</time></trkpt><trkpt lat="44.5493813" lon="7.7233688"><ele>380.0</ele><time>2026-04-21T06:53:51.052Z</time></trkpt><trkpt lat="44.5493194" lon="7.7233522"><ele>380.0</ele><time>2026-04-21T06:53:52.05Z</time></trkpt><trkpt lat="44.5492556" lon="7.7233352"><ele>380.0</ele><time>2026-04-21T06:53:53.059Z</time></trkpt><trkpt lat="44.5491935" lon="7.7233184"><ele>380.0</ele><time>2026-04-21T06:53:54.054Z</time></trkpt><trkpt lat="44.5490755" lon="7.7232915"><ele>380.0</ele><time>2026-04-21T06:53:56.05Z</time></trkpt><trkpt lat="44.5489746" lon="7.72327"><ele>380.0</ele><time>2026-04-21T06:53:58.051Z</time></trkpt><trkpt lat="44.548877" lon="7.7232658"><ele>380.0</ele><time>2026-04-21T06:54:00.055Z</time></trkpt><trkpt lat="44.548771" lon="7.7232577"><ele>380.0</ele><time>2026-04-21T06:54:02.052Z</time></trkpt><trkpt lat="44.5486539" lon="7.7232324"><ele>380.0</ele><time>2026-04-21T06:54:04.05Z</time></trkpt><trkpt lat="44.5485263" lon="7.723217"><ele>380.6</ele><time>2026-04-21T06:54:06.051Z</time></trkpt><trkpt lat="44.5484593" lon="7.7232094"><ele>381.2</ele><time>2026-04-21T06:54:07.054Z</time></trkpt><trkpt lat="44.5483457" lon="7.7232043"><ele>381.79999999999995</ele><time>2026-04-21T06:54:09.049Z</time></trkpt><trkpt lat="44.5482704" lon="7.723208"><ele>382.4</ele><time>2026-04-21T06:54:15.046Z</time></trkpt><trkpt lat="44.548168" lon="7.723165"><ele>383.0</ele><time>2026-04-21T06:54:17.049Z</time></trkpt><trkpt lat="44.5480503" lon="7.7231464"><ele>383.0</ele><time>2026-04-21T06:54:19.051Z</time></trkpt><trkpt lat="44.5479673" lon="7.7231449"><ele>383.0</ele><time>2026-04-21T06:54:21.051Z</time></trkpt><trkpt lat="44.5479046" lon="7.723129"><ele>383.0</ele><time>2026-04-21T06:54:23.053Z</time></trkpt><trkpt lat="44.5478856" lon="7.7230067"><ele>383.0</ele><time>2026-04-21T06:54:27.052Z</time></trkpt><trkpt lat="44.54791" lon="7.7228593"><ele>383.0</ele><time>2026-04-21T06:54:29.047Z</time></trkpt><trkpt lat="44.5479183" lon="7.7227666"><ele>383.0</ele><time>2026-04-21T06:54:30.048Z</time></trkpt><trkpt lat="44.5479258" lon="7.7226696"><ele>382.5</ele><time>2026-04-21T06:54:31.047Z</time></trkpt><trkpt lat="44.5479346" lon="7.7225723"><ele>382.0</ele><time>2026-04-21T06:54:32.055Z</time></trkpt><trkpt lat="44.5479425" lon="7.7224747"><ele>381.5</ele><time>2026-04-21T06:54:33.051Z</time></trkpt><trkpt lat="44.5479533" lon="7.7223765"><ele>381.0</ele><time>2026-04-21T06:54:34.049Z</time></trkpt><trkpt lat="44.547965" lon="7.7222786"><ele>380.5</ele><time>2026-04-21T06:54:35.051Z</time></trkpt><trkpt lat="44.5479759" lon="7.7221863"><ele>380.0</ele><time>2026-04-21T06:54:36.047Z</time></trkpt><trkpt lat="44.5480167" lon="7.7220502"><ele>380.0</ele><time>2026-04-21T06:54:38.045Z</time></trkpt><trkpt lat="44.5480927" lon="7.7219919"><ele>380.0</ele><time>2026-04-21T06:54:40.054Z</time></trkpt><trkpt lat="44.5482154" lon="7.7219812"><ele>380.0</ele><time>2026-04-21T06:54:42.052Z</time></trkpt><trkpt lat="44.548289" lon="7.7219753"><ele>380.0</ele><time>2026-04-21T06:54:43.053Z</time></trkpt><trkpt lat="44.5483609" lon="7.721967"><ele>380.0</ele><time>2026-04-21T06:54:44.051Z</time></trkpt><trkpt lat="44.5484287" lon="7.7219571"><ele>380.0</ele><time>2026-04-21T06:54:45.059Z</time></trkpt><trkpt lat="44.5485028" lon="7.7219508"><ele>380.0</ele><time>2026-04-21T06:54:46.056Z</time></trkpt><trkpt lat="44.5485747" lon="7.7219479"><ele>380.0</ele><time>2026-04-21T06:54:47.052Z</time></trkpt><trkpt lat="44.5486444" lon="7.7219458"><ele>380.0</ele><time>2026-04-21T06:54:48.052Z</time></trkpt><trkpt lat="44.5487086" lon="7.7219408"><ele>380.0</ele><time>2026-04-21T06:54:49.055Z</time></trkpt><trkpt lat="44.5488153" lon="7.7219346"><ele>380.0</ele><time>2026-04-21T06:54:51.051Z</time></trkpt><trkpt lat="44.5488951" lon="7.7219329"><ele>380.0</ele><time>2026-04-21T06:54:53.056Z</time></trkpt><trkpt lat="44.5489693" lon="7.7219236"><ele>377.4</ele><time>2026-04-21T06:55:02.052Z</time></trkpt><trkpt lat="44.5490972" lon="7.7218803"><ele>374.8</ele><time>2026-04-21T06:55:04.055Z</time></trkpt><trkpt lat="44.5491802" lon="7.7218576"><ele>372.20000000000005</ele><time>2026-04-21T06:55:05.06Z</time></trkpt><trkpt lat="44.5492702" lon="7.7218405"><ele>369.6</ele><time>2026-04-21T06:55:06.052Z</time></trkpt><trkpt lat="44.5493583" lon="7.7218297"><ele>367.0</ele><time>2026-04-21T06:55:07.055Z</time></trkpt><trkpt lat="44.5494417" lon="7.7218173"><ele>367.0</ele><time>2026-04-21T06:55:08.055Z</time></trkpt><trkpt lat="44.5495254" lon="7.7218002"><ele>367.0</ele><time>2026-04-21T06:55:09.052Z</time></trkpt><trkpt lat="44.5496082" lon="7.7217865"><ele>367.0</ele><time>2026-04-21T06:55:10.054Z</time></trkpt><trkpt lat="44.5496895" lon="7.7217741"><ele>367.0</ele><time>2026-04-21T06:55:11.052Z</time></trkpt><trkpt lat="44.5497709" lon="7.7217609"><ele>367.0</ele><time>2026-04-21T06:55:12.051Z</time></trkpt><trkpt lat="44.549848" lon="7.7217484"><ele>367.0</ele><time>2026-04-21T06:55:13.062Z</time></trkpt><trkpt lat="44.5499446" lon="7.7217263"><ele>366.5</ele><time>2026-04-21T06:55:15.057Z</time></trkpt><trkpt lat="44.5500162" lon="7.7216955"><ele>366.0</ele><time>2026-04-21T06:55:18.054Z</time></trkpt><trkpt lat="44.5500873" lon="7.7216531"><ele>365.5</ele><time>2026-04-21T06:55:22.052Z</time></trkpt><trkpt lat="44.5500929" lon="7.7215437"><ele>365.0</ele><time>2026-04-21T06:55:24.054Z</time></trkpt><trkpt lat="44.5500931" lon="7.7213999"><ele>364.5</ele><time>2026-04-21T06:55:26.056Z</time></trkpt><trkpt lat="44.5501076" lon="7.7212765"><ele>364.0</ele><time>2026-04-21T06:55:28.059Z</time></trkpt><trkpt lat="44.5501309" lon="7.7211724"><ele>364.0</ele><time>2026-04-21T06:55:30.054Z</time></trkpt><trkpt lat="44.5500296" lon="7.7211902"><ele>364.0</ele><time>2026-04-21T06:55:33.051Z</time></trkpt><trkpt lat="44.5499674" lon="7.7212227"><ele>364.0</ele><time>2026-04-21T06:55:34.054Z</time></trkpt><trkpt lat="44.5498991" lon="7.7212466"><ele>364.0</ele><time>2026-04-21T06:55:35.054Z</time></trkpt><trkpt lat="44.5498318" lon="7.7212694"><ele>364.0</ele><time>2026-04-21T06:55:36.047Z</time></trkpt><trkpt lat="44.549768" lon="7.721281"><ele>364.0</ele><time>2026-04-21T06:55:37.051Z</time></trkpt><trkpt lat="44.5496438" lon="7.7212877"><ele>364.0</ele><time>2026-04-21T06:55:39.055Z</time></trkpt><trkpt lat="44.5495751" lon="7.7212839"><ele>364.0</ele><time>2026-04-21T06:55:40.053Z</time></trkpt><trkpt lat="44.5495029" lon="7.7212767"><ele>364.0</ele><time>2026-04-21T06:55:41.052Z</time></trkpt><trkpt lat="44.5494264" lon="7.721265"><ele>364.0</ele><time>2026-04-21T06:55:42.05Z</time></trkpt><trkpt lat="44.5493435" lon="7.7212514"><ele>364.0</ele><time>2026-04-21T06:55:43.057Z</time></trkpt><trkpt lat="44.5492577" lon="7.7212383"><ele>364.0</ele><time>2026-04-21T06:55:44.05Z</time></trkpt><trkpt lat="44.5491677" lon="7.7212181"><ele>364.5</ele><time>2026-04-21T06:55:45.055Z</time></trkpt><trkpt lat="44.5490804" lon="7.7211939"><ele>365.0</ele><time>2026-04-21T06:55:46.049Z</time></trkpt><trkpt lat="44.5489927" lon="7.7211708"><ele>365.5</ele><time>2026-04-21T06:55:47.056Z</time></trkpt><trkpt lat="44.5489161" lon="7.7211515"><ele>366.0</ele><time>2026-04-21T06:55:48.052Z</time></trkpt><trkpt lat="44.5488409" lon="7.7211343"><ele>366.5</ele><time>2026-04-21T06:55:49.051Z</time></trkpt><trkpt lat="44.5487619" lon="7.7211152"><ele>367.0</ele><time>2026-04-21T06:55:50.052Z</time></trkpt><trkpt lat="44.5486839" lon="7.7210962"><ele>367.20000000000005</ele><time>2026-04-21T06:55:51.055Z</time></trkpt><trkpt lat="44.5486122" lon="7.7210763"><ele>367.4</ele><time>2026-04-21T06:55:52.058Z</time></trkpt><trkpt lat="44.5485473" lon="7.7210584"><ele>367.6</ele><time>2026-04-21T06:55:53.057Z</time></trkpt><trkpt lat="44.5484301" lon="7.7210588"><ele>367.79999999999995</ele><time>2026-04-21T06:55:55.055Z</time></trkpt><trkpt lat="44.548308" lon="7.7210655"><ele>368.0</ele><time>2026-04-21T06:55:57.055Z</time></trkpt><trkpt lat="44.5481996" lon="7.7210813"><ele>368.0</ele><time>2026-04-21T06:55:59.056Z</time></trkpt><trkpt lat="44.5481148" lon="7.7210972"><ele>368.0</ele><time>2026-04-21T06:56:01.055Z</time></trkpt><trkpt lat="44.548016" lon="7.7211292"><ele>368.0</ele><time>2026-04-21T06:56:03.054Z</time></trkpt><trkpt lat="44.5479033" lon="7.7211745"><ele>368.0</ele><time>2026-04-21T06:56:05.058Z</time></trkpt><trkpt lat="44.5478379" lon="7.7211992"><ele>368.0</ele><time>2026-04-21T06:56:06.058Z</time></trkpt><trkpt lat="44.5477684" lon="7.7212239"><ele>368.0</ele><time>2026-04-21T06:56:07.052Z</time></trkpt><trkpt lat="44.5476992" lon="7.7212473"><ele>367.1666666666667</ele><time>2026-04-21T06:56:08.055Z</time></trkpt><trkpt lat="44.547629" lon="7.7212685"><ele>366.33333333333337</ele><time>2026-04-21T06:56:09.051Z</time></trkpt><trkpt lat="44.5475556" lon="7.7212925"><ele>365.5</ele><time>2026-04-21T06:56:10.053Z</time></trkpt><trkpt lat="44.5474782" lon="7.7213177"><ele>364.6666666666667</ele><time>2026-04-21T06:56:11.057Z</time></trkpt><trkpt lat="44.5474077" lon="7.7213398"><ele>363.8333333333333</ele><time>2026-04-21T06:56:12.056Z</time></trkpt><trkpt lat="44.5472955" lon="7.7213734"><ele>363.0</ele><time>2026-04-21T06:56:14.051Z</time></trkpt><trkpt lat="44.5472031" lon="7.7213951"><ele>363.0</ele><time>2026-04-21T06:56:16.049Z</time></trkpt><trkpt lat="44.5471272" lon="7.7214117"><ele>363.0</ele><time>2026-04-21T06:56:18.05Z</time></trkpt><trkpt lat="44.5470526" lon="7.7214319"><ele>363.0</ele><time>2026-04-21T06:56:20.052Z</time></trkpt><trkpt lat="44.5469673" lon="7.7214301"><ele>363.0</ele><time>2026-04-21T06:56:22.053Z</time></trkpt><trkpt lat="44.5468709" lon="7.7214278"><ele>363.0</ele><time>2026-04-21T06:56:24.05Z</time></trkpt><trkpt lat="44.5468136" lon="7.7214722"><ele>363.0</ele><time>2026-04-21T06:56:25.055Z</time></trkpt><trkpt lat="44.5467596" lon="7.7215528"><ele>361.8333333333333</ele><time>2026-04-21T06:56:26.055Z</time></trkpt><trkpt lat="44.5467067" lon="7.7216357"><ele>360.6666666666667</ele><time>2026-04-21T06:56:27.048Z</time></trkpt><trkpt lat="44.5466596" lon="7.7217049"><ele>359.5</ele><time>2026-04-21T06:56:28.058Z</time></trkpt><trkpt lat="44.5466136" lon="7.7217703"><ele>358.33333333333337</ele><time>2026-04-21T06:56:29.057Z</time></trkpt><trkpt lat="44.5465307" lon="7.721874"><ele>357.1666666666667</ele><time>2026-04-21T06:56:31.049Z</time></trkpt><trkpt lat="44.5464716" lon="7.7219134"><ele>356.0</ele><time>2026-04-21T06:56:32.052Z</time></trkpt><trkpt lat="44.5463992" lon="7.7219392"><ele>355.99999999999994</ele><time>2026-04-21T06:56:33.051Z</time></trkpt><trkpt lat="44.546325" lon="7.721938"><ele>356.0</ele><time>2026-04-21T06:56:34.056Z</time></trkpt><trkpt lat="44.5462587" lon="7.721917"><ele>356.0</ele><time>2026-04-21T06:56:35.057Z</time></trkpt><trkpt lat="44.5461956" lon="7.7218778"><ele>356.0</ele><time>2026-04-21T06:56:36.055Z</time></trkpt><trkpt lat="44.5461378" lon="7.7218222"><ele>356.0</ele><time>2026-04-21T06:56:37.055Z</time></trkpt><trkpt lat="44.546085" lon="7.72176"><ele>355.99999999999994</ele><time>2026-04-21T06:56:38.047Z</time></trkpt><trkpt lat="44.5460348" lon="7.7217043"><ele>356.0</ele><time>2026-04-21T06:56:39.052Z</time></trkpt><trkpt lat="44.5459393" lon="7.7215981"><ele>355.83333333333337</ele><time>2026-04-21T06:56:41.049Z</time></trkpt><trkpt lat="44.5458781" lon="7.7215469"><ele>355.6666666666667</ele><time>2026-04-21T06:56:42.059Z</time></trkpt><trkpt lat="44.5458183" lon="7.7214779"><ele>355.5</ele><time>2026-04-21T06:56:43.051Z</time></trkpt><trkpt lat="44.5457599" lon="7.7214136"><ele>355.3333333333333</ele><time>2026-04-21T06:56:44.052Z</time></trkpt><trkpt lat="44.5457061" lon="7.7213582"><ele>355.16666666666663</ele><time>2026-04-21T06:56:45.057Z</time></trkpt><trkpt lat="44.5456106" lon="7.7212426"><ele>355.0</ele><time>2026-04-21T06:56:47.048Z</time></trkpt><trkpt lat="44.5455215" lon="7.7211422"><ele>354.8</ele><time>2026-04-21T06:56:49.051Z</time></trkpt><trkpt lat="44.5454351" lon="7.7210383"><ele>354.6</ele><time>2026-04-21T06:56:51.053Z</time></trkpt><trkpt lat="44.5453334" lon="7.7209283"><ele>354.4</ele><time>2026-04-21T06:56:53.048Z</time></trkpt><trkpt lat="44.5452765" lon="7.720879"><ele>354.2</ele><time>2026-04-21T06:56:54.048Z</time></trkpt><trkpt lat="44.5452207" lon="7.7208268"><ele>354.0</ele><time>2026-04-21T06:56:55.053Z</time></trkpt><trkpt lat="44.5451473" lon="7.7207381"><ele>354.0</ele><time>2026-04-21T06:56:57.054Z</time></trkpt><trkpt lat="44.5450736" lon="7.7206686"><ele>354.0</ele><time>2026-04-21T06:57:04.053Z</time></trkpt><trkpt lat="44.5450096" lon="7.720622"><ele>354.0</ele><time>2026-04-21T06:57:06.058Z</time></trkpt><trkpt lat="44.5449513" lon="7.7205729"><ele>354.0</ele><time>2026-04-21T06:57:10.05Z</time></trkpt><trkpt lat="44.5448765" lon="7.7205039"><ele>354.0</ele><time>2026-04-21T06:57:13.056Z</time></trkpt><trkpt lat="44.544763" lon="7.7204177"><ele>354.0</ele><time>2026-04-21T06:57:15.056Z</time></trkpt><trkpt lat="44.5446943" lon="7.7203562"><ele>354.0</ele><time>2026-04-21T06:57:16.056Z</time></trkpt><trkpt lat="44.5446238" lon="7.7202939"><ele>354.0</ele><time>2026-04-21T06:57:17.045Z</time></trkpt><trkpt lat="44.5445662" lon="7.7202362"><ele>354.0</ele><time>2026-04-21T06:57:18.052Z</time></trkpt><trkpt lat="44.5444911" lon="7.7201503"><ele>354.0</ele><time>2026-04-21T06:57:20.053Z</time></trkpt><trkpt lat="44.5444162" lon="7.7200825"><ele>354.0</ele><time>2026-04-21T06:57:27.055Z</time></trkpt><trkpt lat="44.5443538" lon="7.7200342"><ele>354.0</ele><time>2026-04-21T06:57:28.055Z</time></trkpt><trkpt lat="44.5442751" lon="7.7200021"><ele>353.6</ele><time>2026-04-21T06:57:29.058Z</time></trkpt><trkpt lat="44.5441992" lon="7.720009"><ele>353.2</ele><time>2026-04-21T06:57:30.052Z</time></trkpt><trkpt lat="44.5441304" lon="7.7200751"><ele>352.8</ele><time>2026-04-21T06:57:31.051Z</time></trkpt><trkpt lat="44.544058" lon="7.7201553"><ele>352.40000000000003</ele><time>2026-04-21T06:57:32.054Z</time></trkpt><trkpt lat="44.5439749" lon="7.7202323"><ele>352.0</ele><time>2026-04-21T06:57:33.056Z</time></trkpt><trkpt lat="44.5438795" lon="7.7203064"><ele>352.0</ele><time>2026-04-21T06:57:34.054Z</time></trkpt><trkpt lat="44.543778" lon="7.7203882"><ele>352.0</ele><time>2026-04-21T06:57:35.053Z</time></trkpt><trkpt lat="44.5436749" lon="7.7204696"><ele>352.0</ele><time>2026-04-21T06:57:36.058Z</time></trkpt><trkpt lat="44.5435669" lon="7.7205496"><ele>352.0</ele><time>2026-04-21T06:57:37.052Z</time></trkpt><trkpt lat="44.5434579" lon="7.7206241"><ele>352.20000000000005</ele><time>2026-04-21T06:57:38.052Z</time></trkpt><trkpt lat="44.54335" lon="7.7206825"><ele>352.4</ele><time>2026-04-21T06:57:39.05Z</time></trkpt><trkpt lat="44.5432474" lon="7.7207219"><ele>352.6</ele><time>2026-04-21T06:57:40.056Z</time></trkpt><trkpt lat="44.5431553" lon="7.7207509"><ele>352.79999999999995</ele><time>2026-04-21T06:57:41.054Z</time></trkpt><trkpt lat="44.543075" lon="7.7207812"><ele>353.0</ele><time>2026-04-21T06:57:42.049Z</time></trkpt><trkpt lat="44.5430095" lon="7.7208467"><ele>353.0</ele><time>2026-04-21T06:57:43.053Z</time></trkpt><trkpt lat="44.5429521" lon="7.7209635"><ele>353.0</ele><time>2026-04-21T06:57:44.052Z</time></trkpt><trkpt lat="44.5428756" lon="7.7210886"><ele>353.0</ele><time>2026-04-21T06:57:45.061Z</time></trkpt><trkpt lat="44.5427689" lon="7.7211858"><ele>353.0</ele><time>2026-04-21T06:57:46.052Z</time></trkpt><trkpt lat="44.5426436" lon="7.7212765"><ele>353.25</ele><time>2026-04-21T06:57:47.06Z</time></trkpt><trkpt lat="44.5425215" lon="7.7213701"><ele>353.5</ele><time>2026-04-21T06:57:48.055Z</time></trkpt><trkpt lat="44.5423974" lon="7.7214613"><ele>353.75</ele><time>2026-04-21T06:57:49.053Z</time></trkpt><trkpt lat="44.5422768" lon="7.7215539"><ele>354.0</ele><time>2026-04-21T06:57:50.055Z</time></trkpt><trkpt lat="44.5421682" lon="7.7216392"><ele>354.0</ele><time>2026-04-21T06:57:51.05Z</time></trkpt><trkpt lat="44.5420736" lon="7.721726"><ele>354.0</ele><time>2026-04-21T06:57:52.056Z</time></trkpt><trkpt lat="44.5419864" lon="7.7218198"><ele>354.0</ele><time>2026-04-21T06:57:53.056Z</time></trkpt><trkpt lat="44.5419125" lon="7.7219067"><ele>354.0</ele><time>2026-04-21T06:57:54.053Z</time></trkpt><trkpt lat="44.541841" lon="7.7219809"><ele>354.0</ele><time>2026-04-21T06:57:55.055Z</time></trkpt><trkpt lat="44.5417578" lon="7.7220515"><ele>354.0</ele><time>2026-04-21T06:57:56.054Z</time></trkpt><trkpt lat="44.5416637" lon="7.7221206"><ele>354.0</ele><time>2026-04-21T06:57:57.051Z</time></trkpt><trkpt lat="44.5415723" lon="7.72219"><ele>354.0</ele><time>2026-04-21T06:57:58.05Z</time></trkpt><trkpt lat="44.5414917" lon="7.7222623"><ele>354.0</ele><time>2026-04-21T06:57:59.053Z</time></trkpt><trkpt lat="44.5414236" lon="7.7223527"><ele>354.0</ele><time>2026-04-21T06:58:00.049Z</time></trkpt><trkpt lat="44.541372" lon="7.7224617"><ele>354.0</ele><time>2026-04-21T06:58:01.052Z</time></trkpt><trkpt lat="44.5413388" lon="7.722586"><ele>354.0</ele><time>2026-04-21T06:58:02.055Z</time></trkpt><trkpt lat="44.5413177" lon="7.7227211"><ele>354.0</ele><time>2026-04-21T06:58:03.057Z</time></trkpt><trkpt lat="44.541298" lon="7.7228768"><ele>354.0</ele><time>2026-04-21T06:58:04.06Z</time></trkpt><trkpt lat="44.5412659" lon="7.7230437"><ele>354.0</ele><time>2026-04-21T06:58:05.056Z</time></trkpt><trkpt lat="44.5412207" lon="7.7232185"><ele>348.0</ele><time>2026-04-21T06:58:06.056Z</time></trkpt><trkpt lat="44.5411476" lon="7.7233952"><ele>342.0</ele><time>2026-04-21T06:58:07.057Z</time></trkpt><trkpt lat="44.5410609" lon="7.7235775"><ele>336.0</ele><time>2026-04-21T06:58:08.051Z</time></trkpt><trkpt lat="44.5409672" lon="7.7237646"><ele>335.3333333333333</ele><time>2026-04-21T06:58:09.056Z</time></trkpt><trkpt lat="44.5408706" lon="7.7239516"><ele>334.66666666666663</ele><time>2026-04-21T06:58:10.052Z</time></trkpt><trkpt lat="44.5407795" lon="7.7241483"><ele>334.0</ele><time>2026-04-21T06:58:11.059Z</time></trkpt><trkpt lat="44.5406946" lon="7.7243517"><ele>333.3333333333333</ele><time>2026-04-21T06:58:12.055Z</time></trkpt><trkpt lat="44.5406201" lon="7.7245645"><ele>332.6666666666667</ele><time>2026-04-21T06:58:13.061Z</time></trkpt><trkpt lat="44.5405569" lon="7.7247931"><ele>332.0</ele><time>2026-04-21T06:58:14.057Z</time></trkpt><trkpt lat="44.5404992" lon="7.7250276"><ele>332.0</ele><time>2026-04-21T06:58:15.056Z</time></trkpt><trkpt lat="44.5404442" lon="7.7252652"><ele>332.0</ele><time>2026-04-21T06:58:16.056Z</time></trkpt><trkpt lat="44.5403901" lon="7.7255075"><ele>332.0</ele><time>2026-04-21T06:58:17.059Z</time></trkpt><trkpt lat="44.5403368" lon="7.7257559"><ele>332.33333333333337</ele><time>2026-04-21T06:58:18.059Z</time></trkpt><trkpt lat="44.5402879" lon="7.7260094"><ele>332.6666666666667</ele><time>2026-04-21T06:58:19.052Z</time></trkpt><trkpt lat="44.5402425" lon="7.7262723"><ele>333.0</ele><time>2026-04-21T06:58:20.06Z</time></trkpt><trkpt lat="44.5402045" lon="7.7265406"><ele>333.0</ele><time>2026-04-21T06:58:21.06Z</time></trkpt><trkpt lat="44.5401777" lon="7.7268172"><ele>333.0</ele><time>2026-04-21T06:58:22.063Z</time></trkpt><trkpt lat="44.5401653" lon="7.7270944"><ele>333.0</ele><time>2026-04-21T06:58:23.052Z</time></trkpt><trkpt lat="44.5401655" lon="7.7273779"><ele>333.0</ele><time>2026-04-21T06:58:24.066Z</time></trkpt><trkpt lat="44.5401781" lon="7.7276634"><ele>333.0</ele><time>2026-04-21T06:58:25.062Z</time></trkpt><trkpt lat="44.540199" lon="7.7279492"><ele>333.0</ele><time>2026-04-21T06:58:26.058Z</time></trkpt><trkpt lat="44.5402334" lon="7.7282341"><ele>332.0</ele><time>2026-04-21T06:58:27.053Z</time></trkpt><trkpt lat="44.5402802" lon="7.7285175"><ele>331.0</ele><time>2026-04-21T06:58:28.053Z</time></trkpt><trkpt lat="44.5403441" lon="7.7287992"><ele>330.0</ele><time>2026-04-21T06:58:29.054Z</time></trkpt><trkpt lat="44.5404177" lon="7.7290764"><ele>328.3333333333333</ele><time>2026-04-21T06:58:30.061Z</time></trkpt><trkpt lat="44.5405027" lon="7.7293445"><ele>326.66666666666663</ele><time>2026-04-21T06:58:31.052Z</time></trkpt><trkpt lat="44.5405985" lon="7.7296064"><ele>325.0</ele><time>2026-04-21T06:58:32.059Z</time></trkpt><trkpt lat="44.5406994" lon="7.7298658"><ele>322.3333333333333</ele><time>2026-04-21T06:58:33.053Z</time></trkpt><trkpt lat="44.540808" lon="7.7301231"><ele>319.6666666666667</ele><time>2026-04-21T06:58:34.063Z</time></trkpt><trkpt lat="44.5409189" lon="7.7303735"><ele>317.0</ele><time>2026-04-21T06:58:35.066Z</time></trkpt><trkpt lat="44.541029" lon="7.7306186"><ele>315.0</ele><time>2026-04-21T06:58:36.049Z</time></trkpt><trkpt lat="44.5411401" lon="7.7308624"><ele>313.0</ele><time>2026-04-21T06:58:37.055Z</time></trkpt><trkpt lat="44.5412475" lon="7.7311056"><ele>311.0</ele><time>2026-04-21T06:58:38.054Z</time></trkpt><trkpt lat="44.5413552" lon="7.7313472"><ele>310.33333333333337</ele><time>2026-04-21T06:58:39.06Z</time></trkpt><trkpt lat="44.5414616" lon="7.7315876"><ele>309.6666666666667</ele><time>2026-04-21T06:58:40.052Z</time></trkpt><trkpt lat="44.5415637" lon="7.7318302"><ele>309.0</ele><time>2026-04-21T06:58:41.059Z</time></trkpt><trkpt lat="44.541667" lon="7.732075"><ele>307.6666666666667</ele><time>2026-04-21T06:58:42.053Z</time></trkpt><trkpt lat="44.5417697" lon="7.7323235"><ele>306.33333333333337</ele><time>2026-04-21T06:58:43.055Z</time></trkpt><trkpt lat="44.5418744" lon="7.7325736"><ele>305.0</ele><time>2026-04-21T06:58:44.058Z</time></trkpt><trkpt lat="44.5419805" lon="7.7328228"><ele>304.33333333333337</ele><time>2026-04-21T06:58:45.055Z</time></trkpt><trkpt lat="44.5420841" lon="7.7330709"><ele>303.6666666666667</ele><time>2026-04-21T06:58:46.056Z</time></trkpt><trkpt lat="44.5421867" lon="7.733319"><ele>303.0</ele><time>2026-04-21T06:58:47.057Z</time></trkpt><trkpt lat="44.5422945" lon="7.7335687"><ele>301.6666666666667</ele><time>2026-04-21T06:58:48.052Z</time></trkpt><trkpt lat="44.5424004" lon="7.7338161"><ele>300.33333333333337</ele><time>2026-04-21T06:58:49.055Z</time></trkpt><trkpt lat="44.5425073" lon="7.7340631"><ele>299.0</ele><time>2026-04-21T06:58:50.053Z</time></trkpt><trkpt lat="44.5426129" lon="7.7343085"><ele>299.0</ele><time>2026-04-21T06:58:51.059Z</time></trkpt><trkpt lat="44.5427195" lon="7.7345573"><ele>299.0</ele><time>2026-04-21T06:58:52.065Z</time></trkpt><trkpt lat="44.5428257" lon="7.7348085"><ele>299.0</ele><time>2026-04-21T06:58:53.057Z</time></trkpt><trkpt lat="44.5429344" lon="7.7350607"><ele>301.6666666666667</ele><time>2026-04-21T06:58:54.057Z</time></trkpt><trkpt lat="44.5430454" lon="7.7353111"><ele>304.3333333333333</ele><time>2026-04-21T06:58:55.058Z</time></trkpt><trkpt lat="44.5431565" lon="7.7355603"><ele>307.0</ele><time>2026-04-21T06:58:56.06Z</time></trkpt><trkpt lat="44.5432652" lon="7.7358115"><ele>313.66666666666663</ele><time>2026-04-21T06:58:57.051Z</time></trkpt><trkpt lat="44.5433733" lon="7.7360649"><ele>320.3333333333333</ele><time>2026-04-21T06:58:58.052Z</time></trkpt><trkpt lat="44.5434829" lon="7.7363187"><ele>327.0</ele><time>2026-04-21T06:58:59.056Z</time></trkpt><trkpt lat="44.5435935" lon="7.7365702"><ele>327.0</ele><time>2026-04-21T06:59:00.051Z</time></trkpt><trkpt lat="44.5437029" lon="7.7368224"><ele>327.0</ele><time>2026-04-21T06:59:01.066Z</time></trkpt><trkpt lat="44.5438097" lon="7.7370733"><ele>327.0</ele><time>2026-04-21T06:59:02.055Z</time></trkpt><trkpt lat="44.543915" lon="7.7373228"><ele>326.6666666666667</ele><time>2026-04-21T06:59:03.068Z</time></trkpt><trkpt lat="44.5440199" lon="7.7375674"><ele>326.33333333333337</ele><time>2026-04-21T06:59:04.061Z</time></trkpt><trkpt lat="44.5441239" lon="7.7378054"><ele>326.0</ele><time>2026-04-21T06:59:05.055Z</time></trkpt><trkpt lat="44.5442254" lon="7.7380409"><ele>329.0</ele><time>2026-04-21T06:59:06.056Z</time></trkpt><trkpt lat="44.5443291" lon="7.7382763"><ele>332.0</ele><time>2026-04-21T06:59:07.051Z</time></trkpt><trkpt lat="44.544431" lon="7.7385138"><ele>335.0</ele><time>2026-04-21T06:59:08.064Z</time></trkpt><trkpt lat="44.5445286" lon="7.7387529"><ele>335.0</ele><time>2026-04-21T06:59:09.053Z</time></trkpt><trkpt lat="44.5446261" lon="7.7389904"><ele>335.0</ele><time>2026-04-21T06:59:10.056Z</time></trkpt><trkpt lat="44.5447209" lon="7.7392311"><ele>335.0</ele><time>2026-04-21T06:59:11.056Z</time></trkpt><trkpt lat="44.5448021" lon="7.7394777"><ele>338.33333333333337</ele><time>2026-04-21T06:59:12.059Z</time></trkpt><trkpt lat="44.5448572" lon="7.7397339"><ele>341.6666666666667</ele><time>2026-04-21T06:59:13.062Z</time></trkpt><trkpt lat="44.5448898" lon="7.7400058"><ele>345.0</ele><time>2026-04-21T06:59:14.056Z</time></trkpt><trkpt lat="44.5449005" lon="7.7402934"><ele>347.3333333333333</ele><time>2026-04-21T06:59:15.061Z</time></trkpt><trkpt lat="44.5448923" lon="7.7405803"><ele>349.66666666666663</ele><time>2026-04-21T06:59:16.058Z</time></trkpt><trkpt lat="44.5448617" lon="7.7408644"><ele>352.0</ele><time>2026-04-21T06:59:17.054Z</time></trkpt><trkpt lat="44.5448114" lon="7.7411391"><ele>352.0</ele><time>2026-04-21T06:59:18.059Z</time></trkpt><trkpt lat="44.544734" lon="7.7414047"><ele>352.0</ele><time>2026-04-21T06:59:19.059Z</time></trkpt><trkpt lat="44.5446414" lon="7.7416541"><ele>352.0</ele><time>2026-04-21T06:59:20.053Z</time></trkpt><trkpt lat="44.5445291" lon="7.7418925"><ele>352.66666666666663</ele><time>2026-04-21T06:59:21.06Z</time></trkpt><trkpt lat="44.5443974" lon="7.7421117"><ele>353.3333333333333</ele><time>2026-04-21T06:59:22.057Z</time></trkpt><trkpt lat="44.5442577" lon="7.7423245"><ele>354.0</ele><time>2026-04-21T06:59:23.053Z</time></trkpt><trkpt lat="44.544107" lon="7.7425354"><ele>354.0</ele><time>2026-04-21T06:59:24.061Z</time></trkpt><trkpt lat="44.5439674" lon="7.7427501"><ele>354.0</ele><time>2026-04-21T06:59:25.053Z</time></trkpt><trkpt lat="44.5438317" lon="7.7429624"><ele>354.0</ele><time>2026-04-21T06:59:26.051Z</time></trkpt><trkpt lat="44.5436973" lon="7.7431712"><ele>354.0</ele><time>2026-04-21T06:59:27.061Z</time></trkpt><trkpt lat="44.5435609" lon="7.7433791"><ele>354.0</ele><time>2026-04-21T06:59:28.062Z</time></trkpt><trkpt lat="44.543427" lon="7.7435877"><ele>354.0</ele><time>2026-04-21T06:59:29.064Z</time></trkpt><trkpt lat="44.5432974" lon="7.7437967"><ele>354.0</ele><time>2026-04-21T06:59:30.053Z</time></trkpt><trkpt lat="44.5431679" lon="7.7440037"><ele>354.0</ele><time>2026-04-21T06:59:31.053Z</time></trkpt><trkpt lat="44.5430381" lon="7.744211"><ele>354.0</ele><time>2026-04-21T06:59:32.055Z</time></trkpt><trkpt lat="44.5429089" lon="7.7444206"><ele>353.6666666666667</ele><time>2026-04-21T06:59:33.058Z</time></trkpt><trkpt lat="44.5427815" lon="7.7446295"><ele>353.33333333333337</ele><time>2026-04-21T06:59:34.06Z</time></trkpt><trkpt lat="44.5426542" lon="7.7448336"><ele>353.0</ele><time>2026-04-21T06:59:35.064Z</time></trkpt><trkpt lat="44.5425269" lon="7.7450364"><ele>353.33333333333337</ele><time>2026-04-21T06:59:36.051Z</time></trkpt><trkpt lat="44.5423978" lon="7.745238"><ele>353.6666666666667</ele><time>2026-04-21T06:59:37.059Z</time></trkpt><trkpt lat="44.5422717" lon="7.7454416"><ele>354.0</ele><time>2026-04-21T06:59:38.055Z</time></trkpt><trkpt lat="44.5421434" lon="7.7456466"><ele>354.0</ele><time>2026-04-21T06:59:39.062Z</time></trkpt><trkpt lat="44.5420134" lon="7.7458527"><ele>354.0</ele><time>2026-04-21T06:59:40.056Z</time></trkpt><trkpt lat="44.5418831" lon="7.7460609"><ele>354.0</ele><time>2026-04-21T06:59:41.059Z</time></trkpt><trkpt lat="44.5417524" lon="7.7462698"><ele>354.0</ele><time>2026-04-21T06:59:42.057Z</time></trkpt><trkpt lat="44.54162" lon="7.7464766"><ele>354.0</ele><time>2026-04-21T06:59:43.059Z</time></trkpt><trkpt lat="44.5414876" lon="7.7466834"><ele>354.0</ele><time>2026-04-21T06:59:44.051Z</time></trkpt><trkpt lat="44.5413533" lon="7.7468911"><ele>354.0</ele><time>2026-04-21T06:59:45.052Z</time></trkpt><trkpt lat="44.5412202" lon="7.7471031"><ele>354.0</ele><time>2026-04-21T06:59:46.053Z</time></trkpt><trkpt lat="44.5410876" lon="7.7473164"><ele>354.0</ele><time>2026-04-21T06:59:47.053Z</time></trkpt><trkpt lat="44.5409564" lon="7.7475324"><ele>353.6666666666667</ele><time>2026-04-21T06:59:48.057Z</time></trkpt><trkpt lat="44.5408251" lon="7.7477467"><ele>353.33333333333337</ele><time>2026-04-21T06:59:49.058Z</time></trkpt><trkpt lat="44.5406913" lon="7.7479624"><ele>353.0</ele><time>2026-04-21T06:59:50.061Z</time></trkpt><trkpt lat="44.5405575" lon="7.7481754"><ele>353.0</ele><time>2026-04-21T06:59:51.067Z</time></trkpt><trkpt lat="44.5404253" lon="7.7483909"><ele>353.0</ele><time>2026-04-21T06:59:52.061Z</time></trkpt><trkpt lat="44.5402917" lon="7.7486069"><ele>353.0</ele><time>2026-04-21T06:59:53.065Z</time></trkpt><trkpt lat="44.5401571" lon="7.7488236"><ele>352.6666666666667</ele><time>2026-04-21T06:59:54.051Z</time></trkpt><trkpt lat="44.5400241" lon="7.7490431"><ele>352.3333333333333</ele><time>2026-04-21T06:59:55.063Z</time></trkpt><trkpt lat="44.5398917" lon="7.7492623"><ele>352.0</ele><time>2026-04-21T06:59:56.057Z</time></trkpt><trkpt lat="44.5397605" lon="7.7494867"><ele>352.0</ele><time>2026-04-21T06:59:57.059Z</time></trkpt><trkpt lat="44.5396287" lon="7.7497124"><ele>352.0</ele><time>2026-04-21T06:59:58.055Z</time></trkpt><trkpt lat="44.5394977" lon="7.7499378"><ele>352.0</ele><time>2026-04-21T06:59:59.056Z</time></trkpt><trkpt lat="44.5393703" lon="7.7501677"><ele>351.0</ele><time>2026-04-21T07:00:00.057Z</time></trkpt><trkpt lat="44.5392438" lon="7.7504003"><ele>350.0</ele><time>2026-04-21T07:00:01.056Z</time></trkpt><trkpt lat="44.5391162" lon="7.7506348"><ele>349.0</ele><time>2026-04-21T07:00:02.055Z</time></trkpt><trkpt lat="44.5389863" lon="7.7508681"><ele>347.3333333333333</ele><time>2026-04-21T07:00:03.083Z</time></trkpt><trkpt lat="44.5388554" lon="7.7510979"><ele>345.6666666666667</ele><time>2026-04-21T07:00:04.067Z</time></trkpt><trkpt lat="44.5387266" lon="7.7513297"><ele>344.0</ele><time>2026-04-21T07:00:05.062Z</time></trkpt><trkpt lat="44.5385987" lon="7.7515624"><ele>341.6666666666667</ele><time>2026-04-21T07:00:06.065Z</time></trkpt><trkpt lat="44.5384711" lon="7.7517937"><ele>339.3333333333333</ele><time>2026-04-21T07:00:07.066Z</time></trkpt><trkpt lat="44.5383434" lon="7.7520228"><ele>337.0</ele><time>2026-04-21T07:00:08.07Z</time></trkpt><trkpt lat="44.5382174" lon="7.7522491"><ele>337.3333333333333</ele><time>2026-04-21T07:00:09.054Z</time></trkpt><trkpt lat="44.5380916" lon="7.7524772"><ele>337.6666666666667</ele><time>2026-04-21T07:00:10.069Z</time></trkpt><trkpt lat="44.5379654" lon="7.7527036"><ele>338.0</ele><time>2026-04-21T07:00:11.059Z</time></trkpt><trkpt lat="44.5378389" lon="7.7529287"><ele>338.0</ele><time>2026-04-21T07:00:12.068Z</time></trkpt><trkpt lat="44.5377118" lon="7.7531542"><ele>338.0</ele><time>2026-04-21T07:00:13.065Z</time></trkpt><trkpt lat="44.5375858" lon="7.753381"><ele>338.0</ele><time>2026-04-21T07:00:14.066Z</time></trkpt><trkpt lat="44.5374603" lon="7.7536069"><ele>341.33333333333337</ele><time>2026-04-21T07:00:15.064Z</time></trkpt><trkpt lat="44.5373372" lon="7.7538287"><ele>344.6666666666667</ele><time>2026-04-21T07:00:16.077Z</time></trkpt><trkpt lat="44.5372151" lon="7.7540474"><ele>348.0</ele><time>2026-04-21T07:00:17.062Z</time></trkpt><trkpt lat="44.5370969" lon="7.7542595"><ele>349.6666666666667</ele><time>2026-04-21T07:00:18.065Z</time></trkpt><trkpt lat="44.5369855" lon="7.7544607"><ele>351.33333333333337</ele><time>2026-04-21T07:00:19.076Z</time></trkpt><trkpt lat="44.5368793" lon="7.7546513"><ele>353.0</ele><time>2026-04-21T07:00:20.06Z</time></trkpt><trkpt lat="44.5367776" lon="7.7548337"><ele>353.0</ele><time>2026-04-21T07:00:21.08Z</time></trkpt><trkpt lat="44.5366788" lon="7.7550132"><ele>353.0</ele><time>2026-04-21T07:00:22.068Z</time></trkpt><trkpt lat="44.5365827" lon="7.7551947"><ele>353.0</ele><time>2026-04-21T07:00:23.076Z</time></trkpt><trkpt lat="44.5364824" lon="7.7553804"><ele>353.0</ele><time>2026-04-21T07:00:24.062Z</time></trkpt><trkpt lat="44.5363821" lon="7.7555683"><ele>353.0</ele><time>2026-04-21T07:00:25.064Z</time></trkpt><trkpt lat="44.5362833" lon="7.755759"><ele>353.0</ele><time>2026-04-21T07:00:26.064Z</time></trkpt><trkpt lat="44.5361776" lon="7.7559492"><ele>352.6666666666667</ele><time>2026-04-21T07:00:27.065Z</time></trkpt><trkpt lat="44.5360687" lon="7.7561395"><ele>352.3333333333333</ele><time>2026-04-21T07:00:28.079Z</time></trkpt><trkpt lat="44.5359591" lon="7.7563299"><ele>352.0</ele><time>2026-04-21T07:00:29.066Z</time></trkpt><trkpt lat="44.5358513" lon="7.7565271"><ele>352.0</ele><time>2026-04-21T07:00:30.064Z</time></trkpt><trkpt lat="44.5357446" lon="7.756728"><ele>352.0</ele><time>2026-04-21T07:00:31.076Z</time></trkpt><trkpt lat="44.5356372" lon="7.7569239"><ele>352.0</ele><time>2026-04-21T07:00:32.07Z</time></trkpt><trkpt lat="44.5355294" lon="7.7571141"><ele>351.3333333333333</ele><time>2026-04-21T07:00:33.078Z</time></trkpt><trkpt lat="44.5354201" lon="7.7573051"><ele>350.6666666666667</ele><time>2026-04-21T07:00:34.069Z</time></trkpt><trkpt lat="44.5353117" lon="7.7574991"><ele>350.0</ele><time>2026-04-21T07:00:35.067Z</time></trkpt><trkpt lat="44.535208" lon="7.7577001"><ele>352.6666666666667</ele><time>2026-04-21T07:00:36.066Z</time></trkpt><trkpt lat="44.5351208" lon="7.7579077"><ele>355.3333333333333</ele><time>2026-04-21T07:00:37.055Z</time></trkpt><trkpt lat="44.5350543" lon="7.7581322"><ele>358.0</ele><time>2026-04-21T07:00:38.065Z</time></trkpt><trkpt lat="44.5350058" lon="7.7583665"><ele>359.0</ele><time>2026-04-21T07:00:39.067Z</time></trkpt><trkpt lat="44.5349822" lon="7.7586132"><ele>360.0</ele><time>2026-04-21T07:00:40.082Z</time></trkpt><trkpt lat="44.5349833" lon="7.7588621"><ele>361.0</ele><time>2026-04-21T07:00:41.071Z</time></trkpt><trkpt lat="44.535002" lon="7.7591095"><ele>361.0</ele><time>2026-04-21T07:00:42.067Z</time></trkpt><trkpt lat="44.5350441" lon="7.7593515"><ele>361.0</ele><time>2026-04-21T07:00:43.072Z</time></trkpt><trkpt lat="44.5351126" lon="7.7595847"><ele>361.0</ele><time>2026-04-21T07:00:44.071Z</time></trkpt><trkpt lat="44.5352015" lon="7.7598019"><ele>361.3333333333333</ele><time>2026-04-21T07:00:45.074Z</time></trkpt><trkpt lat="44.5353117" lon="7.7600006"><ele>361.6666666666667</ele><time>2026-04-21T07:00:46.071Z</time></trkpt><trkpt lat="44.5354415" lon="7.7601802"><ele>362.0</ele><time>2026-04-21T07:00:47.071Z</time></trkpt><trkpt lat="44.5355827" lon="7.7603491"><ele>362.0</ele><time>2026-04-21T07:00:48.068Z</time></trkpt><trkpt lat="44.5357306" lon="7.7605038"><ele>362.0</ele><time>2026-04-21T07:00:49.068Z</time></trkpt><trkpt lat="44.5358791" lon="7.7606479"><ele>362.0</ele><time>2026-04-21T07:00:50.065Z</time></trkpt><trkpt lat="44.5360236" lon="7.7607932"><ele>362.0</ele><time>2026-04-21T07:00:51.07Z</time></trkpt><trkpt lat="44.5361653" lon="7.7609421"><ele>362.0</ele><time>2026-04-21T07:00:52.066Z</time></trkpt><trkpt lat="44.5363076" lon="7.7610971"><ele>362.0</ele><time>2026-04-21T07:00:53.066Z</time></trkpt><trkpt lat="44.5364523" lon="7.7612524"><ele>365.33333333333337</ele><time>2026-04-21T07:00:54.067Z</time></trkpt><trkpt lat="44.5365946" lon="7.761407"><ele>368.6666666666667</ele><time>2026-04-21T07:00:55.07Z</time></trkpt><trkpt lat="44.5367362" lon="7.7615572"><ele>372.0</ele><time>2026-04-21T07:00:56.071Z</time></trkpt><trkpt lat="44.5368806" lon="7.7617074"><ele>372.0</ele><time>2026-04-21T07:00:57.073Z</time></trkpt><trkpt lat="44.5370267" lon="7.7618582"><ele>372.0</ele><time>2026-04-21T07:00:58.072Z</time></trkpt><trkpt lat="44.5371723" lon="7.7620081"><ele>372.0</ele><time>2026-04-21T07:00:59.073Z</time></trkpt><trkpt lat="44.5373142" lon="7.7621562"><ele>373.6666666666667</ele><time>2026-04-21T07:01:00.062Z</time></trkpt><trkpt lat="44.5374551" lon="7.7623038"><ele>375.33333333333337</ele><time>2026-04-21T07:01:01.059Z</time></trkpt><trkpt lat="44.5375943" lon="7.7624511"><ele>377.0</ele><time>2026-04-21T07:01:02.077Z</time></trkpt><trkpt lat="44.5377323" lon="7.7625996"><ele>378.33333333333337</ele><time>2026-04-21T07:01:03.062Z</time></trkpt><trkpt lat="44.5378722" lon="7.7627497"><ele>379.6666666666667</ele><time>2026-04-21T07:01:04.076Z</time></trkpt><trkpt lat="44.5380139" lon="7.7628988"><ele>381.0</ele><time>2026-04-21T07:01:05.065Z</time></trkpt><trkpt lat="44.5381533" lon="7.763049"><ele>381.0</ele><time>2026-04-21T07:01:06.052Z</time></trkpt><trkpt lat="44.5382936" lon="7.7631982"><ele>381.0</ele><time>2026-04-21T07:01:07.064Z</time></trkpt><trkpt lat="44.5384359" lon="7.7633478"><ele>381.0</ele><time>2026-04-21T07:01:08.07Z</time></trkpt><trkpt lat="44.5385745" lon="7.7634953"><ele>381.0</ele><time>2026-04-21T07:01:09.062Z</time></trkpt><trkpt lat="44.5387137" lon="7.7636435"><ele>381.0</ele><time>2026-04-21T07:01:10.066Z</time></trkpt><trkpt lat="44.5388555" lon="7.7637943"><ele>381.0</ele><time>2026-04-21T07:01:11.056Z</time></trkpt><trkpt lat="44.5389957" lon="7.7639444"><ele>381.0</ele><time>2026-04-21T07:01:12.066Z</time></trkpt><trkpt lat="44.5391365" lon="7.7640973"><ele>381.0</ele><time>2026-04-21T07:01:13.065Z</time></trkpt><trkpt lat="44.5392781" lon="7.7642509"><ele>381.0</ele><time>2026-04-21T07:01:14.077Z</time></trkpt><trkpt lat="44.5394227" lon="7.7644032"><ele>383.0</ele><time>2026-04-21T07:01:15.07Z</time></trkpt><trkpt lat="44.5395672" lon="7.7645549"><ele>385.0</ele><time>2026-04-21T07:01:16.068Z</time></trkpt><trkpt lat="44.5397095" lon="7.7647069"><ele>387.0</ele><time>2026-04-21T07:01:17.076Z</time></trkpt><trkpt lat="44.5398512" lon="7.7648572"><ele>387.0</ele><time>2026-04-21T07:01:18.056Z</time></trkpt><trkpt lat="44.5399902" lon="7.7650042"><ele>387.0</ele><time>2026-04-21T07:01:19.059Z</time></trkpt><trkpt lat="44.540129" lon="7.765149"><ele>387.0</ele><time>2026-04-21T07:01:20.056Z</time></trkpt><trkpt lat="44.5402665" lon="7.7652925"><ele>387.0</ele><time>2026-04-21T07:01:21.054Z</time></trkpt><trkpt lat="44.5404018" lon="7.7654365"><ele>387.0</ele><time>2026-04-21T07:01:22.061Z</time></trkpt><trkpt lat="44.5405321" lon="7.7655886"><ele>387.0</ele><time>2026-04-21T07:01:23.052Z</time></trkpt><trkpt lat="44.5406477" lon="7.7657597"><ele>387.0</ele><time>2026-04-21T07:01:24.061Z</time></trkpt><trkpt lat="44.5407422" lon="7.765957"><ele>387.0</ele><time>2026-04-21T07:01:25.059Z</time></trkpt><trkpt lat="44.5408141" lon="7.7661808"><ele>387.0</ele><time>2026-04-21T07:01:26.063Z</time></trkpt><trkpt lat="44.5408643" lon="7.7664259"><ele>389.66666666666663</ele><time>2026-04-21T07:01:27.051Z</time></trkpt><trkpt lat="44.5408968" lon="7.7666849"><ele>392.3333333333333</ele><time>2026-04-21T07:01:28.064Z</time></trkpt><trkpt lat="44.5409084" lon="7.7669488"><ele>395.0</ele><time>2026-04-21T07:01:29.05Z</time></trkpt><trkpt lat="44.5408933" lon="7.7672151"><ele>395.66666666666663</ele><time>2026-04-21T07:01:30.068Z</time></trkpt><trkpt lat="44.5408541" lon="7.7674728"><ele>396.33333333333337</ele><time>2026-04-21T07:01:31.062Z</time></trkpt><trkpt lat="44.5407892" lon="7.767713"><ele>397.0</ele><time>2026-04-21T07:01:32.051Z</time></trkpt><trkpt lat="44.5407083" lon="7.7679368"><ele>397.0</ele><time>2026-04-21T07:01:33.067Z</time></trkpt><trkpt lat="44.5406207" lon="7.7681455"><ele>397.0</ele><time>2026-04-21T07:01:34.068Z</time></trkpt><trkpt lat="44.5405324" lon="7.7683537"><ele>397.0</ele><time>2026-04-21T07:01:35.073Z</time></trkpt><trkpt lat="44.5404466" lon="7.7685591"><ele>397.0</ele><time>2026-04-21T07:01:36.07Z</time></trkpt><trkpt lat="44.5403589" lon="7.7687697"><ele>397.0</ele><time>2026-04-21T07:01:37.059Z</time></trkpt><trkpt lat="44.5402768" lon="7.7689878"><ele>397.0</ele><time>2026-04-21T07:01:38.063Z</time></trkpt><trkpt lat="44.5401891" lon="7.7692061"><ele>397.0</ele><time>2026-04-21T07:01:39.061Z</time></trkpt><trkpt lat="44.5400979" lon="7.7694347"><ele>397.0</ele><time>2026-04-21T07:01:40.072Z</time></trkpt><trkpt lat="44.5400058" lon="7.7696664"><ele>397.0</ele><time>2026-04-21T07:01:41.064Z</time></trkpt><trkpt lat="44.5399098" lon="7.7698998"><ele>397.0</ele><time>2026-04-21T07:01:42.065Z</time></trkpt><trkpt lat="44.5398145" lon="7.7701348"><ele>397.0</ele><time>2026-04-21T07:01:43.056Z</time></trkpt><trkpt lat="44.5397214" lon="7.7703718"><ele>397.0</ele><time>2026-04-21T07:01:44.065Z</time></trkpt><trkpt lat="44.5396271" lon="7.7706112"><ele>396.6666666666667</ele><time>2026-04-21T07:01:45.069Z</time></trkpt><trkpt lat="44.5395315" lon="7.7708496"><ele>396.33333333333337</ele><time>2026-04-21T07:01:46.062Z</time></trkpt><trkpt lat="44.5394337" lon="7.7710893"><ele>396.0</ele><time>2026-04-21T07:01:47.064Z</time></trkpt><trkpt lat="44.5393357" lon="7.7713303"><ele>396.0</ele><time>2026-04-21T07:01:48.062Z</time></trkpt><trkpt lat="44.5392372" lon="7.7715728"><ele>396.0</ele><time>2026-04-21T07:01:49.065Z</time></trkpt><trkpt lat="44.5391393" lon="7.7718164"><ele>396.0</ele><time>2026-04-21T07:01:50.064Z</time></trkpt><trkpt lat="44.5390394" lon="7.7720604"><ele>396.33333333333337</ele><time>2026-04-21T07:01:51.066Z</time></trkpt><trkpt lat="44.5389398" lon="7.7723053"><ele>396.6666666666667</ele><time>2026-04-21T07:01:52.066Z</time></trkpt><trkpt lat="44.538842" lon="7.7725513"><ele>397.0</ele><time>2026-04-21T07:01:53.068Z</time></trkpt><trkpt lat="44.5387456" lon="7.7727977"><ele>397.0</ele><time>2026-04-21T07:01:54.071Z</time></trkpt><trkpt lat="44.5386489" lon="7.7730442"><ele>397.0</ele><time>2026-04-21T07:01:55.071Z</time></trkpt><trkpt lat="44.5385484" lon="7.7732886"><ele>397.0</ele><time>2026-04-21T07:01:56.066Z</time></trkpt><trkpt lat="44.5384456" lon="7.7735331"><ele>396.6666666666667</ele><time>2026-04-21T07:01:57.077Z</time></trkpt><trkpt lat="44.538345" lon="7.7737762"><ele>396.33333333333337</ele><time>2026-04-21T07:01:58.071Z</time></trkpt><trkpt lat="44.538245" lon="7.7740184"><ele>396.0</ele><time>2026-04-21T07:01:59.059Z</time></trkpt><trkpt lat="44.5381472" lon="7.7742602"><ele>396.0</ele><time>2026-04-21T07:02:00.061Z</time></trkpt><trkpt lat="44.5380509" lon="7.774504"><ele>396.0</ele><time>2026-04-21T07:02:01.071Z</time></trkpt><trkpt lat="44.5379538" lon="7.7747467"><ele>396.0</ele><time>2026-04-21T07:02:02.062Z</time></trkpt><trkpt lat="44.5378564" lon="7.7749865"><ele>396.66666666666663</ele><time>2026-04-21T07:02:03.064Z</time></trkpt><trkpt lat="44.5377591" lon="7.7752245"><ele>397.3333333333333</ele><time>2026-04-21T07:02:04.066Z</time></trkpt><trkpt lat="44.5376608" lon="7.7754646"><ele>398.0</ele><time>2026-04-21T07:02:05.065Z</time></trkpt><trkpt lat="44.5375625" lon="7.7757059"><ele>398.0</ele><time>2026-04-21T07:02:06.068Z</time></trkpt><trkpt lat="44.537465" lon="7.775947"><ele>398.0</ele><time>2026-04-21T07:02:07.065Z</time></trkpt><trkpt lat="44.5373701" lon="7.776189"><ele>398.0</ele><time>2026-04-21T07:02:08.071Z</time></trkpt><trkpt lat="44.5372752" lon="7.7764343"><ele>398.3333333333333</ele><time>2026-04-21T07:02:09.054Z</time></trkpt><trkpt lat="44.5371819" lon="7.7766812"><ele>398.66666666666663</ele><time>2026-04-21T07:02:10.068Z</time></trkpt><trkpt lat="44.5370919" lon="7.776931"><ele>399.0</ele><time>2026-04-21T07:02:11.072Z</time></trkpt><trkpt lat="44.537008" lon="7.7771862"><ele>399.0</ele><time>2026-04-21T07:02:12.059Z</time></trkpt><trkpt lat="44.5369346" lon="7.7774485"><ele>399.0</ele><time>2026-04-21T07:02:13.064Z</time></trkpt><trkpt lat="44.5368755" lon="7.7777182"><ele>399.0</ele><time>2026-04-21T07:02:14.063Z</time></trkpt><trkpt lat="44.5368231" lon="7.7779918"><ele>399.33333333333337</ele><time>2026-04-21T07:02:15.063Z</time></trkpt><trkpt lat="44.5367759" lon="7.7782694"><ele>399.6666666666667</ele><time>2026-04-21T07:02:16.07Z</time></trkpt><trkpt lat="44.536732" lon="7.778547"><ele>400.0</ele><time>2026-04-21T07:02:17.068Z</time></trkpt><trkpt lat="44.5366954" lon="7.7788229"><ele>400.0</ele><time>2026-04-21T07:02:18.08Z</time></trkpt><trkpt lat="44.5366611" lon="7.7790904"><ele>400.0</ele><time>2026-04-21T07:02:19.07Z</time></trkpt><trkpt lat="44.5366272" lon="7.7793384"><ele>400.0</ele><time>2026-04-21T07:02:20.071Z</time></trkpt><trkpt lat="44.5365959" lon="7.7795639"><ele>400.0</ele><time>2026-04-21T07:02:21.064Z</time></trkpt><trkpt lat="44.5365676" lon="7.7797686"><ele>400.0</ele><time>2026-04-21T07:02:22.084Z</time></trkpt><trkpt lat="44.5365409" lon="7.7799646"><ele>400.0</ele><time>2026-04-21T07:02:23.089Z</time></trkpt><trkpt lat="44.5365156" lon="7.7801546"><ele>400.0</ele><time>2026-04-21T07:02:24.075Z</time></trkpt><trkpt lat="44.5364884" lon="7.7803374"><ele>400.0</ele><time>2026-04-21T07:02:25.068Z</time></trkpt><trkpt lat="44.5364655" lon="7.780513"><ele>400.0</ele><time>2026-04-21T07:02:26.07Z</time></trkpt><trkpt lat="44.5364447" lon="7.7806846"><ele>400.0</ele><time>2026-04-21T07:02:27.052Z</time></trkpt><trkpt lat="44.5364236" lon="7.780857"><ele>400.0</ele><time>2026-04-21T07:02:28.08Z</time></trkpt><trkpt lat="44.5364029" lon="7.7810312"><ele>400.0</ele><time>2026-04-21T07:02:29.07Z</time></trkpt><trkpt lat="44.5363816" lon="7.7812068"><ele>400.0</ele><time>2026-04-21T07:02:30.065Z</time></trkpt><trkpt lat="44.5363562" lon="7.781382"><ele>400.0</ele><time>2026-04-21T07:02:31.057Z</time></trkpt><trkpt lat="44.5363281" lon="7.7815574"><ele>400.0</ele><time>2026-04-21T07:02:32.072Z</time></trkpt><trkpt lat="44.5363002" lon="7.7817336"><ele>400.0</ele><time>2026-04-21T07:02:33.064Z</time></trkpt><trkpt lat="44.5362745" lon="7.7819052"><ele>400.0</ele><time>2026-04-21T07:02:34.068Z</time></trkpt><trkpt lat="44.5362506" lon="7.7820762"><ele>400.0</ele><time>2026-04-21T07:02:35.064Z</time></trkpt><trkpt lat="44.5362298" lon="7.7822494"><ele>400.0</ele><time>2026-04-21T07:02:36.073Z</time></trkpt><trkpt lat="44.5362081" lon="7.7824287"><ele>400.0</ele><time>2026-04-21T07:02:37.071Z</time></trkpt><trkpt lat="44.5361851" lon="7.7826148"><ele>400.0</ele><time>2026-04-21T07:02:38.069Z</time></trkpt><trkpt lat="44.5361592" lon="7.782808"><ele>400.0</ele><time>2026-04-21T07:02:39.084Z</time></trkpt><trkpt lat="44.5361319" lon="7.7830066"><ele>400.0</ele><time>2026-04-21T07:02:40.077Z</time></trkpt><trkpt lat="44.5361035" lon="7.7832095"><ele>400.33333333333337</ele><time>2026-04-21T07:02:41.071Z</time></trkpt><trkpt lat="44.5360719" lon="7.783416"><ele>400.66666666666663</ele><time>2026-04-21T07:02:42.075Z</time></trkpt><trkpt lat="44.5360405" lon="7.7836249"><ele>401.0</ele><time>2026-04-21T07:02:43.069Z</time></trkpt><trkpt lat="44.5360091" lon="7.7838337"><ele>401.25</ele><time>2026-04-21T07:02:44.067Z</time></trkpt><trkpt lat="44.5359787" lon="7.7840371"><ele>401.5</ele><time>2026-04-21T07:02:45.064Z</time></trkpt><trkpt lat="44.5359499" lon="7.7842372"><ele>401.75</ele><time>2026-04-21T07:02:46.078Z</time></trkpt><trkpt lat="44.5359229" lon="7.7844326"><ele>402.0</ele><time>2026-04-21T07:02:47.069Z</time></trkpt><trkpt lat="44.5358962" lon="7.7846246"><ele>401.5</ele><time>2026-04-21T07:02:48.067Z</time></trkpt><trkpt lat="44.5358713" lon="7.7848147"><ele>401.0</ele><time>2026-04-21T07:02:49.072Z</time></trkpt><trkpt lat="44.5358471" lon="7.7850052"><ele>400.5</ele><time>2026-04-21T07:02:50.068Z</time></trkpt><trkpt lat="44.5358245" lon="7.7851937"><ele>400.0</ele><time>2026-04-21T07:02:51.064Z</time></trkpt><trkpt lat="44.5358012" lon="7.7853742"><ele>400.0</ele><time>2026-04-21T07:02:52.069Z</time></trkpt><trkpt lat="44.5357771" lon="7.7855436"><ele>400.0</ele><time>2026-04-21T07:02:53.068Z</time></trkpt><trkpt lat="44.5357515" lon="7.785701"><ele>400.0</ele><time>2026-04-21T07:02:54.068Z</time></trkpt><trkpt lat="44.5357266" lon="7.78585"><ele>400.0</ele><time>2026-04-21T07:02:55.069Z</time></trkpt><trkpt lat="44.5357027" lon="7.7859909"><ele>400.0</ele><time>2026-04-21T07:02:56.069Z</time></trkpt><trkpt lat="44.5356786" lon="7.7861227"><ele>400.0</ele><time>2026-04-21T07:02:57.071Z</time></trkpt><trkpt lat="44.5356538" lon="7.7862517"><ele>400.0</ele><time>2026-04-21T07:02:58.069Z</time></trkpt><trkpt lat="44.5356269" lon="7.7863804"><ele>400.0</ele><time>2026-04-21T07:02:59.065Z</time></trkpt><trkpt lat="44.5355939" lon="7.7865054"><ele>400.0</ele><time>2026-04-21T07:03:00.064Z</time></trkpt><trkpt lat="44.53556" lon="7.7866254"><ele>400.00000000000006</ele><time>2026-04-21T07:03:01.068Z</time></trkpt><trkpt lat="44.5355289" lon="7.7867397"><ele>400.0</ele><time>2026-04-21T07:03:02.064Z</time></trkpt><trkpt lat="44.5355074" lon="7.7868448"><ele>400.0</ele><time>2026-04-21T07:03:03.071Z</time></trkpt><trkpt lat="44.5354927" lon="7.7869393"><ele>400.0</ele><time>2026-04-21T07:03:04.071Z</time></trkpt><trkpt lat="44.5354818" lon="7.7870263"><ele>400.00000000000006</ele><time>2026-04-21T07:03:05.068Z</time></trkpt><trkpt lat="44.535478" lon="7.7871353"><ele>400.0</ele><time>2026-04-21T07:03:07.065Z</time></trkpt><trkpt lat="44.5354408" lon="7.787278"><ele>400.0</ele><time>2026-04-21T07:03:26.059Z</time></trkpt><trkpt lat="44.5354304" lon="7.7874094"><ele>400.0</ele><time>2026-04-21T07:03:27.067Z</time></trkpt><trkpt lat="44.5354229" lon="7.7875517"><ele>400.0</ele><time>2026-04-21T07:03:28.059Z</time></trkpt><trkpt lat="44.5354149" lon="7.7877208"><ele>400.0</ele><time>2026-04-21T07:03:29.07Z</time></trkpt><trkpt lat="44.5353991" lon="7.7879092"><ele>400.25</ele><time>2026-04-21T07:03:30.066Z</time></trkpt><trkpt lat="44.5353719" lon="7.7881049"><ele>400.5</ele><time>2026-04-21T07:03:31.072Z</time></trkpt><trkpt lat="44.5353314" lon="7.7883077"><ele>400.75</ele><time>2026-04-21T07:03:32.064Z</time></trkpt><trkpt lat="44.5352742" lon="7.7885086"><ele>401.0</ele><time>2026-04-21T07:03:33.065Z</time></trkpt><trkpt lat="44.5352011" lon="7.7887184"><ele>401.0</ele><time>2026-04-21T07:03:34.08Z</time></trkpt><trkpt lat="44.5351156" lon="7.7889326"><ele>401.0</ele><time>2026-04-21T07:03:35.069Z</time></trkpt><trkpt lat="44.5350254" lon="7.7891456"><ele>401.0</ele><time>2026-04-21T07:03:36.057Z</time></trkpt><trkpt lat="44.5349231" lon="7.7893567"><ele>401.0</ele><time>2026-04-21T07:03:37.068Z</time></trkpt><trkpt lat="44.5348098" lon="7.7895578"><ele>401.0</ele><time>2026-04-21T07:03:38.071Z</time></trkpt><trkpt lat="44.534688" lon="7.7897551"><ele>401.0</ele><time>2026-04-21T07:03:39.072Z</time></trkpt><trkpt lat="44.534545" lon="7.7899347"><ele>401.3333333333333</ele><time>2026-04-21T07:03:40.072Z</time></trkpt><trkpt lat="44.5343953" lon="7.7901102"><ele>401.66666666666663</ele><time>2026-04-21T07:03:41.067Z</time></trkpt><trkpt lat="44.5342313" lon="7.7902629"><ele>402.0</ele><time>2026-04-21T07:03:42.072Z</time></trkpt><trkpt lat="44.5340606" lon="7.7903863"><ele>402.0</ele><time>2026-04-21T07:03:43.079Z</time></trkpt><trkpt lat="44.5338778" lon="7.7904889"><ele>402.0</ele><time>2026-04-21T07:03:44.068Z</time></trkpt><trkpt lat="44.5336913" lon="7.7905834"><ele>402.0</ele><time>2026-04-21T07:03:45.054Z</time></trkpt><trkpt lat="44.5335081" lon="7.7906907"><ele>402.66666666666663</ele><time>2026-04-21T07:03:46.07Z</time></trkpt><trkpt lat="44.5333233" lon="7.7908046"><ele>403.3333333333333</ele><time>2026-04-21T07:03:47.073Z</time></trkpt><trkpt lat="44.5331323" lon="7.7909271"><ele>404.0</ele><time>2026-04-21T07:03:48.078Z</time></trkpt><trkpt lat="44.5329396" lon="7.7910502"><ele>403.66666666666663</ele><time>2026-04-21T07:03:49.068Z</time></trkpt><trkpt lat="44.5327405" lon="7.7911668"><ele>403.33333333333337</ele><time>2026-04-21T07:03:50.075Z</time></trkpt><trkpt lat="44.532535" lon="7.7912829"><ele>403.0</ele><time>2026-04-21T07:03:51.073Z</time></trkpt><trkpt lat="44.5323308" lon="7.791408"><ele>403.0</ele><time>2026-04-21T07:03:52.063Z</time></trkpt><trkpt lat="44.5321216" lon="7.791532"><ele>403.0</ele><time>2026-04-21T07:03:53.066Z</time></trkpt><trkpt lat="44.5314849" lon="7.7919097"><ele>402.0</ele><time>2026-04-21T07:03:56.064Z</time></trkpt><trkpt lat="44.5312736" lon="7.7920372"><ele>401.0</ele><time>2026-04-21T07:03:57.062Z</time></trkpt><trkpt lat="44.5310603" lon="7.7921626"><ele>394.0</ele><time>2026-04-21T07:03:58.07Z</time></trkpt><trkpt lat="44.5308468" lon="7.7922855"><ele>387.0</ele><time>2026-04-21T07:03:59.062Z</time></trkpt><trkpt lat="44.5306332" lon="7.792409"><ele>387.0</ele><time>2026-04-21T07:04:00.081Z</time></trkpt><trkpt lat="44.5304193" lon="7.7925311"><ele>387.0</ele><time>2026-04-21T07:04:01.065Z</time></trkpt><trkpt lat="44.5302042" lon="7.7926543"><ele>376.0</ele><time>2026-04-21T07:04:02.079Z</time></trkpt><trkpt lat="44.5299874" lon="7.7927749"><ele>365.0</ele><time>2026-04-21T07:04:03.065Z</time></trkpt><trkpt lat="44.5297705" lon="7.7928971"><ele>364.5</ele><time>2026-04-21T07:04:04.065Z</time></trkpt><trkpt lat="44.5295551" lon="7.7930236"><ele>364.0</ele><time>2026-04-21T07:04:05.075Z</time></trkpt><trkpt lat="44.5293358" lon="7.7931465"><ele>364.0</ele><time>2026-04-21T07:04:06.073Z</time></trkpt><trkpt lat="44.5291155" lon="7.793271"><ele>364.0</ele><time>2026-04-21T07:04:07.061Z</time></trkpt><trkpt lat="44.528895" lon="7.793395"><ele>362.5</ele><time>2026-04-21T07:04:08.052Z</time></trkpt><trkpt lat="44.5286755" lon="7.7935214"><ele>361.0</ele><time>2026-04-21T07:04:09.076Z</time></trkpt><trkpt lat="44.5284529" lon="7.7936475"><ele>361.0</ele><time>2026-04-21T07:04:10.055Z</time></trkpt><trkpt lat="44.5282293" lon="7.7937755"><ele>361.0</ele><time>2026-04-21T07:04:11.077Z</time></trkpt><trkpt lat="44.5280076" lon="7.7939054"><ele>361.5</ele><time>2026-04-21T07:04:12.077Z</time></trkpt><trkpt lat="44.5277845" lon="7.794035"><ele>362.0</ele><time>2026-04-21T07:04:13.068Z</time></trkpt><trkpt lat="44.5275614" lon="7.7941642"><ele>362.0</ele><time>2026-04-21T07:04:14.063Z</time></trkpt><trkpt lat="44.5273387" lon="7.7942944"><ele>362.0</ele><time>2026-04-21T07:04:15.07Z</time></trkpt><trkpt lat="44.5271154" lon="7.7944226"><ele>362.0</ele><time>2026-04-21T07:04:16.073Z</time></trkpt><trkpt lat="44.5268903" lon="7.7945493"><ele>362.0</ele><time>2026-04-21T07:04:17.077Z</time></trkpt><trkpt lat="44.5266684" lon="7.7946784"><ele>362.0</ele><time>2026-04-21T07:04:18.082Z</time></trkpt><trkpt lat="44.5264483" lon="7.79481"><ele>362.0</ele><time>2026-04-21T07:04:19.067Z</time></trkpt><trkpt lat="44.5262269" lon="7.7949415"><ele>361.5</ele><time>2026-04-21T07:04:20.077Z</time></trkpt><trkpt lat="44.5260044" lon="7.7950711"><ele>361.0</ele><time>2026-04-21T07:04:21.064Z</time></trkpt><trkpt lat="44.525782" lon="7.7951991"><ele>361.0</ele><time>2026-04-21T07:04:22.078Z</time></trkpt><trkpt lat="44.5255608" lon="7.7953264"><ele>361.0</ele><time>2026-04-21T07:04:23.07Z</time></trkpt><trkpt lat="44.5253383" lon="7.795453"><ele>363.0</ele><time>2026-04-21T07:04:24.071Z</time></trkpt><trkpt lat="44.5251167" lon="7.79558"><ele>365.0</ele><time>2026-04-21T07:04:25.059Z</time></trkpt><trkpt lat="44.5248959" lon="7.7957085"><ele>365.0</ele><time>2026-04-21T07:04:26.074Z</time></trkpt><trkpt lat="44.5246745" lon="7.795837"><ele>365.0</ele><time>2026-04-21T07:04:27.059Z</time></trkpt><trkpt lat="44.5244522" lon="7.7959656"><ele>364.0</ele><time>2026-04-21T07:04:28.069Z</time></trkpt><trkpt lat="44.5242297" lon="7.796093"><ele>363.0</ele><time>2026-04-21T07:04:29.061Z</time></trkpt><trkpt lat="44.5240077" lon="7.7962202"><ele>363.0</ele><time>2026-04-21T07:04:30.075Z</time></trkpt><trkpt lat="44.5237861" lon="7.7963484"><ele>363.0</ele><time>2026-04-21T07:04:31.07Z</time></trkpt><trkpt lat="44.5235646" lon="7.796478"><ele>363.5</ele><time>2026-04-21T07:04:32.066Z</time></trkpt><trkpt lat="44.5233428" lon="7.796606"><ele>364.0</ele><time>2026-04-21T07:04:33.056Z</time></trkpt><trkpt lat="44.52312" lon="7.7967337"><ele>363.5</ele><time>2026-04-21T07:04:34.067Z</time></trkpt><trkpt lat="44.5228969" lon="7.7968611"><ele>363.0</ele><time>2026-04-21T07:04:35.077Z</time></trkpt><trkpt lat="44.5226725" lon="7.7969881"><ele>363.0</ele><time>2026-04-21T07:04:36.061Z</time></trkpt><trkpt lat="44.5224467" lon="7.7971171"><ele>363.0</ele><time>2026-04-21T07:04:37.074Z</time></trkpt><trkpt lat="44.5222216" lon="7.7972467"><ele>363.0</ele><time>2026-04-21T07:04:38.066Z</time></trkpt><trkpt lat="44.5219961" lon="7.7973762"><ele>363.0</ele><time>2026-04-21T07:04:39.08Z</time></trkpt><trkpt lat="44.5217685" lon="7.7975062"><ele>363.0</ele><time>2026-04-21T07:04:40.067Z</time></trkpt><trkpt lat="44.5215403" lon="7.7976361"><ele>363.0</ele><time>2026-04-21T07:04:41.065Z</time></trkpt><trkpt lat="44.5213108" lon="7.797764"><ele>362.5</ele><time>2026-04-21T07:04:42.078Z</time></trkpt><trkpt lat="44.5210811" lon="7.7978937"><ele>362.0</ele><time>2026-04-21T07:04:43.073Z</time></trkpt><trkpt lat="44.5208518" lon="7.7980264"><ele>362.0</ele><time>2026-04-21T07:04:44.071Z</time></trkpt><trkpt lat="44.5206241" lon="7.7981576"><ele>362.0</ele><time>2026-04-21T07:04:45.069Z</time></trkpt><trkpt lat="44.5203974" lon="7.7982885"><ele>362.0</ele><time>2026-04-21T07:04:46.081Z</time></trkpt><trkpt lat="44.5201721" lon="7.798417"><ele>362.0</ele><time>2026-04-21T07:04:47.07Z</time></trkpt><trkpt lat="44.5199464" lon="7.798544"><ele>362.0</ele><time>2026-04-21T07:04:48.073Z</time></trkpt><trkpt lat="44.5197232" lon="7.7986711"><ele>362.0</ele><time>2026-04-21T07:04:49.08Z</time></trkpt><trkpt lat="44.519497" lon="7.7988017"><ele>362.0</ele><time>2026-04-21T07:04:50.069Z</time></trkpt><trkpt lat="44.5192732" lon="7.7989358"><ele>362.0</ele><time>2026-04-21T07:04:51.082Z</time></trkpt><trkpt lat="44.5190485" lon="7.7990708"><ele>362.0</ele><time>2026-04-21T07:04:52.081Z</time></trkpt><trkpt lat="44.5188216" lon="7.7992028"><ele>362.0</ele><time>2026-04-21T07:04:53.081Z</time></trkpt><trkpt lat="44.5185932" lon="7.7993322"><ele>363.0</ele><time>2026-04-21T07:04:54.068Z</time></trkpt><trkpt lat="44.5183652" lon="7.7994634"><ele>364.0</ele><time>2026-04-21T07:04:55.065Z</time></trkpt><trkpt lat="44.5181379" lon="7.7995971"><ele>364.0</ele><time>2026-04-21T07:04:56.072Z</time></trkpt><trkpt lat="44.5179109" lon="7.7997301"><ele>364.0</ele><time>2026-04-21T07:04:57.066Z</time></trkpt><trkpt lat="44.5176829" lon="7.7998661"><ele>364.5</ele><time>2026-04-21T07:04:58.072Z</time></trkpt><trkpt lat="44.5174527" lon="7.8000011"><ele>365.0</ele><time>2026-04-21T07:04:59.074Z</time></trkpt><trkpt lat="44.5172219" lon="7.8001353"><ele>364.5</ele><time>2026-04-21T07:05:00.072Z</time></trkpt><trkpt lat="44.5169921" lon="7.8002668"><ele>364.0</ele><time>2026-04-21T07:05:01.07Z</time></trkpt><trkpt lat="44.5167604" lon="7.8003981"><ele>364.0</ele><time>2026-04-21T07:05:02.076Z</time></trkpt><trkpt lat="44.5165286" lon="7.800531"><ele>364.0</ele><time>2026-04-21T07:05:03.084Z</time></trkpt><trkpt lat="44.516297" lon="7.8006665"><ele>363.0</ele><time>2026-04-21T07:05:04.071Z</time></trkpt><trkpt lat="44.5160636" lon="7.8008014"><ele>362.0</ele><time>2026-04-21T07:05:05.076Z</time></trkpt><trkpt lat="44.5158305" lon="7.8009349"><ele>362.0</ele><time>2026-04-21T07:05:06.065Z</time></trkpt><trkpt lat="44.5155955" lon="7.8010674"><ele>362.0</ele><time>2026-04-21T07:05:07.065Z</time></trkpt><trkpt lat="44.515361" lon="7.8012002"><ele>362.0</ele><time>2026-04-21T07:05:08.077Z</time></trkpt><trkpt lat="44.5151249" lon="7.8013336"><ele>362.0</ele><time>2026-04-21T07:05:09.071Z</time></trkpt><trkpt lat="44.5148903" lon="7.8014706"><ele>362.0</ele><time>2026-04-21T07:05:10.084Z</time></trkpt><trkpt lat="44.5146548" lon="7.8016075"><ele>362.0</ele><time>2026-04-21T07:05:11.07Z</time></trkpt><trkpt lat="44.5144202" lon="7.801745"><ele>362.0</ele><time>2026-04-21T07:05:12.057Z</time></trkpt><trkpt lat="44.5141853" lon="7.8018819"><ele>362.0</ele><time>2026-04-21T07:05:13.068Z</time></trkpt><trkpt lat="44.5139501" lon="7.8020153"><ele>361.5</ele><time>2026-04-21T07:05:14.061Z</time></trkpt><trkpt lat="44.5137153" lon="7.802149"><ele>361.0</ele><time>2026-04-21T07:05:15.066Z</time></trkpt><trkpt lat="44.5134826" lon="7.8022843"><ele>361.0</ele><time>2026-04-21T07:05:16.068Z</time></trkpt><trkpt lat="44.5132508" lon="7.8024183"><ele>361.0</ele><time>2026-04-21T07:05:17.071Z</time></trkpt><trkpt lat="44.5130192" lon="7.8025523"><ele>361.0</ele><time>2026-04-21T07:05:18.074Z</time></trkpt><trkpt lat="44.5127861" lon="7.8026864"><ele>361.0</ele><time>2026-04-21T07:05:19.083Z</time></trkpt><trkpt lat="44.512553" lon="7.8028187"><ele>361.0</ele><time>2026-04-21T07:05:20.063Z</time></trkpt><trkpt lat="44.5123187" lon="7.8029514"><ele>361.0</ele><time>2026-04-21T07:05:21.069Z</time></trkpt><trkpt lat="44.5120835" lon="7.8030847"><ele>361.0</ele><time>2026-04-21T07:05:22.069Z</time></trkpt><trkpt lat="44.5118488" lon="7.8032202"><ele>361.0</ele><time>2026-04-21T07:05:23.072Z</time></trkpt><trkpt lat="44.5116155" lon="7.8033591"><ele>361.0</ele><time>2026-04-21T07:05:24.078Z</time></trkpt><trkpt lat="44.5113821" lon="7.803495"><ele>361.0</ele><time>2026-04-21T07:05:25.068Z</time></trkpt><trkpt lat="44.5111493" lon="7.8036297"><ele>361.5</ele><time>2026-04-21T07:05:26.077Z</time></trkpt><trkpt lat="44.5109242" lon="7.803759"><ele>362.0</ele><time>2026-04-21T07:05:27.078Z</time></trkpt><trkpt lat="44.5107124" lon="7.8038823"><ele>362.0</ele><time>2026-04-21T07:05:28.072Z</time></trkpt><trkpt lat="44.5105071" lon="7.8040014"><ele>362.0</ele><time>2026-04-21T07:05:29.066Z</time></trkpt><trkpt lat="44.5103081" lon="7.8041155"><ele>362.0</ele><time>2026-04-21T07:05:30.066Z</time></trkpt><trkpt lat="44.5101149" lon="7.8042278"><ele>362.0</ele><time>2026-04-21T07:05:31.057Z</time></trkpt><trkpt lat="44.5099246" lon="7.8043398"><ele>362.0</ele><time>2026-04-21T07:05:32.082Z</time></trkpt><trkpt lat="44.5097339" lon="7.80445"><ele>362.0</ele><time>2026-04-21T07:05:33.073Z</time></trkpt><trkpt lat="44.5095386" lon="7.8045622"><ele>362.33333333333337</ele><time>2026-04-21T07:05:34.072Z</time></trkpt><trkpt lat="44.5093444" lon="7.8046762"><ele>362.6666666666667</ele><time>2026-04-21T07:05:35.077Z</time></trkpt><trkpt lat="44.5091471" lon="7.8048006"><ele>363.0</ele><time>2026-04-21T07:05:36.073Z</time></trkpt><trkpt lat="44.5089443" lon="7.8049329"><ele>363.5</ele><time>2026-04-21T07:05:37.082Z</time></trkpt><trkpt lat="44.5087339" lon="7.8050678"><ele>364.0</ele><time>2026-04-21T07:05:38.065Z</time></trkpt><trkpt lat="44.5085162" lon="7.8052028"><ele>364.5</ele><time>2026-04-21T07:05:39.081Z</time></trkpt><trkpt lat="44.5082965" lon="7.8053326"><ele>365.0</ele><time>2026-04-21T07:05:40.073Z</time></trkpt><trkpt lat="44.5080762" lon="7.8054598"><ele>365.5</ele><time>2026-04-21T07:05:41.082Z</time></trkpt><trkpt lat="44.5078547" lon="7.805585"><ele>366.0</ele><time>2026-04-21T07:05:42.075Z</time></trkpt><trkpt lat="44.5076292" lon="7.805705"><ele>366.0</ele><time>2026-04-21T07:05:43.08Z</time></trkpt><trkpt lat="44.5073976" lon="7.8058208"><ele>366.0</ele><time>2026-04-21T07:05:44.075Z</time></trkpt><trkpt lat="44.5071664" lon="7.8059383"><ele>370.5</ele><time>2026-04-21T07:05:45.071Z</time></trkpt><trkpt lat="44.5069371" lon="7.8060617"><ele>375.0</ele><time>2026-04-21T07:05:46.068Z</time></trkpt><trkpt lat="44.5067083" lon="7.8061927"><ele>375.0</ele><time>2026-04-21T07:05:47.066Z</time></trkpt><trkpt lat="44.50648" lon="7.8063278"><ele>375.0</ele><time>2026-04-21T07:05:48.064Z</time></trkpt><trkpt lat="44.5062516" lon="7.8064621"><ele>377.5</ele><time>2026-04-21T07:05:49.072Z</time></trkpt><trkpt lat="44.5060216" lon="7.8065948"><ele>380.0</ele><time>2026-04-21T07:05:50.073Z</time></trkpt><trkpt lat="44.5057922" lon="7.8067256"><ele>386.0</ele><time>2026-04-21T07:05:51.075Z</time></trkpt><trkpt lat="44.5055612" lon="7.8068544"><ele>392.0</ele><time>2026-04-21T07:05:52.062Z</time></trkpt><trkpt lat="44.5053296" lon="7.8069838"><ele>392.0</ele><time>2026-04-21T07:05:53.064Z</time></trkpt><trkpt lat="44.5050984" lon="7.8071165"><ele>392.0</ele><time>2026-04-21T07:05:54.061Z</time></trkpt><trkpt lat="44.5048675" lon="7.8072508"><ele>392.0</ele><time>2026-04-21T07:05:55.079Z</time></trkpt><trkpt lat="44.5046379" lon="7.8073848"><ele>392.0</ele><time>2026-04-21T07:05:56.066Z</time></trkpt><trkpt lat="44.5044093" lon="7.8075177"><ele>392.5</ele><time>2026-04-21T07:05:57.083Z</time></trkpt><trkpt lat="44.5041807" lon="7.8076509"><ele>393.0</ele><time>2026-04-21T07:05:58.078Z</time></trkpt><trkpt lat="44.5039526" lon="7.8077831"><ele>398.5</ele><time>2026-04-21T07:05:59.057Z</time></trkpt><trkpt lat="44.5037254" lon="7.8079142"><ele>404.0</ele><time>2026-04-21T07:06:00.07Z</time></trkpt><trkpt lat="44.5035007" lon="7.8080489"><ele>404.0</ele><time>2026-04-21T07:06:01.07Z</time></trkpt><trkpt lat="44.5032756" lon="7.808186"><ele>404.0</ele><time>2026-04-21T07:06:02.074Z</time></trkpt><trkpt lat="44.503051" lon="7.808323"><ele>406.5</ele><time>2026-04-21T07:06:03.074Z</time></trkpt><trkpt lat="44.5028266" lon="7.8084585"><ele>409.0</ele><time>2026-04-21T07:06:04.072Z</time></trkpt><trkpt lat="44.5026008" lon="7.8085982"><ele>410.0</ele><time>2026-04-21T07:06:05.079Z</time></trkpt><trkpt lat="44.5023746" lon="7.8087373"><ele>411.0</ele><time>2026-04-21T07:06:06.076Z</time></trkpt><trkpt lat="44.502146" lon="7.8088775"><ele>411.5</ele><time>2026-04-21T07:06:07.067Z</time></trkpt><trkpt lat="44.5019184" lon="7.8090135"><ele>412.0</ele><time>2026-04-21T07:06:08.085Z</time></trkpt><trkpt lat="44.5016889" lon="7.8091433"><ele>412.0</ele><time>2026-04-21T07:06:09.067Z</time></trkpt><trkpt lat="44.5014569" lon="7.8092677"><ele>412.0</ele><time>2026-04-21T07:06:10.066Z</time></trkpt><trkpt lat="44.5012227" lon="7.8093907"><ele>412.0</ele><time>2026-04-21T07:06:11.068Z</time></trkpt><trkpt lat="44.5009881" lon="7.8095132"><ele>412.0</ele><time>2026-04-21T07:06:12.065Z</time></trkpt><trkpt lat="44.5007492" lon="7.8096379"><ele>412.0</ele><time>2026-04-21T07:06:13.09Z</time></trkpt><trkpt lat="44.50051" lon="7.8097713"><ele>412.0</ele><time>2026-04-21T07:06:14.072Z</time></trkpt><trkpt lat="44.5002708" lon="7.8099085"><ele>412.0</ele><time>2026-04-21T07:06:15.075Z</time></trkpt><trkpt lat="44.5000311" lon="7.8100473"><ele>412.0</ele><time>2026-04-21T07:06:16.072Z</time></trkpt><trkpt lat="44.4997912" lon="7.8101864"><ele>412.5</ele><time>2026-04-21T07:06:17.072Z</time></trkpt><trkpt lat="44.4995513" lon="7.8103268"><ele>413.0</ele><time>2026-04-21T07:06:18.072Z</time></trkpt><trkpt lat="44.4993129" lon="7.8104689"><ele>413.0</ele><time>2026-04-21T07:06:19.066Z</time></trkpt><trkpt lat="44.4990746" lon="7.8106101"><ele>413.0</ele><time>2026-04-21T07:06:20.065Z</time></trkpt><trkpt lat="44.4988355" lon="7.810749"><ele>413.5</ele><time>2026-04-21T07:06:21.07Z</time></trkpt><trkpt lat="44.4985974" lon="7.8108852"><ele>414.0</ele><time>2026-04-21T07:06:22.073Z</time></trkpt><trkpt lat="44.4983587" lon="7.8110194"><ele>414.5</ele><time>2026-04-21T07:06:23.071Z</time></trkpt><trkpt lat="44.4981219" lon="7.8111553"><ele>415.0</ele><time>2026-04-21T07:06:24.067Z</time></trkpt><trkpt lat="44.4978882" lon="7.8112959"><ele>415.0</ele><time>2026-04-21T07:06:25.068Z</time></trkpt><trkpt lat="44.4976561" lon="7.8114406"><ele>415.0</ele><time>2026-04-21T07:06:26.071Z</time></trkpt><trkpt lat="44.4974245" lon="7.8115832"><ele>415.0</ele><time>2026-04-21T07:06:27.058Z</time></trkpt><trkpt lat="44.4971935" lon="7.8117292"><ele>415.0</ele><time>2026-04-21T07:06:28.083Z</time></trkpt><trkpt lat="44.4969651" lon="7.811878"><ele>412.5</ele><time>2026-04-21T07:06:29.066Z</time></trkpt><trkpt lat="44.4967366" lon="7.8120275"><ele>410.0</ele><time>2026-04-21T07:06:30.077Z</time></trkpt><trkpt lat="44.4965095" lon="7.8121822"><ele>410.0</ele><time>2026-04-21T07:06:31.068Z</time></trkpt><trkpt lat="44.4962834" lon="7.8123415"><ele>410.0</ele><time>2026-04-21T07:06:32.076Z</time></trkpt><trkpt lat="44.4960572" lon="7.8124999"><ele>408.5</ele><time>2026-04-21T07:06:33.073Z</time></trkpt><trkpt lat="44.4958315" lon="7.8126596"><ele>407.0</ele><time>2026-04-21T07:06:34.066Z</time></trkpt><trkpt lat="44.495605" lon="7.8128181"><ele>407.5</ele><time>2026-04-21T07:06:35.069Z</time></trkpt><trkpt lat="44.4953793" lon="7.8129771"><ele>408.0</ele><time>2026-04-21T07:06:36.072Z</time></trkpt><trkpt lat="44.4951538" lon="7.8131384"><ele>408.0</ele><time>2026-04-21T07:06:37.073Z</time></trkpt><trkpt lat="44.4949271" lon="7.8132985"><ele>408.0</ele><time>2026-04-21T07:06:38.072Z</time></trkpt><trkpt lat="44.4947008" lon="7.8134577"><ele>408.0</ele><time>2026-04-21T07:06:39.079Z</time></trkpt><trkpt lat="44.4944737" lon="7.8136178"><ele>408.0</ele><time>2026-04-21T07:06:40.072Z</time></trkpt><trkpt lat="44.4942471" lon="7.8137778"><ele>408.0</ele><time>2026-04-21T07:06:41.083Z</time></trkpt><trkpt lat="44.4940187" lon="7.8139394"><ele>408.0</ele><time>2026-04-21T07:06:42.063Z</time></trkpt><trkpt lat="44.4937913" lon="7.8141014"><ele>408.0</ele><time>2026-04-21T07:06:43.073Z</time></trkpt><trkpt lat="44.4935628" lon="7.8142616"><ele>408.0</ele><time>2026-04-21T07:06:44.067Z</time></trkpt><trkpt lat="44.4933332" lon="7.8144217"><ele>408.0</ele><time>2026-04-21T07:06:45.068Z</time></trkpt><trkpt lat="44.4931025" lon="7.8145828"><ele>408.0</ele><time>2026-04-21T07:06:46.07Z</time></trkpt><trkpt lat="44.4928717" lon="7.814744"><ele>408.0</ele><time>2026-04-21T07:06:47.071Z</time></trkpt><trkpt lat="44.49264" lon="7.8149061"><ele>408.0</ele><time>2026-04-21T07:06:48.081Z</time></trkpt><trkpt lat="44.4924071" lon="7.815068"><ele>408.0</ele><time>2026-04-21T07:06:49.058Z</time></trkpt><trkpt lat="44.4921739" lon="7.815231"><ele>408.0</ele><time>2026-04-21T07:06:50.082Z</time></trkpt><trkpt lat="44.4919402" lon="7.8153937"><ele>409.5</ele><time>2026-04-21T07:06:51.071Z</time></trkpt><trkpt lat="44.4917051" lon="7.8155559"><ele>411.0</ele><time>2026-04-21T07:06:52.076Z</time></trkpt><trkpt lat="44.4914737" lon="7.8157201"><ele>410.5</ele><time>2026-04-21T07:06:53.065Z</time></trkpt><trkpt lat="44.4912428" lon="7.8158851"><ele>410.0</ele><time>2026-04-21T07:06:54.065Z</time></trkpt><trkpt lat="44.4910095" lon="7.81605"><ele>410.0</ele><time>2026-04-21T07:06:55.074Z</time></trkpt><trkpt lat="44.4907744" lon="7.816215"><ele>410.0</ele><time>2026-04-21T07:06:56.078Z</time></trkpt><trkpt lat="44.490541" lon="7.8163788"><ele>409.0</ele><time>2026-04-21T07:06:57.066Z</time></trkpt><trkpt lat="44.4903104" lon="7.8165409"><ele>408.0</ele><time>2026-04-21T07:06:58.058Z</time></trkpt><trkpt lat="44.4900827" lon="7.8167062"><ele>408.5</ele><time>2026-04-21T07:06:59.056Z</time></trkpt><trkpt lat="44.4898549" lon="7.816873"><ele>409.0</ele><time>2026-04-21T07:07:00.072Z</time></trkpt><trkpt lat="44.4896248" lon="7.8170364"><ele>410.5</ele><time>2026-04-21T07:07:01.059Z</time></trkpt><trkpt lat="44.4893943" lon="7.817197"><ele>412.0</ele><time>2026-04-21T07:07:02.075Z</time></trkpt><trkpt lat="44.4891621" lon="7.8173529"><ele>412.0</ele><time>2026-04-21T07:07:03.072Z</time></trkpt><trkpt lat="44.4889339" lon="7.8175111"><ele>412.0</ele><time>2026-04-21T07:07:04.076Z</time></trkpt><trkpt lat="44.4887072" lon="7.8176707"><ele>411.5</ele><time>2026-04-21T07:07:05.079Z</time></trkpt><trkpt lat="44.4884805" lon="7.8178243"><ele>411.0</ele><time>2026-04-21T07:07:06.068Z</time></trkpt><trkpt lat="44.4882522" lon="7.8179806"><ele>411.0</ele><time>2026-04-21T07:07:07.066Z</time></trkpt><trkpt lat="44.4880275" lon="7.8181351"><ele>411.0</ele><time>2026-04-21T07:07:08.055Z</time></trkpt><trkpt lat="44.487803" lon="7.8182907"><ele>410.5</ele><time>2026-04-21T07:07:09.062Z</time></trkpt><trkpt lat="44.4875833" lon="7.8184485"><ele>410.0</ele><time>2026-04-21T07:07:10.06Z</time></trkpt><trkpt lat="44.4873626" lon="7.8186042"><ele>410.0</ele><time>2026-04-21T07:07:11.066Z</time></trkpt><trkpt lat="44.4871424" lon="7.818757"><ele>410.0</ele><time>2026-04-21T07:07:12.059Z</time></trkpt><trkpt lat="44.4869249" lon="7.8189073"><ele>410.5</ele><time>2026-04-21T07:07:13.06Z</time></trkpt><trkpt lat="44.4867066" lon="7.8190572"><ele>411.0</ele><time>2026-04-21T07:07:14.059Z</time></trkpt><trkpt lat="44.4864885" lon="7.8192081"><ele>411.5</ele><time>2026-04-21T07:07:15.066Z</time></trkpt><trkpt lat="44.4862708" lon="7.819359"><ele>412.0</ele><time>2026-04-21T07:07:16.063Z</time></trkpt><trkpt lat="44.486053" lon="7.819509"><ele>412.5</ele><time>2026-04-21T07:07:17.057Z</time></trkpt><trkpt lat="44.4858364" lon="7.8196658"><ele>413.0</ele><time>2026-04-21T07:07:18.066Z</time></trkpt><trkpt lat="44.4856197" lon="7.8198238"><ele>413.5</ele><time>2026-04-21T07:07:19.059Z</time></trkpt><trkpt lat="44.4854007" lon="7.8199803"><ele>414.0</ele><time>2026-04-21T07:07:20.057Z</time></trkpt><trkpt lat="44.4851828" lon="7.820138"><ele>413.0</ele><time>2026-04-21T07:07:21.061Z</time></trkpt><trkpt lat="44.4849647" lon="7.8202964"><ele>412.0</ele><time>2026-04-21T07:07:22.063Z</time></trkpt><trkpt lat="44.4847448" lon="7.8204516"><ele>412.0</ele><time>2026-04-21T07:07:23.07Z</time></trkpt><trkpt lat="44.4845252" lon="7.8206041"><ele>412.0</ele><time>2026-04-21T07:07:24.064Z</time></trkpt><trkpt lat="44.4843066" lon="7.8207563"><ele>412.0</ele><time>2026-04-21T07:07:25.053Z</time></trkpt><trkpt lat="44.4840872" lon="7.8209112"><ele>412.0</ele><time>2026-04-21T07:07:26.062Z</time></trkpt><trkpt lat="44.4838671" lon="7.8210659"><ele>411.0</ele><time>2026-04-21T07:07:27.065Z</time></trkpt><trkpt lat="44.4836477" lon="7.8212202"><ele>410.0</ele><time>2026-04-21T07:07:28.064Z</time></trkpt><trkpt lat="44.4834265" lon="7.8213754"><ele>410.0</ele><time>2026-04-21T07:07:29.061Z</time></trkpt><trkpt lat="44.4832025" lon="7.8215313"><ele>410.0</ele><time>2026-04-21T07:07:30.062Z</time></trkpt><trkpt lat="44.4829791" lon="7.8216895"><ele>409.5</ele><time>2026-04-21T07:07:31.058Z</time></trkpt><trkpt lat="44.4827563" lon="7.8218478"><ele>409.0</ele><time>2026-04-21T07:07:32.063Z</time></trkpt><trkpt lat="44.4825348" lon="7.822004"><ele>409.0</ele><time>2026-04-21T07:07:33.067Z</time></trkpt><trkpt lat="44.4823147" lon="7.8221614"><ele>409.0</ele><time>2026-04-21T07:07:34.06Z</time></trkpt><trkpt lat="44.482095" lon="7.822317"><ele>409.5</ele><time>2026-04-21T07:07:35.05Z</time></trkpt><trkpt lat="44.4818755" lon="7.8224702"><ele>410.0</ele><time>2026-04-21T07:07:36.053Z</time></trkpt><trkpt lat="44.4816558" lon="7.8226235"><ele>410.0</ele><time>2026-04-21T07:07:37.055Z</time></trkpt><trkpt lat="44.4814345" lon="7.8227772"><ele>410.0</ele><time>2026-04-21T07:07:38.052Z</time></trkpt><trkpt lat="44.4812131" lon="7.8229367"><ele>409.5</ele><time>2026-04-21T07:07:39.067Z</time></trkpt><trkpt lat="44.4809927" lon="7.8230955"><ele>409.0</ele><time>2026-04-21T07:07:40.057Z</time></trkpt><trkpt lat="44.4807714" lon="7.8232537"><ele>409.0</ele><time>2026-04-21T07:07:41.057Z</time></trkpt><trkpt lat="44.4805541" lon="7.8234099"><ele>409.0</ele><time>2026-04-21T07:07:42.06Z</time></trkpt><trkpt lat="44.4803362" lon="7.8235617"><ele>409.5</ele><time>2026-04-21T07:07:43.064Z</time></trkpt><trkpt lat="44.4801193" lon="7.8237137"><ele>410.0</ele><time>2026-04-21T07:07:44.065Z</time></trkpt><trkpt lat="44.4799011" lon="7.8238663"><ele>410.0</ele><time>2026-04-21T07:07:45.063Z</time></trkpt><trkpt lat="44.4796808" lon="7.8240209"><ele>410.0</ele><time>2026-04-21T07:07:46.058Z</time></trkpt><trkpt lat="44.4794581" lon="7.8241764"><ele>408.5</ele><time>2026-04-21T07:07:47.058Z</time></trkpt><trkpt lat="44.4792344" lon="7.8243312"><ele>407.0</ele><time>2026-04-21T07:07:48.063Z</time></trkpt><trkpt lat="44.4790105" lon="7.8244846"><ele>407.0</ele><time>2026-04-21T07:07:49.064Z</time></trkpt><trkpt lat="44.4787864" lon="7.8246414"><ele>407.0</ele><time>2026-04-21T07:07:50.069Z</time></trkpt><trkpt lat="44.4785607" lon="7.8247984"><ele>407.5</ele><time>2026-04-21T07:07:51.056Z</time></trkpt><trkpt lat="44.4783347" lon="7.8249558"><ele>408.0</ele><time>2026-04-21T07:07:52.06Z</time></trkpt><trkpt lat="44.4781105" lon="7.8251157"><ele>408.5</ele><time>2026-04-21T07:07:53.057Z</time></trkpt><trkpt lat="44.4778865" lon="7.8252749"><ele>409.0</ele><time>2026-04-21T07:07:54.067Z</time></trkpt><trkpt lat="44.4776644" lon="7.8254331"><ele>409.0</ele><time>2026-04-21T07:07:55.068Z</time></trkpt><trkpt lat="44.4774395" lon="7.8255876"><ele>409.0</ele><time>2026-04-21T07:07:56.057Z</time></trkpt><trkpt lat="44.4772121" lon="7.8257405"><ele>408.5</ele><time>2026-04-21T07:07:57.057Z</time></trkpt><trkpt lat="44.4769869" lon="7.8258964"><ele>408.0</ele><time>2026-04-21T07:07:58.062Z</time></trkpt><trkpt lat="44.4767637" lon="7.8260581"><ele>407.5</ele><time>2026-04-21T07:07:59.064Z</time></trkpt><trkpt lat="44.4765424" lon="7.8262189"><ele>407.0</ele><time>2026-04-21T07:08:00.061Z</time></trkpt><trkpt lat="44.4763203" lon="7.8263779"><ele>408.5</ele><time>2026-04-21T07:08:01.065Z</time></trkpt><trkpt lat="44.4760977" lon="7.8265377"><ele>410.0</ele><time>2026-04-21T07:08:02.057Z</time></trkpt><trkpt lat="44.4758744" lon="7.8267018"><ele>410.0</ele><time>2026-04-21T07:08:03.065Z</time></trkpt><trkpt lat="44.4756498" lon="7.8268678"><ele>410.0</ele><time>2026-04-21T07:08:04.055Z</time></trkpt><trkpt lat="44.4754227" lon="7.82703"><ele>410.5</ele><time>2026-04-21T07:08:05.063Z</time></trkpt><trkpt lat="44.4751927" lon="7.8271855"><ele>411.0</ele><time>2026-04-21T07:08:06.054Z</time></trkpt><trkpt lat="44.4749621" lon="7.8273367"><ele>411.0</ele><time>2026-04-21T07:08:07.056Z</time></trkpt><trkpt lat="44.4747289" lon="7.8274809"><ele>411.0</ele><time>2026-04-21T07:08:08.067Z</time></trkpt><trkpt lat="44.4744955" lon="7.8276179"><ele>408.0</ele><time>2026-04-21T07:08:09.064Z</time></trkpt><trkpt lat="44.4742543" lon="7.8277418"><ele>405.0</ele><time>2026-04-21T07:08:10.06Z</time></trkpt><trkpt lat="44.4740106" lon="7.8278575"><ele>405.0</ele><time>2026-04-21T07:08:11.053Z</time></trkpt><trkpt lat="44.4737638" lon="7.82797"><ele>405.0</ele><time>2026-04-21T07:08:12.061Z</time></trkpt><trkpt lat="44.4735177" lon="7.8280834"><ele>405.0</ele><time>2026-04-21T07:08:13.062Z</time></trkpt><trkpt lat="44.4732732" lon="7.8282046"><ele>405.0</ele><time>2026-04-21T07:08:14.062Z</time></trkpt><trkpt lat="44.4730252" lon="7.8283303"><ele>403.5</ele><time>2026-04-21T07:08:15.067Z</time></trkpt><trkpt lat="44.4727783" lon="7.8284577"><ele>402.0</ele><time>2026-04-21T07:08:16.058Z</time></trkpt><trkpt lat="44.4725317" lon="7.828586"><ele>402.0</ele><time>2026-04-21T07:08:17.058Z</time></trkpt><trkpt lat="44.4722851" lon="7.8287139"><ele>402.0</ele><time>2026-04-21T07:08:18.059Z</time></trkpt><trkpt lat="44.4720378" lon="7.8288399"><ele>402.5</ele><time>2026-04-21T07:08:19.059Z</time></trkpt><trkpt lat="44.4717897" lon="7.8289674"><ele>403.0</ele><time>2026-04-21T07:08:20.065Z</time></trkpt><trkpt lat="44.4715415" lon="7.8290968"><ele>403.0</ele><time>2026-04-21T07:08:21.062Z</time></trkpt><trkpt lat="44.4712919" lon="7.8292264"><ele>403.0</ele><time>2026-04-21T07:08:22.057Z</time></trkpt><trkpt lat="44.4710421" lon="7.8293544"><ele>402.5</ele><time>2026-04-21T07:08:23.063Z</time></trkpt><trkpt lat="44.4707931" lon="7.8294812"><ele>402.0</ele><time>2026-04-21T07:08:24.058Z</time></trkpt><trkpt lat="44.4705432" lon="7.8296079"><ele>402.5</ele><time>2026-04-21T07:08:25.066Z</time></trkpt><trkpt lat="44.4702915" lon="7.8297315"><ele>403.0</ele><time>2026-04-21T07:08:26.056Z</time></trkpt><trkpt lat="44.470043" lon="7.8298579"><ele>403.0</ele><time>2026-04-21T07:08:27.057Z</time></trkpt><trkpt lat="44.4697931" lon="7.8299825"><ele>403.0</ele><time>2026-04-21T07:08:28.063Z</time></trkpt><trkpt lat="44.4695432" lon="7.830108"><ele>396.5</ele><time>2026-04-21T07:08:29.055Z</time></trkpt><trkpt lat="44.469295" lon="7.8302378"><ele>390.0</ele><time>2026-04-21T07:08:30.061Z</time></trkpt><trkpt lat="44.4690463" lon="7.830369"><ele>390.0</ele><time>2026-04-21T07:08:31.064Z</time></trkpt><trkpt lat="44.468797" lon="7.8305008"><ele>390.0</ele><time>2026-04-21T07:08:32.066Z</time></trkpt><trkpt lat="44.4685472" lon="7.8306315"><ele>387.0</ele><time>2026-04-21T07:08:33.068Z</time></trkpt><trkpt lat="44.4682972" lon="7.8307607"><ele>384.0</ele><time>2026-04-21T07:08:34.058Z</time></trkpt><trkpt lat="44.4680469" lon="7.8308902"><ele>380.5</ele><time>2026-04-21T07:08:35.064Z</time></trkpt><trkpt lat="44.4677961" lon="7.831018"><ele>377.0</ele><time>2026-04-21T07:08:36.06Z</time></trkpt><trkpt lat="44.4675441" lon="7.8311453"><ele>377.0</ele><time>2026-04-21T07:08:37.06Z</time></trkpt><trkpt lat="44.4672924" lon="7.8312735"><ele>377.0</ele><time>2026-04-21T07:08:38.061Z</time></trkpt><trkpt lat="44.4670418" lon="7.8314021"><ele>376.5</ele><time>2026-04-21T07:08:39.063Z</time></trkpt><trkpt lat="44.4667908" lon="7.8315282"><ele>376.0</ele><time>2026-04-21T07:08:40.068Z</time></trkpt><trkpt lat="44.4665401" lon="7.8316568"><ele>376.0</ele><time>2026-04-21T07:08:41.058Z</time></trkpt><trkpt lat="44.4662886" lon="7.8317848"><ele>376.0</ele><time>2026-04-21T07:08:42.06Z</time></trkpt><trkpt lat="44.4660386" lon="7.8319128"><ele>375.5</ele><time>2026-04-21T07:08:43.064Z</time></trkpt><trkpt lat="44.4657907" lon="7.8320404"><ele>375.0</ele><time>2026-04-21T07:08:44.062Z</time></trkpt><trkpt lat="44.465542" lon="7.8321678"><ele>375.0</ele><time>2026-04-21T07:08:45.061Z</time></trkpt><trkpt lat="44.4652925" lon="7.8322945"><ele>375.0</ele><time>2026-04-21T07:08:46.057Z</time></trkpt><trkpt lat="44.4650444" lon="7.8324216"><ele>375.0</ele><time>2026-04-21T07:08:47.055Z</time></trkpt><trkpt lat="44.4647975" lon="7.8325481"><ele>375.0</ele><time>2026-04-21T07:08:48.059Z</time></trkpt><trkpt lat="44.4645495" lon="7.8326762"><ele>374.5</ele><time>2026-04-21T07:08:49.06Z</time></trkpt><trkpt lat="44.4643003" lon="7.8328051"><ele>374.0</ele><time>2026-04-21T07:08:50.061Z</time></trkpt><trkpt lat="44.4640518" lon="7.8329338"><ele>374.0</ele><time>2026-04-21T07:08:51.065Z</time></trkpt><trkpt lat="44.4638056" lon="7.8330596"><ele>374.0</ele><time>2026-04-21T07:08:52.058Z</time></trkpt><trkpt lat="44.4635569" lon="7.8331822"><ele>373.5</ele><time>2026-04-21T07:08:53.058Z</time></trkpt><trkpt lat="44.4633088" lon="7.8333059"><ele>373.0</ele><time>2026-04-21T07:08:54.065Z</time></trkpt><trkpt lat="44.4630611" lon="7.8334334"><ele>372.5</ele><time>2026-04-21T07:08:55.056Z</time></trkpt><trkpt lat="44.462814" lon="7.8335615"><ele>372.0</ele><time>2026-04-21T07:08:56.066Z</time></trkpt><trkpt lat="44.4625678" lon="7.8336893"><ele>372.0</ele><time>2026-04-21T07:08:57.055Z</time></trkpt><trkpt lat="44.4623211" lon="7.8338158"><ele>372.0</ele><time>2026-04-21T07:08:58.054Z</time></trkpt><trkpt lat="44.4620737" lon="7.8339412"><ele>371.5</ele><time>2026-04-21T07:08:59.055Z</time></trkpt><trkpt lat="44.4618263" lon="7.8340653"><ele>371.0</ele><time>2026-04-21T07:09:00.056Z</time></trkpt><trkpt lat="44.4615805" lon="7.8341905"><ele>371.0</ele><time>2026-04-21T07:09:01.063Z</time></trkpt><trkpt lat="44.4613337" lon="7.8343145"><ele>371.0</ele><time>2026-04-21T07:09:02.058Z</time></trkpt><trkpt lat="44.4610863" lon="7.8344376"><ele>371.0</ele><time>2026-04-21T07:09:03.065Z</time></trkpt><trkpt lat="44.4608396" lon="7.8345618"><ele>371.0</ele><time>2026-04-21T07:09:04.059Z</time></trkpt><trkpt lat="44.460592" lon="7.8346845"><ele>363.5</ele><time>2026-04-21T07:09:05.065Z</time></trkpt><trkpt lat="44.4603459" lon="7.8348069"><ele>356.0</ele><time>2026-04-21T07:09:06.057Z</time></trkpt><trkpt lat="44.4601011" lon="7.834928"><ele>356.0</ele><time>2026-04-21T07:09:07.06Z</time></trkpt><trkpt lat="44.459859" lon="7.8350481"><ele>356.0</ele><time>2026-04-21T07:09:08.055Z</time></trkpt><trkpt lat="44.4596174" lon="7.8351712"><ele>348.0</ele><time>2026-04-21T07:09:09.061Z</time></trkpt><trkpt lat="44.4593754" lon="7.8352965"><ele>340.0</ele><time>2026-04-21T07:09:10.056Z</time></trkpt><trkpt lat="44.459133" lon="7.8354229"><ele>340.0</ele><time>2026-04-21T07:09:11.055Z</time></trkpt><trkpt lat="44.4588927" lon="7.8355469"><ele>340.0</ele><time>2026-04-21T07:09:12.059Z</time></trkpt><trkpt lat="44.4586519" lon="7.8356688"><ele>336.5</ele><time>2026-04-21T07:09:13.06Z</time></trkpt><trkpt lat="44.4584117" lon="7.8357885"><ele>333.0</ele><time>2026-04-21T07:09:14.06Z</time></trkpt><trkpt lat="44.4581738" lon="7.8359113"><ele>328.5</ele><time>2026-04-21T07:09:15.059Z</time></trkpt><trkpt lat="44.4579363" lon="7.8360357"><ele>324.0</ele><time>2026-04-21T07:09:16.061Z</time></trkpt><trkpt lat="44.4577007" lon="7.8361609"><ele>324.0</ele><time>2026-04-21T07:09:17.053Z</time></trkpt><trkpt lat="44.4574639" lon="7.8362839"><ele>324.0</ele><time>2026-04-21T07:09:18.062Z</time></trkpt><trkpt lat="44.4572275" lon="7.8364045"><ele>321.0</ele><time>2026-04-21T07:09:19.065Z</time></trkpt><trkpt lat="44.4569929" lon="7.8365253"><ele>318.0</ele><time>2026-04-21T07:09:20.06Z</time></trkpt><trkpt lat="44.4567598" lon="7.836643"><ele>318.0</ele><time>2026-04-21T07:09:21.059Z</time></trkpt><trkpt lat="44.4565275" lon="7.8367608"><ele>318.0</ele><time>2026-04-21T07:09:22.057Z</time></trkpt><trkpt lat="44.4562976" lon="7.83688"><ele>312.0</ele><time>2026-04-21T07:09:23.07Z</time></trkpt><trkpt lat="44.4560698" lon="7.8369975"><ele>306.0</ele><time>2026-04-21T07:09:24.079Z</time></trkpt><trkpt lat="44.4558447" lon="7.8371133"><ele>306.0</ele><time>2026-04-21T07:09:25.067Z</time></trkpt><trkpt lat="44.455621" lon="7.8372294"><ele>306.0</ele><time>2026-04-21T07:09:26.076Z</time></trkpt><trkpt lat="44.4553966" lon="7.8373418"><ele>306.0</ele><time>2026-04-21T07:09:27.074Z</time></trkpt><trkpt lat="44.4551738" lon="7.8374528"><ele>306.0</ele><time>2026-04-21T07:09:28.078Z</time></trkpt><trkpt lat="44.4549531" lon="7.8375661"><ele>306.5</ele><time>2026-04-21T07:09:29.073Z</time></trkpt><trkpt lat="44.4547345" lon="7.8376772"><ele>307.0</ele><time>2026-04-21T07:09:30.068Z</time></trkpt><trkpt lat="44.4545185" lon="7.8377882"><ele>307.5</ele><time>2026-04-21T07:09:31.067Z</time></trkpt><trkpt lat="44.454304" lon="7.8378982"><ele>308.0</ele><time>2026-04-21T07:09:32.066Z</time></trkpt><trkpt lat="44.4540899" lon="7.8380073"><ele>308.0</ele><time>2026-04-21T07:09:33.067Z</time></trkpt><trkpt lat="44.4538774" lon="7.8381157"><ele>308.0</ele><time>2026-04-21T07:09:34.076Z</time></trkpt><trkpt lat="44.4536642" lon="7.8382244"><ele>308.0</ele><time>2026-04-21T07:09:35.078Z</time></trkpt><trkpt lat="44.4534518" lon="7.8383324"><ele>308.0</ele><time>2026-04-21T07:09:36.079Z</time></trkpt><trkpt lat="44.4532398" lon="7.838439"><ele>308.0</ele><time>2026-04-21T07:09:37.069Z</time></trkpt><trkpt lat="44.4530262" lon="7.8385455"><ele>308.0</ele><time>2026-04-21T07:09:38.068Z</time></trkpt><trkpt lat="44.4528127" lon="7.8386534"><ele>315.33333333333337</ele><time>2026-04-21T07:09:39.052Z</time></trkpt><trkpt lat="44.452602" lon="7.8387631"><ele>322.6666666666667</ele><time>2026-04-21T07:09:40.066Z</time></trkpt><trkpt lat="44.4523927" lon="7.8388724"><ele>330.0</ele><time>2026-04-21T07:09:41.064Z</time></trkpt><trkpt lat="44.4521828" lon="7.8389799"><ele>336.6666666666667</ele><time>2026-04-21T07:09:42.065Z</time></trkpt><trkpt lat="44.4519748" lon="7.8390873"><ele>343.33333333333337</ele><time>2026-04-21T07:09:43.07Z</time></trkpt><trkpt lat="44.4517668" lon="7.839194"><ele>350.0</ele><time>2026-04-21T07:09:44.075Z</time></trkpt><trkpt lat="44.4515586" lon="7.8393002"><ele>350.6666666666667</ele><time>2026-04-21T07:09:45.058Z</time></trkpt><trkpt lat="44.4513535" lon="7.8394052"><ele>351.3333333333333</ele><time>2026-04-21T07:09:46.077Z</time></trkpt><trkpt lat="44.4511486" lon="7.8395089"><ele>352.0</ele><time>2026-04-21T07:09:47.063Z</time></trkpt><trkpt lat="44.4509433" lon="7.839611"><ele>358.66666666666663</ele><time>2026-04-21T07:09:48.063Z</time></trkpt><trkpt lat="44.4507376" lon="7.8397168"><ele>365.3333333333333</ele><time>2026-04-21T07:09:49.056Z</time></trkpt><trkpt lat="44.4505318" lon="7.8398275"><ele>372.0</ele><time>2026-04-21T07:09:50.08Z</time></trkpt><trkpt lat="44.4503266" lon="7.8399382"><ele>375.6666666666667</ele><time>2026-04-21T07:09:51.083Z</time></trkpt><trkpt lat="44.4501211" lon="7.8400533"><ele>379.33333333333337</ele><time>2026-04-21T07:09:52.076Z</time></trkpt><trkpt lat="44.4499144" lon="7.8401742"><ele>383.0</ele><time>2026-04-21T07:09:53.075Z</time></trkpt><trkpt lat="44.4497055" lon="7.8402985"><ele>385.0</ele><time>2026-04-21T07:09:54.068Z</time></trkpt><trkpt lat="44.4494941" lon="7.8404247"><ele>387.0</ele><time>2026-04-21T07:09:55.083Z</time></trkpt><trkpt lat="44.4492812" lon="7.8405543"><ele>387.0</ele><time>2026-04-21T07:09:56.075Z</time></trkpt><trkpt lat="44.4490673" lon="7.8406828"><ele>387.0</ele><time>2026-04-21T07:09:57.074Z</time></trkpt><trkpt lat="44.4488519" lon="7.8408112"><ele>387.0</ele><time>2026-04-21T07:09:58.074Z</time></trkpt><trkpt lat="44.4486366" lon="7.8409408"><ele>387.0</ele><time>2026-04-21T07:09:59.08Z</time></trkpt><trkpt lat="44.4484199" lon="7.8410677"><ele>387.0</ele><time>2026-04-21T07:10:00.07Z</time></trkpt><trkpt lat="44.448204" lon="7.841197"><ele>387.0</ele><time>2026-04-21T07:10:01.076Z</time></trkpt><trkpt lat="44.4479875" lon="7.8413277"><ele>386.5</ele><time>2026-04-21T07:10:02.062Z</time></trkpt><trkpt lat="44.4477699" lon="7.8414603"><ele>386.0</ele><time>2026-04-21T07:10:03.067Z</time></trkpt><trkpt lat="44.4475511" lon="7.8415909"><ele>386.0</ele><time>2026-04-21T07:10:04.065Z</time></trkpt><trkpt lat="44.4473332" lon="7.8417221"><ele>386.0</ele><time>2026-04-21T07:10:05.066Z</time></trkpt><trkpt lat="44.4471168" lon="7.8418527"><ele>385.0</ele><time>2026-04-21T07:10:06.07Z</time></trkpt><trkpt lat="44.4468995" lon="7.8419838"><ele>384.0</ele><time>2026-04-21T07:10:07.061Z</time></trkpt><trkpt lat="44.4466806" lon="7.8421117"><ele>384.0</ele><time>2026-04-21T07:10:08.074Z</time></trkpt><trkpt lat="44.4464639" lon="7.8422416"><ele>384.0</ele><time>2026-04-21T07:10:09.062Z</time></trkpt><trkpt lat="44.4462464" lon="7.8423745"><ele>385.0</ele><time>2026-04-21T07:10:10.078Z</time></trkpt><trkpt lat="44.4460269" lon="7.8425055"><ele>386.0</ele><time>2026-04-21T07:10:11.063Z</time></trkpt><trkpt lat="44.4458066" lon="7.8426387"><ele>386.0</ele><time>2026-04-21T07:10:12.074Z</time></trkpt><trkpt lat="44.44559" lon="7.8427701"><ele>386.0</ele><time>2026-04-21T07:10:13.078Z</time></trkpt><trkpt lat="44.4453805" lon="7.8428951"><ele>385.66666666666663</ele><time>2026-04-21T07:10:14.062Z</time></trkpt><trkpt lat="44.4451755" lon="7.8430163"><ele>385.33333333333337</ele><time>2026-04-21T07:10:15.083Z</time></trkpt><trkpt lat="44.4449711" lon="7.8431344"><ele>385.0</ele><time>2026-04-21T07:10:16.07Z</time></trkpt><trkpt lat="44.444769" lon="7.8432549"><ele>385.0</ele><time>2026-04-21T07:10:17.084Z</time></trkpt><trkpt lat="44.4445684" lon="7.8433739"><ele>385.0</ele><time>2026-04-21T07:10:18.066Z</time></trkpt><trkpt lat="44.4443678" lon="7.8434928"><ele>385.0</ele><time>2026-04-21T07:10:19.08Z</time></trkpt><trkpt lat="44.4441697" lon="7.8436112"><ele>385.0</ele><time>2026-04-21T07:10:20.069Z</time></trkpt><trkpt lat="44.4439718" lon="7.8437302"><ele>385.0</ele><time>2026-04-21T07:10:21.072Z</time></trkpt><trkpt lat="44.443773" lon="7.8438503"><ele>385.0</ele><time>2026-04-21T07:10:22.07Z</time></trkpt><trkpt lat="44.4435746" lon="7.8439711"><ele>385.0</ele><time>2026-04-21T07:10:23.065Z</time></trkpt><trkpt lat="44.443378" lon="7.8440923"><ele>385.0</ele><time>2026-04-21T07:10:24.07Z</time></trkpt><trkpt lat="44.4431803" lon="7.8442128"><ele>385.0</ele><time>2026-04-21T07:10:25.059Z</time></trkpt><trkpt lat="44.4429837" lon="7.8443312"><ele>384.33333333333337</ele><time>2026-04-21T07:10:26.08Z</time></trkpt><trkpt lat="44.4427888" lon="7.8444489"><ele>383.6666666666667</ele><time>2026-04-21T07:10:27.064Z</time></trkpt><trkpt lat="44.442593" lon="7.844566"><ele>383.0</ele><time>2026-04-21T07:10:28.074Z</time></trkpt><trkpt lat="44.4423969" lon="7.8446828"><ele>383.0</ele><time>2026-04-21T07:10:29.069Z</time></trkpt><trkpt lat="44.4422018" lon="7.8448012"><ele>383.0</ele><time>2026-04-21T07:10:30.073Z</time></trkpt><trkpt lat="44.442007" lon="7.8449225"><ele>383.0</ele><time>2026-04-21T07:10:31.08Z</time></trkpt><trkpt lat="44.4418111" lon="7.8450421"><ele>383.0</ele><time>2026-04-21T07:10:32.085Z</time></trkpt><trkpt lat="44.4416148" lon="7.8451606"><ele>383.0</ele><time>2026-04-21T07:10:33.086Z</time></trkpt><trkpt lat="44.441418" lon="7.8452775"><ele>383.0</ele><time>2026-04-21T07:10:34.066Z</time></trkpt><trkpt lat="44.4412208" lon="7.8453949"><ele>383.0</ele><time>2026-04-21T07:10:35.07Z</time></trkpt><trkpt lat="44.4410232" lon="7.8455156"><ele>383.0</ele><time>2026-04-21T07:10:36.069Z</time></trkpt><trkpt lat="44.4408227" lon="7.8456399"><ele>383.0</ele><time>2026-04-21T07:10:37.077Z</time></trkpt><trkpt lat="44.4406164" lon="7.8457637"><ele>382.5</ele><time>2026-04-21T07:10:38.06Z</time></trkpt><trkpt lat="44.4404051" lon="7.8458891"><ele>382.0</ele><time>2026-04-21T07:10:39.072Z</time></trkpt><trkpt lat="44.4401892" lon="7.8460176"><ele>382.0</ele><time>2026-04-21T07:10:40.071Z</time></trkpt><trkpt lat="44.4399689" lon="7.8461495"><ele>382.0</ele><time>2026-04-21T07:10:41.08Z</time></trkpt><trkpt lat="44.4397438" lon="7.8462855"><ele>382.0</ele><time>2026-04-21T07:10:42.057Z</time></trkpt><trkpt lat="44.4395175" lon="7.8464258"><ele>382.0</ele><time>2026-04-21T07:10:43.068Z</time></trkpt><trkpt lat="44.4392877" lon="7.8465656"><ele>382.0</ele><time>2026-04-21T07:10:44.071Z</time></trkpt><trkpt lat="44.4390551" lon="7.8467071"><ele>382.0</ele><time>2026-04-21T07:10:45.061Z</time></trkpt><trkpt lat="44.4388209" lon="7.8468479"><ele>382.5</ele><time>2026-04-21T07:10:46.074Z</time></trkpt><trkpt lat="44.438584" lon="7.8469888"><ele>383.0</ele><time>2026-04-21T07:10:47.07Z</time></trkpt><trkpt lat="44.4383451" lon="7.8471297"><ele>383.0</ele><time>2026-04-21T07:10:48.075Z</time></trkpt><trkpt lat="44.438105" lon="7.8472725"><ele>383.0</ele><time>2026-04-21T07:10:49.066Z</time></trkpt><trkpt lat="44.4378653" lon="7.8474191"><ele>383.5</ele><time>2026-04-21T07:10:50.065Z</time></trkpt><trkpt lat="44.4376242" lon="7.8475677"><ele>384.0</ele><time>2026-04-21T07:10:51.069Z</time></trkpt><trkpt lat="44.4373822" lon="7.8477159"><ele>384.5</ele><time>2026-04-21T07:10:52.074Z</time></trkpt><trkpt lat="44.4371408" lon="7.8478606"><ele>385.0</ele><time>2026-04-21T07:10:53.071Z</time></trkpt><trkpt lat="44.4369006" lon="7.8480061"><ele>386.5</ele><time>2026-04-21T07:10:54.077Z</time></trkpt><trkpt lat="44.4366592" lon="7.8481507"><ele>388.0</ele><time>2026-04-21T07:10:55.067Z</time></trkpt><trkpt lat="44.4364173" lon="7.8482952"><ele>388.5</ele><time>2026-04-21T07:10:56.082Z</time></trkpt><trkpt lat="44.4361788" lon="7.848446"><ele>389.0</ele><time>2026-04-21T07:10:57.07Z</time></trkpt><trkpt lat="44.4359401" lon="7.8485992"><ele>388.5</ele><time>2026-04-21T07:10:58.059Z</time></trkpt><trkpt lat="44.435699" lon="7.8487475"><ele>388.0</ele><time>2026-04-21T07:10:59.069Z</time></trkpt><trkpt lat="44.4354573" lon="7.8488935"><ele>388.0</ele><time>2026-04-21T07:11:00.066Z</time></trkpt><trkpt lat="44.4352171" lon="7.8490363"><ele>388.0</ele><time>2026-04-21T07:11:01.079Z</time></trkpt><trkpt lat="44.4349775" lon="7.8491753"><ele>387.5</ele><time>2026-04-21T07:11:02.069Z</time></trkpt><trkpt lat="44.4347399" lon="7.8493164"><ele>387.0</ele><time>2026-04-21T07:11:03.09Z</time></trkpt><trkpt lat="44.4345019" lon="7.8494584"><ele>386.5</ele><time>2026-04-21T07:11:04.073Z</time></trkpt><trkpt lat="44.4342635" lon="7.849602"><ele>386.0</ele><time>2026-04-21T07:11:05.073Z</time></trkpt><trkpt lat="44.4340232" lon="7.849745"><ele>385.0</ele><time>2026-04-21T07:11:06.067Z</time></trkpt><trkpt lat="44.4337816" lon="7.8498866"><ele>384.0</ele><time>2026-04-21T07:11:07.073Z</time></trkpt><trkpt lat="44.4335412" lon="7.8500267"><ele>383.0</ele><time>2026-04-21T07:11:08.065Z</time></trkpt><trkpt lat="44.4333" lon="7.8501678"><ele>382.0</ele><time>2026-04-21T07:11:09.064Z</time></trkpt><trkpt lat="44.4330593" lon="7.8503106"><ele>375.5</ele><time>2026-04-21T07:11:10.065Z</time></trkpt><trkpt lat="44.432817" lon="7.8504535"><ele>369.0</ele><time>2026-04-21T07:11:11.063Z</time></trkpt><trkpt lat="44.4325746" lon="7.8505981"><ele>369.0</ele><time>2026-04-21T07:11:12.063Z</time></trkpt><trkpt lat="44.4323315" lon="7.8507464"><ele>369.0</ele><time>2026-04-21T07:11:13.085Z</time></trkpt><trkpt lat="44.4320849" lon="7.8508942"><ele>357.5</ele><time>2026-04-21T07:11:14.079Z</time></trkpt><trkpt lat="44.4318379" lon="7.8510418"><ele>346.0</ele><time>2026-04-21T07:11:15.07Z</time></trkpt><trkpt lat="44.4315907" lon="7.8511913"><ele>346.0</ele><time>2026-04-21T07:11:16.062Z</time></trkpt><trkpt lat="44.4313442" lon="7.8513433"><ele>346.0</ele><time>2026-04-21T07:11:17.062Z</time></trkpt><trkpt lat="44.4310969" lon="7.8514924"><ele>344.5</ele><time>2026-04-21T07:11:18.064Z</time></trkpt><trkpt lat="44.4308486" lon="7.8516381"><ele>343.0</ele><time>2026-04-21T07:11:19.066Z</time></trkpt><trkpt lat="44.4306011" lon="7.8517843"><ele>356.0</ele><time>2026-04-21T07:11:20.07Z</time></trkpt><trkpt lat="44.4303542" lon="7.8519315"><ele>369.0</ele><time>2026-04-21T07:11:21.073Z</time></trkpt><trkpt lat="44.4301084" lon="7.8520808"><ele>369.0</ele><time>2026-04-21T07:11:22.08Z</time></trkpt><trkpt lat="44.4298626" lon="7.8522288"><ele>369.0</ele><time>2026-04-21T07:11:23.064Z</time></trkpt><trkpt lat="44.4296162" lon="7.8523749"><ele>371.5</ele><time>2026-04-21T07:11:24.062Z</time></trkpt><trkpt lat="44.4293688" lon="7.8525231"><ele>374.0</ele><time>2026-04-21T07:11:25.065Z</time></trkpt><trkpt lat="44.4291244" lon="7.8526712"><ele>376.0</ele><time>2026-04-21T07:11:26.071Z</time></trkpt><trkpt lat="44.4288772" lon="7.8528213"><ele>378.0</ele><time>2026-04-21T07:11:27.082Z</time></trkpt><trkpt lat="44.4286306" lon="7.8529728"><ele>379.0</ele><time>2026-04-21T07:11:28.073Z</time></trkpt><trkpt lat="44.4283855" lon="7.8531244"><ele>380.0</ele><time>2026-04-21T07:11:29.061Z</time></trkpt><trkpt lat="44.428142" lon="7.8532725"><ele>380.0</ele><time>2026-04-21T07:11:30.074Z</time></trkpt><trkpt lat="44.4279015" lon="7.8534192"><ele>380.0</ele><time>2026-04-21T07:11:31.077Z</time></trkpt><trkpt lat="44.4276613" lon="7.8535664"><ele>380.0</ele><time>2026-04-21T07:11:32.085Z</time></trkpt><trkpt lat="44.4274191" lon="7.853711"><ele>380.0</ele><time>2026-04-21T07:11:33.061Z</time></trkpt><trkpt lat="44.4271758" lon="7.8538568"><ele>380.5</ele><time>2026-04-21T07:11:34.064Z</time></trkpt><trkpt lat="44.4269306" lon="7.854002"><ele>381.0</ele><time>2026-04-21T07:11:35.06Z</time></trkpt><trkpt lat="44.4266858" lon="7.8541481"><ele>381.0</ele><time>2026-04-21T07:11:36.071Z</time></trkpt><trkpt lat="44.4264414" lon="7.8542942"><ele>381.0</ele><time>2026-04-21T07:11:37.081Z</time></trkpt><trkpt lat="44.4261957" lon="7.8544406"><ele>382.0</ele><time>2026-04-21T07:11:38.077Z</time></trkpt><trkpt lat="44.4259445" lon="7.854575"><ele>383.0</ele><time>2026-04-21T07:11:39.071Z</time></trkpt><trkpt lat="44.4256938" lon="7.8547135"><ele>383.5</ele><time>2026-04-21T07:11:40.066Z</time></trkpt><trkpt lat="44.4254508" lon="7.8548606"><ele>384.0</ele><time>2026-04-21T07:11:41.063Z</time></trkpt><trkpt lat="44.4252097" lon="7.8550041"><ele>384.0</ele><time>2026-04-21T07:11:42.078Z</time></trkpt><trkpt lat="44.4249714" lon="7.8551466"><ele>384.0</ele><time>2026-04-21T07:11:43.072Z</time></trkpt><trkpt lat="44.4247387" lon="7.8552885"><ele>382.0</ele><time>2026-04-21T07:11:44.064Z</time></trkpt><trkpt lat="44.4245099" lon="7.8554284"><ele>380.0</ele><time>2026-04-21T07:11:45.072Z</time></trkpt><trkpt lat="44.4242804" lon="7.855568"><ele>380.0</ele><time>2026-04-21T07:11:46.078Z</time></trkpt><trkpt lat="44.4240471" lon="7.8557033"><ele>380.0</ele><time>2026-04-21T07:11:47.057Z</time></trkpt><trkpt lat="44.4238198" lon="7.8558433"><ele>379.5</ele><time>2026-04-21T07:11:48.076Z</time></trkpt><trkpt lat="44.4235916" lon="7.8559826"><ele>379.0</ele><time>2026-04-21T07:11:49.069Z</time></trkpt><trkpt lat="44.4233636" lon="7.8561282"><ele>379.0</ele><time>2026-04-21T07:11:50.07Z</time></trkpt><trkpt lat="44.4231381" lon="7.856277"><ele>379.0</ele><time>2026-04-21T07:11:51.067Z</time></trkpt><trkpt lat="44.422909" lon="7.8564244"><ele>378.0</ele><time>2026-04-21T07:11:52.072Z</time></trkpt><trkpt lat="44.4226822" lon="7.8565767"><ele>377.0</ele><time>2026-04-21T07:11:53.073Z</time></trkpt><trkpt lat="44.4224582" lon="7.8567338"><ele>376.0</ele><time>2026-04-21T07:11:54.061Z</time></trkpt><trkpt lat="44.4222321" lon="7.8568893"><ele>375.0</ele><time>2026-04-21T07:11:55.071Z</time></trkpt><trkpt lat="44.422001" lon="7.857037"><ele>374.0</ele><time>2026-04-21T07:11:56.071Z</time></trkpt><trkpt lat="44.4217705" lon="7.8571859"><ele>373.0</ele><time>2026-04-21T07:11:57.081Z</time></trkpt><trkpt lat="44.4215407" lon="7.8573347"><ele>373.0</ele><time>2026-04-21T07:11:58.076Z</time></trkpt><trkpt lat="44.4213076" lon="7.8574795"><ele>373.0</ele><time>2026-04-21T07:11:59.067Z</time></trkpt><trkpt lat="44.4210736" lon="7.8576207"><ele>370.0</ele><time>2026-04-21T07:12:00.066Z</time></trkpt><trkpt lat="44.4208418" lon="7.8577728"><ele>367.0</ele><time>2026-04-21T07:12:01.08Z</time></trkpt><trkpt lat="44.4206162" lon="7.8579402"><ele>358.5</ele><time>2026-04-21T07:12:02.063Z</time></trkpt><trkpt lat="44.4203945" lon="7.8581125"><ele>350.0</ele><time>2026-04-21T07:12:03.071Z</time></trkpt><trkpt lat="44.4201744" lon="7.8582823"><ele>350.0</ele><time>2026-04-21T07:12:04.059Z</time></trkpt><trkpt lat="44.4199534" lon="7.8584474"><ele>350.0</ele><time>2026-04-21T07:12:05.071Z</time></trkpt><trkpt lat="44.4197324" lon="7.8586121"><ele>356.0</ele><time>2026-04-21T07:12:06.079Z</time></trkpt><trkpt lat="44.4195127" lon="7.8587777"><ele>362.0</ele><time>2026-04-21T07:12:07.079Z</time></trkpt><trkpt lat="44.4192992" lon="7.8589497"><ele>362.0</ele><time>2026-04-21T07:12:08.064Z</time></trkpt><trkpt lat="44.4190925" lon="7.8591335"><ele>362.0</ele><time>2026-04-21T07:12:09.074Z</time></trkpt><trkpt lat="44.4188948" lon="7.8593332"><ele>368.5</ele><time>2026-04-21T07:12:10.07Z</time></trkpt><trkpt lat="44.4187044" lon="7.8595517"><ele>375.0</ele><time>2026-04-21T07:12:11.069Z</time></trkpt><trkpt lat="44.4185284" lon="7.8597904"><ele>375.0</ele><time>2026-04-21T07:12:12.068Z</time></trkpt><trkpt lat="44.4183591" lon="7.8600366"><ele>375.0</ele><time>2026-04-21T07:12:13.071Z</time></trkpt><trkpt lat="44.4182013" lon="7.8603038"><ele>374.0</ele><time>2026-04-21T07:12:14.073Z</time></trkpt><trkpt lat="44.4180526" lon="7.8605778"><ele>373.0</ele><time>2026-04-21T07:12:15.066Z</time></trkpt><trkpt lat="44.4179123" lon="7.8608521"><ele>367.5</ele><time>2026-04-21T07:12:16.083Z</time></trkpt><trkpt lat="44.4177795" lon="7.8611266"><ele>362.0</ele><time>2026-04-21T07:12:17.066Z</time></trkpt><trkpt lat="44.4176614" lon="7.8614137"><ele>362.0</ele><time>2026-04-21T07:12:18.075Z</time></trkpt><trkpt lat="44.4175547" lon="7.8617172"><ele>362.0</ele><time>2026-04-21T07:12:19.069Z</time></trkpt><trkpt lat="44.4174596" lon="7.8620295"><ele>361.0</ele><time>2026-04-21T07:12:20.067Z</time></trkpt><trkpt lat="44.4173748" lon="7.8623536"><ele>360.0</ele><time>2026-04-21T07:12:21.071Z</time></trkpt><trkpt lat="44.4173" lon="7.86268"><ele>353.0</ele><time>2026-04-21T07:12:22.062Z</time></trkpt><trkpt lat="44.4172411" lon="7.8630137"><ele>346.0</ele><time>2026-04-21T07:12:23.083Z</time></trkpt><trkpt lat="44.4171957" lon="7.8633508"><ele>342.5</ele><time>2026-04-21T07:12:24.081Z</time></trkpt><trkpt lat="44.4171602" lon="7.8636888"><ele>339.0</ele><time>2026-04-21T07:12:25.067Z</time></trkpt><trkpt lat="44.4171383" lon="7.8640305"><ele>335.5</ele><time>2026-04-21T07:12:26.065Z</time></trkpt><trkpt lat="44.4171293" lon="7.8643762"><ele>332.0</ele><time>2026-04-21T07:12:27.054Z</time></trkpt><trkpt lat="44.4171302" lon="7.8647221"><ele>332.0</ele><time>2026-04-21T07:12:28.065Z</time></trkpt><trkpt lat="44.4171445" lon="7.8650633"><ele>332.0</ele><time>2026-04-21T07:12:29.058Z</time></trkpt><trkpt lat="44.4171739" lon="7.8653996"><ele>328.0</ele><time>2026-04-21T07:12:30.085Z</time></trkpt><trkpt lat="44.4172188" lon="7.8657363"><ele>324.0</ele><time>2026-04-21T07:12:31.075Z</time></trkpt><trkpt lat="44.4172696" lon="7.8660685"><ele>324.0</ele><time>2026-04-21T07:12:32.069Z</time></trkpt><trkpt lat="44.4173262" lon="7.8664"><ele>324.0</ele><time>2026-04-21T07:12:33.065Z</time></trkpt><trkpt lat="44.417386" lon="7.8667262"><ele>328.0</ele><time>2026-04-21T07:12:34.063Z</time></trkpt><trkpt lat="44.4174514" lon="7.8670547"><ele>332.0</ele><time>2026-04-21T07:12:35.071Z</time></trkpt><trkpt lat="44.4175127" lon="7.8673872"><ele>342.0</ele><time>2026-04-21T07:12:36.066Z</time></trkpt><trkpt lat="44.4175772" lon="7.8677179"><ele>352.0</ele><time>2026-04-21T07:12:37.054Z</time></trkpt><trkpt lat="44.4176349" lon="7.868048"><ele>352.0</ele><time>2026-04-21T07:12:38.07Z</time></trkpt><trkpt lat="44.4176927" lon="7.8683762"><ele>352.0</ele><time>2026-04-21T07:12:39.077Z</time></trkpt><trkpt lat="44.4177533" lon="7.8687038"><ele>365.0</ele><time>2026-04-21T07:12:40.071Z</time></trkpt><trkpt lat="44.4178167" lon="7.8690317"><ele>378.0</ele><time>2026-04-21T07:12:41.064Z</time></trkpt><trkpt lat="44.4178801" lon="7.8693585"><ele>382.5</ele><time>2026-04-21T07:12:42.076Z</time></trkpt><trkpt lat="44.4179487" lon="7.8696843"><ele>387.0</ele><time>2026-04-21T07:12:43.065Z</time></trkpt><trkpt lat="44.41803" lon="7.8700024"><ele>389.5</ele><time>2026-04-21T07:12:44.067Z</time></trkpt><trkpt lat="44.4181297" lon="7.8703145"><ele>392.0</ele><time>2026-04-21T07:12:45.065Z</time></trkpt><trkpt lat="44.4182431" lon="7.8706185"><ele>392.0</ele><time>2026-04-21T07:12:46.07Z</time></trkpt><trkpt lat="44.4183728" lon="7.8709116"><ele>392.0</ele><time>2026-04-21T07:12:47.081Z</time></trkpt><trkpt lat="44.4185162" lon="7.8712006"><ele>397.0</ele><time>2026-04-21T07:12:48.069Z</time></trkpt><trkpt lat="44.4186648" lon="7.8714867"><ele>402.0</ele><time>2026-04-21T07:12:49.065Z</time></trkpt><trkpt lat="44.4188108" lon="7.8717736"><ele>401.0</ele><time>2026-04-21T07:12:50.064Z</time></trkpt><trkpt lat="44.4189495" lon="7.8720603"><ele>400.0</ele><time>2026-04-21T07:12:51.065Z</time></trkpt><trkpt lat="44.4190885" lon="7.8723479"><ele>406.5</ele><time>2026-04-21T07:12:52.062Z</time></trkpt><trkpt lat="44.4192261" lon="7.8726355"><ele>413.0</ele><time>2026-04-21T07:12:53.085Z</time></trkpt><trkpt lat="44.4193678" lon="7.8729227"><ele>413.0</ele><time>2026-04-21T07:12:54.074Z</time></trkpt><trkpt lat="44.4195091" lon="7.8732116"><ele>413.0</ele><time>2026-04-21T07:12:55.072Z</time></trkpt><trkpt lat="44.4196496" lon="7.8735006"><ele>411.5</ele><time>2026-04-21T07:12:56.056Z</time></trkpt><trkpt lat="44.4197893" lon="7.8737872"><ele>410.0</ele><time>2026-04-21T07:12:57.062Z</time></trkpt><trkpt lat="44.4199292" lon="7.874071"><ele>418.5</ele><time>2026-04-21T07:12:58.067Z</time></trkpt><trkpt lat="44.4200687" lon="7.8743507"><ele>427.0</ele><time>2026-04-21T07:12:59.069Z</time></trkpt><trkpt lat="44.4202065" lon="7.8746244"><ele>427.0</ele><time>2026-04-21T07:13:00.066Z</time></trkpt><trkpt lat="44.4203459" lon="7.8748949"><ele>427.0</ele><time>2026-04-21T07:13:01.062Z</time></trkpt><trkpt lat="44.4204082" lon="7.8750855"><ele>427.0</ele><time>2026-04-21T07:13:02.061Z</time></trkpt><trkpt lat="44.4205027" lon="7.8752812"><ele>429.25</ele><time>2026-04-21T07:13:03.055Z</time></trkpt><trkpt lat="44.420587" lon="7.8754584"><ele>431.5</ele><time>2026-04-21T07:13:04.053Z</time></trkpt><trkpt lat="44.420662" lon="7.8756188"><ele>433.75</ele><time>2026-04-21T07:13:05.048Z</time></trkpt><trkpt lat="44.4207298" lon="7.875759"><ele>436.0</ele><time>2026-04-21T07:13:06.038Z</time></trkpt><trkpt lat="44.4207936" lon="7.8758903"><ele>438.0</ele><time>2026-04-21T07:13:07.049Z</time></trkpt><trkpt lat="44.4208533" lon="7.8760156"><ele>440.0</ele><time>2026-04-21T07:13:08.053Z</time></trkpt><trkpt lat="44.4209107" lon="7.8761361"><ele>442.0</ele><time>2026-04-21T07:13:09.054Z</time></trkpt><trkpt lat="44.4209649" lon="7.8762503"><ele>444.0</ele><time>2026-04-21T07:13:10.038Z</time></trkpt><trkpt lat="44.4210186" lon="7.8763604"><ele>446.0</ele><time>2026-04-21T07:13:11.039Z</time></trkpt><trkpt lat="44.4210691" lon="7.8764654"><ele>446.0</ele><time>2026-04-21T07:13:12.039Z</time></trkpt><trkpt lat="44.4211168" lon="7.8765653"><ele>446.0</ele><time>2026-04-21T07:13:13.04Z</time></trkpt><trkpt lat="44.4211711" lon="7.8766669"><ele>446.0</ele><time>2026-04-21T07:13:14.04Z</time></trkpt><trkpt lat="44.4212311" lon="7.8767773"><ele>446.0</ele><time>2026-04-21T07:13:15.044Z</time></trkpt><trkpt lat="44.421295" lon="7.8769043"><ele>446.0</ele><time>2026-04-21T07:13:16.035Z</time></trkpt><trkpt lat="44.4213592" lon="7.8770369"><ele>445.25</ele><time>2026-04-21T07:13:17.038Z</time></trkpt><trkpt lat="44.4214307" lon="7.8771839"><ele>444.5</ele><time>2026-04-21T07:13:18.039Z</time></trkpt><trkpt lat="44.4215004" lon="7.8773267"><ele>443.75</ele><time>2026-04-21T07:13:19.045Z</time></trkpt><trkpt lat="44.4215711" lon="7.8774713"><ele>443.0</ele><time>2026-04-21T07:13:20.046Z</time></trkpt><trkpt lat="44.421637" lon="7.8776078"><ele>421.0</ele><time>2026-04-21T07:13:21.042Z</time></trkpt><trkpt lat="44.4221692" lon="7.8786966"><ele>424.0</ele><time>2026-04-21T07:13:22.056Z</time></trkpt><trkpt lat="44.4225811" lon="7.8795423"><ele>424.0</ele><time>2026-04-21T07:13:23.068Z</time></trkpt><trkpt lat="44.4227354" lon="7.8798975"><ele>424.0</ele><time>2026-04-21T07:13:24.058Z</time></trkpt><trkpt lat="44.4228662" lon="7.880206"><ele>422.5</ele><time>2026-04-21T07:13:25.062Z</time></trkpt><trkpt lat="44.4230056" lon="7.8804928"><ele>421.0</ele><time>2026-04-21T07:13:26.068Z</time></trkpt><trkpt lat="44.4231391" lon="7.8807686"><ele>422.5</ele><time>2026-04-21T07:13:27.068Z</time></trkpt><trkpt lat="44.4232579" lon="7.8810593"><ele>424.0</ele><time>2026-04-21T07:13:28.061Z</time></trkpt><trkpt lat="44.4233577" lon="7.8813597"><ele>424.0</ele><time>2026-04-21T07:13:29.071Z</time></trkpt><trkpt lat="44.4234453" lon="7.88167"><ele>424.0</ele><time>2026-04-21T07:13:30.071Z</time></trkpt><trkpt lat="44.4235213" lon="7.8819896"><ele>424.0</ele><time>2026-04-21T07:13:31.064Z</time></trkpt><trkpt lat="44.4235833" lon="7.8823153"><ele>424.0</ele><time>2026-04-21T07:13:32.068Z</time></trkpt><trkpt lat="44.4236279" lon="7.8826484"><ele>424.0</ele><time>2026-04-21T07:13:33.065Z</time></trkpt><trkpt lat="44.4236593" lon="7.8829893"><ele>424.0</ele><time>2026-04-21T07:13:34.071Z</time></trkpt><trkpt lat="44.4236747" lon="7.8833332"><ele>424.0</ele><time>2026-04-21T07:13:35.071Z</time></trkpt><trkpt lat="44.4236775" lon="7.8836717"><ele>424.0</ele><time>2026-04-21T07:13:36.071Z</time></trkpt><trkpt lat="44.423672" lon="7.8840088"><ele>423.0</ele><time>2026-04-21T07:13:37.087Z</time></trkpt><trkpt lat="44.4236551" lon="7.8843506"><ele>422.0</ele><time>2026-04-21T07:13:38.064Z</time></trkpt><trkpt lat="44.4236215" lon="7.8846854"><ele>422.0</ele><time>2026-04-21T07:13:39.065Z</time></trkpt><trkpt lat="44.4235778" lon="7.8850206"><ele>422.0</ele><time>2026-04-21T07:13:40.065Z</time></trkpt><trkpt lat="44.4235068" lon="7.8853443"><ele>420.0</ele><time>2026-04-21T07:13:41.071Z</time></trkpt><trkpt lat="44.4234035" lon="7.8856583"><ele>418.0</ele><time>2026-04-21T07:13:42.064Z</time></trkpt><trkpt lat="44.4232846" lon="7.8859635"><ele>417.0</ele><time>2026-04-21T07:13:43.072Z</time></trkpt><trkpt lat="44.4231585" lon="7.8862569"><ele>416.0</ele><time>2026-04-21T07:13:44.067Z</time></trkpt><trkpt lat="44.423019" lon="7.8865453"><ele>417.5</ele><time>2026-04-21T07:13:45.06Z</time></trkpt><trkpt lat="44.4228687" lon="7.8868225"><ele>419.0</ele><time>2026-04-21T07:13:46.063Z</time></trkpt><trkpt lat="44.4227064" lon="7.8870885"><ele>419.0</ele><time>2026-04-21T07:13:47.074Z</time></trkpt><trkpt lat="44.4225343" lon="7.8873507"><ele>419.0</ele><time>2026-04-21T07:13:48.061Z</time></trkpt><trkpt lat="44.4223586" lon="7.8876074"><ele>420.5</ele><time>2026-04-21T07:13:49.08Z</time></trkpt><trkpt lat="44.4221792" lon="7.8878621"><ele>422.0</ele><time>2026-04-21T07:13:50.073Z</time></trkpt><trkpt lat="44.4219878" lon="7.8881079"><ele>422.0</ele><time>2026-04-21T07:13:51.08Z</time></trkpt><trkpt lat="44.4217876" lon="7.8883507"><ele>422.0</ele><time>2026-04-21T07:13:52.06Z</time></trkpt><trkpt lat="44.4215833" lon="7.8885833"><ele>424.0</ele><time>2026-04-21T07:13:53.067Z</time></trkpt><trkpt lat="44.4213764" lon="7.8888127"><ele>426.0</ele><time>2026-04-21T07:13:54.069Z</time></trkpt><trkpt lat="44.4211694" lon="7.8890403"><ele>421.5</ele><time>2026-04-21T07:13:55.061Z</time></trkpt><trkpt lat="44.4209628" lon="7.8892714"><ele>417.0</ele><time>2026-04-21T07:13:56.069Z</time></trkpt><trkpt lat="44.4207563" lon="7.889504"><ele>417.0</ele><time>2026-04-21T07:13:57.068Z</time></trkpt><trkpt lat="44.4205497" lon="7.8897362"><ele>417.0</ele><time>2026-04-21T07:13:58.078Z</time></trkpt><trkpt lat="44.4203435" lon="7.8899688"><ele>412.0</ele><time>2026-04-21T07:13:59.07Z</time></trkpt><trkpt lat="44.4201361" lon="7.8902021"><ele>407.0</ele><time>2026-04-21T07:14:00.057Z</time></trkpt><trkpt lat="44.4199299" lon="7.8904353"><ele>407.0</ele><time>2026-04-21T07:14:01.06Z</time></trkpt><trkpt lat="44.4197213" lon="7.8906654"><ele>407.0</ele><time>2026-04-21T07:14:02.075Z</time></trkpt><trkpt lat="44.4195174" lon="7.8908947"><ele>406.5</ele><time>2026-04-21T07:14:03.066Z</time></trkpt><trkpt lat="44.4193142" lon="7.8911253"><ele>406.0</ele><time>2026-04-21T07:14:04.075Z</time></trkpt><trkpt lat="44.4191114" lon="7.8913575"><ele>406.0</ele><time>2026-04-21T07:14:05.068Z</time></trkpt><trkpt lat="44.418908" lon="7.8915903"><ele>406.0</ele><time>2026-04-21T07:14:06.065Z</time></trkpt><trkpt lat="44.4187047" lon="7.8918272"><ele>410.5</ele><time>2026-04-21T07:14:07.077Z</time></trkpt><trkpt lat="44.4185057" lon="7.8920698"><ele>415.0</ele><time>2026-04-21T07:14:08.075Z</time></trkpt><trkpt lat="44.4183099" lon="7.8923191"><ele>415.0</ele><time>2026-04-21T07:14:09.064Z</time></trkpt><trkpt lat="44.4181235" lon="7.8925841"><ele>415.0</ele><time>2026-04-21T07:14:10.067Z</time></trkpt><trkpt lat="44.4179417" lon="7.8928662"><ele>415.5</ele><time>2026-04-21T07:14:11.069Z</time></trkpt><trkpt lat="44.4177649" lon="7.8931543"><ele>416.0</ele><time>2026-04-21T07:14:12.077Z</time></trkpt><trkpt lat="44.4175896" lon="7.8934504"><ele>416.0</ele><time>2026-04-21T07:14:13.076Z</time></trkpt><trkpt lat="44.4174218" lon="7.8937582"><ele>416.0</ele><time>2026-04-21T07:14:14.065Z</time></trkpt><trkpt lat="44.4172603" lon="7.8940725"><ele>419.5</ele><time>2026-04-21T07:14:15.069Z</time></trkpt><trkpt lat="44.4171028" lon="7.8943883"><ele>423.0</ele><time>2026-04-21T07:14:16.065Z</time></trkpt><trkpt lat="44.4169505" lon="7.8947086"><ele>423.0</ele><time>2026-04-21T07:14:17.08Z</time></trkpt><trkpt lat="44.4168064" lon="7.8950349"><ele>423.0</ele><time>2026-04-21T07:14:18.069Z</time></trkpt><trkpt lat="44.4166673" lon="7.8953656"><ele>420.0</ele><time>2026-04-21T07:14:19.061Z</time></trkpt><trkpt lat="44.4165319" lon="7.8957018"><ele>417.0</ele><time>2026-04-21T07:14:20.061Z</time></trkpt><trkpt lat="44.4163986" lon="7.8960368"><ele>420.5</ele><time>2026-04-21T07:14:21.078Z</time></trkpt><trkpt lat="44.416264" lon="7.8963662"><ele>424.0</ele><time>2026-04-21T07:14:22.075Z</time></trkpt><trkpt lat="44.4161256" lon="7.8966899"><ele>421.5</ele><time>2026-04-21T07:14:23.068Z</time></trkpt><trkpt lat="44.4159836" lon="7.8970108"><ele>419.0</ele><time>2026-04-21T07:14:24.068Z</time></trkpt><trkpt lat="44.4158409" lon="7.8973314"><ele>417.0</ele><time>2026-04-21T07:14:25.071Z</time></trkpt><trkpt lat="44.4156999" lon="7.8976524"><ele>415.0</ele><time>2026-04-21T07:14:26.066Z</time></trkpt><trkpt lat="44.4155594" lon="7.8979727"><ele>417.5</ele><time>2026-04-21T07:14:27.079Z</time></trkpt><trkpt lat="44.4154174" lon="7.8982954"><ele>420.0</ele><time>2026-04-21T07:14:28.075Z</time></trkpt><trkpt lat="44.4152761" lon="7.8986235"><ele>413.0</ele><time>2026-04-21T07:14:29.071Z</time></trkpt><trkpt lat="44.4151338" lon="7.8989522"><ele>406.0</ele><time>2026-04-21T07:14:30.074Z</time></trkpt><trkpt lat="44.4149915" lon="7.8992827"><ele>395.0</ele><time>2026-04-21T07:14:31.073Z</time></trkpt><trkpt lat="44.4148512" lon="7.8996134"><ele>384.0</ele><time>2026-04-21T07:14:32.077Z</time></trkpt><trkpt lat="44.4147126" lon="7.8999443"><ele>397.0</ele><time>2026-04-21T07:14:33.076Z</time></trkpt><trkpt lat="44.4145749" lon="7.9002723"><ele>410.0</ele><time>2026-04-21T07:14:34.077Z</time></trkpt><trkpt lat="44.4144349" lon="7.9006004"><ele>412.5</ele><time>2026-04-21T07:14:35.063Z</time></trkpt><trkpt lat="44.4142955" lon="7.9009325"><ele>415.0</ele><time>2026-04-21T07:14:36.08Z</time></trkpt><trkpt lat="44.4141628" lon="7.9012703"><ele>415.0</ele><time>2026-04-21T07:14:37.071Z</time></trkpt><trkpt lat="44.4140471" lon="7.9016183"><ele>415.0</ele><time>2026-04-21T07:14:38.066Z</time></trkpt><trkpt lat="44.4139514" lon="7.9019848"><ele>417.0</ele><time>2026-04-21T07:14:39.078Z</time></trkpt><trkpt lat="44.4138791" lon="7.9023609"><ele>419.0</ele><time>2026-04-21T07:14:40.066Z</time></trkpt><trkpt lat="44.4138276" lon="7.902738"><ele>428.0</ele><time>2026-04-21T07:14:41.07Z</time></trkpt><trkpt lat="44.4137918" lon="7.9031216"><ele>437.0</ele><time>2026-04-21T07:14:42.059Z</time></trkpt><trkpt lat="44.4137689" lon="7.903514"><ele>437.5</ele><time>2026-04-21T07:14:43.074Z</time></trkpt><trkpt lat="44.413748" lon="7.9039037"><ele>438.0</ele><time>2026-04-21T07:14:44.065Z</time></trkpt><trkpt lat="44.4137258" lon="7.9042901"><ele>437.0</ele><time>2026-04-21T07:14:45.065Z</time></trkpt><trkpt lat="44.4137028" lon="7.9046723"><ele>436.0</ele><time>2026-04-21T07:14:46.082Z</time></trkpt><trkpt lat="44.4136786" lon="7.9050549"><ele>435.5</ele><time>2026-04-21T07:14:47.076Z</time></trkpt><trkpt lat="44.4136453" lon="7.905438"><ele>435.0</ele><time>2026-04-21T07:14:48.058Z</time></trkpt><trkpt lat="44.4136077" lon="7.9058162"><ele>431.0</ele><time>2026-04-21T07:14:49.066Z</time></trkpt><trkpt lat="44.4135492" lon="7.9061886"><ele>427.0</ele><time>2026-04-21T07:14:50.068Z</time></trkpt><trkpt lat="44.4134665" lon="7.9065568"><ele>424.0</ele><time>2026-04-21T07:14:51.068Z</time></trkpt><trkpt lat="44.4133595" lon="7.906915"><ele>421.0</ele><time>2026-04-21T07:14:52.065Z</time></trkpt><trkpt lat="44.4132341" lon="7.9072611"><ele>419.5</ele><time>2026-04-21T07:14:53.066Z</time></trkpt><trkpt lat="44.4130913" lon="7.9075997"><ele>418.0</ele><time>2026-04-21T07:14:54.053Z</time></trkpt><trkpt lat="44.412942" lon="7.9079298"><ele>420.0</ele><time>2026-04-21T07:14:55.069Z</time></trkpt><trkpt lat="44.4127797" lon="7.9082427"><ele>422.0</ele><time>2026-04-21T07:14:56.057Z</time></trkpt><trkpt lat="44.4126067" lon="7.908541"><ele>422.0</ele><time>2026-04-21T07:14:57.07Z</time></trkpt><trkpt lat="44.4124268" lon="7.9088324"><ele>422.0</ele><time>2026-04-21T07:14:58.066Z</time></trkpt><trkpt lat="44.412251" lon="7.9091262"><ele>421.0</ele><time>2026-04-21T07:14:59.066Z</time></trkpt><trkpt lat="44.4120778" lon="7.9094233"><ele>420.0</ele><time>2026-04-21T07:15:00.069Z</time></trkpt><trkpt lat="44.4119075" lon="7.9097271"><ele>420.0</ele><time>2026-04-21T07:15:01.075Z</time></trkpt><trkpt lat="44.4117364" lon="7.910033"><ele>420.0</ele><time>2026-04-21T07:15:02.076Z</time></trkpt><trkpt lat="44.4115668" lon="7.9103433"><ele>416.5</ele><time>2026-04-21T07:15:03.077Z</time></trkpt><trkpt lat="44.411393" lon="7.9106526"><ele>413.0</ele><time>2026-04-21T07:15:04.068Z</time></trkpt><trkpt lat="44.4112188" lon="7.91096"><ele>411.0</ele><time>2026-04-21T07:15:05.062Z</time></trkpt><trkpt lat="44.4110413" lon="7.9112664"><ele>409.0</ele><time>2026-04-21T07:15:06.064Z</time></trkpt><trkpt lat="44.4108622" lon="7.9115754"><ele>404.5</ele><time>2026-04-21T07:15:07.064Z</time></trkpt><trkpt lat="44.4106792" lon="7.9118807"><ele>400.0</ele><time>2026-04-21T07:15:08.068Z</time></trkpt><trkpt lat="44.4104977" lon="7.9121885"><ele>399.5</ele><time>2026-04-21T07:15:09.069Z</time></trkpt><trkpt lat="44.4103177" lon="7.9124994"><ele>399.0</ele><time>2026-04-21T07:15:10.081Z</time></trkpt><trkpt lat="44.4101401" lon="7.9128123"><ele>399.0</ele><time>2026-04-21T07:15:11.07Z</time></trkpt><trkpt lat="44.4099642" lon="7.913129"><ele>399.0</ele><time>2026-04-21T07:15:12.082Z</time></trkpt><trkpt lat="44.4097894" lon="7.9134454"><ele>397.5</ele><time>2026-04-21T07:15:13.068Z</time></trkpt><trkpt lat="44.4096155" lon="7.9137615"><ele>396.0</ele><time>2026-04-21T07:15:14.065Z</time></trkpt><trkpt lat="44.4094383" lon="7.9140745"><ele>403.5</ele><time>2026-04-21T07:15:15.074Z</time></trkpt><trkpt lat="44.4092615" lon="7.9143858"><ele>411.0</ele><time>2026-04-21T07:15:16.078Z</time></trkpt><trkpt lat="44.4090818" lon="7.9146922"><ele>411.0</ele><time>2026-04-21T07:15:17.079Z</time></trkpt><trkpt lat="44.4089056" lon="7.9150004"><ele>411.0</ele><time>2026-04-21T07:15:18.066Z</time></trkpt><trkpt lat="44.4087318" lon="7.9153067"><ele>414.0</ele><time>2026-04-21T07:15:19.078Z</time></trkpt><trkpt lat="44.4085595" lon="7.9156135"><ele>417.0</ele><time>2026-04-21T07:15:20.066Z</time></trkpt><trkpt lat="44.4083879" lon="7.9159232"><ele>417.0</ele><time>2026-04-21T07:15:21.07Z</time></trkpt><trkpt lat="44.4082146" lon="7.9162326"><ele>417.0</ele><time>2026-04-21T07:15:22.06Z</time></trkpt><trkpt lat="44.4080406" lon="7.916545"><ele>418.5</ele><time>2026-04-21T07:15:23.078Z</time></trkpt><trkpt lat="44.4078669" lon="7.9168621"><ele>420.0</ele><time>2026-04-21T07:15:24.073Z</time></trkpt><trkpt lat="44.4076926" lon="7.9171843"><ele>420.0</ele><time>2026-04-21T07:15:25.063Z</time></trkpt><trkpt lat="44.4075171" lon="7.9175111"><ele>420.0</ele><time>2026-04-21T07:15:26.067Z</time></trkpt><trkpt lat="44.4073402" lon="7.9178356"><ele>420.0</ele><time>2026-04-21T07:15:27.072Z</time></trkpt><trkpt lat="44.4071611" lon="7.9181586"><ele>420.0</ele><time>2026-04-21T07:15:28.071Z</time></trkpt><trkpt lat="44.4069766" lon="7.9184782"><ele>420.0</ele><time>2026-04-21T07:15:29.084Z</time></trkpt><trkpt lat="44.4067891" lon="7.9187929"><ele>420.0</ele><time>2026-04-21T07:15:30.072Z</time></trkpt><trkpt lat="44.4066025" lon="7.9191085"><ele>419.0</ele><time>2026-04-21T07:15:31.065Z</time></trkpt><trkpt lat="44.4064166" lon="7.9194219"><ele>418.0</ele><time>2026-04-21T07:15:32.07Z</time></trkpt><trkpt lat="44.4062339" lon="7.9197401"><ele>418.5</ele><time>2026-04-21T07:15:33.072Z</time></trkpt><trkpt lat="44.4060559" lon="7.9200618"><ele>419.0</ele><time>2026-04-21T07:15:34.082Z</time></trkpt><trkpt lat="44.4058779" lon="7.9203829"><ele>419.0</ele><time>2026-04-21T07:15:35.068Z</time></trkpt><trkpt lat="44.4056997" lon="7.9207046"><ele>419.0</ele><time>2026-04-21T07:15:36.071Z</time></trkpt><trkpt lat="44.4055236" lon="7.9210256"><ele>421.0</ele><time>2026-04-21T07:15:37.074Z</time></trkpt><trkpt lat="44.4053544" lon="7.921351"><ele>423.0</ele><time>2026-04-21T07:15:38.075Z</time></trkpt><trkpt lat="44.4051877" lon="7.9216806"><ele>420.0</ele><time>2026-04-21T07:15:39.062Z</time></trkpt><trkpt lat="44.4050221" lon="7.922006"><ele>417.0</ele><time>2026-04-21T07:15:40.07Z</time></trkpt><trkpt lat="44.4048549" lon="7.9223265"><ele>419.0</ele><time>2026-04-21T07:15:41.066Z</time></trkpt><trkpt lat="44.4046931" lon="7.9226526"><ele>421.0</ele><time>2026-04-21T07:15:42.071Z</time></trkpt><trkpt lat="44.4045423" lon="7.9229876"><ele>421.0</ele><time>2026-04-21T07:15:43.066Z</time></trkpt><trkpt lat="44.4044033" lon="7.9233363"><ele>421.0</ele><time>2026-04-21T07:15:44.071Z</time></trkpt><trkpt lat="44.4042749" lon="7.9236887"><ele>419.5</ele><time>2026-04-21T07:15:45.072Z</time></trkpt><trkpt lat="44.4041564" lon="7.9240503"><ele>418.0</ele><time>2026-04-21T07:15:46.079Z</time></trkpt><trkpt lat="44.4040475" lon="7.9244184"><ele>417.5</ele><time>2026-04-21T07:15:47.06Z</time></trkpt><trkpt lat="44.4039434" lon="7.9247885"><ele>417.0</ele><time>2026-04-21T07:15:48.061Z</time></trkpt><trkpt lat="44.4038474" lon="7.925166"><ele>419.5</ele><time>2026-04-21T07:15:49.064Z</time></trkpt><trkpt lat="44.4037621" lon="7.925542"><ele>422.0</ele><time>2026-04-21T07:15:50.067Z</time></trkpt><trkpt lat="44.4036893" lon="7.9259183"><ele>422.0</ele><time>2026-04-21T07:15:51.069Z</time></trkpt><trkpt lat="44.403624" lon="7.9262955"><ele>422.0</ele><time>2026-04-21T07:15:52.072Z</time></trkpt><trkpt lat="44.4035606" lon="7.9266681"><ele>424.0</ele><time>2026-04-21T07:15:53.075Z</time></trkpt><trkpt lat="44.4035045" lon="7.9270388"><ele>426.0</ele><time>2026-04-21T07:15:54.079Z</time></trkpt><trkpt lat="44.4034566" lon="7.927408"><ele>427.5</ele><time>2026-04-21T07:15:55.061Z</time></trkpt><trkpt lat="44.4034222" lon="7.9277833"><ele>429.0</ele><time>2026-04-21T07:15:56.077Z</time></trkpt><trkpt lat="44.4034012" lon="7.9281581"><ele>428.5</ele><time>2026-04-21T07:15:57.086Z</time></trkpt><trkpt lat="44.4033921" lon="7.9285287"><ele>428.0</ele><time>2026-04-21T07:15:58.064Z</time></trkpt><trkpt lat="44.4033898" lon="7.9288969"><ele>429.0</ele><time>2026-04-21T07:15:59.065Z</time></trkpt><trkpt lat="44.403394" lon="7.9292687"><ele>430.0</ele><time>2026-04-21T07:16:00.072Z</time></trkpt><trkpt lat="44.4034118" lon="7.9296449"><ele>430.0</ele><time>2026-04-21T07:16:01.077Z</time></trkpt><trkpt lat="44.4034374" lon="7.9300207"><ele>430.0</ele><time>2026-04-21T07:16:02.059Z</time></trkpt><trkpt lat="44.4034685" lon="7.9303974"><ele>430.0</ele><time>2026-04-21T07:16:03.084Z</time></trkpt><trkpt lat="44.4035091" lon="7.9307714"><ele>430.0</ele><time>2026-04-21T07:16:04.071Z</time></trkpt><trkpt lat="44.4035607" lon="7.9311428"><ele>430.0</ele><time>2026-04-21T07:16:05.067Z</time></trkpt><trkpt lat="44.4036265" lon="7.9315131"><ele>430.0</ele><time>2026-04-21T07:16:06.077Z</time></trkpt><trkpt lat="44.403699" lon="7.9318821"><ele>428.0</ele><time>2026-04-21T07:16:07.065Z</time></trkpt><trkpt lat="44.4037781" lon="7.9322539"><ele>426.0</ele><time>2026-04-21T07:16:08.067Z</time></trkpt><trkpt lat="44.4038653" lon="7.932614"><ele>424.0</ele><time>2026-04-21T07:16:09.057Z</time></trkpt><trkpt lat="44.4039659" lon="7.9329634"><ele>422.0</ele><time>2026-04-21T07:16:10.071Z</time></trkpt><trkpt lat="44.4040746" lon="7.933302"><ele>423.0</ele><time>2026-04-21T07:16:11.08Z</time></trkpt><trkpt lat="44.404182" lon="7.9336422"><ele>424.0</ele><time>2026-04-21T07:16:12.07Z</time></trkpt><trkpt lat="44.4042909" lon="7.9339774"><ele>423.5</ele><time>2026-04-21T07:16:13.067Z</time></trkpt><trkpt lat="44.4043953" lon="7.9343153"><ele>423.0</ele><time>2026-04-21T07:16:14.067Z</time></trkpt><trkpt lat="44.4044963" lon="7.9346556"><ele>423.0</ele><time>2026-04-21T07:16:15.08Z</time></trkpt><trkpt lat="44.4045981" lon="7.9350015"><ele>423.0</ele><time>2026-04-21T07:16:16.072Z</time></trkpt><trkpt lat="44.4046974" lon="7.9353495"><ele>422.5</ele><time>2026-04-21T07:16:17.07Z</time></trkpt><trkpt lat="44.4048004" lon="7.9357002"><ele>422.0</ele><time>2026-04-21T07:16:18.069Z</time></trkpt><trkpt lat="44.404905" lon="7.9360524"><ele>422.0</ele><time>2026-04-21T07:16:19.067Z</time></trkpt><trkpt lat="44.4050082" lon="7.9364017"><ele>422.0</ele><time>2026-04-21T07:16:20.074Z</time></trkpt><trkpt lat="44.4051141" lon="7.9367509"><ele>421.0</ele><time>2026-04-21T07:16:21.072Z</time></trkpt><trkpt lat="44.4052221" lon="7.9371"><ele>420.0</ele><time>2026-04-21T07:16:22.085Z</time></trkpt><trkpt lat="44.4053288" lon="7.9374481"><ele>419.5</ele><time>2026-04-21T07:16:23.059Z</time></trkpt><trkpt lat="44.4054331" lon="7.937794"><ele>419.0</ele><time>2026-04-21T07:16:24.071Z</time></trkpt><trkpt lat="44.4055368" lon="7.9381389"><ele>419.0</ele><time>2026-04-21T07:16:25.063Z</time></trkpt><trkpt lat="44.4056419" lon="7.9384816"><ele>419.0</ele><time>2026-04-21T07:16:26.079Z</time></trkpt><trkpt lat="44.405748" lon="7.9388254"><ele>419.0</ele><time>2026-04-21T07:16:27.087Z</time></trkpt><trkpt lat="44.4058532" lon="7.9391705"><ele>419.0</ele><time>2026-04-21T07:16:28.081Z</time></trkpt><trkpt lat="44.4059611" lon="7.9395158"><ele>419.0</ele><time>2026-04-21T07:16:29.066Z</time></trkpt><trkpt lat="44.406067" lon="7.9398622"><ele>419.0</ele><time>2026-04-21T07:16:30.069Z</time></trkpt><trkpt lat="44.4061709" lon="7.9402129"><ele>419.0</ele><time>2026-04-21T07:16:31.066Z</time></trkpt><trkpt lat="44.4062742" lon="7.9405636"><ele>419.0</ele><time>2026-04-21T07:16:32.062Z</time></trkpt><trkpt lat="44.4063801" lon="7.9409145"><ele>419.0</ele><time>2026-04-21T07:16:33.089Z</time></trkpt><trkpt lat="44.4064871" lon="7.9412627"><ele>419.0</ele><time>2026-04-21T07:16:34.081Z</time></trkpt><trkpt lat="44.4065925" lon="7.9416093"><ele>418.5</ele><time>2026-04-21T07:16:35.075Z</time></trkpt><trkpt lat="44.4066986" lon="7.9419582"><ele>418.0</ele><time>2026-04-21T07:16:36.062Z</time></trkpt><trkpt lat="44.4068065" lon="7.9423084"><ele>418.5</ele><time>2026-04-21T07:16:37.067Z</time></trkpt><trkpt lat="44.4069157" lon="7.9426586"><ele>419.0</ele><time>2026-04-21T07:16:38.067Z</time></trkpt><trkpt lat="44.4070223" lon="7.9430093"><ele>419.0</ele><time>2026-04-21T07:16:39.069Z</time></trkpt><trkpt lat="44.4071277" lon="7.9433608"><ele>419.0</ele><time>2026-04-21T07:16:40.078Z</time></trkpt><trkpt lat="44.4072342" lon="7.9437106"><ele>417.0</ele><time>2026-04-21T07:16:41.071Z</time></trkpt><trkpt lat="44.4073359" lon="7.9440585"><ele>415.0</ele><time>2026-04-21T07:16:42.074Z</time></trkpt><trkpt lat="44.4074386" lon="7.9444056"><ele>414.5</ele><time>2026-04-21T07:16:43.084Z</time></trkpt><trkpt lat="44.4075457" lon="7.9447546"><ele>414.0</ele><time>2026-04-21T07:16:44.077Z</time></trkpt><trkpt lat="44.4076528" lon="7.9451036"><ele>413.0</ele><time>2026-04-21T07:16:45.082Z</time></trkpt><trkpt lat="44.407762" lon="7.9454556"><ele>412.0</ele><time>2026-04-21T07:16:46.071Z</time></trkpt><trkpt lat="44.4078725" lon="7.9458101"><ele>410.5</ele><time>2026-04-21T07:16:47.072Z</time></trkpt><trkpt lat="44.4079823" lon="7.9461667"><ele>409.0</ele><time>2026-04-21T07:16:48.073Z</time></trkpt><trkpt lat="44.4080929" lon="7.9465216"><ele>406.5</ele><time>2026-04-21T07:16:49.073Z</time></trkpt><trkpt lat="44.4082057" lon="7.946875"><ele>404.0</ele><time>2026-04-21T07:16:50.083Z</time></trkpt><trkpt lat="44.4083165" lon="7.9472277"><ele>400.5</ele><time>2026-04-21T07:16:51.072Z</time></trkpt><trkpt lat="44.4084257" lon="7.9475783"><ele>397.0</ele><time>2026-04-21T07:16:52.074Z</time></trkpt><trkpt lat="44.4085338" lon="7.9479313"><ele>397.0</ele><time>2026-04-21T07:16:53.068Z</time></trkpt><trkpt lat="44.4086405" lon="7.9482865"><ele>397.0</ele><time>2026-04-21T07:16:54.071Z</time></trkpt><trkpt lat="44.4087457" lon="7.9486399"><ele>397.0</ele><time>2026-04-21T07:16:55.071Z</time></trkpt><trkpt lat="44.4088526" lon="7.948995"><ele>397.0</ele><time>2026-04-21T07:16:56.072Z</time></trkpt><trkpt lat="44.4089619" lon="7.9493487"><ele>397.0</ele><time>2026-04-21T07:16:57.076Z</time></trkpt><trkpt lat="44.4090708" lon="7.9496991"><ele>397.0</ele><time>2026-04-21T07:16:58.074Z</time></trkpt><trkpt lat="44.4091801" lon="7.9500475"><ele>393.0</ele><time>2026-04-21T07:16:59.081Z</time></trkpt><trkpt lat="44.4092855" lon="7.9503905"><ele>389.0</ele><time>2026-04-21T07:17:00.064Z</time></trkpt><trkpt lat="44.4093894" lon="7.9507314"><ele>386.0</ele><time>2026-04-21T07:17:01.073Z</time></trkpt><trkpt lat="44.4094902" lon="7.951068"><ele>383.0</ele><time>2026-04-21T07:17:02.069Z</time></trkpt><trkpt lat="44.4095921" lon="7.9514005"><ele>386.5</ele><time>2026-04-21T07:17:03.065Z</time></trkpt><trkpt lat="44.4096935" lon="7.9517313"><ele>390.0</ele><time>2026-04-21T07:17:04.065Z</time></trkpt><trkpt lat="44.4097946" lon="7.952063"><ele>390.0</ele><time>2026-04-21T07:17:05.07Z</time></trkpt><trkpt lat="44.4098941" lon="7.9523962"><ele>390.0</ele><time>2026-04-21T07:17:06.065Z</time></trkpt><trkpt lat="44.409993" lon="7.9527324"><ele>389.0</ele><time>2026-04-21T07:17:07.084Z</time></trkpt><trkpt lat="44.4100915" lon="7.9530697"><ele>388.0</ele><time>2026-04-21T07:17:08.077Z</time></trkpt><trkpt lat="44.4101936" lon="7.9534068"><ele>382.0</ele><time>2026-04-21T07:17:09.064Z</time></trkpt><trkpt lat="44.4102969" lon="7.9537406"><ele>376.0</ele><time>2026-04-21T07:17:10.065Z</time></trkpt><trkpt lat="44.4104003" lon="7.9540741"><ele>361.0</ele><time>2026-04-21T07:17:11.064Z</time></trkpt><trkpt lat="44.4105044" lon="7.9544073"><ele>346.0</ele><time>2026-04-21T07:17:12.083Z</time></trkpt><trkpt lat="44.4106076" lon="7.9547397"><ele>347.0</ele><time>2026-04-21T07:17:13.071Z</time></trkpt><trkpt lat="44.4107104" lon="7.9550738"><ele>348.0</ele><time>2026-04-21T07:17:14.071Z</time></trkpt><trkpt lat="44.4108107" lon="7.955407"><ele>348.0</ele><time>2026-04-21T07:17:15.06Z</time></trkpt><trkpt lat="44.4109099" lon="7.9557412"><ele>348.0</ele><time>2026-04-21T07:17:16.07Z</time></trkpt><trkpt lat="44.4110083" lon="7.9560745"><ele>350.5</ele><time>2026-04-21T07:17:17.079Z</time></trkpt><trkpt lat="44.4111066" lon="7.9564092"><ele>353.0</ele><time>2026-04-21T07:17:18.066Z</time></trkpt><trkpt lat="44.4112009" lon="7.9567485"><ele>353.5</ele><time>2026-04-21T07:17:19.065Z</time></trkpt><trkpt lat="44.4112856" lon="7.9570905"><ele>354.0</ele><time>2026-04-21T07:17:20.067Z</time></trkpt><trkpt lat="44.4113619" lon="7.9574366"><ele>368.0</ele><time>2026-04-21T07:17:21.071Z</time></trkpt><trkpt lat="44.4114282" lon="7.9577884"><ele>382.0</ele><time>2026-04-21T07:17:22.073Z</time></trkpt><trkpt lat="44.4114836" lon="7.9581438"><ele>384.0</ele><time>2026-04-21T07:17:23.076Z</time></trkpt><trkpt lat="44.4115295" lon="7.9585031"><ele>386.0</ele><time>2026-04-21T07:17:24.072Z</time></trkpt><trkpt lat="44.4115689" lon="7.9588707"><ele>386.5</ele><time>2026-04-21T07:17:25.067Z</time></trkpt><trkpt lat="44.4116006" lon="7.9592421"><ele>387.0</ele><time>2026-04-21T07:17:26.071Z</time></trkpt><trkpt lat="44.4116265" lon="7.9596192"><ele>387.0</ele><time>2026-04-21T07:17:27.07Z</time></trkpt><trkpt lat="44.4116407" lon="7.9599986"><ele>387.0</ele><time>2026-04-21T07:17:28.066Z</time></trkpt><trkpt lat="44.4116389" lon="7.9603749"><ele>386.0</ele><time>2026-04-21T07:17:29.06Z</time></trkpt><trkpt lat="44.4116227" lon="7.9607487"><ele>385.0</ele><time>2026-04-21T07:17:30.083Z</time></trkpt><trkpt lat="44.4115968" lon="7.9611208"><ele>381.0</ele><time>2026-04-21T07:17:31.061Z</time></trkpt><trkpt lat="44.411563" lon="7.961492"><ele>377.0</ele><time>2026-04-21T07:17:32.066Z</time></trkpt><trkpt lat="44.4115215" lon="7.9618551"><ele>374.0</ele><time>2026-04-21T07:17:33.07Z</time></trkpt><trkpt lat="44.4114728" lon="7.9622144"><ele>371.0</ele><time>2026-04-21T07:17:34.055Z</time></trkpt><trkpt lat="44.4114077" lon="7.962568"><ele>371.0</ele><time>2026-04-21T07:17:35.082Z</time></trkpt><trkpt lat="44.4113327" lon="7.9629168"><ele>371.0</ele><time>2026-04-21T07:17:36.079Z</time></trkpt><trkpt lat="44.4112492" lon="7.9632624"><ele>377.5</ele><time>2026-04-21T07:17:37.061Z</time></trkpt><trkpt lat="44.4111563" lon="7.9636044"><ele>384.0</ele><time>2026-04-21T07:17:38.07Z</time></trkpt><trkpt lat="44.4110515" lon="7.9639384"><ele>389.0</ele><time>2026-04-21T07:17:39.065Z</time></trkpt><trkpt lat="44.4109493" lon="7.9642668"><ele>394.0</ele><time>2026-04-21T07:17:40.076Z</time></trkpt><trkpt lat="44.4108351" lon="7.9645827"><ele>394.0</ele><time>2026-04-21T07:17:41.069Z</time></trkpt><trkpt lat="44.4107208" lon="7.9648917"><ele>394.0</ele><time>2026-04-21T07:17:42.058Z</time></trkpt><trkpt lat="44.410598" lon="7.9651902"><ele>395.5</ele><time>2026-04-21T07:17:43.074Z</time></trkpt><trkpt lat="44.4104709" lon="7.9654891"><ele>397.0</ele><time>2026-04-21T07:17:44.06Z</time></trkpt><trkpt lat="44.4103311" lon="7.965783"><ele>397.5</ele><time>2026-04-21T07:17:45.086Z</time></trkpt><trkpt lat="44.4101832" lon="7.9660727"><ele>398.0</ele><time>2026-04-21T07:17:46.066Z</time></trkpt><trkpt lat="44.4100286" lon="7.9663527"><ele>398.0</ele><time>2026-04-21T07:17:47.073Z</time></trkpt><trkpt lat="44.4098663" lon="7.9666312"><ele>398.0</ele><time>2026-04-21T07:17:48.07Z</time></trkpt><trkpt lat="44.4096992" lon="7.9669082"><ele>398.5</ele><time>2026-04-21T07:17:49.085Z</time></trkpt><trkpt lat="44.4095157" lon="7.9671777"><ele>399.0</ele><time>2026-04-21T07:17:50.062Z</time></trkpt><trkpt lat="44.4093217" lon="7.967437"><ele>399.5</ele><time>2026-04-21T07:17:51.086Z</time></trkpt><trkpt lat="44.4091214" lon="7.9676859"><ele>400.0</ele><time>2026-04-21T07:17:52.068Z</time></trkpt><trkpt lat="44.4089079" lon="7.9679224"><ele>399.5</ele><time>2026-04-21T07:17:53.07Z</time></trkpt><trkpt lat="44.4086932" lon="7.9681478"><ele>399.0</ele><time>2026-04-21T07:17:54.07Z</time></trkpt><trkpt lat="44.4084796" lon="7.9683601"><ele>399.0</ele><time>2026-04-21T07:17:55.081Z</time></trkpt><trkpt lat="44.4082598" lon="7.9685642"><ele>399.0</ele><time>2026-04-21T07:17:56.071Z</time></trkpt><trkpt lat="44.4080279" lon="7.9687567"><ele>400.0</ele><time>2026-04-21T07:17:57.063Z</time></trkpt><trkpt lat="44.4077879" lon="7.9689354"><ele>401.0</ele><time>2026-04-21T07:17:58.068Z</time></trkpt><trkpt lat="44.4075475" lon="7.9691094"><ele>401.0</ele><time>2026-04-21T07:17:59.068Z</time></trkpt><trkpt lat="44.4073088" lon="7.9692896"><ele>401.0</ele><time>2026-04-21T07:18:00.071Z</time></trkpt><trkpt lat="44.4070743" lon="7.9694715"><ele>403.5</ele><time>2026-04-21T07:18:01.076Z</time></trkpt><trkpt lat="44.4068444" lon="7.9696618"><ele>406.0</ele><time>2026-04-21T07:18:02.076Z</time></trkpt><trkpt lat="44.4066144" lon="7.9698473"><ele>406.5</ele><time>2026-04-21T07:18:03.072Z</time></trkpt><trkpt lat="44.4063848" lon="7.9700314"><ele>407.0</ele><time>2026-04-21T07:18:04.085Z</time></trkpt><trkpt lat="44.4061551" lon="7.9702149"><ele>407.0</ele><time>2026-04-21T07:18:05.07Z</time></trkpt><trkpt lat="44.4059268" lon="7.9703982"><ele>407.0</ele><time>2026-04-21T07:18:06.069Z</time></trkpt><trkpt lat="44.4056972" lon="7.970584"><ele>408.0</ele><time>2026-04-21T07:18:07.064Z</time></trkpt><trkpt lat="44.4054683" lon="7.9707691"><ele>409.0</ele><time>2026-04-21T07:18:08.073Z</time></trkpt><trkpt lat="44.4052396" lon="7.970952"><ele>409.5</ele><time>2026-04-21T07:18:09.06Z</time></trkpt><trkpt lat="44.4050128" lon="7.9711331"><ele>410.0</ele><time>2026-04-21T07:18:10.06Z</time></trkpt><trkpt lat="44.4047856" lon="7.9713102"><ele>410.5</ele><time>2026-04-21T07:18:11.082Z</time></trkpt><trkpt lat="44.4045596" lon="7.9714878"><ele>411.0</ele><time>2026-04-21T07:18:12.064Z</time></trkpt><trkpt lat="44.4043345" lon="7.9716667"><ele>411.0</ele><time>2026-04-21T07:18:13.084Z</time></trkpt><trkpt lat="44.4041099" lon="7.9718474"><ele>411.0</ele><time>2026-04-21T07:18:14.06Z</time></trkpt><trkpt lat="44.4038848" lon="7.9720305"><ele>412.0</ele><time>2026-04-21T07:18:15.072Z</time></trkpt><trkpt lat="44.4036589" lon="7.9722103"><ele>413.0</ele><time>2026-04-21T07:18:16.09Z</time></trkpt><trkpt lat="44.4034341" lon="7.9723896"><ele>413.0</ele><time>2026-04-21T07:18:17.064Z</time></trkpt><trkpt lat="44.4032112" lon="7.9725671"><ele>413.0</ele><time>2026-04-21T07:18:18.067Z</time></trkpt><trkpt lat="44.4029882" lon="7.9727447"><ele>414.0</ele><time>2026-04-21T07:18:19.067Z</time></trkpt><trkpt lat="44.4027641" lon="7.9729207"><ele>415.0</ele><time>2026-04-21T07:18:20.087Z</time></trkpt><trkpt lat="44.4025394" lon="7.9731004"><ele>415.0</ele><time>2026-04-21T07:18:21.075Z</time></trkpt><trkpt lat="44.4023138" lon="7.9732827"><ele>415.0</ele><time>2026-04-21T07:18:22.077Z</time></trkpt><trkpt lat="44.4020895" lon="7.9734649"><ele>415.5</ele><time>2026-04-21T07:18:23.085Z</time></trkpt><trkpt lat="44.4018651" lon="7.9736471"><ele>416.0</ele><time>2026-04-21T07:18:24.083Z</time></trkpt><trkpt lat="44.4016397" lon="7.9738275"><ele>416.0</ele><time>2026-04-21T07:18:25.073Z</time></trkpt><trkpt lat="44.4014141" lon="7.9740099"><ele>416.0</ele><time>2026-04-21T07:18:26.059Z</time></trkpt><trkpt lat="44.4011861" lon="7.9741909"><ele>419.0</ele><time>2026-04-21T07:18:27.072Z</time></trkpt><trkpt lat="44.4009588" lon="7.9743704"><ele>422.0</ele><time>2026-04-21T07:18:28.079Z</time></trkpt><trkpt lat="44.4007311" lon="7.9745494"><ele>422.0</ele><time>2026-04-21T07:18:29.064Z</time></trkpt><trkpt lat="44.4005078" lon="7.9747281"><ele>422.0</ele><time>2026-04-21T07:18:30.084Z</time></trkpt><trkpt lat="44.400287" lon="7.9749077"><ele>425.0</ele><time>2026-04-21T07:18:31.081Z</time></trkpt><trkpt lat="44.400068" lon="7.9750891"><ele>428.0</ele><time>2026-04-21T07:18:32.075Z</time></trkpt><trkpt lat="44.3998499" lon="7.9752697"><ele>430.0</ele><time>2026-04-21T07:18:33.058Z</time></trkpt><trkpt lat="44.3996303" lon="7.9754465"><ele>432.0</ele><time>2026-04-21T07:18:34.076Z</time></trkpt><trkpt lat="44.3994112" lon="7.9756215"><ele>432.0</ele><time>2026-04-21T07:18:35.065Z</time></trkpt><trkpt lat="44.3991947" lon="7.9757969"><ele>432.0</ele><time>2026-04-21T07:18:36.067Z</time></trkpt><trkpt lat="44.3989803" lon="7.975976"><ele>433.0</ele><time>2026-04-21T07:18:37.068Z</time></trkpt><trkpt lat="44.3987683" lon="7.9761659"><ele>434.0</ele><time>2026-04-21T07:18:38.073Z</time></trkpt><trkpt lat="44.3985644" lon="7.9763712"><ele>434.0</ele><time>2026-04-21T07:18:39.077Z</time></trkpt><trkpt lat="44.3983693" lon="7.9765966"><ele>434.0</ele><time>2026-04-21T07:18:40.068Z</time></trkpt><trkpt lat="44.3981833" lon="7.9768398"><ele>434.0</ele><time>2026-04-21T07:18:41.088Z</time></trkpt><trkpt lat="44.3980085" lon="7.9771064"><ele>434.0</ele><time>2026-04-21T07:18:42.065Z</time></trkpt><trkpt lat="44.3978398" lon="7.9773918"><ele>433.0</ele><time>2026-04-21T07:18:43.072Z</time></trkpt><trkpt lat="44.3976819" lon="7.977688"><ele>432.0</ele><time>2026-04-21T07:18:44.072Z</time></trkpt><trkpt lat="44.3975343" lon="7.9779955"><ele>432.0</ele><time>2026-04-21T07:18:45.07Z</time></trkpt><trkpt lat="44.3973945" lon="7.9783032"><ele>432.0</ele><time>2026-04-21T07:18:46.08Z</time></trkpt><trkpt lat="44.3972798" lon="7.9786289"><ele>434.0</ele><time>2026-04-21T07:18:47.061Z</time></trkpt><trkpt lat="44.3971644" lon="7.9789584"><ele>436.0</ele><time>2026-04-21T07:18:48.065Z</time></trkpt><trkpt lat="44.397057" lon="7.9792946"><ele>436.0</ele><time>2026-04-21T07:18:49.068Z</time></trkpt><trkpt lat="44.3969506" lon="7.9796342"><ele>436.0</ele><time>2026-04-21T07:18:50.067Z</time></trkpt><trkpt lat="44.3968421" lon="7.9799722"><ele>434.5</ele><time>2026-04-21T07:18:51.07Z</time></trkpt><trkpt lat="44.3967287" lon="7.9803101"><ele>433.0</ele><time>2026-04-21T07:18:52.073Z</time></trkpt><trkpt lat="44.3966193" lon="7.980654"><ele>431.0</ele><time>2026-04-21T07:18:53.066Z</time></trkpt><trkpt lat="44.3965082" lon="7.9810024"><ele>429.0</ele><time>2026-04-21T07:18:54.069Z</time></trkpt><trkpt lat="44.3963931" lon="7.9813434"><ele>430.0</ele><time>2026-04-21T07:18:55.08Z</time></trkpt><trkpt lat="44.3962769" lon="7.9816808"><ele>431.0</ele><time>2026-04-21T07:18:56.071Z</time></trkpt><trkpt lat="44.3961654" lon="7.9820213"><ele>431.0</ele><time>2026-04-21T07:18:57.085Z</time></trkpt><trkpt lat="44.3960482" lon="7.9823598"><ele>431.0</ele><time>2026-04-21T07:18:58.073Z</time></trkpt><trkpt lat="44.3959291" lon="7.9826939"><ele>429.5</ele><time>2026-04-21T07:18:59.068Z</time></trkpt><trkpt lat="44.3958139" lon="7.9830326"><ele>428.0</ele><time>2026-04-21T07:19:00.079Z</time></trkpt><trkpt lat="44.3957092" lon="7.9833717"><ele>427.0</ele><time>2026-04-21T07:19:01.059Z</time></trkpt><trkpt lat="44.3956006" lon="7.9837083"><ele>426.0</ele><time>2026-04-21T07:19:02.058Z</time></trkpt><trkpt lat="44.3954889" lon="7.9840489"><ele>429.0</ele><time>2026-04-21T07:19:03.074Z</time></trkpt><trkpt lat="44.3953801" lon="7.9843922"><ele>432.0</ele><time>2026-04-21T07:19:04.062Z</time></trkpt><trkpt lat="44.3952687" lon="7.9847368"><ele>431.0</ele><time>2026-04-21T07:19:05.072Z</time></trkpt><trkpt lat="44.3951543" lon="7.9850818"><ele>430.0</ele><time>2026-04-21T07:19:06.077Z</time></trkpt><trkpt lat="44.3950392" lon="7.9854253"><ele>430.0</ele><time>2026-04-21T07:19:07.069Z</time></trkpt><trkpt lat="44.3949253" lon="7.9857734"><ele>430.0</ele><time>2026-04-21T07:19:08.08Z</time></trkpt><trkpt lat="44.3948106" lon="7.9861231"><ele>430.5</ele><time>2026-04-21T07:19:09.068Z</time></trkpt><trkpt lat="44.3946956" lon="7.9864751"><ele>431.0</ele><time>2026-04-21T07:19:10.064Z</time></trkpt><trkpt lat="44.3945788" lon="7.9868252"><ele>432.5</ele><time>2026-04-21T07:19:11.072Z</time></trkpt><trkpt lat="44.3944621" lon="7.9871751"><ele>434.0</ele><time>2026-04-21T07:19:12.069Z</time></trkpt><trkpt lat="44.3943442" lon="7.9875238"><ele>430.5</ele><time>2026-04-21T07:19:13.074Z</time></trkpt><trkpt lat="44.3942262" lon="7.9878749"><ele>427.0</ele><time>2026-04-21T07:19:14.078Z</time></trkpt><trkpt lat="44.3941068" lon="7.9882276"><ele>425.0</ele><time>2026-04-21T07:19:15.07Z</time></trkpt><trkpt lat="44.3939871" lon="7.9885812"><ele>423.0</ele><time>2026-04-21T07:19:16.078Z</time></trkpt><trkpt lat="44.3938695" lon="7.9889387"><ele>425.5</ele><time>2026-04-21T07:19:17.066Z</time></trkpt><trkpt lat="44.3937505" lon="7.9892948"><ele>428.0</ele><time>2026-04-21T07:19:18.081Z</time></trkpt><trkpt lat="44.3936311" lon="7.9896527"><ele>426.0</ele><time>2026-04-21T07:19:19.072Z</time></trkpt><trkpt lat="44.3935152" lon="7.9900119"><ele>424.0</ele><time>2026-04-21T07:19:20.078Z</time></trkpt><trkpt lat="44.3933984" lon="7.9903712"><ele>424.0</ele><time>2026-04-21T07:19:21.068Z</time></trkpt><trkpt lat="44.3932784" lon="7.9907271"><ele>424.0</ele><time>2026-04-21T07:19:22.07Z</time></trkpt><trkpt lat="44.3931588" lon="7.99108"><ele>423.0</ele><time>2026-04-21T07:19:23.071Z</time></trkpt><trkpt lat="44.393044" lon="7.9914376"><ele>422.0</ele><time>2026-04-21T07:19:24.067Z</time></trkpt><trkpt lat="44.3929351" lon="7.9918"><ele>422.0</ele><time>2026-04-21T07:19:25.083Z</time></trkpt><trkpt lat="44.3928248" lon="7.9921596"><ele>422.0</ele><time>2026-04-21T07:19:26.074Z</time></trkpt><trkpt lat="44.3927149" lon="7.9925168"><ele>422.5</ele><time>2026-04-21T07:19:27.074Z</time></trkpt><trkpt lat="44.3925998" lon="7.9928678"><ele>423.0</ele><time>2026-04-21T07:19:28.079Z</time></trkpt><trkpt lat="44.3924845" lon="7.9932126"><ele>422.0</ele><time>2026-04-21T07:19:29.073Z</time></trkpt><trkpt lat="44.3923639" lon="7.9935503"><ele>421.0</ele><time>2026-04-21T07:19:30.083Z</time></trkpt><trkpt lat="44.3922398" lon="7.9938827"><ele>422.5</ele><time>2026-04-21T07:19:31.057Z</time></trkpt><trkpt lat="44.3921199" lon="7.9942152"><ele>424.0</ele><time>2026-04-21T07:19:32.067Z</time></trkpt><trkpt lat="44.39201" lon="7.9945443"><ele>424.0</ele><time>2026-04-21T07:19:33.08Z</time></trkpt><trkpt lat="44.3919027" lon="7.9948771"><ele>424.0</ele><time>2026-04-21T07:19:34.063Z</time></trkpt><trkpt lat="44.3917932" lon="7.9952105"><ele>423.5</ele><time>2026-04-21T07:19:35.079Z</time></trkpt><trkpt lat="44.3916878" lon="7.9955437"><ele>423.0</ele><time>2026-04-21T07:19:36.083Z</time></trkpt><trkpt lat="44.3915799" lon="7.9958789"><ele>424.5</ele><time>2026-04-21T07:19:37.086Z</time></trkpt><trkpt lat="44.3914697" lon="7.9962123"><ele>426.0</ele><time>2026-04-21T07:19:38.071Z</time></trkpt><trkpt lat="44.3913599" lon="7.9965451"><ele>428.0</ele><time>2026-04-21T07:19:39.07Z</time></trkpt><trkpt lat="44.3912498" lon="7.9968766"><ele>430.0</ele><time>2026-04-21T07:19:40.069Z</time></trkpt><trkpt lat="44.3911409" lon="7.9972074"><ele>428.0</ele><time>2026-04-21T07:19:41.072Z</time></trkpt><trkpt lat="44.3910356" lon="7.9975427"><ele>426.0</ele><time>2026-04-21T07:19:42.068Z</time></trkpt><trkpt lat="44.390927" lon="7.9978785"><ele>426.0</ele><time>2026-04-21T07:19:43.074Z</time></trkpt><trkpt lat="44.3908161" lon="7.9982115"><ele>426.0</ele><time>2026-04-21T07:19:44.061Z</time></trkpt><trkpt lat="44.3907063" lon="7.9985429"><ele>425.5</ele><time>2026-04-21T07:19:45.061Z</time></trkpt><trkpt lat="44.390598" lon="7.9988756"><ele>425.0</ele><time>2026-04-21T07:19:46.075Z</time></trkpt><trkpt lat="44.3904885" lon="7.9992105"><ele>426.5</ele><time>2026-04-21T07:19:47.077Z</time></trkpt><trkpt lat="44.3903784" lon="7.9995471"><ele>428.0</ele><time>2026-04-21T07:19:48.077Z</time></trkpt><trkpt lat="44.3902686" lon="7.9998811"><ele>428.0</ele><time>2026-04-21T07:19:49.081Z</time></trkpt><trkpt lat="44.3901573" lon="8.0002144"><ele>428.0</ele><time>2026-04-21T07:19:50.072Z</time></trkpt><trkpt lat="44.3900455" lon="8.0005494"><ele>428.0</ele><time>2026-04-21T07:19:51.059Z</time></trkpt><trkpt lat="44.3899314" lon="8.0008851"><ele>428.0</ele><time>2026-04-21T07:19:52.072Z</time></trkpt><trkpt lat="44.3898173" lon="8.0012183"><ele>428.0</ele><time>2026-04-21T07:19:53.075Z</time></trkpt><trkpt lat="44.3897031" lon="8.0015512"><ele>428.0</ele><time>2026-04-21T07:19:54.082Z</time></trkpt><trkpt lat="44.3895917" lon="8.0018814"><ele>428.5</ele><time>2026-04-21T07:19:55.083Z</time></trkpt><trkpt lat="44.3894821" lon="8.0022143"><ele>429.0</ele><time>2026-04-21T07:19:56.069Z</time></trkpt><trkpt lat="44.3893724" lon="8.0025461"><ele>429.0</ele><time>2026-04-21T07:19:57.072Z</time></trkpt><trkpt lat="44.3892602" lon="8.0028792"><ele>429.0</ele><time>2026-04-21T07:19:58.071Z</time></trkpt><trkpt lat="44.3891481" lon="8.0032128"><ele>429.5</ele><time>2026-04-21T07:19:59.058Z</time></trkpt><trkpt lat="44.38904" lon="8.0035468"><ele>430.0</ele><time>2026-04-21T07:20:00.079Z</time></trkpt><trkpt lat="44.3889321" lon="8.0038776"><ele>435.0</ele><time>2026-04-21T07:20:01.062Z</time></trkpt><trkpt lat="44.3888258" lon="8.0042092"><ele>440.0</ele><time>2026-04-21T07:20:02.078Z</time></trkpt><trkpt lat="44.3887202" lon="8.0045383"><ele>440.0</ele><time>2026-04-21T07:20:03.066Z</time></trkpt><trkpt lat="44.3886132" lon="8.0048658"><ele>440.0</ele><time>2026-04-21T07:20:04.064Z</time></trkpt><trkpt lat="44.3885046" lon="8.0051908"><ele>440.5</ele><time>2026-04-21T07:20:05.066Z</time></trkpt><trkpt lat="44.3883958" lon="8.0055169"><ele>441.0</ele><time>2026-04-21T07:20:06.06Z</time></trkpt><trkpt lat="44.3882857" lon="8.0058439"><ele>439.5</ele><time>2026-04-21T07:20:07.071Z</time></trkpt><trkpt lat="44.3881764" lon="8.0061681"><ele>438.0</ele><time>2026-04-21T07:20:08.059Z</time></trkpt><trkpt lat="44.3880634" lon="8.0064855"><ele>441.5</ele><time>2026-04-21T07:20:09.081Z</time></trkpt><trkpt lat="44.3879464" lon="8.006794"><ele>445.0</ele><time>2026-04-21T07:20:10.063Z</time></trkpt><trkpt lat="44.38782" lon="8.0070896"><ele>445.0</ele><time>2026-04-21T07:20:11.066Z</time></trkpt><trkpt lat="44.3876817" lon="8.00737"><ele>445.0</ele><time>2026-04-21T07:20:12.069Z</time></trkpt><trkpt lat="44.3875355" lon="8.0076391"><ele>442.0</ele><time>2026-04-21T07:20:13.083Z</time></trkpt><trkpt lat="44.3873745" lon="8.0078996"><ele>439.0</ele><time>2026-04-21T07:20:14.085Z</time></trkpt><trkpt lat="44.3872019" lon="8.0081447"><ele>441.5</ele><time>2026-04-21T07:20:15.079Z</time></trkpt><trkpt lat="44.3870171" lon="8.0083722"><ele>444.0</ele><time>2026-04-21T07:20:16.07Z</time></trkpt><trkpt lat="44.386825" lon="8.008586"><ele>444.0</ele><time>2026-04-21T07:20:17.061Z</time></trkpt><trkpt lat="44.3866243" lon="8.0087897"><ele>444.0</ele><time>2026-04-21T07:20:18.067Z</time></trkpt><trkpt lat="44.3864222" lon="8.0089946"><ele>443.5</ele><time>2026-04-21T07:20:19.07Z</time></trkpt><trkpt lat="44.3862241" lon="8.009202"><ele>443.0</ele><time>2026-04-21T07:20:20.064Z</time></trkpt><trkpt lat="44.386026" lon="8.0094125"><ele>443.0</ele><time>2026-04-21T07:20:21.07Z</time></trkpt><trkpt lat="44.3858302" lon="8.0096273"><ele>443.0</ele><time>2026-04-21T07:20:22.079Z</time></trkpt><trkpt lat="44.385635" lon="8.0098435"><ele>440.0</ele><time>2026-04-21T07:20:23.073Z</time></trkpt><trkpt lat="44.3854381" lon="8.010061"><ele>437.0</ele><time>2026-04-21T07:20:24.077Z</time></trkpt><trkpt lat="44.385239" lon="8.0102747"><ele>437.0</ele><time>2026-04-21T07:20:25.069Z</time></trkpt><trkpt lat="44.3850407" lon="8.0104868"><ele>437.0</ele><time>2026-04-21T07:20:26.068Z</time></trkpt><trkpt lat="44.3848417" lon="8.0107029"><ele>436.5</ele><time>2026-04-21T07:20:27.066Z</time></trkpt><trkpt lat="44.3846416" lon="8.0109181"><ele>436.0</ele><time>2026-04-21T07:20:28.079Z</time></trkpt><trkpt lat="44.3844382" lon="8.0111347"><ele>436.0</ele><time>2026-04-21T07:20:29.072Z</time></trkpt><trkpt lat="44.3842337" lon="8.0113522"><ele>436.0</ele><time>2026-04-21T07:20:30.084Z</time></trkpt><trkpt lat="44.3840286" lon="8.0115693"><ele>436.5</ele><time>2026-04-21T07:20:31.081Z</time></trkpt><trkpt lat="44.3838215" lon="8.0117853"><ele>437.0</ele><time>2026-04-21T07:20:32.073Z</time></trkpt><trkpt lat="44.3836127" lon="8.0120047"><ele>437.0</ele><time>2026-04-21T07:20:33.072Z</time></trkpt><trkpt lat="44.383402" lon="8.0122293"><ele>437.0</ele><time>2026-04-21T07:20:34.064Z</time></trkpt><trkpt lat="44.3831884" lon="8.012454"><ele>431.0</ele><time>2026-04-21T07:20:35.079Z</time></trkpt><trkpt lat="44.3829746" lon="8.0126789"><ele>425.0</ele><time>2026-04-21T07:20:36.077Z</time></trkpt><trkpt lat="44.3827601" lon="8.0129032"><ele>425.0</ele><time>2026-04-21T07:20:37.084Z</time></trkpt><trkpt lat="44.3825468" lon="8.0131315"><ele>425.0</ele><time>2026-04-21T07:20:38.072Z</time></trkpt><trkpt lat="44.3823336" lon="8.0133587"><ele>422.5</ele><time>2026-04-21T07:20:39.065Z</time></trkpt><trkpt lat="44.3821206" lon="8.0135836"><ele>420.0</ele><time>2026-04-21T07:20:40.068Z</time></trkpt><trkpt lat="44.3819059" lon="8.0138051"><ele>420.0</ele><time>2026-04-21T07:20:41.079Z</time></trkpt><trkpt lat="44.3816907" lon="8.0140222"><ele>420.0</ele><time>2026-04-21T07:20:42.065Z</time></trkpt><trkpt lat="44.3814765" lon="8.0142381"><ele>419.5</ele><time>2026-04-21T07:20:43.084Z</time></trkpt><trkpt lat="44.3812623" lon="8.0144547"><ele>419.0</ele><time>2026-04-21T07:20:44.08Z</time></trkpt><trkpt lat="44.3810497" lon="8.0146734"><ele>419.0</ele><time>2026-04-21T07:20:45.068Z</time></trkpt><trkpt lat="44.3808378" lon="8.0148921"><ele>419.0</ele><time>2026-04-21T07:20:46.071Z</time></trkpt><trkpt lat="44.3806252" lon="8.01511"><ele>419.5</ele><time>2026-04-21T07:20:47.07Z</time></trkpt><trkpt lat="44.3804139" lon="8.0153277"><ele>420.0</ele><time>2026-04-21T07:20:48.089Z</time></trkpt><trkpt lat="44.3802035" lon="8.0155457"><ele>420.0</ele><time>2026-04-21T07:20:49.078Z</time></trkpt><trkpt lat="44.3799956" lon="8.0157683"><ele>420.0</ele><time>2026-04-21T07:20:50.065Z</time></trkpt><trkpt lat="44.3797877" lon="8.0159901"><ele>418.0</ele><time>2026-04-21T07:20:51.063Z</time></trkpt><trkpt lat="44.3795745" lon="8.0162042"><ele>416.0</ele><time>2026-04-21T07:20:52.071Z</time></trkpt><trkpt lat="44.379362" lon="8.0164137"><ele>416.0</ele><time>2026-04-21T07:20:53.068Z</time></trkpt><trkpt lat="44.3791484" lon="8.0166229"><ele>416.0</ele><time>2026-04-21T07:20:54.07Z</time></trkpt><trkpt lat="44.3789368" lon="8.0168318"><ele>417.0</ele><time>2026-04-21T07:20:55.072Z</time></trkpt><trkpt lat="44.378725" lon="8.0170451"><ele>418.0</ele><time>2026-04-21T07:20:56.081Z</time></trkpt><trkpt lat="44.378514" lon="8.0172614"><ele>418.0</ele><time>2026-04-21T07:20:57.086Z</time></trkpt><trkpt lat="44.3783035" lon="8.0174797"><ele>418.0</ele><time>2026-04-21T07:20:58.082Z</time></trkpt><trkpt lat="44.3780919" lon="8.0176983"><ele>418.5</ele><time>2026-04-21T07:20:59.075Z</time></trkpt><trkpt lat="44.377879" lon="8.0179152"><ele>419.0</ele><time>2026-04-21T07:21:00.066Z</time></trkpt><trkpt lat="44.3776627" lon="8.0181349"><ele>419.0</ele><time>2026-04-21T07:21:01.073Z</time></trkpt><trkpt lat="44.3774454" lon="8.0183549"><ele>419.0</ele><time>2026-04-21T07:21:02.086Z</time></trkpt><trkpt lat="44.3772265" lon="8.018576"><ele>419.0</ele><time>2026-04-21T07:21:03.076Z</time></trkpt><trkpt lat="44.3770073" lon="8.0187995"><ele>419.0</ele><time>2026-04-21T07:21:04.081Z</time></trkpt><trkpt lat="44.3767892" lon="8.019023"><ele>418.5</ele><time>2026-04-21T07:21:05.081Z</time></trkpt><trkpt lat="44.3765765" lon="8.0192494"><ele>418.0</ele><time>2026-04-21T07:21:06.066Z</time></trkpt><trkpt lat="44.3763627" lon="8.0194739"><ele>419.0</ele><time>2026-04-21T07:21:07.069Z</time></trkpt><trkpt lat="44.37615" lon="8.0197061"><ele>420.0</ele><time>2026-04-21T07:21:08.075Z</time></trkpt><trkpt lat="44.3759434" lon="8.0199497"><ele>419.5</ele><time>2026-04-21T07:21:09.073Z</time></trkpt><trkpt lat="44.3757431" lon="8.0202038"><ele>419.0</ele><time>2026-04-21T07:21:10.084Z</time></trkpt><trkpt lat="44.3755502" lon="8.0204678"><ele>420.5</ele><time>2026-04-21T07:21:11.071Z</time></trkpt><trkpt lat="44.3753593" lon="8.0207361"><ele>422.0</ele><time>2026-04-21T07:21:12.087Z</time></trkpt><trkpt lat="44.3751688" lon="8.0210015"><ele>422.0</ele><time>2026-04-21T07:21:13.065Z</time></trkpt><trkpt lat="44.3749809" lon="8.0212709"><ele>422.0</ele><time>2026-04-21T07:21:14.077Z</time></trkpt><trkpt lat="44.3747984" lon="8.0215522"><ele>422.0</ele><time>2026-04-21T07:21:15.072Z</time></trkpt><trkpt lat="44.3746247" lon="8.0218403"><ele>422.0</ele><time>2026-04-21T07:21:16.068Z</time></trkpt><trkpt lat="44.3744537" lon="8.0221343"><ele>422.0</ele><time>2026-04-21T07:21:17.073Z</time></trkpt><trkpt lat="44.3742834" lon="8.0224322"><ele>422.0</ele><time>2026-04-21T07:21:18.071Z</time></trkpt><trkpt lat="44.3741126" lon="8.0227311"><ele>422.0</ele><time>2026-04-21T07:21:19.059Z</time></trkpt><trkpt lat="44.373942" lon="8.0230295"><ele>422.0</ele><time>2026-04-21T07:21:20.064Z</time></trkpt><trkpt lat="44.3737686" lon="8.0233241"><ele>422.5</ele><time>2026-04-21T07:21:21.064Z</time></trkpt><trkpt lat="44.3735944" lon="8.0236195"><ele>423.0</ele><time>2026-04-21T07:21:22.064Z</time></trkpt><trkpt lat="44.3734187" lon="8.0239151"><ele>423.0</ele><time>2026-04-21T07:21:23.065Z</time></trkpt><trkpt lat="44.3732438" lon="8.0242102"><ele>423.0</ele><time>2026-04-21T07:21:24.065Z</time></trkpt><trkpt lat="44.3730689" lon="8.0245073"><ele>423.0</ele><time>2026-04-21T07:21:25.059Z</time></trkpt><trkpt lat="44.3728921" lon="8.024808"><ele>423.0</ele><time>2026-04-21T07:21:26.072Z</time></trkpt><trkpt lat="44.3727176" lon="8.0251127"><ele>423.0</ele><time>2026-04-21T07:21:27.068Z</time></trkpt><trkpt lat="44.3725405" lon="8.0254142"><ele>423.0</ele><time>2026-04-21T07:21:28.074Z</time></trkpt><trkpt lat="44.3723626" lon="8.0257117"><ele>424.5</ele><time>2026-04-21T07:21:29.083Z</time></trkpt><trkpt lat="44.3721882" lon="8.0260079"><ele>426.0</ele><time>2026-04-21T07:21:30.06Z</time></trkpt><trkpt lat="44.3720146" lon="8.0263016"><ele>426.0</ele><time>2026-04-21T07:21:31.08Z</time></trkpt><trkpt lat="44.3718419" lon="8.0265945"><ele>426.0</ele><time>2026-04-21T07:21:32.07Z</time></trkpt><trkpt lat="44.3716682" lon="8.0268823"><ele>426.0</ele><time>2026-04-21T07:21:33.071Z</time></trkpt><trkpt lat="44.3714956" lon="8.0271708"><ele>426.0</ele><time>2026-04-21T07:21:34.064Z</time></trkpt><trkpt lat="44.3713265" lon="8.0274629"><ele>430.5</ele><time>2026-04-21T07:21:35.069Z</time></trkpt><trkpt lat="44.3711568" lon="8.0277532"><ele>435.0</ele><time>2026-04-21T07:21:36.056Z</time></trkpt><trkpt lat="44.3709873" lon="8.0280439"><ele>433.0</ele><time>2026-04-21T07:21:37.08Z</time></trkpt><trkpt lat="44.3708175" lon="8.0283326"><ele>431.0</ele><time>2026-04-21T07:21:38.076Z</time></trkpt><trkpt lat="44.3706507" lon="8.0286224"><ele>436.0</ele><time>2026-04-21T07:21:39.068Z</time></trkpt><trkpt lat="44.3704857" lon="8.0289132"><ele>441.0</ele><time>2026-04-21T07:21:40.06Z</time></trkpt><trkpt lat="44.3703291" lon="8.0292091"><ele>441.0</ele><time>2026-04-21T07:21:41.063Z</time></trkpt><trkpt lat="44.3701914" lon="8.0295248"><ele>441.0</ele><time>2026-04-21T07:21:42.084Z</time></trkpt><trkpt lat="44.3700732" lon="8.0298604"><ele>438.5</ele><time>2026-04-21T07:21:43.065Z</time></trkpt><trkpt lat="44.3699668" lon="8.0302018"><ele>436.0</ele><time>2026-04-21T07:21:44.067Z</time></trkpt><trkpt lat="44.3698809" lon="8.0305572"><ele>436.0</ele><time>2026-04-21T07:21:45.07Z</time></trkpt><trkpt lat="44.3698022" lon="8.030909"><ele>436.0</ele><time>2026-04-21T07:21:46.079Z</time></trkpt><trkpt lat="44.3697407" lon="8.0312564"><ele>436.0</ele><time>2026-04-21T07:21:47.075Z</time></trkpt><trkpt lat="44.3696993" lon="8.0315877"><ele>436.0</ele><time>2026-04-21T07:21:48.065Z</time></trkpt><trkpt lat="44.3696731" lon="8.0319088"><ele>437.33333333333337</ele><time>2026-04-21T07:21:49.061Z</time></trkpt><trkpt lat="44.36966" lon="8.0322186"><ele>438.66666666666663</ele><time>2026-04-21T07:21:50.079Z</time></trkpt><trkpt lat="44.3696553" lon="8.0325217"><ele>440.0</ele><time>2026-04-21T07:21:51.08Z</time></trkpt><trkpt lat="44.3696541" lon="8.0328041"><ele>440.0</ele><time>2026-04-21T07:21:52.084Z</time></trkpt><trkpt lat="44.3696661" lon="8.0330878"><ele>440.0</ele><time>2026-04-21T07:21:53.071Z</time></trkpt><trkpt lat="44.3696889" lon="8.0333658"><ele>440.0</ele><time>2026-04-21T07:21:54.083Z</time></trkpt><trkpt lat="44.3697201" lon="8.0336391"><ele>435.66666666666663</ele><time>2026-04-21T07:21:55.072Z</time></trkpt><trkpt lat="44.3697515" lon="8.0338996"><ele>431.33333333333337</ele><time>2026-04-21T07:21:56.071Z</time></trkpt><trkpt lat="44.3697997" lon="8.0341714"><ele>427.0</ele><time>2026-04-21T07:21:57.076Z</time></trkpt><trkpt lat="44.3698652" lon="8.0344577"><ele>424.5</ele><time>2026-04-21T07:21:58.071Z</time></trkpt><trkpt lat="44.3699418" lon="8.0347627"><ele>422.0</ele><time>2026-04-21T07:21:59.081Z</time></trkpt><trkpt lat="44.3700313" lon="8.0350768"><ele>420.0</ele><time>2026-04-21T07:22:00.072Z</time></trkpt><trkpt lat="44.3701358" lon="8.0353989"><ele>418.0</ele><time>2026-04-21T07:22:01.082Z</time></trkpt><trkpt lat="44.3702488" lon="8.0357293"><ele>414.5</ele><time>2026-04-21T07:22:02.067Z</time></trkpt><trkpt lat="44.3703773" lon="8.0360612"><ele>411.0</ele><time>2026-04-21T07:22:03.073Z</time></trkpt><trkpt lat="44.3705098" lon="8.0363805"><ele>414.5</ele><time>2026-04-21T07:22:04.067Z</time></trkpt><trkpt lat="44.370652" lon="8.0366762"><ele>418.0</ele><time>2026-04-21T07:22:05.071Z</time></trkpt><trkpt lat="44.3708019" lon="8.0369338"><ele>418.0</ele><time>2026-04-21T07:22:06.075Z</time></trkpt><trkpt lat="44.3709602" lon="8.037164"><ele>418.0</ele><time>2026-04-21T07:22:07.062Z</time></trkpt><trkpt lat="44.3711111" lon="8.0373808"><ele>418.0</ele><time>2026-04-21T07:22:08.073Z</time></trkpt><trkpt lat="44.3712494" lon="8.0376004"><ele>421.6666666666667</ele><time>2026-04-21T07:22:09.064Z</time></trkpt><trkpt lat="44.3713719" lon="8.037819"><ele>425.33333333333337</ele><time>2026-04-21T07:22:10.066Z</time></trkpt><trkpt lat="44.3714681" lon="8.0380408"><ele>429.0</ele><time>2026-04-21T07:22:11.08Z</time></trkpt><trkpt lat="44.3715103" lon="8.0382737"><ele>430.33333333333337</ele><time>2026-04-21T07:22:12.078Z</time></trkpt><trkpt lat="44.3715057" lon="8.0385143"><ele>431.6666666666667</ele><time>2026-04-21T07:22:13.072Z</time></trkpt><trkpt lat="44.3714664" lon="8.0387373"><ele>433.0</ele><time>2026-04-21T07:22:14.074Z</time></trkpt><trkpt lat="44.3714214" lon="8.0389435"><ele>433.0</ele><time>2026-04-21T07:22:15.058Z</time></trkpt><trkpt lat="44.3714079" lon="8.0390851"><ele>432.99999999999994</ele><time>2026-04-21T07:22:16.063Z</time></trkpt><trkpt lat="44.3714307" lon="8.0391811"><ele>432.99999999999994</ele><time>2026-04-21T07:22:17.061Z</time></trkpt><trkpt lat="44.3715152" lon="8.03927"><ele>433.0</ele><time>2026-04-21T07:22:19.057Z</time></trkpt><trkpt lat="44.3716298" lon="8.0393091"><ele>433.0</ele><time>2026-04-21T07:22:21.067Z</time></trkpt><trkpt lat="44.3717584" lon="8.0392883"><ele>432.99999999999994</ele><time>2026-04-21T07:22:23.068Z</time></trkpt><trkpt lat="44.3718184" lon="8.0392471"><ele>433.0</ele><time>2026-04-21T07:22:24.061Z</time></trkpt><trkpt lat="44.3718741" lon="8.0392013"><ele>433.0</ele><time>2026-04-21T07:22:25.062Z</time></trkpt><trkpt lat="44.3719261" lon="8.039147"><ele>433.0</ele><time>2026-04-21T07:22:26.072Z</time></trkpt><trkpt lat="44.371977" lon="8.0390871"><ele>433.0</ele><time>2026-04-21T07:22:27.056Z</time></trkpt><trkpt lat="44.3720256" lon="8.0390237"><ele>432.99999999999994</ele><time>2026-04-21T07:22:28.061Z</time></trkpt><trkpt lat="44.3720767" lon="8.0389604"><ele>433.0</ele><time>2026-04-21T07:22:29.069Z</time></trkpt><trkpt lat="44.3721306" lon="8.0389011"><ele>433.00000000000006</ele><time>2026-04-21T07:22:30.062Z</time></trkpt><trkpt lat="44.372182" lon="8.0388412"><ele>433.0</ele><time>2026-04-21T07:22:31.062Z</time></trkpt><trkpt lat="44.3722335" lon="8.0387826"><ele>433.0</ele><time>2026-04-21T07:22:32.063Z</time></trkpt><trkpt lat="44.3722846" lon="8.0387216"><ele>433.0</ele><time>2026-04-21T07:22:33.063Z</time></trkpt><trkpt lat="44.3723459" lon="8.0386553"><ele>433.00000000000006</ele><time>2026-04-21T07:22:34.062Z</time></trkpt><trkpt lat="44.3724205" lon="8.0385861"><ele>433.0</ele><time>2026-04-21T07:22:35.064Z</time></trkpt><trkpt lat="44.3725098" lon="8.0385266"><ele>433.0</ele><time>2026-04-21T07:22:36.059Z</time></trkpt><trkpt lat="44.3726072" lon="8.0384928"><ele>432.99999999999994</ele><time>2026-04-21T07:22:37.062Z</time></trkpt><trkpt lat="44.3727079" lon="8.0384896"><ele>432.99999999999994</ele><time>2026-04-21T07:22:38.065Z</time></trkpt><trkpt lat="44.3728083" lon="8.0385098"><ele>433.0</ele><time>2026-04-21T07:22:39.057Z</time></trkpt><trkpt lat="44.3729025" lon="8.0385513"><ele>433.0</ele><time>2026-04-21T07:22:40.071Z</time></trkpt><trkpt lat="44.3729931" lon="8.0386146"><ele>433.0</ele><time>2026-04-21T07:22:41.063Z</time></trkpt><trkpt lat="44.37309" lon="8.0386852"><ele>433.0</ele><time>2026-04-21T07:22:42.053Z</time></trkpt><trkpt lat="44.3731953" lon="8.0387508"><ele>433.0</ele><time>2026-04-21T07:22:43.06Z</time></trkpt><trkpt lat="44.3733064" lon="8.0388146"><ele>433.0</ele><time>2026-04-21T07:22:44.06Z</time></trkpt><trkpt lat="44.3734218" lon="8.0388769"><ele>433.0</ele><time>2026-04-21T07:22:45.056Z</time></trkpt><trkpt lat="44.3735315" lon="8.0389369"><ele>432.99999999999994</ele><time>2026-04-21T07:22:46.055Z</time></trkpt><trkpt lat="44.3736328" lon="8.0389954"><ele>432.99999999999994</ele><time>2026-04-21T07:22:47.059Z</time></trkpt><trkpt lat="44.3737201" lon="8.0390488"><ele>433.0</ele><time>2026-04-21T07:22:48.059Z</time></trkpt><trkpt lat="44.3737939" lon="8.0390949"><ele>433.0</ele><time>2026-04-21T07:22:49.068Z</time></trkpt><trkpt lat="44.3738545" lon="8.0391264"><ele>433.4</ele><time>2026-04-21T07:22:50.057Z</time></trkpt><trkpt lat="44.373939" lon="8.0391693"><ele>433.79999999999995</ele><time>2026-04-21T07:22:52.06Z</time></trkpt><trkpt lat="44.3740387" lon="8.039269"><ele>434.2</ele><time>2026-04-21T07:23:31.061Z</time></trkpt><trkpt lat="44.374131" lon="8.0393199"><ele>434.6</ele><time>2026-04-21T07:23:32.062Z</time></trkpt><trkpt lat="44.374249" lon="8.0393784"><ele>435.0</ele><time>2026-04-21T07:23:33.058Z</time></trkpt><trkpt lat="44.3743762" lon="8.0394373"><ele>435.0</ele><time>2026-04-21T07:23:34.06Z</time></trkpt><trkpt lat="44.3745064" lon="8.0395125"><ele>435.0</ele><time>2026-04-21T07:23:35.064Z</time></trkpt><trkpt lat="44.3746282" lon="8.0396183"><ele>435.0</ele><time>2026-04-21T07:23:36.064Z</time></trkpt><trkpt lat="44.3747381" lon="8.0397706"><ele>435.0</ele><time>2026-04-21T07:23:37.07Z</time></trkpt><trkpt lat="44.3748198" lon="8.0399493"><ele>435.0</ele><time>2026-04-21T07:23:38.072Z</time></trkpt><trkpt lat="44.3748684" lon="8.0401247"><ele>435.0</ele><time>2026-04-21T07:23:39.061Z</time></trkpt><trkpt lat="44.3748698" lon="8.0402595"><ele>435.0</ele><time>2026-04-21T07:23:40.06Z</time></trkpt><trkpt lat="44.3748251" lon="8.0403486"><ele>435.0</ele><time>2026-04-21T07:23:41.062Z</time></trkpt><trkpt lat="44.3747465" lon="8.040414"><ele>435.0</ele><time>2026-04-21T07:23:42.063Z</time></trkpt><trkpt lat="44.3746372" lon="8.0404333"><ele>435.0</ele><time>2026-04-21T07:23:43.073Z</time></trkpt><trkpt lat="44.3745028" lon="8.0404175"><ele>435.0</ele><time>2026-04-21T07:23:44.063Z</time></trkpt><trkpt lat="44.3743563" lon="8.0403735"><ele>435.0</ele><time>2026-04-21T07:23:45.063Z</time></trkpt><trkpt lat="44.3741879" lon="8.0403162"><ele>435.0</ele><time>2026-04-21T07:23:46.064Z</time></trkpt><trkpt lat="44.3740109" lon="8.0402688"><ele>435.0</ele><time>2026-04-21T07:23:47.066Z</time></trkpt><trkpt lat="44.3738332" lon="8.0402252"><ele>435.0</ele><time>2026-04-21T07:23:48.065Z</time></trkpt><trkpt lat="44.3736482" lon="8.0401746"><ele>435.33333333333337</ele><time>2026-04-21T07:23:49.06Z</time></trkpt><trkpt lat="44.3734581" lon="8.0401227"><ele>435.6666666666667</ele><time>2026-04-21T07:23:50.064Z</time></trkpt><trkpt lat="44.373263" lon="8.0400683"><ele>436.0</ele><time>2026-04-21T07:23:51.061Z</time></trkpt><trkpt lat="44.373062" lon="8.0400122"><ele>435.0</ele><time>2026-04-21T07:23:52.064Z</time></trkpt><trkpt lat="44.3728587" lon="8.03996"><ele>434.0</ele><time>2026-04-21T07:23:53.06Z</time></trkpt><trkpt lat="44.3726494" lon="8.0399095"><ele>433.0</ele><time>2026-04-21T07:23:54.058Z</time></trkpt><trkpt lat="44.3724376" lon="8.0398607"><ele>433.0</ele><time>2026-04-21T07:23:55.07Z</time></trkpt><trkpt lat="44.3722277" lon="8.0398103"><ele>433.0</ele><time>2026-04-21T07:23:56.067Z</time></trkpt><trkpt lat="44.3720192" lon="8.0397568"><ele>433.0</ele><time>2026-04-21T07:23:57.058Z</time></trkpt><trkpt lat="44.3718127" lon="8.0397015"><ele>433.33333333333337</ele><time>2026-04-21T07:23:58.06Z</time></trkpt><trkpt lat="44.3716082" lon="8.0396497"><ele>433.66666666666663</ele><time>2026-04-21T07:23:59.059Z</time></trkpt><trkpt lat="44.3714017" lon="8.0395997"><ele>434.0</ele><time>2026-04-21T07:24:00.061Z</time></trkpt><trkpt lat="44.3711977" lon="8.0395516"><ele>434.0</ele><time>2026-04-21T07:24:01.061Z</time></trkpt><trkpt lat="44.3709954" lon="8.0395099"><ele>434.0</ele><time>2026-04-21T07:24:02.06Z</time></trkpt><trkpt lat="44.3707957" lon="8.0394902"><ele>434.0</ele><time>2026-04-21T07:24:03.073Z</time></trkpt><trkpt lat="44.3706018" lon="8.0395226"><ele>432.0</ele><time>2026-04-21T07:24:04.062Z</time></trkpt><trkpt lat="44.3704207" lon="8.0396218"><ele>430.0</ele><time>2026-04-21T07:24:05.067Z</time></trkpt><trkpt lat="44.3702677" lon="8.0397794"><ele>428.0</ele><time>2026-04-21T07:24:06.063Z</time></trkpt><trkpt lat="44.3701261" lon="8.0399589"><ele>431.0</ele><time>2026-04-21T07:24:07.071Z</time></trkpt><trkpt lat="44.3699951" lon="8.0401564"><ele>434.0</ele><time>2026-04-21T07:24:08.062Z</time></trkpt><trkpt lat="44.3698595" lon="8.0403622"><ele>437.0</ele><time>2026-04-21T07:24:09.067Z</time></trkpt><trkpt lat="44.3697221" lon="8.0405698"><ele>431.3333333333333</ele><time>2026-04-21T07:24:10.062Z</time></trkpt><trkpt lat="44.3695807" lon="8.0407793"><ele>425.66666666666663</ele><time>2026-04-21T07:24:11.061Z</time></trkpt><trkpt lat="44.3694532" lon="8.0410085"><ele>420.0</ele><time>2026-04-21T07:24:12.058Z</time></trkpt><trkpt lat="44.3693218" lon="8.0412355"><ele>420.0</ele><time>2026-04-21T07:24:13.057Z</time></trkpt><trkpt lat="44.3691841" lon="8.0414551"><ele>420.0</ele><time>2026-04-21T07:24:14.062Z</time></trkpt><trkpt lat="44.3690512" lon="8.0416931"><ele>420.0</ele><time>2026-04-21T07:24:15.057Z</time></trkpt><trkpt lat="44.3689151" lon="8.0419255"><ele>424.0</ele><time>2026-04-21T07:24:16.057Z</time></trkpt><trkpt lat="44.3687766" lon="8.0421457"><ele>428.0</ele><time>2026-04-21T07:24:17.054Z</time></trkpt><trkpt lat="44.3686449" lon="8.0423604"><ele>432.0</ele><time>2026-04-21T07:24:18.055Z</time></trkpt><trkpt lat="44.3685127" lon="8.0425495"><ele>432.0</ele><time>2026-04-21T07:24:19.06Z</time></trkpt><trkpt lat="44.3683821" lon="8.0427183"><ele>432.0</ele><time>2026-04-21T07:24:20.054Z</time></trkpt><trkpt lat="44.368253" lon="8.0428693"><ele>432.0</ele><time>2026-04-21T07:24:21.059Z</time></trkpt><trkpt lat="44.3681207" lon="8.0429984"><ele>432.25</ele><time>2026-04-21T07:24:22.061Z</time></trkpt><trkpt lat="44.3679931" lon="8.0431209"><ele>432.5</ele><time>2026-04-21T07:24:23.063Z</time></trkpt><trkpt lat="44.367869" lon="8.043227"><ele>432.75</ele><time>2026-04-21T07:24:24.061Z</time></trkpt><trkpt lat="44.3677463" lon="8.0433188"><ele>433.0</ele><time>2026-04-21T07:24:25.054Z</time></trkpt><trkpt lat="44.3676319" lon="8.0433962"><ele>433.0</ele><time>2026-04-21T07:24:26.062Z</time></trkpt><trkpt lat="44.3675274" lon="8.0434519"><ele>432.99999999999994</ele><time>2026-04-21T07:24:27.053Z</time></trkpt><trkpt lat="44.3674368" lon="8.0434872"><ele>432.99999999999994</ele><time>2026-04-21T07:24:28.057Z</time></trkpt><trkpt lat="44.3673582" lon="8.0435141"><ele>433.0</ele><time>2026-04-21T07:24:29.059Z</time></trkpt><trkpt lat="44.3672902" lon="8.0435375"><ele>433.0</ele><time>2026-04-21T07:24:30.05Z</time></trkpt><trkpt lat="44.3671855" lon="8.0435675"><ele>427.25</ele><time>2026-04-21T07:24:32.051Z</time></trkpt><trkpt lat="44.3671396" lon="8.0436383"><ele>421.5</ele><time>2026-04-21T07:26:17.059Z</time></trkpt><trkpt lat="44.3670098" lon="8.0437648"><ele>415.75</ele><time>2026-04-21T07:26:19.071Z</time></trkpt><trkpt lat="44.3668932" lon="8.0438627"><ele>410.0</ele><time>2026-04-21T07:26:20.074Z</time></trkpt><trkpt lat="44.3667637" lon="8.0439933"><ele>416.0</ele><time>2026-04-21T07:26:21.07Z</time></trkpt><trkpt lat="44.3666504" lon="8.0441695"><ele>422.0</ele><time>2026-04-21T07:26:22.056Z</time></trkpt><trkpt lat="44.3665642" lon="8.044396"><ele>428.0</ele><time>2026-04-21T07:26:23.067Z</time></trkpt><trkpt lat="44.3665125" lon="8.0446517"><ele>428.0</ele><time>2026-04-21T07:26:24.062Z</time></trkpt><trkpt lat="44.3665032" lon="8.0449147"><ele>428.0</ele><time>2026-04-21T07:26:25.056Z</time></trkpt><trkpt lat="44.3665317" lon="8.0451751"><ele>428.0</ele><time>2026-04-21T07:26:26.055Z</time></trkpt><trkpt lat="44.3665827" lon="8.0454317"><ele>430.0</ele><time>2026-04-21T07:26:27.061Z</time></trkpt><trkpt lat="44.3666321" lon="8.0456941"><ele>432.0</ele><time>2026-04-21T07:26:28.067Z</time></trkpt><trkpt lat="44.3666724" lon="8.0459649"><ele>434.0</ele><time>2026-04-21T07:26:29.065Z</time></trkpt><trkpt lat="44.3666947" lon="8.0462364"><ele>434.0</ele><time>2026-04-21T07:26:30.068Z</time></trkpt><trkpt lat="44.3667075" lon="8.0465078"><ele>434.0</ele><time>2026-04-21T07:26:31.076Z</time></trkpt><trkpt lat="44.3667132" lon="8.0467947"><ele>434.0</ele><time>2026-04-21T07:26:32.076Z</time></trkpt><trkpt lat="44.366716" lon="8.0470956"><ele>436.3333333333333</ele><time>2026-04-21T07:26:33.076Z</time></trkpt><trkpt lat="44.3667166" lon="8.047401"><ele>438.66666666666663</ele><time>2026-04-21T07:26:34.074Z</time></trkpt><trkpt lat="44.366707" lon="8.0477032"><ele>441.0</ele><time>2026-04-21T07:26:35.076Z</time></trkpt><trkpt lat="44.3666858" lon="8.0480058"><ele>443.0</ele><time>2026-04-21T07:26:36.081Z</time></trkpt><trkpt lat="44.3666509" lon="8.0483083"><ele>445.0</ele><time>2026-04-21T07:26:37.064Z</time></trkpt><trkpt lat="44.3666114" lon="8.0486053"><ele>447.0</ele><time>2026-04-21T07:26:38.073Z</time></trkpt><trkpt lat="44.3665769" lon="8.0489012"><ele>447.66666666666663</ele><time>2026-04-21T07:26:39.07Z</time></trkpt><trkpt lat="44.3665605" lon="8.0491966"><ele>448.3333333333333</ele><time>2026-04-21T07:26:40.075Z</time></trkpt><trkpt lat="44.366567" lon="8.0494913"><ele>449.0</ele><time>2026-04-21T07:26:41.076Z</time></trkpt><trkpt lat="44.3665835" lon="8.0497894"><ele>448.66666666666663</ele><time>2026-04-21T07:26:42.067Z</time></trkpt><trkpt lat="44.3666061" lon="8.05009"><ele>448.33333333333337</ele><time>2026-04-21T07:26:43.072Z</time></trkpt><trkpt lat="44.3666252" lon="8.0503893"><ele>448.0</ele><time>2026-04-21T07:26:44.075Z</time></trkpt><trkpt lat="44.3666403" lon="8.050683"><ele>446.0</ele><time>2026-04-21T07:26:45.071Z</time></trkpt><trkpt lat="44.3666529" lon="8.0509745"><ele>444.0</ele><time>2026-04-21T07:26:46.069Z</time></trkpt><trkpt lat="44.366667" lon="8.0512672"><ele>442.0</ele><time>2026-04-21T07:26:47.073Z</time></trkpt><trkpt lat="44.366673" lon="8.0515612"><ele>442.33333333333337</ele><time>2026-04-21T07:26:48.058Z</time></trkpt><trkpt lat="44.3666546" lon="8.0518519"><ele>442.66666666666663</ele><time>2026-04-21T07:26:49.075Z</time></trkpt><trkpt lat="44.366619" lon="8.05214"><ele>443.0</ele><time>2026-04-21T07:26:50.072Z</time></trkpt><trkpt lat="44.3665789" lon="8.0524267"><ele>445.3333333333333</ele><time>2026-04-21T07:26:51.067Z</time></trkpt><trkpt lat="44.3665371" lon="8.0527155"><ele>447.66666666666663</ele><time>2026-04-21T07:26:52.08Z</time></trkpt><trkpt lat="44.3664961" lon="8.0530033"><ele>450.0</ele><time>2026-04-21T07:26:53.068Z</time></trkpt><trkpt lat="44.3664505" lon="8.0532885"><ele>451.66666666666663</ele><time>2026-04-21T07:26:54.071Z</time></trkpt><trkpt lat="44.3664013" lon="8.0535746"><ele>453.3333333333333</ele><time>2026-04-21T07:26:55.062Z</time></trkpt><trkpt lat="44.3663476" lon="8.0538578"><ele>455.0</ele><time>2026-04-21T07:26:56.058Z</time></trkpt><trkpt lat="44.3662866" lon="8.0541392"><ele>447.3333333333333</ele><time>2026-04-21T07:26:57.064Z</time></trkpt><trkpt lat="44.3662172" lon="8.0544183"><ele>439.66666666666663</ele><time>2026-04-21T07:26:58.068Z</time></trkpt><trkpt lat="44.3661421" lon="8.0546924"><ele>432.0</ele><time>2026-04-21T07:26:59.073Z</time></trkpt><trkpt lat="44.3660613" lon="8.0549653"><ele>432.0</ele><time>2026-04-21T07:27:00.057Z</time></trkpt><trkpt lat="44.3659741" lon="8.0552356"><ele>432.0</ele><time>2026-04-21T07:27:01.079Z</time></trkpt><trkpt lat="44.3658844" lon="8.0555061"><ele>432.0</ele><time>2026-04-21T07:27:02.072Z</time></trkpt><trkpt lat="44.3657985" lon="8.0557788"><ele>436.0</ele><time>2026-04-21T07:27:03.085Z</time></trkpt><trkpt lat="44.3657146" lon="8.0560515"><ele>440.0</ele><time>2026-04-21T07:27:04.072Z</time></trkpt><trkpt lat="44.3656292" lon="8.0563267"><ele>444.0</ele><time>2026-04-21T07:27:05.071Z</time></trkpt><trkpt lat="44.3655426" lon="8.0566002"><ele>438.66666666666663</ele><time>2026-04-21T07:27:06.067Z</time></trkpt><trkpt lat="44.365456" lon="8.0568703"><ele>433.3333333333333</ele><time>2026-04-21T07:27:07.081Z</time></trkpt><trkpt lat="44.3653595" lon="8.0571306"><ele>428.0</ele><time>2026-04-21T07:27:08.069Z</time></trkpt><trkpt lat="44.3652343" lon="8.0573572"><ele>434.0</ele><time>2026-04-21T07:27:09.078Z</time></trkpt><trkpt lat="44.3650781" lon="8.0575329"><ele>440.0</ele><time>2026-04-21T07:27:10.079Z</time></trkpt><trkpt lat="44.3649074" lon="8.0576617"><ele>446.0</ele><time>2026-04-21T07:27:11.082Z</time></trkpt><trkpt lat="44.3647461" lon="8.0577609"><ele>440.66666666666663</ele><time>2026-04-21T07:27:12.061Z</time></trkpt><trkpt lat="44.3645935" lon="8.0578364"><ele>435.33333333333337</ele><time>2026-04-21T07:27:13.065Z</time></trkpt><trkpt lat="44.3644413" lon="8.0579027"><ele>430.0</ele><time>2026-04-21T07:27:14.076Z</time></trkpt><trkpt lat="44.3642896" lon="8.0579645"><ele>430.0</ele><time>2026-04-21T07:27:15.068Z</time></trkpt><trkpt lat="44.3641391" lon="8.0580218"><ele>430.0</ele><time>2026-04-21T07:27:16.075Z</time></trkpt><trkpt lat="44.3639862" lon="8.0580762"><ele>430.0</ele><time>2026-04-21T07:27:17.076Z</time></trkpt><trkpt lat="44.36383" lon="8.058125"><ele>429.33333333333337</ele><time>2026-04-21T07:27:18.069Z</time></trkpt><trkpt lat="44.3636708" lon="8.0581828"><ele>428.66666666666663</ele><time>2026-04-21T07:27:19.073Z</time></trkpt><trkpt lat="44.3635079" lon="8.0582327"><ele>428.0</ele><time>2026-04-21T07:27:20.071Z</time></trkpt><trkpt lat="44.3633415" lon="8.0582716"><ele>432.3333333333333</ele><time>2026-04-21T07:27:21.072Z</time></trkpt><trkpt lat="44.3631744" lon="8.0582992"><ele>436.66666666666663</ele><time>2026-04-21T07:27:22.064Z</time></trkpt><trkpt lat="44.363011" lon="8.0582987"><ele>441.0</ele><time>2026-04-21T07:27:23.074Z</time></trkpt><trkpt lat="44.362846" lon="8.0582545"><ele>441.0</ele><time>2026-04-21T07:27:24.071Z</time></trkpt><trkpt lat="44.3626802" lon="8.0580948"><ele>441.0</ele><time>2026-04-21T07:27:25.064Z</time></trkpt><trkpt lat="44.3625131" lon="8.0578658"><ele>441.0</ele><time>2026-04-21T07:27:26.065Z</time></trkpt><trkpt lat="44.3623612" lon="8.0577116"><ele>441.0</ele><time>2026-04-21T07:27:27.066Z</time></trkpt><trkpt lat="44.362202" lon="8.057565"><ele>441.0</ele><time>2026-04-21T07:27:28.069Z</time></trkpt><trkpt lat="44.3620417" lon="8.0574199"><ele>441.0</ele><time>2026-04-21T07:27:29.067Z</time></trkpt><trkpt lat="44.3618907" lon="8.0572868"><ele>441.0</ele><time>2026-04-21T07:27:30.079Z</time></trkpt><trkpt lat="44.3617374" lon="8.0571543"><ele>441.0</ele><time>2026-04-21T07:27:31.066Z</time></trkpt><trkpt lat="44.3615821" lon="8.0570221"><ele>441.0</ele><time>2026-04-21T07:27:32.058Z</time></trkpt><trkpt lat="44.3614256" lon="8.0568928"><ele>439.33333333333337</ele><time>2026-04-21T07:27:33.066Z</time></trkpt><trkpt lat="44.361271" lon="8.0567637"><ele>437.6666666666667</ele><time>2026-04-21T07:27:34.057Z</time></trkpt><trkpt lat="44.3611184" lon="8.0566377"><ele>436.0</ele><time>2026-04-21T07:27:35.069Z</time></trkpt><trkpt lat="44.3609693" lon="8.0565133"><ele>436.0</ele><time>2026-04-21T07:27:36.069Z</time></trkpt><trkpt lat="44.3608266" lon="8.0563884"><ele>436.0</ele><time>2026-04-21T07:27:37.06Z</time></trkpt><trkpt lat="44.3606766" lon="8.0562621"><ele>436.0</ele><time>2026-04-21T07:27:38.064Z</time></trkpt><trkpt lat="44.360527" lon="8.056135"><ele>437.33333333333337</ele><time>2026-04-21T07:27:39.079Z</time></trkpt><trkpt lat="44.3603781" lon="8.056008"><ele>438.66666666666663</ele><time>2026-04-21T07:27:40.071Z</time></trkpt><trkpt lat="44.3602308" lon="8.0558846"><ele>440.0</ele><time>2026-04-21T07:27:41.077Z</time></trkpt><trkpt lat="44.3600821" lon="8.0557608"><ele>440.0</ele><time>2026-04-21T07:27:42.059Z</time></trkpt><trkpt lat="44.3599376" lon="8.0556336"><ele>440.0</ele><time>2026-04-21T07:27:43.071Z</time></trkpt><trkpt lat="44.3597882" lon="8.0555058"><ele>440.0</ele><time>2026-04-21T07:27:44.065Z</time></trkpt><trkpt lat="44.3596377" lon="8.0553798"><ele>444.66666666666663</ele><time>2026-04-21T07:27:45.066Z</time></trkpt><trkpt lat="44.3594864" lon="8.0552543"><ele>449.33333333333337</ele><time>2026-04-21T07:27:46.065Z</time></trkpt><trkpt lat="44.3593396" lon="8.055128"><ele>454.0</ele><time>2026-04-21T07:27:47.071Z</time></trkpt><trkpt lat="44.3591961" lon="8.0549958"><ele>454.6666666666667</ele><time>2026-04-21T07:27:48.077Z</time></trkpt><trkpt lat="44.3590576" lon="8.0548526"><ele>455.33333333333337</ele><time>2026-04-21T07:27:49.064Z</time></trkpt><trkpt lat="44.3589234" lon="8.0547009"><ele>456.0</ele><time>2026-04-21T07:27:50.081Z</time></trkpt><trkpt lat="44.3587903" lon="8.0545453"><ele>456.0</ele><time>2026-04-21T07:27:51.069Z</time></trkpt><trkpt lat="44.3586575" lon="8.0543912"><ele>456.0</ele><time>2026-04-21T07:27:52.073Z</time></trkpt><trkpt lat="44.358525" lon="8.0542393"><ele>456.0</ele><time>2026-04-21T07:27:53.075Z</time></trkpt><trkpt lat="44.3583924" lon="8.0540896"><ele>454.33333333333337</ele><time>2026-04-21T07:27:54.075Z</time></trkpt><trkpt lat="44.3582623" lon="8.0539412"><ele>452.6666666666667</ele><time>2026-04-21T07:27:55.072Z</time></trkpt><trkpt lat="44.3581345" lon="8.053792"><ele>451.0</ele><time>2026-04-21T07:27:56.069Z</time></trkpt><trkpt lat="44.3580049" lon="8.0536456"><ele>451.33333333333337</ele><time>2026-04-21T07:27:57.068Z</time></trkpt><trkpt lat="44.3578764" lon="8.0535025"><ele>451.66666666666663</ele><time>2026-04-21T07:27:58.066Z</time></trkpt><trkpt lat="44.3577462" lon="8.0533605"><ele>452.0</ele><time>2026-04-21T07:27:59.058Z</time></trkpt><trkpt lat="44.3576167" lon="8.0532149"><ele>452.0</ele><time>2026-04-21T07:28:00.071Z</time></trkpt><trkpt lat="44.3574842" lon="8.0530645"><ele>452.0</ele><time>2026-04-21T07:28:01.075Z</time></trkpt><trkpt lat="44.3573443" lon="8.0529282"><ele>452.0</ele><time>2026-04-21T07:28:02.071Z</time></trkpt><trkpt lat="44.3571912" lon="8.052836"><ele>451.66666666666663</ele><time>2026-04-21T07:28:03.069Z</time></trkpt><trkpt lat="44.3570186" lon="8.0528147"><ele>451.33333333333337</ele><time>2026-04-21T07:28:04.069Z</time></trkpt><trkpt lat="44.3568503" lon="8.0528728"><ele>451.0</ele><time>2026-04-21T07:28:05.072Z</time></trkpt><trkpt lat="44.3566979" lon="8.0529912"><ele>451.0</ele><time>2026-04-21T07:28:06.074Z</time></trkpt><trkpt lat="44.3565636" lon="8.0531501"><ele>451.0</ele><time>2026-04-21T07:28:07.068Z</time></trkpt><trkpt lat="44.3564441" lon="8.0533279"><ele>451.0</ele><time>2026-04-21T07:28:08.081Z</time></trkpt><trkpt lat="44.3563116" lon="8.0534845"><ele>450.33333333333337</ele><time>2026-04-21T07:28:09.063Z</time></trkpt><trkpt lat="44.3561626" lon="8.053628"><ele>449.66666666666663</ele><time>2026-04-21T07:28:10.069Z</time></trkpt><trkpt lat="44.3560011" lon="8.0537451"><ele>449.0</ele><time>2026-04-21T07:28:11.056Z</time></trkpt><trkpt lat="44.3558366" lon="8.0538523"><ele>449.0</ele><time>2026-04-21T07:28:12.072Z</time></trkpt><trkpt lat="44.355676" lon="8.0539589"><ele>449.0</ele><time>2026-04-21T07:28:13.06Z</time></trkpt><trkpt lat="44.3555143" lon="8.0540652"><ele>449.0</ele><time>2026-04-21T07:28:14.064Z</time></trkpt><trkpt lat="44.3553477" lon="8.0541701"><ele>455.3333333333333</ele><time>2026-04-21T07:28:15.057Z</time></trkpt><trkpt lat="44.3551768" lon="8.0542581"><ele>461.66666666666663</ele><time>2026-04-21T07:28:16.053Z</time></trkpt><trkpt lat="44.3550042" lon="8.0543381"><ele>468.0</ele><time>2026-04-21T07:28:17.075Z</time></trkpt><trkpt lat="44.3548288" lon="8.0544167"><ele>463.33333333333337</ele><time>2026-04-21T07:28:18.073Z</time></trkpt><trkpt lat="44.3546562" lon="8.0544888"><ele>458.6666666666667</ele><time>2026-04-21T07:28:19.073Z</time></trkpt><trkpt lat="44.3544884" lon="8.0545585"><ele>454.0</ele><time>2026-04-21T07:28:20.066Z</time></trkpt><trkpt lat="44.354323" lon="8.0546229"><ele>454.0</ele><time>2026-04-21T07:28:21.071Z</time></trkpt><trkpt lat="44.3541702" lon="8.0547073"><ele>454.0</ele><time>2026-04-21T07:28:22.069Z</time></trkpt><trkpt lat="44.3540391" lon="8.0548352"><ele>454.0</ele><time>2026-04-21T07:28:23.078Z</time></trkpt><trkpt lat="44.3539338" lon="8.0550152"><ele>457.0</ele><time>2026-04-21T07:28:24.073Z</time></trkpt><trkpt lat="44.3538269" lon="8.0552219"><ele>460.0</ele><time>2026-04-21T07:28:25.064Z</time></trkpt><trkpt lat="44.3537139" lon="8.0553946"><ele>463.0</ele><time>2026-04-21T07:28:26.071Z</time></trkpt><trkpt lat="44.3535769" lon="8.055517"><ele>463.0</ele><time>2026-04-21T07:28:27.061Z</time></trkpt><trkpt lat="44.3534127" lon="8.0555943"><ele>463.0</ele><time>2026-04-21T07:28:28.049Z</time></trkpt><trkpt lat="44.3532344" lon="8.0556499"><ele>463.0</ele><time>2026-04-21T07:28:29.065Z</time></trkpt><trkpt lat="44.3530589" lon="8.0556888"><ele>464.6666666666667</ele><time>2026-04-21T07:28:30.056Z</time></trkpt><trkpt lat="44.3529022" lon="8.0557242"><ele>466.33333333333337</ele><time>2026-04-21T07:28:31.076Z</time></trkpt><trkpt lat="44.3527365" lon="8.0557676"><ele>468.0</ele><time>2026-04-21T07:28:32.064Z</time></trkpt><trkpt lat="44.3525834" lon="8.0558105"><ele>468.0</ele><time>2026-04-21T07:28:33.063Z</time></trkpt><trkpt lat="44.3524289" lon="8.055855"><ele>468.0</ele><time>2026-04-21T07:28:34.07Z</time></trkpt><trkpt lat="44.3522807" lon="8.0558991"><ele>468.0</ele><time>2026-04-21T07:28:35.066Z</time></trkpt><trkpt lat="44.3521328" lon="8.0559427"><ele>466.0</ele><time>2026-04-21T07:28:36.071Z</time></trkpt><trkpt lat="44.3519929" lon="8.0559858"><ele>464.0</ele><time>2026-04-21T07:28:37.064Z</time></trkpt><trkpt lat="44.3517913" lon="8.0560334"><ele>462.0</ele><time>2026-04-21T07:28:38.077Z</time></trkpt><trkpt lat="44.3516372" lon="8.0560786"><ele>462.0</ele><time>2026-04-21T07:28:39.068Z</time></trkpt><trkpt lat="44.3514591" lon="8.0561248"><ele>462.0</ele><time>2026-04-21T07:28:40.07Z</time></trkpt><trkpt lat="44.3512637" lon="8.0561714"><ele>462.0</ele><time>2026-04-21T07:28:41.074Z</time></trkpt><trkpt lat="44.3510762" lon="8.0562168"><ele>459.66666666666663</ele><time>2026-04-21T07:28:42.068Z</time></trkpt><trkpt lat="44.3508841" lon="8.0562603"><ele>457.3333333333333</ele><time>2026-04-21T07:28:43.079Z</time></trkpt><trkpt lat="44.3506842" lon="8.0562992"><ele>455.0</ele><time>2026-04-21T07:28:44.073Z</time></trkpt><trkpt lat="44.3504952" lon="8.0563342"><ele>455.0</ele><time>2026-04-21T07:28:45.071Z</time></trkpt><trkpt lat="44.3503116" lon="8.0563735"><ele>455.0</ele><time>2026-04-21T07:28:46.063Z</time></trkpt><trkpt lat="44.3501231" lon="8.0564127"><ele>455.0</ele><time>2026-04-21T07:28:47.068Z</time></trkpt><trkpt lat="44.3499347" lon="8.0564491"><ele>455.0</ele><time>2026-04-21T07:28:48.067Z</time></trkpt><trkpt lat="44.3497429" lon="8.0564726"><ele>455.0</ele><time>2026-04-21T07:28:49.056Z</time></trkpt><trkpt lat="44.3495512" lon="8.0564789"><ele>455.0</ele><time>2026-04-21T07:28:50.073Z</time></trkpt><trkpt lat="44.3493611" lon="8.0564549"><ele>454.0</ele><time>2026-04-21T07:28:51.073Z</time></trkpt><trkpt lat="44.3491772" lon="8.0564507"><ele>453.0</ele><time>2026-04-21T07:28:52.061Z</time></trkpt><trkpt lat="44.348996" lon="8.0564929"><ele>452.0</ele><time>2026-04-21T07:28:53.085Z</time></trkpt><trkpt lat="44.348841" lon="8.0565849"><ele>452.3333333333333</ele><time>2026-04-21T07:28:54.069Z</time></trkpt><trkpt lat="44.3487083" lon="8.0567173"><ele>452.66666666666663</ele><time>2026-04-21T07:28:55.067Z</time></trkpt><trkpt lat="44.3486029" lon="8.056875"><ele>453.0</ele><time>2026-04-21T07:28:56.069Z</time></trkpt><trkpt lat="44.3485025" lon="8.0570591"><ele>453.0</ele><time>2026-04-21T07:28:57.076Z</time></trkpt><trkpt lat="44.3484027" lon="8.0572772"><ele>453.0</ele><time>2026-04-21T07:28:58.073Z</time></trkpt><trkpt lat="44.3482908" lon="8.0574617"><ele>453.0</ele><time>2026-04-21T07:28:59.067Z</time></trkpt><trkpt lat="44.3481491" lon="8.0576274"><ele>452.33333333333337</ele><time>2026-04-21T07:29:00.07Z</time></trkpt><trkpt lat="44.3479896" lon="8.057799"><ele>451.6666666666667</ele><time>2026-04-21T07:29:01.07Z</time></trkpt><trkpt lat="44.3478437" lon="8.0579617"><ele>451.0</ele><time>2026-04-21T07:29:02.065Z</time></trkpt><trkpt lat="44.3476981" lon="8.0581228"><ele>451.0</ele><time>2026-04-21T07:29:03.077Z</time></trkpt><trkpt lat="44.3475514" lon="8.0582821"><ele>451.0</ele><time>2026-04-21T07:29:04.067Z</time></trkpt><trkpt lat="44.3473998" lon="8.0584385"><ele>451.0</ele><time>2026-04-21T07:29:05.065Z</time></trkpt><trkpt lat="44.3472471" lon="8.0585963"><ele>451.33333333333337</ele><time>2026-04-21T07:29:06.067Z</time></trkpt><trkpt lat="44.3471036" lon="8.0587512"><ele>451.66666666666663</ele><time>2026-04-21T07:29:07.075Z</time></trkpt><trkpt lat="44.3469675" lon="8.0588897"><ele>452.0</ele><time>2026-04-21T07:29:08.071Z</time></trkpt><trkpt lat="44.3468432" lon="8.0590139"><ele>453.0</ele><time>2026-04-21T07:29:09.066Z</time></trkpt><trkpt lat="44.3467275" lon="8.059131"><ele>454.0</ele><time>2026-04-21T07:29:10.068Z</time></trkpt><trkpt lat="44.3466167" lon="8.0592465"><ele>455.0</ele><time>2026-04-21T07:29:11.069Z</time></trkpt><trkpt lat="44.3465044" lon="8.0593614"><ele>456.0</ele><time>2026-04-21T07:29:12.057Z</time></trkpt><trkpt lat="44.3463847" lon="8.0594686"><ele>453.0</ele><time>2026-04-21T07:29:13.07Z</time></trkpt><trkpt lat="44.3462533" lon="8.0595667"><ele>450.0</ele><time>2026-04-21T07:29:14.059Z</time></trkpt><trkpt lat="44.3461094" lon="8.0596517"><ele>447.0</ele><time>2026-04-21T07:29:15.085Z</time></trkpt><trkpt lat="44.3459571" lon="8.0597229"><ele>447.0</ele><time>2026-04-21T07:29:16.063Z</time></trkpt><trkpt lat="44.3458014" lon="8.0597894"><ele>447.0</ele><time>2026-04-21T07:29:17.078Z</time></trkpt><trkpt lat="44.3456547" lon="8.059866"><ele>447.0</ele><time>2026-04-21T07:29:18.066Z</time></trkpt><trkpt lat="44.345493" lon="8.0599443"><ele>448.66666666666663</ele><time>2026-04-21T07:29:19.068Z</time></trkpt><trkpt lat="44.3453452" lon="8.0600413"><ele>450.3333333333333</ele><time>2026-04-21T07:29:20.072Z</time></trkpt><trkpt lat="44.3452199" lon="8.0601736"><ele>452.0</ele><time>2026-04-21T07:29:21.072Z</time></trkpt><trkpt lat="44.34511" lon="8.0603328"><ele>452.0</ele><time>2026-04-21T07:29:22.067Z</time></trkpt><trkpt lat="44.3450214" lon="8.0605169"><ele>452.0</ele><time>2026-04-21T07:29:23.07Z</time></trkpt><trkpt lat="44.3449363" lon="8.0607148"><ele>452.0</ele><time>2026-04-21T07:29:24.068Z</time></trkpt><trkpt lat="44.3448478" lon="8.0609103"><ele>452.66666666666663</ele><time>2026-04-21T07:29:25.076Z</time></trkpt><trkpt lat="44.34476" lon="8.0611046"><ele>453.33333333333337</ele><time>2026-04-21T07:29:26.056Z</time></trkpt><trkpt lat="44.3446734" lon="8.0612995"><ele>454.0</ele><time>2026-04-21T07:29:27.063Z</time></trkpt><trkpt lat="44.3445868" lon="8.0614916"><ele>455.6666666666667</ele><time>2026-04-21T07:29:28.068Z</time></trkpt><trkpt lat="44.3444991" lon="8.0616865"><ele>457.33333333333337</ele><time>2026-04-21T07:29:29.078Z</time></trkpt><trkpt lat="44.34441" lon="8.0618813"><ele>459.0</ele><time>2026-04-21T07:29:30.075Z</time></trkpt><trkpt lat="44.34431" lon="8.0620652"><ele>459.0</ele><time>2026-04-21T07:29:31.078Z</time></trkpt><trkpt lat="44.3441852" lon="8.0622233"><ele>459.0</ele><time>2026-04-21T07:29:32.075Z</time></trkpt><trkpt lat="44.3440381" lon="8.0623309"><ele>459.0</ele><time>2026-04-21T07:29:33.08Z</time></trkpt><trkpt lat="44.3438748" lon="8.0623817"><ele>461.0</ele><time>2026-04-21T07:29:34.08Z</time></trkpt><trkpt lat="44.3437057" lon="8.0623786"><ele>463.0</ele><time>2026-04-21T07:29:35.078Z</time></trkpt><trkpt lat="44.3435441" lon="8.062323"><ele>465.0</ele><time>2026-04-21T07:29:36.069Z</time></trkpt><trkpt lat="44.3433941" lon="8.0622303"><ele>465.0</ele><time>2026-04-21T07:29:37.069Z</time></trkpt><trkpt lat="44.3432522" lon="8.0621276"><ele>465.0</ele><time>2026-04-21T07:29:38.07Z</time></trkpt><trkpt lat="44.3431178" lon="8.06203"><ele>465.0</ele><time>2026-04-21T07:29:39.074Z</time></trkpt><trkpt lat="44.3429863" lon="8.0619297"><ele>463.0</ele><time>2026-04-21T07:29:40.065Z</time></trkpt><trkpt lat="44.3428574" lon="8.0618236"><ele>461.0</ele><time>2026-04-21T07:29:41.058Z</time></trkpt><trkpt lat="44.3427392" lon="8.0617346"><ele>459.0</ele><time>2026-04-21T07:29:42.07Z</time></trkpt><trkpt lat="44.3426292" lon="8.06165"><ele>457.0</ele><time>2026-04-21T07:29:43.071Z</time></trkpt><trkpt lat="44.3425196" lon="8.061563"><ele>458.25</ele><time>2026-04-21T07:29:44.071Z</time></trkpt><trkpt lat="44.3424106" lon="8.0614753"><ele>459.5</ele><time>2026-04-21T07:29:45.077Z</time></trkpt><trkpt lat="44.342301" lon="8.0613892"><ele>460.75</ele><time>2026-04-21T07:29:46.067Z</time></trkpt><trkpt lat="44.3421894" lon="8.0613046"><ele>462.0</ele><time>2026-04-21T07:29:47.068Z</time></trkpt><trkpt lat="44.3420765" lon="8.0612197"><ele>462.0</ele><time>2026-04-21T07:29:48.065Z</time></trkpt><trkpt lat="44.3419626" lon="8.0611344"><ele>462.0</ele><time>2026-04-21T07:29:49.073Z</time></trkpt><trkpt lat="44.3418462" lon="8.0610535"><ele>462.0</ele><time>2026-04-21T07:29:50.066Z</time></trkpt><trkpt lat="44.3417285" lon="8.0609718"><ele>462.0</ele><time>2026-04-21T07:29:51.06Z</time></trkpt><trkpt lat="44.3416106" lon="8.0608998"><ele>462.0</ele><time>2026-04-21T07:29:52.063Z</time></trkpt><trkpt lat="44.3414881" lon="8.0608132"><ele>462.0</ele><time>2026-04-21T07:29:53.07Z</time></trkpt><trkpt lat="44.3413673" lon="8.0607232"><ele>462.0</ele><time>2026-04-21T07:29:54.063Z</time></trkpt><trkpt lat="44.3412467" lon="8.0606421"><ele>462.0</ele><time>2026-04-21T07:29:55.068Z</time></trkpt><trkpt lat="44.3411257" lon="8.0605597"><ele>463.5</ele><time>2026-04-21T07:29:56.074Z</time></trkpt><trkpt lat="44.3410041" lon="8.0604655"><ele>465.0</ele><time>2026-04-21T07:29:57.072Z</time></trkpt><trkpt lat="44.3408821" lon="8.0603806"><ele>466.5</ele><time>2026-04-21T07:29:58.06Z</time></trkpt><trkpt lat="44.3407598" lon="8.0602927"><ele>468.0</ele><time>2026-04-21T07:29:59.067Z</time></trkpt><trkpt lat="44.3406386" lon="8.0602055"><ele>468.0</ele><time>2026-04-21T07:30:00.055Z</time></trkpt><trkpt lat="44.3405154" lon="8.0601201"><ele>457.0</ele><time>2026-04-21T07:30:01.064Z</time></trkpt><trkpt lat="44.3403917" lon="8.0600327"><ele>457.0</ele><time>2026-04-21T07:30:02.057Z</time></trkpt></trkseg><trkseg><trkpt lat="44.337613" lon="8.0573286"><ele>461.0</ele><time>2026-04-21T07:43:34.907Z</time></trkpt><trkpt lat="44.3375547" lon="8.0572652"><ele>461.0</ele><time>2026-04-21T07:43:38.909Z</time></trkpt><trkpt lat="44.3374683" lon="8.0571841"><ele>461.0</ele><time>2026-04-21T07:43:40.907Z</time></trkpt><trkpt lat="44.3374102" lon="8.0571474"><ele>461.0</ele><time>2026-04-21T07:43:41.914Z</time></trkpt><trkpt lat="44.337303" lon="8.0571054"><ele>461.0</ele><time>2026-04-21T07:43:43.913Z</time></trkpt><trkpt lat="44.3371894" lon="8.0570424"><ele>461.4</ele><time>2026-04-21T07:43:45.911Z</time></trkpt><trkpt lat="44.3371136" lon="8.0569812"><ele>461.8</ele><time>2026-04-21T07:43:46.905Z</time></trkpt><trkpt lat="44.3370321" lon="8.0569077"><ele>462.19999999999993</ele><time>2026-04-21T07:43:47.914Z</time></trkpt><trkpt lat="44.3369367" lon="8.0568198"><ele>462.59999999999997</ele><time>2026-04-21T07:43:48.909Z</time></trkpt><trkpt lat="44.3368341" lon="8.0567225"><ele>463.0</ele><time>2026-04-21T07:43:49.912Z</time></trkpt><trkpt lat="44.3367267" lon="8.0566225"><ele>463.25</ele><time>2026-04-21T07:43:50.911Z</time></trkpt><trkpt lat="44.3366142" lon="8.0565217"><ele>463.5</ele><time>2026-04-21T07:43:51.922Z</time></trkpt><trkpt lat="44.3365008" lon="8.056415"><ele>463.75</ele><time>2026-04-21T07:43:52.917Z</time></trkpt><trkpt lat="44.3363859" lon="8.0563062"><ele>464.0</ele><time>2026-04-21T07:43:53.917Z</time></trkpt><trkpt lat="44.3362696" lon="8.0561958"><ele>463.5</ele><time>2026-04-21T07:43:54.934Z</time></trkpt><trkpt lat="44.3361555" lon="8.0560901"><ele>463.0</ele><time>2026-04-21T07:43:55.922Z</time></trkpt><trkpt lat="44.3360467" lon="8.0559913"><ele>462.5</ele><time>2026-04-21T07:43:56.928Z</time></trkpt><trkpt lat="44.3359431" lon="8.0558956"><ele>462.0</ele><time>2026-04-21T07:43:57.917Z</time></trkpt><trkpt lat="44.3358407" lon="8.0557983"><ele>462.5</ele><time>2026-04-21T07:43:58.921Z</time></trkpt><trkpt lat="44.3357358" lon="8.0556991"><ele>463.0</ele><time>2026-04-21T07:43:59.916Z</time></trkpt><trkpt lat="44.3356278" lon="8.0555976"><ele>463.5</ele><time>2026-04-21T07:44:00.918Z</time></trkpt><trkpt lat="44.3355145" lon="8.0554917"><ele>464.0</ele><time>2026-04-21T07:44:01.919Z</time></trkpt><trkpt lat="44.3353962" lon="8.0553803"><ele>464.0</ele><time>2026-04-21T07:44:02.918Z</time></trkpt><trkpt lat="44.3352727" lon="8.0552646"><ele>464.0</ele><time>2026-04-21T07:44:03.922Z</time></trkpt><trkpt lat="44.3351447" lon="8.0551453"><ele>464.0</ele><time>2026-04-21T07:44:04.931Z</time></trkpt><trkpt lat="44.3350094" lon="8.0550241"><ele>464.66666666666663</ele><time>2026-04-21T07:44:05.931Z</time></trkpt><trkpt lat="44.3348692" lon="8.0548964"><ele>465.33333333333337</ele><time>2026-04-21T07:44:06.92Z</time></trkpt><trkpt lat="44.3347261" lon="8.0547621"><ele>466.0</ele><time>2026-04-21T07:44:07.92Z</time></trkpt><trkpt lat="44.3345809" lon="8.0546255"><ele>466.0</ele><time>2026-04-21T07:44:08.922Z</time></trkpt><trkpt lat="44.334433" lon="8.0544912"><ele>466.0</ele><time>2026-04-21T07:44:09.915Z</time></trkpt><trkpt lat="44.334281" lon="8.0543635"><ele>466.0</ele><time>2026-04-21T07:44:10.927Z</time></trkpt><trkpt lat="44.3341202" lon="8.0542477"><ele>466.0</ele><time>2026-04-21T07:44:11.92Z</time></trkpt><trkpt lat="44.3339529" lon="8.0541462"><ele>466.0</ele><time>2026-04-21T07:44:12.923Z</time></trkpt><trkpt lat="44.3337767" lon="8.0540666"><ele>466.0</ele><time>2026-04-21T07:44:13.912Z</time></trkpt><trkpt lat="44.3335935" lon="8.0540062"><ele>466.6666666666667</ele><time>2026-04-21T07:44:14.916Z</time></trkpt><trkpt lat="44.3334081" lon="8.053957"><ele>467.33333333333337</ele><time>2026-04-21T07:44:15.923Z</time></trkpt><trkpt lat="44.3332207" lon="8.0539154"><ele>468.0</ele><time>2026-04-21T07:44:16.917Z</time></trkpt><trkpt lat="44.3330289" lon="8.0538745"><ele>468.0</ele><time>2026-04-21T07:44:17.924Z</time></trkpt><trkpt lat="44.3328334" lon="8.0538331"><ele>468.0</ele><time>2026-04-21T07:44:18.926Z</time></trkpt><trkpt lat="44.3326349" lon="8.0537925"><ele>468.0</ele><time>2026-04-21T07:44:19.911Z</time></trkpt><trkpt lat="44.3324349" lon="8.0537502"><ele>468.0</ele><time>2026-04-21T07:44:20.921Z</time></trkpt><trkpt lat="44.332236" lon="8.0537089"><ele>468.0</ele><time>2026-04-21T07:44:21.922Z</time></trkpt><trkpt lat="44.3320363" lon="8.0536694"><ele>468.0</ele><time>2026-04-21T07:44:22.918Z</time></trkpt><trkpt lat="44.3318352" lon="8.0536289"><ele>466.33333333333337</ele><time>2026-04-21T07:44:23.917Z</time></trkpt><trkpt lat="44.3316358" lon="8.053585"><ele>464.6666666666667</ele><time>2026-04-21T07:44:24.921Z</time></trkpt><trkpt lat="44.3314362" lon="8.0535364"><ele>463.0</ele><time>2026-04-21T07:44:25.922Z</time></trkpt><trkpt lat="44.331236" lon="8.0534889"><ele>462.6666666666667</ele><time>2026-04-21T07:44:26.911Z</time></trkpt><trkpt lat="44.3310338" lon="8.0534403"><ele>462.33333333333337</ele><time>2026-04-21T07:44:27.91Z</time></trkpt><trkpt lat="44.3308317" lon="8.053392"><ele>462.0</ele><time>2026-04-21T07:44:28.913Z</time></trkpt><trkpt lat="44.3306283" lon="8.0533439"><ele>462.0</ele><time>2026-04-21T07:44:29.914Z</time></trkpt><trkpt lat="44.3304264" lon="8.0532957"><ele>462.0</ele><time>2026-04-21T07:44:30.932Z</time></trkpt><trkpt lat="44.3302224" lon="8.0532484"><ele>462.0</ele><time>2026-04-21T07:44:31.924Z</time></trkpt><trkpt lat="44.3300167" lon="8.0531997"><ele>462.66666666666663</ele><time>2026-04-21T07:44:32.936Z</time></trkpt><trkpt lat="44.3298125" lon="8.0531522"><ele>463.3333333333333</ele><time>2026-04-21T07:44:33.928Z</time></trkpt><trkpt lat="44.3296096" lon="8.053107"><ele>464.0</ele><time>2026-04-21T07:44:34.921Z</time></trkpt><trkpt lat="44.3294054" lon="8.0530623"><ele>464.0</ele><time>2026-04-21T07:44:35.929Z</time></trkpt><trkpt lat="44.3292002" lon="8.0530172"><ele>464.0</ele><time>2026-04-21T07:44:36.918Z</time></trkpt><trkpt lat="44.3289938" lon="8.0529741"><ele>464.0</ele><time>2026-04-21T07:44:37.923Z</time></trkpt><trkpt lat="44.3287881" lon="8.0529275"><ele>464.0</ele><time>2026-04-21T07:44:38.924Z</time></trkpt><trkpt lat="44.3285824" lon="8.0528801"><ele>464.0</ele><time>2026-04-21T07:44:39.918Z</time></trkpt><trkpt lat="44.3283785" lon="8.052833"><ele>464.0</ele><time>2026-04-21T07:44:40.925Z</time></trkpt><trkpt lat="44.3281748" lon="8.0527863"><ele>464.3333333333333</ele><time>2026-04-21T07:44:41.915Z</time></trkpt><trkpt lat="44.3279708" lon="8.0527365"><ele>464.66666666666663</ele><time>2026-04-21T07:44:42.933Z</time></trkpt><trkpt lat="44.327765" lon="8.0526883"><ele>465.0</ele><time>2026-04-21T07:44:43.915Z</time></trkpt><trkpt lat="44.3275591" lon="8.0526431"><ele>465.0</ele><time>2026-04-21T07:44:44.922Z</time></trkpt><trkpt lat="44.3273557" lon="8.052596"><ele>465.0</ele><time>2026-04-21T07:44:45.918Z</time></trkpt><trkpt lat="44.3271522" lon="8.0525491"><ele>465.0</ele><time>2026-04-21T07:44:46.92Z</time></trkpt><trkpt lat="44.3269483" lon="8.0525051"><ele>465.0</ele><time>2026-04-21T07:44:47.928Z</time></trkpt><trkpt lat="44.3267447" lon="8.0524627"><ele>465.0</ele><time>2026-04-21T07:44:48.925Z</time></trkpt><trkpt lat="44.326541" lon="8.05242"><ele>465.0</ele><time>2026-04-21T07:44:49.932Z</time></trkpt><trkpt lat="44.3263357" lon="8.0523728"><ele>464.66666666666663</ele><time>2026-04-21T07:44:50.921Z</time></trkpt><trkpt lat="44.3261304" lon="8.0523215"><ele>464.3333333333333</ele><time>2026-04-21T07:44:51.929Z</time></trkpt><trkpt lat="44.3259254" lon="8.0522709"><ele>464.0</ele><time>2026-04-21T07:44:52.931Z</time></trkpt><trkpt lat="44.3257185" lon="8.0522236"><ele>464.66666666666663</ele><time>2026-04-21T07:44:53.916Z</time></trkpt><trkpt lat="44.3255098" lon="8.0521792"><ele>465.33333333333337</ele><time>2026-04-21T07:44:54.932Z</time></trkpt><trkpt lat="44.3253012" lon="8.052136"><ele>466.0</ele><time>2026-04-21T07:44:55.913Z</time></trkpt><trkpt lat="44.3250928" lon="8.0520923"><ele>466.0</ele><time>2026-04-21T07:44:56.922Z</time></trkpt><trkpt lat="44.3248836" lon="8.0520446"><ele>466.0</ele><time>2026-04-21T07:44:57.923Z</time></trkpt><trkpt lat="44.3246718" lon="8.0519974"><ele>466.0</ele><time>2026-04-21T07:44:58.915Z</time></trkpt><trkpt lat="44.324457" lon="8.0519502"><ele>466.6666666666667</ele><time>2026-04-21T07:44:59.929Z</time></trkpt><trkpt lat="44.3242421" lon="8.0519042"><ele>467.33333333333337</ele><time>2026-04-21T07:45:00.928Z</time></trkpt><trkpt lat="44.3240271" lon="8.0518559"><ele>468.0</ele><time>2026-04-21T07:45:01.934Z</time></trkpt><trkpt lat="44.3238125" lon="8.0518077"><ele>468.33333333333337</ele><time>2026-04-21T07:45:02.919Z</time></trkpt><trkpt lat="44.3235982" lon="8.0517579"><ele>468.6666666666667</ele><time>2026-04-21T07:45:03.923Z</time></trkpt><trkpt lat="44.3233819" lon="8.0517084"><ele>469.0</ele><time>2026-04-21T07:45:04.911Z</time></trkpt><trkpt lat="44.3231646" lon="8.0516615"><ele>470.6666666666667</ele><time>2026-04-21T07:45:05.914Z</time></trkpt><trkpt lat="44.3229456" lon="8.0516141"><ele>472.33333333333337</ele><time>2026-04-21T07:45:06.913Z</time></trkpt><trkpt lat="44.3227298" lon="8.0515669"><ele>474.0</ele><time>2026-04-21T07:45:07.928Z</time></trkpt><trkpt lat="44.3225144" lon="8.051517"><ele>474.0</ele><time>2026-04-21T07:45:08.919Z</time></trkpt><trkpt lat="44.3223002" lon="8.0514665"><ele>474.0</ele><time>2026-04-21T07:45:09.926Z</time></trkpt><trkpt lat="44.3220855" lon="8.0514168"><ele>474.0</ele><time>2026-04-21T07:45:10.921Z</time></trkpt><trkpt lat="44.3218684" lon="8.0513697"><ele>473.66666666666663</ele><time>2026-04-21T07:45:11.922Z</time></trkpt><trkpt lat="44.3216516" lon="8.0513235"><ele>473.3333333333333</ele><time>2026-04-21T07:45:12.928Z</time></trkpt><trkpt lat="44.3214371" lon="8.0512766"><ele>473.0</ele><time>2026-04-21T07:45:13.911Z</time></trkpt><trkpt lat="44.3212246" lon="8.0512267"><ele>472.3333333333333</ele><time>2026-04-21T07:45:14.913Z</time></trkpt><trkpt lat="44.3210111" lon="8.0511739"><ele>471.66666666666663</ele><time>2026-04-21T07:45:15.926Z</time></trkpt><trkpt lat="44.3207986" lon="8.0511192"><ele>471.0</ele><time>2026-04-21T07:45:16.918Z</time></trkpt><trkpt lat="44.3205839" lon="8.0510697"><ele>471.66666666666663</ele><time>2026-04-21T07:45:17.933Z</time></trkpt><trkpt lat="44.3203716" lon="8.0510237"><ele>472.3333333333333</ele><time>2026-04-21T07:45:18.923Z</time></trkpt><trkpt lat="44.3201604" lon="8.0509805"><ele>473.0</ele><time>2026-04-21T07:45:19.913Z</time></trkpt><trkpt lat="44.3199503" lon="8.0509369"><ele>473.0</ele><time>2026-04-21T07:45:20.934Z</time></trkpt><trkpt lat="44.3197427" lon="8.0508889"><ele>473.0</ele><time>2026-04-21T07:45:21.915Z</time></trkpt><trkpt lat="44.3195288" lon="8.0508281"><ele>473.0</ele><time>2026-04-21T07:45:22.935Z</time></trkpt><trkpt lat="44.3193233" lon="8.0507823"><ele>475.0</ele><time>2026-04-21T07:45:23.922Z</time></trkpt><trkpt lat="44.3191183" lon="8.0507373"><ele>477.0</ele><time>2026-04-21T07:45:24.919Z</time></trkpt><trkpt lat="44.3189124" lon="8.0506927"><ele>479.0</ele><time>2026-04-21T07:45:25.922Z</time></trkpt><trkpt lat="44.3187056" lon="8.0506398"><ele>479.0</ele><time>2026-04-21T07:45:26.928Z</time></trkpt><trkpt lat="44.318499" lon="8.050576"><ele>479.0</ele><time>2026-04-21T07:45:27.931Z</time></trkpt><trkpt lat="44.3182928" lon="8.0504998"><ele>479.0</ele><time>2026-04-21T07:45:28.92Z</time></trkpt><trkpt lat="44.3180888" lon="8.0504214"><ele>478.66666666666663</ele><time>2026-04-21T07:45:29.924Z</time></trkpt><trkpt lat="44.317882" lon="8.0503413"><ele>478.33333333333337</ele><time>2026-04-21T07:45:30.911Z</time></trkpt><trkpt lat="44.3176748" lon="8.0502596"><ele>478.0</ele><time>2026-04-21T07:45:31.929Z</time></trkpt><trkpt lat="44.3174709" lon="8.0501772"><ele>478.0</ele><time>2026-04-21T07:45:32.92Z</time></trkpt><trkpt lat="44.3172665" lon="8.0500948"><ele>478.0</ele><time>2026-04-21T07:45:33.933Z</time></trkpt><trkpt lat="44.3170597" lon="8.0500146"><ele>478.0</ele><time>2026-04-21T07:45:34.92Z</time></trkpt><trkpt lat="44.3168544" lon="8.0499366"><ele>479.0</ele><time>2026-04-21T07:45:35.922Z</time></trkpt><trkpt lat="44.3166576" lon="8.0498616"><ele>480.0</ele><time>2026-04-21T07:45:36.922Z</time></trkpt><trkpt lat="44.3164688" lon="8.0497899"><ele>481.0</ele><time>2026-04-21T07:45:37.932Z</time></trkpt><trkpt lat="44.3162859" lon="8.0497201"><ele>481.33333333333337</ele><time>2026-04-21T07:45:38.937Z</time></trkpt><trkpt lat="44.3161057" lon="8.0496507"><ele>481.66666666666663</ele><time>2026-04-21T07:45:39.936Z</time></trkpt><trkpt lat="44.3159252" lon="8.0495822"><ele>482.0</ele><time>2026-04-21T07:45:40.929Z</time></trkpt><trkpt lat="44.3157471" lon="8.0495137"><ele>482.0</ele><time>2026-04-21T07:45:41.934Z</time></trkpt><trkpt lat="44.3155705" lon="8.0494462"><ele>482.0</ele><time>2026-04-21T07:45:42.926Z</time></trkpt><trkpt lat="44.315396" lon="8.0493795"><ele>482.0</ele><time>2026-04-21T07:45:43.93Z</time></trkpt><trkpt lat="44.3152232" lon="8.0493119"><ele>481.0</ele><time>2026-04-21T07:45:44.921Z</time></trkpt><trkpt lat="44.3150502" lon="8.0492458"><ele>480.0</ele><time>2026-04-21T07:45:45.934Z</time></trkpt><trkpt lat="44.3148753" lon="8.0491804"><ele>479.0</ele><time>2026-04-21T07:45:46.933Z</time></trkpt><trkpt lat="44.3147016" lon="8.0491152"><ele>478.3333333333333</ele><time>2026-04-21T07:45:47.915Z</time></trkpt><trkpt lat="44.3145382" lon="8.0490508"><ele>477.66666666666663</ele><time>2026-04-21T07:45:48.92Z</time></trkpt><trkpt lat="44.3143829" lon="8.0489909"><ele>477.0</ele><time>2026-04-21T07:45:49.938Z</time></trkpt><trkpt lat="44.3142286" lon="8.0489316"><ele>477.0</ele><time>2026-04-21T07:45:50.929Z</time></trkpt><trkpt lat="44.3140747" lon="8.0488724"><ele>477.0</ele><time>2026-04-21T07:45:51.933Z</time></trkpt><trkpt lat="44.3139215" lon="8.0488147"><ele>477.0</ele><time>2026-04-21T07:45:52.935Z</time></trkpt><trkpt lat="44.3137695" lon="8.0487565"><ele>477.33333333333337</ele><time>2026-04-21T07:45:53.919Z</time></trkpt><trkpt lat="44.3136184" lon="8.0486992"><ele>477.6666666666667</ele><time>2026-04-21T07:45:54.92Z</time></trkpt><trkpt lat="44.3134663" lon="8.0486443"><ele>478.0</ele><time>2026-04-21T07:45:55.921Z</time></trkpt><trkpt lat="44.3133148" lon="8.0485876"><ele>478.0</ele><time>2026-04-21T07:45:56.928Z</time></trkpt><trkpt lat="44.3131626" lon="8.0485301"><ele>478.0</ele><time>2026-04-21T07:45:57.933Z</time></trkpt><trkpt lat="44.3130073" lon="8.0484683"><ele>478.0</ele><time>2026-04-21T07:45:58.92Z</time></trkpt><trkpt lat="44.3128503" lon="8.0484063"><ele>478.33333333333337</ele><time>2026-04-21T07:45:59.936Z</time></trkpt><trkpt lat="44.3126927" lon="8.0483473"><ele>478.66666666666663</ele><time>2026-04-21T07:46:00.923Z</time></trkpt><trkpt lat="44.3125351" lon="8.0482875"><ele>479.0</ele><time>2026-04-21T07:46:01.914Z</time></trkpt><trkpt lat="44.3123774" lon="8.0482277"><ele>480.0</ele><time>2026-04-21T07:46:02.922Z</time></trkpt><trkpt lat="44.3122189" lon="8.0481657"><ele>481.0</ele><time>2026-04-21T07:46:03.925Z</time></trkpt><trkpt lat="44.3120593" lon="8.0481005"><ele>482.0</ele><time>2026-04-21T07:46:04.923Z</time></trkpt><trkpt lat="44.3118967" lon="8.0480357"><ele>482.0</ele><time>2026-04-21T07:46:05.937Z</time></trkpt><trkpt lat="44.3117358" lon="8.0479742"><ele>482.0</ele><time>2026-04-21T07:46:06.935Z</time></trkpt><trkpt lat="44.3115742" lon="8.047914"><ele>482.0</ele><time>2026-04-21T07:46:07.924Z</time></trkpt><trkpt lat="44.3114119" lon="8.0478535"><ele>482.3333333333333</ele><time>2026-04-21T07:46:08.924Z</time></trkpt><trkpt lat="44.3112491" lon="8.0477924"><ele>482.66666666666663</ele><time>2026-04-21T07:46:09.922Z</time></trkpt><trkpt lat="44.3110848" lon="8.0477293"><ele>483.0</ele><time>2026-04-21T07:46:10.919Z</time></trkpt><trkpt lat="44.3109217" lon="8.0476653"><ele>483.0</ele><time>2026-04-21T07:46:11.923Z</time></trkpt><trkpt lat="44.3107588" lon="8.0476014"><ele>483.0</ele><time>2026-04-21T07:46:12.925Z</time></trkpt><trkpt lat="44.3105947" lon="8.04754"><ele>483.0</ele><time>2026-04-21T07:46:13.922Z</time></trkpt><trkpt lat="44.310431" lon="8.0474792"><ele>484.33333333333337</ele><time>2026-04-21T07:46:14.926Z</time></trkpt><trkpt lat="44.3102683" lon="8.0474159"><ele>485.6666666666667</ele><time>2026-04-21T07:46:15.924Z</time></trkpt><trkpt lat="44.3101056" lon="8.0473531"><ele>487.0</ele><time>2026-04-21T07:46:16.94Z</time></trkpt><trkpt lat="44.3099424" lon="8.0472921"><ele>487.0</ele><time>2026-04-21T07:46:17.933Z</time></trkpt><trkpt lat="44.309783" lon="8.0472322"><ele>487.0</ele><time>2026-04-21T07:46:18.924Z</time></trkpt><trkpt lat="44.3096247" lon="8.047173"><ele>487.0</ele><time>2026-04-21T07:46:19.933Z</time></trkpt><trkpt lat="44.3094746" lon="8.0471175"><ele>486.25</ele><time>2026-04-21T07:46:20.92Z</time></trkpt><trkpt lat="44.3093351" lon="8.047067"><ele>485.5</ele><time>2026-04-21T07:46:21.914Z</time></trkpt><trkpt lat="44.3092073" lon="8.0470214"><ele>484.75</ele><time>2026-04-21T07:46:22.935Z</time></trkpt><trkpt lat="44.3090843" lon="8.0469751"><ele>484.0</ele><time>2026-04-21T07:46:23.923Z</time></trkpt><trkpt lat="44.308964" lon="8.0469286"><ele>484.25</ele><time>2026-04-21T07:46:24.93Z</time></trkpt><trkpt lat="44.3088445" lon="8.0468847"><ele>484.5</ele><time>2026-04-21T07:46:25.916Z</time></trkpt><trkpt lat="44.3087251" lon="8.0468415"><ele>484.75</ele><time>2026-04-21T07:46:26.923Z</time></trkpt><trkpt lat="44.3086043" lon="8.0468003"><ele>485.0</ele><time>2026-04-21T07:46:27.919Z</time></trkpt><trkpt lat="44.3084836" lon="8.046758"><ele>485.0</ele><time>2026-04-21T07:46:28.92Z</time></trkpt><trkpt lat="44.3083606" lon="8.0467137"><ele>485.0</ele><time>2026-04-21T07:46:29.909Z</time></trkpt><trkpt lat="44.3082377" lon="8.0466637"><ele>485.0</ele><time>2026-04-21T07:46:30.926Z</time></trkpt><trkpt lat="44.3081133" lon="8.0466118"><ele>485.0</ele><time>2026-04-21T07:46:31.911Z</time></trkpt><trkpt lat="44.307987" lon="8.0465604"><ele>486.0</ele><time>2026-04-21T07:46:32.922Z</time></trkpt><trkpt lat="44.3078618" lon="8.0465125"><ele>487.0</ele><time>2026-04-21T07:46:33.916Z</time></trkpt><trkpt lat="44.3077496" lon="8.0464705"><ele>488.0</ele><time>2026-04-21T07:46:34.909Z</time></trkpt><trkpt lat="44.3076591" lon="8.0464395"><ele>489.0</ele><time>2026-04-21T07:46:35.915Z</time></trkpt><trkpt lat="44.3075958" lon="8.0464189"><ele>490.0</ele><time>2026-04-21T07:46:36.916Z</time></trkpt><trkpt lat="44.3075233" lon="8.0464019"><ele>490.0</ele><time>2026-04-21T07:46:39.92Z</time></trkpt><trkpt lat="44.3074493" lon="8.0464"><ele>490.0</ele><time>2026-04-21T07:46:45.922Z</time></trkpt><trkpt lat="44.3073717" lon="8.0463373"><ele>490.0</ele><time>2026-04-21T07:47:06.918Z</time></trkpt><trkpt lat="44.3072509" lon="8.0462965"><ele>490.0</ele><time>2026-04-21T07:47:08.93Z</time></trkpt><trkpt lat="44.3071707" lon="8.0462706"><ele>490.0</ele><time>2026-04-21T07:47:09.91Z</time></trkpt><trkpt lat="44.3070818" lon="8.0462394"><ele>489.25</ele><time>2026-04-21T07:47:10.915Z</time></trkpt><trkpt lat="44.3069803" lon="8.0462065"><ele>488.5</ele><time>2026-04-21T07:47:11.913Z</time></trkpt><trkpt lat="44.3068697" lon="8.0461684"><ele>487.75</ele><time>2026-04-21T07:47:12.927Z</time></trkpt><trkpt lat="44.3067546" lon="8.046128"><ele>487.0</ele><time>2026-04-21T07:47:13.912Z</time></trkpt><trkpt lat="44.3066322" lon="8.046084"><ele>487.0</ele><time>2026-04-21T07:47:14.917Z</time></trkpt><trkpt lat="44.3065075" lon="8.0460354"><ele>487.0</ele><time>2026-04-21T07:47:15.912Z</time></trkpt><trkpt lat="44.306386" lon="8.0459867"><ele>487.0</ele><time>2026-04-21T07:47:16.927Z</time></trkpt><trkpt lat="44.3062663" lon="8.0459391"><ele>487.0</ele><time>2026-04-21T07:47:17.911Z</time></trkpt><trkpt lat="44.3061511" lon="8.0458891"><ele>486.75</ele><time>2026-04-21T07:47:18.912Z</time></trkpt><trkpt lat="44.306034" lon="8.0458396"><ele>486.5</ele><time>2026-04-21T07:47:19.912Z</time></trkpt><trkpt lat="44.305914" lon="8.0457902"><ele>486.25</ele><time>2026-04-21T07:47:20.92Z</time></trkpt><trkpt lat="44.3057949" lon="8.0457414"><ele>486.0</ele><time>2026-04-21T07:47:21.919Z</time></trkpt><trkpt lat="44.3056756" lon="8.0456917"><ele>486.0</ele><time>2026-04-21T07:47:22.921Z</time></trkpt><trkpt lat="44.3055583" lon="8.0456431"><ele>486.0</ele><time>2026-04-21T07:47:23.923Z</time></trkpt><trkpt lat="44.3054405" lon="8.0456005"><ele>486.0</ele><time>2026-04-21T07:47:24.929Z</time></trkpt><trkpt lat="44.3053252" lon="8.045562"><ele>486.0</ele><time>2026-04-21T07:47:25.929Z</time></trkpt><trkpt lat="44.305213" lon="8.0455189"><ele>486.0</ele><time>2026-04-21T07:47:26.918Z</time></trkpt><trkpt lat="44.3051055" lon="8.0454729"><ele>486.0</ele><time>2026-04-21T07:47:27.924Z</time></trkpt><trkpt lat="44.3049949" lon="8.0454285"><ele>486.0</ele><time>2026-04-21T07:47:28.924Z</time></trkpt><trkpt lat="44.3048845" lon="8.0453829"><ele>486.0</ele><time>2026-04-21T07:47:29.92Z</time></trkpt><trkpt lat="44.3047752" lon="8.045336"><ele>486.5</ele><time>2026-04-21T07:47:30.93Z</time></trkpt><trkpt lat="44.3046666" lon="8.0452922"><ele>487.0</ele><time>2026-04-21T07:47:31.929Z</time></trkpt><trkpt lat="44.3045587" lon="8.0452481"><ele>487.5</ele><time>2026-04-21T07:47:32.935Z</time></trkpt><trkpt lat="44.3044485" lon="8.0452057"><ele>488.0</ele><time>2026-04-21T07:47:33.914Z</time></trkpt><trkpt lat="44.3043392" lon="8.0451644"><ele>488.0</ele><time>2026-04-21T07:47:34.91Z</time></trkpt><trkpt lat="44.3042293" lon="8.0451235"><ele>488.0</ele><time>2026-04-21T07:47:35.914Z</time></trkpt><trkpt lat="44.3041175" lon="8.0450825"><ele>488.0</ele><time>2026-04-21T07:47:36.935Z</time></trkpt><trkpt lat="44.3040056" lon="8.0450424"><ele>488.0</ele><time>2026-04-21T07:47:37.92Z</time></trkpt><trkpt lat="44.3038945" lon="8.0450017"><ele>489.5</ele><time>2026-04-21T07:47:38.931Z</time></trkpt><trkpt lat="44.3037829" lon="8.0449607"><ele>491.0</ele><time>2026-04-21T07:47:39.93Z</time></trkpt><trkpt lat="44.3036708" lon="8.0449229"><ele>492.5</ele><time>2026-04-21T07:47:40.917Z</time></trkpt><trkpt lat="44.30356" lon="8.0448849"><ele>494.0</ele><time>2026-04-21T07:47:41.924Z</time></trkpt><trkpt lat="44.3034509" lon="8.0448451"><ele>494.0</ele><time>2026-04-21T07:47:42.913Z</time></trkpt><trkpt lat="44.3033429" lon="8.0448021"><ele>494.0</ele><time>2026-04-21T07:47:43.93Z</time></trkpt><trkpt lat="44.3032358" lon="8.0447583"><ele>494.0</ele><time>2026-04-21T07:47:44.921Z</time></trkpt><trkpt lat="44.3031263" lon="8.044714"><ele>494.0</ele><time>2026-04-21T07:47:45.924Z</time></trkpt><trkpt lat="44.3030187" lon="8.044671"><ele>494.0</ele><time>2026-04-21T07:47:46.925Z</time></trkpt><trkpt lat="44.30291" lon="8.04463"><ele>494.0</ele><time>2026-04-21T07:47:47.929Z</time></trkpt><trkpt lat="44.3028007" lon="8.0445867"><ele>494.0</ele><time>2026-04-21T07:47:48.93Z</time></trkpt><trkpt lat="44.3026896" lon="8.0445445"><ele>494.0</ele><time>2026-04-21T07:47:49.92Z</time></trkpt><trkpt lat="44.3025776" lon="8.0445024"><ele>494.0</ele><time>2026-04-21T07:47:50.92Z</time></trkpt><trkpt lat="44.3024661" lon="8.0444563"><ele>494.0</ele><time>2026-04-21T07:47:51.924Z</time></trkpt><trkpt lat="44.302353" lon="8.0444088"><ele>494.0</ele><time>2026-04-21T07:47:52.922Z</time></trkpt><trkpt lat="44.3022326" lon="8.0443579"><ele>494.0</ele><time>2026-04-21T07:47:53.933Z</time></trkpt><trkpt lat="44.3021073" lon="8.0443117"><ele>493.75</ele><time>2026-04-21T07:47:54.924Z</time></trkpt><trkpt lat="44.3019828" lon="8.044272"><ele>493.5</ele><time>2026-04-21T07:47:55.932Z</time></trkpt><trkpt lat="44.3018604" lon="8.0442395"><ele>493.25</ele><time>2026-04-21T07:47:56.919Z</time></trkpt><trkpt lat="44.3017374" lon="8.0442254"><ele>493.0</ele><time>2026-04-21T07:47:57.921Z</time></trkpt><trkpt lat="44.3016133" lon="8.0442303"><ele>493.0</ele><time>2026-04-21T07:47:58.934Z</time></trkpt><trkpt lat="44.3014889" lon="8.0442706"><ele>493.0</ele><time>2026-04-21T07:47:59.93Z</time></trkpt><trkpt lat="44.301353" lon="8.0443273"><ele>493.0</ele><time>2026-04-21T07:48:00.931Z</time></trkpt><trkpt lat="44.3012204" lon="8.0443802"><ele>493.0</ele><time>2026-04-21T07:48:01.922Z</time></trkpt><trkpt lat="44.3010871" lon="8.044445"><ele>493.0</ele><time>2026-04-21T07:48:02.933Z</time></trkpt><trkpt lat="44.3009545" lon="8.0445151"><ele>493.0</ele><time>2026-04-21T07:48:03.938Z</time></trkpt><trkpt lat="44.3008237" lon="8.0445899"><ele>493.0</ele><time>2026-04-21T07:48:04.934Z</time></trkpt><trkpt lat="44.3006934" lon="8.0446646"><ele>493.0</ele><time>2026-04-21T07:48:05.921Z</time></trkpt><trkpt lat="44.300564" lon="8.0447419"><ele>491.6666666666667</ele><time>2026-04-21T07:48:06.92Z</time></trkpt><trkpt lat="44.3004284" lon="8.0448203"><ele>490.33333333333337</ele><time>2026-04-21T07:48:07.917Z</time></trkpt><trkpt lat="44.3002878" lon="8.0448972"><ele>489.0</ele><time>2026-04-21T07:48:08.925Z</time></trkpt><trkpt lat="44.3001394" lon="8.0449685"><ele>489.0</ele><time>2026-04-21T07:48:09.923Z</time></trkpt><trkpt lat="44.2999829" lon="8.0450286"><ele>489.0</ele><time>2026-04-21T07:48:10.936Z</time></trkpt><trkpt lat="44.2998174" lon="8.0450654"><ele>489.0</ele><time>2026-04-21T07:48:11.934Z</time></trkpt><trkpt lat="44.2996473" lon="8.0450682"><ele>488.66666666666663</ele><time>2026-04-21T07:48:12.923Z</time></trkpt><trkpt lat="44.2994794" lon="8.045019"><ele>488.3333333333333</ele><time>2026-04-21T07:48:13.922Z</time></trkpt><trkpt lat="44.2993225" lon="8.044913"><ele>488.0</ele><time>2026-04-21T07:48:14.923Z</time></trkpt><trkpt lat="44.2991862" lon="8.0447692"><ele>488.66666666666663</ele><time>2026-04-21T07:48:15.92Z</time></trkpt><trkpt lat="44.299092" lon="8.0445989"><ele>489.33333333333337</ele><time>2026-04-21T07:48:16.922Z</time></trkpt><trkpt lat="44.2990126" lon="8.0444104"><ele>490.0</ele><time>2026-04-21T07:48:17.923Z</time></trkpt><trkpt lat="44.2989427" lon="8.0442216"><ele>490.0</ele><time>2026-04-21T07:48:18.914Z</time></trkpt><trkpt lat="44.298876" lon="8.0440426"><ele>490.0</ele><time>2026-04-21T07:48:19.915Z</time></trkpt><trkpt lat="44.2987992" lon="8.043863"><ele>490.0</ele><time>2026-04-21T07:48:20.921Z</time></trkpt><trkpt lat="44.2987164" lon="8.0436895"><ele>490.0</ele><time>2026-04-21T07:48:21.935Z</time></trkpt><trkpt lat="44.2986258" lon="8.0435184"><ele>490.0</ele><time>2026-04-21T07:48:22.921Z</time></trkpt><trkpt lat="44.2985219" lon="8.0433587"><ele>490.0</ele><time>2026-04-21T07:48:23.909Z</time></trkpt><trkpt lat="44.2983996" lon="8.0432186"><ele>490.0</ele><time>2026-04-21T07:48:24.916Z</time></trkpt><trkpt lat="44.2982621" lon="8.0430913"><ele>490.6666666666667</ele><time>2026-04-21T07:48:25.916Z</time></trkpt><trkpt lat="44.2981186" lon="8.0429757"><ele>491.33333333333337</ele><time>2026-04-21T07:48:26.922Z</time></trkpt><trkpt lat="44.2979762" lon="8.0428508"><ele>492.0</ele><time>2026-04-21T07:48:27.924Z</time></trkpt><trkpt lat="44.2978321" lon="8.0427317"><ele>492.0</ele><time>2026-04-21T07:48:28.927Z</time></trkpt><trkpt lat="44.2976857" lon="8.0426336"><ele>492.0</ele><time>2026-04-21T07:48:29.927Z</time></trkpt><trkpt lat="44.2975359" lon="8.0425535"><ele>492.0</ele><time>2026-04-21T07:48:30.915Z</time></trkpt><trkpt lat="44.2973782" lon="8.0424698"><ele>492.66666666666663</ele><time>2026-04-21T07:48:31.916Z</time></trkpt><trkpt lat="44.2972271" lon="8.0423846"><ele>493.3333333333333</ele><time>2026-04-21T07:48:32.93Z</time></trkpt><trkpt lat="44.29708" lon="8.0422792"><ele>494.0</ele><time>2026-04-21T07:48:33.925Z</time></trkpt><trkpt lat="44.2969436" lon="8.0421567"><ele>494.0</ele><time>2026-04-21T07:48:34.918Z</time></trkpt><trkpt lat="44.2968138" lon="8.0420137"><ele>494.0</ele><time>2026-04-21T07:48:35.921Z</time></trkpt><trkpt lat="44.2966889" lon="8.0418569"><ele>494.0</ele><time>2026-04-21T07:48:36.923Z</time></trkpt><trkpt lat="44.2965778" lon="8.0416794"><ele>492.0</ele><time>2026-04-21T07:48:37.93Z</time></trkpt><trkpt lat="44.2964761" lon="8.0414806"><ele>490.0</ele><time>2026-04-21T07:48:38.916Z</time></trkpt><trkpt lat="44.2963904" lon="8.0412621"><ele>488.0</ele><time>2026-04-21T07:48:39.931Z</time></trkpt><trkpt lat="44.2963118" lon="8.0410251"><ele>489.3333333333333</ele><time>2026-04-21T07:48:40.914Z</time></trkpt><trkpt lat="44.2962252" lon="8.0407815"><ele>490.66666666666663</ele><time>2026-04-21T07:48:41.929Z</time></trkpt><trkpt lat="44.2961374" lon="8.0405365"><ele>492.0</ele><time>2026-04-21T07:48:42.918Z</time></trkpt><trkpt lat="44.2960438" lon="8.0402874"><ele>492.0</ele><time>2026-04-21T07:48:43.923Z</time></trkpt><trkpt lat="44.2959409" lon="8.0400322"><ele>492.0</ele><time>2026-04-21T07:48:44.933Z</time></trkpt><trkpt lat="44.295828" lon="8.0397859"><ele>492.0</ele><time>2026-04-21T07:48:45.923Z</time></trkpt><trkpt lat="44.2956991" lon="8.0395404"><ele>492.0</ele><time>2026-04-21T07:48:46.935Z</time></trkpt><trkpt lat="44.2955599" lon="8.0392959"><ele>492.0</ele><time>2026-04-21T07:48:47.923Z</time></trkpt><trkpt lat="44.2954139" lon="8.0390443"><ele>492.0</ele><time>2026-04-21T07:48:48.923Z</time></trkpt><trkpt lat="44.2952616" lon="8.0387877"><ele>492.0</ele><time>2026-04-21T07:48:49.92Z</time></trkpt><trkpt lat="44.2951076" lon="8.0385294"><ele>493.5</ele><time>2026-04-21T07:48:50.919Z</time></trkpt><trkpt lat="44.2949546" lon="8.0382673"><ele>495.0</ele><time>2026-04-21T07:48:51.908Z</time></trkpt><trkpt lat="44.2948019" lon="8.0379974"><ele>495.0</ele><time>2026-04-21T07:48:52.933Z</time></trkpt><trkpt lat="44.2946542" lon="8.0377244"><ele>495.0</ele><time>2026-04-21T07:48:53.936Z</time></trkpt><trkpt lat="44.2945083" lon="8.0374463"><ele>495.0</ele><time>2026-04-21T07:48:54.932Z</time></trkpt><trkpt lat="44.2943682" lon="8.0371689"><ele>495.0</ele><time>2026-04-21T07:48:55.915Z</time></trkpt><trkpt lat="44.2942273" lon="8.0368924"><ele>496.5</ele><time>2026-04-21T07:48:56.921Z</time></trkpt><trkpt lat="44.294084" lon="8.0366233"><ele>498.0</ele><time>2026-04-21T07:48:57.933Z</time></trkpt><trkpt lat="44.2939365" lon="8.0363691"><ele>497.0</ele><time>2026-04-21T07:48:58.923Z</time></trkpt><trkpt lat="44.2937795" lon="8.0361357"><ele>496.0</ele><time>2026-04-21T07:48:59.923Z</time></trkpt><trkpt lat="44.2936048" lon="8.0359411"><ele>496.0</ele><time>2026-04-21T07:49:00.91Z</time></trkpt><trkpt lat="44.2933959" lon="8.0358129"><ele>496.0</ele><time>2026-04-21T07:49:01.937Z</time></trkpt><trkpt lat="44.2931843" lon="8.0357224"><ele>496.0</ele><time>2026-04-21T07:49:02.932Z</time></trkpt><trkpt lat="44.2929637" lon="8.0356504"><ele>497.0</ele><time>2026-04-21T07:49:03.918Z</time></trkpt><trkpt lat="44.2927372" lon="8.0355664"><ele>498.0</ele><time>2026-04-21T07:49:04.924Z</time></trkpt><trkpt lat="44.2925124" lon="8.0354788"><ele>498.0</ele><time>2026-04-21T07:49:05.932Z</time></trkpt><trkpt lat="44.292289" lon="8.0353889"><ele>498.0</ele><time>2026-04-21T07:49:06.911Z</time></trkpt><trkpt lat="44.2920625" lon="8.035298"><ele>497.0</ele><time>2026-04-21T07:49:07.935Z</time></trkpt><trkpt lat="44.2918378" lon="8.0352063"><ele>496.0</ele><time>2026-04-21T07:49:08.918Z</time></trkpt><trkpt lat="44.2916098" lon="8.0351178"><ele>497.5</ele><time>2026-04-21T07:49:09.923Z</time></trkpt><trkpt lat="44.2913809" lon="8.0350264"><ele>499.0</ele><time>2026-04-21T07:49:10.916Z</time></trkpt><trkpt lat="44.2911548" lon="8.0349302"><ele>499.0</ele><time>2026-04-21T07:49:11.921Z</time></trkpt><trkpt lat="44.2909301" lon="8.0348339"><ele>499.0</ele><time>2026-04-21T07:49:12.927Z</time></trkpt><trkpt lat="44.2907018" lon="8.0347402"><ele>498.0</ele><time>2026-04-21T07:49:13.929Z</time></trkpt><trkpt lat="44.2904727" lon="8.0346463"><ele>497.0</ele><time>2026-04-21T07:49:14.926Z</time></trkpt><trkpt lat="44.2902418" lon="8.0345539"><ele>497.0</ele><time>2026-04-21T07:49:15.924Z</time></trkpt><trkpt lat="44.2900099" lon="8.0344627"><ele>497.0</ele><time>2026-04-21T07:49:16.916Z</time></trkpt><trkpt lat="44.2897797" lon="8.0343712"><ele>496.5</ele><time>2026-04-21T07:49:17.924Z</time></trkpt><trkpt lat="44.2895499" lon="8.0342801"><ele>496.0</ele><time>2026-04-21T07:49:18.93Z</time></trkpt><trkpt lat="44.2893211" lon="8.0341892"><ele>500.5</ele><time>2026-04-21T07:49:19.929Z</time></trkpt><trkpt lat="44.2890904" lon="8.0340952"><ele>505.0</ele><time>2026-04-21T07:49:20.932Z</time></trkpt><trkpt lat="44.2888626" lon="8.0339954"><ele>506.0</ele><time>2026-04-21T07:49:21.917Z</time></trkpt><trkpt lat="44.2886372" lon="8.0338857"><ele>507.0</ele><time>2026-04-21T07:49:22.919Z</time></trkpt><trkpt lat="44.2884168" lon="8.0337665"><ele>507.0</ele><time>2026-04-21T07:49:23.922Z</time></trkpt><trkpt lat="44.2881986" lon="8.0336427"><ele>507.0</ele><time>2026-04-21T07:49:24.92Z</time></trkpt><trkpt lat="44.2879778" lon="8.0335251"><ele>505.0</ele><time>2026-04-21T07:49:25.936Z</time></trkpt><trkpt lat="44.2877538" lon="8.0334251"><ele>503.0</ele><time>2026-04-21T07:49:26.911Z</time></trkpt><trkpt lat="44.2875278" lon="8.0333405"><ele>511.0</ele><time>2026-04-21T07:49:27.921Z</time></trkpt><trkpt lat="44.2872988" lon="8.0332778"><ele>519.0</ele><time>2026-04-21T07:49:28.926Z</time></trkpt><trkpt lat="44.2870706" lon="8.0332241"><ele>519.0</ele><time>2026-04-21T07:49:29.911Z</time></trkpt><trkpt lat="44.2868438" lon="8.03317"><ele>519.0</ele><time>2026-04-21T07:49:30.915Z</time></trkpt><trkpt lat="44.2866103" lon="8.0331147"><ele>516.0</ele><time>2026-04-21T07:49:31.927Z</time></trkpt><trkpt lat="44.2863769" lon="8.0330588"><ele>513.0</ele><time>2026-04-21T07:49:32.921Z</time></trkpt><trkpt lat="44.2861417" lon="8.0329947"><ele>513.0</ele><time>2026-04-21T07:49:33.919Z</time></trkpt><trkpt lat="44.2859088" lon="8.0329236"><ele>513.0</ele><time>2026-04-21T07:49:34.919Z</time></trkpt><trkpt lat="44.2856761" lon="8.0328481"><ele>512.5</ele><time>2026-04-21T07:49:35.913Z</time></trkpt><trkpt lat="44.2854454" lon="8.0327754"><ele>512.0</ele><time>2026-04-21T07:49:36.912Z</time></trkpt><trkpt lat="44.2852153" lon="8.0327168"><ele>512.0</ele><time>2026-04-21T07:49:37.926Z</time></trkpt><trkpt lat="44.2849888" lon="8.032686"><ele>512.0</ele><time>2026-04-21T07:49:38.928Z</time></trkpt><trkpt lat="44.2847673" lon="8.032697"><ele>512.0</ele><time>2026-04-21T07:49:39.914Z</time></trkpt><trkpt lat="44.2845413" lon="8.0327443"><ele>512.0</ele><time>2026-04-21T07:49:40.925Z</time></trkpt><trkpt lat="44.2843169" lon="8.0327829"><ele>512.0</ele><time>2026-04-21T07:49:41.921Z</time></trkpt><trkpt lat="44.2840893" lon="8.0327769"><ele>511.0</ele><time>2026-04-21T07:49:42.922Z</time></trkpt><trkpt lat="44.2838615" lon="8.032738"><ele>510.0</ele><time>2026-04-21T07:49:43.912Z</time></trkpt><trkpt lat="44.2836317" lon="8.0327048"><ele>510.0</ele><time>2026-04-21T07:49:44.917Z</time></trkpt><trkpt lat="44.2833936" lon="8.0327106"><ele>510.0</ele><time>2026-04-21T07:49:45.915Z</time></trkpt><trkpt lat="44.283154" lon="8.0327662"><ele>521.5</ele><time>2026-04-21T07:49:46.915Z</time></trkpt><trkpt lat="44.2829246" lon="8.0328613"><ele>533.0</ele><time>2026-04-21T07:49:47.92Z</time></trkpt><trkpt lat="44.282708" lon="8.0329859"><ele>533.0</ele><time>2026-04-21T07:49:48.92Z</time></trkpt><trkpt lat="44.2825039" lon="8.033136"><ele>533.0</ele><time>2026-04-21T07:49:49.91Z</time></trkpt><trkpt lat="44.2823045" lon="8.0332992"><ele>531.5</ele><time>2026-04-21T07:49:50.928Z</time></trkpt><trkpt lat="44.2821014" lon="8.0334636"><ele>530.0</ele><time>2026-04-21T07:49:51.918Z</time></trkpt><trkpt lat="44.2819063" lon="8.0336393"><ele>530.0</ele><time>2026-04-21T07:49:52.926Z</time></trkpt><trkpt lat="44.2817135" lon="8.0338182"><ele>530.0</ele><time>2026-04-21T07:49:53.919Z</time></trkpt><trkpt lat="44.2815217" lon="8.0339922"><ele>519.5</ele><time>2026-04-21T07:49:54.921Z</time></trkpt><trkpt lat="44.2813308" lon="8.0341647"><ele>509.0</ele><time>2026-04-21T07:49:55.922Z</time></trkpt><trkpt lat="44.2811385" lon="8.0343324"><ele>509.0</ele><time>2026-04-21T07:49:56.916Z</time></trkpt><trkpt lat="44.2809492" lon="8.0344922"><ele>509.0</ele><time>2026-04-21T07:49:57.926Z</time></trkpt><trkpt lat="44.280763" lon="8.0346474"><ele>509.0</ele><time>2026-04-21T07:49:58.916Z</time></trkpt><trkpt lat="44.280578" lon="8.0347886"><ele>508.3333333333333</ele><time>2026-04-21T07:49:59.913Z</time></trkpt><trkpt lat="44.2803993" lon="8.0349198"><ele>507.66666666666663</ele><time>2026-04-21T07:50:00.924Z</time></trkpt><trkpt lat="44.2802291" lon="8.0350378"><ele>507.0</ele><time>2026-04-21T07:50:01.92Z</time></trkpt><trkpt lat="44.2800711" lon="8.0351343"><ele>507.0</ele><time>2026-04-21T07:50:02.929Z</time></trkpt><trkpt lat="44.279914" lon="8.0351946"><ele>507.0</ele><time>2026-04-21T07:50:03.925Z</time></trkpt><trkpt lat="44.2797585" lon="8.0351961"><ele>507.0</ele><time>2026-04-21T07:50:04.909Z</time></trkpt><trkpt lat="44.2796086" lon="8.0351528"><ele>507.0</ele><time>2026-04-21T07:50:05.927Z</time></trkpt><trkpt lat="44.2794655" lon="8.0350775"><ele>507.0</ele><time>2026-04-21T07:50:06.915Z</time></trkpt><trkpt lat="44.2793449" lon="8.0349832"><ele>507.0</ele><time>2026-04-21T07:50:07.92Z</time></trkpt><trkpt lat="44.2792346" lon="8.0348692"><ele>507.0</ele><time>2026-04-21T07:50:08.91Z</time></trkpt><trkpt lat="44.2791324" lon="8.0347373"><ele>508.0</ele><time>2026-04-21T07:50:09.919Z</time></trkpt><trkpt lat="44.2790305" lon="8.0346047"><ele>509.0</ele><time>2026-04-21T07:50:10.915Z</time></trkpt><trkpt lat="44.2789174" lon="8.0344845"><ele>510.0</ele><time>2026-04-21T07:50:11.92Z</time></trkpt><trkpt lat="44.2787843" lon="8.0344076"><ele>511.0</ele><time>2026-04-21T07:50:12.92Z</time></trkpt><trkpt lat="44.2786181" lon="8.0343591"><ele>511.0</ele><time>2026-04-21T07:50:13.92Z</time></trkpt><trkpt lat="44.278467" lon="8.0343645"><ele>511.0</ele><time>2026-04-21T07:50:14.919Z</time></trkpt><trkpt lat="44.2783043" lon="8.0343741"><ele>511.0</ele><time>2026-04-21T07:50:15.912Z</time></trkpt><trkpt lat="44.2781388" lon="8.034379"><ele>511.6666666666667</ele><time>2026-04-21T07:50:16.917Z</time></trkpt><trkpt lat="44.2779803" lon="8.0343838"><ele>512.3333333333334</ele><time>2026-04-21T07:50:17.927Z</time></trkpt><trkpt lat="44.2778108" lon="8.0343817"><ele>513.0</ele><time>2026-04-21T07:50:18.926Z</time></trkpt><trkpt lat="44.2776264" lon="8.0343783"><ele>513.0</ele><time>2026-04-21T07:50:19.917Z</time></trkpt><trkpt lat="44.2774413" lon="8.0343788"><ele>513.0</ele><time>2026-04-21T07:50:20.917Z</time></trkpt><trkpt lat="44.2772582" lon="8.0343784"><ele>513.0</ele><time>2026-04-21T07:50:21.923Z</time></trkpt><trkpt lat="44.2770812" lon="8.0343773"><ele>514.6666666666666</ele><time>2026-04-21T07:50:22.919Z</time></trkpt><trkpt lat="44.2768865" lon="8.0343662"><ele>516.3333333333333</ele><time>2026-04-21T07:50:23.924Z</time></trkpt><trkpt lat="44.2766846" lon="8.0343538"><ele>518.0</ele><time>2026-04-21T07:50:24.922Z</time></trkpt><trkpt lat="44.2764934" lon="8.0343449"><ele>517.6666666666666</ele><time>2026-04-21T07:50:25.917Z</time></trkpt><trkpt lat="44.2763075" lon="8.0343336"><ele>517.3333333333334</ele><time>2026-04-21T07:50:26.924Z</time></trkpt><trkpt lat="44.2761252" lon="8.0342985"><ele>517.0</ele><time>2026-04-21T07:50:27.924Z</time></trkpt><trkpt lat="44.2759564" lon="8.0342114"><ele>519.0</ele><time>2026-04-21T07:50:28.927Z</time></trkpt><trkpt lat="44.2758028" lon="8.0340832"><ele>521.0</ele><time>2026-04-21T07:50:29.922Z</time></trkpt><trkpt lat="44.2756531" lon="8.0339538"><ele>523.0</ele><time>2026-04-21T07:50:30.921Z</time></trkpt><trkpt lat="44.2755111" lon="8.0338317"><ele>523.0</ele><time>2026-04-21T07:50:31.926Z</time></trkpt><trkpt lat="44.2753714" lon="8.0337127"><ele>523.0</ele><time>2026-04-21T07:50:32.918Z</time></trkpt><trkpt lat="44.2752331" lon="8.0335919"><ele>523.0</ele><time>2026-04-21T07:50:33.916Z</time></trkpt><trkpt lat="44.2750996" lon="8.0334703"><ele>523.0</ele><time>2026-04-21T07:50:34.925Z</time></trkpt><trkpt lat="44.2749701" lon="8.0333508"><ele>523.0</ele><time>2026-04-21T07:50:35.919Z</time></trkpt><trkpt lat="44.2748594" lon="8.0332186"><ele>523.0</ele><time>2026-04-21T07:50:36.914Z</time></trkpt><trkpt lat="44.2747631" lon="8.0330568"><ele>521.6666666666667</ele><time>2026-04-21T07:50:37.914Z</time></trkpt><trkpt lat="44.2746715" lon="8.0328847"><ele>520.3333333333334</ele><time>2026-04-21T07:50:38.905Z</time></trkpt><trkpt lat="44.2745813" lon="8.0327042"><ele>519.0</ele><time>2026-04-21T07:50:39.911Z</time></trkpt><trkpt lat="44.2744898" lon="8.032514"><ele>524.3333333333334</ele><time>2026-04-21T07:50:40.916Z</time></trkpt><trkpt lat="44.2744023" lon="8.0323114"><ele>529.6666666666667</ele><time>2026-04-21T07:50:41.91Z</time></trkpt><trkpt lat="44.2743197" lon="8.0321017"><ele>535.0</ele><time>2026-04-21T07:50:42.925Z</time></trkpt><trkpt lat="44.2742386" lon="8.0318853"><ele>535.0</ele><time>2026-04-21T07:50:43.916Z</time></trkpt><trkpt lat="44.2741529" lon="8.0316673"><ele>535.0</ele><time>2026-04-21T07:50:44.908Z</time></trkpt><trkpt lat="44.2740582" lon="8.0314667"><ele>535.0</ele><time>2026-04-21T07:50:45.921Z</time></trkpt><trkpt lat="44.273952" lon="8.0312827"><ele>531.6666666666667</ele><time>2026-04-21T07:50:46.915Z</time></trkpt><trkpt lat="44.273831" lon="8.031121"><ele>528.3333333333334</ele><time>2026-04-21T07:50:47.924Z</time></trkpt><trkpt lat="44.2736918" lon="8.0309881"><ele>525.0</ele><time>2026-04-21T07:50:48.917Z</time></trkpt><trkpt lat="44.2735377" lon="8.0309023"><ele>525.0</ele><time>2026-04-21T07:50:49.918Z</time></trkpt><trkpt lat="44.2733656" lon="8.030854"><ele>525.0</ele><time>2026-04-21T07:50:50.924Z</time></trkpt><trkpt lat="44.273177" lon="8.0308217"><ele>525.0</ele><time>2026-04-21T07:50:51.918Z</time></trkpt><trkpt lat="44.2729885" lon="8.0307836"><ele>524.0</ele><time>2026-04-21T07:50:52.927Z</time></trkpt><trkpt lat="44.2727908" lon="8.0307404"><ele>523.0</ele><time>2026-04-21T07:50:53.922Z</time></trkpt><trkpt lat="44.2725895" lon="8.0306911"><ele>522.0</ele><time>2026-04-21T07:50:54.923Z</time></trkpt><trkpt lat="44.2724003" lon="8.0306313"><ele>521.0</ele><time>2026-04-21T07:50:55.916Z</time></trkpt><trkpt lat="44.2722121" lon="8.0305657"><ele>520.0</ele><time>2026-04-21T07:50:56.931Z</time></trkpt><trkpt lat="44.2720227" lon="8.0305046"><ele>519.0</ele><time>2026-04-21T07:50:57.922Z</time></trkpt><trkpt lat="44.2718325" lon="8.0304443"><ele>519.0</ele><time>2026-04-21T07:50:58.925Z</time></trkpt><trkpt lat="44.2716467" lon="8.0303847"><ele>519.0</ele><time>2026-04-21T07:50:59.925Z</time></trkpt><trkpt lat="44.2714615" lon="8.0303256"><ele>519.0</ele><time>2026-04-21T07:51:00.925Z</time></trkpt><trkpt lat="44.2712761" lon="8.0302667"><ele>519.6666666666666</ele><time>2026-04-21T07:51:01.926Z</time></trkpt><trkpt lat="44.2710903" lon="8.0302113"><ele>520.3333333333333</ele><time>2026-04-21T07:51:02.915Z</time></trkpt><trkpt lat="44.2709061" lon="8.0301587"><ele>521.0</ele><time>2026-04-21T07:51:03.913Z</time></trkpt><trkpt lat="44.2707245" lon="8.0301092"><ele>520.0</ele><time>2026-04-21T07:51:04.915Z</time></trkpt><trkpt lat="44.2705411" lon="8.0300611"><ele>519.0</ele><time>2026-04-21T07:51:05.918Z</time></trkpt><trkpt lat="44.2703597" lon="8.0300123"><ele>518.0</ele><time>2026-04-21T07:51:06.93Z</time></trkpt><trkpt lat="44.27018" lon="8.0299583"><ele>518.3333333333333</ele><time>2026-04-21T07:51:07.911Z</time></trkpt><trkpt lat="44.2700006" lon="8.0299013"><ele>518.6666666666666</ele><time>2026-04-21T07:51:08.93Z</time></trkpt><trkpt lat="44.2698229" lon="8.0298437"><ele>519.0</ele><time>2026-04-21T07:51:09.912Z</time></trkpt><trkpt lat="44.269644" lon="8.0297829"><ele>519.0</ele><time>2026-04-21T07:51:10.922Z</time></trkpt><trkpt lat="44.2694639" lon="8.0297196"><ele>519.0</ele><time>2026-04-21T07:51:11.917Z</time></trkpt><trkpt lat="44.269286" lon="8.0296464"><ele>519.0</ele><time>2026-04-21T07:51:12.915Z</time></trkpt><trkpt lat="44.2691122" lon="8.0295574"><ele>518.0</ele><time>2026-04-21T07:51:13.924Z</time></trkpt><trkpt lat="44.2689393" lon="8.0294508"><ele>517.0</ele><time>2026-04-21T07:51:14.924Z</time></trkpt><trkpt lat="44.268764" lon="8.0293345"><ele>516.0</ele><time>2026-04-21T07:51:15.929Z</time></trkpt><trkpt lat="44.2685872" lon="8.029219"><ele>516.0</ele><time>2026-04-21T07:51:16.933Z</time></trkpt><trkpt lat="44.2684082" lon="8.0291061"><ele>516.0</ele><time>2026-04-21T07:51:17.922Z</time></trkpt><trkpt lat="44.2682273" lon="8.028992"><ele>516.0</ele><time>2026-04-21T07:51:18.923Z</time></trkpt><trkpt lat="44.2680422" lon="8.0288789"><ele>516.6666666666666</ele><time>2026-04-21T07:51:19.917Z</time></trkpt><trkpt lat="44.2678556" lon="8.0287661"><ele>517.3333333333333</ele><time>2026-04-21T07:51:20.919Z</time></trkpt><trkpt lat="44.2676713" lon="8.0286488"><ele>518.0</ele><time>2026-04-21T07:51:21.919Z</time></trkpt><trkpt lat="44.2674868" lon="8.0285321"><ele>518.0</ele><time>2026-04-21T07:51:22.923Z</time></trkpt><trkpt lat="44.2673024" lon="8.028418"><ele>518.0</ele><time>2026-04-21T07:51:23.91Z</time></trkpt><trkpt lat="44.2671179" lon="8.0283036"><ele>518.0</ele><time>2026-04-21T07:51:24.928Z</time></trkpt><trkpt lat="44.2669361" lon="8.0281883"><ele>518.6666666666666</ele><time>2026-04-21T07:51:25.913Z</time></trkpt><trkpt lat="44.2667564" lon="8.0280741"><ele>519.3333333333334</ele><time>2026-04-21T07:51:26.915Z</time></trkpt><trkpt lat="44.266576" lon="8.0279637"><ele>520.0</ele><time>2026-04-21T07:51:27.918Z</time></trkpt><trkpt lat="44.266396" lon="8.0278493"><ele>520.6666666666667</ele><time>2026-04-21T07:51:28.927Z</time></trkpt><trkpt lat="44.266217" lon="8.0277337"><ele>521.3333333333334</ele><time>2026-04-21T07:51:29.93Z</time></trkpt><trkpt lat="44.2660368" lon="8.0276183"><ele>522.0</ele><time>2026-04-21T07:51:30.929Z</time></trkpt><trkpt lat="44.2658577" lon="8.0275059"><ele>523.0</ele><time>2026-04-21T07:51:31.929Z</time></trkpt><trkpt lat="44.2656813" lon="8.0273951"><ele>524.0</ele><time>2026-04-21T07:51:32.929Z</time></trkpt><trkpt lat="44.265507" lon="8.0272876"><ele>525.0</ele><time>2026-04-21T07:51:33.922Z</time></trkpt><trkpt lat="44.2653332" lon="8.0271779"><ele>525.6666666666666</ele><time>2026-04-21T07:51:34.93Z</time></trkpt><trkpt lat="44.265159" lon="8.0270697"><ele>526.3333333333333</ele><time>2026-04-21T07:51:35.922Z</time></trkpt><trkpt lat="44.2649871" lon="8.02696"><ele>527.0</ele><time>2026-04-21T07:51:36.932Z</time></trkpt><trkpt lat="44.2648137" lon="8.0268475"><ele>527.6666666666666</ele><time>2026-04-21T07:51:37.92Z</time></trkpt><trkpt lat="44.2646376" lon="8.0267356"><ele>528.3333333333334</ele><time>2026-04-21T07:51:38.934Z</time></trkpt><trkpt lat="44.2644597" lon="8.0266258"><ele>529.0</ele><time>2026-04-21T07:51:39.926Z</time></trkpt><trkpt lat="44.2642806" lon="8.0265121"><ele>529.0</ele><time>2026-04-21T07:51:40.928Z</time></trkpt><trkpt lat="44.264102" lon="8.0264002"><ele>529.0</ele><time>2026-04-21T07:51:41.915Z</time></trkpt><trkpt lat="44.2639222" lon="8.0262879"><ele>529.0</ele><time>2026-04-21T07:51:42.923Z</time></trkpt><trkpt lat="44.2637429" lon="8.0261721"><ele>529.0</ele><time>2026-04-21T07:51:43.919Z</time></trkpt><trkpt lat="44.263566" lon="8.0260581"><ele>529.0</ele><time>2026-04-21T07:51:44.93Z</time></trkpt><trkpt lat="44.2633974" lon="8.0259486"><ele>529.0</ele><time>2026-04-21T07:51:45.922Z</time></trkpt><trkpt lat="44.263234" lon="8.0258418"><ele>529.0</ele><time>2026-04-21T07:51:46.929Z</time></trkpt><trkpt lat="44.2630761" lon="8.0257408"><ele>529.0</ele><time>2026-04-21T07:51:47.914Z</time></trkpt><trkpt lat="44.2629213" lon="8.025645"><ele>529.0</ele><time>2026-04-21T07:51:48.923Z</time></trkpt><trkpt lat="44.2627636" lon="8.0255498"><ele>529.0</ele><time>2026-04-21T07:51:49.932Z</time></trkpt><trkpt lat="44.2626025" lon="8.0254476"><ele>529.0</ele><time>2026-04-21T07:51:50.918Z</time></trkpt><trkpt lat="44.2624371" lon="8.0253426"><ele>529.0</ele><time>2026-04-21T07:51:51.936Z</time></trkpt><trkpt lat="44.2622654" lon="8.025234"><ele>527.3333333333334</ele><time>2026-04-21T07:51:52.921Z</time></trkpt><trkpt lat="44.2620896" lon="8.0251237"><ele>525.6666666666666</ele><time>2026-04-21T07:51:53.921Z</time></trkpt><trkpt lat="44.2619113" lon="8.0250106"><ele>524.0</ele><time>2026-04-21T07:51:54.922Z</time></trkpt><trkpt lat="44.2617334" lon="8.0248995"><ele>524.0</ele><time>2026-04-21T07:51:55.932Z</time></trkpt><trkpt lat="44.2615553" lon="8.0247884"><ele>524.0</ele><time>2026-04-21T07:51:56.936Z</time></trkpt><trkpt lat="44.2613773" lon="8.0246773"><ele>524.0</ele><time>2026-04-21T07:51:57.933Z</time></trkpt><trkpt lat="44.2612004" lon="8.0245682"><ele>525.3333333333333</ele><time>2026-04-21T07:51:58.929Z</time></trkpt><trkpt lat="44.2610273" lon="8.024458"><ele>526.6666666666666</ele><time>2026-04-21T07:51:59.935Z</time></trkpt><trkpt lat="44.260861" lon="8.0243515"><ele>528.0</ele><time>2026-04-21T07:52:00.92Z</time></trkpt><trkpt lat="44.2606968" lon="8.0242464"><ele>531.6666666666666</ele><time>2026-04-21T07:52:01.938Z</time></trkpt><trkpt lat="44.2605342" lon="8.0241424"><ele>535.3333333333333</ele><time>2026-04-21T07:52:02.926Z</time></trkpt><trkpt lat="44.2603709" lon="8.0240427"><ele>539.0</ele><time>2026-04-21T07:52:03.931Z</time></trkpt><trkpt lat="44.2602077" lon="8.0239404"><ele>539.0</ele><time>2026-04-21T07:52:04.929Z</time></trkpt><trkpt lat="44.2600478" lon="8.023841"><ele>539.0</ele><time>2026-04-21T07:52:05.929Z</time></trkpt><trkpt lat="44.2598931" lon="8.0237444"><ele>539.0</ele><time>2026-04-21T07:52:06.929Z</time></trkpt><trkpt lat="44.2597449" lon="8.0236541"><ele>535.6666666666666</ele><time>2026-04-21T07:52:07.938Z</time></trkpt><trkpt lat="44.259603" lon="8.0235704"><ele>532.3333333333334</ele><time>2026-04-21T07:52:08.932Z</time></trkpt><trkpt lat="44.2594634" lon="8.0234765"><ele>529.0</ele><time>2026-04-21T07:52:09.913Z</time></trkpt><trkpt lat="44.2593224" lon="8.0233682"><ele>530.3333333333334</ele><time>2026-04-21T07:52:10.922Z</time></trkpt><trkpt lat="44.2591795" lon="8.0232421"><ele>531.6666666666666</ele><time>2026-04-21T07:52:11.929Z</time></trkpt><trkpt lat="44.25904" lon="8.0230941"><ele>533.0</ele><time>2026-04-21T07:52:12.936Z</time></trkpt><trkpt lat="44.2589067" lon="8.0229259"><ele>533.0</ele><time>2026-04-21T07:52:13.923Z</time></trkpt><trkpt lat="44.2587823" lon="8.0227511"><ele>533.0</ele><time>2026-04-21T07:52:14.927Z</time></trkpt><trkpt lat="44.2586694" lon="8.0225827"><ele>533.0</ele><time>2026-04-21T07:52:15.917Z</time></trkpt><trkpt lat="44.2585618" lon="8.0224241"><ele>534.75</ele><time>2026-04-21T07:52:16.922Z</time></trkpt><trkpt lat="44.2584515" lon="8.0222779"><ele>536.5</ele><time>2026-04-21T07:52:17.922Z</time></trkpt><trkpt lat="44.2583437" lon="8.0221398"><ele>538.25</ele><time>2026-04-21T07:52:18.923Z</time></trkpt><trkpt lat="44.2582397" lon="8.022009"><ele>540.0</ele><time>2026-04-21T07:52:19.923Z</time></trkpt><trkpt lat="44.2581357" lon="8.0218778"><ele>540.5</ele><time>2026-04-21T07:52:20.922Z</time></trkpt><trkpt lat="44.2580273" lon="8.02175"><ele>541.0</ele><time>2026-04-21T07:52:21.915Z</time></trkpt><trkpt lat="44.2579113" lon="8.0216224"><ele>541.5</ele><time>2026-04-21T07:52:22.918Z</time></trkpt><trkpt lat="44.2577859" lon="8.0215013"><ele>542.0</ele><time>2026-04-21T07:52:23.932Z</time></trkpt><trkpt lat="44.2576538" lon="8.0213942"><ele>542.0</ele><time>2026-04-21T07:52:24.929Z</time></trkpt><trkpt lat="44.2575104" lon="8.0213072"><ele>542.0</ele><time>2026-04-21T07:52:25.933Z</time></trkpt><trkpt lat="44.2573627" lon="8.0212262"><ele>542.0</ele><time>2026-04-21T07:52:26.924Z</time></trkpt><trkpt lat="44.2572114" lon="8.0211297"><ele>539.6666666666666</ele><time>2026-04-21T07:52:27.917Z</time></trkpt><trkpt lat="44.2570717" lon="8.0210371"><ele>537.3333333333334</ele><time>2026-04-21T07:52:28.918Z</time></trkpt><trkpt lat="44.2569342" lon="8.0209384"><ele>535.0</ele><time>2026-04-21T07:52:29.919Z</time></trkpt><trkpt lat="44.2567981" lon="8.0208404"><ele>537.3333333333334</ele><time>2026-04-21T07:52:30.923Z</time></trkpt><trkpt lat="44.2566613" lon="8.0207396"><ele>539.6666666666666</ele><time>2026-04-21T07:52:31.912Z</time></trkpt><trkpt lat="44.2565252" lon="8.0206421"><ele>542.0</ele><time>2026-04-21T07:52:32.934Z</time></trkpt><trkpt lat="44.2563897" lon="8.0205453"><ele>542.0</ele><time>2026-04-21T07:52:33.933Z</time></trkpt><trkpt lat="44.2562533" lon="8.0204546"><ele>542.0</ele><time>2026-04-21T07:52:34.926Z</time></trkpt><trkpt lat="44.2561151" lon="8.0203714"><ele>542.0</ele><time>2026-04-21T07:52:35.926Z</time></trkpt><trkpt lat="44.2559769" lon="8.0202939"><ele>542.0</ele><time>2026-04-21T07:52:36.928Z</time></trkpt><trkpt lat="44.2558399" lon="8.0202197"><ele>542.0</ele><time>2026-04-21T07:52:37.928Z</time></trkpt><trkpt lat="44.2557004" lon="8.0201525"><ele>542.0</ele><time>2026-04-21T07:52:38.927Z</time></trkpt><trkpt lat="44.2555574" lon="8.0200989"><ele>542.0</ele><time>2026-04-21T07:52:39.928Z</time></trkpt><trkpt lat="44.255406" lon="8.0200644"><ele>541.6666666666666</ele><time>2026-04-21T07:52:40.93Z</time></trkpt><trkpt lat="44.2552487" lon="8.0200543"><ele>541.3333333333334</ele><time>2026-04-21T07:52:41.931Z</time></trkpt><trkpt lat="44.2550943" lon="8.0200535"><ele>541.0</ele><time>2026-04-21T07:52:42.936Z</time></trkpt><trkpt lat="44.2549387" lon="8.0200518"><ele>544.3333333333334</ele><time>2026-04-21T07:52:43.932Z</time></trkpt><trkpt lat="44.2547792" lon="8.0200595"><ele>547.6666666666666</ele><time>2026-04-21T07:52:44.918Z</time></trkpt><trkpt lat="44.2546131" lon="8.0200758"><ele>551.0</ele><time>2026-04-21T07:52:45.93Z</time></trkpt><trkpt lat="44.2544409" lon="8.0200971"><ele>551.0</ele><time>2026-04-21T07:52:46.93Z</time></trkpt><trkpt lat="44.2542651" lon="8.0201222"><ele>551.0</ele><time>2026-04-21T07:52:47.924Z</time></trkpt><trkpt lat="44.2540884" lon="8.0201582"><ele>551.0</ele><time>2026-04-21T07:52:48.927Z</time></trkpt><trkpt lat="44.2539083" lon="8.0201966"><ele>555.3333333333333</ele><time>2026-04-21T07:52:49.928Z</time></trkpt><trkpt lat="44.253727" lon="8.020227"><ele>559.6666666666666</ele><time>2026-04-21T07:52:50.916Z</time></trkpt><trkpt lat="44.2535457" lon="8.0202649"><ele>564.0</ele><time>2026-04-21T07:52:51.928Z</time></trkpt><trkpt lat="44.2533603" lon="8.0203032"><ele>564.0</ele><time>2026-04-21T07:52:52.93Z</time></trkpt><trkpt lat="44.2531693" lon="8.0203396"><ele>564.0</ele><time>2026-04-21T07:52:53.92Z</time></trkpt><trkpt lat="44.2529808" lon="8.0203827"><ele>564.0</ele><time>2026-04-21T07:52:54.929Z</time></trkpt><trkpt lat="44.252796" lon="8.0204414"><ele>564.6666666666666</ele><time>2026-04-21T07:52:55.914Z</time></trkpt><trkpt lat="44.2526188" lon="8.0205195"><ele>565.3333333333333</ele><time>2026-04-21T07:52:56.93Z</time></trkpt><trkpt lat="44.2524445" lon="8.0206104"><ele>566.0</ele><time>2026-04-21T07:52:57.922Z</time></trkpt><trkpt lat="44.2522707" lon="8.0207185"><ele>559.0</ele><time>2026-04-21T07:52:58.916Z</time></trkpt><trkpt lat="44.2520937" lon="8.0208503"><ele>552.0</ele><time>2026-04-21T07:52:59.93Z</time></trkpt><trkpt lat="44.2519264" lon="8.0209671"><ele>545.0</ele><time>2026-04-21T07:53:00.914Z</time></trkpt><trkpt lat="44.2517577" lon="8.0210891"><ele>545.0</ele><time>2026-04-21T07:53:01.926Z</time></trkpt><trkpt lat="44.2515905" lon="8.0212078"><ele>545.0</ele><time>2026-04-21T07:53:02.933Z</time></trkpt><trkpt lat="44.2514208" lon="8.0213156"><ele>545.0</ele><time>2026-04-21T07:53:03.925Z</time></trkpt><trkpt lat="44.2512491" lon="8.021407"><ele>545.6666666666666</ele><time>2026-04-21T07:53:04.922Z</time></trkpt><trkpt lat="44.2510819" lon="8.0214603"><ele>546.3333333333334</ele><time>2026-04-21T07:53:05.915Z</time></trkpt><trkpt lat="44.2509149" lon="8.0214752"><ele>547.0</ele><time>2026-04-21T07:53:06.915Z</time></trkpt><trkpt lat="44.2507462" lon="8.0214725"><ele>546.6666666666667</ele><time>2026-04-21T07:53:07.931Z</time></trkpt><trkpt lat="44.2505776" lon="8.0214718"><ele>546.3333333333334</ele><time>2026-04-21T07:53:08.932Z</time></trkpt><trkpt lat="44.2504082" lon="8.0214727"><ele>546.0</ele><time>2026-04-21T07:53:09.934Z</time></trkpt><trkpt lat="44.2502468" lon="8.0214797"><ele>546.0</ele><time>2026-04-21T07:53:10.927Z</time></trkpt><trkpt lat="44.2500865" lon="8.0214859"><ele>546.0</ele><time>2026-04-21T07:53:11.932Z</time></trkpt><trkpt lat="44.2499213" lon="8.0214898"><ele>546.0</ele><time>2026-04-21T07:53:12.92Z</time></trkpt><trkpt lat="44.2497526" lon="8.0214938"><ele>544.0</ele><time>2026-04-21T07:53:13.925Z</time></trkpt><trkpt lat="44.2495821" lon="8.0214994"><ele>542.0</ele><time>2026-04-21T07:53:14.93Z</time></trkpt><trkpt lat="44.2494131" lon="8.0215066"><ele>540.0</ele><time>2026-04-21T07:53:15.928Z</time></trkpt><trkpt lat="44.2492503" lon="8.0215119"><ele>540.0</ele><time>2026-04-21T07:53:16.93Z</time></trkpt><trkpt lat="44.2490917" lon="8.0215163"><ele>540.0</ele><time>2026-04-21T07:53:17.917Z</time></trkpt><trkpt lat="44.248939" lon="8.0215212"><ele>540.0</ele><time>2026-04-21T07:53:18.919Z</time></trkpt><trkpt lat="44.24879" lon="8.0215258"><ele>540.0</ele><time>2026-04-21T07:53:19.92Z</time></trkpt><trkpt lat="44.2486421" lon="8.0215303"><ele>540.0</ele><time>2026-04-21T07:53:20.916Z</time></trkpt><trkpt lat="44.2484948" lon="8.021536"><ele>540.0</ele><time>2026-04-21T07:53:21.93Z</time></trkpt><trkpt lat="44.2483485" lon="8.0215416"><ele>540.0</ele><time>2026-04-21T07:53:22.923Z</time></trkpt><trkpt lat="44.2482018" lon="8.0215457"><ele>542.0</ele><time>2026-04-21T07:53:23.921Z</time></trkpt><trkpt lat="44.2480552" lon="8.0215482"><ele>544.0</ele><time>2026-04-21T07:53:24.92Z</time></trkpt><trkpt lat="44.2479118" lon="8.021552"><ele>546.0</ele><time>2026-04-21T07:53:25.928Z</time></trkpt><trkpt lat="44.2477702" lon="8.0215571"><ele>548.0</ele><time>2026-04-21T07:53:26.927Z</time></trkpt><trkpt lat="44.2476284" lon="8.0215639"><ele>548.0</ele><time>2026-04-21T07:53:27.931Z</time></trkpt><trkpt lat="44.2474891" lon="8.0215681"><ele>548.0</ele><time>2026-04-21T07:53:28.919Z</time></trkpt><trkpt lat="44.2473509" lon="8.0215716"><ele>548.0</ele><time>2026-04-21T07:53:29.923Z</time></trkpt><trkpt lat="44.2472132" lon="8.0215749"><ele>548.0</ele><time>2026-04-21T07:53:30.917Z</time></trkpt><trkpt lat="44.2470803" lon="8.0215766"><ele>549.5</ele><time>2026-04-21T07:53:31.932Z</time></trkpt><trkpt lat="44.2469555" lon="8.0215779"><ele>551.0</ele><time>2026-04-21T07:53:32.935Z</time></trkpt><trkpt lat="44.2468386" lon="8.0215799"><ele>552.5</ele><time>2026-04-21T07:53:33.923Z</time></trkpt><trkpt lat="44.2467296" lon="8.0215778"><ele>554.0</ele><time>2026-04-21T07:53:34.912Z</time></trkpt><trkpt lat="44.2466263" lon="8.0215819"><ele>554.0</ele><time>2026-04-21T07:53:35.927Z</time></trkpt><trkpt lat="44.2465201" lon="8.0215851"><ele>554.0</ele><time>2026-04-21T07:53:36.912Z</time></trkpt><trkpt lat="44.246408" lon="8.0215904"><ele>554.0</ele><time>2026-04-21T07:53:37.929Z</time></trkpt><trkpt lat="44.2462921" lon="8.0215952"><ele>554.0</ele><time>2026-04-21T07:53:38.922Z</time></trkpt><trkpt lat="44.2461724" lon="8.0215987"><ele>555.75</ele><time>2026-04-21T07:53:39.93Z</time></trkpt><trkpt lat="44.2460501" lon="8.0216018"><ele>557.5</ele><time>2026-04-21T07:53:40.917Z</time></trkpt><trkpt lat="44.2459261" lon="8.0216056"><ele>559.25</ele><time>2026-04-21T07:53:41.922Z</time></trkpt><trkpt lat="44.2458012" lon="8.0216086"><ele>561.0</ele><time>2026-04-21T07:53:42.923Z</time></trkpt><trkpt lat="44.2456766" lon="8.021609"><ele>561.25</ele><time>2026-04-21T07:53:43.913Z</time></trkpt><trkpt lat="44.2455537" lon="8.0216091"><ele>561.5</ele><time>2026-04-21T07:53:44.923Z</time></trkpt><trkpt lat="44.2454325" lon="8.0216089"><ele>561.75</ele><time>2026-04-21T07:53:45.928Z</time></trkpt><trkpt lat="44.2453118" lon="8.0216125"><ele>562.0</ele><time>2026-04-21T07:53:46.916Z</time></trkpt><trkpt lat="44.2451897" lon="8.0216183"><ele>562.0</ele><time>2026-04-21T07:53:47.931Z</time></trkpt><trkpt lat="44.2450659" lon="8.0216241"><ele>562.0</ele><time>2026-04-21T07:53:48.918Z</time></trkpt><trkpt lat="44.2449404" lon="8.0216358"><ele>562.0</ele><time>2026-04-21T07:53:49.922Z</time></trkpt><trkpt lat="44.2448135" lon="8.021641"><ele>562.0</ele><time>2026-04-21T07:53:50.926Z</time></trkpt><trkpt lat="44.2446867" lon="8.021654"><ele>560.5</ele><time>2026-04-21T07:53:51.914Z</time></trkpt><trkpt lat="44.2445579" lon="8.0216554"><ele>559.0</ele><time>2026-04-21T07:53:52.921Z</time></trkpt><trkpt lat="44.244431" lon="8.021647"><ele>557.5</ele><time>2026-04-21T07:53:53.907Z</time></trkpt><trkpt lat="44.2443126" lon="8.0216484"><ele>556.0</ele><time>2026-04-21T07:53:54.914Z</time></trkpt><trkpt lat="44.2442101" lon="8.0216482"><ele>556.0</ele><time>2026-04-21T07:53:55.916Z</time></trkpt><trkpt lat="44.244137" lon="8.0216471"><ele>556.0</ele><time>2026-04-21T07:53:56.91Z</time></trkpt><trkpt lat="44.2440559" lon="8.0216366"><ele>556.0</ele><time>2026-04-21T07:53:58.91Z</time></trkpt><trkpt lat="44.2439835" lon="8.0216394"><ele>556.0</ele><time>2026-04-21T07:54:03.917Z</time></trkpt><trkpt lat="44.2439168" lon="8.0216473"><ele>556.0</ele><time>2026-04-21T07:54:40.916Z</time></trkpt><trkpt lat="44.2438134" lon="8.0216819"><ele>556.0</ele><time>2026-04-21T07:54:42.924Z</time></trkpt><trkpt lat="44.2436938" lon="8.0217024"><ele>554.4</ele><time>2026-04-21T07:54:44.914Z</time></trkpt><trkpt lat="44.2436203" lon="8.0217074"><ele>552.8</ele><time>2026-04-21T07:54:45.913Z</time></trkpt><trkpt lat="44.2435299" lon="8.02171"><ele>551.1999999999999</ele><time>2026-04-21T07:54:46.915Z</time></trkpt><trkpt lat="44.2434273" lon="8.0217122"><ele>549.6</ele><time>2026-04-21T07:54:47.91Z</time></trkpt><trkpt lat="44.2433066" lon="8.0217185"><ele>548.0</ele><time>2026-04-21T07:54:48.908Z</time></trkpt><trkpt lat="44.243163" lon="8.0217287"><ele>548.6666666666666</ele><time>2026-04-21T07:54:49.913Z</time></trkpt><trkpt lat="44.2429945" lon="8.021727"><ele>549.3333333333334</ele><time>2026-04-21T07:54:50.915Z</time></trkpt><trkpt lat="44.242812" lon="8.0217228"><ele>550.0</ele><time>2026-04-21T07:54:51.916Z</time></trkpt><trkpt lat="44.242628" lon="8.0217167"><ele>550.0</ele><time>2026-04-21T07:54:52.914Z</time></trkpt><trkpt lat="44.2424495" lon="8.021707"><ele>550.0</ele><time>2026-04-21T07:54:53.911Z</time></trkpt><trkpt lat="44.2422803" lon="8.0216913"><ele>550.0</ele><time>2026-04-21T07:54:54.912Z</time></trkpt><trkpt lat="44.2421231" lon="8.021661"><ele>551.6666666666667</ele><time>2026-04-21T07:54:55.914Z</time></trkpt><trkpt lat="44.2419681" lon="8.0216219"><ele>553.3333333333334</ele><time>2026-04-21T07:54:56.918Z</time></trkpt><trkpt lat="44.2418153" lon="8.0215641"><ele>555.0</ele><time>2026-04-21T07:54:57.916Z</time></trkpt><trkpt lat="44.2416568" lon="8.0214963"><ele>555.0</ele><time>2026-04-21T07:54:58.912Z</time></trkpt><trkpt lat="44.2414934" lon="8.0214177"><ele>555.0</ele><time>2026-04-21T07:54:59.913Z</time></trkpt><trkpt lat="44.2413276" lon="8.021336"><ele>555.0</ele><time>2026-04-21T07:55:00.915Z</time></trkpt><trkpt lat="44.2411541" lon="8.0212552"><ele>553.3333333333334</ele><time>2026-04-21T07:55:01.91Z</time></trkpt><trkpt lat="44.2409798" lon="8.0211716"><ele>551.6666666666667</ele><time>2026-04-21T07:55:02.916Z</time></trkpt><trkpt lat="44.2408045" lon="8.0210726"><ele>550.0</ele><time>2026-04-21T07:55:03.91Z</time></trkpt><trkpt lat="44.2406421" lon="8.0209485"><ele>550.0</ele><time>2026-04-21T07:55:04.911Z</time></trkpt><trkpt lat="44.2404899" lon="8.0207792"><ele>550.0</ele><time>2026-04-21T07:55:05.912Z</time></trkpt><trkpt lat="44.2403664" lon="8.0205623"><ele>550.0</ele><time>2026-04-21T07:55:06.915Z</time></trkpt><trkpt lat="44.2402618" lon="8.0203223"><ele>550.0</ele><time>2026-04-21T07:55:07.913Z</time></trkpt><trkpt lat="44.2401661" lon="8.0200754"><ele>550.0</ele><time>2026-04-21T07:55:08.916Z</time></trkpt><trkpt lat="44.2400641" lon="8.0198269"><ele>550.0</ele><time>2026-04-21T07:55:09.918Z</time></trkpt><trkpt lat="44.2399556" lon="8.0195793"><ele>549.3333333333334</ele><time>2026-04-21T07:55:10.91Z</time></trkpt><trkpt lat="44.2398453" lon="8.0193322"><ele>548.6666666666666</ele><time>2026-04-21T07:55:11.918Z</time></trkpt><trkpt lat="44.2397375" lon="8.0190882"><ele>548.0</ele><time>2026-04-21T07:55:12.914Z</time></trkpt><trkpt lat="44.2396362" lon="8.0188537"><ele>548.0</ele><time>2026-04-21T07:55:13.912Z</time></trkpt><trkpt lat="44.2395441" lon="8.0186174"><ele>548.0</ele><time>2026-04-21T07:55:14.918Z</time></trkpt><trkpt lat="44.2394637" lon="8.0183753"><ele>548.0</ele><time>2026-04-21T07:55:15.92Z</time></trkpt><trkpt lat="44.2393981" lon="8.0181213"><ele>548.0</ele><time>2026-04-21T07:55:16.911Z</time></trkpt><trkpt lat="44.2393406" lon="8.0178591"><ele>548.0</ele><time>2026-04-21T07:55:17.922Z</time></trkpt><trkpt lat="44.2392749" lon="8.0175924"><ele>548.0</ele><time>2026-04-21T07:55:18.921Z</time></trkpt><trkpt lat="44.2391996" lon="8.0173282"><ele>547.6666666666666</ele><time>2026-04-21T07:55:19.909Z</time></trkpt><trkpt lat="44.2391121" lon="8.0170722"><ele>547.3333333333334</ele><time>2026-04-21T07:55:20.91Z</time></trkpt><trkpt lat="44.2390085" lon="8.0168236"><ele>547.0</ele><time>2026-04-21T07:55:21.913Z</time></trkpt><trkpt lat="44.2388913" lon="8.0165864"><ele>547.0</ele><time>2026-04-21T07:55:22.909Z</time></trkpt><trkpt lat="44.2387538" lon="8.0163603"><ele>547.0</ele><time>2026-04-21T07:55:23.915Z</time></trkpt><trkpt lat="44.2385996" lon="8.0161559"><ele>547.0</ele><time>2026-04-21T07:55:24.915Z</time></trkpt><trkpt lat="44.238433" lon="8.0159738"><ele>546.6666666666667</ele><time>2026-04-21T07:55:25.912Z</time></trkpt><trkpt lat="44.2382566" lon="8.0158034"><ele>546.3333333333334</ele><time>2026-04-21T07:55:26.913Z</time></trkpt><trkpt lat="44.2380736" lon="8.0156492"><ele>546.0</ele><time>2026-04-21T07:55:27.917Z</time></trkpt><trkpt lat="44.2378821" lon="8.0155125"><ele>546.0</ele><time>2026-04-21T07:55:28.916Z</time></trkpt><trkpt lat="44.2376836" lon="8.0153949"><ele>546.0</ele><time>2026-04-21T07:55:29.913Z</time></trkpt><trkpt lat="44.2374821" lon="8.0152951"><ele>546.0</ele><time>2026-04-21T07:55:30.914Z</time></trkpt><trkpt lat="44.2372789" lon="8.0152127"><ele>546.3333333333334</ele><time>2026-04-21T07:55:31.913Z</time></trkpt><trkpt lat="44.2370676" lon="8.015169"><ele>546.6666666666667</ele><time>2026-04-21T07:55:32.92Z</time></trkpt><trkpt lat="44.2368483" lon="8.0151511"><ele>547.0</ele><time>2026-04-21T07:55:33.92Z</time></trkpt><trkpt lat="44.2366268" lon="8.0151425"><ele>546.6666666666667</ele><time>2026-04-21T07:55:34.916Z</time></trkpt><trkpt lat="44.2364086" lon="8.0151425"><ele>546.3333333333334</ele><time>2026-04-21T07:55:35.912Z</time></trkpt><trkpt lat="44.2361872" lon="8.0151439"><ele>546.0</ele><time>2026-04-21T07:55:36.919Z</time></trkpt><trkpt lat="44.2359689" lon="8.0151392"><ele>546.0</ele><time>2026-04-21T07:55:37.911Z</time></trkpt><trkpt lat="44.2357506" lon="8.015134"><ele>546.0</ele><time>2026-04-21T07:55:38.913Z</time></trkpt><trkpt lat="44.2355354" lon="8.0151287"><ele>546.0</ele><time>2026-04-21T07:55:39.911Z</time></trkpt><trkpt lat="44.2353173" lon="8.0151219"><ele>547.3333333333334</ele><time>2026-04-21T07:55:40.921Z</time></trkpt><trkpt lat="44.2350996" lon="8.0151152"><ele>548.6666666666667</ele><time>2026-04-21T07:55:41.92Z</time></trkpt><trkpt lat="44.2348841" lon="8.0151104"><ele>550.0</ele><time>2026-04-21T07:55:42.916Z</time></trkpt><trkpt lat="44.2346674" lon="8.0151138"><ele>550.3333333333334</ele><time>2026-04-21T07:55:43.909Z</time></trkpt><trkpt lat="44.2344503" lon="8.0151243"><ele>550.6666666666666</ele><time>2026-04-21T07:55:44.916Z</time></trkpt><trkpt lat="44.2342343" lon="8.0151513"><ele>551.0</ele><time>2026-04-21T07:55:45.914Z</time></trkpt><trkpt lat="44.2340248" lon="8.0151996"><ele>552.6666666666666</ele><time>2026-04-21T07:55:46.913Z</time></trkpt><trkpt lat="44.233821" lon="8.0152638"><ele>554.3333333333334</ele><time>2026-04-21T07:55:47.916Z</time></trkpt><trkpt lat="44.2336164" lon="8.0153592"><ele>556.0</ele><time>2026-04-21T07:55:48.908Z</time></trkpt><trkpt lat="44.233419" lon="8.0154777"><ele>556.0</ele><time>2026-04-21T07:55:49.915Z</time></trkpt><trkpt lat="44.233227" lon="8.0156128"><ele>556.0</ele><time>2026-04-21T07:55:50.914Z</time></trkpt><trkpt lat="44.2330389" lon="8.015754"><ele>556.0</ele><time>2026-04-21T07:55:51.91Z</time></trkpt><trkpt lat="44.2328512" lon="8.0158933"><ele>557.3333333333334</ele><time>2026-04-21T07:55:52.919Z</time></trkpt><trkpt lat="44.2326632" lon="8.0160317"><ele>558.6666666666666</ele><time>2026-04-21T07:55:53.912Z</time></trkpt><trkpt lat="44.2324756" lon="8.0161668"><ele>560.0</ele><time>2026-04-21T07:55:54.905Z</time></trkpt><trkpt lat="44.2322881" lon="8.0162998"><ele>560.6666666666666</ele><time>2026-04-21T07:55:55.915Z</time></trkpt><trkpt lat="44.2321016" lon="8.0164312"><ele>561.3333333333334</ele><time>2026-04-21T07:55:56.915Z</time></trkpt><trkpt lat="44.2319146" lon="8.0165609"><ele>562.0</ele><time>2026-04-21T07:55:57.917Z</time></trkpt><trkpt lat="44.2317273" lon="8.016686"><ele>562.0</ele><time>2026-04-21T07:55:58.915Z</time></trkpt><trkpt lat="44.2315383" lon="8.0168068"><ele>562.0</ele><time>2026-04-21T07:55:59.913Z</time></trkpt><trkpt lat="44.2313492" lon="8.0169242"><ele>562.0</ele><time>2026-04-21T07:56:00.927Z</time></trkpt><trkpt lat="44.2311603" lon="8.0170389"><ele>564.6666666666667</ele><time>2026-04-21T07:56:01.93Z</time></trkpt><trkpt lat="44.2309707" lon="8.0171495"><ele>567.3333333333334</ele><time>2026-04-21T07:56:02.933Z</time></trkpt><trkpt lat="44.2307773" lon="8.0172471"><ele>570.0</ele><time>2026-04-21T07:56:03.925Z</time></trkpt><trkpt lat="44.2305805" lon="8.0173242"><ele>571.0</ele><time>2026-04-21T07:56:04.917Z</time></trkpt><trkpt lat="44.2303794" lon="8.0173773"><ele>572.0</ele><time>2026-04-21T07:56:05.926Z</time></trkpt><trkpt lat="44.2301742" lon="8.0174094"><ele>573.0</ele><time>2026-04-21T07:56:06.924Z</time></trkpt><trkpt lat="44.2299654" lon="8.0174196"><ele>571.3333333333334</ele><time>2026-04-21T07:56:07.929Z</time></trkpt><trkpt lat="44.2297548" lon="8.0174018"><ele>569.6666666666667</ele><time>2026-04-21T07:56:08.929Z</time></trkpt><trkpt lat="44.2295428" lon="8.0173595"><ele>568.0</ele><time>2026-04-21T07:56:09.931Z</time></trkpt><trkpt lat="44.2293321" lon="8.0172961"><ele>568.0</ele><time>2026-04-21T07:56:10.928Z</time></trkpt><trkpt lat="44.2291222" lon="8.017218"><ele>568.0</ele><time>2026-04-21T07:56:11.919Z</time></trkpt><trkpt lat="44.2289161" lon="8.0171225"><ele>568.0</ele><time>2026-04-21T07:56:12.916Z</time></trkpt><trkpt lat="44.2287162" lon="8.0170114"><ele>566.6666666666667</ele><time>2026-04-21T07:56:13.92Z</time></trkpt><trkpt lat="44.2285242" lon="8.016892"><ele>565.3333333333334</ele><time>2026-04-21T07:56:14.926Z</time></trkpt><trkpt lat="44.2283341" lon="8.0167623"><ele>564.0</ele><time>2026-04-21T07:56:15.92Z</time></trkpt><trkpt lat="44.2281462" lon="8.0166264"><ele>568.0</ele><time>2026-04-21T07:56:16.932Z</time></trkpt><trkpt lat="44.2279562" lon="8.0164987"><ele>572.0</ele><time>2026-04-21T07:56:17.931Z</time></trkpt><trkpt lat="44.2277642" lon="8.0163813"><ele>576.0</ele><time>2026-04-21T07:56:18.925Z</time></trkpt><trkpt lat="44.2275713" lon="8.0162657"><ele>576.0</ele><time>2026-04-21T07:56:19.931Z</time></trkpt><trkpt lat="44.2273746" lon="8.0161495"><ele>576.0</ele><time>2026-04-21T07:56:20.913Z</time></trkpt><trkpt lat="44.2271748" lon="8.0160328"><ele>576.0</ele><time>2026-04-21T07:56:21.926Z</time></trkpt><trkpt lat="44.2269721" lon="8.015919"><ele>574.6666666666666</ele><time>2026-04-21T07:56:22.916Z</time></trkpt><trkpt lat="44.2267653" lon="8.0158102"><ele>573.3333333333333</ele><time>2026-04-21T07:56:23.932Z</time></trkpt><trkpt lat="44.2265557" lon="8.0157134"><ele>572.0</ele><time>2026-04-21T07:56:24.918Z</time></trkpt><trkpt lat="44.2263449" lon="8.0156266"><ele>572.0</ele><time>2026-04-21T07:56:25.923Z</time></trkpt><trkpt lat="44.2261334" lon="8.0155466"><ele>572.0</ele><time>2026-04-21T07:56:26.929Z</time></trkpt><trkpt lat="44.2259207" lon="8.0154723"><ele>572.0</ele><time>2026-04-21T07:56:27.922Z</time></trkpt><trkpt lat="44.225707" lon="8.0154046"><ele>568.0</ele><time>2026-04-21T07:56:28.928Z</time></trkpt><trkpt lat="44.2254929" lon="8.0153433"><ele>564.0</ele><time>2026-04-21T07:56:29.927Z</time></trkpt><trkpt lat="44.2252766" lon="8.0152894"><ele>560.0</ele><time>2026-04-21T07:56:30.922Z</time></trkpt><trkpt lat="44.2250579" lon="8.0152449"><ele>560.0</ele><time>2026-04-21T07:56:31.929Z</time></trkpt><trkpt lat="44.224838" lon="8.0152109"><ele>560.0</ele><time>2026-04-21T07:56:32.92Z</time></trkpt><trkpt lat="44.2246159" lon="8.0151854"><ele>560.0</ele><time>2026-04-21T07:56:33.931Z</time></trkpt><trkpt lat="44.2243933" lon="8.0151658"><ele>560.3333333333333</ele><time>2026-04-21T07:56:34.923Z</time></trkpt><trkpt lat="44.2241698" lon="8.0151493"><ele>560.6666666666666</ele><time>2026-04-21T07:56:35.923Z</time></trkpt><trkpt lat="44.2239455" lon="8.0151332"><ele>561.0</ele><time>2026-04-21T07:56:36.933Z</time></trkpt><trkpt lat="44.2237211" lon="8.0151167"><ele>561.0</ele><time>2026-04-21T07:56:37.928Z</time></trkpt><trkpt lat="44.2234984" lon="8.0151009"><ele>561.0</ele><time>2026-04-21T07:56:38.934Z</time></trkpt><trkpt lat="44.2232771" lon="8.0150865"><ele>561.0</ele><time>2026-04-21T07:56:39.924Z</time></trkpt><trkpt lat="44.2230549" lon="8.0150723"><ele>560.6666666666666</ele><time>2026-04-21T07:56:40.915Z</time></trkpt><trkpt lat="44.2228312" lon="8.0150589"><ele>560.3333333333333</ele><time>2026-04-21T07:56:41.931Z</time></trkpt><trkpt lat="44.2226062" lon="8.0150464"><ele>560.0</ele><time>2026-04-21T07:56:42.934Z</time></trkpt><trkpt lat="44.2223787" lon="8.0150294"><ele>560.5</ele><time>2026-04-21T07:56:43.928Z</time></trkpt><trkpt lat="44.2221489" lon="8.0150136"><ele>561.0</ele><time>2026-04-21T07:56:44.915Z</time></trkpt><trkpt lat="44.2219161" lon="8.0149982"><ele>561.5</ele><time>2026-04-21T07:56:45.923Z</time></trkpt><trkpt lat="44.2216819" lon="8.0149816"><ele>562.0</ele><time>2026-04-21T07:56:46.914Z</time></trkpt><trkpt lat="44.2214458" lon="8.0149669"><ele>564.0</ele><time>2026-04-21T07:56:47.928Z</time></trkpt><trkpt lat="44.2212108" lon="8.014951"><ele>566.0</ele><time>2026-04-21T07:56:48.923Z</time></trkpt><trkpt lat="44.2209762" lon="8.014937"><ele>566.0</ele><time>2026-04-21T07:56:49.928Z</time></trkpt><trkpt lat="44.2207428" lon="8.0149225"><ele>566.0</ele><time>2026-04-21T07:56:50.931Z</time></trkpt><trkpt lat="44.22051" lon="8.0149036"><ele>565.5</ele><time>2026-04-21T07:56:51.916Z</time></trkpt><trkpt lat="44.2202782" lon="8.0148862"><ele>565.0</ele><time>2026-04-21T07:56:52.924Z</time></trkpt><trkpt lat="44.2200484" lon="8.0148705"><ele>565.0</ele><time>2026-04-21T07:56:53.923Z</time></trkpt><trkpt lat="44.2198195" lon="8.0148544"><ele>565.0</ele><time>2026-04-21T07:56:54.92Z</time></trkpt><trkpt lat="44.219591" lon="8.0148414"><ele>564.5</ele><time>2026-04-21T07:56:55.922Z</time></trkpt><trkpt lat="44.2193653" lon="8.0148254"><ele>564.0</ele><time>2026-04-21T07:56:56.927Z</time></trkpt><trkpt lat="44.2191395" lon="8.0148086"><ele>564.3333333333334</ele><time>2026-04-21T07:56:57.931Z</time></trkpt><trkpt lat="44.2189172" lon="8.0147911"><ele>564.6666666666667</ele><time>2026-04-21T07:56:58.927Z</time></trkpt><trkpt lat="44.2186958" lon="8.0147751"><ele>565.0</ele><time>2026-04-21T07:56:59.938Z</time></trkpt><trkpt lat="44.2184752" lon="8.0147593"><ele>565.0</ele><time>2026-04-21T07:57:00.931Z</time></trkpt><trkpt lat="44.2182538" lon="8.0147463"><ele>565.0</ele><time>2026-04-21T07:57:01.931Z</time></trkpt><trkpt lat="44.2180339" lon="8.0147337"><ele>565.0</ele><time>2026-04-21T07:57:02.92Z</time></trkpt><trkpt lat="44.2178145" lon="8.0147162"><ele>565.0</ele><time>2026-04-21T07:57:03.911Z</time></trkpt><trkpt lat="44.2175948" lon="8.014698"><ele>565.0</ele><time>2026-04-21T07:57:04.912Z</time></trkpt><trkpt lat="44.217375" lon="8.0146812"><ele>565.0</ele><time>2026-04-21T07:57:05.928Z</time></trkpt><trkpt lat="44.2171569" lon="8.0146634"><ele>565.0</ele><time>2026-04-21T07:57:06.935Z</time></trkpt><trkpt lat="44.2169381" lon="8.0146476"><ele>565.0</ele><time>2026-04-21T07:57:07.933Z</time></trkpt><trkpt lat="44.2167172" lon="8.014634"><ele>565.0</ele><time>2026-04-21T07:57:08.928Z</time></trkpt><trkpt lat="44.2164961" lon="8.0146195"><ele>565.3333333333334</ele><time>2026-04-21T07:57:09.919Z</time></trkpt><trkpt lat="44.2162761" lon="8.0146031"><ele>565.6666666666666</ele><time>2026-04-21T07:57:10.926Z</time></trkpt><trkpt lat="44.2160586" lon="8.0145867"><ele>566.0</ele><time>2026-04-21T07:57:11.932Z</time></trkpt><trkpt lat="44.2158448" lon="8.0145713"><ele>566.6666666666666</ele><time>2026-04-21T07:57:12.939Z</time></trkpt><trkpt lat="44.2156352" lon="8.0145551"><ele>567.3333333333334</ele><time>2026-04-21T07:57:13.931Z</time></trkpt><trkpt lat="44.2154312" lon="8.0145381"><ele>568.0</ele><time>2026-04-21T07:57:14.923Z</time></trkpt><trkpt lat="44.2152296" lon="8.0145229"><ele>568.0</ele><time>2026-04-21T07:57:15.919Z</time></trkpt><trkpt lat="44.2150273" lon="8.0145098"><ele>568.0</ele><time>2026-04-21T07:57:16.919Z</time></trkpt><trkpt lat="44.214827" lon="8.0144928"><ele>568.0</ele><time>2026-04-21T07:57:17.93Z</time></trkpt><trkpt lat="44.2146286" lon="8.014478"><ele>568.3333333333334</ele><time>2026-04-21T07:57:18.916Z</time></trkpt><trkpt lat="44.214431" lon="8.0144642"><ele>568.6666666666666</ele><time>2026-04-21T07:57:19.924Z</time></trkpt><trkpt lat="44.2142326" lon="8.0144508"><ele>569.0</ele><time>2026-04-21T07:57:20.928Z</time></trkpt><trkpt lat="44.2140352" lon="8.0144355"><ele>569.6666666666666</ele><time>2026-04-21T07:57:21.923Z</time></trkpt><trkpt lat="44.2138366" lon="8.0144192"><ele>570.3333333333334</ele><time>2026-04-21T07:57:22.922Z</time></trkpt><trkpt lat="44.2136388" lon="8.014402"><ele>571.0</ele><time>2026-04-21T07:57:23.924Z</time></trkpt><trkpt lat="44.2134393" lon="8.0143883"><ele>571.0</ele><time>2026-04-21T07:57:24.931Z</time></trkpt><trkpt lat="44.2132399" lon="8.0143759"><ele>571.0</ele><time>2026-04-21T07:57:25.929Z</time></trkpt><trkpt lat="44.2130436" lon="8.0143625"><ele>571.0</ele><time>2026-04-21T07:57:26.931Z</time></trkpt><trkpt lat="44.2128488" lon="8.0143481"><ele>571.0</ele><time>2026-04-21T07:57:27.935Z</time></trkpt><trkpt lat="44.2126551" lon="8.0143317"><ele>571.0</ele><time>2026-04-21T07:57:28.918Z</time></trkpt><trkpt lat="44.2124639" lon="8.0143145"><ele>571.0</ele><time>2026-04-21T07:57:29.921Z</time></trkpt><trkpt lat="44.2122759" lon="8.0143013"><ele>571.3333333333334</ele><time>2026-04-21T07:57:30.919Z</time></trkpt><trkpt lat="44.2120874" lon="8.0142895"><ele>571.6666666666666</ele><time>2026-04-21T07:57:31.928Z</time></trkpt><trkpt lat="44.211899" lon="8.0142821"><ele>572.0</ele><time>2026-04-21T07:57:32.937Z</time></trkpt><trkpt lat="44.211709" lon="8.014283"><ele>572.0</ele><time>2026-04-21T07:57:33.911Z</time></trkpt><trkpt lat="44.2115211" lon="8.0142914"><ele>572.0</ele><time>2026-04-21T07:57:34.922Z</time></trkpt><trkpt lat="44.2113342" lon="8.0143126"><ele>572.0</ele><time>2026-04-21T07:57:35.922Z</time></trkpt><trkpt lat="44.2111528" lon="8.0143519"><ele>572.3333333333333</ele><time>2026-04-21T07:57:36.932Z</time></trkpt><trkpt lat="44.2109751" lon="8.0144002"><ele>572.6666666666666</ele><time>2026-04-21T07:57:37.929Z</time></trkpt><trkpt lat="44.2108059" lon="8.014461"><ele>573.0</ele><time>2026-04-21T07:57:38.923Z</time></trkpt><trkpt lat="44.210643" lon="8.0145242"><ele>574.0</ele><time>2026-04-21T07:57:39.917Z</time></trkpt><trkpt lat="44.2104897" lon="8.0145827"><ele>575.0</ele><time>2026-04-21T07:57:40.933Z</time></trkpt><trkpt lat="44.2103423" lon="8.0146354"><ele>576.0</ele><time>2026-04-21T07:57:41.924Z</time></trkpt><trkpt lat="44.210199" lon="8.0146822"><ele>576.0</ele><time>2026-04-21T07:57:42.94Z</time></trkpt><trkpt lat="44.2100606" lon="8.0147316"><ele>576.0</ele><time>2026-04-21T07:57:43.936Z</time></trkpt><trkpt lat="44.209919" lon="8.0147798"><ele>576.0</ele><time>2026-04-21T07:57:44.943Z</time></trkpt><trkpt lat="44.2097801" lon="8.0148336"><ele>576.0</ele><time>2026-04-21T07:57:45.933Z</time></trkpt><trkpt lat="44.2096433" lon="8.014876"><ele>576.25</ele><time>2026-04-21T07:57:46.939Z</time></trkpt><trkpt lat="44.209523" lon="8.0149009"><ele>576.5</ele><time>2026-04-21T07:57:47.937Z</time></trkpt><trkpt lat="44.2094015" lon="8.0149088"><ele>576.75</ele><time>2026-04-21T07:57:48.936Z</time></trkpt><trkpt lat="44.209276" lon="8.0149043"><ele>577.0</ele><time>2026-04-21T07:57:49.922Z</time></trkpt><trkpt lat="44.2091562" lon="8.0148924"><ele>577.0</ele><time>2026-04-21T07:57:50.934Z</time></trkpt><trkpt lat="44.2090396" lon="8.0148768"><ele>577.0</ele><time>2026-04-21T07:57:51.918Z</time></trkpt><trkpt lat="44.2089281" lon="8.0148657"><ele>577.0</ele><time>2026-04-21T07:57:52.925Z</time></trkpt><trkpt lat="44.2088123" lon="8.0148659"><ele>577.0</ele><time>2026-04-21T07:57:53.92Z</time></trkpt><trkpt lat="44.2086898" lon="8.0148591"><ele>577.0</ele><time>2026-04-21T07:57:54.923Z</time></trkpt><trkpt lat="44.2085696" lon="8.0148495"><ele>577.0</ele><time>2026-04-21T07:57:55.922Z</time></trkpt><trkpt lat="44.2084601" lon="8.0148393"><ele>577.0</ele><time>2026-04-21T07:57:56.914Z</time></trkpt><trkpt lat="44.2083646" lon="8.0148336"><ele>577.0</ele><time>2026-04-21T07:57:57.938Z</time></trkpt><trkpt lat="44.2082829" lon="8.0148339"><ele>577.0</ele><time>2026-04-21T07:57:58.929Z</time></trkpt><trkpt lat="44.2082147" lon="8.0148343"><ele>577.2</ele><time>2026-04-21T07:57:59.917Z</time></trkpt><trkpt lat="44.2080862" lon="8.0148241"><ele>577.4000000000001</ele><time>2026-04-21T07:58:01.934Z</time></trkpt><trkpt lat="44.2080114" lon="8.0148146"><ele>577.5999999999999</ele><time>2026-04-21T07:58:02.938Z</time></trkpt><trkpt lat="44.2079263" lon="8.0148089"><ele>577.8</ele><time>2026-04-21T07:58:03.918Z</time></trkpt><trkpt lat="44.2078409" lon="8.0148015"><ele>578.0</ele><time>2026-04-21T07:58:04.921Z</time></trkpt><trkpt lat="44.2077608" lon="8.014792"><ele>578.0</ele><time>2026-04-21T07:58:05.927Z</time></trkpt><trkpt lat="44.2076769" lon="8.0147824"><ele>578.0</ele><time>2026-04-21T07:58:06.92Z</time></trkpt><trkpt lat="44.2075905" lon="8.0147769"><ele>578.0</ele><time>2026-04-21T07:58:07.939Z</time></trkpt><trkpt lat="44.2075054" lon="8.0147764"><ele>578.0</ele><time>2026-04-21T07:58:08.937Z</time></trkpt><trkpt lat="44.2074181" lon="8.0147739"><ele>578.0</ele><time>2026-04-21T07:58:09.936Z</time></trkpt><trkpt lat="44.2073273" lon="8.0147672"><ele>578.0</ele><time>2026-04-21T07:58:10.928Z</time></trkpt><trkpt lat="44.2072357" lon="8.0147634"><ele>578.1999999999999</ele><time>2026-04-21T07:58:11.93Z</time></trkpt><trkpt lat="44.207144" lon="8.0147564"><ele>578.4</ele><time>2026-04-21T07:58:12.935Z</time></trkpt><trkpt lat="44.2070508" lon="8.014751"><ele>578.5999999999999</ele><time>2026-04-21T07:58:13.92Z</time></trkpt><trkpt lat="44.2069553" lon="8.0147455"><ele>578.8</ele><time>2026-04-21T07:58:14.92Z</time></trkpt><trkpt lat="44.2068585" lon="8.0147399"><ele>579.0</ele><time>2026-04-21T07:58:15.922Z</time></trkpt><trkpt lat="44.2067623" lon="8.0147334"><ele>579.0</ele><time>2026-04-21T07:58:16.92Z</time></trkpt><trkpt lat="44.2066658" lon="8.0147262"><ele>579.0</ele><time>2026-04-21T07:58:17.938Z</time></trkpt><trkpt lat="44.2065692" lon="8.0147156"><ele>579.0</ele><time>2026-04-21T07:58:18.926Z</time></trkpt><trkpt lat="44.2064705" lon="8.0147062"><ele>579.0</ele><time>2026-04-21T07:58:19.925Z</time></trkpt><trkpt lat="44.2063739" lon="8.0146999"><ele>579.0</ele><time>2026-04-21T07:58:20.917Z</time></trkpt><trkpt lat="44.2062818" lon="8.014693"><ele>579.5714285714286</ele><time>2026-04-21T07:58:21.919Z</time></trkpt><trkpt lat="44.2061988" lon="8.0146878"><ele>580.1428571428571</ele><time>2026-04-21T07:58:22.92Z</time></trkpt><trkpt lat="44.2061261" lon="8.0146821"><ele>580.7142857142858</ele><time>2026-04-21T07:58:23.93Z</time></trkpt><trkpt lat="44.20606" lon="8.0146749"><ele>581.2857142857142</ele><time>2026-04-21T07:58:24.931Z</time></trkpt><trkpt lat="44.2059954" lon="8.0146702"><ele>581.8571428571429</ele><time>2026-04-21T07:58:25.941Z</time></trkpt><trkpt lat="44.2059319" lon="8.0146674"><ele>582.4285714285714</ele><time>2026-04-21T07:58:26.935Z</time></trkpt><trkpt lat="44.2058617" lon="8.0146621"><ele>583.0</ele><time>2026-04-21T07:58:27.921Z</time></trkpt><trkpt lat="44.2057859" lon="8.0146582"><ele>583.0</ele><time>2026-04-21T07:58:28.929Z</time></trkpt><trkpt lat="44.2057061" lon="8.0146572"><ele>583.0</ele><time>2026-04-21T07:58:29.937Z</time></trkpt><trkpt lat="44.205626" lon="8.0146555"><ele>583.0</ele><time>2026-04-21T07:58:30.937Z</time></trkpt><trkpt lat="44.2055533" lon="8.0146569"><ele>583.0</ele><time>2026-04-21T07:58:31.924Z</time></trkpt><trkpt lat="44.2054867" lon="8.0146604"><ele>583.0</ele><time>2026-04-21T07:58:32.934Z</time></trkpt><trkpt lat="44.2053701" lon="8.0146589"><ele>583.0</ele><time>2026-04-21T07:58:34.918Z</time></trkpt><trkpt lat="44.2052779" lon="8.0146524"><ele>583.5</ele><time>2026-04-21T07:58:36.936Z</time></trkpt><trkpt lat="44.2051874" lon="8.0146244"><ele>584.0</ele><time>2026-04-21T07:58:39.923Z</time></trkpt><trkpt lat="44.2051041" lon="8.0146065"><ele>584.5</ele><time>2026-04-21T07:58:41.922Z</time></trkpt><trkpt lat="44.2050132" lon="8.0145846"><ele>585.0</ele><time>2026-04-21T07:58:43.925Z</time></trkpt><trkpt lat="44.2049399" lon="8.0145694"><ele>585.5</ele><time>2026-04-21T07:58:45.935Z</time></trkpt><trkpt lat="44.2048401" lon="8.0145556"><ele>586.0</ele><time>2026-04-21T07:58:48.916Z</time></trkpt><trkpt lat="44.2047493" lon="8.0145361"><ele>586.0</ele><time>2026-04-21T07:58:50.922Z</time></trkpt><trkpt lat="44.2046399" lon="8.014505"><ele>586.0</ele><time>2026-04-21T07:58:52.932Z</time></trkpt><trkpt lat="44.2045099" lon="8.0144544"><ele>586.0</ele><time>2026-04-21T07:58:54.915Z</time></trkpt><trkpt lat="44.2044221" lon="8.014416"><ele>586.0</ele><time>2026-04-21T07:58:55.925Z</time></trkpt><trkpt lat="44.2043322" lon="8.014386"><ele>586.0</ele><time>2026-04-21T07:58:56.923Z</time></trkpt><trkpt lat="44.2042358" lon="8.0143477"><ele>586.0</ele><time>2026-04-21T07:58:57.927Z</time></trkpt><trkpt lat="44.2041388" lon="8.0143068"><ele>586.0</ele><time>2026-04-21T07:58:58.922Z</time></trkpt><trkpt lat="44.204064" lon="8.0142756"><ele>586.0</ele><time>2026-04-21T07:58:59.916Z</time></trkpt><trkpt lat="44.2039938" lon="8.0142482"><ele>586.0</ele><time>2026-04-21T07:59:00.931Z</time></trkpt><trkpt lat="44.2039309" lon="8.0142228"><ele>586.0</ele><time>2026-04-21T07:59:01.924Z</time></trkpt><trkpt lat="44.203832" lon="8.0141706"><ele>586.0</ele><time>2026-04-21T07:59:03.922Z</time></trkpt><trkpt lat="44.2037333" lon="8.0141219"><ele>585.8</ele><time>2026-04-21T07:59:05.918Z</time></trkpt><trkpt lat="44.2036521" lon="8.0140899"><ele>585.6</ele><time>2026-04-21T07:59:06.914Z</time></trkpt><trkpt lat="44.2035649" lon="8.0140538"><ele>585.4</ele><time>2026-04-21T07:59:07.931Z</time></trkpt><trkpt lat="44.2034664" lon="8.0140105"><ele>585.2</ele><time>2026-04-21T07:59:08.931Z</time></trkpt><trkpt lat="44.2033579" lon="8.0139564"><ele>585.0</ele><time>2026-04-21T07:59:09.937Z</time></trkpt><trkpt lat="44.2032433" lon="8.0139024"><ele>585.0</ele><time>2026-04-21T07:59:10.935Z</time></trkpt><trkpt lat="44.2031254" lon="8.0138461"><ele>585.0</ele><time>2026-04-21T07:59:11.923Z</time></trkpt><trkpt lat="44.2030073" lon="8.0137889"><ele>585.0</ele><time>2026-04-21T07:59:12.934Z</time></trkpt><trkpt lat="44.2028922" lon="8.0137369"><ele>585.0</ele><time>2026-04-21T07:59:13.922Z</time></trkpt><trkpt lat="44.2027735" lon="8.0136894"><ele>585.0</ele><time>2026-04-21T07:59:14.937Z</time></trkpt><trkpt lat="44.2026519" lon="8.0136382"><ele>585.0</ele><time>2026-04-21T07:59:15.915Z</time></trkpt><trkpt lat="44.2025307" lon="8.0135883"><ele>585.0</ele><time>2026-04-21T07:59:16.933Z</time></trkpt><trkpt lat="44.2024078" lon="8.0135387"><ele>585.0</ele><time>2026-04-21T07:59:17.93Z</time></trkpt><trkpt lat="44.2022855" lon="8.0134896"><ele>585.0</ele><time>2026-04-21T07:59:18.921Z</time></trkpt><trkpt lat="44.2021626" lon="8.0134397"><ele>585.0</ele><time>2026-04-21T07:59:19.921Z</time></trkpt><trkpt lat="44.2020397" lon="8.0133882"><ele>585.0</ele><time>2026-04-21T07:59:20.929Z</time></trkpt><trkpt lat="44.2019137" lon="8.0133372"><ele>585.0</ele><time>2026-04-21T07:59:21.922Z</time></trkpt><trkpt lat="44.2017888" lon="8.013285"><ele>585.0</ele><time>2026-04-21T07:59:22.915Z</time></trkpt><trkpt lat="44.2016662" lon="8.0132385"><ele>585.0</ele><time>2026-04-21T07:59:23.91Z</time></trkpt><trkpt lat="44.2015492" lon="8.013194"><ele>585.0</ele><time>2026-04-21T07:59:24.928Z</time></trkpt><trkpt lat="44.2014424" lon="8.0131528"><ele>585.0</ele><time>2026-04-21T07:59:25.916Z</time></trkpt><trkpt lat="44.2013417" lon="8.0131145"><ele>585.0</ele><time>2026-04-21T07:59:26.938Z</time></trkpt><trkpt lat="44.2012407" lon="8.0130751"><ele>585.0</ele><time>2026-04-21T07:59:27.922Z</time></trkpt><trkpt lat="44.2011383" lon="8.0130301"><ele>585.0</ele><time>2026-04-21T07:59:28.92Z</time></trkpt><trkpt lat="44.2010317" lon="8.0129835"><ele>585.0</ele><time>2026-04-21T07:59:29.922Z</time></trkpt><trkpt lat="44.2009196" lon="8.012939"><ele>585.0</ele><time>2026-04-21T07:59:30.935Z</time></trkpt><trkpt lat="44.200804" lon="8.012894"><ele>585.0</ele><time>2026-04-21T07:59:31.919Z</time></trkpt><trkpt lat="44.200684" lon="8.0128444"><ele>585.0</ele><time>2026-04-21T07:59:32.94Z</time></trkpt><trkpt lat="44.2005601" lon="8.0127911"><ele>585.0</ele><time>2026-04-21T07:59:33.927Z</time></trkpt><trkpt lat="44.2004319" lon="8.0127357"><ele>585.0</ele><time>2026-04-21T07:59:34.92Z</time></trkpt><trkpt lat="44.200298" lon="8.0126777"><ele>585.0</ele><time>2026-04-21T07:59:35.924Z</time></trkpt><trkpt lat="44.2001598" lon="8.0126197"><ele>585.0</ele><time>2026-04-21T07:59:36.92Z</time></trkpt><trkpt lat="44.2000168" lon="8.0125649"><ele>585.0</ele><time>2026-04-21T07:59:37.935Z</time></trkpt><trkpt lat="44.1998738" lon="8.0125097"><ele>585.0</ele><time>2026-04-21T07:59:38.913Z</time></trkpt><trkpt lat="44.1997309" lon="8.0124522"><ele>610.0</ele><time>2026-04-21T07:59:39.916Z</time></trkpt><trkpt lat="44.1908884" lon="8.0087888"><ele>610.0</ele><time>2026-04-21T08:00:27.914Z</time></trkpt><trkpt lat="44.1907322" lon="8.0085926"><ele>610.0</ele><time>2026-04-21T08:00:28.921Z</time></trkpt><trkpt lat="44.1905895" lon="8.0083757"><ele>610.0</ele><time>2026-04-21T08:00:29.911Z</time></trkpt><trkpt lat="44.1904716" lon="8.0081265"><ele>607.0</ele><time>2026-04-21T08:00:30.911Z</time></trkpt><trkpt lat="44.1903849" lon="8.0078448"><ele>604.0</ele><time>2026-04-21T08:00:31.91Z</time></trkpt><trkpt lat="44.1903216" lon="8.0075491"><ele>601.0</ele><time>2026-04-21T08:00:32.909Z</time></trkpt><trkpt lat="44.1902719" lon="8.0072561"><ele>601.0</ele><time>2026-04-21T08:00:33.911Z</time></trkpt><trkpt lat="44.1902304" lon="8.0069448"><ele>601.0</ele><time>2026-04-21T08:00:34.91Z</time></trkpt><trkpt lat="44.1901772" lon="8.0066454"><ele>601.0</ele><time>2026-04-21T08:00:35.914Z</time></trkpt><trkpt lat="44.1901226" lon="8.0063465"><ele>604.5</ele><time>2026-04-21T08:00:36.909Z</time></trkpt><trkpt lat="44.1900672" lon="8.0060561"><ele>608.0</ele><time>2026-04-21T08:00:37.906Z</time></trkpt><trkpt lat="44.1899353" lon="8.0054769"><ele>606.6666666666666</ele><time>2026-04-21T08:00:39.91Z</time></trkpt><trkpt lat="44.1898591" lon="8.0051913"><ele>605.3333333333334</ele><time>2026-04-21T08:00:40.921Z</time></trkpt><trkpt lat="44.1897725" lon="8.0049069"><ele>604.0</ele><time>2026-04-21T08:00:41.917Z</time></trkpt><trkpt lat="44.1896794" lon="8.0046279"><ele>604.0</ele><time>2026-04-21T08:00:42.917Z</time></trkpt><trkpt lat="44.1895848" lon="8.0043537"><ele>604.0</ele><time>2026-04-21T08:00:43.913Z</time></trkpt><trkpt lat="44.1894926" lon="8.004081"><ele>604.0</ele><time>2026-04-21T08:00:44.913Z</time></trkpt><trkpt lat="44.1894074" lon="8.0038092"><ele>606.6666666666667</ele><time>2026-04-21T08:00:45.911Z</time></trkpt><trkpt lat="44.1893318" lon="8.0035326"><ele>609.3333333333334</ele><time>2026-04-21T08:00:46.917Z</time></trkpt><trkpt lat="44.1892698" lon="8.0032516"><ele>612.0</ele><time>2026-04-21T08:00:47.912Z</time></trkpt><trkpt lat="44.1892247" lon="8.0029664"><ele>612.0</ele><time>2026-04-21T08:00:48.913Z</time></trkpt><trkpt lat="44.1891941" lon="8.0026787"><ele>612.0</ele><time>2026-04-21T08:00:49.911Z</time></trkpt><trkpt lat="44.1891715" lon="8.0023909"><ele>612.0</ele><time>2026-04-21T08:00:50.913Z</time></trkpt><trkpt lat="44.1891538" lon="8.0021126"><ele>612.6666666666666</ele><time>2026-04-21T08:00:51.911Z</time></trkpt><trkpt lat="44.1891299" lon="8.0018431"><ele>613.3333333333333</ele><time>2026-04-21T08:00:52.91Z</time></trkpt><trkpt lat="44.1890915" lon="8.0015927"><ele>614.0</ele><time>2026-04-21T08:00:53.918Z</time></trkpt><trkpt lat="44.1890438" lon="8.0013534"><ele>610.6666666666666</ele><time>2026-04-21T08:00:54.92Z</time></trkpt><trkpt lat="44.1889993" lon="8.0011212"><ele>607.3333333333334</ele><time>2026-04-21T08:00:55.911Z</time></trkpt><trkpt lat="44.1889546" lon="8.0009014"><ele>604.0</ele><time>2026-04-21T08:00:56.912Z</time></trkpt><trkpt lat="44.1889037" lon="8.0006888"><ele>604.0</ele><time>2026-04-21T08:00:57.919Z</time></trkpt><trkpt lat="44.1888452" lon="8.0004823"><ele>604.0</ele><time>2026-04-21T08:00:58.914Z</time></trkpt><trkpt lat="44.1886938" lon="8.0000797"><ele>604.0</ele><time>2026-04-21T08:01:00.919Z</time></trkpt><trkpt lat="44.1885978" lon="7.9998907"><ele>604.0</ele><time>2026-04-21T08:01:01.913Z</time></trkpt><trkpt lat="44.1884951" lon="7.999711"><ele>604.0</ele><time>2026-04-21T08:01:02.915Z</time></trkpt><trkpt lat="44.1883864" lon="7.9995388"><ele>604.0</ele><time>2026-04-21T08:01:03.919Z</time></trkpt><trkpt lat="44.1882775" lon="7.9993693"><ele>604.0</ele><time>2026-04-21T08:01:04.913Z</time></trkpt><trkpt lat="44.1881701" lon="7.9992005"><ele>604.0</ele><time>2026-04-21T08:01:05.912Z</time></trkpt><trkpt lat="44.1880664" lon="7.999029"><ele>604.3333333333334</ele><time>2026-04-21T08:01:06.913Z</time></trkpt><trkpt lat="44.1879689" lon="7.9988582"><ele>604.6666666666666</ele><time>2026-04-21T08:01:07.913Z</time></trkpt><trkpt lat="44.1878819" lon="7.9986825"><ele>605.0</ele><time>2026-04-21T08:01:08.915Z</time></trkpt><trkpt lat="44.1878043" lon="7.9985012"><ele>605.6666666666666</ele><time>2026-04-21T08:01:09.91Z</time></trkpt><trkpt lat="44.1877356" lon="7.9983082"><ele>606.3333333333334</ele><time>2026-04-21T08:01:10.912Z</time></trkpt><trkpt lat="44.1876754" lon="7.9981066"><ele>607.0</ele><time>2026-04-21T08:01:11.917Z</time></trkpt><trkpt lat="44.1876211" lon="7.9978987"><ele>607.0</ele><time>2026-04-21T08:01:12.918Z</time></trkpt><trkpt lat="44.1875688" lon="7.9976884"><ele>607.0</ele><time>2026-04-21T08:01:13.917Z</time></trkpt><trkpt lat="44.1875184" lon="7.9974777"><ele>607.0</ele><time>2026-04-21T08:01:14.912Z</time></trkpt><trkpt lat="44.1874672" lon="7.9972689"><ele>607.3333333333334</ele><time>2026-04-21T08:01:15.919Z</time></trkpt><trkpt lat="44.1874155" lon="7.9970622"><ele>607.6666666666666</ele><time>2026-04-21T08:01:16.909Z</time></trkpt><trkpt lat="44.1873621" lon="7.9968568"><ele>608.0</ele><time>2026-04-21T08:01:17.918Z</time></trkpt><trkpt lat="44.1873069" lon="7.9966553"><ele>609.0</ele><time>2026-04-21T08:01:18.909Z</time></trkpt><trkpt lat="44.1872526" lon="7.9964546"><ele>610.0</ele><time>2026-04-21T08:01:19.914Z</time></trkpt><trkpt lat="44.1871476" lon="7.9960532"><ele>610.0</ele><time>2026-04-21T08:01:21.917Z</time></trkpt><trkpt lat="44.1870955" lon="7.9958563"><ele>610.0</ele><time>2026-04-21T08:01:22.915Z</time></trkpt><trkpt lat="44.1870431" lon="7.9956625"><ele>610.0</ele><time>2026-04-21T08:01:23.916Z</time></trkpt><trkpt lat="44.1869806" lon="7.9954688"><ele>610.6666666666667</ele><time>2026-04-21T08:01:24.918Z</time></trkpt><trkpt lat="44.1869026" lon="7.9952864"><ele>611.3333333333334</ele><time>2026-04-21T08:01:25.911Z</time></trkpt><trkpt lat="44.1868072" lon="7.9951214"><ele>612.0</ele><time>2026-04-21T08:01:26.912Z</time></trkpt><trkpt lat="44.1867006" lon="7.9949708"><ele>612.3333333333334</ele><time>2026-04-21T08:01:27.915Z</time></trkpt><trkpt lat="44.1865846" lon="7.9948282"><ele>612.6666666666667</ele><time>2026-04-21T08:01:28.911Z</time></trkpt><trkpt lat="44.1864683" lon="7.9946915"><ele>613.0</ele><time>2026-04-21T08:01:29.917Z</time></trkpt><trkpt lat="44.1863521" lon="7.9945567"><ele>613.0</ele><time>2026-04-21T08:01:30.914Z</time></trkpt><trkpt lat="44.1862373" lon="7.9944176"><ele>613.0</ele><time>2026-04-21T08:01:31.913Z</time></trkpt><trkpt lat="44.1861214" lon="7.9942829"><ele>613.0</ele><time>2026-04-21T08:01:32.915Z</time></trkpt><trkpt lat="44.1860069" lon="7.9941459"><ele>613.0</ele><time>2026-04-21T08:01:33.917Z</time></trkpt><trkpt lat="44.1858919" lon="7.9940108"><ele>613.0</ele><time>2026-04-21T08:01:34.914Z</time></trkpt><trkpt lat="44.1857813" lon="7.9938801"><ele>613.0</ele><time>2026-04-21T08:01:35.915Z</time></trkpt><trkpt lat="44.1856684" lon="7.9937541"><ele>613.0</ele><time>2026-04-21T08:01:36.915Z</time></trkpt><trkpt lat="44.1855553" lon="7.9936326"><ele>613.0</ele><time>2026-04-21T08:01:37.915Z</time></trkpt><trkpt lat="44.185439" lon="7.9935203"><ele>613.0</ele><time>2026-04-21T08:01:38.912Z</time></trkpt><trkpt lat="44.1853206" lon="7.9934192"><ele>613.0</ele><time>2026-04-21T08:01:39.917Z</time></trkpt><trkpt lat="44.1852036" lon="7.993316"><ele>613.0</ele><time>2026-04-21T08:01:40.916Z</time></trkpt><trkpt lat="44.1849714" lon="7.9930947"><ele>613.0</ele><time>2026-04-21T08:01:42.92Z</time></trkpt><trkpt lat="44.1848598" lon="7.9929717"><ele>613.0</ele><time>2026-04-21T08:01:43.92Z</time></trkpt><trkpt lat="44.1847562" lon="7.9928249"><ele>613.0</ele><time>2026-04-21T08:01:44.911Z</time></trkpt><trkpt lat="44.1846626" lon="7.992663"><ele>613.0</ele><time>2026-04-21T08:01:45.919Z</time></trkpt><trkpt lat="44.1845782" lon="7.9924878"><ele>613.0</ele><time>2026-04-21T08:01:46.916Z</time></trkpt><trkpt lat="44.1845026" lon="7.9922986"><ele>613.0</ele><time>2026-04-21T08:01:47.912Z</time></trkpt><trkpt lat="44.1844331" lon="7.9920969"><ele>613.0</ele><time>2026-04-21T08:01:48.911Z</time></trkpt><trkpt lat="44.184361" lon="7.9918942"><ele>613.0</ele><time>2026-04-21T08:01:49.912Z</time></trkpt><trkpt lat="44.18429" lon="7.9917028"><ele>613.0</ele><time>2026-04-21T08:01:50.912Z</time></trkpt><trkpt lat="44.1842203" lon="7.9915137"><ele>613.0</ele><time>2026-04-21T08:01:51.917Z</time></trkpt><trkpt lat="44.1841515" lon="7.9913229"><ele>612.6666666666667</ele><time>2026-04-21T08:01:52.914Z</time></trkpt><trkpt lat="44.1840812" lon="7.9911314"><ele>612.3333333333334</ele><time>2026-04-21T08:01:53.915Z</time></trkpt><trkpt lat="44.1840089" lon="7.9909367"><ele>612.0</ele><time>2026-04-21T08:01:54.908Z</time></trkpt><trkpt lat="44.1839356" lon="7.9907376"><ele>612.0</ele><time>2026-04-21T08:01:55.912Z</time></trkpt><trkpt lat="44.1838638" lon="7.9905333"><ele>612.0</ele><time>2026-04-21T08:01:56.908Z</time></trkpt><trkpt lat="44.1837983" lon="7.9903196"><ele>612.0</ele><time>2026-04-21T08:01:57.913Z</time></trkpt><trkpt lat="44.1837437" lon="7.9900978"><ele>612.3333333333334</ele><time>2026-04-21T08:01:58.916Z</time></trkpt><trkpt lat="44.1837049" lon="7.9898706"><ele>612.6666666666667</ele><time>2026-04-21T08:01:59.913Z</time></trkpt><trkpt lat="44.1836823" lon="7.9896396"><ele>613.0</ele><time>2026-04-21T08:02:00.915Z</time></trkpt><trkpt lat="44.1836729" lon="7.9894096"><ele>614.0</ele><time>2026-04-21T08:02:01.913Z</time></trkpt><trkpt lat="44.1836719" lon="7.9889493"><ele>615.0</ele><time>2026-04-21T08:02:03.911Z</time></trkpt><trkpt lat="44.1836649" lon="7.988716"><ele>615.0</ele><time>2026-04-21T08:02:04.908Z</time></trkpt><trkpt lat="44.1836512" lon="7.9884797"><ele>615.0</ele><time>2026-04-21T08:02:05.912Z</time></trkpt><trkpt lat="44.1836336" lon="7.9882382"><ele>615.0</ele><time>2026-04-21T08:02:06.911Z</time></trkpt><trkpt lat="44.1836087" lon="7.9879923"><ele>615.0</ele><time>2026-04-21T08:02:07.913Z</time></trkpt><trkpt lat="44.1835755" lon="7.9877384"><ele>615.0</ele><time>2026-04-21T08:02:08.912Z</time></trkpt><trkpt lat="44.1835312" lon="7.9874793"><ele>615.0</ele><time>2026-04-21T08:02:09.908Z</time></trkpt><trkpt lat="44.1834771" lon="7.9872186"><ele>617.6666666666666</ele><time>2026-04-21T08:02:10.915Z</time></trkpt><trkpt lat="44.1834121" lon="7.986956"><ele>620.3333333333333</ele><time>2026-04-21T08:02:11.916Z</time></trkpt><trkpt lat="44.1833394" lon="7.9866907"><ele>623.0</ele><time>2026-04-21T08:02:12.915Z</time></trkpt><trkpt lat="44.183256" lon="7.9864255"><ele>622.3333333333333</ele><time>2026-04-21T08:02:13.908Z</time></trkpt><trkpt lat="44.1831599" lon="7.9861636"><ele>621.6666666666666</ele><time>2026-04-21T08:02:14.913Z</time></trkpt><trkpt lat="44.1830522" lon="7.9859069"><ele>621.0</ele><time>2026-04-21T08:02:15.913Z</time></trkpt><trkpt lat="44.1829374" lon="7.9856565"><ele>621.0</ele><time>2026-04-21T08:02:16.912Z</time></trkpt><trkpt lat="44.1828067" lon="7.9854234"><ele>621.0</ele><time>2026-04-21T08:02:17.914Z</time></trkpt><trkpt lat="44.1826658" lon="7.9851929"><ele>621.0</ele><time>2026-04-21T08:02:18.912Z</time></trkpt><trkpt lat="44.182514" lon="7.9849627"><ele>619.0</ele><time>2026-04-21T08:02:19.91Z</time></trkpt><trkpt lat="44.1823589" lon="7.9847312"><ele>617.0</ele><time>2026-04-21T08:02:20.913Z</time></trkpt><trkpt lat="44.1822012" lon="7.9845"><ele>617.0</ele><time>2026-04-21T08:02:21.914Z</time></trkpt><trkpt lat="44.182048" lon="7.9842699"><ele>617.0</ele><time>2026-04-21T08:02:22.923Z</time></trkpt><trkpt lat="44.1817455" lon="7.9837998"><ele>619.0</ele><time>2026-04-21T08:02:24.917Z</time></trkpt><trkpt lat="44.1815942" lon="7.9835611"><ele>621.0</ele><time>2026-04-21T08:02:25.914Z</time></trkpt><trkpt lat="44.1814419" lon="7.9833244"><ele>621.0</ele><time>2026-04-21T08:02:26.91Z</time></trkpt><trkpt lat="44.1812876" lon="7.9830881"><ele>621.0</ele><time>2026-04-21T08:02:27.914Z</time></trkpt><trkpt lat="44.1811269" lon="7.9828546"><ele>621.0</ele><time>2026-04-21T08:02:28.907Z</time></trkpt><trkpt lat="44.1809601" lon="7.9826332"><ele>621.0</ele><time>2026-04-21T08:02:29.914Z</time></trkpt><trkpt lat="44.1807819" lon="7.9824283"><ele>622.5</ele><time>2026-04-21T08:02:30.909Z</time></trkpt><trkpt lat="44.1805912" lon="7.9822462"><ele>624.0</ele><time>2026-04-21T08:02:31.912Z</time></trkpt><trkpt lat="44.1803913" lon="7.9820839"><ele>624.0</ele><time>2026-04-21T08:02:32.91Z</time></trkpt><trkpt lat="44.1801809" lon="7.9819412"><ele>624.0</ele><time>2026-04-21T08:02:33.908Z</time></trkpt><trkpt lat="44.1799629" lon="7.9818142"><ele>623.5</ele><time>2026-04-21T08:02:34.918Z</time></trkpt><trkpt lat="44.1797431" lon="7.9817072"><ele>623.0</ele><time>2026-04-21T08:02:35.912Z</time></trkpt><trkpt lat="44.1795179" lon="7.9816218"><ele>629.0</ele><time>2026-04-21T08:02:36.909Z</time></trkpt><trkpt lat="44.1792898" lon="7.9815477"><ele>635.0</ele><time>2026-04-21T08:02:37.911Z</time></trkpt><trkpt lat="44.1790614" lon="7.9814747"><ele>631.5</ele><time>2026-04-21T08:02:38.911Z</time></trkpt><trkpt lat="44.1788389" lon="7.9813969"><ele>628.0</ele><time>2026-04-21T08:02:39.912Z</time></trkpt><trkpt lat="44.1786195" lon="7.9813163"><ele>628.0</ele><time>2026-04-21T08:02:40.913Z</time></trkpt><trkpt lat="44.1784096" lon="7.9812324"><ele>628.0</ele><time>2026-04-21T08:02:41.91Z</time></trkpt><trkpt lat="44.1782042" lon="7.9811493"><ele>628.0</ele><time>2026-04-21T08:02:42.917Z</time></trkpt><trkpt lat="44.1780012" lon="7.9810631"><ele>627.0</ele><time>2026-04-21T08:02:43.913Z</time></trkpt><trkpt lat="44.1775894" lon="7.9808983"><ele>626.0</ele><time>2026-04-21T08:02:45.92Z</time></trkpt><trkpt lat="44.1773815" lon="7.9808379"><ele>631.3333333333333</ele><time>2026-04-21T08:02:46.914Z</time></trkpt><trkpt lat="44.1771752" lon="7.9808034"><ele>636.6666666666666</ele><time>2026-04-21T08:02:47.918Z</time></trkpt><trkpt lat="44.1769689" lon="7.9808008"><ele>642.0</ele><time>2026-04-21T08:02:48.92Z</time></trkpt><trkpt lat="44.1767543" lon="7.9808136"><ele>642.0</ele><time>2026-04-21T08:02:49.918Z</time></trkpt><trkpt lat="44.1765466" lon="7.9808308"><ele>642.0</ele><time>2026-04-21T08:02:50.919Z</time></trkpt><trkpt lat="44.1763519" lon="7.9808317"><ele>642.0</ele><time>2026-04-21T08:02:51.917Z</time></trkpt><trkpt lat="44.1761668" lon="7.9807854"><ele>639.0</ele><time>2026-04-21T08:02:52.916Z</time></trkpt><trkpt lat="44.1759982" lon="7.9806635"><ele>636.0</ele><time>2026-04-21T08:02:53.917Z</time></trkpt><trkpt lat="44.1758399" lon="7.9804862"><ele>633.0</ele><time>2026-04-21T08:02:54.92Z</time></trkpt><trkpt lat="44.1757103" lon="7.9802725"><ele>631.6666666666666</ele><time>2026-04-21T08:02:55.918Z</time></trkpt><trkpt lat="44.1756009" lon="7.9800439"><ele>630.3333333333333</ele><time>2026-04-21T08:02:56.919Z</time></trkpt><trkpt lat="44.175505" lon="7.9798135"><ele>629.0</ele><time>2026-04-21T08:02:57.911Z</time></trkpt><trkpt lat="44.1754002" lon="7.9795918"><ele>629.0</ele><time>2026-04-21T08:02:58.922Z</time></trkpt><trkpt lat="44.1752821" lon="7.9793781"><ele>629.0</ele><time>2026-04-21T08:02:59.919Z</time></trkpt><trkpt lat="44.1751543" lon="7.979173"><ele>629.0</ele><time>2026-04-21T08:03:00.909Z</time></trkpt><trkpt lat="44.1750137" lon="7.9789793"><ele>629.0</ele><time>2026-04-21T08:03:01.919Z</time></trkpt><trkpt lat="44.1748626" lon="7.9787995"><ele>629.0</ele><time>2026-04-21T08:03:02.911Z</time></trkpt><trkpt lat="44.1747009" lon="7.978628"><ele>629.0</ele><time>2026-04-21T08:03:03.912Z</time></trkpt><trkpt lat="44.1745311" lon="7.9784606"><ele>630.0</ele><time>2026-04-21T08:03:04.914Z</time></trkpt><trkpt lat="44.1741806" lon="7.9781524"><ele>631.0</ele><time>2026-04-21T08:03:06.921Z</time></trkpt><trkpt lat="44.1740043" lon="7.9780046"><ele>631.0</ele><time>2026-04-21T08:03:07.911Z</time></trkpt><trkpt lat="44.1738276" lon="7.9778548"><ele>631.0</ele><time>2026-04-21T08:03:08.913Z</time></trkpt><trkpt lat="44.1736535" lon="7.9777124"><ele>631.0</ele><time>2026-04-21T08:03:09.913Z</time></trkpt><trkpt lat="44.17348" lon="7.9775765"><ele>630.3333333333334</ele><time>2026-04-21T08:03:10.914Z</time></trkpt><trkpt lat="44.1733159" lon="7.9774443"><ele>629.6666666666666</ele><time>2026-04-21T08:03:11.916Z</time></trkpt><trkpt lat="44.1731577" lon="7.9773175"><ele>629.0</ele><time>2026-04-21T08:03:12.92Z</time></trkpt><trkpt lat="44.1729972" lon="7.9771999"><ele>629.0</ele><time>2026-04-21T08:03:13.912Z</time></trkpt><trkpt lat="44.1728311" lon="7.9770925"><ele>629.0</ele><time>2026-04-21T08:03:14.916Z</time></trkpt><trkpt lat="44.1726568" lon="7.9769944"><ele>629.0</ele><time>2026-04-21T08:03:15.914Z</time></trkpt><trkpt lat="44.1724711" lon="7.9769077"><ele>629.0</ele><time>2026-04-21T08:03:16.917Z</time></trkpt><trkpt lat="44.1722793" lon="7.9768305"><ele>629.0</ele><time>2026-04-21T08:03:17.92Z</time></trkpt><trkpt lat="44.1720827" lon="7.9767635"><ele>629.0</ele><time>2026-04-21T08:03:18.912Z</time></trkpt><trkpt lat="44.1718817" lon="7.9767111"><ele>631.6666666666666</ele><time>2026-04-21T08:03:19.92Z</time></trkpt><trkpt lat="44.1716761" lon="7.9766653"><ele>634.3333333333334</ele><time>2026-04-21T08:03:20.912Z</time></trkpt><trkpt lat="44.1714699" lon="7.9766247"><ele>637.0</ele><time>2026-04-21T08:03:21.91Z</time></trkpt><trkpt lat="44.1712662" lon="7.9765824"><ele>637.0</ele><time>2026-04-21T08:03:22.91Z</time></trkpt><trkpt lat="44.1710624" lon="7.9765347"><ele>637.0</ele><time>2026-04-21T08:03:23.914Z</time></trkpt><trkpt lat="44.1708644" lon="7.9764826"><ele>637.0</ele><time>2026-04-21T08:03:24.914Z</time></trkpt><trkpt lat="44.170677" lon="7.9764123"><ele>636.0</ele><time>2026-04-21T08:03:25.909Z</time></trkpt><trkpt lat="44.1703422" lon="7.9761866"><ele>635.0</ele><time>2026-04-21T08:03:27.914Z</time></trkpt><trkpt lat="44.1701862" lon="7.9760416"><ele>635.0</ele><time>2026-04-21T08:03:28.91Z</time></trkpt><trkpt lat="44.1700281" lon="7.9758893"><ele>635.0</ele><time>2026-04-21T08:03:29.912Z</time></trkpt><trkpt lat="44.1698704" lon="7.9757386"><ele>635.0</ele><time>2026-04-21T08:03:30.913Z</time></trkpt><trkpt lat="44.1697053" lon="7.9755897"><ele>635.6666666666666</ele><time>2026-04-21T08:03:31.913Z</time></trkpt><trkpt lat="44.1695352" lon="7.9754456"><ele>636.3333333333334</ele><time>2026-04-21T08:03:32.919Z</time></trkpt><trkpt lat="44.16936" lon="7.9753041"><ele>637.0</ele><time>2026-04-21T08:03:33.915Z</time></trkpt><trkpt lat="44.1691863" lon="7.9751613"><ele>639.0</ele><time>2026-04-21T08:03:34.915Z</time></trkpt><trkpt lat="44.1690131" lon="7.9750148"><ele>641.0</ele><time>2026-04-21T08:03:35.915Z</time></trkpt><trkpt lat="44.1688418" lon="7.9748696"><ele>643.0</ele><time>2026-04-21T08:03:36.916Z</time></trkpt><trkpt lat="44.1686708" lon="7.9747229"><ele>643.0</ele><time>2026-04-21T08:03:37.914Z</time></trkpt><trkpt lat="44.168499" lon="7.9745817"><ele>643.0</ele><time>2026-04-21T08:03:38.914Z</time></trkpt><trkpt lat="44.1683263" lon="7.9744428"><ele>643.0</ele><time>2026-04-21T08:03:39.916Z</time></trkpt><trkpt lat="44.1681571" lon="7.9743052"><ele>643.0</ele><time>2026-04-21T08:03:40.908Z</time></trkpt><trkpt lat="44.1679951" lon="7.974163"><ele>643.0</ele><time>2026-04-21T08:03:41.911Z</time></trkpt><trkpt lat="44.167843" lon="7.9740196"><ele>643.0</ele><time>2026-04-21T08:03:42.917Z</time></trkpt><trkpt lat="44.1677088" lon="7.9738742"><ele>643.0</ele><time>2026-04-21T08:03:43.916Z</time></trkpt><trkpt lat="44.1675945" lon="7.9737178"><ele>643.0</ele><time>2026-04-21T08:03:44.919Z</time></trkpt><trkpt lat="44.1674941" lon="7.9735423"><ele>643.0</ele><time>2026-04-21T08:03:45.916Z</time></trkpt><trkpt lat="44.1673172" lon="7.9731982"><ele>644.6666666666667</ele><time>2026-04-21T08:03:47.916Z</time></trkpt><trkpt lat="44.1672181" lon="7.9730459"><ele>646.3333333333334</ele><time>2026-04-21T08:03:48.916Z</time></trkpt><trkpt lat="44.1671049" lon="7.9729128"><ele>648.0</ele><time>2026-04-21T08:03:49.917Z</time></trkpt><trkpt lat="44.1669738" lon="7.9727989"><ele>648.0</ele><time>2026-04-21T08:03:50.917Z</time></trkpt><trkpt lat="44.1668362" lon="7.9727074"><ele>648.0</ele><time>2026-04-21T08:03:51.913Z</time></trkpt><trkpt lat="44.1666911" lon="7.9726388"><ele>648.0</ele><time>2026-04-21T08:03:52.913Z</time></trkpt><trkpt lat="44.1665451" lon="7.9725919"><ele>648.6666666666666</ele><time>2026-04-21T08:03:53.911Z</time></trkpt><trkpt lat="44.1663979" lon="7.9725516"><ele>649.3333333333333</ele><time>2026-04-21T08:03:54.91Z</time></trkpt><trkpt lat="44.1662485" lon="7.9725187"><ele>650.0</ele><time>2026-04-21T08:03:55.92Z</time></trkpt><trkpt lat="44.1660971" lon="7.972477"><ele>650.0</ele><time>2026-04-21T08:03:56.921Z</time></trkpt><trkpt lat="44.1659478" lon="7.9724414"><ele>650.0</ele><time>2026-04-21T08:03:57.921Z</time></trkpt><trkpt lat="44.1658065" lon="7.9724036"><ele>650.0</ele><time>2026-04-21T08:03:58.912Z</time></trkpt><trkpt lat="44.1656746" lon="7.972361"><ele>650.0</ele><time>2026-04-21T08:03:59.914Z</time></trkpt><trkpt lat="44.1655502" lon="7.9723205"><ele>649.75</ele><time>2026-04-21T08:04:00.912Z</time></trkpt><trkpt lat="44.1654279" lon="7.9722875"><ele>649.5</ele><time>2026-04-21T08:04:01.908Z</time></trkpt><trkpt lat="44.165308" lon="7.9722551"><ele>649.25</ele><time>2026-04-21T08:04:02.908Z</time></trkpt><trkpt lat="44.1651904" lon="7.9722207"><ele>649.0</ele><time>2026-04-21T08:04:03.912Z</time></trkpt><trkpt lat="44.1650724" lon="7.9721882"><ele>649.0</ele><time>2026-04-21T08:04:04.909Z</time></trkpt><trkpt lat="44.1649547" lon="7.9721543"><ele>649.0</ele><time>2026-04-21T08:04:05.911Z</time></trkpt><trkpt lat="44.1648381" lon="7.9721207"><ele>649.0</ele><time>2026-04-21T08:04:06.916Z</time></trkpt><trkpt lat="44.1646046" lon="7.9720577"><ele>648.5</ele><time>2026-04-21T08:04:08.914Z</time></trkpt><trkpt lat="44.1644879" lon="7.9720222"><ele>648.0</ele><time>2026-04-21T08:04:09.915Z</time></trkpt><trkpt lat="44.1643691" lon="7.9719857"><ele>647.5</ele><time>2026-04-21T08:04:10.914Z</time></trkpt><trkpt lat="44.1642467" lon="7.9719354"><ele>647.0</ele><time>2026-04-21T08:04:11.915Z</time></trkpt><trkpt lat="44.164118" lon="7.971872"><ele>647.0</ele><time>2026-04-21T08:04:12.914Z</time></trkpt><trkpt lat="44.1639943" lon="7.9717912"><ele>647.0</ele><time>2026-04-21T08:04:13.916Z</time></trkpt><trkpt lat="44.163871" lon="7.9716943"><ele>647.0</ele><time>2026-04-21T08:04:14.912Z</time></trkpt><trkpt lat="44.1637509" lon="7.9715875"><ele>647.0</ele><time>2026-04-21T08:04:15.916Z</time></trkpt><trkpt lat="44.1636292" lon="7.9714765"><ele>647.0</ele><time>2026-04-21T08:04:16.913Z</time></trkpt><trkpt lat="44.1635119" lon="7.9713571"><ele>647.0</ele><time>2026-04-21T08:04:17.919Z</time></trkpt><trkpt lat="44.1633982" lon="7.9712442"><ele>647.0</ele><time>2026-04-21T08:04:18.91Z</time></trkpt><trkpt lat="44.1632858" lon="7.9711396"><ele>647.0</ele><time>2026-04-21T08:04:19.916Z</time></trkpt><trkpt lat="44.1631709" lon="7.9710421"><ele>647.0</ele><time>2026-04-21T08:04:20.915Z</time></trkpt><trkpt lat="44.1630579" lon="7.9709443"><ele>647.0</ele><time>2026-04-21T08:04:21.908Z</time></trkpt><trkpt lat="44.1629483" lon="7.9708448"><ele>647.0</ele><time>2026-04-21T08:04:22.915Z</time></trkpt><trkpt lat="44.1628441" lon="7.9707352"><ele>647.0</ele><time>2026-04-21T08:04:23.909Z</time></trkpt><trkpt lat="44.1627467" lon="7.9706145"><ele>647.75</ele><time>2026-04-21T08:04:24.913Z</time></trkpt><trkpt lat="44.1626532" lon="7.9704869"><ele>648.5</ele><time>2026-04-21T08:04:25.916Z</time></trkpt><trkpt lat="44.1625595" lon="7.9703507"><ele>649.25</ele><time>2026-04-21T08:04:26.915Z</time></trkpt><trkpt lat="44.1624755" lon="7.9702035"><ele>650.0</ele><time>2026-04-21T08:04:27.911Z</time></trkpt><trkpt lat="44.1623382" lon="7.9698469"><ele>650.0</ele><time>2026-04-21T08:04:29.912Z</time></trkpt><trkpt lat="44.1622776" lon="7.9696492"><ele>650.0</ele><time>2026-04-21T08:04:30.912Z</time></trkpt><trkpt lat="44.1622123" lon="7.9694455"><ele>650.0</ele><time>2026-04-21T08:04:31.915Z</time></trkpt><trkpt lat="44.1621417" lon="7.9692383"><ele>651.6666666666666</ele><time>2026-04-21T08:04:32.916Z</time></trkpt><trkpt lat="44.1620681" lon="7.9690311"><ele>653.3333333333334</ele><time>2026-04-21T08:04:33.917Z</time></trkpt><trkpt lat="44.1619972" lon="7.9688217"><ele>655.0</ele><time>2026-04-21T08:04:34.912Z</time></trkpt><trkpt lat="44.1619363" lon="7.9686115"><ele>655.0</ele><time>2026-04-21T08:04:35.917Z</time></trkpt><trkpt lat="44.1618899" lon="7.9684022"><ele>655.0</ele><time>2026-04-21T08:04:36.912Z</time></trkpt><trkpt lat="44.1618621" lon="7.9681939"><ele>655.0</ele><time>2026-04-21T08:04:37.92Z</time></trkpt><trkpt lat="44.1618486" lon="7.9679818"><ele>656.0</ele><time>2026-04-21T08:04:38.908Z</time></trkpt><trkpt lat="44.1618378" lon="7.9677674"><ele>657.0</ele><time>2026-04-21T08:04:39.907Z</time></trkpt><trkpt lat="44.1618228" lon="7.9675405"><ele>658.0</ele><time>2026-04-21T08:04:40.912Z</time></trkpt><trkpt lat="44.1617989" lon="7.9673075"><ele>660.3333333333334</ele><time>2026-04-21T08:04:41.917Z</time></trkpt><trkpt lat="44.1617676" lon="7.9670712"><ele>662.6666666666666</ele><time>2026-04-21T08:04:42.921Z</time></trkpt><trkpt lat="44.1617287" lon="7.9668327"><ele>665.0</ele><time>2026-04-21T08:04:43.91Z</time></trkpt><trkpt lat="44.1616836" lon="7.9665877"><ele>667.3333333333333</ele><time>2026-04-21T08:04:44.919Z</time></trkpt><trkpt lat="44.1616182" lon="7.9663537"><ele>669.6666666666666</ele><time>2026-04-21T08:04:45.914Z</time></trkpt><trkpt lat="44.1615286" lon="7.9661457"><ele>672.0</ele><time>2026-04-21T08:04:46.917Z</time></trkpt><trkpt lat="44.1614146" lon="7.9659748"><ele>665.6666666666666</ele><time>2026-04-21T08:04:47.918Z</time></trkpt><trkpt lat="44.1612935" lon="7.9658389"><ele>659.3333333333333</ele><time>2026-04-21T08:04:48.914Z</time></trkpt><trkpt lat="44.161104" lon="7.9655762"><ele>653.0</ele><time>2026-04-21T08:04:50.911Z</time></trkpt><trkpt lat="44.1610472" lon="7.9654166"><ele>653.0</ele><time>2026-04-21T08:04:51.912Z</time></trkpt><trkpt lat="44.1610046" lon="7.9652375"><ele>653.0</ele><time>2026-04-21T08:04:52.911Z</time></trkpt><trkpt lat="44.1609626" lon="7.965042"><ele>653.0</ele><time>2026-04-21T08:04:53.916Z</time></trkpt><trkpt lat="44.1609149" lon="7.964842"><ele>653.0</ele><time>2026-04-21T08:04:54.918Z</time></trkpt><trkpt lat="44.1608577" lon="7.9646383"><ele>654.6666666666666</ele><time>2026-04-21T08:04:55.911Z</time></trkpt><trkpt lat="44.1607872" lon="7.9644367"><ele>656.3333333333334</ele><time>2026-04-21T08:04:56.914Z</time></trkpt><trkpt lat="44.1607108" lon="7.9642438"><ele>658.0</ele><time>2026-04-21T08:04:57.916Z</time></trkpt><trkpt lat="44.1606385" lon="7.9640587"><ele>659.0</ele><time>2026-04-21T08:04:58.916Z</time></trkpt><trkpt lat="44.1605777" lon="7.9638712"><ele>660.0</ele><time>2026-04-21T08:04:59.915Z</time></trkpt><trkpt lat="44.1605276" lon="7.9636779"><ele>661.0</ele><time>2026-04-21T08:05:00.907Z</time></trkpt><trkpt lat="44.1604797" lon="7.9634781"><ele>662.0</ele><time>2026-04-21T08:05:01.914Z</time></trkpt><trkpt lat="44.1604354" lon="7.9632694"><ele>662.0</ele><time>2026-04-21T08:05:02.908Z</time></trkpt><trkpt lat="44.1603962" lon="7.9630502"><ele>662.0</ele><time>2026-04-21T08:05:03.908Z</time></trkpt><trkpt lat="44.1603629" lon="7.9628222"><ele>662.0</ele><time>2026-04-21T08:05:04.914Z</time></trkpt><trkpt lat="44.1603414" lon="7.9625906"><ele>663.0</ele><time>2026-04-21T08:05:05.908Z</time></trkpt><trkpt lat="44.1603324" lon="7.9623608"><ele>664.0</ele><time>2026-04-21T08:05:06.916Z</time></trkpt><trkpt lat="44.1603355" lon="7.9621271"><ele>665.0</ele><time>2026-04-21T08:05:07.919Z</time></trkpt><trkpt lat="44.160354" lon="7.9618919"><ele>663.0</ele><time>2026-04-21T08:05:08.911Z</time></trkpt><trkpt lat="44.160384" lon="7.9616519"><ele>661.0</ele><time>2026-04-21T08:05:09.918Z</time></trkpt><trkpt lat="44.1604468" lon="7.9611603"><ele>661.0</ele><time>2026-04-21T08:05:11.914Z</time></trkpt><trkpt lat="44.1604727" lon="7.9609076"><ele>661.0</ele><time>2026-04-21T08:05:12.917Z</time></trkpt><trkpt lat="44.1604935" lon="7.9606474"><ele>661.0</ele><time>2026-04-21T08:05:13.919Z</time></trkpt><trkpt lat="44.1605052" lon="7.9603825"><ele>661.0</ele><time>2026-04-21T08:05:14.915Z</time></trkpt><trkpt lat="44.16051" lon="7.9601207"><ele>661.0</ele><time>2026-04-21T08:05:15.922Z</time></trkpt><trkpt lat="44.1605011" lon="7.9598622"><ele>661.0</ele><time>2026-04-21T08:05:16.913Z</time></trkpt><trkpt lat="44.1604675" lon="7.9596095"><ele>661.0</ele><time>2026-04-21T08:05:17.915Z</time></trkpt><trkpt lat="44.1604048" lon="7.9593711"><ele>661.0</ele><time>2026-04-21T08:05:18.917Z</time></trkpt><trkpt lat="44.1603288" lon="7.9591402"><ele>661.0</ele><time>2026-04-21T08:05:19.916Z</time></trkpt><trkpt lat="44.1602471" lon="7.9589138"><ele>661.6666666666667</ele><time>2026-04-21T08:05:20.917Z</time></trkpt><trkpt lat="44.1601576" lon="7.9586883"><ele>662.3333333333334</ele><time>2026-04-21T08:05:21.92Z</time></trkpt><trkpt lat="44.1600661" lon="7.9584703"><ele>663.0</ele><time>2026-04-21T08:05:22.915Z</time></trkpt><trkpt lat="44.1599692" lon="7.958261"><ele>662.6666666666666</ele><time>2026-04-21T08:05:23.916Z</time></trkpt><trkpt lat="44.1598593" lon="7.9580635"><ele>662.3333333333333</ele><time>2026-04-21T08:05:24.916Z</time></trkpt><trkpt lat="44.1597386" lon="7.9578801"><ele>662.0</ele><time>2026-04-21T08:05:25.915Z</time></trkpt><trkpt lat="44.159613" lon="7.9577134"><ele>662.0</ele><time>2026-04-21T08:05:26.922Z</time></trkpt><trkpt lat="44.159492" lon="7.9575611"><ele>662.0</ele><time>2026-04-21T08:05:27.916Z</time></trkpt><trkpt lat="44.1593718" lon="7.9574156"><ele>662.0</ele><time>2026-04-21T08:05:28.911Z</time></trkpt><trkpt lat="44.159256" lon="7.9572709"><ele>662.0</ele><time>2026-04-21T08:05:29.917Z</time></trkpt><trkpt lat="44.159146" lon="7.9571237"><ele>662.0</ele><time>2026-04-21T08:05:30.914Z</time></trkpt><trkpt lat="44.15894" lon="7.9568381"><ele>662.0</ele><time>2026-04-21T08:05:32.917Z</time></trkpt><trkpt lat="44.1588413" lon="7.9567024"><ele>662.75</ele><time>2026-04-21T08:05:33.91Z</time></trkpt><trkpt lat="44.15874" lon="7.9565653"><ele>663.5</ele><time>2026-04-21T08:05:34.914Z</time></trkpt><trkpt lat="44.1586457" lon="7.9564299"><ele>664.25</ele><time>2026-04-21T08:05:35.91Z</time></trkpt><trkpt lat="44.1585565" lon="7.9562929"><ele>665.0</ele><time>2026-04-21T08:05:36.921Z</time></trkpt><trkpt lat="44.1584794" lon="7.9561448"><ele>665.0</ele><time>2026-04-21T08:05:37.916Z</time></trkpt><trkpt lat="44.1584158" lon="7.9559815"><ele>665.0</ele><time>2026-04-21T08:05:38.908Z</time></trkpt><trkpt lat="44.1583616" lon="7.955796"><ele>665.0</ele><time>2026-04-21T08:05:39.916Z</time></trkpt><trkpt lat="44.1583233" lon="7.955602"><ele>665.0</ele><time>2026-04-21T08:05:40.925Z</time></trkpt><trkpt lat="44.1582948" lon="7.9553943"><ele>667.0</ele><time>2026-04-21T08:05:41.911Z</time></trkpt><trkpt lat="44.1582784" lon="7.9551796"><ele>669.0</ele><time>2026-04-21T08:05:42.922Z</time></trkpt><trkpt lat="44.1582726" lon="7.9549703"><ele>671.0</ele><time>2026-04-21T08:05:43.912Z</time></trkpt><trkpt lat="44.1582762" lon="7.9547618"><ele>671.5</ele><time>2026-04-21T08:05:44.917Z</time></trkpt><trkpt lat="44.1582825" lon="7.9545622"><ele>672.0</ele><time>2026-04-21T08:05:45.917Z</time></trkpt><trkpt lat="44.1582838" lon="7.9543616"><ele>672.5</ele><time>2026-04-21T08:05:46.912Z</time></trkpt><trkpt lat="44.1582812" lon="7.9541604"><ele>673.0</ele><time>2026-04-21T08:05:47.918Z</time></trkpt><trkpt lat="44.1582768" lon="7.9539586"><ele>673.0</ele><time>2026-04-21T08:05:48.921Z</time></trkpt><trkpt lat="44.1582713" lon="7.9537546"><ele>673.0</ele><time>2026-04-21T08:05:49.916Z</time></trkpt><trkpt lat="44.1582673" lon="7.9535491"><ele>673.0</ele><time>2026-04-21T08:05:50.915Z</time></trkpt><trkpt lat="44.1582659" lon="7.953338"><ele>673.0</ele><time>2026-04-21T08:05:51.92Z</time></trkpt><trkpt lat="44.158265" lon="7.9529105"><ele>673.6666666666667</ele><time>2026-04-21T08:05:53.917Z</time></trkpt><trkpt lat="44.1582633" lon="7.9526937"><ele>674.3333333333334</ele><time>2026-04-21T08:05:54.914Z</time></trkpt><trkpt lat="44.1582598" lon="7.9524733"><ele>675.0</ele><time>2026-04-21T08:05:55.915Z</time></trkpt><trkpt lat="44.1582585" lon="7.9522519"><ele>676.3333333333334</ele><time>2026-04-21T08:05:56.913Z</time></trkpt><trkpt lat="44.1582552" lon="7.9520296"><ele>677.6666666666667</ele><time>2026-04-21T08:05:57.916Z</time></trkpt><trkpt lat="44.1582523" lon="7.9518046"><ele>679.0</ele><time>2026-04-21T08:05:58.915Z</time></trkpt><trkpt lat="44.1582511" lon="7.951578"><ele>680.0</ele><time>2026-04-21T08:05:59.918Z</time></trkpt><trkpt lat="44.1582543" lon="7.9513513"><ele>681.0</ele><time>2026-04-21T08:06:00.919Z</time></trkpt><trkpt lat="44.1582636" lon="7.9511201"><ele>682.0</ele><time>2026-04-21T08:06:01.917Z</time></trkpt><trkpt lat="44.1582809" lon="7.9508882"><ele>684.3333333333334</ele><time>2026-04-21T08:06:02.921Z</time></trkpt><trkpt lat="44.158301" lon="7.9506498"><ele>686.6666666666666</ele><time>2026-04-21T08:06:03.914Z</time></trkpt><trkpt lat="44.158319" lon="7.9504004"><ele>689.0</ele><time>2026-04-21T08:06:04.913Z</time></trkpt><trkpt lat="44.1583327" lon="7.9501438"><ele>687.3333333333333</ele><time>2026-04-21T08:06:05.917Z</time></trkpt><trkpt lat="44.1583443" lon="7.9498794"><ele>685.6666666666666</ele><time>2026-04-21T08:06:06.915Z</time></trkpt><trkpt lat="44.1583578" lon="7.9496077"><ele>684.0</ele><time>2026-04-21T08:06:07.918Z</time></trkpt><trkpt lat="44.1583734" lon="7.9493294"><ele>683.6666666666666</ele><time>2026-04-21T08:06:08.909Z</time></trkpt><trkpt lat="44.1583892" lon="7.9490443"><ele>683.3333333333333</ele><time>2026-04-21T08:06:09.917Z</time></trkpt><trkpt lat="44.1584036" lon="7.9487528"><ele>683.0</ele><time>2026-04-21T08:06:10.915Z</time></trkpt><trkpt lat="44.1584187" lon="7.9484557"><ele>680.0</ele><time>2026-04-21T08:06:11.918Z</time></trkpt><trkpt lat="44.1584324" lon="7.9481548"><ele>677.0</ele><time>2026-04-21T08:06:12.921Z</time></trkpt><trkpt lat="44.1584478" lon="7.9475675"><ele>677.6666666666666</ele><time>2026-04-21T08:06:14.916Z</time></trkpt><trkpt lat="44.1584455" lon="7.9472887"><ele>678.3333333333334</ele><time>2026-04-21T08:06:15.916Z</time></trkpt><trkpt lat="44.1584363" lon="7.9470232"><ele>679.0</ele><time>2026-04-21T08:06:16.923Z</time></trkpt><trkpt lat="44.1584229" lon="7.9467744"><ele>679.3333333333334</ele><time>2026-04-21T08:06:17.915Z</time></trkpt><trkpt lat="44.1584086" lon="7.9465398"><ele>679.6666666666666</ele><time>2026-04-21T08:06:18.918Z</time></trkpt><trkpt lat="44.1583915" lon="7.946316"><ele>680.0</ele><time>2026-04-21T08:06:19.917Z</time></trkpt><trkpt lat="44.1583756" lon="7.9461089"><ele>680.0</ele><time>2026-04-21T08:06:20.917Z</time></trkpt><trkpt lat="44.1583628" lon="7.9459193"><ele>680.0</ele><time>2026-04-21T08:06:21.912Z</time></trkpt><trkpt lat="44.1583553" lon="7.9457473"><ele>680.0</ele><time>2026-04-21T08:06:22.916Z</time></trkpt><trkpt lat="44.1583489" lon="7.9455872"><ele>680.0</ele><time>2026-04-21T08:06:23.915Z</time></trkpt><trkpt lat="44.1583456" lon="7.9454297"><ele>679.6</ele><time>2026-04-21T08:06:24.911Z</time></trkpt><trkpt lat="44.1583379" lon="7.9452802"><ele>679.2</ele><time>2026-04-21T08:06:25.915Z</time></trkpt><trkpt lat="44.1583179" lon="7.9451361"><ele>678.8</ele><time>2026-04-21T08:06:26.913Z</time></trkpt><trkpt lat="44.1582782" lon="7.9450136"><ele>678.4</ele><time>2026-04-21T08:06:27.916Z</time></trkpt><trkpt lat="44.1582178" lon="7.9449031"><ele>678.0</ele><time>2026-04-21T08:06:28.913Z</time></trkpt><trkpt lat="44.1581453" lon="7.9447892"><ele>677.25</ele><time>2026-04-21T08:06:29.916Z</time></trkpt><trkpt lat="44.1580715" lon="7.94466"><ele>676.5</ele><time>2026-04-21T08:06:30.915Z</time></trkpt><trkpt lat="44.1580073" lon="7.9445165"><ele>675.75</ele><time>2026-04-21T08:06:31.907Z</time></trkpt><trkpt lat="44.1579666" lon="7.9443583"><ele>675.0</ele><time>2026-04-21T08:06:32.913Z</time></trkpt><trkpt lat="44.1579492" lon="7.9441831"><ele>674.3333333333334</ele><time>2026-04-21T08:06:33.91Z</time></trkpt><trkpt lat="44.1579261" lon="7.943782"><ele>673.6666666666667</ele><time>2026-04-21T08:06:35.911Z</time></trkpt><trkpt lat="44.1579079" lon="7.9435678"><ele>673.0</ele><time>2026-04-21T08:06:36.915Z</time></trkpt><trkpt lat="44.1578846" lon="7.943343"><ele>673.0</ele><time>2026-04-21T08:06:37.915Z</time></trkpt><trkpt lat="44.1578573" lon="7.9431115"><ele>673.0</ele><time>2026-04-21T08:06:38.915Z</time></trkpt><trkpt lat="44.157824" lon="7.942877"><ele>673.0</ele><time>2026-04-21T08:06:39.919Z</time></trkpt><trkpt lat="44.1577914" lon="7.9426388"><ele>673.3333333333334</ele><time>2026-04-21T08:06:40.914Z</time></trkpt><trkpt lat="44.1577571" lon="7.9423974"><ele>673.6666666666666</ele><time>2026-04-21T08:06:41.916Z</time></trkpt><trkpt lat="44.1577229" lon="7.9421482"><ele>674.0</ele><time>2026-04-21T08:06:42.911Z</time></trkpt><trkpt lat="44.1576876" lon="7.9418911"><ele>675.3333333333333</ele><time>2026-04-21T08:06:43.913Z</time></trkpt><trkpt lat="44.1576498" lon="7.9416307"><ele>676.6666666666666</ele><time>2026-04-21T08:06:44.91Z</time></trkpt><trkpt lat="44.1576108" lon="7.9413729"><ele>678.0</ele><time>2026-04-21T08:06:45.918Z</time></trkpt><trkpt lat="44.1575706" lon="7.9411117"><ele>678.3333333333334</ele><time>2026-04-21T08:06:46.918Z</time></trkpt><trkpt lat="44.1575313" lon="7.9408492"><ele>678.6666666666667</ele><time>2026-04-21T08:06:47.923Z</time></trkpt><trkpt lat="44.1574928" lon="7.9405848"><ele>679.0</ele><time>2026-04-21T08:06:48.922Z</time></trkpt><trkpt lat="44.1574556" lon="7.9403199"><ele>679.0</ele><time>2026-04-21T08:06:49.923Z</time></trkpt><trkpt lat="44.157418" lon="7.9400536"><ele>679.0</ele><time>2026-04-21T08:06:50.917Z</time></trkpt><trkpt lat="44.1573819" lon="7.9397868"><ele>679.0</ele><time>2026-04-21T08:06:51.921Z</time></trkpt><trkpt lat="44.1573458" lon="7.9395191"><ele>681.0</ele><time>2026-04-21T08:06:52.926Z</time></trkpt><trkpt lat="44.1573121" lon="7.9392529"><ele>683.0</ele><time>2026-04-21T08:06:53.929Z</time></trkpt><trkpt lat="44.1572806" lon="7.9389885"><ele>685.0</ele><time>2026-04-21T08:06:54.934Z</time></trkpt><trkpt lat="44.1572199" lon="7.9384562"><ele>685.0</ele><time>2026-04-21T08:06:56.929Z</time></trkpt><trkpt lat="44.1571867" lon="7.9381867"><ele>685.0</ele><time>2026-04-21T08:06:57.919Z</time></trkpt><trkpt lat="44.1571541" lon="7.9379168"><ele>685.0</ele><time>2026-04-21T08:06:58.931Z</time></trkpt><trkpt lat="44.1571245" lon="7.9376442"><ele>685.3333333333334</ele><time>2026-04-21T08:06:59.925Z</time></trkpt><trkpt lat="44.1571006" lon="7.9373695"><ele>685.6666666666666</ele><time>2026-04-21T08:07:00.924Z</time></trkpt><trkpt lat="44.15708" lon="7.9370944"><ele>686.0</ele><time>2026-04-21T08:07:01.916Z</time></trkpt><trkpt lat="44.1570618" lon="7.9368143"><ele>686.3333333333333</ele><time>2026-04-21T08:07:02.919Z</time></trkpt><trkpt lat="44.1570455" lon="7.9365285"><ele>686.6666666666666</ele><time>2026-04-21T08:07:03.932Z</time></trkpt><trkpt lat="44.1570302" lon="7.9362421"><ele>687.0</ele><time>2026-04-21T08:07:04.923Z</time></trkpt><trkpt lat="44.1570163" lon="7.9359658"><ele>686.6666666666666</ele><time>2026-04-21T08:07:05.922Z</time></trkpt><trkpt lat="44.156999" lon="7.9356974"><ele>686.3333333333333</ele><time>2026-04-21T08:07:06.921Z</time></trkpt><trkpt lat="44.1569691" lon="7.9354355"><ele>686.0</ele><time>2026-04-21T08:07:07.915Z</time></trkpt><trkpt lat="44.1569294" lon="7.9351802"><ele>685.6666666666666</ele><time>2026-04-21T08:07:08.932Z</time></trkpt><trkpt lat="44.156884" lon="7.9349359"><ele>685.3333333333334</ele><time>2026-04-21T08:07:09.92Z</time></trkpt><trkpt lat="44.1568401" lon="7.9346959"><ele>685.0</ele><time>2026-04-21T08:07:10.927Z</time></trkpt><trkpt lat="44.1568002" lon="7.9344542"><ele>685.6666666666667</ele><time>2026-04-21T08:07:11.922Z</time></trkpt><trkpt lat="44.1567604" lon="7.9342081"><ele>686.3333333333334</ele><time>2026-04-21T08:07:12.917Z</time></trkpt><trkpt lat="44.1567206" lon="7.9339594"><ele>687.0</ele><time>2026-04-21T08:07:13.924Z</time></trkpt><trkpt lat="44.1566807" lon="7.9337095"><ele>687.0</ele><time>2026-04-21T08:07:14.929Z</time></trkpt><trkpt lat="44.1566389" lon="7.9334588"><ele>687.0</ele><time>2026-04-21T08:07:15.932Z</time></trkpt><trkpt lat="44.1565524" lon="7.9329634"><ele>687.0</ele><time>2026-04-21T08:07:17.927Z</time></trkpt><trkpt lat="44.1565129" lon="7.9327184"><ele>687.0</ele><time>2026-04-21T08:07:18.935Z</time></trkpt><trkpt lat="44.1564736" lon="7.9324756"><ele>687.0</ele><time>2026-04-21T08:07:19.924Z</time></trkpt><trkpt lat="44.1564352" lon="7.9322392"><ele>687.0</ele><time>2026-04-21T08:07:20.923Z</time></trkpt><trkpt lat="44.1563992" lon="7.9320136"><ele>687.0</ele><time>2026-04-21T08:07:21.938Z</time></trkpt><trkpt lat="44.1563658" lon="7.9317981"><ele>687.0</ele><time>2026-04-21T08:07:22.937Z</time></trkpt><trkpt lat="44.1563294" lon="7.9315885"><ele>687.0</ele><time>2026-04-21T08:07:23.921Z</time></trkpt><trkpt lat="44.1562951" lon="7.9313802"><ele>687.0</ele><time>2026-04-21T08:07:24.935Z</time></trkpt><trkpt lat="44.1562599" lon="7.9311669"><ele>687.0</ele><time>2026-04-21T08:07:25.928Z</time></trkpt><trkpt lat="44.1562226" lon="7.9309501"><ele>687.6666666666666</ele><time>2026-04-21T08:07:26.931Z</time></trkpt><trkpt lat="44.1561848" lon="7.9307291"><ele>688.3333333333333</ele><time>2026-04-21T08:07:27.93Z</time></trkpt><trkpt lat="44.1561503" lon="7.9305095"><ele>689.0</ele><time>2026-04-21T08:07:28.918Z</time></trkpt><trkpt lat="44.1561158" lon="7.9302883"><ele>689.0</ele><time>2026-04-21T08:07:29.922Z</time></trkpt><trkpt lat="44.1560805" lon="7.9300667"><ele>689.0</ele><time>2026-04-21T08:07:30.922Z</time></trkpt><trkpt lat="44.1560441" lon="7.9298444"><ele>689.0</ele><time>2026-04-21T08:07:31.915Z</time></trkpt><trkpt lat="44.1560074" lon="7.9296215"><ele>689.3333333333333</ele><time>2026-04-21T08:07:32.935Z</time></trkpt><trkpt lat="44.1559698" lon="7.9293985"><ele>689.6666666666666</ele><time>2026-04-21T08:07:33.924Z</time></trkpt><trkpt lat="44.1559334" lon="7.9291754"><ele>690.0</ele><time>2026-04-21T08:07:34.919Z</time></trkpt><trkpt lat="44.1558987" lon="7.9289535"><ele>690.0</ele><time>2026-04-21T08:07:35.92Z</time></trkpt><trkpt lat="44.155866" lon="7.9287361"><ele>690.0</ele><time>2026-04-21T08:07:36.919Z</time></trkpt><trkpt lat="44.1557989" lon="7.928316"><ele>691.3333333333334</ele><time>2026-04-21T08:07:38.931Z</time></trkpt><trkpt lat="44.1557643" lon="7.9281096"><ele>692.6666666666667</ele><time>2026-04-21T08:07:39.926Z</time></trkpt><trkpt lat="44.1557304" lon="7.9279035"><ele>694.0</ele><time>2026-04-21T08:07:40.928Z</time></trkpt><trkpt lat="44.1556978" lon="7.9276962"><ele>694.3333333333334</ele><time>2026-04-21T08:07:41.932Z</time></trkpt><trkpt lat="44.1556643" lon="7.9274903"><ele>694.6666666666666</ele><time>2026-04-21T08:07:42.92Z</time></trkpt><trkpt lat="44.1556281" lon="7.9272865"><ele>695.0</ele><time>2026-04-21T08:07:43.925Z</time></trkpt><trkpt lat="44.1555922" lon="7.9270836"><ele>695.0</ele><time>2026-04-21T08:07:44.914Z</time></trkpt><trkpt lat="44.1555587" lon="7.9268831"><ele>695.0</ele><time>2026-04-21T08:07:45.93Z</time></trkpt><trkpt lat="44.1555255" lon="7.9266815"><ele>695.0</ele><time>2026-04-21T08:07:46.922Z</time></trkpt><trkpt lat="44.155492" lon="7.9264797"><ele>695.0</ele><time>2026-04-21T08:07:47.921Z</time></trkpt><trkpt lat="44.1554583" lon="7.926279"><ele>695.25</ele><time>2026-04-21T08:07:48.925Z</time></trkpt><trkpt lat="44.1554254" lon="7.9260794"><ele>695.5</ele><time>2026-04-21T08:07:49.934Z</time></trkpt><trkpt lat="44.155394" lon="7.9258813"><ele>695.75</ele><time>2026-04-21T08:07:50.93Z</time></trkpt><trkpt lat="44.1553639" lon="7.9256843"><ele>696.0</ele><time>2026-04-21T08:07:51.918Z</time></trkpt><trkpt lat="44.155334" lon="7.925488"><ele>696.0</ele><time>2026-04-21T08:07:52.932Z</time></trkpt><trkpt lat="44.1553035" lon="7.9252922"><ele>696.0</ele><time>2026-04-21T08:07:53.915Z</time></trkpt><trkpt lat="44.1552712" lon="7.9250982"><ele>696.0</ele><time>2026-04-21T08:07:54.931Z</time></trkpt><trkpt lat="44.1552378" lon="7.9249058"><ele>696.0</ele><time>2026-04-21T08:07:55.922Z</time></trkpt><trkpt lat="44.1552023" lon="7.9247112"><ele>696.0</ele><time>2026-04-21T08:07:56.92Z</time></trkpt><trkpt lat="44.1551678" lon="7.9245167"><ele>696.0</ele><time>2026-04-21T08:07:57.925Z</time></trkpt><trkpt lat="44.1551025" lon="7.9241273"><ele>696.0</ele><time>2026-04-21T08:07:59.92Z</time></trkpt><trkpt lat="44.1550711" lon="7.9239347"><ele>696.25</ele><time>2026-04-21T08:08:00.929Z</time></trkpt><trkpt lat="44.1550413" lon="7.9237507"><ele>696.5</ele><time>2026-04-21T08:08:01.929Z</time></trkpt><trkpt lat="44.1550158" lon="7.9235768"><ele>696.75</ele><time>2026-04-21T08:08:02.933Z</time></trkpt><trkpt lat="44.154994" lon="7.9234151"><ele>697.0</ele><time>2026-04-21T08:08:03.929Z</time></trkpt><trkpt lat="44.1549691" lon="7.9232534"><ele>697.25</ele><time>2026-04-21T08:08:04.913Z</time></trkpt><trkpt lat="44.1549389" lon="7.9230871"><ele>697.5</ele><time>2026-04-21T08:08:05.922Z</time></trkpt><trkpt lat="44.1549067" lon="7.9229162"><ele>697.75</ele><time>2026-04-21T08:08:06.926Z</time></trkpt><trkpt lat="44.1548781" lon="7.9227412"><ele>698.0</ele><time>2026-04-21T08:08:07.917Z</time></trkpt><trkpt lat="44.1548521" lon="7.9225595"><ele>698.0</ele><time>2026-04-21T08:08:08.928Z</time></trkpt><trkpt lat="44.154826" lon="7.9223706"><ele>698.0</ele><time>2026-04-21T08:08:09.914Z</time></trkpt><trkpt lat="44.1547967" lon="7.9221774"><ele>698.0</ele><time>2026-04-21T08:08:10.914Z</time></trkpt><trkpt lat="44.1547655" lon="7.9219808"><ele>698.0</ele><time>2026-04-21T08:08:11.924Z</time></trkpt><trkpt lat="44.1547308" lon="7.921778"><ele>698.25</ele><time>2026-04-21T08:08:12.922Z</time></trkpt><trkpt lat="44.1547034" lon="7.9215754"><ele>698.5</ele><time>2026-04-21T08:08:13.93Z</time></trkpt><trkpt lat="44.1546786" lon="7.9213706"><ele>698.75</ele><time>2026-04-21T08:08:14.922Z</time></trkpt><trkpt lat="44.1546576" lon="7.9211677"><ele>699.0</ele><time>2026-04-21T08:08:15.923Z</time></trkpt><trkpt lat="44.1546398" lon="7.9209648"><ele>698.6666666666666</ele><time>2026-04-21T08:08:16.919Z</time></trkpt><trkpt lat="44.1546292" lon="7.9207628"><ele>698.3333333333333</ele><time>2026-04-21T08:08:17.915Z</time></trkpt><trkpt lat="44.1546267" lon="7.9205618"><ele>698.0</ele><time>2026-04-21T08:08:18.914Z</time></trkpt><trkpt lat="44.1546355" lon="7.9201613"><ele>699.25</ele><time>2026-04-21T08:08:20.929Z</time></trkpt><trkpt lat="44.1546419" lon="7.91996"><ele>700.5</ele><time>2026-04-21T08:08:21.911Z</time></trkpt><trkpt lat="44.1546526" lon="7.919757"><ele>701.75</ele><time>2026-04-21T08:08:22.93Z</time></trkpt><trkpt lat="44.1546707" lon="7.9195532"><ele>703.0</ele><time>2026-04-21T08:08:23.925Z</time></trkpt><trkpt lat="44.1546929" lon="7.9193474"><ele>703.5</ele><time>2026-04-21T08:08:24.917Z</time></trkpt><trkpt lat="44.1547183" lon="7.9191411"><ele>704.0</ele><time>2026-04-21T08:08:25.919Z</time></trkpt><trkpt lat="44.1547476" lon="7.9189381"><ele>704.5</ele><time>2026-04-21T08:08:26.921Z</time></trkpt><trkpt lat="44.1547788" lon="7.9187329"><ele>705.0</ele><time>2026-04-21T08:08:27.93Z</time></trkpt><trkpt lat="44.1548094" lon="7.9185227"><ele>705.0</ele><time>2026-04-21T08:08:28.922Z</time></trkpt><trkpt lat="44.1548396" lon="7.9183089"><ele>705.0</ele><time>2026-04-21T08:08:29.922Z</time></trkpt><trkpt lat="44.1548693" lon="7.9180926"><ele>705.0</ele><time>2026-04-21T08:08:30.914Z</time></trkpt><trkpt lat="44.1548972" lon="7.9178714"><ele>706.75</ele><time>2026-04-21T08:08:31.919Z</time></trkpt><trkpt lat="44.1549245" lon="7.9176532"><ele>708.5</ele><time>2026-04-21T08:08:32.909Z</time></trkpt><trkpt lat="44.1549517" lon="7.9174472"><ele>710.25</ele><time>2026-04-21T08:08:33.921Z</time></trkpt><trkpt lat="44.1549777" lon="7.9172558"><ele>712.0</ele><time>2026-04-21T08:08:34.911Z</time></trkpt><trkpt lat="44.1550053" lon="7.9170808"><ele>712.2</ele><time>2026-04-21T08:08:35.917Z</time></trkpt><trkpt lat="44.1550387" lon="7.9169242"><ele>712.4000000000001</ele><time>2026-04-21T08:08:36.918Z</time></trkpt><trkpt lat="44.1550787" lon="7.9167916"><ele>712.5999999999999</ele><time>2026-04-21T08:08:37.913Z</time></trkpt><trkpt lat="44.1551162" lon="7.9166664"><ele>712.8</ele><time>2026-04-21T08:08:38.918Z</time></trkpt><trkpt lat="44.1551406" lon="7.9165283"><ele>713.0</ele><time>2026-04-21T08:08:39.918Z</time></trkpt><trkpt lat="44.1551016" lon="7.9161881"><ele>714.0</ele><time>2026-04-21T08:08:41.916Z</time></trkpt><trkpt lat="44.1550559" lon="7.9160022"><ele>715.0</ele><time>2026-04-21T08:08:42.926Z</time></trkpt><trkpt lat="44.1550003" lon="7.9158155"><ele>716.0</ele><time>2026-04-21T08:08:43.925Z</time></trkpt><trkpt lat="44.1549408" lon="7.9156311"><ele>717.0</ele><time>2026-04-21T08:08:44.925Z</time></trkpt><trkpt lat="44.1548912" lon="7.9154632"><ele>715.25</ele><time>2026-04-21T08:08:45.926Z</time></trkpt><trkpt lat="44.154844" lon="7.915299"><ele>713.5</ele><time>2026-04-21T08:08:46.916Z</time></trkpt><trkpt lat="44.1547975" lon="7.9151303"><ele>711.75</ele><time>2026-04-21T08:08:47.915Z</time></trkpt><trkpt lat="44.1547524" lon="7.914959"><ele>710.0</ele><time>2026-04-21T08:08:48.925Z</time></trkpt><trkpt lat="44.1547072" lon="7.9147868"><ele>710.0</ele><time>2026-04-21T08:08:49.922Z</time></trkpt><trkpt lat="44.1546615" lon="7.9146139"><ele>710.0</ele><time>2026-04-21T08:08:50.915Z</time></trkpt><trkpt lat="44.1546146" lon="7.9144387"><ele>710.0</ele><time>2026-04-21T08:08:51.909Z</time></trkpt><trkpt lat="44.1545689" lon="7.9142625"><ele>710.0</ele><time>2026-04-21T08:08:52.931Z</time></trkpt><trkpt lat="44.1545216" lon="7.9140854"><ele>710.75</ele><time>2026-04-21T08:08:53.922Z</time></trkpt><trkpt lat="44.1544699" lon="7.9139071"><ele>711.5</ele><time>2026-04-21T08:08:54.929Z</time></trkpt><trkpt lat="44.1544121" lon="7.9137321"><ele>712.25</ele><time>2026-04-21T08:08:55.913Z</time></trkpt><trkpt lat="44.1543484" lon="7.913562"><ele>713.0</ele><time>2026-04-21T08:08:56.916Z</time></trkpt><trkpt lat="44.1542783" lon="7.9134006"><ele>712.3333333333333</ele><time>2026-04-21T08:08:57.927Z</time></trkpt><trkpt lat="44.1542042" lon="7.9132464"><ele>711.6666666666666</ele><time>2026-04-21T08:08:58.918Z</time></trkpt><trkpt lat="44.1541295" lon="7.9130927"><ele>711.0</ele><time>2026-04-21T08:08:59.93Z</time></trkpt><trkpt lat="44.1539678" lon="7.9127938"><ele>711.0</ele><time>2026-04-21T08:09:01.927Z</time></trkpt><trkpt lat="44.1538733" lon="7.9126541"><ele>711.0</ele><time>2026-04-21T08:09:02.923Z</time></trkpt><trkpt lat="44.1537691" lon="7.9125263"><ele>711.0</ele><time>2026-04-21T08:09:03.922Z</time></trkpt><trkpt lat="44.1536591" lon="7.9124141"><ele>711.0</ele><time>2026-04-21T08:09:04.93Z</time></trkpt><trkpt lat="44.1535428" lon="7.9123149"><ele>713.0</ele><time>2026-04-21T08:09:05.929Z</time></trkpt><trkpt lat="44.1534237" lon="7.9122278"><ele>715.0</ele><time>2026-04-21T08:09:06.927Z</time></trkpt><trkpt lat="44.1533364" lon="7.9121536"><ele>717.0</ele><time>2026-04-21T08:09:07.927Z</time></trkpt><trkpt lat="44.1532306" lon="7.912106"><ele>719.0</ele><time>2026-04-21T08:09:08.93Z</time></trkpt><trkpt lat="44.1531191" lon="7.9120848"><ele>719.0</ele><time>2026-04-21T08:09:09.929Z</time></trkpt><trkpt lat="44.152997" lon="7.9120787"><ele>719.0</ele><time>2026-04-21T08:09:10.919Z</time></trkpt><trkpt lat="44.1528709" lon="7.9120818"><ele>719.0</ele><time>2026-04-21T08:09:11.929Z</time></trkpt><trkpt lat="44.1527498" lon="7.9120835"><ele>719.0</ele><time>2026-04-21T08:09:12.921Z</time></trkpt><trkpt lat="44.1526367" lon="7.9120858"><ele>719.0</ele><time>2026-04-21T08:09:13.928Z</time></trkpt><trkpt lat="44.1525256" lon="7.9120877"><ele>719.0</ele><time>2026-04-21T08:09:14.912Z</time></trkpt><trkpt lat="44.1524127" lon="7.9120894"><ele>719.0</ele><time>2026-04-21T08:09:15.927Z</time></trkpt><trkpt lat="44.1522932" lon="7.9120964"><ele>719.0</ele><time>2026-04-21T08:09:16.92Z</time></trkpt><trkpt lat="44.1521711" lon="7.9121008"><ele>718.75</ele><time>2026-04-21T08:09:17.926Z</time></trkpt><trkpt lat="44.1520539" lon="7.9121058"><ele>718.5</ele><time>2026-04-21T08:09:18.921Z</time></trkpt><trkpt lat="44.1519347" lon="7.912108"><ele>718.25</ele><time>2026-04-21T08:09:19.914Z</time></trkpt><trkpt lat="44.1518182" lon="7.9121061"><ele>718.0</ele><time>2026-04-21T08:09:20.914Z</time></trkpt><trkpt lat="44.1515847" lon="7.9121075"><ele>720.2</ele><time>2026-04-21T08:09:22.917Z</time></trkpt><trkpt lat="44.1514764" lon="7.9121238"><ele>722.4</ele><time>2026-04-21T08:09:23.921Z</time></trkpt><trkpt lat="44.151365" lon="7.912163"><ele>724.6</ele><time>2026-04-21T08:09:24.911Z</time></trkpt><trkpt lat="44.1512688" lon="7.9122063"><ele>726.8000000000001</ele><time>2026-04-21T08:09:25.912Z</time></trkpt><trkpt lat="44.1511818" lon="7.9122701"><ele>729.0</ele><time>2026-04-21T08:09:26.915Z</time></trkpt><trkpt lat="44.1511011" lon="7.9123575"><ele>729.0</ele><time>2026-04-21T08:09:27.919Z</time></trkpt><trkpt lat="44.1510221" lon="7.912454"><ele>729.0</ele><time>2026-04-21T08:09:28.92Z</time></trkpt><trkpt lat="44.1509433" lon="7.9125538"><ele>729.0</ele><time>2026-04-21T08:09:29.92Z</time></trkpt><trkpt lat="44.1508584" lon="7.9126618"><ele>729.0</ele><time>2026-04-21T08:09:30.922Z</time></trkpt><trkpt lat="44.1507789" lon="7.9127707"><ele>729.0</ele><time>2026-04-21T08:09:31.91Z</time></trkpt><trkpt lat="44.1507051" lon="7.9128819"><ele>729.75</ele><time>2026-04-21T08:09:32.916Z</time></trkpt><trkpt lat="44.1506305" lon="7.9129902"><ele>730.5</ele><time>2026-04-21T08:09:33.917Z</time></trkpt><trkpt lat="44.1505536" lon="7.9131006"><ele>731.25</ele><time>2026-04-21T08:09:34.927Z</time></trkpt><trkpt lat="44.1504796" lon="7.9132244"><ele>732.0</ele><time>2026-04-21T08:09:35.926Z</time></trkpt><trkpt lat="44.1504111" lon="7.9133577"><ele>730.0</ele><time>2026-04-21T08:09:36.922Z</time></trkpt><trkpt lat="44.1503471" lon="7.9134942"><ele>728.0</ele><time>2026-04-21T08:09:37.91Z</time></trkpt><trkpt lat="44.1502903" lon="7.913626"><ele>726.0</ele><time>2026-04-21T08:09:38.914Z</time></trkpt><trkpt lat="44.1502313" lon="7.9137459"><ele>724.0</ele><time>2026-04-21T08:09:39.915Z</time></trkpt><trkpt lat="44.1501563" lon="7.9138438"><ele>722.0</ele><time>2026-04-21T08:09:40.92Z</time></trkpt><trkpt lat="44.1500674" lon="7.9139148"><ele>724.3333333333333</ele><time>2026-04-21T08:09:41.923Z</time></trkpt><trkpt lat="44.1498486" lon="7.9140373"><ele>726.6666666666666</ele><time>2026-04-21T08:09:43.921Z</time></trkpt><trkpt lat="44.1497422" lon="7.9141002"><ele>729.0</ele><time>2026-04-21T08:09:44.921Z</time></trkpt><trkpt lat="44.1496316" lon="7.9141502"><ele>729.0</ele><time>2026-04-21T08:09:45.917Z</time></trkpt><trkpt lat="44.1495208" lon="7.9141891"><ele>729.0</ele><time>2026-04-21T08:09:46.921Z</time></trkpt><trkpt lat="44.1494115" lon="7.9142196"><ele>729.0</ele><time>2026-04-21T08:09:47.926Z</time></trkpt><trkpt lat="44.149303" lon="7.9142526"><ele>729.0</ele><time>2026-04-21T08:09:48.923Z</time></trkpt><trkpt lat="44.1491914" lon="7.914283"><ele>727.4000000000001</ele><time>2026-04-21T08:09:49.927Z</time></trkpt><trkpt lat="44.149083" lon="7.9143155"><ele>725.8</ele><time>2026-04-21T08:09:50.911Z</time></trkpt><trkpt lat="44.1489749" lon="7.914347"><ele>724.2</ele><time>2026-04-21T08:09:51.924Z</time></trkpt><trkpt lat="44.148864" lon="7.9143749"><ele>722.5999999999999</ele><time>2026-04-21T08:09:52.917Z</time></trkpt><trkpt lat="44.1487521" lon="7.9143968"><ele>721.0</ele><time>2026-04-21T08:09:53.922Z</time></trkpt><trkpt lat="44.1486395" lon="7.9144101"><ele>721.0</ele><time>2026-04-21T08:09:54.924Z</time></trkpt><trkpt lat="44.1485301" lon="7.9144212"><ele>721.0</ele><time>2026-04-21T08:09:55.929Z</time></trkpt><trkpt lat="44.1484223" lon="7.9144303"><ele>721.0</ele><time>2026-04-21T08:09:56.908Z</time></trkpt><trkpt lat="44.1483141" lon="7.9144356"><ele>721.0</ele><time>2026-04-21T08:09:57.912Z</time></trkpt><trkpt lat="44.1482065" lon="7.9144369"><ele>721.0</ele><time>2026-04-21T08:09:58.911Z</time></trkpt><trkpt lat="44.1480986" lon="7.9144391"><ele>721.5</ele><time>2026-04-21T08:09:59.926Z</time></trkpt><trkpt lat="44.1479895" lon="7.9144413"><ele>722.0</ele><time>2026-04-21T08:10:00.919Z</time></trkpt><trkpt lat="44.1478866" lon="7.9144299"><ele>722.5</ele><time>2026-04-21T08:10:01.926Z</time></trkpt><trkpt lat="44.1477934" lon="7.9144031"><ele>723.0</ele><time>2026-04-21T08:10:02.921Z</time></trkpt><trkpt lat="44.1476638" lon="7.914246"><ele>723.5999999999999</ele><time>2026-04-21T08:10:04.911Z</time></trkpt><trkpt lat="44.1476319" lon="7.9141172"><ele>724.1999999999999</ele><time>2026-04-21T08:10:05.917Z</time></trkpt><trkpt lat="44.147626" lon="7.9139827"><ele>724.8</ele><time>2026-04-21T08:10:06.922Z</time></trkpt><trkpt lat="44.1476361" lon="7.9138416"><ele>725.4</ele><time>2026-04-21T08:10:07.918Z</time></trkpt><trkpt lat="44.1476638" lon="7.9137091"><ele>726.0</ele><time>2026-04-21T08:10:08.911Z</time></trkpt><trkpt lat="44.1477017" lon="7.9135739"><ele>726.0</ele><time>2026-04-21T08:10:09.924Z</time></trkpt><trkpt lat="44.1477459" lon="7.9134449"><ele>726.0</ele><time>2026-04-21T08:10:10.911Z</time></trkpt><trkpt lat="44.1477962" lon="7.9133317"><ele>726.0</ele><time>2026-04-21T08:10:11.92Z</time></trkpt><trkpt lat="44.1478376" lon="7.9132184"><ele>726.0</ele><time>2026-04-21T08:10:12.926Z</time></trkpt><trkpt lat="44.1478704" lon="7.9131172"><ele>726.0</ele><time>2026-04-21T08:10:13.922Z</time></trkpt><trkpt lat="44.1478992" lon="7.913023"><ele>726.0</ele><time>2026-04-21T08:10:14.931Z</time></trkpt><trkpt lat="44.1479228" lon="7.9129226"><ele>727.0</ele><time>2026-04-21T08:10:15.929Z</time></trkpt><trkpt lat="44.147949" lon="7.9128136"><ele>728.0</ele><time>2026-04-21T08:10:16.929Z</time></trkpt><trkpt lat="44.1479721" lon="7.9126917"><ele>729.0</ele><time>2026-04-21T08:10:17.918Z</time></trkpt><trkpt lat="44.1479903" lon="7.9125633"><ele>730.0</ele><time>2026-04-21T08:10:18.92Z</time></trkpt><trkpt lat="44.1480012" lon="7.912443"><ele>731.0</ele><time>2026-04-21T08:10:19.923Z</time></trkpt><trkpt lat="44.1480067" lon="7.9123236"><ele>732.0</ele><time>2026-04-21T08:10:20.91Z</time></trkpt><trkpt lat="44.1480136" lon="7.9122069"><ele>732.0</ele><time>2026-04-21T08:10:21.932Z</time></trkpt><trkpt lat="44.1480198" lon="7.9120877"><ele>732.0</ele><time>2026-04-21T08:10:22.915Z</time></trkpt><trkpt lat="44.1480271" lon="7.9119717"><ele>732.0</ele><time>2026-04-21T08:10:23.918Z</time></trkpt><trkpt lat="44.148043" lon="7.9117297"><ele>732.0</ele><time>2026-04-21T08:10:25.923Z</time></trkpt><trkpt lat="44.1480556" lon="7.9116041"><ele>732.0</ele><time>2026-04-21T08:10:26.926Z</time></trkpt><trkpt lat="44.1480744" lon="7.9114832"><ele>732.4285714285714</ele><time>2026-04-21T08:10:27.919Z</time></trkpt><trkpt lat="44.148099" lon="7.911376"><ele>732.8571428571429</ele><time>2026-04-21T08:10:28.914Z</time></trkpt><trkpt lat="44.1481298" lon="7.9112804"><ele>733.2857142857142</ele><time>2026-04-21T08:10:29.923Z</time></trkpt><trkpt lat="44.1481599" lon="7.9111874"><ele>733.7142857142858</ele><time>2026-04-21T08:10:30.915Z</time></trkpt><trkpt lat="44.1481884" lon="7.9110902"><ele>734.1428571428571</ele><time>2026-04-21T08:10:31.928Z</time></trkpt><trkpt lat="44.1482018" lon="7.9109949"><ele>734.5714285714286</ele><time>2026-04-21T08:10:32.923Z</time></trkpt><trkpt lat="44.1482142" lon="7.9108992"><ele>735.0</ele><time>2026-04-21T08:10:33.913Z</time></trkpt><trkpt lat="44.1482243" lon="7.9108121"><ele>735.1666666666666</ele><time>2026-04-21T08:10:34.919Z</time></trkpt><trkpt lat="44.1482269" lon="7.9107236"><ele>735.3333333333334</ele><time>2026-04-21T08:10:35.925Z</time></trkpt><trkpt lat="44.1482172" lon="7.9106245"><ele>735.5</ele><time>2026-04-21T08:10:36.929Z</time></trkpt><trkpt lat="44.148197" lon="7.9105157"><ele>735.6666666666667</ele><time>2026-04-21T08:10:37.922Z</time></trkpt><trkpt lat="44.1481618" lon="7.9104167"><ele>735.8333333333334</ele><time>2026-04-21T08:10:38.925Z</time></trkpt><trkpt lat="44.1481134" lon="7.9103472"><ele>736.0</ele><time>2026-04-21T08:10:39.911Z</time></trkpt><trkpt lat="44.1480312" lon="7.9102537"><ele>736.0</ele><time>2026-04-21T08:10:41.921Z</time></trkpt><trkpt lat="44.1479808" lon="7.9101718"><ele>736.0</ele><time>2026-04-21T08:10:43.924Z</time></trkpt><trkpt lat="44.1479116" lon="7.9100715"><ele>736.0</ele><time>2026-04-21T08:10:48.926Z</time></trkpt><trkpt lat="44.1477502" lon="7.9099138"><ele>736.0</ele><time>2026-04-21T08:10:51.913Z</time></trkpt><trkpt lat="44.1476679" lon="7.9098783"><ele>736.1999999999999</ele><time>2026-04-21T08:10:52.92Z</time></trkpt><trkpt lat="44.1475718" lon="7.9098666"><ele>736.4</ele><time>2026-04-21T08:10:53.93Z</time></trkpt><trkpt lat="44.1474675" lon="7.9098719"><ele>736.6</ele><time>2026-04-21T08:10:54.924Z</time></trkpt><trkpt lat="44.147353" lon="7.909892"><ele>736.8</ele><time>2026-04-21T08:10:55.927Z</time></trkpt><trkpt lat="44.1472329" lon="7.9099134"><ele>737.0</ele><time>2026-04-21T08:10:56.929Z</time></trkpt><trkpt lat="44.1471068" lon="7.9099189"><ele>737.0</ele><time>2026-04-21T08:10:57.93Z</time></trkpt><trkpt lat="44.1469784" lon="7.9099033"><ele>737.0</ele><time>2026-04-21T08:10:58.928Z</time></trkpt><trkpt lat="44.1468478" lon="7.909871"><ele>737.0</ele><time>2026-04-21T08:10:59.925Z</time></trkpt><trkpt lat="44.1467076" lon="7.9098334"><ele>737.0</ele><time>2026-04-21T08:11:00.927Z</time></trkpt><trkpt lat="44.1465866" lon="7.9097606"><ele>735.0</ele><time>2026-04-21T08:11:01.921Z</time></trkpt><trkpt lat="44.1464707" lon="7.9096796"><ele>733.0</ele><time>2026-04-21T08:11:02.933Z</time></trkpt><trkpt lat="44.146366" lon="7.9095791"><ele>731.0</ele><time>2026-04-21T08:11:03.915Z</time></trkpt><trkpt lat="44.1462729" lon="7.9094666"><ele>729.0</ele><time>2026-04-21T08:11:04.917Z</time></trkpt><trkpt lat="44.1461848" lon="7.9093468"><ele>730.0</ele><time>2026-04-21T08:11:05.929Z</time></trkpt><trkpt lat="44.1460933" lon="7.9092197"><ele>731.0</ele><time>2026-04-21T08:11:06.922Z</time></trkpt><trkpt lat="44.1460052" lon="7.9090836"><ele>732.0</ele><time>2026-04-21T08:11:07.926Z</time></trkpt><trkpt lat="44.1459167" lon="7.908942"><ele>733.0</ele><time>2026-04-21T08:11:08.925Z</time></trkpt><trkpt lat="44.1458319" lon="7.9087899"><ele>732.0</ele><time>2026-04-21T08:11:09.928Z</time></trkpt><trkpt lat="44.1456822" lon="7.908461"><ele>731.0</ele><time>2026-04-21T08:11:11.924Z</time></trkpt><trkpt lat="44.1456129" lon="7.9082871"><ele>730.0</ele><time>2026-04-21T08:11:12.926Z</time></trkpt><trkpt lat="44.1455426" lon="7.9081171"><ele>730.0</ele><time>2026-04-21T08:11:13.927Z</time></trkpt><trkpt lat="44.1454687" lon="7.9079497"><ele>730.0</ele><time>2026-04-21T08:11:14.921Z</time></trkpt><trkpt lat="44.1453903" lon="7.9077788"><ele>730.0</ele><time>2026-04-21T08:11:15.931Z</time></trkpt><trkpt lat="44.1453131" lon="7.9075976"><ele>730.0</ele><time>2026-04-21T08:11:16.922Z</time></trkpt><trkpt lat="44.1452339" lon="7.9074087"><ele>731.6666666666667</ele><time>2026-04-21T08:11:17.932Z</time></trkpt><trkpt lat="44.1451517" lon="7.9072176"><ele>733.3333333333334</ele><time>2026-04-21T08:11:18.914Z</time></trkpt><trkpt lat="44.1450669" lon="7.9070278"><ele>735.0</ele><time>2026-04-21T08:11:19.914Z</time></trkpt><trkpt lat="44.1449761" lon="7.9068371"><ele>734.3333333333334</ele><time>2026-04-21T08:11:20.923Z</time></trkpt><trkpt lat="44.1448834" lon="7.9066499"><ele>733.6666666666667</ele><time>2026-04-21T08:11:21.925Z</time></trkpt><trkpt lat="44.1447907" lon="7.9064596"><ele>733.0</ele><time>2026-04-21T08:11:22.922Z</time></trkpt><trkpt lat="44.1446986" lon="7.9062699"><ele>733.0</ele><time>2026-04-21T08:11:23.93Z</time></trkpt><trkpt lat="44.1446024" lon="7.906087"><ele>733.0</ele><time>2026-04-21T08:11:24.926Z</time></trkpt><trkpt lat="44.144492" lon="7.9059271"><ele>733.0</ele><time>2026-04-21T08:11:25.932Z</time></trkpt><trkpt lat="44.1443736" lon="7.9057792"><ele>734.0</ele><time>2026-04-21T08:11:26.918Z</time></trkpt><trkpt lat="44.1442457" lon="7.9056426"><ele>735.0</ele><time>2026-04-21T08:11:27.916Z</time></trkpt><trkpt lat="44.144118" lon="7.9055017"><ele>736.0</ele><time>2026-04-21T08:11:28.921Z</time></trkpt><trkpt lat="44.1439953" lon="7.9053623"><ele>736.0</ele><time>2026-04-21T08:11:29.923Z</time></trkpt><trkpt lat="44.1438768" lon="7.9052238"><ele>736.0</ele><time>2026-04-21T08:11:30.929Z</time></trkpt><trkpt lat="44.1436417" lon="7.9049445"><ele>737.6666666666667</ele><time>2026-04-21T08:11:32.931Z</time></trkpt><trkpt lat="44.1435253" lon="7.9048048"><ele>739.3333333333334</ele><time>2026-04-21T08:11:33.916Z</time></trkpt><trkpt lat="44.1434039" lon="7.9046673"><ele>741.0</ele><time>2026-04-21T08:11:34.923Z</time></trkpt><trkpt lat="44.1432797" lon="7.9045264"><ele>741.6666666666666</ele><time>2026-04-21T08:11:35.924Z</time></trkpt><trkpt lat="44.1431547" lon="7.9043847"><ele>742.3333333333333</ele><time>2026-04-21T08:11:36.922Z</time></trkpt><trkpt lat="44.143029" lon="7.9042432"><ele>743.0</ele><time>2026-04-21T08:11:37.912Z</time></trkpt><trkpt lat="44.1429011" lon="7.9041014"><ele>743.0</ele><time>2026-04-21T08:11:38.916Z</time></trkpt><trkpt lat="44.142773" lon="7.9039588"><ele>743.0</ele><time>2026-04-21T08:11:39.921Z</time></trkpt><trkpt lat="44.1426458" lon="7.9038182"><ele>743.0</ele><time>2026-04-21T08:11:40.926Z</time></trkpt><trkpt lat="44.1425211" lon="7.9036783"><ele>743.0</ele><time>2026-04-21T08:11:41.928Z</time></trkpt><trkpt lat="44.1424019" lon="7.9035366"><ele>743.0</ele><time>2026-04-21T08:11:42.927Z</time></trkpt><trkpt lat="44.1422891" lon="7.9033945"><ele>743.0</ele><time>2026-04-21T08:11:43.915Z</time></trkpt><trkpt lat="44.1421793" lon="7.90326"><ele>743.25</ele><time>2026-04-21T08:11:44.923Z</time></trkpt><trkpt lat="44.1420775" lon="7.903137"><ele>743.5</ele><time>2026-04-21T08:11:45.929Z</time></trkpt><trkpt lat="44.1419836" lon="7.9030256"><ele>743.75</ele><time>2026-04-21T08:11:46.929Z</time></trkpt><trkpt lat="44.1418944" lon="7.9029207"><ele>744.0</ele><time>2026-04-21T08:11:47.923Z</time></trkpt><trkpt lat="44.1418073" lon="7.9028163"><ele>744.0</ele><time>2026-04-21T08:11:48.922Z</time></trkpt><trkpt lat="44.1417202" lon="7.9027056"><ele>744.0</ele><time>2026-04-21T08:11:49.923Z</time></trkpt><trkpt lat="44.1416267" lon="7.9025914"><ele>744.0</ele><time>2026-04-21T08:11:50.934Z</time></trkpt><trkpt lat="44.1415247" lon="7.9024758"><ele>744.0</ele><time>2026-04-21T08:11:51.917Z</time></trkpt><trkpt lat="44.1413196" lon="7.9022349"><ele>743.75</ele><time>2026-04-21T08:11:53.929Z</time></trkpt><trkpt lat="44.1412139" lon="7.902111"><ele>743.5</ele><time>2026-04-21T08:11:54.928Z</time></trkpt><trkpt lat="44.1411054" lon="7.9019884"><ele>743.25</ele><time>2026-04-21T08:11:55.922Z</time></trkpt><trkpt lat="44.1409934" lon="7.901866"><ele>743.0</ele><time>2026-04-21T08:11:56.916Z</time></trkpt><trkpt lat="44.1408782" lon="7.9017402"><ele>744.5</ele><time>2026-04-21T08:11:57.917Z</time></trkpt><trkpt lat="44.1407617" lon="7.9016128"><ele>746.0</ele><time>2026-04-21T08:11:58.916Z</time></trkpt><trkpt lat="44.1406451" lon="7.9014862"><ele>747.5</ele><time>2026-04-21T08:11:59.923Z</time></trkpt><trkpt lat="44.140524" lon="7.9013633"><ele>749.0</ele><time>2026-04-21T08:12:00.928Z</time></trkpt><trkpt lat="44.1403961" lon="7.9012571"><ele>749.0</ele><time>2026-04-21T08:12:01.917Z</time></trkpt><trkpt lat="44.1402583" lon="7.9011798"><ele>749.0</ele><time>2026-04-21T08:12:02.923Z</time></trkpt><trkpt lat="44.1401083" lon="7.9011395"><ele>749.0</ele><time>2026-04-21T08:12:03.916Z</time></trkpt><trkpt lat="44.139948" lon="7.9011081"><ele>747.0</ele><time>2026-04-21T08:12:04.915Z</time></trkpt><trkpt lat="44.1397776" lon="7.9010693"><ele>745.0</ele><time>2026-04-21T08:12:05.922Z</time></trkpt><trkpt lat="44.1396077" lon="7.9010353"><ele>743.0</ele><time>2026-04-21T08:12:06.927Z</time></trkpt><trkpt lat="44.1394411" lon="7.900989"><ele>748.3333333333333</ele><time>2026-04-21T08:12:07.926Z</time></trkpt><trkpt lat="44.1392828" lon="7.9009134"><ele>753.6666666666666</ele><time>2026-04-21T08:12:08.916Z</time></trkpt><trkpt lat="44.1391321" lon="7.9008172"><ele>759.0</ele><time>2026-04-21T08:12:09.927Z</time></trkpt><trkpt lat="44.1389789" lon="7.9007394"><ele>762.6666666666667</ele><time>2026-04-21T08:12:10.913Z</time></trkpt><trkpt lat="44.1388188" lon="7.9007229"><ele>766.3333333333334</ele><time>2026-04-21T08:12:11.911Z</time></trkpt><trkpt lat="44.1386639" lon="7.9008061"><ele>770.0</ele><time>2026-04-21T08:12:12.923Z</time></trkpt><trkpt lat="44.1383476" lon="7.9010176"><ele>763.0</ele><time>2026-04-21T08:12:14.922Z</time></trkpt><trkpt lat="44.138186" lon="7.9010483"><ele>756.0</ele><time>2026-04-21T08:12:15.917Z</time></trkpt><trkpt lat="44.1380178" lon="7.901036"><ele>749.0</ele><time>2026-04-21T08:12:16.913Z</time></trkpt><trkpt lat="44.1378517" lon="7.9010371"><ele>749.0</ele><time>2026-04-21T08:12:17.919Z</time></trkpt><trkpt lat="44.137674" lon="7.9010455"><ele>749.0</ele><time>2026-04-21T08:12:18.911Z</time></trkpt><trkpt lat="44.1374941" lon="7.9010549"><ele>749.0</ele><time>2026-04-21T08:12:19.907Z</time></trkpt><trkpt lat="44.1373125" lon="7.9010367"><ele>748.3333333333333</ele><time>2026-04-21T08:12:20.913Z</time></trkpt><trkpt lat="44.1371311" lon="7.9010034"><ele>747.6666666666666</ele><time>2026-04-21T08:12:21.913Z</time></trkpt><trkpt lat="44.136947" lon="7.900986"><ele>747.0</ele><time>2026-04-21T08:12:22.92Z</time></trkpt><trkpt lat="44.136763" lon="7.9009919"><ele>747.0</ele><time>2026-04-21T08:12:23.918Z</time></trkpt><trkpt lat="44.1365833" lon="7.9009924"><ele>747.0</ele><time>2026-04-21T08:12:24.916Z</time></trkpt><trkpt lat="44.136418" lon="7.9009632"><ele>747.0</ele><time>2026-04-21T08:12:25.913Z</time></trkpt><trkpt lat="44.1362661" lon="7.9008773"><ele>750.6666666666666</ele><time>2026-04-21T08:12:26.915Z</time></trkpt><trkpt lat="44.1361186" lon="7.9007492"><ele>754.3333333333333</ele><time>2026-04-21T08:12:27.915Z</time></trkpt><trkpt lat="44.1359682" lon="7.9006174"><ele>758.0</ele><time>2026-04-21T08:12:28.915Z</time></trkpt><trkpt lat="44.1358036" lon="7.9005012"><ele>756.6666666666666</ele><time>2026-04-21T08:12:29.914Z</time></trkpt><trkpt lat="44.1356281" lon="7.9003889"><ele>755.3333333333334</ele><time>2026-04-21T08:12:30.921Z</time></trkpt><trkpt lat="44.1354431" lon="7.9002949"><ele>754.0</ele><time>2026-04-21T08:12:31.916Z</time></trkpt><trkpt lat="44.135253" lon="7.900229"><ele>754.0</ele><time>2026-04-21T08:12:32.919Z</time></trkpt><trkpt lat="44.1350588" lon="7.900216"><ele>754.0</ele><time>2026-04-21T08:12:33.913Z</time></trkpt><trkpt lat="44.1346476" lon="7.9001958"><ele>753.0</ele><time>2026-04-21T08:12:35.916Z</time></trkpt><trkpt lat="44.1344481" lon="7.900135"><ele>752.0</ele><time>2026-04-21T08:12:36.921Z</time></trkpt><trkpt lat="44.1342571" lon="7.900021"><ele>751.0</ele><time>2026-04-21T08:12:37.912Z</time></trkpt><trkpt lat="44.1340801" lon="7.8998913"><ele>754.3333333333334</ele><time>2026-04-21T08:12:38.914Z</time></trkpt><trkpt lat="44.1338983" lon="7.8997748"><ele>757.6666666666666</ele><time>2026-04-21T08:12:39.912Z</time></trkpt><trkpt lat="44.1337056" lon="7.8996777"><ele>761.0</ele><time>2026-04-21T08:12:40.912Z</time></trkpt><trkpt lat="44.1335097" lon="7.8995969"><ele>761.0</ele><time>2026-04-21T08:12:41.915Z</time></trkpt><trkpt lat="44.1333104" lon="7.8995264"><ele>761.0</ele><time>2026-04-21T08:12:42.911Z</time></trkpt><trkpt lat="44.1331111" lon="7.8994665"><ele>761.0</ele><time>2026-04-21T08:12:43.916Z</time></trkpt><trkpt lat="44.132913" lon="7.8994067"><ele>762.3333333333333</ele><time>2026-04-21T08:12:44.916Z</time></trkpt><trkpt lat="44.1327167" lon="7.8993456"><ele>763.6666666666666</ele><time>2026-04-21T08:12:45.916Z</time></trkpt><trkpt lat="44.1325228" lon="7.8992845"><ele>765.0</ele><time>2026-04-21T08:12:46.915Z</time></trkpt><trkpt lat="44.1323294" lon="7.89921"><ele>765.0</ele><time>2026-04-21T08:12:47.913Z</time></trkpt><trkpt lat="44.1321397" lon="7.8991128"><ele>765.0</ele><time>2026-04-21T08:12:48.921Z</time></trkpt><trkpt lat="44.1319584" lon="7.8989946"><ele>765.0</ele><time>2026-04-21T08:12:49.914Z</time></trkpt><trkpt lat="44.1317781" lon="7.898871"><ele>765.0</ele><time>2026-04-21T08:12:50.918Z</time></trkpt><trkpt lat="44.1315941" lon="7.8987491"><ele>765.0</ele><time>2026-04-21T08:12:51.916Z</time></trkpt><trkpt lat="44.1314053" lon="7.8986315"><ele>765.0</ele><time>2026-04-21T08:12:52.919Z</time></trkpt><trkpt lat="44.1312178" lon="7.8985155"><ele>769.5</ele><time>2026-04-21T08:12:53.916Z</time></trkpt><trkpt lat="44.1310306" lon="7.8983946"><ele>774.0</ele><time>2026-04-21T08:12:54.913Z</time></trkpt><trkpt lat="44.1306768" lon="7.8981297"><ele>774.0</ele><time>2026-04-21T08:12:56.914Z</time></trkpt><trkpt lat="44.1305275" lon="7.8979467"><ele>774.0</ele><time>2026-04-21T08:12:57.914Z</time></trkpt><trkpt lat="44.1303947" lon="7.8977299"><ele>774.0</ele><time>2026-04-21T08:12:58.915Z</time></trkpt><trkpt lat="44.1302723" lon="7.8974914"><ele>774.0</ele><time>2026-04-21T08:12:59.916Z</time></trkpt><trkpt lat="44.1301433" lon="7.8972674"><ele>774.0</ele><time>2026-04-21T08:13:00.915Z</time></trkpt><trkpt lat="44.1299847" lon="7.8970845"><ele>774.0</ele><time>2026-04-21T08:13:01.914Z</time></trkpt><trkpt lat="44.1298071" lon="7.896942"><ele>774.6666666666667</ele><time>2026-04-21T08:13:02.924Z</time></trkpt><trkpt lat="44.1296113" lon="7.8968341"><ele>775.3333333333334</ele><time>2026-04-21T08:13:03.915Z</time></trkpt><trkpt lat="44.1294027" lon="7.8967749"><ele>776.0</ele><time>2026-04-21T08:13:04.912Z</time></trkpt><trkpt lat="44.129189" lon="7.8967567"><ele>778.0</ele><time>2026-04-21T08:13:05.919Z</time></trkpt><trkpt lat="44.128968" lon="7.8967686"><ele>780.0</ele><time>2026-04-21T08:13:06.913Z</time></trkpt><trkpt lat="44.1287484" lon="7.8967912"><ele>782.0</ele><time>2026-04-21T08:13:07.917Z</time></trkpt><trkpt lat="44.128534" lon="7.8968028"><ele>782.0</ele><time>2026-04-21T08:13:08.921Z</time></trkpt><trkpt lat="44.1283291" lon="7.8968094"><ele>782.0</ele><time>2026-04-21T08:13:09.915Z</time></trkpt><trkpt lat="44.1281265" lon="7.8968098"><ele>782.0</ele><time>2026-04-21T08:13:10.917Z</time></trkpt><trkpt lat="44.127926" lon="7.8968049"><ele>782.0</ele><time>2026-04-21T08:13:11.908Z</time></trkpt><trkpt lat="44.1277238" lon="7.8967924"><ele>782.0</ele><time>2026-04-21T08:13:12.915Z</time></trkpt><trkpt lat="44.1275255" lon="7.8967529"><ele>782.0</ele><time>2026-04-21T08:13:13.912Z</time></trkpt><trkpt lat="44.1273327" lon="7.896682"><ele>779.5</ele><time>2026-04-21T08:13:14.916Z</time></trkpt><trkpt lat="44.1271495" lon="7.8965797"><ele>777.0</ele><time>2026-04-21T08:13:15.917Z</time></trkpt><trkpt lat="44.1267878" lon="7.8963541"><ele>777.0</ele><time>2026-04-21T08:13:17.917Z</time></trkpt><trkpt lat="44.1266048" lon="7.8962374"><ele>777.0</ele><time>2026-04-21T08:13:18.911Z</time></trkpt><trkpt lat="44.1264248" lon="7.8961083"><ele>777.0</ele><time>2026-04-21T08:13:19.915Z</time></trkpt><trkpt lat="44.1262541" lon="7.8959669"><ele>778.0</ele><time>2026-04-21T08:13:20.911Z</time></trkpt><trkpt lat="44.1260912" lon="7.8958143"><ele>779.0</ele><time>2026-04-21T08:13:21.916Z</time></trkpt><trkpt lat="44.1259246" lon="7.8956493"><ele>780.0</ele><time>2026-04-21T08:13:22.915Z</time></trkpt><trkpt lat="44.1257567" lon="7.8954903"><ele>780.3333333333333</ele><time>2026-04-21T08:13:23.916Z</time></trkpt><trkpt lat="44.125585" lon="7.8953409"><ele>780.6666666666666</ele><time>2026-04-21T08:13:24.914Z</time></trkpt><trkpt lat="44.1254119" lon="7.8951917"><ele>781.0</ele><time>2026-04-21T08:13:25.911Z</time></trkpt><trkpt lat="44.1252386" lon="7.8950384"><ele>781.0</ele><time>2026-04-21T08:13:26.909Z</time></trkpt><trkpt lat="44.1250701" lon="7.8948839"><ele>781.0</ele><time>2026-04-21T08:13:27.918Z</time></trkpt><trkpt lat="44.1248996" lon="7.8947396"><ele>781.0</ele><time>2026-04-21T08:13:28.912Z</time></trkpt><trkpt lat="44.124721" lon="7.894609"><ele>779.3333333333333</ele><time>2026-04-21T08:13:29.912Z</time></trkpt><trkpt lat="44.1245355" lon="7.8944942"><ele>777.6666666666667</ele><time>2026-04-21T08:13:30.912Z</time></trkpt><trkpt lat="44.1243484" lon="7.8943955"><ele>776.0</ele><time>2026-04-21T08:13:31.913Z</time></trkpt><trkpt lat="44.124166" lon="7.8943144"><ele>777.0</ele><time>2026-04-21T08:13:32.916Z</time></trkpt><trkpt lat="44.1239907" lon="7.8942487"><ele>778.0</ele><time>2026-04-21T08:13:33.912Z</time></trkpt><trkpt lat="44.1238253" lon="7.8941909"><ele>779.0</ele><time>2026-04-21T08:13:34.911Z</time></trkpt><trkpt lat="44.1236707" lon="7.8941352"><ele>779.0</ele><time>2026-04-21T08:13:35.915Z</time></trkpt><trkpt lat="44.1235298" lon="7.8940714"><ele>779.0</ele><time>2026-04-21T08:13:36.91Z</time></trkpt><trkpt lat="44.1232766" lon="7.8939167"><ele>779.0</ele><time>2026-04-21T08:13:38.914Z</time></trkpt><trkpt lat="44.1231525" lon="7.8938338"><ele>778.25</ele><time>2026-04-21T08:13:39.916Z</time></trkpt><trkpt lat="44.1230222" lon="7.8937714"><ele>777.5</ele><time>2026-04-21T08:13:40.91Z</time></trkpt><trkpt lat="44.1228916" lon="7.8937194"><ele>776.75</ele><time>2026-04-21T08:13:41.909Z</time></trkpt><trkpt lat="44.1227613" lon="7.8936621"><ele>776.0</ele><time>2026-04-21T08:13:42.917Z</time></trkpt><trkpt lat="44.1226305" lon="7.8935881"><ele>776.0</ele><time>2026-04-21T08:13:43.914Z</time></trkpt><trkpt lat="44.1224996" lon="7.8935067"><ele>776.0</ele><time>2026-04-21T08:13:44.908Z</time></trkpt><trkpt lat="44.1223745" lon="7.8934245"><ele>776.0</ele><time>2026-04-21T08:13:45.915Z</time></trkpt><trkpt lat="44.1222605" lon="7.8933288"><ele>776.0</ele><time>2026-04-21T08:13:46.909Z</time></trkpt><trkpt lat="44.1221694" lon="7.8932024"><ele>775.75</ele><time>2026-04-21T08:13:47.914Z</time></trkpt><trkpt lat="44.1221033" lon="7.8930468"><ele>775.5</ele><time>2026-04-21T08:13:48.906Z</time></trkpt><trkpt lat="44.1220642" lon="7.8928753"><ele>775.25</ele><time>2026-04-21T08:13:49.911Z</time></trkpt><trkpt lat="44.1220346" lon="7.8926872"><ele>775.0</ele><time>2026-04-21T08:13:50.908Z</time></trkpt><trkpt lat="44.1219946" lon="7.8924923"><ele>777.0</ele><time>2026-04-21T08:13:51.91Z</time></trkpt><trkpt lat="44.1219438" lon="7.8922969"><ele>779.0</ele><time>2026-04-21T08:13:52.909Z</time></trkpt><trkpt lat="44.1218865" lon="7.8921036"><ele>781.0</ele><time>2026-04-21T08:13:53.912Z</time></trkpt><trkpt lat="44.1218221" lon="7.8919169"><ele>783.0</ele><time>2026-04-21T08:13:54.918Z</time></trkpt><trkpt lat="44.1217434" lon="7.8917422"><ele>781.6666666666667</ele><time>2026-04-21T08:13:55.914Z</time></trkpt><trkpt lat="44.12164" lon="7.8915846"><ele>780.3333333333334</ele><time>2026-04-21T08:13:56.917Z</time></trkpt><trkpt lat="44.1215266" lon="7.8914394"><ele>779.0</ele><time>2026-04-21T08:13:57.914Z</time></trkpt><trkpt lat="44.1213253" lon="7.8911403"><ele>779.0</ele><time>2026-04-21T08:13:59.917Z</time></trkpt><trkpt lat="44.1212758" lon="7.8909744"><ele>779.0</ele><time>2026-04-21T08:14:00.917Z</time></trkpt><trkpt lat="44.1212804" lon="7.8907833"><ele>779.0</ele><time>2026-04-21T08:14:01.915Z</time></trkpt><trkpt lat="44.1213155" lon="7.8905539"><ele>779.0</ele><time>2026-04-21T08:14:02.908Z</time></trkpt><trkpt lat="44.121371" lon="7.8903088"><ele>779.3333333333334</ele><time>2026-04-21T08:14:03.918Z</time></trkpt><trkpt lat="44.121404" lon="7.8900666"><ele>779.6666666666667</ele><time>2026-04-21T08:14:04.913Z</time></trkpt><trkpt lat="44.1213969" lon="7.8898129"><ele>780.0</ele><time>2026-04-21T08:14:05.916Z</time></trkpt><trkpt lat="44.1213673" lon="7.8895539"><ele>780.0</ele><time>2026-04-21T08:14:06.911Z</time></trkpt><trkpt lat="44.1213471" lon="7.8893001"><ele>780.0</ele><time>2026-04-21T08:14:07.919Z</time></trkpt><trkpt lat="44.121348" lon="7.889044"><ele>780.0</ele><time>2026-04-21T08:14:08.914Z</time></trkpt><trkpt lat="44.1213605" lon="7.8887902"><ele>781.3333333333333</ele><time>2026-04-21T08:14:09.915Z</time></trkpt><trkpt lat="44.1213838" lon="7.8885344"><ele>782.6666666666666</ele><time>2026-04-21T08:14:10.92Z</time></trkpt><trkpt lat="44.1214098" lon="7.8882668"><ele>784.0</ele><time>2026-04-21T08:14:11.914Z</time></trkpt><trkpt lat="44.1214317" lon="7.8879967"><ele>785.0</ele><time>2026-04-21T08:14:12.918Z</time></trkpt><trkpt lat="44.1214545" lon="7.887731"><ele>786.0</ele><time>2026-04-21T08:14:13.92Z</time></trkpt><trkpt lat="44.1214758" lon="7.8874667"><ele>787.0</ele><time>2026-04-21T08:14:14.912Z</time></trkpt><trkpt lat="44.1214955" lon="7.8871997"><ele>787.0</ele><time>2026-04-21T08:14:15.914Z</time></trkpt><trkpt lat="44.1215067" lon="7.8869296"><ele>787.0</ele><time>2026-04-21T08:14:16.913Z</time></trkpt><trkpt lat="44.121504" lon="7.8866562"><ele>787.0</ele><time>2026-04-21T08:14:17.917Z</time></trkpt><trkpt lat="44.1214833" lon="7.8863867"><ele>788.0</ele><time>2026-04-21T08:14:18.914Z</time></trkpt><trkpt lat="44.1213899" lon="7.8858671"><ele>789.0</ele><time>2026-04-21T08:14:20.913Z</time></trkpt><trkpt lat="44.1213228" lon="7.8856173"><ele>789.0</ele><time>2026-04-21T08:14:21.912Z</time></trkpt><trkpt lat="44.1212434" lon="7.8853737"><ele>789.0</ele><time>2026-04-21T08:14:22.922Z</time></trkpt><trkpt lat="44.1211614" lon="7.8851353"><ele>789.0</ele><time>2026-04-21T08:14:23.91Z</time></trkpt><trkpt lat="44.1210846" lon="7.8848918"><ele>792.6666666666667</ele><time>2026-04-21T08:14:24.918Z</time></trkpt><trkpt lat="44.1210273" lon="7.8846354"><ele>796.3333333333334</ele><time>2026-04-21T08:14:25.922Z</time></trkpt><trkpt lat="44.1209903" lon="7.8843703"><ele>800.0</ele><time>2026-04-21T08:14:26.914Z</time></trkpt><trkpt lat="44.1209575" lon="7.8840963"><ele>802.0</ele><time>2026-04-21T08:14:27.918Z</time></trkpt><trkpt lat="44.1209188" lon="7.8838299"><ele>804.0</ele><time>2026-04-21T08:14:28.911Z</time></trkpt><trkpt lat="44.1208762" lon="7.8835655"><ele>806.0</ele><time>2026-04-21T08:14:29.919Z</time></trkpt><trkpt lat="44.1208187" lon="7.8833039"><ele>808.6666666666667</ele><time>2026-04-21T08:14:30.916Z</time></trkpt><trkpt lat="44.1207376" lon="7.8830471"><ele>811.3333333333333</ele><time>2026-04-21T08:14:31.912Z</time></trkpt><trkpt lat="44.120628" lon="7.8828073"><ele>814.0</ele><time>2026-04-21T08:14:32.92Z</time></trkpt><trkpt lat="44.1204901" lon="7.8825895"><ele>808.0</ele><time>2026-04-21T08:14:33.915Z</time></trkpt><trkpt lat="44.120329" lon="7.8824058"><ele>802.0</ele><time>2026-04-21T08:14:34.91Z</time></trkpt><trkpt lat="44.1201618" lon="7.8822358"><ele>796.0</ele><time>2026-04-21T08:14:35.916Z</time></trkpt><trkpt lat="44.1200045" lon="7.882054"><ele>795.0</ele><time>2026-04-21T08:14:36.908Z</time></trkpt><trkpt lat="44.1198721" lon="7.8818392"><ele>794.0</ele><time>2026-04-21T08:14:37.917Z</time></trkpt><trkpt lat="44.1197663" lon="7.8815913"><ele>793.0</ele><time>2026-04-21T08:14:38.909Z</time></trkpt><trkpt lat="44.119679" lon="7.8813394"><ele>795.0</ele><time>2026-04-21T08:14:39.914Z</time></trkpt><trkpt lat="44.1195072" lon="7.8808593"><ele>797.0</ele><time>2026-04-21T08:14:41.914Z</time></trkpt><trkpt lat="44.1194303" lon="7.8806211"><ele>797.0</ele><time>2026-04-21T08:14:42.914Z</time></trkpt><trkpt lat="44.1193707" lon="7.8803625"><ele>797.0</ele><time>2026-04-21T08:14:43.909Z</time></trkpt><trkpt lat="44.1193184" lon="7.8800997"><ele>797.0</ele><time>2026-04-21T08:14:44.914Z</time></trkpt><trkpt lat="44.1192727" lon="7.8798242"><ele>800.0</ele><time>2026-04-21T08:14:45.913Z</time></trkpt><trkpt lat="44.1192226" lon="7.8795466"><ele>803.0</ele><time>2026-04-21T08:14:46.916Z</time></trkpt><trkpt lat="44.1191706" lon="7.8792708"><ele>806.0</ele><time>2026-04-21T08:14:47.916Z</time></trkpt><trkpt lat="44.1191131" lon="7.8789984"><ele>803.0</ele><time>2026-04-21T08:14:48.919Z</time></trkpt><trkpt lat="44.1190437" lon="7.8787276"><ele>800.0</ele><time>2026-04-21T08:14:49.917Z</time></trkpt><trkpt lat="44.1189662" lon="7.8784622"><ele>797.0</ele><time>2026-04-21T08:14:50.913Z</time></trkpt><trkpt lat="44.1188913" lon="7.8781998"><ele>797.0</ele><time>2026-04-21T08:14:51.912Z</time></trkpt><trkpt lat="44.1188208" lon="7.8779415"><ele>797.0</ele><time>2026-04-21T08:14:52.911Z</time></trkpt><trkpt lat="44.1187538" lon="7.8776974"><ele>797.0</ele><time>2026-04-21T08:14:53.916Z</time></trkpt><trkpt lat="44.1187053" lon="7.8774586"><ele>797.6666666666667</ele><time>2026-04-21T08:14:54.921Z</time></trkpt><trkpt lat="44.1186848" lon="7.8772359"><ele>798.3333333333333</ele><time>2026-04-21T08:14:55.924Z</time></trkpt><trkpt lat="44.1187109" lon="7.8770121"><ele>799.0</ele><time>2026-04-21T08:14:56.92Z</time></trkpt><trkpt lat="44.1187923" lon="7.8767833"><ele>799.6666666666666</ele><time>2026-04-21T08:14:57.915Z</time></trkpt><trkpt lat="44.1188861" lon="7.8765683"><ele>800.3333333333333</ele><time>2026-04-21T08:14:58.914Z</time></trkpt><trkpt lat="44.1189703" lon="7.8763458"><ele>801.0</ele><time>2026-04-21T08:14:59.912Z</time></trkpt><trkpt lat="44.1190166" lon="7.8761053"><ele>801.0</ele><time>2026-04-21T08:15:00.912Z</time></trkpt><trkpt lat="44.118942" lon="7.8755982"><ele>801.0</ele><time>2026-04-21T08:15:02.919Z</time></trkpt><trkpt lat="44.1188529" lon="7.8753522"><ele>801.0</ele><time>2026-04-21T08:15:03.914Z</time></trkpt><trkpt lat="44.1187581" lon="7.8751144"><ele>801.0</ele><time>2026-04-21T08:15:04.914Z</time></trkpt><trkpt lat="44.1186715" lon="7.8748758"><ele>801.0</ele><time>2026-04-21T08:15:05.912Z</time></trkpt><trkpt lat="44.1185843" lon="7.8746377"><ele>802.3333333333333</ele><time>2026-04-21T08:15:06.913Z</time></trkpt><trkpt lat="44.1184974" lon="7.8744033"><ele>803.6666666666666</ele><time>2026-04-21T08:15:07.917Z</time></trkpt><trkpt lat="44.1184175" lon="7.8741652"><ele>805.0</ele><time>2026-04-21T08:15:08.916Z</time></trkpt><trkpt lat="44.1183452" lon="7.8739208"><ele>807.0</ele><time>2026-04-21T08:15:09.909Z</time></trkpt><trkpt lat="44.1182865" lon="7.8736673"><ele>809.0</ele><time>2026-04-21T08:15:10.914Z</time></trkpt><trkpt lat="44.11825" lon="7.8734054"><ele>811.0</ele><time>2026-04-21T08:15:11.916Z</time></trkpt><trkpt lat="44.1182375" lon="7.8731338"><ele>813.3333333333333</ele><time>2026-04-21T08:15:12.919Z</time></trkpt><trkpt lat="44.1182371" lon="7.872862"><ele>815.6666666666667</ele><time>2026-04-21T08:15:13.909Z</time></trkpt><trkpt lat="44.118246" lon="7.8726017"><ele>818.0</ele><time>2026-04-21T08:15:14.916Z</time></trkpt><trkpt lat="44.1182635" lon="7.8723616"><ele>817.75</ele><time>2026-04-21T08:15:15.913Z</time></trkpt><trkpt lat="44.1182935" lon="7.8721459"><ele>817.5</ele><time>2026-04-21T08:15:16.915Z</time></trkpt><trkpt lat="44.1183332" lon="7.8719481"><ele>817.25</ele><time>2026-04-21T08:15:17.916Z</time></trkpt><trkpt lat="44.1183667" lon="7.8717586"><ele>817.0</ele><time>2026-04-21T08:15:18.916Z</time></trkpt><trkpt lat="44.1183771" lon="7.8715647"><ele>817.0</ele><time>2026-04-21T08:15:19.914Z</time></trkpt><trkpt lat="44.1183519" lon="7.8713607"><ele>817.0</ele><time>2026-04-21T08:15:20.918Z</time></trkpt><trkpt lat="44.1183006" lon="7.8711576"><ele>817.0</ele><time>2026-04-21T08:15:21.914Z</time></trkpt><trkpt lat="44.1181825" lon="7.8707601"><ele>814.3333333333333</ele><time>2026-04-21T08:15:23.912Z</time></trkpt><trkpt lat="44.1181139" lon="7.8705649"><ele>811.6666666666667</ele><time>2026-04-21T08:15:24.918Z</time></trkpt><trkpt lat="44.1180366" lon="7.8703679"><ele>809.0</ele><time>2026-04-21T08:15:25.914Z</time></trkpt><trkpt lat="44.1179664" lon="7.8701742"><ele>809.25</ele><time>2026-04-21T08:15:26.913Z</time></trkpt><trkpt lat="44.1179133" lon="7.8699899"><ele>809.5</ele><time>2026-04-21T08:15:27.911Z</time></trkpt><trkpt lat="44.1178904" lon="7.8698048"><ele>809.75</ele><time>2026-04-21T08:15:28.917Z</time></trkpt><trkpt lat="44.1179036" lon="7.8696185"><ele>810.0</ele><time>2026-04-21T08:15:29.912Z</time></trkpt><trkpt lat="44.1179437" lon="7.8694154"><ele>811.0</ele><time>2026-04-21T08:15:30.915Z</time></trkpt><trkpt lat="44.1179992" lon="7.8692134"><ele>812.0</ele><time>2026-04-21T08:15:31.914Z</time></trkpt><trkpt lat="44.1180523" lon="7.8690193"><ele>813.0</ele><time>2026-04-21T08:15:32.917Z</time></trkpt><trkpt lat="44.1181001" lon="7.8688375"><ele>814.0</ele><time>2026-04-21T08:15:33.912Z</time></trkpt><trkpt lat="44.1181402" lon="7.8686671"><ele>814.0</ele><time>2026-04-21T08:15:34.91Z</time></trkpt><trkpt lat="44.1181755" lon="7.8685043"><ele>814.0</ele><time>2026-04-21T08:15:35.909Z</time></trkpt><trkpt lat="44.1182068" lon="7.8683557"><ele>814.0</ele><time>2026-04-21T08:15:36.912Z</time></trkpt><trkpt lat="44.1182345" lon="7.8682158"><ele>814.0</ele><time>2026-04-21T08:15:37.914Z</time></trkpt><trkpt lat="44.1182474" lon="7.8680866"><ele>814.0</ele><time>2026-04-21T08:15:38.917Z</time></trkpt><trkpt lat="44.1182316" lon="7.8679664"><ele>814.0</ele><time>2026-04-21T08:15:39.916Z</time></trkpt><trkpt lat="44.1181659" lon="7.8678703"><ele>814.0</ele><time>2026-04-21T08:15:40.907Z</time></trkpt><trkpt lat="44.1180662" lon="7.8677979"><ele>814.0</ele><time>2026-04-21T08:15:41.911Z</time></trkpt><trkpt lat="44.1179659" lon="7.8677348"><ele>814.0</ele><time>2026-04-21T08:15:42.913Z</time></trkpt><trkpt lat="44.1177651" lon="7.8675905"><ele>815.75</ele><time>2026-04-21T08:15:44.916Z</time></trkpt><trkpt lat="44.1176681" lon="7.8675104"><ele>817.5</ele><time>2026-04-21T08:15:45.917Z</time></trkpt><trkpt lat="44.1175593" lon="7.8674466"><ele>819.25</ele><time>2026-04-21T08:15:46.917Z</time></trkpt><trkpt lat="44.1174445" lon="7.8674164"><ele>821.0</ele><time>2026-04-21T08:15:47.908Z</time></trkpt><trkpt lat="44.1173141" lon="7.8674455"><ele>825.0</ele><time>2026-04-21T08:15:48.911Z</time></trkpt><trkpt lat="44.1171632" lon="7.8675111"><ele>829.0</ele><time>2026-04-21T08:15:49.913Z</time></trkpt><trkpt lat="44.1170016" lon="7.8675541"><ele>833.0</ele><time>2026-04-21T08:15:50.918Z</time></trkpt><trkpt lat="44.1168264" lon="7.8675706"><ele>833.0</ele><time>2026-04-21T08:15:51.914Z</time></trkpt><trkpt lat="44.1166384" lon="7.8675689"><ele>833.0</ele><time>2026-04-21T08:15:52.913Z</time></trkpt><trkpt lat="44.1164477" lon="7.8675509"><ele>833.0</ele><time>2026-04-21T08:15:53.915Z</time></trkpt><trkpt lat="44.1162518" lon="7.8675293"><ele>835.6666666666667</ele><time>2026-04-21T08:15:54.916Z</time></trkpt><trkpt lat="44.1160591" lon="7.8675234"><ele>838.3333333333333</ele><time>2026-04-21T08:15:55.918Z</time></trkpt><trkpt lat="44.1158742" lon="7.8675443"><ele>841.0</ele><time>2026-04-21T08:15:56.915Z</time></trkpt><trkpt lat="44.1156981" lon="7.8675849"><ele>839.0</ele><time>2026-04-21T08:15:57.915Z</time></trkpt><trkpt lat="44.1155304" lon="7.86763"><ele>837.0</ele><time>2026-04-21T08:15:58.917Z</time></trkpt><trkpt lat="44.1153664" lon="7.867672"><ele>835.0</ele><time>2026-04-21T08:15:59.917Z</time></trkpt><trkpt lat="44.1152081" lon="7.8677247"><ele>835.0</ele><time>2026-04-21T08:16:00.913Z</time></trkpt><trkpt lat="44.1150572" lon="7.8677968"><ele>835.0</ele><time>2026-04-21T08:16:01.914Z</time></trkpt><trkpt lat="44.1149216" lon="7.8678718"><ele>835.0</ele><time>2026-04-21T08:16:02.913Z</time></trkpt><trkpt lat="44.1148047" lon="7.8679441"><ele>835.0</ele><time>2026-04-21T08:16:03.911Z</time></trkpt><trkpt lat="44.1145846" lon="7.8681447"><ele>836.25</ele><time>2026-04-21T08:16:05.909Z</time></trkpt><trkpt lat="44.1144659" lon="7.8682635"><ele>837.5</ele><time>2026-04-21T08:16:06.913Z</time></trkpt><trkpt lat="44.114341" lon="7.8683723"><ele>838.75</ele><time>2026-04-21T08:16:07.913Z</time></trkpt><trkpt lat="44.114202" lon="7.8684456"><ele>840.0</ele><time>2026-04-21T08:16:08.912Z</time></trkpt><trkpt lat="44.1140404" lon="7.8684637"><ele>842.6666666666667</ele><time>2026-04-21T08:16:09.91Z</time></trkpt><trkpt lat="44.1138641" lon="7.8684569"><ele>845.3333333333334</ele><time>2026-04-21T08:16:10.905Z</time></trkpt><trkpt lat="44.113685" lon="7.8684721"><ele>848.0</ele><time>2026-04-21T08:16:11.915Z</time></trkpt><trkpt lat="44.1135006" lon="7.8685194"><ele>848.0</ele><time>2026-04-21T08:16:12.915Z</time></trkpt><trkpt lat="44.1133248" lon="7.8686128"><ele>848.0</ele><time>2026-04-21T08:16:13.914Z</time></trkpt><trkpt lat="44.1131594" lon="7.8687438"><ele>848.0</ele><time>2026-04-21T08:16:14.911Z</time></trkpt><trkpt lat="44.1129982" lon="7.8688848"><ele>850.6666666666667</ele><time>2026-04-21T08:16:15.91Z</time></trkpt><trkpt lat="44.1128363" lon="7.8690107"><ele>853.3333333333333</ele><time>2026-04-21T08:16:16.913Z</time></trkpt><trkpt lat="44.1126627" lon="7.8690964"><ele>856.0</ele><time>2026-04-21T08:16:17.911Z</time></trkpt><trkpt lat="44.1124777" lon="7.8691347"><ele>857.3333333333333</ele><time>2026-04-21T08:16:18.908Z</time></trkpt><trkpt lat="44.1122883" lon="7.8691502"><ele>858.6666666666667</ele><time>2026-04-21T08:16:19.915Z</time></trkpt><trkpt lat="44.1120984" lon="7.8691771"><ele>860.0</ele><time>2026-04-21T08:16:20.914Z</time></trkpt><trkpt lat="44.1119103" lon="7.8692025"><ele>860.0</ele><time>2026-04-21T08:16:21.908Z</time></trkpt><trkpt lat="44.1117328" lon="7.8691862"><ele>860.0</ele><time>2026-04-21T08:16:22.911Z</time></trkpt><trkpt lat="44.1115608" lon="7.8691308"><ele>860.0</ele><time>2026-04-21T08:16:23.914Z</time></trkpt><trkpt lat="44.1113852" lon="7.8690659"><ele>863.0</ele><time>2026-04-21T08:16:24.91Z</time></trkpt><trkpt lat="44.1110539" lon="7.8689611"><ele>866.0</ele><time>2026-04-21T08:16:26.911Z</time></trkpt><trkpt lat="44.1109067" lon="7.8689694"><ele>866.0</ele><time>2026-04-21T08:16:27.915Z</time></trkpt><trkpt lat="44.1107659" lon="7.8690373"><ele>866.0</ele><time>2026-04-21T08:16:28.907Z</time></trkpt><trkpt lat="44.1106387" lon="7.8691162"><ele>866.0</ele><time>2026-04-21T08:16:29.913Z</time></trkpt><trkpt lat="44.1105192" lon="7.8691926"><ele>866.0</ele><time>2026-04-21T08:16:30.909Z</time></trkpt><trkpt lat="44.1104041" lon="7.8692594"><ele>866.4</ele><time>2026-04-21T08:16:31.909Z</time></trkpt><trkpt lat="44.1102941" lon="7.8693091"><ele>866.8</ele><time>2026-04-21T08:16:32.917Z</time></trkpt><trkpt lat="44.1101816" lon="7.8693494"><ele>867.1999999999999</ele><time>2026-04-21T08:16:33.913Z</time></trkpt><trkpt lat="44.1100766" lon="7.8693804"><ele>867.5999999999999</ele><time>2026-04-21T08:16:34.916Z</time></trkpt><trkpt lat="44.109972" lon="7.8693911"><ele>868.0</ele><time>2026-04-21T08:16:35.909Z</time></trkpt><trkpt lat="44.1098743" lon="7.8693913"><ele>868.1666666666666</ele><time>2026-04-21T08:16:36.913Z</time></trkpt><trkpt lat="44.1097736" lon="7.8693766"><ele>868.3333333333333</ele><time>2026-04-21T08:16:37.912Z</time></trkpt><trkpt lat="44.1096871" lon="7.8693668"><ele>868.5</ele><time>2026-04-21T08:16:38.91Z</time></trkpt><trkpt lat="44.109605" lon="7.8693619"><ele>868.6666666666667</ele><time>2026-04-21T08:16:39.906Z</time></trkpt><trkpt lat="44.109523" lon="7.8693715"><ele>868.8333333333334</ele><time>2026-04-21T08:16:40.908Z</time></trkpt><trkpt lat="44.1094484" lon="7.8694073"><ele>869.0</ele><time>2026-04-21T08:16:41.91Z</time></trkpt><trkpt lat="44.1093846" lon="7.8694717"><ele>869.0</ele><time>2026-04-21T08:16:42.914Z</time></trkpt><trkpt lat="44.1093215" lon="7.8695485"><ele>869.0000000000001</ele><time>2026-04-21T08:16:43.91Z</time></trkpt><trkpt lat="44.109262" lon="7.8696325"><ele>869.0000000000001</ele><time>2026-04-21T08:16:44.91Z</time></trkpt><trkpt lat="44.1092074" lon="7.8697182"><ele>869.0</ele><time>2026-04-21T08:16:45.916Z</time></trkpt><trkpt lat="44.1091195" lon="7.8698818"><ele>869.0</ele><time>2026-04-21T08:16:47.917Z</time></trkpt><trkpt lat="44.1090743" lon="7.8699606"><ele>868.2</ele><time>2026-04-21T08:16:48.914Z</time></trkpt><trkpt lat="44.1090328" lon="7.870034"><ele>867.4000000000001</ele><time>2026-04-21T08:16:49.912Z</time></trkpt><trkpt lat="44.1089512" lon="7.8701421"><ele>866.6</ele><time>2026-04-21T08:16:51.921Z</time></trkpt><trkpt lat="44.1088728" lon="7.8702199"><ele>865.8</ele><time>2026-04-21T08:16:53.914Z</time></trkpt><trkpt lat="44.1088312" lon="7.8702913"><ele>865.0</ele><time>2026-04-21T08:18:18.912Z</time></trkpt><trkpt lat="44.1087131" lon="7.870465"><ele>865.0</ele><time>2026-04-21T08:18:22.932Z</time></trkpt><trkpt lat="44.1086291" lon="7.8705677"><ele>865.0</ele><time>2026-04-21T08:18:23.918Z</time></trkpt><trkpt lat="44.1085311" lon="7.8706714"><ele>865.0</ele><time>2026-04-21T08:18:24.917Z</time></trkpt><trkpt lat="44.1084208" lon="7.8707703"><ele>865.0</ele><time>2026-04-21T08:18:25.918Z</time></trkpt><trkpt lat="44.1082974" lon="7.870856"><ele>865.75</ele><time>2026-04-21T08:18:26.913Z</time></trkpt><trkpt lat="44.1081663" lon="7.8709227"><ele>866.5</ele><time>2026-04-21T08:18:27.916Z</time></trkpt><trkpt lat="44.1080268" lon="7.8709696"><ele>867.25</ele><time>2026-04-21T08:18:28.922Z</time></trkpt><trkpt lat="44.1078791" lon="7.8709907"><ele>868.0</ele><time>2026-04-21T08:18:29.923Z</time></trkpt><trkpt lat="44.1077235" lon="7.8709945"><ele>868.0</ele><time>2026-04-21T08:18:30.923Z</time></trkpt><trkpt lat="44.1075627" lon="7.8710045"><ele>868.0</ele><time>2026-04-21T08:18:31.926Z</time></trkpt><trkpt lat="44.1074092" lon="7.8710469"><ele>868.0</ele><time>2026-04-21T08:18:32.917Z</time></trkpt><trkpt lat="44.1072634" lon="7.8711269"><ele>868.75</ele><time>2026-04-21T08:18:33.925Z</time></trkpt><trkpt lat="44.1071298" lon="7.871207"><ele>869.5</ele><time>2026-04-21T08:18:34.916Z</time></trkpt><trkpt lat="44.1070013" lon="7.871263"><ele>870.25</ele><time>2026-04-21T08:18:35.921Z</time></trkpt><trkpt lat="44.1068621" lon="7.8712869"><ele>871.0</ele><time>2026-04-21T08:18:36.924Z</time></trkpt><trkpt lat="44.1067137" lon="7.8712789"><ele>870.6666666666666</ele><time>2026-04-21T08:18:37.916Z</time></trkpt><trkpt lat="44.1065565" lon="7.8712326"><ele>870.3333333333333</ele><time>2026-04-21T08:18:38.932Z</time></trkpt><trkpt lat="44.1063941" lon="7.8711533"><ele>870.0</ele><time>2026-04-21T08:18:39.925Z</time></trkpt><trkpt lat="44.1060571" lon="7.8709911"><ele>870.0</ele><time>2026-04-21T08:18:41.926Z</time></trkpt><trkpt lat="44.1058801" lon="7.8709418"><ele>870.0</ele><time>2026-04-21T08:18:42.922Z</time></trkpt><trkpt lat="44.1056998" lon="7.8709137"><ele>870.0</ele><time>2026-04-21T08:18:43.93Z</time></trkpt><trkpt lat="44.1055147" lon="7.870903"><ele>874.3333333333333</ele><time>2026-04-21T08:18:44.921Z</time></trkpt><trkpt lat="44.1053238" lon="7.8709028"><ele>878.6666666666666</ele><time>2026-04-21T08:18:45.92Z</time></trkpt><trkpt lat="44.1051323" lon="7.8709063"><ele>883.0</ele><time>2026-04-21T08:18:46.91Z</time></trkpt><trkpt lat="44.1049401" lon="7.8709088"><ele>882.0</ele><time>2026-04-21T08:18:47.925Z</time></trkpt><trkpt lat="44.1047439" lon="7.8709074"><ele>881.0</ele><time>2026-04-21T08:18:48.925Z</time></trkpt><trkpt lat="44.1045465" lon="7.8709005"><ele>880.0</ele><time>2026-04-21T08:18:49.929Z</time></trkpt><trkpt lat="44.1043475" lon="7.8708741"><ele>880.0</ele><time>2026-04-21T08:18:50.931Z</time></trkpt><trkpt lat="44.1041507" lon="7.8708225"><ele>880.0</ele><time>2026-04-21T08:18:51.929Z</time></trkpt><trkpt lat="44.103957" lon="7.8707499"><ele>880.0</ele><time>2026-04-21T08:18:52.92Z</time></trkpt><trkpt lat="44.1037612" lon="7.8706747"><ele>881.0</ele><time>2026-04-21T08:18:53.917Z</time></trkpt><trkpt lat="44.1035646" lon="7.8706073"><ele>882.0</ele><time>2026-04-21T08:18:54.932Z</time></trkpt><trkpt lat="44.1033676" lon="7.8705461"><ele>883.0</ele><time>2026-04-21T08:18:55.93Z</time></trkpt><trkpt lat="44.1031746" lon="7.8704873"><ele>883.6666666666666</ele><time>2026-04-21T08:18:56.933Z</time></trkpt><trkpt lat="44.1029871" lon="7.8704429"><ele>884.3333333333333</ele><time>2026-04-21T08:18:57.931Z</time></trkpt><trkpt lat="44.1028029" lon="7.8704235"><ele>885.0</ele><time>2026-04-21T08:18:58.924Z</time></trkpt><trkpt lat="44.1026202" lon="7.8704455"><ele>885.0</ele><time>2026-04-21T08:18:59.923Z</time></trkpt><trkpt lat="44.102437" lon="7.8705105"><ele>885.0</ele><time>2026-04-21T08:19:00.945Z</time></trkpt><trkpt lat="44.1020779" lon="7.8706465"><ele>887.0</ele><time>2026-04-21T08:19:02.942Z</time></trkpt><trkpt lat="44.1018995" lon="7.8706962"><ele>889.0</ele><time>2026-04-21T08:19:03.93Z</time></trkpt><trkpt lat="44.1017216" lon="7.8707469"><ele>891.0</ele><time>2026-04-21T08:19:04.933Z</time></trkpt><trkpt lat="44.1015449" lon="7.8707999"><ele>891.6666666666667</ele><time>2026-04-21T08:19:05.936Z</time></trkpt><trkpt lat="44.1013678" lon="7.870847"><ele>892.3333333333334</ele><time>2026-04-21T08:19:06.92Z</time></trkpt><trkpt lat="44.1011912" lon="7.870894"><ele>893.0</ele><time>2026-04-21T08:19:07.924Z</time></trkpt><trkpt lat="44.1010138" lon="7.8709406"><ele>890.6666666666667</ele><time>2026-04-21T08:19:08.933Z</time></trkpt><trkpt lat="44.1008352" lon="7.8709849"><ele>888.3333333333333</ele><time>2026-04-21T08:19:09.938Z</time></trkpt><trkpt lat="44.1006552" lon="7.8710269"><ele>886.0</ele><time>2026-04-21T08:19:10.931Z</time></trkpt><trkpt lat="44.1004753" lon="7.8710644"><ele>886.0</ele><time>2026-04-21T08:19:11.932Z</time></trkpt><trkpt lat="44.1002944" lon="7.8710997"><ele>886.0</ele><time>2026-04-21T08:19:12.936Z</time></trkpt><trkpt lat="44.1001121" lon="7.8711331"><ele>886.0</ele><time>2026-04-21T08:19:13.934Z</time></trkpt><trkpt lat="44.0999287" lon="7.8711626"><ele>887.3333333333333</ele><time>2026-04-21T08:19:14.933Z</time></trkpt><trkpt lat="44.099748" lon="7.8711818"><ele>888.6666666666667</ele><time>2026-04-21T08:19:15.94Z</time></trkpt><trkpt lat="44.099571" lon="7.8711779"><ele>890.0</ele><time>2026-04-21T08:19:16.93Z</time></trkpt><trkpt lat="44.0993967" lon="7.8711399"><ele>890.0</ele><time>2026-04-21T08:19:17.937Z</time></trkpt><trkpt lat="44.0992163" lon="7.871069"><ele>890.0</ele><time>2026-04-21T08:19:18.941Z</time></trkpt><trkpt lat="44.0990384" lon="7.8710187"><ele>890.0</ele><time>2026-04-21T08:19:19.924Z</time></trkpt><trkpt lat="44.0988603" lon="7.8710121"><ele>891.0</ele><time>2026-04-21T08:19:20.939Z</time></trkpt><trkpt lat="44.098679" lon="7.8710604"><ele>892.0</ele><time>2026-04-21T08:19:21.93Z</time></trkpt><trkpt lat="44.0983207" lon="7.8712219"><ele>893.0</ele><time>2026-04-21T08:19:23.927Z</time></trkpt><trkpt lat="44.0981411" lon="7.8712922"><ele>894.0</ele><time>2026-04-21T08:19:24.923Z</time></trkpt><trkpt lat="44.0979627" lon="7.8713557"><ele>895.0</ele><time>2026-04-21T08:19:25.933Z</time></trkpt><trkpt lat="44.097787" lon="7.8714194"><ele>895.0</ele><time>2026-04-21T08:19:26.924Z</time></trkpt><trkpt lat="44.0976121" lon="7.8714825"><ele>895.0</ele><time>2026-04-21T08:19:27.929Z</time></trkpt><trkpt lat="44.0974372" lon="7.8715413"><ele>895.0</ele><time>2026-04-21T08:19:28.926Z</time></trkpt><trkpt lat="44.0972606" lon="7.8715954"><ele>896.6666666666666</ele><time>2026-04-21T08:19:29.938Z</time></trkpt><trkpt lat="44.0970836" lon="7.8716507"><ele>898.3333333333333</ele><time>2026-04-21T08:19:30.918Z</time></trkpt><trkpt lat="44.0969075" lon="7.8717096"><ele>900.0</ele><time>2026-04-21T08:19:31.928Z</time></trkpt><trkpt lat="44.0967296" lon="7.8717656"><ele>900.3333333333333</ele><time>2026-04-21T08:19:32.919Z</time></trkpt><trkpt lat="44.0965514" lon="7.8718195"><ele>900.6666666666666</ele><time>2026-04-21T08:19:33.923Z</time></trkpt><trkpt lat="44.0963718" lon="7.8718724"><ele>901.0</ele><time>2026-04-21T08:19:34.928Z</time></trkpt><trkpt lat="44.0961949" lon="7.8719249"><ele>901.0</ele><time>2026-04-21T08:19:35.924Z</time></trkpt><trkpt lat="44.0960198" lon="7.871976"><ele>901.0</ele><time>2026-04-21T08:19:36.935Z</time></trkpt><trkpt lat="44.0958445" lon="7.8720266"><ele>901.0</ele><time>2026-04-21T08:19:37.932Z</time></trkpt><trkpt lat="44.0956703" lon="7.8720762"><ele>902.3333333333333</ele><time>2026-04-21T08:19:38.935Z</time></trkpt><trkpt lat="44.0955023" lon="7.8721211"><ele>903.6666666666667</ele><time>2026-04-21T08:19:39.931Z</time></trkpt><trkpt lat="44.0953442" lon="7.8721633"><ele>905.0</ele><time>2026-04-21T08:19:40.92Z</time></trkpt><trkpt lat="44.0951932" lon="7.8722087"><ele>905.0</ele><time>2026-04-21T08:19:41.92Z</time></trkpt><trkpt lat="44.0950458" lon="7.8722543"><ele>905.0</ele><time>2026-04-21T08:19:42.924Z</time></trkpt><trkpt lat="44.0947458" lon="7.8723417"><ele>906.3333333333334</ele><time>2026-04-21T08:19:44.921Z</time></trkpt><trkpt lat="44.0945926" lon="7.8723884"><ele>907.6666666666667</ele><time>2026-04-21T08:19:45.93Z</time></trkpt><trkpt lat="44.0944396" lon="7.8724391"><ele>909.0</ele><time>2026-04-21T08:19:46.938Z</time></trkpt><trkpt lat="44.0942799" lon="7.8724878"><ele>909.0</ele><time>2026-04-21T08:19:47.93Z</time></trkpt><trkpt lat="44.0941224" lon="7.8725384"><ele>909.0</ele><time>2026-04-21T08:19:48.92Z</time></trkpt><trkpt lat="44.0939629" lon="7.872587"><ele>909.0</ele><time>2026-04-21T08:19:49.923Z</time></trkpt><trkpt lat="44.093805" lon="7.8726404"><ele>907.3333333333333</ele><time>2026-04-21T08:19:50.929Z</time></trkpt><trkpt lat="44.0936495" lon="7.8727072"><ele>905.6666666666666</ele><time>2026-04-21T08:19:51.921Z</time></trkpt><trkpt lat="44.0934999" lon="7.8727974"><ele>904.0</ele><time>2026-04-21T08:19:52.935Z</time></trkpt><trkpt lat="44.0933553" lon="7.8729033"><ele>906.0</ele><time>2026-04-21T08:19:53.935Z</time></trkpt><trkpt lat="44.0932094" lon="7.8730103"><ele>908.0</ele><time>2026-04-21T08:19:54.922Z</time></trkpt><trkpt lat="44.0930617" lon="7.8731037"><ele>910.0</ele><time>2026-04-21T08:19:55.918Z</time></trkpt><trkpt lat="44.0929093" lon="7.8731711"><ele>910.0</ele><time>2026-04-21T08:19:56.923Z</time></trkpt><trkpt lat="44.092749" lon="7.8731924"><ele>910.0</ele><time>2026-04-21T08:19:57.927Z</time></trkpt><trkpt lat="44.0925842" lon="7.87317"><ele>910.0</ele><time>2026-04-21T08:19:58.932Z</time></trkpt><trkpt lat="44.0924167" lon="7.8731243"><ele>912.0</ele><time>2026-04-21T08:19:59.926Z</time></trkpt><trkpt lat="44.0922494" lon="7.8730796"><ele>914.0</ele><time>2026-04-21T08:20:00.926Z</time></trkpt><trkpt lat="44.0920899" lon="7.8730509"><ele>916.0</ele><time>2026-04-21T08:20:01.925Z</time></trkpt><trkpt lat="44.0919303" lon="7.8730792"><ele>916.0</ele><time>2026-04-21T08:20:02.935Z</time></trkpt><trkpt lat="44.091776" lon="7.8731573"><ele>916.0</ele><time>2026-04-21T08:20:03.92Z</time></trkpt><trkpt lat="44.0914765" lon="7.873395"><ele>915.5</ele><time>2026-04-21T08:20:05.916Z</time></trkpt><trkpt lat="44.0913264" lon="7.8734614"><ele>915.0</ele><time>2026-04-21T08:20:06.923Z</time></trkpt><trkpt lat="44.0911901" lon="7.8734752"><ele>914.5</ele><time>2026-04-21T08:20:07.927Z</time></trkpt><trkpt lat="44.0910678" lon="7.8734617"><ele>914.0</ele><time>2026-04-21T08:20:08.93Z</time></trkpt><trkpt lat="44.0909612" lon="7.8734496"><ele>914.0</ele><time>2026-04-21T08:20:09.935Z</time></trkpt><trkpt lat="44.0908653" lon="7.8734424"><ele>914.0000000000001</ele><time>2026-04-21T08:20:10.927Z</time></trkpt><trkpt lat="44.090778" lon="7.8734334"><ele>914.0000000000001</ele><time>2026-04-21T08:20:11.929Z</time></trkpt><trkpt lat="44.0906922" lon="7.8734263"><ele>914.0</ele><time>2026-04-21T08:20:12.918Z</time></trkpt><trkpt lat="44.0905916" lon="7.8734243"><ele>914.0</ele><time>2026-04-21T08:20:13.928Z</time></trkpt><trkpt lat="44.0904797" lon="7.8734219"><ele>914.5</ele><time>2026-04-21T08:20:14.923Z</time></trkpt><trkpt lat="44.0903523" lon="7.8734461"><ele>915.0</ele><time>2026-04-21T08:20:15.92Z</time></trkpt><trkpt lat="44.0902288" lon="7.8734735"><ele>915.5</ele><time>2026-04-21T08:20:16.92Z</time></trkpt><trkpt lat="44.0901004" lon="7.8734918"><ele>916.0</ele><time>2026-04-21T08:20:17.921Z</time></trkpt><trkpt lat="44.0899637" lon="7.8735085"><ele>916.3333333333333</ele><time>2026-04-21T08:20:18.918Z</time></trkpt><trkpt lat="44.0898124" lon="7.8735284"><ele>916.6666666666667</ele><time>2026-04-21T08:20:19.935Z</time></trkpt><trkpt lat="44.089654" lon="7.8735501"><ele>917.0</ele><time>2026-04-21T08:20:20.93Z</time></trkpt><trkpt lat="44.0895035" lon="7.8735745"><ele>917.0</ele><time>2026-04-21T08:20:21.93Z</time></trkpt><trkpt lat="44.0893554" lon="7.8735909"><ele>917.0</ele><time>2026-04-21T08:20:22.922Z</time></trkpt><trkpt lat="44.0892094" lon="7.8735944"><ele>917.0</ele><time>2026-04-21T08:20:23.916Z</time></trkpt><trkpt lat="44.0890716" lon="7.8735626"><ele>917.0</ele><time>2026-04-21T08:20:24.918Z</time></trkpt><trkpt lat="44.0888014" lon="7.8733991"><ele>921.3333333333334</ele><time>2026-04-21T08:20:26.922Z</time></trkpt><trkpt lat="44.0886507" lon="7.873302"><ele>925.6666666666667</ele><time>2026-04-21T08:20:27.936Z</time></trkpt><trkpt lat="44.0884894" lon="7.8732142"><ele>930.0</ele><time>2026-04-21T08:20:28.937Z</time></trkpt><trkpt lat="44.0883272" lon="7.8731304"><ele>929.6666666666667</ele><time>2026-04-21T08:20:29.922Z</time></trkpt><trkpt lat="44.0881557" lon="7.8730732"><ele>929.3333333333334</ele><time>2026-04-21T08:20:30.931Z</time></trkpt><trkpt lat="44.0879761" lon="7.8730597"><ele>929.0</ele><time>2026-04-21T08:20:31.921Z</time></trkpt><trkpt lat="44.0877862" lon="7.8730568"><ele>929.0</ele><time>2026-04-21T08:20:32.938Z</time></trkpt><trkpt lat="44.0876007" lon="7.8730466"><ele>929.0</ele><time>2026-04-21T08:20:33.931Z</time></trkpt><trkpt lat="44.0874219" lon="7.8730136"><ele>929.0</ele><time>2026-04-21T08:20:34.928Z</time></trkpt><trkpt lat="44.0872542" lon="7.872964"><ele>929.3333333333334</ele><time>2026-04-21T08:20:35.931Z</time></trkpt><trkpt lat="44.0871009" lon="7.8729021"><ele>929.6666666666667</ele><time>2026-04-21T08:20:36.926Z</time></trkpt><trkpt lat="44.0869509" lon="7.8728487"><ele>930.0</ele><time>2026-04-21T08:20:37.934Z</time></trkpt><trkpt lat="44.0867963" lon="7.8728157"><ele>930.0</ele><time>2026-04-21T08:20:38.928Z</time></trkpt><trkpt lat="44.0866397" lon="7.8727961"><ele>930.0</ele><time>2026-04-21T08:20:39.931Z</time></trkpt><trkpt lat="44.086482" lon="7.8727877"><ele>930.0</ele><time>2026-04-21T08:20:40.917Z</time></trkpt><trkpt lat="44.0863305" lon="7.8727865"><ele>930.25</ele><time>2026-04-21T08:20:41.934Z</time></trkpt><trkpt lat="44.086181" lon="7.8727933"><ele>930.5</ele><time>2026-04-21T08:20:42.935Z</time></trkpt><trkpt lat="44.0860328" lon="7.872805"><ele>930.75</ele><time>2026-04-21T08:20:43.922Z</time></trkpt><trkpt lat="44.0858833" lon="7.872815"><ele>931.0</ele><time>2026-04-21T08:20:44.921Z</time></trkpt><trkpt lat="44.0857358" lon="7.8728207"><ele>932.6666666666666</ele><time>2026-04-21T08:20:45.922Z</time></trkpt><trkpt lat="44.0854417" lon="7.8728312"><ele>934.3333333333333</ele><time>2026-04-21T08:20:47.918Z</time></trkpt><trkpt lat="44.0852926" lon="7.8728399"><ele>936.0</ele><time>2026-04-21T08:20:48.917Z</time></trkpt><trkpt lat="44.0851429" lon="7.8728497"><ele>936.0</ele><time>2026-04-21T08:20:49.917Z</time></trkpt><trkpt lat="44.084993" lon="7.8728579"><ele>936.0</ele><time>2026-04-21T08:20:50.928Z</time></trkpt><trkpt lat="44.0848437" lon="7.8728568"><ele>936.0</ele><time>2026-04-21T08:20:51.927Z</time></trkpt><trkpt lat="44.0846948" lon="7.8728451"><ele>936.0</ele><time>2026-04-21T08:20:52.924Z</time></trkpt><trkpt lat="44.0845424" lon="7.8728131"><ele>936.0</ele><time>2026-04-21T08:20:53.919Z</time></trkpt><trkpt lat="44.0843933" lon="7.8727765"><ele>936.0</ele><time>2026-04-21T08:20:54.92Z</time></trkpt><trkpt lat="44.0842432" lon="7.8727297"><ele>936.0</ele><time>2026-04-21T08:20:55.922Z</time></trkpt><trkpt lat="44.0840874" lon="7.8726851"><ele>936.0</ele><time>2026-04-21T08:20:56.926Z</time></trkpt><trkpt lat="44.0839309" lon="7.8726556"><ele>936.0</ele><time>2026-04-21T08:20:57.921Z</time></trkpt><trkpt lat="44.0837817" lon="7.8726538"><ele>936.0</ele><time>2026-04-21T08:20:58.913Z</time></trkpt><trkpt lat="44.0836388" lon="7.8726794"><ele>936.0</ele><time>2026-04-21T08:20:59.923Z</time></trkpt><trkpt lat="44.0834867" lon="7.8727284"><ele>936.0</ele><time>2026-04-21T08:21:00.932Z</time></trkpt><trkpt lat="44.0833486" lon="7.8727805"><ele>936.0</ele><time>2026-04-21T08:21:01.935Z</time></trkpt><trkpt lat="44.0832111" lon="7.8728344"><ele>936.0</ele><time>2026-04-21T08:21:02.938Z</time></trkpt><trkpt lat="44.083068" lon="7.8728671"><ele>935.6666666666667</ele><time>2026-04-21T08:21:03.929Z</time></trkpt><trkpt lat="44.0829184" lon="7.87288"><ele>935.3333333333334</ele><time>2026-04-21T08:21:04.92Z</time></trkpt><trkpt lat="44.0827648" lon="7.8728775"><ele>935.0</ele><time>2026-04-21T08:21:05.92Z</time></trkpt><trkpt lat="44.0826063" lon="7.8728446"><ele>937.5</ele><time>2026-04-21T08:21:06.925Z</time></trkpt><trkpt lat="44.0822865" lon="7.8727028"><ele>940.0</ele><time>2026-04-21T08:21:08.937Z</time></trkpt><trkpt lat="44.082118" lon="7.8726176"><ele>935.6666666666666</ele><time>2026-04-21T08:21:09.93Z</time></trkpt><trkpt lat="44.0819426" lon="7.8725334"><ele>931.3333333333333</ele><time>2026-04-21T08:21:10.93Z</time></trkpt><trkpt lat="44.081773" lon="7.8724438"><ele>927.0</ele><time>2026-04-21T08:21:11.922Z</time></trkpt><trkpt lat="44.0815936" lon="7.8723523"><ele>924.3333333333333</ele><time>2026-04-21T08:21:12.931Z</time></trkpt><trkpt lat="44.0814182" lon="7.872271"><ele>921.6666666666666</ele><time>2026-04-21T08:21:13.923Z</time></trkpt><trkpt lat="44.0812434" lon="7.8721941"><ele>919.0</ele><time>2026-04-21T08:21:14.933Z</time></trkpt><trkpt lat="44.0810693" lon="7.8721195"><ele>919.0</ele><time>2026-04-21T08:21:15.928Z</time></trkpt><trkpt lat="44.0808908" lon="7.872044"><ele>919.0</ele><time>2026-04-21T08:21:16.935Z</time></trkpt><trkpt lat="44.0807151" lon="7.8719717"><ele>919.0</ele><time>2026-04-21T08:21:17.931Z</time></trkpt><trkpt lat="44.0805445" lon="7.8718998"><ele>912.0</ele><time>2026-04-21T08:21:18.934Z</time></trkpt><trkpt lat="44.0803866" lon="7.8718302"><ele>905.0</ele><time>2026-04-21T08:21:19.936Z</time></trkpt><trkpt lat="44.080241" lon="7.8717371"><ele>898.0</ele><time>2026-04-21T08:21:20.929Z</time></trkpt><trkpt lat="44.0801282" lon="7.8716107"><ele>898.0</ele><time>2026-04-21T08:21:21.933Z</time></trkpt><trkpt lat="44.0800514" lon="7.871419"><ele>898.0</ele><time>2026-04-21T08:21:22.932Z</time></trkpt><trkpt lat="44.0799962" lon="7.8712009"><ele>898.0</ele><time>2026-04-21T08:21:23.918Z</time></trkpt><trkpt lat="44.0799562" lon="7.8709841"><ele>901.0</ele><time>2026-04-21T08:21:24.938Z</time></trkpt><trkpt lat="44.0799509" lon="7.8707338"><ele>904.0</ele><time>2026-04-21T08:21:25.923Z</time></trkpt><trkpt lat="44.0799585" lon="7.8704744"><ele>907.0</ele><time>2026-04-21T08:21:26.913Z</time></trkpt><trkpt lat="44.0799191" lon="7.8702497"><ele>881.0</ele><time>2026-04-21T08:21:27.924Z</time></trkpt><trkpt lat="44.0797403" lon="7.8698807"><ele>855.0</ele><time>2026-04-21T08:21:29.916Z</time></trkpt><trkpt lat="44.0796505" lon="7.869727"><ele>855.0</ele><time>2026-04-21T08:21:30.92Z</time></trkpt><trkpt lat="44.0795974" lon="7.869581"><ele>855.0</ele><time>2026-04-21T08:21:31.915Z</time></trkpt><trkpt lat="44.0796103" lon="7.8694275"><ele>855.0</ele><time>2026-04-21T08:21:32.935Z</time></trkpt><trkpt lat="44.0796736" lon="7.8692718"><ele>855.0</ele><time>2026-04-21T08:21:33.923Z</time></trkpt><trkpt lat="44.0797934" lon="7.8691216"><ele>868.6666666666667</ele><time>2026-04-21T08:21:34.925Z</time></trkpt><trkpt lat="44.0799394" lon="7.8689716"><ele>882.3333333333334</ele><time>2026-04-21T08:21:35.918Z</time></trkpt><trkpt lat="44.0800885" lon="7.8688436"><ele>896.0</ele><time>2026-04-21T08:21:36.916Z</time></trkpt><trkpt lat="44.0802255" lon="7.8687201"><ele>896.0</ele><time>2026-04-21T08:21:37.919Z</time></trkpt><trkpt lat="44.0803366" lon="7.8685561"><ele>896.0</ele><time>2026-04-21T08:21:38.918Z</time></trkpt><trkpt lat="44.0804079" lon="7.8683609"><ele>896.0</ele><time>2026-04-21T08:21:39.917Z</time></trkpt><trkpt lat="44.0804338" lon="7.8681307"><ele>888.3333333333334</ele><time>2026-04-21T08:21:40.918Z</time></trkpt><trkpt lat="44.0804552" lon="7.8678728"><ele>880.6666666666667</ele><time>2026-04-21T08:21:41.923Z</time></trkpt><trkpt lat="44.0805104" lon="7.8676324"><ele>873.0</ele><time>2026-04-21T08:21:42.924Z</time></trkpt><trkpt lat="44.0805964" lon="7.8674145"><ele>873.5</ele><time>2026-04-21T08:21:43.923Z</time></trkpt><trkpt lat="44.0806893" lon="7.8672163"><ele>874.0</ele><time>2026-04-21T08:21:44.925Z</time></trkpt><trkpt lat="44.0807647" lon="7.8670473"><ele>874.5</ele><time>2026-04-21T08:21:45.921Z</time></trkpt><trkpt lat="44.0808133" lon="7.8668764"><ele>875.0</ele><time>2026-04-21T08:21:46.916Z</time></trkpt><trkpt lat="44.0808428" lon="7.8666722"><ele>875.0</ele><time>2026-04-21T08:21:47.915Z</time></trkpt><trkpt lat="44.0808528" lon="7.8664349"><ele>875.0</ele><time>2026-04-21T08:21:48.915Z</time></trkpt><trkpt lat="44.0808566" lon="7.8659393"><ele>872.3333333333334</ele><time>2026-04-21T08:21:50.921Z</time></trkpt><trkpt lat="44.080859" lon="7.8657053"><ele>869.6666666666667</ele><time>2026-04-21T08:21:51.915Z</time></trkpt><trkpt lat="44.0808744" lon="7.8654903"><ele>867.0</ele><time>2026-04-21T08:21:52.912Z</time></trkpt><trkpt lat="44.0808834" lon="7.8652804"><ele>867.0</ele><time>2026-04-21T08:21:53.922Z</time></trkpt><trkpt lat="44.0808581" lon="7.8650787"><ele>867.0</ele><time>2026-04-21T08:21:54.918Z</time></trkpt><trkpt lat="44.0807721" lon="7.8649117"><ele>867.0</ele><time>2026-04-21T08:21:55.924Z</time></trkpt><trkpt lat="44.0806375" lon="7.864811"><ele>867.0</ele><time>2026-04-21T08:21:56.917Z</time></trkpt><trkpt lat="44.0804517" lon="7.8647896"><ele>861.75</ele><time>2026-04-21T08:21:57.918Z</time></trkpt><trkpt lat="44.0802897" lon="7.864767"><ele>856.5</ele><time>2026-04-21T08:21:58.923Z</time></trkpt><trkpt lat="44.0801838" lon="7.8647188"><ele>851.25</ele><time>2026-04-21T08:21:59.916Z</time></trkpt><trkpt lat="44.0801524" lon="7.8646258"><ele>846.0</ele><time>2026-04-21T08:22:00.91Z</time></trkpt><trkpt lat="44.0801646" lon="7.8644842"><ele>846.0</ele><time>2026-04-21T08:22:01.926Z</time></trkpt><trkpt lat="44.0801958" lon="7.8643186"><ele>846.0</ele><time>2026-04-21T08:22:02.918Z</time></trkpt><trkpt lat="44.0802482" lon="7.8641219"><ele>846.0</ele><time>2026-04-21T08:22:03.926Z</time></trkpt><trkpt lat="44.0803258" lon="7.8639128"><ele>846.0</ele><time>2026-04-21T08:22:04.916Z</time></trkpt><trkpt lat="44.0804401" lon="7.8636977"><ele>845.3333333333333</ele><time>2026-04-21T08:22:05.92Z</time></trkpt><trkpt lat="44.0805932" lon="7.8634619"><ele>844.6666666666666</ele><time>2026-04-21T08:22:06.918Z</time></trkpt><trkpt lat="44.0807295" lon="7.8632598"><ele>844.0</ele><time>2026-04-21T08:22:07.911Z</time></trkpt><trkpt lat="44.0808347" lon="7.8630711"><ele>846.0</ele><time>2026-04-21T08:22:08.918Z</time></trkpt><trkpt lat="44.0808959" lon="7.8628751"><ele>848.0</ele><time>2026-04-21T08:22:09.913Z</time></trkpt><trkpt lat="44.080839" lon="7.8624156"><ele>837.6666666666667</ele><time>2026-04-21T08:22:11.92Z</time></trkpt><trkpt lat="44.0807534" lon="7.8621852"><ele>827.3333333333333</ele><time>2026-04-21T08:22:12.919Z</time></trkpt><trkpt lat="44.08066" lon="7.8619453"><ele>817.0</ele><time>2026-04-21T08:22:13.919Z</time></trkpt><trkpt lat="44.0805856" lon="7.8617206"><ele>816.75</ele><time>2026-04-21T08:22:14.915Z</time></trkpt><trkpt lat="44.0805208" lon="7.8615123"><ele>816.5</ele><time>2026-04-21T08:22:15.92Z</time></trkpt><trkpt lat="44.0804644" lon="7.861323"><ele>816.25</ele><time>2026-04-21T08:22:16.911Z</time></trkpt><trkpt lat="44.0804113" lon="7.8611566"><ele>816.0</ele><time>2026-04-21T08:22:17.915Z</time></trkpt><trkpt lat="44.0803699" lon="7.8610093"><ele>815.75</ele><time>2026-04-21T08:22:18.908Z</time></trkpt><trkpt lat="44.0803392" lon="7.8608758"><ele>815.5</ele><time>2026-04-21T08:22:19.916Z</time></trkpt><trkpt lat="44.0803099" lon="7.8607333"><ele>815.25</ele><time>2026-04-21T08:22:20.914Z</time></trkpt><trkpt lat="44.0802814" lon="7.8605691"><ele>815.0</ele><time>2026-04-21T08:22:21.918Z</time></trkpt><trkpt lat="44.080255" lon="7.860381"><ele>815.0</ele><time>2026-04-21T08:22:22.923Z</time></trkpt><trkpt lat="44.080233" lon="7.8601769"><ele>815.0</ele><time>2026-04-21T08:22:23.914Z</time></trkpt><trkpt lat="44.0802158" lon="7.8599729"><ele>815.0</ele><time>2026-04-21T08:22:24.914Z</time></trkpt><trkpt lat="44.0802145" lon="7.859786"><ele>815.0</ele><time>2026-04-21T08:22:25.918Z</time></trkpt><trkpt lat="44.0802296" lon="7.8596161"><ele>815.0</ele><time>2026-04-21T08:22:26.921Z</time></trkpt><trkpt lat="44.080262" lon="7.8594727"><ele>815.0</ele><time>2026-04-21T08:22:27.924Z</time></trkpt><trkpt lat="44.0802994" lon="7.8593713"><ele>815.0</ele><time>2026-04-21T08:22:28.925Z</time></trkpt><trkpt lat="44.0803426" lon="7.8592905"><ele>815.0</ele><time>2026-04-21T08:22:30.913Z</time></trkpt><trkpt lat="44.0801942" lon="7.8593932"><ele>815.0</ele><time>2026-04-21T08:22:35.921Z</time></trkpt><trkpt lat="44.0801418" lon="7.859478"><ele>815.0</ele><time>2026-04-21T08:22:37.922Z</time></trkpt><trkpt lat="44.0801351" lon="7.8595885"><ele>815.0</ele><time>2026-04-21T08:24:45.92Z</time></trkpt><trkpt lat="44.0802186" lon="7.8596977"><ele>815.0</ele><time>2026-04-21T08:24:50.913Z</time></trkpt><trkpt lat="44.0802502" lon="7.8595062"><ele>815.0</ele><time>2026-04-21T08:24:52.916Z</time></trkpt><trkpt lat="44.0802883" lon="7.8593772"><ele>815.0</ele><time>2026-04-21T08:24:53.917Z</time></trkpt><trkpt lat="44.0803565" lon="7.8592556"><ele>812.25</ele><time>2026-04-21T08:24:54.92Z</time></trkpt><trkpt lat="44.0804496" lon="7.8591406"><ele>809.5</ele><time>2026-04-21T08:24:55.927Z</time></trkpt><trkpt lat="44.0805639" lon="7.859048"><ele>806.75</ele><time>2026-04-21T08:24:56.918Z</time></trkpt><trkpt lat="44.0806946" lon="7.8589675"><ele>804.0</ele><time>2026-04-21T08:24:57.917Z</time></trkpt><trkpt lat="44.0808177" lon="7.8588925"><ele>807.0</ele><time>2026-04-21T08:24:58.922Z</time></trkpt><trkpt lat="44.0809271" lon="7.8588157"><ele>810.0</ele><time>2026-04-21T08:24:59.917Z</time></trkpt><trkpt lat="44.08101" lon="7.8587341"><ele>813.0</ele><time>2026-04-21T08:25:00.918Z</time></trkpt><trkpt lat="44.081062" lon="7.8586452"><ele>816.0</ele><time>2026-04-21T08:25:01.914Z</time></trkpt><trkpt lat="44.0810533" lon="7.8585497"><ele>819.0</ele><time>2026-04-21T08:25:02.914Z</time></trkpt><trkpt lat="44.0809828" lon="7.8584512"><ele>819.0</ele><time>2026-04-21T08:25:03.912Z</time></trkpt><trkpt lat="44.0808553" lon="7.8583886"><ele>819.0</ele><time>2026-04-21T08:25:04.912Z</time></trkpt><trkpt lat="44.080713" lon="7.858299"><ele>819.0</ele><time>2026-04-21T08:25:05.913Z</time></trkpt><trkpt lat="44.0806062" lon="7.858155"><ele>819.0</ele><time>2026-04-21T08:25:06.915Z</time></trkpt><trkpt lat="44.0805353" lon="7.857744"><ele>808.5</ele><time>2026-04-21T08:25:08.918Z</time></trkpt><trkpt lat="44.0805638" lon="7.8575255"><ele>798.0</ele><time>2026-04-21T08:25:09.916Z</time></trkpt><trkpt lat="44.0806137" lon="7.8573446"><ele>787.5</ele><time>2026-04-21T08:25:10.921Z</time></trkpt><trkpt lat="44.0806416" lon="7.8572005"><ele>777.0</ele><time>2026-04-21T08:25:11.915Z</time></trkpt><trkpt lat="44.0806108" lon="7.8570992"><ele>777.0</ele><time>2026-04-21T08:25:12.915Z</time></trkpt><trkpt lat="44.0805098" lon="7.8570125"><ele>777.0</ele><time>2026-04-21T08:25:13.92Z</time></trkpt><trkpt lat="44.0803808" lon="7.8569208"><ele>777.0</ele><time>2026-04-21T08:25:14.919Z</time></trkpt><trkpt lat="44.0802475" lon="7.8567822"><ele>777.0</ele><time>2026-04-21T08:25:15.919Z</time></trkpt><trkpt lat="44.0801747" lon="7.8565929"><ele>780.75</ele><time>2026-04-21T08:25:16.926Z</time></trkpt><trkpt lat="44.0801463" lon="7.856395"><ele>784.5</ele><time>2026-04-21T08:25:17.918Z</time></trkpt><trkpt lat="44.0801762" lon="7.8562199"><ele>788.25</ele><time>2026-04-21T08:25:18.918Z</time></trkpt><trkpt lat="44.0802546" lon="7.8560729"><ele>792.0</ele><time>2026-04-21T08:25:19.914Z</time></trkpt><trkpt lat="44.0803845" lon="7.8559723"><ele>789.0</ele><time>2026-04-21T08:25:20.919Z</time></trkpt><trkpt lat="44.0805372" lon="7.8558664"><ele>786.0</ele><time>2026-04-21T08:25:21.928Z</time></trkpt><trkpt lat="44.0806725" lon="7.8557275"><ele>783.0</ele><time>2026-04-21T08:25:22.913Z</time></trkpt><trkpt lat="44.0807709" lon="7.8555484"><ele>789.25</ele><time>2026-04-21T08:25:23.913Z</time></trkpt><trkpt lat="44.0808342" lon="7.8553581"><ele>795.5</ele><time>2026-04-21T08:25:24.92Z</time></trkpt><trkpt lat="44.0808793" lon="7.8551926"><ele>801.75</ele><time>2026-04-21T08:25:25.921Z</time></trkpt><trkpt lat="44.080904" lon="7.8550328"><ele>808.0</ele><time>2026-04-21T08:25:26.915Z</time></trkpt><trkpt lat="44.0809023" lon="7.8549032"><ele>799.6666666666666</ele><time>2026-04-21T08:25:27.92Z</time></trkpt><trkpt lat="44.080749" lon="7.8548993"><ele>791.3333333333333</ele><time>2026-04-21T08:25:30.913Z</time></trkpt><trkpt lat="44.0806655" lon="7.8550879"><ele>783.0</ele><time>2026-04-21T08:25:31.917Z</time></trkpt><trkpt lat="44.0806383" lon="7.8552899"><ele>783.0</ele><time>2026-04-21T08:25:32.915Z</time></trkpt><trkpt lat="44.0805494" lon="7.8555331"><ele>783.0</ele><time>2026-04-21T08:25:33.918Z</time></trkpt><trkpt lat="44.0804632" lon="7.8557509"><ele>783.0</ele><time>2026-04-21T08:25:34.915Z</time></trkpt><trkpt lat="44.0803648" lon="7.8559032"><ele>785.25</ele><time>2026-04-21T08:25:35.914Z</time></trkpt><trkpt lat="44.0802364" lon="7.8560097"><ele>787.5</ele><time>2026-04-21T08:25:36.921Z</time></trkpt><trkpt lat="44.0801003" lon="7.8560699"><ele>789.75</ele><time>2026-04-21T08:25:37.917Z</time></trkpt><trkpt lat="44.0799826" lon="7.8561155"><ele>792.0</ele><time>2026-04-21T08:25:38.911Z</time></trkpt><trkpt lat="44.0798759" lon="7.8561466"><ele>785.2</ele><time>2026-04-21T08:25:39.919Z</time></trkpt><trkpt lat="44.0797837" lon="7.8561859"><ele>778.4000000000001</ele><time>2026-04-21T08:25:40.917Z</time></trkpt><trkpt lat="44.0797023" lon="7.8562508"><ele>771.5999999999999</ele><time>2026-04-21T08:25:41.919Z</time></trkpt><trkpt lat="44.0796396" lon="7.8563442"><ele>764.8</ele><time>2026-04-21T08:25:42.921Z</time></trkpt><trkpt lat="44.0795894" lon="7.8564563"><ele>758.0</ele><time>2026-04-21T08:25:43.913Z</time></trkpt><trkpt lat="44.0795664" lon="7.8565917"><ele>758.0</ele><time>2026-04-21T08:25:44.915Z</time></trkpt><trkpt lat="44.0795773" lon="7.8567431"><ele>758.0</ele><time>2026-04-21T08:25:45.917Z</time></trkpt><trkpt lat="44.079614" lon="7.8569021"><ele>758.0</ele><time>2026-04-21T08:25:46.911Z</time></trkpt><trkpt lat="44.0796654" lon="7.8570374"><ele>758.0</ele><time>2026-04-21T08:25:47.923Z</time></trkpt><trkpt lat="44.0797305" lon="7.8571512"><ele>758.0</ele><time>2026-04-21T08:25:48.917Z</time></trkpt><trkpt lat="44.0798986" lon="7.8573267"><ele>762.75</ele><time>2026-04-21T08:25:50.919Z</time></trkpt><trkpt lat="44.0799925" lon="7.8574261"><ele>767.5</ele><time>2026-04-21T08:25:51.917Z</time></trkpt><trkpt lat="44.080071" lon="7.8575508"><ele>772.25</ele><time>2026-04-21T08:25:52.922Z</time></trkpt><trkpt lat="44.0801077" lon="7.8576944"><ele>777.0</ele><time>2026-04-21T08:25:53.914Z</time></trkpt><trkpt lat="44.0800975" lon="7.8578404"><ele>777.2</ele><time>2026-04-21T08:25:54.915Z</time></trkpt><trkpt lat="44.0800633" lon="7.8579856"><ele>777.4000000000001</ele><time>2026-04-21T08:25:55.919Z</time></trkpt><trkpt lat="44.0800263" lon="7.8581283"><ele>777.5999999999999</ele><time>2026-04-21T08:25:56.919Z</time></trkpt><trkpt lat="44.0799821" lon="7.8582652"><ele>777.8</ele><time>2026-04-21T08:25:57.919Z</time></trkpt><trkpt lat="44.0799241" lon="7.8583817"><ele>778.0</ele><time>2026-04-21T08:25:58.914Z</time></trkpt><trkpt lat="44.0798437" lon="7.8584543"><ele>775.4</ele><time>2026-04-21T08:25:59.923Z</time></trkpt><trkpt lat="44.0797534" lon="7.8584807"><ele>772.8</ele><time>2026-04-21T08:26:00.916Z</time></trkpt><trkpt lat="44.0796555" lon="7.8584787"><ele>770.2</ele><time>2026-04-21T08:26:01.918Z</time></trkpt><trkpt lat="44.0795573" lon="7.858485"><ele>767.6</ele><time>2026-04-21T08:26:02.919Z</time></trkpt><trkpt lat="44.0794566" lon="7.8585349"><ele>765.0</ele><time>2026-04-21T08:26:03.909Z</time></trkpt><trkpt lat="44.0793574" lon="7.8586031"><ele>765.0</ele><time>2026-04-21T08:26:04.916Z</time></trkpt><trkpt lat="44.0792685" lon="7.8586874"><ele>765.0</ele><time>2026-04-21T08:26:05.921Z</time></trkpt><trkpt lat="44.0791906" lon="7.8587882"><ele>765.0</ele><time>2026-04-21T08:26:06.922Z</time></trkpt><trkpt lat="44.079127" lon="7.8589094"><ele>765.0</ele><time>2026-04-21T08:26:07.922Z</time></trkpt><trkpt lat="44.0790815" lon="7.8590572"><ele>765.0</ele><time>2026-04-21T08:26:08.921Z</time></trkpt><trkpt lat="44.0790593" lon="7.8592239"><ele>758.25</ele><time>2026-04-21T08:26:09.923Z</time></trkpt><trkpt lat="44.0790575" lon="7.8595494"><ele>751.5</ele><time>2026-04-21T08:26:11.918Z</time></trkpt><trkpt lat="44.0790526" lon="7.8596973"><ele>744.75</ele><time>2026-04-21T08:26:12.921Z</time></trkpt><trkpt lat="44.0790366" lon="7.8598389"><ele>738.0</ele><time>2026-04-21T08:26:13.924Z</time></trkpt><trkpt lat="44.0790136" lon="7.859989"><ele>740.2</ele><time>2026-04-21T08:26:14.917Z</time></trkpt><trkpt lat="44.0789764" lon="7.8601352"><ele>742.4</ele><time>2026-04-21T08:26:15.913Z</time></trkpt><trkpt lat="44.0789165" lon="7.8602632"><ele>744.6</ele><time>2026-04-21T08:26:16.929Z</time></trkpt><trkpt lat="44.0788454" lon="7.8603746"><ele>746.8000000000001</ele><time>2026-04-21T08:26:17.926Z</time></trkpt><trkpt lat="44.0787756" lon="7.8604759"><ele>749.0</ele><time>2026-04-21T08:26:18.922Z</time></trkpt><trkpt lat="44.0787046" lon="7.8605775"><ele>749.0</ele><time>2026-04-21T08:26:19.921Z</time></trkpt><trkpt lat="44.0786362" lon="7.8606827"><ele>749.0</ele><time>2026-04-21T08:26:20.929Z</time></trkpt><trkpt lat="44.0785622" lon="7.8607921"><ele>749.0</ele><time>2026-04-21T08:26:21.923Z</time></trkpt><trkpt lat="44.0784835" lon="7.860894"><ele>749.0</ele><time>2026-04-21T08:26:22.926Z</time></trkpt><trkpt lat="44.0783993" lon="7.8609782"><ele>749.0</ele><time>2026-04-21T08:26:23.929Z</time></trkpt><trkpt lat="44.0783161" lon="7.8610472"><ele>746.2</ele><time>2026-04-21T08:26:24.924Z</time></trkpt><trkpt lat="44.0782379" lon="7.8611257"><ele>743.4000000000001</ele><time>2026-04-21T08:26:25.925Z</time></trkpt><trkpt lat="44.0781711" lon="7.8612147"><ele>740.6</ele><time>2026-04-21T08:26:26.916Z</time></trkpt><trkpt lat="44.0781165" lon="7.86132"><ele>737.8</ele><time>2026-04-21T08:26:27.916Z</time></trkpt><trkpt lat="44.0780723" lon="7.8614322"><ele>735.0</ele><time>2026-04-21T08:26:28.92Z</time></trkpt><trkpt lat="44.0780291" lon="7.8615433"><ele>735.0</ele><time>2026-04-21T08:26:29.921Z</time></trkpt><trkpt lat="44.0779859" lon="7.8616544"><ele>735.0</ele><time>2026-04-21T08:26:30.914Z</time></trkpt><trkpt lat="44.0778983" lon="7.8618603"><ele>735.0</ele><time>2026-04-21T08:26:32.914Z</time></trkpt><trkpt lat="44.0778537" lon="7.8619288"><ele>735.0</ele><time>2026-04-21T08:26:33.914Z</time></trkpt><trkpt lat="44.077742" lon="7.8619303"><ele>735.0</ele><time>2026-04-21T08:26:35.921Z</time></trkpt><trkpt lat="44.0776806" lon="7.8618811"><ele>735.0</ele><time>2026-04-21T08:26:36.922Z</time></trkpt><trkpt lat="44.0776114" lon="7.8618111"><ele>735.0</ele><time>2026-04-21T08:26:37.926Z</time></trkpt><trkpt lat="44.0775289" lon="7.8617414"><ele>735.0</ele><time>2026-04-21T08:26:38.925Z</time></trkpt><trkpt lat="44.0774412" lon="7.8616886"><ele>735.0</ele><time>2026-04-21T08:26:39.918Z</time></trkpt><trkpt lat="44.0773439" lon="7.8616544"><ele>735.0</ele><time>2026-04-21T08:26:40.914Z</time></trkpt><trkpt lat="44.077242" lon="7.86164"><ele>733.8</ele><time>2026-04-21T08:26:41.923Z</time></trkpt><trkpt lat="44.0771384" lon="7.8616505"><ele>732.6</ele><time>2026-04-21T08:26:42.924Z</time></trkpt><trkpt lat="44.0770382" lon="7.8616842"><ele>731.4000000000001</ele><time>2026-04-21T08:26:43.921Z</time></trkpt><trkpt lat="44.0769378" lon="7.8617381"><ele>730.2</ele><time>2026-04-21T08:26:44.919Z</time></trkpt><trkpt lat="44.0768389" lon="7.8618187"><ele>729.0</ele><time>2026-04-21T08:26:45.922Z</time></trkpt><trkpt lat="44.0767515" lon="7.8619216"><ele>729.0</ele><time>2026-04-21T08:26:46.92Z</time></trkpt><trkpt lat="44.0766812" lon="7.8620331"><ele>729.0</ele><time>2026-04-21T08:26:47.922Z</time></trkpt><trkpt lat="44.0766201" lon="7.8621411"><ele>729.0</ele><time>2026-04-21T08:26:48.923Z</time></trkpt><trkpt lat="44.0765611" lon="7.8622363"><ele>729.0</ele><time>2026-04-21T08:26:49.922Z</time></trkpt><trkpt lat="44.0765078" lon="7.862323"><ele>729.0</ele><time>2026-04-21T08:26:50.915Z</time></trkpt><trkpt lat="44.0764669" lon="7.8624173"><ele>726.8000000000001</ele><time>2026-04-21T08:26:51.914Z</time></trkpt><trkpt lat="44.0764434" lon="7.8626605"><ele>724.6</ele><time>2026-04-21T08:26:53.923Z</time></trkpt><trkpt lat="44.0764303" lon="7.8627782"><ele>722.4</ele><time>2026-04-21T08:26:54.919Z</time></trkpt><trkpt lat="44.076407" lon="7.8628879"><ele>720.2</ele><time>2026-04-21T08:26:55.925Z</time></trkpt><trkpt lat="44.0763633" lon="7.8629992"><ele>718.0</ele><time>2026-04-21T08:26:56.922Z</time></trkpt><trkpt lat="44.0762987" lon="7.8630889"><ele>718.0</ele><time>2026-04-21T08:26:57.918Z</time></trkpt><trkpt lat="44.076228" lon="7.8631641"><ele>718.0</ele><time>2026-04-21T08:26:58.918Z</time></trkpt><trkpt lat="44.0761581" lon="7.8632413"><ele>718.0</ele><time>2026-04-21T08:26:59.922Z</time></trkpt><trkpt lat="44.076086" lon="7.8633169"><ele>718.0</ele><time>2026-04-21T08:27:00.92Z</time></trkpt><trkpt lat="44.0760091" lon="7.8633925"><ele>718.0</ele><time>2026-04-21T08:27:01.921Z</time></trkpt><trkpt lat="44.075932" lon="7.8634788"><ele>718.0</ele><time>2026-04-21T08:27:02.919Z</time></trkpt><trkpt lat="44.0758662" lon="7.8635854"><ele>718.0</ele><time>2026-04-21T08:27:03.925Z</time></trkpt><trkpt lat="44.0758258" lon="7.8637106"><ele>718.0</ele><time>2026-04-21T08:27:04.926Z</time></trkpt><trkpt lat="44.0757948" lon="7.8638406"><ele>718.0</ele><time>2026-04-21T08:27:05.922Z</time></trkpt><trkpt lat="44.0757694" lon="7.8639697"><ele>718.0</ele><time>2026-04-21T08:27:06.919Z</time></trkpt><trkpt lat="44.075747" lon="7.8641004"><ele>716.0</ele><time>2026-04-21T08:27:07.916Z</time></trkpt><trkpt lat="44.0757289" lon="7.8642276"><ele>714.0</ele><time>2026-04-21T08:27:08.916Z</time></trkpt><trkpt lat="44.0757239" lon="7.8643566"><ele>712.0</ele><time>2026-04-21T08:27:09.922Z</time></trkpt><trkpt lat="44.0757345" lon="7.8644847"><ele>710.0</ele><time>2026-04-21T08:27:10.917Z</time></trkpt><trkpt lat="44.0757756" lon="7.8646228"><ele>708.0</ele><time>2026-04-21T08:27:11.917Z</time></trkpt><trkpt lat="44.0758443" lon="7.8647482"><ele>708.0</ele><time>2026-04-21T08:27:12.922Z</time></trkpt><trkpt lat="44.0759969" lon="7.8650694"><ele>708.0</ele><time>2026-04-21T08:27:14.921Z</time></trkpt><trkpt lat="44.0760345" lon="7.8652624"><ele>708.0</ele><time>2026-04-21T08:27:15.915Z</time></trkpt><trkpt lat="44.076029" lon="7.8654898"><ele>706.0</ele><time>2026-04-21T08:27:16.918Z</time></trkpt><trkpt lat="44.0760117" lon="7.8657464"><ele>704.0</ele><time>2026-04-21T08:27:17.919Z</time></trkpt><trkpt lat="44.0759897" lon="7.8659963"><ele>702.0</ele><time>2026-04-21T08:27:18.916Z</time></trkpt><trkpt lat="44.0759794" lon="7.8662118"><ele>700.6</ele><time>2026-04-21T08:27:19.917Z</time></trkpt><trkpt lat="44.0759874" lon="7.8663908"><ele>699.2</ele><time>2026-04-21T08:27:20.918Z</time></trkpt><trkpt lat="44.0760093" lon="7.8665283"><ele>697.8</ele><time>2026-04-21T08:27:21.917Z</time></trkpt><trkpt lat="44.0760331" lon="7.8666357"><ele>696.4</ele><time>2026-04-21T08:27:22.925Z</time></trkpt><trkpt lat="44.0760539" lon="7.8667341"><ele>695.0</ele><time>2026-04-21T08:27:23.916Z</time></trkpt><trkpt lat="44.0760714" lon="7.8668267"><ele>695.0</ele><time>2026-04-21T08:27:24.922Z</time></trkpt><trkpt lat="44.0760893" lon="7.8669116"><ele>695.0</ele><time>2026-04-21T08:27:25.919Z</time></trkpt><trkpt lat="44.0761192" lon="7.8670107"><ele>695.0</ele><time>2026-04-21T08:27:27.92Z</time></trkpt><trkpt lat="44.0761579" lon="7.8671089"><ele>695.0</ele><time>2026-04-21T08:29:55.92Z</time></trkpt><trkpt lat="44.0762603" lon="7.8672902"><ele>695.0</ele><time>2026-04-21T08:29:57.931Z</time></trkpt><trkpt lat="44.0763269" lon="7.8674493"><ele>695.0</ele><time>2026-04-21T08:29:58.917Z</time></trkpt><trkpt lat="44.0763715" lon="7.8675993"><ele>695.0</ele><time>2026-04-21T08:29:59.911Z</time></trkpt><trkpt lat="44.0763725" lon="7.8677347"><ele>695.0</ele><time>2026-04-21T08:30:00.912Z</time></trkpt><trkpt lat="44.0763327" lon="7.8678659"><ele>695.0</ele><time>2026-04-21T08:30:01.909Z</time></trkpt><trkpt lat="44.0762519" lon="7.8679421"><ele>695.0</ele><time>2026-04-21T08:30:02.907Z</time></trkpt><trkpt lat="44.0761289" lon="7.8679474"><ele>706.6666666666666</ele><time>2026-04-21T08:30:03.915Z</time></trkpt><trkpt lat="44.0759825" lon="7.8679095"><ele>718.3333333333334</ele><time>2026-04-21T08:30:04.916Z</time></trkpt><trkpt lat="44.0758233" lon="7.8678277"><ele>730.0</ele><time>2026-04-21T08:30:05.916Z</time></trkpt><trkpt lat="44.075648" lon="7.8677336"><ele>731.6666666666667</ele><time>2026-04-21T08:30:06.909Z</time></trkpt><trkpt lat="44.0754652" lon="7.867654"><ele>733.3333333333334</ele><time>2026-04-21T08:30:07.912Z</time></trkpt><trkpt lat="44.0752611" lon="7.8675982"><ele>735.0</ele><time>2026-04-21T08:30:08.915Z</time></trkpt><trkpt lat="44.07505" lon="7.8675585"><ele>721.0</ele><time>2026-04-21T08:30:09.91Z</time></trkpt><trkpt lat="44.0748516" lon="7.8675168"><ele>707.0</ele><time>2026-04-21T08:30:10.914Z</time></trkpt><trkpt lat="44.0746767" lon="7.8674625"><ele>693.0</ele><time>2026-04-21T08:30:11.911Z</time></trkpt><trkpt lat="44.074541" lon="7.8673855"><ele>693.0</ele><time>2026-04-21T08:30:12.918Z</time></trkpt><trkpt lat="44.0744383" lon="7.867319"><ele>693.0</ele><time>2026-04-21T08:30:13.91Z</time></trkpt><trkpt lat="44.0743327" lon="7.8672647"><ele>693.0</ele><time>2026-04-21T08:30:14.916Z</time></trkpt><trkpt lat="44.0742107" lon="7.8672333"><ele>693.0</ele><time>2026-04-21T08:30:15.913Z</time></trkpt><trkpt lat="44.0740686" lon="7.8672257"><ele>689.5</ele><time>2026-04-21T08:30:16.916Z</time></trkpt><trkpt lat="44.0737349" lon="7.8672939"><ele>686.0</ele><time>2026-04-21T08:30:18.919Z</time></trkpt><trkpt lat="44.0735642" lon="7.8673121"><ele>686.0</ele><time>2026-04-21T08:30:19.924Z</time></trkpt><trkpt lat="44.0734" lon="7.8672872"><ele>686.0</ele><time>2026-04-21T08:30:20.918Z</time></trkpt><trkpt lat="44.0732448" lon="7.8672306"><ele>686.0</ele><time>2026-04-21T08:30:21.913Z</time></trkpt><trkpt lat="44.0730888" lon="7.8671809"><ele>686.75</ele><time>2026-04-21T08:30:22.916Z</time></trkpt><trkpt lat="44.0729392" lon="7.8671905"><ele>687.5</ele><time>2026-04-21T08:30:23.921Z</time></trkpt><trkpt lat="44.0727915" lon="7.8672352"><ele>688.25</ele><time>2026-04-21T08:30:24.917Z</time></trkpt><trkpt lat="44.0726482" lon="7.8672619"><ele>689.0</ele><time>2026-04-21T08:30:25.916Z</time></trkpt><trkpt lat="44.072519" lon="7.8672017"><ele>689.3333333333333</ele><time>2026-04-21T08:30:26.92Z</time></trkpt><trkpt lat="44.0723858" lon="7.8671023"><ele>689.6666666666666</ele><time>2026-04-21T08:30:27.923Z</time></trkpt><trkpt lat="44.0722381" lon="7.8670274"><ele>690.0</ele><time>2026-04-21T08:30:28.92Z</time></trkpt><trkpt lat="44.0720773" lon="7.8670146"><ele>690.0</ele><time>2026-04-21T08:30:29.913Z</time></trkpt><trkpt lat="44.0719173" lon="7.8670286"><ele>690.0</ele><time>2026-04-21T08:30:30.91Z</time></trkpt><trkpt lat="44.0717621" lon="7.867006"><ele>690.0</ele><time>2026-04-21T08:30:31.909Z</time></trkpt><trkpt lat="44.0716197" lon="7.8669303"><ele>685.5</ele><time>2026-04-21T08:30:32.913Z</time></trkpt><trkpt lat="44.0714934" lon="7.8668213"><ele>681.0</ele><time>2026-04-21T08:30:33.91Z</time></trkpt><trkpt lat="44.071368" lon="7.8667242"><ele>676.5</ele><time>2026-04-21T08:30:34.91Z</time></trkpt><trkpt lat="44.0712243" lon="7.8666783"><ele>672.0</ele><time>2026-04-21T08:30:35.916Z</time></trkpt><trkpt lat="44.071077" lon="7.8666573"><ele>664.6666666666666</ele><time>2026-04-21T08:30:36.917Z</time></trkpt><trkpt lat="44.0709484" lon="7.8665999"><ele>657.3333333333333</ele><time>2026-04-21T08:30:37.908Z</time></trkpt><trkpt lat="44.0707464" lon="7.8663722"><ele>650.0</ele><time>2026-04-21T08:30:39.924Z</time></trkpt><trkpt lat="44.0706495" lon="7.8662812"><ele>643.25</ele><time>2026-04-21T08:30:40.922Z</time></trkpt><trkpt lat="44.0705354" lon="7.8662552"><ele>636.5</ele><time>2026-04-21T08:30:41.922Z</time></trkpt><trkpt lat="44.070423" lon="7.8663221"><ele>629.75</ele><time>2026-04-21T08:30:42.919Z</time></trkpt><trkpt lat="44.0703615" lon="7.8665642"><ele>623.0</ele><time>2026-04-21T08:30:43.921Z</time></trkpt><trkpt lat="44.0703102" lon="7.8667759"><ele>626.25</ele><time>2026-04-21T08:30:44.92Z</time></trkpt><trkpt lat="44.0702542" lon="7.8669662"><ele>629.5</ele><time>2026-04-21T08:30:45.923Z</time></trkpt><trkpt lat="44.0701944" lon="7.8671382"><ele>632.75</ele><time>2026-04-21T08:30:46.92Z</time></trkpt><trkpt lat="44.0701274" lon="7.8672904"><ele>636.0</ele><time>2026-04-21T08:30:47.923Z</time></trkpt><trkpt lat="44.0700521" lon="7.867432"><ele>636.0</ele><time>2026-04-21T08:30:48.925Z</time></trkpt><trkpt lat="44.0699713" lon="7.8675682"><ele>636.0</ele><time>2026-04-21T08:30:49.923Z</time></trkpt><trkpt lat="44.0698873" lon="7.867695"><ele>636.0</ele><time>2026-04-21T08:30:50.926Z</time></trkpt><trkpt lat="44.0697957" lon="7.8678073"><ele>636.0</ele><time>2026-04-21T08:30:51.919Z</time></trkpt><trkpt lat="44.0696978" lon="7.8678989"><ele>631.25</ele><time>2026-04-21T08:30:52.916Z</time></trkpt><trkpt lat="44.0695963" lon="7.8679815"><ele>626.5</ele><time>2026-04-21T08:30:53.918Z</time></trkpt><trkpt lat="44.0695096" lon="7.8680889"><ele>621.75</ele><time>2026-04-21T08:30:54.92Z</time></trkpt><trkpt lat="44.0694528" lon="7.8682288"><ele>617.0</ele><time>2026-04-21T08:30:55.922Z</time></trkpt><trkpt lat="44.069428" lon="7.8683938"><ele>615.0</ele><time>2026-04-21T08:30:56.923Z</time></trkpt><trkpt lat="44.0694316" lon="7.8685655"><ele>613.0</ele><time>2026-04-21T08:30:57.917Z</time></trkpt><trkpt lat="44.0694783" lon="7.8687323"><ele>611.0</ele><time>2026-04-21T08:30:58.923Z</time></trkpt><trkpt lat="44.0696497" lon="7.8689868"><ele>611.0</ele><time>2026-04-21T08:31:00.92Z</time></trkpt><trkpt lat="44.0697502" lon="7.8690949"><ele>611.0</ele><time>2026-04-21T08:31:01.914Z</time></trkpt><trkpt lat="44.0698371" lon="7.8692162"><ele>611.0</ele><time>2026-04-21T08:31:02.914Z</time></trkpt><trkpt lat="44.0698924" lon="7.8693637"><ele>611.0</ele><time>2026-04-21T08:31:03.916Z</time></trkpt><trkpt lat="44.0699242" lon="7.8695401"><ele>613.5</ele><time>2026-04-21T08:31:04.917Z</time></trkpt><trkpt lat="44.0699441" lon="7.8697191"><ele>616.0</ele><time>2026-04-21T08:31:05.92Z</time></trkpt><trkpt lat="44.069949" lon="7.8698946"><ele>618.5</ele><time>2026-04-21T08:31:06.916Z</time></trkpt><trkpt lat="44.0699535" lon="7.8700588"><ele>621.0</ele><time>2026-04-21T08:31:07.914Z</time></trkpt><trkpt lat="44.0699625" lon="7.8702075"><ele>621.0</ele><time>2026-04-21T08:31:08.918Z</time></trkpt><trkpt lat="44.0699766" lon="7.8703328"><ele>621.0</ele><time>2026-04-21T08:31:09.922Z</time></trkpt><trkpt lat="44.0699817" lon="7.8704209"><ele>621.0</ele><time>2026-04-21T08:31:10.921Z</time></trkpt><trkpt lat="44.0699903" lon="7.8705242"><ele>621.0</ele><time>2026-04-21T08:31:12.92Z</time></trkpt><trkpt lat="44.0699988" lon="7.8706778"><ele>621.0</ele><time>2026-04-21T08:31:15.919Z</time></trkpt><trkpt lat="44.0700076" lon="7.8707741"><ele>621.0</ele><time>2026-04-21T08:31:16.918Z</time></trkpt><trkpt lat="44.0700196" lon="7.8708943"><ele>619.0</ele><time>2026-04-21T08:31:17.918Z</time></trkpt><trkpt lat="44.0700315" lon="7.8710404"><ele>617.0</ele><time>2026-04-21T08:31:18.923Z</time></trkpt><trkpt lat="44.0700418" lon="7.8711996"><ele>615.0</ele><time>2026-04-21T08:31:19.922Z</time></trkpt><trkpt lat="44.070055" lon="7.8715321"><ele>615.0</ele><time>2026-04-21T08:31:21.921Z</time></trkpt><trkpt lat="44.0700616" lon="7.8717048"><ele>615.0</ele><time>2026-04-21T08:31:22.916Z</time></trkpt><trkpt lat="44.070075" lon="7.8718755"><ele>615.0</ele><time>2026-04-21T08:31:23.924Z</time></trkpt><trkpt lat="44.0700994" lon="7.8720365"><ele>615.0</ele><time>2026-04-21T08:31:24.919Z</time></trkpt><trkpt lat="44.0701471" lon="7.8721788"><ele>614.0</ele><time>2026-04-21T08:31:25.923Z</time></trkpt><trkpt lat="44.0702148" lon="7.8723242"><ele>613.0</ele><time>2026-04-21T08:31:26.919Z</time></trkpt><trkpt lat="44.0702797" lon="7.8724729"><ele>612.0</ele><time>2026-04-21T08:31:27.922Z</time></trkpt><trkpt lat="44.0703259" lon="7.8726294"><ele>611.0</ele><time>2026-04-21T08:31:28.92Z</time></trkpt><trkpt lat="44.0703401" lon="7.8727847"><ele>611.0</ele><time>2026-04-21T08:31:29.916Z</time></trkpt><trkpt lat="44.0703249" lon="7.8729199"><ele>611.0</ele><time>2026-04-21T08:31:30.909Z</time></trkpt><trkpt lat="44.0702828" lon="7.8730126"><ele>611.0</ele><time>2026-04-21T08:31:31.915Z</time></trkpt><trkpt lat="44.070197" lon="7.8730214"><ele>611.0</ele><time>2026-04-21T08:31:32.913Z</time></trkpt><trkpt lat="44.0700699" lon="7.8729822"><ele>611.0</ele><time>2026-04-21T08:31:33.915Z</time></trkpt><trkpt lat="44.0699171" lon="7.8729231"><ele>611.0</ele><time>2026-04-21T08:31:34.91Z</time></trkpt><trkpt lat="44.0697503" lon="7.8728639"><ele>611.0</ele><time>2026-04-21T08:31:35.916Z</time></trkpt><trkpt lat="44.069571" lon="7.872812"><ele>611.0</ele><time>2026-04-21T08:31:36.919Z</time></trkpt><trkpt lat="44.0693942" lon="7.8727587"><ele>611.0</ele><time>2026-04-21T08:31:37.912Z</time></trkpt><trkpt lat="44.0692342" lon="7.8727264"><ele>611.0</ele><time>2026-04-21T08:31:38.918Z</time></trkpt><trkpt lat="44.0690983" lon="7.8727542"><ele>611.0</ele><time>2026-04-21T08:31:39.917Z</time></trkpt><trkpt lat="44.0689898" lon="7.8728683"><ele>611.0</ele><time>2026-04-21T08:31:40.916Z</time></trkpt><trkpt lat="44.0687991" lon="7.873166"><ele>610.5</ele><time>2026-04-21T08:31:42.915Z</time></trkpt><trkpt lat="44.0686989" lon="7.8732538"><ele>610.0</ele><time>2026-04-21T08:31:43.916Z</time></trkpt><trkpt lat="44.0685913" lon="7.8732741"><ele>609.5</ele><time>2026-04-21T08:31:44.919Z</time></trkpt><trkpt lat="44.0684162" lon="7.8731718"><ele>609.0</ele><time>2026-04-21T08:31:45.922Z</time></trkpt><trkpt lat="44.0682349" lon="7.8730753"><ele>605.0</ele><time>2026-04-21T08:31:46.92Z</time></trkpt><trkpt lat="44.0680634" lon="7.8730182"><ele>601.0</ele><time>2026-04-21T08:31:47.923Z</time></trkpt><trkpt lat="44.0678957" lon="7.873008"><ele>597.0</ele><time>2026-04-21T08:31:48.918Z</time></trkpt><trkpt lat="44.0677379" lon="7.8730705"><ele>597.0</ele><time>2026-04-21T08:31:49.923Z</time></trkpt><trkpt lat="44.067591" lon="7.8731753"><ele>597.0</ele><time>2026-04-21T08:31:50.92Z</time></trkpt><trkpt lat="44.0674488" lon="7.8732455"><ele>597.0</ele><time>2026-04-21T08:31:51.917Z</time></trkpt><trkpt lat="44.0672921" lon="7.8732288"><ele>591.75</ele><time>2026-04-21T08:31:52.922Z</time></trkpt><trkpt lat="44.0671421" lon="7.8731696"><ele>586.5</ele><time>2026-04-21T08:31:53.919Z</time></trkpt><trkpt lat="44.066998" lon="7.8731182"><ele>581.25</ele><time>2026-04-21T08:31:54.92Z</time></trkpt><trkpt lat="44.066859" lon="7.873125"><ele>576.0</ele><time>2026-04-21T08:31:55.925Z</time></trkpt><trkpt lat="44.0667365" lon="7.873211"><ele>579.0</ele><time>2026-04-21T08:31:56.922Z</time></trkpt><trkpt lat="44.0666081" lon="7.8733682"><ele>582.0</ele><time>2026-04-21T08:31:57.916Z</time></trkpt><trkpt lat="44.0664709" lon="7.8735331"><ele>585.0</ele><time>2026-04-21T08:31:58.919Z</time></trkpt><trkpt lat="44.066326" lon="7.8736394"><ele>585.0</ele><time>2026-04-21T08:31:59.923Z</time></trkpt><trkpt lat="44.0661678" lon="7.8737071"><ele>585.0</ele><time>2026-04-21T08:32:00.916Z</time></trkpt><trkpt lat="44.066004" lon="7.873766"><ele>585.0</ele><time>2026-04-21T08:32:01.917Z</time></trkpt><trkpt lat="44.0656728" lon="7.8738781"><ele>573.75</ele><time>2026-04-21T08:32:03.915Z</time></trkpt><trkpt lat="44.0655177" lon="7.8739436"><ele>562.5</ele><time>2026-04-21T08:32:04.914Z</time></trkpt><trkpt lat="44.0653848" lon="7.8740342"><ele>551.25</ele><time>2026-04-21T08:32:05.915Z</time></trkpt><trkpt lat="44.0652909" lon="7.8741762"><ele>540.0</ele><time>2026-04-21T08:32:06.919Z</time></trkpt><trkpt lat="44.0652569" lon="7.8743754"><ele>540.0</ele><time>2026-04-21T08:32:07.917Z</time></trkpt><trkpt lat="44.0652581" lon="7.8745875"><ele>540.0</ele><time>2026-04-21T08:32:08.921Z</time></trkpt><trkpt lat="44.0652896" lon="7.8747903"><ele>540.0</ele><time>2026-04-21T08:32:09.916Z</time></trkpt><trkpt lat="44.0653367" lon="7.8749764"><ele>540.0</ele><time>2026-04-21T08:32:10.924Z</time></trkpt><trkpt lat="44.0654037" lon="7.8751587"><ele>541.25</ele><time>2026-04-21T08:32:11.922Z</time></trkpt><trkpt lat="44.0654681" lon="7.8753276"><ele>542.5</ele><time>2026-04-21T08:32:12.926Z</time></trkpt><trkpt lat="44.0655057" lon="7.8755014"><ele>543.75</ele><time>2026-04-21T08:32:13.923Z</time></trkpt><trkpt lat="44.0655106" lon="7.8756713"><ele>545.0</ele><time>2026-04-21T08:32:14.923Z</time></trkpt><trkpt lat="44.0654599" lon="7.8758256"><ele>550.3333333333333</ele><time>2026-04-21T08:32:15.922Z</time></trkpt><trkpt lat="44.0653483" lon="7.8759539"><ele>555.6666666666666</ele><time>2026-04-21T08:32:16.926Z</time></trkpt><trkpt lat="44.0652095" lon="7.8760705"><ele>561.0</ele><time>2026-04-21T08:32:17.921Z</time></trkpt><trkpt lat="44.0650674" lon="7.8761899"><ele>552.6666666666666</ele><time>2026-04-21T08:32:18.922Z</time></trkpt><trkpt lat="44.0649333" lon="7.8763119"><ele>544.3333333333333</ele><time>2026-04-21T08:32:19.915Z</time></trkpt><trkpt lat="44.0647981" lon="7.8764238"><ele>536.0</ele><time>2026-04-21T08:32:20.917Z</time></trkpt><trkpt lat="44.064668" lon="7.8765372"><ele>536.0</ele><time>2026-04-21T08:32:21.92Z</time></trkpt><trkpt lat="44.0645377" lon="7.8766637"><ele>536.0</ele><time>2026-04-21T08:32:22.919Z</time></trkpt><trkpt lat="44.0642922" lon="7.8769135"><ele>537.0</ele><time>2026-04-21T08:32:24.921Z</time></trkpt><trkpt lat="44.0641662" lon="7.8770316"><ele>538.0</ele><time>2026-04-21T08:32:25.921Z</time></trkpt><trkpt lat="44.0640321" lon="7.87714"><ele>539.0</ele><time>2026-04-21T08:32:26.922Z</time></trkpt><trkpt lat="44.0638947" lon="7.8772451"><ele>539.0</ele><time>2026-04-21T08:32:27.928Z</time></trkpt><trkpt lat="44.0637635" lon="7.8773543"><ele>539.0</ele><time>2026-04-21T08:32:28.916Z</time></trkpt><trkpt lat="44.0636387" lon="7.8774627"><ele>539.0</ele><time>2026-04-21T08:32:29.92Z</time></trkpt><trkpt lat="44.0635167" lon="7.8775679"><ele>539.0</ele><time>2026-04-21T08:32:30.918Z</time></trkpt><trkpt lat="44.0633908" lon="7.877648"><ele>535.75</ele><time>2026-04-21T08:32:31.914Z</time></trkpt><trkpt lat="44.0632604" lon="7.8776795"><ele>532.5</ele><time>2026-04-21T08:32:32.913Z</time></trkpt><trkpt lat="44.0631275" lon="7.8776656"><ele>529.25</ele><time>2026-04-21T08:32:33.918Z</time></trkpt><trkpt lat="44.0629888" lon="7.8776253"><ele>526.0</ele><time>2026-04-21T08:32:34.915Z</time></trkpt><trkpt lat="44.0628416" lon="7.8775855"><ele>526.0</ele><time>2026-04-21T08:32:35.914Z</time></trkpt><trkpt lat="44.0626892" lon="7.8775872"><ele>526.0</ele><time>2026-04-21T08:32:36.915Z</time></trkpt><trkpt lat="44.0625349" lon="7.877638"><ele>526.0</ele><time>2026-04-21T08:32:37.911Z</time></trkpt><trkpt lat="44.0623797" lon="7.8777101"><ele>535.0</ele><time>2026-04-21T08:32:38.914Z</time></trkpt><trkpt lat="44.0622267" lon="7.8777774"><ele>544.0</ele><time>2026-04-21T08:32:39.919Z</time></trkpt><trkpt lat="44.0620717" lon="7.8778307"><ele>553.0</ele><time>2026-04-21T08:32:40.918Z</time></trkpt><trkpt lat="44.0619163" lon="7.8778587"><ele>553.0</ele><time>2026-04-21T08:32:41.914Z</time></trkpt><trkpt lat="44.0617603" lon="7.8778747"><ele>553.0</ele><time>2026-04-21T08:32:42.921Z</time></trkpt><trkpt lat="44.0616044" lon="7.8778913"><ele>553.0</ele><time>2026-04-21T08:32:43.921Z</time></trkpt><trkpt lat="44.0612855" lon="7.8778902"><ele>545.0</ele><time>2026-04-21T08:32:45.921Z</time></trkpt><trkpt lat="44.0611213" lon="7.8778778"><ele>537.0</ele><time>2026-04-21T08:32:46.914Z</time></trkpt><trkpt lat="44.0609584" lon="7.8778634"><ele>529.0</ele><time>2026-04-21T08:32:47.913Z</time></trkpt><trkpt lat="44.0608041" lon="7.8778636"><ele>517.3333333333334</ele><time>2026-04-21T08:32:48.92Z</time></trkpt><trkpt lat="44.0606577" lon="7.8778971"><ele>505.66666666666663</ele><time>2026-04-21T08:32:49.919Z</time></trkpt><trkpt lat="44.0605234" lon="7.8779861"><ele>494.0</ele><time>2026-04-21T08:32:50.914Z</time></trkpt><trkpt lat="44.0604135" lon="7.8781452"><ele>494.0</ele><time>2026-04-21T08:32:51.919Z</time></trkpt><trkpt lat="44.0603164" lon="7.8783221"><ele>494.0</ele><time>2026-04-21T08:32:52.923Z</time></trkpt><trkpt lat="44.0602389" lon="7.878507"><ele>494.0</ele><time>2026-04-21T08:32:53.917Z</time></trkpt><trkpt lat="44.0601929" lon="7.8787078"><ele>492.0</ele><time>2026-04-21T08:32:54.922Z</time></trkpt><trkpt lat="44.0601833" lon="7.8789215"><ele>490.0</ele><time>2026-04-21T08:32:55.922Z</time></trkpt><trkpt lat="44.0602273" lon="7.8791246"><ele>488.0</ele><time>2026-04-21T08:32:56.921Z</time></trkpt><trkpt lat="44.0603049" lon="7.8793145"><ele>481.3333333333333</ele><time>2026-04-21T08:32:57.924Z</time></trkpt><trkpt lat="44.0604029" lon="7.8794998"><ele>474.66666666666663</ele><time>2026-04-21T08:32:58.928Z</time></trkpt><trkpt lat="44.0605024" lon="7.8796926"><ele>468.0</ele><time>2026-04-21T08:32:59.926Z</time></trkpt><trkpt lat="44.0605919" lon="7.8798839"><ele>468.0</ele><time>2026-04-21T08:33:00.92Z</time></trkpt><trkpt lat="44.0606694" lon="7.8800903"><ele>468.0</ele><time>2026-04-21T08:33:01.919Z</time></trkpt><trkpt lat="44.0607278" lon="7.8803143"><ele>468.0</ele><time>2026-04-21T08:33:02.921Z</time></trkpt><trkpt lat="44.0607722" lon="7.8805543"><ele>476.0</ele><time>2026-04-21T08:33:03.922Z</time></trkpt><trkpt lat="44.0608131" lon="7.8808008"><ele>484.0</ele><time>2026-04-21T08:33:04.914Z</time></trkpt><trkpt lat="44.0609102" lon="7.8812952"><ele>484.0</ele><time>2026-04-21T08:33:06.915Z</time></trkpt><trkpt lat="44.0609623" lon="7.8815348"><ele>484.0</ele><time>2026-04-21T08:33:07.92Z</time></trkpt><trkpt lat="44.0610179" lon="7.8817671"><ele>484.0</ele><time>2026-04-21T08:33:08.917Z</time></trkpt><trkpt lat="44.061077" lon="7.881993"><ele>485.0</ele><time>2026-04-21T08:33:09.92Z</time></trkpt><trkpt lat="44.0611373" lon="7.8822123"><ele>486.0</ele><time>2026-04-21T08:33:10.914Z</time></trkpt><trkpt lat="44.0611914" lon="7.8824123"><ele>487.0</ele><time>2026-04-21T08:33:11.917Z</time></trkpt><trkpt lat="44.0612263" lon="7.8825868"><ele>491.75</ele><time>2026-04-21T08:33:12.924Z</time></trkpt><trkpt lat="44.0612024" lon="7.8827339"><ele>496.5</ele><time>2026-04-21T08:33:13.924Z</time></trkpt><trkpt lat="44.0611188" lon="7.8828438"><ele>501.25</ele><time>2026-04-21T08:33:14.923Z</time></trkpt><trkpt lat="44.0610009" lon="7.8829145"><ele>506.0</ele><time>2026-04-21T08:33:15.923Z</time></trkpt><trkpt lat="44.0608557" lon="7.8829227"><ele>507.66666666666663</ele><time>2026-04-21T08:33:16.916Z</time></trkpt><trkpt lat="44.0607209" lon="7.8828479"><ele>509.33333333333337</ele><time>2026-04-21T08:33:17.914Z</time></trkpt><trkpt lat="44.0605896" lon="7.8827427"><ele>511.0</ele><time>2026-04-21T08:33:18.919Z</time></trkpt><trkpt lat="44.0604366" lon="7.8825982"><ele>503.33333333333337</ele><time>2026-04-21T08:33:19.92Z</time></trkpt><trkpt lat="44.0602855" lon="7.8824832"><ele>495.66666666666663</ele><time>2026-04-21T08:33:20.923Z</time></trkpt><trkpt lat="44.060149" lon="7.882388"><ele>488.0</ele><time>2026-04-21T08:33:21.916Z</time></trkpt><trkpt lat="44.0600087" lon="7.8823031"><ele>483.66666666666663</ele><time>2026-04-21T08:33:22.919Z</time></trkpt><trkpt lat="44.0598706" lon="7.8822341"><ele>479.33333333333337</ele><time>2026-04-21T08:33:23.916Z</time></trkpt><trkpt lat="44.0597289" lon="7.8822002"><ele>475.0</ele><time>2026-04-21T08:33:24.917Z</time></trkpt><trkpt lat="44.0595671" lon="7.8822158"><ele>475.0</ele><time>2026-04-21T08:33:25.921Z</time></trkpt><trkpt lat="44.0592602" lon="7.8823317"><ele>475.0</ele><time>2026-04-21T08:33:27.922Z</time></trkpt><trkpt lat="44.0591175" lon="7.8823704"><ele>473.75</ele><time>2026-04-21T08:33:28.921Z</time></trkpt><trkpt lat="44.0589807" lon="7.8823868"><ele>472.5</ele><time>2026-04-21T08:33:29.921Z</time></trkpt><trkpt lat="44.0588443" lon="7.8823653"><ele>471.25</ele><time>2026-04-21T08:33:30.92Z</time></trkpt><trkpt lat="44.0587031" lon="7.8823049"><ele>470.0</ele><time>2026-04-21T08:33:31.917Z</time></trkpt><trkpt lat="44.0585628" lon="7.8822152"><ele>470.0</ele><time>2026-04-21T08:33:32.914Z</time></trkpt><trkpt lat="44.0584165" lon="7.8820994"><ele>470.0</ele><time>2026-04-21T08:33:33.916Z</time></trkpt><trkpt lat="44.0582833" lon="7.8819888"><ele>470.0</ele><time>2026-04-21T08:33:34.918Z</time></trkpt><trkpt lat="44.0581722" lon="7.8818886"><ele>461.0</ele><time>2026-04-21T08:33:35.915Z</time></trkpt><trkpt lat="44.0580586" lon="7.8818418"><ele>452.0</ele><time>2026-04-21T08:33:36.923Z</time></trkpt><trkpt lat="44.057945" lon="7.8819006"><ele>443.0</ele><time>2026-04-21T08:33:37.914Z</time></trkpt><trkpt lat="44.0578412" lon="7.8820986"><ele>434.0</ele><time>2026-04-21T08:33:38.917Z</time></trkpt><trkpt lat="44.0577438" lon="7.8823015"><ele>434.0</ele><time>2026-04-21T08:33:39.921Z</time></trkpt><trkpt lat="44.0576612" lon="7.8824987"><ele>434.0</ele><time>2026-04-21T08:33:40.919Z</time></trkpt><trkpt lat="44.0576185" lon="7.8826885"><ele>434.0</ele><time>2026-04-21T08:33:41.921Z</time></trkpt><trkpt lat="44.0576283" lon="7.8828874"><ele>435.0</ele><time>2026-04-21T08:33:42.92Z</time></trkpt><trkpt lat="44.0577027" lon="7.8830872"><ele>436.0</ele><time>2026-04-21T08:33:43.924Z</time></trkpt><trkpt lat="44.0578077" lon="7.8832613"><ele>437.0</ele><time>2026-04-21T08:33:44.924Z</time></trkpt><trkpt lat="44.0578961" lon="7.8834485"><ele>437.0</ele><time>2026-04-21T08:33:45.924Z</time></trkpt><trkpt lat="44.0579301" lon="7.8836407"><ele>437.0</ele><time>2026-04-21T08:33:46.922Z</time></trkpt><trkpt lat="44.0578393" lon="7.8840065"><ele>437.0</ele><time>2026-04-21T08:33:48.927Z</time></trkpt><trkpt lat="44.057719" lon="7.8840967"><ele>437.0</ele><time>2026-04-21T08:33:49.918Z</time></trkpt><trkpt lat="44.0575823" lon="7.884161"><ele>437.0</ele><time>2026-04-21T08:33:50.925Z</time></trkpt><trkpt lat="44.0574531" lon="7.8842427"><ele>437.0</ele><time>2026-04-21T08:33:51.917Z</time></trkpt><trkpt lat="44.0573587" lon="7.8843619"><ele>437.0</ele><time>2026-04-21T08:33:52.925Z</time></trkpt><trkpt lat="44.0572862" lon="7.884483"><ele>436.66666666666663</ele><time>2026-04-21T08:33:53.918Z</time></trkpt><trkpt lat="44.0574053" lon="7.8846861"><ele>436.33333333333337</ele><time>2026-04-21T08:33:54.921Z</time></trkpt><trkpt lat="44.0575351" lon="7.8849037"><ele>436.0</ele><time>2026-04-21T08:33:55.919Z</time></trkpt><trkpt lat="44.0576371" lon="7.8850964"><ele>438.0</ele><time>2026-04-21T08:33:56.922Z</time></trkpt><trkpt lat="44.057703" lon="7.8852767"><ele>440.0</ele><time>2026-04-21T08:33:57.918Z</time></trkpt><trkpt lat="44.0577389" lon="7.8854589"><ele>442.0</ele><time>2026-04-21T08:33:58.924Z</time></trkpt><trkpt lat="44.0577236" lon="7.8856175"><ele>444.0</ele><time>2026-04-21T08:33:59.914Z</time></trkpt><trkpt lat="44.0576501" lon="7.8857118"><ele>444.0</ele><time>2026-04-21T08:34:00.914Z</time></trkpt><trkpt lat="44.0575256" lon="7.8857432"><ele>444.0</ele><time>2026-04-21T08:34:01.918Z</time></trkpt><trkpt lat="44.057377" lon="7.8857685"><ele>444.0</ele><time>2026-04-21T08:34:02.916Z</time></trkpt><trkpt lat="44.0572351" lon="7.8858089"><ele>444.0</ele><time>2026-04-21T08:34:03.925Z</time></trkpt><trkpt lat="44.0570807" lon="7.8858199"><ele>440.75</ele><time>2026-04-21T08:34:04.92Z</time></trkpt><trkpt lat="44.0569322" lon="7.885848"><ele>437.5</ele><time>2026-04-21T08:34:05.917Z</time></trkpt><trkpt lat="44.0567952" lon="7.8859169"><ele>434.25</ele><time>2026-04-21T08:34:06.922Z</time></trkpt><trkpt lat="44.0566841" lon="7.8860463"><ele>431.0</ele><time>2026-04-21T08:34:07.912Z</time></trkpt><trkpt lat="44.0564947" lon="7.8863455"><ele>425.5</ele><time>2026-04-21T08:34:09.921Z</time></trkpt><trkpt lat="44.056401" lon="7.8865044"><ele>420.0</ele><time>2026-04-21T08:34:10.924Z</time></trkpt><trkpt lat="44.0563266" lon="7.8866813"><ele>414.5</ele><time>2026-04-21T08:34:11.93Z</time></trkpt><trkpt lat="44.0562943" lon="7.8868782"><ele>409.0</ele><time>2026-04-21T08:34:12.924Z</time></trkpt><trkpt lat="44.0562975" lon="7.8870808"><ele>409.0</ele><time>2026-04-21T08:34:13.927Z</time></trkpt><trkpt lat="44.0562894" lon="7.8872695"><ele>409.0</ele><time>2026-04-21T08:34:14.925Z</time></trkpt><trkpt lat="44.0562587" lon="7.8874489"><ele>409.0</ele><time>2026-04-21T08:34:15.922Z</time></trkpt><trkpt lat="44.0562008" lon="7.8876096"><ele>409.0</ele><time>2026-04-21T08:34:16.916Z</time></trkpt><trkpt lat="44.056099" lon="7.8877368"><ele>407.5</ele><time>2026-04-21T08:34:17.922Z</time></trkpt><trkpt lat="44.0559784" lon="7.8878377"><ele>406.0</ele><time>2026-04-21T08:34:18.92Z</time></trkpt><trkpt lat="44.0558537" lon="7.8879408"><ele>404.5</ele><time>2026-04-21T08:34:19.924Z</time></trkpt><trkpt lat="44.0557404" lon="7.8880416"><ele>403.0</ele><time>2026-04-21T08:34:20.92Z</time></trkpt><trkpt lat="44.0556347" lon="7.8881551"><ele>403.0</ele><time>2026-04-21T08:34:21.919Z</time></trkpt><trkpt lat="44.055528" lon="7.8882767"><ele>403.0</ele><time>2026-04-21T08:34:22.924Z</time></trkpt><trkpt lat="44.0554194" lon="7.8884018"><ele>403.0</ele><time>2026-04-21T08:34:23.918Z</time></trkpt><trkpt lat="44.055317" lon="7.8885244"><ele>403.0</ele><time>2026-04-21T08:34:24.922Z</time></trkpt><trkpt lat="44.0552162" lon="7.8886442"><ele>404.75</ele><time>2026-04-21T08:34:25.928Z</time></trkpt><trkpt lat="44.0551172" lon="7.8887683"><ele>406.5</ele><time>2026-04-21T08:34:26.914Z</time></trkpt><trkpt lat="44.0550188" lon="7.8888862"><ele>408.25</ele><time>2026-04-21T08:34:27.922Z</time></trkpt><trkpt lat="44.0549212" lon="7.8889947"><ele>410.0</ele><time>2026-04-21T08:34:28.922Z</time></trkpt><trkpt lat="44.0547159" lon="7.8891671"><ele>408.0</ele><time>2026-04-21T08:34:30.921Z</time></trkpt><trkpt lat="44.0546121" lon="7.8892501"><ele>406.0</ele><time>2026-04-21T08:34:31.916Z</time></trkpt><trkpt lat="44.0545086" lon="7.8893389"><ele>404.0</ele><time>2026-04-21T08:34:32.923Z</time></trkpt><trkpt lat="44.0544061" lon="7.8894414"><ele>402.0</ele><time>2026-04-21T08:34:33.92Z</time></trkpt><trkpt lat="44.054311" lon="7.8895681"><ele>402.0</ele><time>2026-04-21T08:34:34.919Z</time></trkpt><trkpt lat="44.0542354" lon="7.8897206"><ele>402.0</ele><time>2026-04-21T08:34:35.925Z</time></trkpt><trkpt lat="44.0541788" lon="7.8898873"><ele>402.0</ele><time>2026-04-21T08:34:36.917Z</time></trkpt><trkpt lat="44.0541382" lon="7.8900608"><ele>402.0</ele><time>2026-04-21T08:34:37.923Z</time></trkpt><trkpt lat="44.0540982" lon="7.8902376"><ele>398.25</ele><time>2026-04-21T08:34:38.916Z</time></trkpt><trkpt lat="44.0540419" lon="7.8904035"><ele>394.5</ele><time>2026-04-21T08:34:39.915Z</time></trkpt><trkpt lat="44.0539656" lon="7.8905495"><ele>390.75</ele><time>2026-04-21T08:34:40.92Z</time></trkpt><trkpt lat="44.0538734" lon="7.8906782"><ele>387.0</ele><time>2026-04-21T08:34:41.92Z</time></trkpt><trkpt lat="44.0537711" lon="7.8908003"><ele>387.0</ele><time>2026-04-21T08:34:42.924Z</time></trkpt><trkpt lat="44.0536661" lon="7.8909239"><ele>387.0</ele><time>2026-04-21T08:34:43.923Z</time></trkpt><trkpt lat="44.0535686" lon="7.8910519"><ele>387.0</ele><time>2026-04-21T08:34:44.917Z</time></trkpt><trkpt lat="44.0534728" lon="7.8911734"><ele>387.0</ele><time>2026-04-21T08:34:45.925Z</time></trkpt><trkpt lat="44.0533816" lon="7.8912904"><ele>387.75</ele><time>2026-04-21T08:34:46.919Z</time></trkpt><trkpt lat="44.0532924" lon="7.8914036"><ele>388.5</ele><time>2026-04-21T08:34:47.918Z</time></trkpt><trkpt lat="44.0532079" lon="7.8915272"><ele>389.25</ele><time>2026-04-21T08:34:48.921Z</time></trkpt><trkpt lat="44.0531305" lon="7.8916676"><ele>390.0</ele><time>2026-04-21T08:34:49.919Z</time></trkpt><trkpt lat="44.0530462" lon="7.8919941"><ele>384.25</ele><time>2026-04-21T08:34:51.928Z</time></trkpt><trkpt lat="44.0530458" lon="7.8921492"><ele>378.5</ele><time>2026-04-21T08:34:52.92Z</time></trkpt><trkpt lat="44.0530864" lon="7.8922921"><ele>372.75</ele><time>2026-04-21T08:34:53.919Z</time></trkpt><trkpt lat="44.0531628" lon="7.8924332"><ele>367.0</ele><time>2026-04-21T08:34:54.92Z</time></trkpt><trkpt lat="44.0532242" lon="7.892569"><ele>363.6</ele><time>2026-04-21T08:34:55.918Z</time></trkpt><trkpt lat="44.0532505" lon="7.8927115"><ele>360.20000000000005</ele><time>2026-04-21T08:34:56.928Z</time></trkpt><trkpt lat="44.0532263" lon="7.8928462"><ele>356.8</ele><time>2026-04-21T08:34:57.924Z</time></trkpt><trkpt lat="44.0531445" lon="7.8929433"><ele>353.4</ele><time>2026-04-21T08:34:58.918Z</time></trkpt><trkpt lat="44.0530446" lon="7.8930183"><ele>350.0</ele><time>2026-04-21T08:34:59.921Z</time></trkpt><trkpt lat="44.0529605" lon="7.8931138"><ele>350.0</ele><time>2026-04-21T08:35:00.916Z</time></trkpt><trkpt lat="44.0529241" lon="7.8932413"><ele>350.0</ele><time>2026-04-21T08:35:01.925Z</time></trkpt><trkpt lat="44.0529566" lon="7.8933939"><ele>350.0</ele><time>2026-04-21T08:35:02.92Z</time></trkpt><trkpt lat="44.0530261" lon="7.8935697"><ele>350.0</ele><time>2026-04-21T08:35:03.919Z</time></trkpt><trkpt lat="44.0531105" lon="7.893763"><ele>346.33333333333337</ele><time>2026-04-21T08:35:04.921Z</time></trkpt><trkpt lat="44.0531878" lon="7.8939635"><ele>342.6666666666667</ele><time>2026-04-21T08:35:05.923Z</time></trkpt><trkpt lat="44.0532489" lon="7.8941584"><ele>339.0</ele><time>2026-04-21T08:35:06.916Z</time></trkpt><trkpt lat="44.0533077" lon="7.8943578"><ele>344.5</ele><time>2026-04-21T08:35:07.922Z</time></trkpt><trkpt lat="44.0533624" lon="7.8945437"><ele>350.0</ele><time>2026-04-21T08:35:08.916Z</time></trkpt><trkpt lat="44.0534046" lon="7.89472"><ele>355.5</ele><time>2026-04-21T08:35:09.917Z</time></trkpt><trkpt lat="44.0534193" lon="7.8948893"><ele>361.0</ele><time>2026-04-21T08:35:10.919Z</time></trkpt><trkpt lat="44.0533474" lon="7.8952145"><ele>354.0</ele><time>2026-04-21T08:35:12.923Z</time></trkpt><trkpt lat="44.0532527" lon="7.8953423"><ele>347.0</ele><time>2026-04-21T08:35:13.924Z</time></trkpt><trkpt lat="44.053123" lon="7.8954101"><ele>340.0</ele><time>2026-04-21T08:35:14.922Z</time></trkpt><trkpt lat="44.0529832" lon="7.895457"><ele>333.0</ele><time>2026-04-21T08:35:15.92Z</time></trkpt><trkpt lat="44.0528597" lon="7.8955242"><ele>333.0</ele><time>2026-04-21T08:35:16.927Z</time></trkpt><trkpt lat="44.0527715" lon="7.895638"><ele>333.0</ele><time>2026-04-21T08:35:17.923Z</time></trkpt><trkpt lat="44.0527194" lon="7.8958095"><ele>333.0</ele><time>2026-04-21T08:35:18.923Z</time></trkpt><trkpt lat="44.052695" lon="7.8960286"><ele>333.0</ele><time>2026-04-21T08:35:19.92Z</time></trkpt><trkpt lat="44.0526826" lon="7.8962766"><ele>333.0</ele><time>2026-04-21T08:35:20.915Z</time></trkpt><trkpt lat="44.0526667" lon="7.8965252"><ele>333.0</ele><time>2026-04-21T08:35:21.922Z</time></trkpt><trkpt lat="44.0526514" lon="7.8967587"><ele>333.0</ele><time>2026-04-21T08:35:22.925Z</time></trkpt><trkpt lat="44.0526311" lon="7.896989"><ele>337.0</ele><time>2026-04-21T08:35:23.916Z</time></trkpt><trkpt lat="44.0525839" lon="7.8972088"><ele>341.0</ele><time>2026-04-21T08:35:24.919Z</time></trkpt><trkpt lat="44.0525114" lon="7.8974074"><ele>345.0</ele><time>2026-04-21T08:35:25.922Z</time></trkpt><trkpt lat="44.0524313" lon="7.8975986"><ele>336.0</ele><time>2026-04-21T08:35:26.92Z</time></trkpt><trkpt lat="44.0523494" lon="7.8977888"><ele>327.0</ele><time>2026-04-21T08:35:27.92Z</time></trkpt><trkpt lat="44.0522634" lon="7.8979859"><ele>318.0</ele><time>2026-04-21T08:35:28.917Z</time></trkpt><trkpt lat="44.0521735" lon="7.8981888"><ele>318.0</ele><time>2026-04-21T08:35:29.918Z</time></trkpt><trkpt lat="44.0520761" lon="7.8983922"><ele>318.0</ele><time>2026-04-21T08:35:30.915Z</time></trkpt><trkpt lat="44.0519673" lon="7.8985911"><ele>318.0</ele><time>2026-04-21T08:35:31.914Z</time></trkpt><trkpt lat="44.0517888" lon="7.8989955"><ele>319.6666666666667</ele><time>2026-04-21T08:35:33.92Z</time></trkpt><trkpt lat="44.0517355" lon="7.8992293"><ele>321.33333333333337</ele><time>2026-04-21T08:35:34.914Z</time></trkpt><trkpt lat="44.0516982" lon="7.8994791"><ele>323.0</ele><time>2026-04-21T08:35:35.914Z</time></trkpt><trkpt lat="44.0516631" lon="7.8997177"><ele>324.6666666666667</ele><time>2026-04-21T08:35:36.921Z</time></trkpt><trkpt lat="44.0516307" lon="7.8999681"><ele>326.3333333333333</ele><time>2026-04-21T08:35:37.923Z</time></trkpt><trkpt lat="44.0515847" lon="7.9002197"><ele>328.0</ele><time>2026-04-21T08:35:38.92Z</time></trkpt><trkpt lat="44.0515298" lon="7.9004683"><ele>320.3333333333333</ele><time>2026-04-21T08:35:39.918Z</time></trkpt><trkpt lat="44.0514659" lon="7.9007094"><ele>312.6666666666667</ele><time>2026-04-21T08:35:40.92Z</time></trkpt><trkpt lat="44.0513911" lon="7.9009465"><ele>305.0</ele><time>2026-04-21T08:35:41.917Z</time></trkpt><trkpt lat="44.0513045" lon="7.9011794"><ele>305.0</ele><time>2026-04-21T08:35:42.917Z</time></trkpt><trkpt lat="44.0512104" lon="7.9013975"><ele>305.0</ele><time>2026-04-21T08:35:43.922Z</time></trkpt><trkpt lat="44.0511122" lon="7.9016075"><ele>305.0</ele><time>2026-04-21T08:35:44.918Z</time></trkpt><trkpt lat="44.0510116" lon="7.9018064"><ele>308.33333333333337</ele><time>2026-04-21T08:35:45.913Z</time></trkpt><trkpt lat="44.0509137" lon="7.9019988"><ele>311.6666666666667</ele><time>2026-04-21T08:35:46.919Z</time></trkpt><trkpt lat="44.0508237" lon="7.9021876"><ele>315.0</ele><time>2026-04-21T08:35:47.914Z</time></trkpt><trkpt lat="44.0507439" lon="7.9023823"><ele>304.6666666666667</ele><time>2026-04-21T08:35:48.917Z</time></trkpt><trkpt lat="44.0506681" lon="7.9025775"><ele>294.33333333333337</ele><time>2026-04-21T08:35:49.918Z</time></trkpt><trkpt lat="44.0505883" lon="7.9027732"><ele>284.0</ele><time>2026-04-21T08:35:50.921Z</time></trkpt><trkpt lat="44.0505006" lon="7.9029607"><ele>284.0</ele><time>2026-04-21T08:35:51.922Z</time></trkpt><trkpt lat="44.0503979" lon="7.9031334"><ele>284.0</ele><time>2026-04-21T08:35:52.921Z</time></trkpt><trkpt lat="44.0501567" lon="7.9034529"><ele>285.6666666666667</ele><time>2026-04-21T08:35:54.922Z</time></trkpt><trkpt lat="44.050029" lon="7.90362"><ele>287.3333333333333</ele><time>2026-04-21T08:35:55.921Z</time></trkpt><trkpt lat="44.0499037" lon="7.9037825"><ele>289.0</ele><time>2026-04-21T08:35:56.926Z</time></trkpt><trkpt lat="44.0497784" lon="7.9039327"><ele>283.3333333333333</ele><time>2026-04-21T08:35:57.922Z</time></trkpt><trkpt lat="44.0496433" lon="7.9040642"><ele>277.6666666666667</ele><time>2026-04-21T08:35:58.915Z</time></trkpt><trkpt lat="44.0494983" lon="7.9041857"><ele>272.0</ele><time>2026-04-21T08:35:59.922Z</time></trkpt><trkpt lat="44.049347" lon="7.9042972"><ele>270.33333333333337</ele><time>2026-04-21T08:36:00.921Z</time></trkpt><trkpt lat="44.0491886" lon="7.9043873"><ele>268.6666666666667</ele><time>2026-04-21T08:36:01.916Z</time></trkpt><trkpt lat="44.0490261" lon="7.9044714"><ele>267.0</ele><time>2026-04-21T08:36:02.922Z</time></trkpt><trkpt lat="44.0488622" lon="7.9045616"><ele>278.0</ele><time>2026-04-21T08:36:03.919Z</time></trkpt><trkpt lat="44.0486975" lon="7.9046555"><ele>289.0</ele><time>2026-04-21T08:36:04.92Z</time></trkpt><trkpt lat="44.0485352" lon="7.9047483"><ele>300.0</ele><time>2026-04-21T08:36:05.92Z</time></trkpt><trkpt lat="44.0483706" lon="7.9048397"><ele>312.0</ele><time>2026-04-21T08:36:06.919Z</time></trkpt><trkpt lat="44.048204" lon="7.9049351"><ele>324.0</ele><time>2026-04-21T08:36:07.919Z</time></trkpt><trkpt lat="44.0480352" lon="7.9050274"><ele>336.0</ele><time>2026-04-21T08:36:08.916Z</time></trkpt><trkpt lat="44.0478612" lon="7.9051172"><ele>336.0</ele><time>2026-04-21T08:36:09.917Z</time></trkpt><trkpt lat="44.047682" lon="7.9052153"><ele>336.0</ele><time>2026-04-21T08:36:10.918Z</time></trkpt><trkpt lat="44.0388794" lon="7.9238627"><ele>306.0</ele><time>2026-04-21T08:37:48.912Z</time></trkpt><trkpt lat="44.0386448" lon="7.9239898"><ele>276.0</ele><time>2026-04-21T08:37:50.912Z</time></trkpt><trkpt lat="44.0385307" lon="7.9239958"><ele>246.0</ele><time>2026-04-21T08:37:51.916Z</time></trkpt><trkpt lat="44.038463" lon="7.9240873"><ele>246.0</ele><time>2026-04-21T08:37:52.914Z</time></trkpt><trkpt lat="44.0383862" lon="7.9241927"><ele>246.0</ele><time>2026-04-21T08:37:53.916Z</time></trkpt><trkpt lat="44.0383231" lon="7.9243302"><ele>246.0</ele><time>2026-04-21T08:37:54.918Z</time></trkpt><trkpt lat="44.0382637" lon="7.9244858"><ele>246.0</ele><time>2026-04-21T08:37:55.925Z</time></trkpt><trkpt lat="44.0382029" lon="7.9246492"><ele>247.5</ele><time>2026-04-21T08:37:56.916Z</time></trkpt><trkpt lat="44.0381366" lon="7.9248128"><ele>249.0</ele><time>2026-04-21T08:37:57.92Z</time></trkpt><trkpt lat="44.0380616" lon="7.9249672"><ele>250.5</ele><time>2026-04-21T08:37:58.924Z</time></trkpt><trkpt lat="44.037989" lon="7.925124"><ele>252.0</ele><time>2026-04-21T08:37:59.917Z</time></trkpt><trkpt lat="44.0379163" lon="7.9252783"><ele>249.0</ele><time>2026-04-21T08:38:00.92Z</time></trkpt><trkpt lat="44.0378394" lon="7.9254339"><ele>246.0</ele><time>2026-04-21T08:38:01.914Z</time></trkpt><trkpt lat="44.0377657" lon="7.9255941"><ele>243.0</ele><time>2026-04-21T08:38:02.921Z</time></trkpt><trkpt lat="44.0376922" lon="7.9257592"><ele>240.0</ele><time>2026-04-21T08:38:03.919Z</time></trkpt><trkpt lat="44.0376194" lon="7.9259274"><ele>238.5</ele><time>2026-04-21T08:38:04.912Z</time></trkpt><trkpt lat="44.0375466" lon="7.926094"><ele>237.0</ele><time>2026-04-21T08:38:05.921Z</time></trkpt><trkpt lat="44.0374728" lon="7.9262609"><ele>235.5</ele><time>2026-04-21T08:38:06.918Z</time></trkpt><trkpt lat="44.0373995" lon="7.9264306"><ele>234.0</ele><time>2026-04-21T08:38:07.914Z</time></trkpt><trkpt lat="44.0373274" lon="7.9266064"><ele>231.33333333333331</ele><time>2026-04-21T08:38:08.921Z</time></trkpt><trkpt lat="44.037253" lon="7.9267787"><ele>228.66666666666666</ele><time>2026-04-21T08:38:09.916Z</time></trkpt><trkpt lat="44.0371031" lon="7.927124"><ele>226.0</ele><time>2026-04-21T08:38:11.919Z</time></trkpt><trkpt lat="44.03703" lon="7.9272954"><ele>226.0</ele><time>2026-04-21T08:38:12.924Z</time></trkpt><trkpt lat="44.0369568" lon="7.9274617"><ele>226.0</ele><time>2026-04-21T08:38:13.922Z</time></trkpt><trkpt lat="44.0368839" lon="7.9276293"><ele>226.0</ele><time>2026-04-21T08:38:14.927Z</time></trkpt><trkpt lat="44.0368102" lon="7.9277973"><ele>226.0</ele><time>2026-04-21T08:38:15.925Z</time></trkpt><trkpt lat="44.0367365" lon="7.9279668"><ele>226.0</ele><time>2026-04-21T08:38:16.921Z</time></trkpt><trkpt lat="44.0366643" lon="7.9281388"><ele>226.0</ele><time>2026-04-21T08:38:17.919Z</time></trkpt><trkpt lat="44.0365934" lon="7.9283136"><ele>226.0</ele><time>2026-04-21T08:38:18.925Z</time></trkpt><trkpt lat="44.0365228" lon="7.9284894"><ele>226.0</ele><time>2026-04-21T08:38:19.921Z</time></trkpt><trkpt lat="44.0364554" lon="7.9286672"><ele>237.0</ele><time>2026-04-21T08:38:20.923Z</time></trkpt><trkpt lat="44.0364001" lon="7.9288487"><ele>248.0</ele><time>2026-04-21T08:38:21.92Z</time></trkpt><trkpt lat="44.0363676" lon="7.9290426"><ele>259.0</ele><time>2026-04-21T08:38:22.921Z</time></trkpt><trkpt lat="44.0363603" lon="7.9292343"><ele>270.0</ele><time>2026-04-21T08:38:23.928Z</time></trkpt><trkpt lat="44.0363715" lon="7.9294164"><ele>277.75</ele><time>2026-04-21T08:38:24.922Z</time></trkpt><trkpt lat="44.0363834" lon="7.9295939"><ele>285.5</ele><time>2026-04-21T08:38:25.932Z</time></trkpt><trkpt lat="44.0363972" lon="7.9297827"><ele>293.25</ele><time>2026-04-21T08:38:26.922Z</time></trkpt><trkpt lat="44.0364378" lon="7.9299558"><ele>301.0</ele><time>2026-04-21T08:38:27.914Z</time></trkpt><trkpt lat="44.0364782" lon="7.9301224"><ele>295.66666666666663</ele><time>2026-04-21T08:38:28.922Z</time></trkpt><trkpt lat="44.0365513" lon="7.9302723"><ele>290.3333333333333</ele><time>2026-04-21T08:38:29.93Z</time></trkpt><trkpt lat="44.0366788" lon="7.9304146"><ele>285.0</ele><time>2026-04-21T08:38:30.926Z</time></trkpt><trkpt lat="44.0368979" lon="7.930705"><ele>285.0</ele><time>2026-04-21T08:38:32.928Z</time></trkpt><trkpt lat="44.03699" lon="7.9308521"><ele>285.0</ele><time>2026-04-21T08:38:33.916Z</time></trkpt><trkpt lat="44.0370811" lon="7.9310022"><ele>285.0</ele><time>2026-04-21T08:38:34.929Z</time></trkpt><trkpt lat="44.037167" lon="7.9311548"><ele>285.0</ele><time>2026-04-21T08:38:35.921Z</time></trkpt><trkpt lat="44.0372518" lon="7.9313102"><ele>283.5</ele><time>2026-04-21T08:38:36.919Z</time></trkpt><trkpt lat="44.0373316" lon="7.9314642"><ele>282.0</ele><time>2026-04-21T08:38:37.926Z</time></trkpt><trkpt lat="44.0374043" lon="7.9316199"><ele>280.5</ele><time>2026-04-21T08:38:38.928Z</time></trkpt><trkpt lat="44.0374663" lon="7.9317857"><ele>279.0</ele><time>2026-04-21T08:38:39.917Z</time></trkpt><trkpt lat="44.0375174" lon="7.9319596"><ele>279.0</ele><time>2026-04-21T08:38:40.93Z</time></trkpt><trkpt lat="44.0375635" lon="7.9321407"><ele>279.0</ele><time>2026-04-21T08:38:41.921Z</time></trkpt><trkpt lat="44.0376051" lon="7.9323287"><ele>279.0</ele><time>2026-04-21T08:38:42.932Z</time></trkpt><trkpt lat="44.0376411" lon="7.9325209"><ele>279.0</ele><time>2026-04-21T08:38:43.929Z</time></trkpt><trkpt lat="44.0376571" lon="7.932715"><ele>278.75</ele><time>2026-04-21T08:38:44.918Z</time></trkpt><trkpt lat="44.0376491" lon="7.9329063"><ele>278.5</ele><time>2026-04-21T08:38:45.932Z</time></trkpt><trkpt lat="44.0376134" lon="7.9330893"><ele>278.25</ele><time>2026-04-21T08:38:46.928Z</time></trkpt><trkpt lat="44.0375542" lon="7.9332706"><ele>278.0</ele><time>2026-04-21T08:38:47.929Z</time></trkpt><trkpt lat="44.0374877" lon="7.9334514"><ele>291.33333333333337</ele><time>2026-04-21T08:38:48.924Z</time></trkpt><trkpt lat="44.0374242" lon="7.9336399"><ele>304.6666666666667</ele><time>2026-04-21T08:38:49.94Z</time></trkpt><trkpt lat="44.0373617" lon="7.9338304"><ele>318.0</ele><time>2026-04-21T08:38:50.929Z</time></trkpt><trkpt lat="44.0372978" lon="7.9340237"><ele>307.0</ele><time>2026-04-21T08:38:51.936Z</time></trkpt><trkpt lat="44.0371469" lon="7.9343956"><ele>296.0</ele><time>2026-04-21T08:38:53.929Z</time></trkpt><trkpt lat="44.0370582" lon="7.9345759"><ele>296.0</ele><time>2026-04-21T08:38:54.93Z</time></trkpt><trkpt lat="44.0369639" lon="7.9347539"><ele>296.0</ele><time>2026-04-21T08:38:55.93Z</time></trkpt><trkpt lat="44.0368726" lon="7.9349303"><ele>296.0</ele><time>2026-04-21T08:38:56.93Z</time></trkpt><trkpt lat="44.0367826" lon="7.9351124"><ele>291.33333333333337</ele><time>2026-04-21T08:38:57.923Z</time></trkpt><trkpt lat="44.0366965" lon="7.9353"><ele>286.6666666666667</ele><time>2026-04-21T08:38:58.92Z</time></trkpt><trkpt lat="44.0366182" lon="7.9354943"><ele>282.0</ele><time>2026-04-21T08:38:59.937Z</time></trkpt><trkpt lat="44.0365485" lon="7.9356942"><ele>291.0</ele><time>2026-04-21T08:39:00.919Z</time></trkpt><trkpt lat="44.0364857" lon="7.9359054"><ele>300.0</ele><time>2026-04-21T08:39:01.931Z</time></trkpt><trkpt lat="44.0364279" lon="7.9361161"><ele>309.0</ele><time>2026-04-21T08:39:02.935Z</time></trkpt><trkpt lat="44.0363729" lon="7.9363315"><ele>309.0</ele><time>2026-04-21T08:39:03.926Z</time></trkpt><trkpt lat="44.0363142" lon="7.9365439"><ele>309.0</ele><time>2026-04-21T08:39:04.932Z</time></trkpt><trkpt lat="44.0362477" lon="7.9367616"><ele>309.0</ele><time>2026-04-21T08:39:05.926Z</time></trkpt><trkpt lat="44.0361902" lon="7.9369759"><ele>308.6666666666667</ele><time>2026-04-21T08:39:06.927Z</time></trkpt><trkpt lat="44.0361325" lon="7.9371921"><ele>308.33333333333337</ele><time>2026-04-21T08:39:07.936Z</time></trkpt><trkpt lat="44.0360724" lon="7.9374048"><ele>308.0</ele><time>2026-04-21T08:39:08.932Z</time></trkpt><trkpt lat="44.03601" lon="7.9376166"><ele>304.6666666666667</ele><time>2026-04-21T08:39:09.929Z</time></trkpt><trkpt lat="44.0359492" lon="7.9378259"><ele>301.3333333333333</ele><time>2026-04-21T08:39:10.935Z</time></trkpt><trkpt lat="44.0358881" lon="7.9380372"><ele>298.0</ele><time>2026-04-21T08:39:11.93Z</time></trkpt><trkpt lat="44.0358247" lon="7.9382457"><ele>315.5</ele><time>2026-04-21T08:39:12.925Z</time></trkpt><trkpt lat="44.0356621" lon="7.938631"><ele>333.0</ele><time>2026-04-21T08:39:14.928Z</time></trkpt><trkpt lat="44.0355507" lon="7.9387992"><ele>333.0</ele><time>2026-04-21T08:39:15.934Z</time></trkpt><trkpt lat="44.0354313" lon="7.9389478"><ele>333.0</ele><time>2026-04-21T08:39:16.938Z</time></trkpt><trkpt lat="44.0353104" lon="7.9390872"><ele>333.0</ele><time>2026-04-21T08:39:17.924Z</time></trkpt><trkpt lat="44.0351777" lon="7.9392097"><ele>334.0</ele><time>2026-04-21T08:39:18.92Z</time></trkpt><trkpt lat="44.0350395" lon="7.9393107"><ele>335.0</ele><time>2026-04-21T08:39:19.928Z</time></trkpt><trkpt lat="44.0348901" lon="7.9394081"><ele>336.0</ele><time>2026-04-21T08:39:20.918Z</time></trkpt><trkpt lat="44.0347288" lon="7.9394883"><ele>336.0</ele><time>2026-04-21T08:39:21.932Z</time></trkpt><trkpt lat="44.0345547" lon="7.939559"><ele>336.0</ele><time>2026-04-21T08:39:22.927Z</time></trkpt><trkpt lat="44.0343723" lon="7.9396217"><ele>336.0</ele><time>2026-04-21T08:39:23.924Z</time></trkpt><trkpt lat="44.0341868" lon="7.9396703"><ele>328.6666666666667</ele><time>2026-04-21T08:39:24.917Z</time></trkpt><trkpt lat="44.0339911" lon="7.9395889"><ele>321.33333333333337</ele><time>2026-04-21T08:39:25.916Z</time></trkpt><trkpt lat="44.0338104" lon="7.9395828"><ele>314.0</ele><time>2026-04-21T08:39:26.916Z</time></trkpt><trkpt lat="44.0336278" lon="7.9395777"><ele>314.0</ele><time>2026-04-21T08:39:27.917Z</time></trkpt><trkpt lat="44.0334438" lon="7.9395771"><ele>314.0</ele><time>2026-04-21T08:39:28.906Z</time></trkpt><trkpt lat="44.033253" lon="7.9395753"><ele>314.0</ele><time>2026-04-21T08:39:29.908Z</time></trkpt><trkpt lat="44.0331343" lon="7.9395643"><ele>313.25</ele><time>2026-04-21T08:39:30.911Z</time></trkpt><trkpt lat="44.0329928" lon="7.9395419"><ele>312.5</ele><time>2026-04-21T08:39:31.927Z</time></trkpt><trkpt lat="44.0328424" lon="7.9395168"><ele>311.75</ele><time>2026-04-21T08:39:32.92Z</time></trkpt><trkpt lat="44.0326921" lon="7.9394969"><ele>311.0</ele><time>2026-04-21T08:39:33.934Z</time></trkpt><trkpt lat="44.0324033" lon="7.9394655"><ele>314.33333333333337</ele><time>2026-04-21T08:39:35.937Z</time></trkpt><trkpt lat="44.0322499" lon="7.9394536"><ele>317.6666666666667</ele><time>2026-04-21T08:39:36.931Z</time></trkpt><trkpt lat="44.0320939" lon="7.9394464"><ele>321.0</ele><time>2026-04-21T08:39:37.931Z</time></trkpt><trkpt lat="44.0319362" lon="7.9394505"><ele>321.0</ele><time>2026-04-21T08:39:38.932Z</time></trkpt><trkpt lat="44.0317738" lon="7.9394577"><ele>321.0</ele><time>2026-04-21T08:39:39.921Z</time></trkpt><trkpt lat="44.0316118" lon="7.9394539"><ele>321.0</ele><time>2026-04-21T08:39:40.939Z</time></trkpt><trkpt lat="44.0314485" lon="7.9394595"><ele>323.0</ele><time>2026-04-21T08:39:41.929Z</time></trkpt><trkpt lat="44.0312869" lon="7.9394617"><ele>325.0</ele><time>2026-04-21T08:39:42.932Z</time></trkpt><trkpt lat="44.0311255" lon="7.9394644"><ele>327.0</ele><time>2026-04-21T08:39:43.92Z</time></trkpt><trkpt lat="44.030964" lon="7.939464"><ele>324.0</ele><time>2026-04-21T08:39:44.938Z</time></trkpt><trkpt lat="44.0307987" lon="7.9394637"><ele>321.0</ele><time>2026-04-21T08:39:45.932Z</time></trkpt><trkpt lat="44.0306347" lon="7.9394602"><ele>318.0</ele><time>2026-04-21T08:39:46.929Z</time></trkpt><trkpt lat="44.0304708" lon="7.9394562"><ele>318.0</ele><time>2026-04-21T08:39:47.922Z</time></trkpt><trkpt lat="44.030305" lon="7.9394537"><ele>318.0</ele><time>2026-04-21T08:39:48.926Z</time></trkpt><trkpt lat="44.0301384" lon="7.9394558"><ele>318.0</ele><time>2026-04-21T08:39:49.932Z</time></trkpt><trkpt lat="44.0299702" lon="7.9394597"><ele>319.3333333333333</ele><time>2026-04-21T08:39:50.942Z</time></trkpt><trkpt lat="44.0297976" lon="7.9394732"><ele>320.66666666666663</ele><time>2026-04-21T08:39:51.923Z</time></trkpt><trkpt lat="44.0296241" lon="7.9394881"><ele>322.0</ele><time>2026-04-21T08:39:52.939Z</time></trkpt><trkpt lat="44.0294479" lon="7.9395059"><ele>322.0</ele><time>2026-04-21T08:39:53.926Z</time></trkpt><trkpt lat="44.0292698" lon="7.9395334"><ele>322.0</ele><time>2026-04-21T08:39:54.934Z</time></trkpt><trkpt lat="44.0289093" lon="7.9396161"><ele>329.66666666666663</ele><time>2026-04-21T08:39:56.931Z</time></trkpt><trkpt lat="44.0287272" lon="7.9396623"><ele>337.3333333333333</ele><time>2026-04-21T08:39:57.923Z</time></trkpt><trkpt lat="44.0285454" lon="7.9397151"><ele>345.0</ele><time>2026-04-21T08:39:58.922Z</time></trkpt><trkpt lat="44.0283632" lon="7.9397749"><ele>346.3333333333333</ele><time>2026-04-21T08:39:59.937Z</time></trkpt><trkpt lat="44.0281796" lon="7.9398408"><ele>347.66666666666663</ele><time>2026-04-21T08:40:00.936Z</time></trkpt><trkpt lat="44.0279996" lon="7.9399141"><ele>349.0</ele><time>2026-04-21T08:40:01.929Z</time></trkpt><trkpt lat="44.0278254" lon="7.939994"><ele>338.3333333333333</ele><time>2026-04-21T08:40:02.94Z</time></trkpt><trkpt lat="44.0276545" lon="7.9400821"><ele>327.6666666666667</ele><time>2026-04-21T08:40:03.922Z</time></trkpt><trkpt lat="44.0274849" lon="7.9401747"><ele>317.0</ele><time>2026-04-21T08:40:04.938Z</time></trkpt><trkpt lat="44.0273136" lon="7.9402769"><ele>317.0</ele><time>2026-04-21T08:40:05.932Z</time></trkpt><trkpt lat="44.0271416" lon="7.9403909"><ele>317.0</ele><time>2026-04-21T08:40:06.923Z</time></trkpt><trkpt lat="44.0269712" lon="7.9405126"><ele>317.0</ele><time>2026-04-21T08:40:07.931Z</time></trkpt><trkpt lat="44.0268003" lon="7.9406387"><ele>315.33333333333337</ele><time>2026-04-21T08:40:08.932Z</time></trkpt><trkpt lat="44.0266303" lon="7.9407725"><ele>313.6666666666667</ele><time>2026-04-21T08:40:09.934Z</time></trkpt><trkpt lat="44.0264631" lon="7.9409147"><ele>312.0</ele><time>2026-04-21T08:40:10.938Z</time></trkpt><trkpt lat="44.0262979" lon="7.9410673"><ele>312.0</ele><time>2026-04-21T08:40:11.924Z</time></trkpt><trkpt lat="44.0261413" lon="7.9412223"><ele>312.0</ele><time>2026-04-21T08:40:12.945Z</time></trkpt><trkpt lat="44.0260076" lon="7.9413607"><ele>312.0</ele><time>2026-04-21T08:40:13.932Z</time></trkpt><trkpt lat="44.0258975" lon="7.9414822"><ele>312.0</ele><time>2026-04-21T08:40:14.943Z</time></trkpt><trkpt lat="44.0258141" lon="7.9415811"><ele>312.0</ele><time>2026-04-21T08:40:15.938Z</time></trkpt><trkpt lat="44.0256997" lon="7.9417409"><ele>312.0</ele><time>2026-04-21T08:40:18.94Z</time></trkpt><trkpt lat="44.0256562" lon="7.9418074"><ele>312.0</ele><time>2026-04-21T08:40:20.932Z</time></trkpt><trkpt lat="44.0256143" lon="7.9418855"><ele>312.0</ele><time>2026-04-21T08:40:22.938Z</time></trkpt><trkpt lat="44.0255647" lon="7.9419771"><ele>308.8333333333333</ele><time>2026-04-21T08:40:24.942Z</time></trkpt><trkpt lat="44.0255102" lon="7.9420797"><ele>305.6666666666667</ele><time>2026-04-21T08:40:26.922Z</time></trkpt><trkpt lat="44.0254636" lon="7.9421736"><ele>302.5</ele><time>2026-04-21T08:40:28.934Z</time></trkpt><trkpt lat="44.0253945" lon="7.9422718"><ele>299.33333333333337</ele><time>2026-04-21T08:40:30.928Z</time></trkpt><trkpt lat="44.0253288" lon="7.9423627"><ele>296.1666666666667</ele><time>2026-04-21T08:40:32.922Z</time></trkpt><trkpt lat="44.0252796" lon="7.9424448"><ele>293.0</ele><time>2026-04-21T08:40:34.921Z</time></trkpt><trkpt lat="44.0252335" lon="7.9425114"><ele>292.6666666666667</ele><time>2026-04-21T08:40:37.938Z</time></trkpt><trkpt lat="44.0251284" lon="7.9427106"><ele>292.3333333333333</ele><time>2026-04-21T08:41:10.922Z</time></trkpt><trkpt lat="44.0249897" lon="7.9429157"><ele>292.0</ele><time>2026-04-21T08:41:12.931Z</time></trkpt><trkpt lat="44.0249003" lon="7.9430511"><ele>292.0</ele><time>2026-04-21T08:41:13.927Z</time></trkpt><trkpt lat="44.0248101" lon="7.9432038"><ele>292.0</ele><time>2026-04-21T08:41:14.925Z</time></trkpt><trkpt lat="44.0247162" lon="7.9433615"><ele>292.0</ele><time>2026-04-21T08:41:15.926Z</time></trkpt><trkpt lat="44.0246248" lon="7.9435288"><ele>292.0</ele><time>2026-04-21T08:41:16.924Z</time></trkpt><trkpt lat="44.0245333" lon="7.9437073"><ele>292.0</ele><time>2026-04-21T08:41:17.927Z</time></trkpt><trkpt lat="44.0244377" lon="7.9438939"><ele>292.0</ele><time>2026-04-21T08:41:18.928Z</time></trkpt><trkpt lat="44.024341" lon="7.9440856"><ele>292.0</ele><time>2026-04-21T08:41:19.925Z</time></trkpt><trkpt lat="44.0242457" lon="7.944285"><ele>296.66666666666663</ele><time>2026-04-21T08:41:20.92Z</time></trkpt><trkpt lat="44.0241514" lon="7.9444889"><ele>301.3333333333333</ele><time>2026-04-21T08:41:21.924Z</time></trkpt><trkpt lat="44.0240572" lon="7.9446947"><ele>306.0</ele><time>2026-04-21T08:41:22.929Z</time></trkpt><trkpt lat="44.0239628" lon="7.9449032"><ele>307.0</ele><time>2026-04-21T08:41:23.922Z</time></trkpt><trkpt lat="44.0238679" lon="7.9451166"><ele>308.0</ele><time>2026-04-21T08:41:24.926Z</time></trkpt><trkpt lat="44.0237716" lon="7.9453363"><ele>309.0</ele><time>2026-04-21T08:41:25.926Z</time></trkpt><trkpt lat="44.0236739" lon="7.9455598"><ele>309.0</ele><time>2026-04-21T08:41:26.925Z</time></trkpt><trkpt lat="44.0235758" lon="7.9457852"><ele>309.0</ele><time>2026-04-21T08:41:27.926Z</time></trkpt><trkpt lat="44.023477" lon="7.9460108"><ele>309.0</ele><time>2026-04-21T08:41:28.928Z</time></trkpt><trkpt lat="44.0233773" lon="7.9462388"><ele>314.0</ele><time>2026-04-21T08:41:29.928Z</time></trkpt><trkpt lat="44.0232793" lon="7.9464691"><ele>319.0</ele><time>2026-04-21T08:41:30.925Z</time></trkpt><trkpt lat="44.0231802" lon="7.9466974"><ele>324.0</ele><time>2026-04-21T08:41:31.922Z</time></trkpt><trkpt lat="44.0229779" lon="7.9471514"><ele>324.0</ele><time>2026-04-21T08:41:33.924Z</time></trkpt><trkpt lat="44.0228762" lon="7.9473768"><ele>324.0</ele><time>2026-04-21T08:41:34.922Z</time></trkpt><trkpt lat="44.0227778" lon="7.9476063"><ele>324.0</ele><time>2026-04-21T08:41:35.92Z</time></trkpt><trkpt lat="44.0226792" lon="7.947832"><ele>325.6666666666667</ele><time>2026-04-21T08:41:36.915Z</time></trkpt><trkpt lat="44.0225791" lon="7.9480574"><ele>327.33333333333337</ele><time>2026-04-21T08:41:37.92Z</time></trkpt><trkpt lat="44.0224763" lon="7.948282"><ele>329.0</ele><time>2026-04-21T08:41:38.922Z</time></trkpt><trkpt lat="44.0223723" lon="7.9485077"><ele>329.0</ele><time>2026-04-21T08:41:39.914Z</time></trkpt><trkpt lat="44.0222698" lon="7.948736"><ele>329.0</ele><time>2026-04-21T08:41:40.923Z</time></trkpt><trkpt lat="44.0221688" lon="7.9489651"><ele>329.0</ele><time>2026-04-21T08:41:41.922Z</time></trkpt><trkpt lat="44.0220686" lon="7.9491952"><ele>329.6666666666667</ele><time>2026-04-21T08:41:42.925Z</time></trkpt><trkpt lat="44.0219681" lon="7.9494283"><ele>330.3333333333333</ele><time>2026-04-21T08:41:43.923Z</time></trkpt><trkpt lat="44.021867" lon="7.9496614"><ele>331.0</ele><time>2026-04-21T08:41:44.917Z</time></trkpt><trkpt lat="44.0217661" lon="7.9498934"><ele>334.0</ele><time>2026-04-21T08:41:45.924Z</time></trkpt><trkpt lat="44.0216646" lon="7.9501234"><ele>337.0</ele><time>2026-04-21T08:41:46.919Z</time></trkpt><trkpt lat="44.0215639" lon="7.9503507"><ele>340.0</ele><time>2026-04-21T08:41:47.919Z</time></trkpt><trkpt lat="44.0214647" lon="7.9505794"><ele>346.66666666666663</ele><time>2026-04-21T08:41:48.919Z</time></trkpt><trkpt lat="44.0213668" lon="7.9508077"><ele>353.3333333333333</ele><time>2026-04-21T08:41:49.92Z</time></trkpt><trkpt lat="44.0212701" lon="7.9510369"><ele>360.0</ele><time>2026-04-21T08:41:50.919Z</time></trkpt><trkpt lat="44.0211753" lon="7.9512652"><ele>360.0</ele><time>2026-04-21T08:41:51.921Z</time></trkpt><trkpt lat="44.0210809" lon="7.9514931"><ele>360.0</ele><time>2026-04-21T08:41:52.92Z</time></trkpt><trkpt lat="44.0208896" lon="7.9519264"><ele>373.33333333333337</ele><time>2026-04-21T08:41:54.917Z</time></trkpt><trkpt lat="44.0208025" lon="7.9521389"><ele>386.6666666666667</ele><time>2026-04-21T08:41:55.918Z</time></trkpt><trkpt lat="44.020719" lon="7.9523495"><ele>400.0</ele><time>2026-04-21T08:41:56.92Z</time></trkpt><trkpt lat="44.0206425" lon="7.9525481"><ele>407.5</ele><time>2026-04-21T08:41:57.915Z</time></trkpt><trkpt lat="44.0205597" lon="7.9527449"><ele>415.0</ele><time>2026-04-21T08:41:58.917Z</time></trkpt><trkpt lat="44.0090708" lon="7.9682316"><ele>394.0</ele><time>2026-04-21T08:43:27.918Z</time></trkpt><trkpt lat="44.0088335" lon="7.9683559"><ele>373.0</ele><time>2026-04-21T08:43:29.925Z</time></trkpt><trkpt lat="44.0087286" lon="7.9684848"><ele>352.0</ele><time>2026-04-21T08:43:30.929Z</time></trkpt><trkpt lat="44.0085698" lon="7.9685852"><ele>352.0</ele><time>2026-04-21T08:43:31.921Z</time></trkpt><trkpt lat="44.0084308" lon="7.9686792"><ele>352.0</ele><time>2026-04-21T08:43:32.926Z</time></trkpt><trkpt lat="44.0082913" lon="7.9687809"><ele>352.0</ele><time>2026-04-21T08:43:33.925Z</time></trkpt><trkpt lat="44.0081524" lon="7.9688802"><ele>349.3333333333333</ele><time>2026-04-21T08:43:34.919Z</time></trkpt><trkpt lat="44.008016" lon="7.9689814"><ele>346.6666666666667</ele><time>2026-04-21T08:43:35.937Z</time></trkpt><trkpt lat="44.0078719" lon="7.9690867"><ele>344.0</ele><time>2026-04-21T08:43:36.921Z</time></trkpt><trkpt lat="44.0077287" lon="7.969195"><ele>350.0</ele><time>2026-04-21T08:43:37.915Z</time></trkpt><trkpt lat="44.0075899" lon="7.9693"><ele>356.0</ele><time>2026-04-21T08:43:38.918Z</time></trkpt><trkpt lat="44.0074467" lon="7.9694012"><ele>362.0</ele><time>2026-04-21T08:43:39.918Z</time></trkpt><trkpt lat="44.0073014" lon="7.9694963"><ele>362.0</ele><time>2026-04-21T08:43:40.91Z</time></trkpt><trkpt lat="44.0071556" lon="7.969596"><ele>362.0</ele><time>2026-04-21T08:43:41.918Z</time></trkpt><trkpt lat="44.0070111" lon="7.9697045"><ele>362.0</ele><time>2026-04-21T08:43:42.925Z</time></trkpt><trkpt lat="44.0068678" lon="7.9698177"><ele>362.0</ele><time>2026-04-21T08:43:43.915Z</time></trkpt><trkpt lat="44.0067301" lon="7.9699374"><ele>362.0</ele><time>2026-04-21T08:43:44.916Z</time></trkpt><trkpt lat="44.0065883" lon="7.9700529"><ele>362.0</ele><time>2026-04-21T08:43:45.913Z</time></trkpt><trkpt lat="44.0027959" lon="7.9727956"><ele>340.33333333333337</ele><time>2026-04-21T08:44:11.921Z</time></trkpt><trkpt lat="44.002533" lon="7.973004"><ele>318.6666666666667</ele><time>2026-04-21T08:44:13.924Z</time></trkpt><trkpt lat="44.0024143" lon="7.9731224"><ele>297.0</ele><time>2026-04-21T08:44:14.927Z</time></trkpt><trkpt lat="44.0022613" lon="7.9732343"><ele>296.3333333333333</ele><time>2026-04-21T08:44:15.931Z</time></trkpt><trkpt lat="44.0021272" lon="7.9733405"><ele>295.66666666666663</ele><time>2026-04-21T08:44:16.938Z</time></trkpt><trkpt lat="44.0019792" lon="7.9734497"><ele>295.0</ele><time>2026-04-21T08:44:17.929Z</time></trkpt><trkpt lat="44.0018294" lon="7.9735576"><ele>295.0</ele><time>2026-04-21T08:44:18.93Z</time></trkpt><trkpt lat="44.0016783" lon="7.9736656"><ele>295.0</ele><time>2026-04-21T08:44:19.923Z</time></trkpt><trkpt lat="44.0015278" lon="7.973776"><ele>295.0</ele><time>2026-04-21T08:44:20.931Z</time></trkpt><trkpt lat="44.0013774" lon="7.9738887"><ele>302.66666666666663</ele><time>2026-04-21T08:44:21.919Z</time></trkpt><trkpt lat="44.0012266" lon="7.9740016"><ele>310.3333333333333</ele><time>2026-04-21T08:44:22.942Z</time></trkpt><trkpt lat="44.0010752" lon="7.9741146"><ele>318.0</ele><time>2026-04-21T08:44:23.937Z</time></trkpt><trkpt lat="44.000927" lon="7.9742264"><ele>329.0</ele><time>2026-04-21T08:44:24.945Z</time></trkpt><trkpt lat="44.0007803" lon="7.9743358"><ele>340.0</ele><time>2026-04-21T08:44:25.936Z</time></trkpt><trkpt lat="44.0006352" lon="7.9744452"><ele>351.0</ele><time>2026-04-21T08:44:26.937Z</time></trkpt><trkpt lat="44.0004934" lon="7.9745566"><ele>351.0</ele><time>2026-04-21T08:44:27.922Z</time></trkpt><trkpt lat="44.0003563" lon="7.9746676"><ele>351.0</ele><time>2026-04-21T08:44:28.927Z</time></trkpt><trkpt lat="44.0002212" lon="7.9747762"><ele>351.0</ele><time>2026-04-21T08:44:29.929Z</time></trkpt><trkpt lat="43.9958732" lon="7.9751286"><ele>331.0</ele><time>2026-04-21T08:44:58.918Z</time></trkpt><trkpt lat="43.9955476" lon="7.9749581"><ele>311.0</ele><time>2026-04-21T08:45:00.917Z</time></trkpt><trkpt lat="43.9954244" lon="7.9748663"><ele>311.0</ele><time>2026-04-21T08:45:01.925Z</time></trkpt><trkpt lat="43.9952874" lon="7.97475"><ele>311.0</ele><time>2026-04-21T08:45:02.922Z</time></trkpt><trkpt lat="43.9951512" lon="7.9746306"><ele>311.0</ele><time>2026-04-21T08:45:03.919Z</time></trkpt><trkpt lat="43.995013" lon="7.9744966"><ele>311.6666666666667</ele><time>2026-04-21T08:45:04.929Z</time></trkpt><trkpt lat="43.9948703" lon="7.9743569"><ele>312.3333333333333</ele><time>2026-04-21T08:45:05.923Z</time></trkpt><trkpt lat="43.9947246" lon="7.9742095"><ele>313.0</ele><time>2026-04-21T08:45:06.93Z</time></trkpt><trkpt lat="43.9945767" lon="7.9740666"><ele>313.0</ele><time>2026-04-21T08:45:07.931Z</time></trkpt><trkpt lat="43.9944271" lon="7.9739246"><ele>313.0</ele><time>2026-04-21T08:45:08.932Z</time></trkpt><trkpt lat="43.9942742" lon="7.9737837"><ele>313.0</ele><time>2026-04-21T08:45:09.931Z</time></trkpt><trkpt lat="43.994117" lon="7.9736407"><ele>311.3333333333333</ele><time>2026-04-21T08:45:10.922Z</time></trkpt><trkpt lat="43.9939617" lon="7.9734976"><ele>309.6666666666667</ele><time>2026-04-21T08:45:11.933Z</time></trkpt><trkpt lat="43.9938057" lon="7.9733533"><ele>308.0</ele><time>2026-04-21T08:45:12.939Z</time></trkpt><trkpt lat="43.9936493" lon="7.9732091"><ele>308.0</ele><time>2026-04-21T08:45:13.941Z</time></trkpt><trkpt lat="43.9934932" lon="7.973061"><ele>308.0</ele><time>2026-04-21T08:45:14.938Z</time></trkpt><trkpt lat="43.9933354" lon="7.9729141"><ele>308.0</ele><time>2026-04-21T08:45:15.935Z</time></trkpt><trkpt lat="43.9931804" lon="7.9727704"><ele>311.0</ele><time>2026-04-21T08:45:16.925Z</time></trkpt><trkpt lat="43.9930276" lon="7.9726241"><ele>314.0</ele><time>2026-04-21T08:45:17.924Z</time></trkpt><trkpt lat="43.9928762" lon="7.9724762"><ele>317.0</ele><time>2026-04-21T08:45:18.939Z</time></trkpt><trkpt lat="43.992727" lon="7.9723178"><ele>311.0</ele><time>2026-04-21T08:45:19.938Z</time></trkpt><trkpt lat="43.9924538" lon="7.9719653"><ele>305.0</ele><time>2026-04-21T08:45:21.937Z</time></trkpt><trkpt lat="43.9923346" lon="7.9717731"><ele>301.33333333333337</ele><time>2026-04-21T08:45:22.933Z</time></trkpt><trkpt lat="43.9922243" lon="7.9715799"><ele>297.6666666666667</ele><time>2026-04-21T08:45:23.94Z</time></trkpt><trkpt lat="43.9921124" lon="7.971394"><ele>294.0</ele><time>2026-04-21T08:45:24.94Z</time></trkpt><trkpt lat="43.9919877" lon="7.9712277"><ele>294.0</ele><time>2026-04-21T08:45:25.948Z</time></trkpt><trkpt lat="43.9918472" lon="7.97108"><ele>294.0</ele><time>2026-04-21T08:45:26.936Z</time></trkpt><trkpt lat="43.9916906" lon="7.9709503"><ele>294.0</ele><time>2026-04-21T08:45:27.92Z</time></trkpt><trkpt lat="43.99152" lon="7.9708446"><ele>291.0</ele><time>2026-04-21T08:45:28.929Z</time></trkpt><trkpt lat="43.9913389" lon="7.9707715"><ele>288.0</ele><time>2026-04-21T08:45:29.935Z</time></trkpt><trkpt lat="43.9911603" lon="7.9707273"><ele>285.0</ele><time>2026-04-21T08:45:30.944Z</time></trkpt><trkpt lat="43.990985" lon="7.9707023"><ele>286.6666666666667</ele><time>2026-04-21T08:45:31.936Z</time></trkpt><trkpt lat="43.9908175" lon="7.9706971"><ele>288.33333333333337</ele><time>2026-04-21T08:45:32.935Z</time></trkpt><trkpt lat="43.9906518" lon="7.9707169"><ele>290.0</ele><time>2026-04-21T08:45:33.932Z</time></trkpt><trkpt lat="43.9904846" lon="7.9707606"><ele>290.0</ele><time>2026-04-21T08:45:34.936Z</time></trkpt><trkpt lat="43.9903108" lon="7.9708089"><ele>290.0</ele><time>2026-04-21T08:45:35.943Z</time></trkpt><trkpt lat="43.9901409" lon="7.970865"><ele>290.0</ele><time>2026-04-21T08:45:36.93Z</time></trkpt><trkpt lat="43.9899689" lon="7.9709138"><ele>292.33333333333337</ele><time>2026-04-21T08:45:37.935Z</time></trkpt><trkpt lat="43.9897945" lon="7.9709603"><ele>294.6666666666667</ele><time>2026-04-21T08:45:38.939Z</time></trkpt><trkpt lat="43.9896185" lon="7.9710047"><ele>297.0</ele><time>2026-04-21T08:45:39.928Z</time></trkpt><trkpt lat="43.9894413" lon="7.9710349"><ele>296.5</ele><time>2026-04-21T08:45:40.943Z</time></trkpt><trkpt lat="43.9890889" lon="7.9710158"><ele>296.0</ele><time>2026-04-21T08:45:42.942Z</time></trkpt><trkpt lat="43.9889103" lon="7.9709662"><ele>296.0</ele><time>2026-04-21T08:45:43.934Z</time></trkpt><trkpt lat="43.9887361" lon="7.9708916"><ele>296.0</ele><time>2026-04-21T08:45:44.933Z</time></trkpt><trkpt lat="43.9885642" lon="7.9707945"><ele>296.0</ele><time>2026-04-21T08:45:45.939Z</time></trkpt><trkpt lat="43.9883911" lon="7.9706855"><ele>290.33333333333337</ele><time>2026-04-21T08:45:46.934Z</time></trkpt><trkpt lat="43.9882184" lon="7.9705694"><ele>284.6666666666667</ele><time>2026-04-21T08:45:47.927Z</time></trkpt><trkpt lat="43.9880472" lon="7.9704548"><ele>279.0</ele><time>2026-04-21T08:45:48.933Z</time></trkpt><trkpt lat="43.9878792" lon="7.9703444"><ele>279.0</ele><time>2026-04-21T08:45:49.931Z</time></trkpt><trkpt lat="43.9877065" lon="7.970237"><ele>279.0</ele><time>2026-04-21T08:45:50.931Z</time></trkpt><trkpt lat="43.9875256" lon="7.9701444"><ele>279.0</ele><time>2026-04-21T08:45:51.926Z</time></trkpt><trkpt lat="43.9873407" lon="7.9700795"><ele>281.0</ele><time>2026-04-21T08:45:52.938Z</time></trkpt><trkpt lat="43.9871535" lon="7.9700459"><ele>283.0</ele><time>2026-04-21T08:45:53.939Z</time></trkpt><trkpt lat="43.9869699" lon="7.9700333"><ele>285.0</ele><time>2026-04-21T08:45:54.943Z</time></trkpt><trkpt lat="43.9867896" lon="7.9700332"><ele>286.0</ele><time>2026-04-21T08:45:55.943Z</time></trkpt><trkpt lat="43.9866191" lon="7.9700322"><ele>287.0</ele><time>2026-04-21T08:45:56.933Z</time></trkpt><trkpt lat="43.986468" lon="7.9700218"><ele>288.0</ele><time>2026-04-21T08:45:57.933Z</time></trkpt><trkpt lat="43.9863393" lon="7.9700214"><ele>288.0</ele><time>2026-04-21T08:45:58.934Z</time></trkpt><trkpt lat="43.9862345" lon="7.9700319"><ele>288.0</ele><time>2026-04-21T08:45:59.933Z</time></trkpt><trkpt lat="43.9861537" lon="7.9700431"><ele>288.0</ele><time>2026-04-21T08:46:00.93Z</time></trkpt><trkpt lat="43.9860569" lon="7.9700514"><ele>288.0</ele><time>2026-04-21T08:46:02.924Z</time></trkpt><trkpt lat="43.9858481" lon="7.9701817"><ele>286.4</ele><time>2026-04-21T09:02:30.923Z</time></trkpt><trkpt lat="43.9857716" lon="7.9701997"><ele>284.8</ele><time>2026-04-21T09:02:31.923Z</time></trkpt><trkpt lat="43.9856844" lon="7.9702204"><ele>283.2</ele><time>2026-04-21T09:02:32.922Z</time></trkpt><trkpt lat="43.985586" lon="7.970239"><ele>281.6</ele><time>2026-04-21T09:02:33.922Z</time></trkpt><trkpt lat="43.9854759" lon="7.970257"><ele>280.0</ele><time>2026-04-21T09:02:34.93Z</time></trkpt><trkpt lat="43.9853578" lon="7.9702802"><ele>280.0</ele><time>2026-04-21T09:02:35.92Z</time></trkpt><trkpt lat="43.9852337" lon="7.9703065"><ele>280.0</ele><time>2026-04-21T09:02:36.917Z</time></trkpt><trkpt lat="43.9851043" lon="7.9703476"><ele>280.0</ele><time>2026-04-21T09:02:37.927Z</time></trkpt><trkpt lat="43.9849703" lon="7.9704058"><ele>280.0</ele><time>2026-04-21T09:02:38.933Z</time></trkpt><trkpt lat="43.9848427" lon="7.9704745"><ele>277.0</ele><time>2026-04-21T09:02:39.939Z</time></trkpt><trkpt lat="43.9847151" lon="7.9705602"><ele>274.0</ele><time>2026-04-21T09:02:40.922Z</time></trkpt><trkpt lat="43.9845904" lon="7.9706593"><ele>271.0</ele><time>2026-04-21T09:02:41.936Z</time></trkpt><trkpt lat="43.9844671" lon="7.9707746"><ele>268.0</ele><time>2026-04-21T09:02:42.936Z</time></trkpt><trkpt lat="43.9843468" lon="7.9709051"><ele>268.0</ele><time>2026-04-21T09:02:43.93Z</time></trkpt><trkpt lat="43.9842331" lon="7.9710529"><ele>268.0</ele><time>2026-04-21T09:02:44.929Z</time></trkpt><trkpt lat="43.9841266" lon="7.9712238"><ele>268.0</ele><time>2026-04-21T09:02:45.938Z</time></trkpt><trkpt lat="43.9840246" lon="7.9714037"><ele>262.66666666666663</ele><time>2026-04-21T09:02:46.925Z</time></trkpt><trkpt lat="43.9839266" lon="7.971583"><ele>257.3333333333333</ele><time>2026-04-21T09:02:47.934Z</time></trkpt><trkpt lat="43.983828" lon="7.9717622"><ele>252.0</ele><time>2026-04-21T09:02:48.936Z</time></trkpt><trkpt lat="43.9836285" lon="7.9721219"><ele>252.0</ele><time>2026-04-21T09:02:50.94Z</time></trkpt><trkpt lat="43.9835194" lon="7.9722842"><ele>252.0</ele><time>2026-04-21T09:02:51.933Z</time></trkpt><trkpt lat="43.9834003" lon="7.9724259"><ele>252.0</ele><time>2026-04-21T09:02:52.932Z</time></trkpt><trkpt lat="43.9832723" lon="7.9725483"><ele>249.0</ele><time>2026-04-21T09:02:53.943Z</time></trkpt><trkpt lat="43.9831363" lon="7.972648"><ele>246.0</ele><time>2026-04-21T09:02:54.939Z</time></trkpt><trkpt lat="43.9829926" lon="7.9727275"><ele>243.0</ele><time>2026-04-21T09:02:55.946Z</time></trkpt><trkpt lat="43.9828489" lon="7.9727842"><ele>243.0</ele><time>2026-04-21T09:02:56.939Z</time></trkpt><trkpt lat="43.9827017" lon="7.972824"><ele>243.0</ele><time>2026-04-21T09:02:57.936Z</time></trkpt><trkpt lat="43.982552" lon="7.9728502"><ele>243.0</ele><time>2026-04-21T09:02:58.932Z</time></trkpt><trkpt lat="43.9823982" lon="7.972861"><ele>241.33333333333331</ele><time>2026-04-21T09:02:59.934Z</time></trkpt><trkpt lat="43.9822439" lon="7.9728517"><ele>239.66666666666666</ele><time>2026-04-21T09:03:00.934Z</time></trkpt><trkpt lat="43.9820874" lon="7.972825"><ele>238.0</ele><time>2026-04-21T09:03:01.937Z</time></trkpt><trkpt lat="43.9819324" lon="7.9727825"><ele>238.0</ele><time>2026-04-21T09:03:02.931Z</time></trkpt><trkpt lat="43.981782" lon="7.972725"><ele>238.0</ele><time>2026-04-21T09:03:03.93Z</time></trkpt><trkpt lat="43.9816344" lon="7.9726468"><ele>238.0</ele><time>2026-04-21T09:03:04.937Z</time></trkpt><trkpt lat="43.9814889" lon="7.9725616"><ele>232.66666666666666</ele><time>2026-04-21T09:03:05.936Z</time></trkpt><trkpt lat="43.9813447" lon="7.9724741"><ele>227.33333333333331</ele><time>2026-04-21T09:03:06.942Z</time></trkpt><trkpt lat="43.9811967" lon="7.9723866"><ele>222.0</ele><time>2026-04-21T09:03:07.93Z</time></trkpt><trkpt lat="43.9810444" lon="7.9722976"><ele>222.0</ele><time>2026-04-21T09:03:08.936Z</time></trkpt><trkpt lat="43.9808861" lon="7.9722076"><ele>222.0</ele><time>2026-04-21T09:03:09.931Z</time></trkpt><trkpt lat="43.9805665" lon="7.9720267"><ele>223.66666666666669</ele><time>2026-04-21T09:03:11.923Z</time></trkpt><trkpt lat="43.9804093" lon="7.9719276"><ele>225.33333333333334</ele><time>2026-04-21T09:03:12.943Z</time></trkpt><trkpt lat="43.9802532" lon="7.9718301"><ele>227.0</ele><time>2026-04-21T09:03:13.935Z</time></trkpt><trkpt lat="43.9800979" lon="7.971736"><ele>220.0</ele><time>2026-04-21T09:03:14.937Z</time></trkpt><trkpt lat="43.9799423" lon="7.9716462"><ele>213.0</ele><time>2026-04-21T09:03:15.926Z</time></trkpt><trkpt lat="43.9797863" lon="7.9715497"><ele>206.0</ele><time>2026-04-21T09:03:16.921Z</time></trkpt><trkpt lat="43.9796276" lon="7.9714472"><ele>206.0</ele><time>2026-04-21T09:03:17.925Z</time></trkpt><trkpt lat="43.9794709" lon="7.9713524"><ele>206.0</ele><time>2026-04-21T09:03:18.929Z</time></trkpt><trkpt lat="43.9793096" lon="7.9712558"><ele>206.0</ele><time>2026-04-21T09:03:19.93Z</time></trkpt><trkpt lat="43.9791436" lon="7.971164"><ele>213.33333333333334</ele><time>2026-04-21T09:03:20.932Z</time></trkpt><trkpt lat="43.9789785" lon="7.9710913"><ele>220.66666666666669</ele><time>2026-04-21T09:03:21.922Z</time></trkpt><trkpt lat="43.9788066" lon="7.9710333"><ele>228.0</ele><time>2026-04-21T09:03:22.933Z</time></trkpt><trkpt lat="43.978636" lon="7.9710053"><ele>228.0</ele><time>2026-04-21T09:03:23.927Z</time></trkpt><trkpt lat="43.9784603" lon="7.9709994"><ele>228.0</ele><time>2026-04-21T09:03:24.922Z</time></trkpt><trkpt lat="43.9782838" lon="7.9710196"><ele>228.0</ele><time>2026-04-21T09:03:25.931Z</time></trkpt><trkpt lat="43.978111" lon="7.9710612"><ele>229.0</ele><time>2026-04-21T09:03:26.926Z</time></trkpt><trkpt lat="43.9779433" lon="7.9711183"><ele>230.0</ele><time>2026-04-21T09:03:27.928Z</time></trkpt><trkpt lat="43.9777788" lon="7.9712011"><ele>231.0</ele><time>2026-04-21T09:03:28.932Z</time></trkpt><trkpt lat="43.9776232" lon="7.9712935"><ele>215.0</ele><time>2026-04-21T09:03:29.926Z</time></trkpt><trkpt lat="43.9774639" lon="7.9714013"><ele>199.0</ele><time>2026-04-21T09:03:30.932Z</time></trkpt><trkpt lat="43.977137" lon="7.9716458"><ele>200.66666666666666</ele><time>2026-04-21T09:03:32.925Z</time></trkpt><trkpt lat="43.9769753" lon="7.9717647"><ele>202.33333333333331</ele><time>2026-04-21T09:03:33.918Z</time></trkpt><trkpt lat="43.9768156" lon="7.9718794"><ele>204.0</ele><time>2026-04-21T09:03:34.928Z</time></trkpt><trkpt lat="43.9766559" lon="7.9719918"><ele>204.0</ele><time>2026-04-21T09:03:35.93Z</time></trkpt><trkpt lat="43.9764953" lon="7.9721087"><ele>204.0</ele><time>2026-04-21T09:03:36.917Z</time></trkpt><trkpt lat="43.9763452" lon="7.972234"><ele>204.0</ele><time>2026-04-21T09:03:37.928Z</time></trkpt><trkpt lat="43.9761979" lon="7.9723731"><ele>197.33333333333334</ele><time>2026-04-21T09:03:38.925Z</time></trkpt><trkpt lat="43.9760616" lon="7.9725319"><ele>190.66666666666669</ele><time>2026-04-21T09:03:39.925Z</time></trkpt><trkpt lat="43.9759367" lon="7.9727248"><ele>184.0</ele><time>2026-04-21T09:03:40.93Z</time></trkpt><trkpt lat="43.9758203" lon="7.9729378"><ele>184.0</ele><time>2026-04-21T09:03:41.932Z</time></trkpt><trkpt lat="43.975707" lon="7.9731539"><ele>184.0</ele><time>2026-04-21T09:03:42.935Z</time></trkpt><trkpt lat="43.9756004" lon="7.9733652"><ele>184.0</ele><time>2026-04-21T09:03:43.944Z</time></trkpt><trkpt lat="43.9755018" lon="7.9735792"><ele>187.0</ele><time>2026-04-21T09:03:44.937Z</time></trkpt><trkpt lat="43.9754272" lon="7.9738229"><ele>190.0</ele><time>2026-04-21T09:03:45.935Z</time></trkpt><trkpt lat="43.9753624" lon="7.9740617"><ele>193.0</ele><time>2026-04-21T09:03:46.933Z</time></trkpt><trkpt lat="43.9753315" lon="7.9743247"><ele>200.33333333333331</ele><time>2026-04-21T09:03:47.945Z</time></trkpt><trkpt lat="43.9753026" lon="7.9745705"><ele>207.66666666666669</ele><time>2026-04-21T09:03:48.938Z</time></trkpt><trkpt lat="43.9752835" lon="7.9748107"><ele>215.0</ele><time>2026-04-21T09:03:49.942Z</time></trkpt><trkpt lat="43.9752727" lon="7.9750456"><ele>226.5</ele><time>2026-04-21T09:03:50.94Z</time></trkpt><trkpt lat="43.9752743" lon="7.9752817"><ele>238.0</ele><time>2026-04-21T09:03:51.932Z</time></trkpt><trkpt lat="43.9752737" lon="7.9757607"><ele>245.33333333333331</ele><time>2026-04-21T09:03:53.931Z</time></trkpt><trkpt lat="43.9752652" lon="7.9759981"><ele>252.66666666666669</ele><time>2026-04-21T09:03:54.934Z</time></trkpt><trkpt lat="43.9752475" lon="7.9762384"><ele>260.0</ele><time>2026-04-21T09:03:55.93Z</time></trkpt><trkpt lat="43.975236" lon="7.9764833"><ele>266.6666666666667</ele><time>2026-04-21T09:03:56.92Z</time></trkpt><trkpt lat="43.9752259" lon="7.9767292"><ele>273.3333333333333</ele><time>2026-04-21T09:03:57.939Z</time></trkpt><trkpt lat="43.9752191" lon="7.9769692"><ele>280.0</ele><time>2026-04-21T09:03:58.92Z</time></trkpt><trkpt lat="43.9752154" lon="7.9772193"><ele>280.0</ele><time>2026-04-21T09:03:59.911Z</time></trkpt><trkpt lat="43.9752088" lon="7.977471"><ele>280.0</ele><time>2026-04-21T09:04:00.924Z</time></trkpt><trkpt lat="43.9751936" lon="7.9777216"><ele>280.0</ele><time>2026-04-21T09:04:01.915Z</time></trkpt><trkpt lat="43.975168" lon="7.9779717"><ele>286.0</ele><time>2026-04-21T09:04:02.912Z</time></trkpt><trkpt lat="43.9751357" lon="7.9782195"><ele>292.0</ele><time>2026-04-21T09:04:03.919Z</time></trkpt><trkpt lat="43.9750999" lon="7.9784599"><ele>298.0</ele><time>2026-04-21T09:04:04.919Z</time></trkpt><trkpt lat="43.9750559" lon="7.9787004"><ele>285.3333333333333</ele><time>2026-04-21T09:04:05.914Z</time></trkpt><trkpt lat="43.9750021" lon="7.9789388"><ele>272.6666666666667</ele><time>2026-04-21T09:04:06.911Z</time></trkpt><trkpt lat="43.9749411" lon="7.9791731"><ele>260.0</ele><time>2026-04-21T09:04:07.91Z</time></trkpt><trkpt lat="43.9748751" lon="7.9794025"><ele>252.0</ele><time>2026-04-21T09:04:08.913Z</time></trkpt><trkpt lat="43.9748019" lon="7.9796269"><ele>244.0</ele><time>2026-04-21T09:04:09.903Z</time></trkpt><trkpt lat="43.9747214" lon="7.9798391"><ele>236.0</ele><time>2026-04-21T09:04:10.915Z</time></trkpt><trkpt lat="43.9746354" lon="7.9800455"><ele>222.5</ele><time>2026-04-21T09:04:11.909Z</time></trkpt><trkpt lat="43.9745469" lon="7.9802393"><ele>209.0</ele><time>2026-04-21T09:04:12.914Z</time></trkpt><trkpt lat="43.9742568" lon="7.9808407"><ele>192.5</ele><time>2026-04-21T09:04:15.921Z</time></trkpt><trkpt lat="43.9741378" lon="7.9811336"><ele>176.0</ele><time>2026-04-21T09:04:16.926Z</time></trkpt><trkpt lat="43.9740134" lon="7.981387"><ele>176.0</ele><time>2026-04-21T09:04:17.929Z</time></trkpt><trkpt lat="43.9739705" lon="7.9816462"><ele>176.0</ele><time>2026-04-21T09:04:18.931Z</time></trkpt><trkpt lat="43.962664" lon="7.9909692"><ele>164.5</ele><time>2026-04-21T09:05:32.92Z</time></trkpt><trkpt lat="43.9623605" lon="7.9909344"><ele>153.0</ele><time>2026-04-21T09:05:34.929Z</time></trkpt><trkpt lat="43.9621777" lon="7.9909257"><ele>153.0</ele><time>2026-04-21T09:05:35.921Z</time></trkpt><trkpt lat="43.9620182" lon="7.9909294"><ele>153.0</ele><time>2026-04-21T09:05:36.939Z</time></trkpt><trkpt lat="43.9618623" lon="7.990939"><ele>153.0</ele><time>2026-04-21T09:05:37.931Z</time></trkpt><trkpt lat="43.9617125" lon="7.9909625"><ele>150.0</ele><time>2026-04-21T09:05:38.932Z</time></trkpt><trkpt lat="43.9615557" lon="7.9909773"><ele>147.0</ele><time>2026-04-21T09:05:39.932Z</time></trkpt><trkpt lat="43.9614003" lon="7.9909941"><ele>144.0</ele><time>2026-04-21T09:05:40.933Z</time></trkpt><trkpt lat="43.9612453" lon="7.9910207"><ele>144.0</ele><time>2026-04-21T09:05:41.93Z</time></trkpt><trkpt lat="43.9610966" lon="7.9910662"><ele>144.0</ele><time>2026-04-21T09:05:42.938Z</time></trkpt><trkpt lat="43.9609528" lon="7.9911309"><ele>144.0</ele><time>2026-04-21T09:05:43.925Z</time></trkpt><trkpt lat="43.9608097" lon="7.9912082"><ele>137.33333333333334</ele><time>2026-04-21T09:05:44.934Z</time></trkpt><trkpt lat="43.9606666" lon="7.991295"><ele>130.66666666666669</ele><time>2026-04-21T09:05:45.931Z</time></trkpt><trkpt lat="43.960527" lon="7.9913964"><ele>124.0</ele><time>2026-04-21T09:05:46.923Z</time></trkpt><trkpt lat="43.960357" lon="7.9913533"><ele>124.0</ele><time>2026-04-21T09:05:47.939Z</time></trkpt><trkpt lat="43.960229" lon="7.9914893"><ele>124.0</ele><time>2026-04-21T09:05:48.939Z</time></trkpt><trkpt lat="43.9601048" lon="7.9916329"><ele>124.0</ele><time>2026-04-21T09:05:49.941Z</time></trkpt><trkpt lat="43.9599793" lon="7.9917823"><ele>122.66666666666667</ele><time>2026-04-21T09:05:50.939Z</time></trkpt><trkpt lat="43.9598527" lon="7.991931"><ele>121.33333333333334</ele><time>2026-04-21T09:05:51.935Z</time></trkpt><trkpt lat="43.9597269" lon="7.9920808"><ele>120.0</ele><time>2026-04-21T09:05:52.937Z</time></trkpt><trkpt lat="43.9596008" lon="7.9922297"><ele>133.0</ele><time>2026-04-21T09:05:53.943Z</time></trkpt><trkpt lat="43.9593449" lon="7.9925222"><ele>146.0</ele><time>2026-04-21T09:05:55.937Z</time></trkpt><trkpt lat="43.9592165" lon="7.992677"><ele>139.0</ele><time>2026-04-21T09:05:56.932Z</time></trkpt><trkpt lat="43.9590879" lon="7.9928331"><ele>132.0</ele><time>2026-04-21T09:05:57.939Z</time></trkpt><trkpt lat="43.9589591" lon="7.9929876"><ele>125.0</ele><time>2026-04-21T09:05:58.929Z</time></trkpt><trkpt lat="43.9588293" lon="7.9931428"><ele>125.0</ele><time>2026-04-21T09:05:59.939Z</time></trkpt><trkpt lat="43.9586999" lon="7.9932962"><ele>125.0</ele><time>2026-04-21T09:06:00.93Z</time></trkpt><trkpt lat="43.9585714" lon="7.993449"><ele>125.0</ele><time>2026-04-21T09:06:01.934Z</time></trkpt><trkpt lat="43.9584468" lon="7.9936033"><ele>121.33333333333333</ele><time>2026-04-21T09:06:02.934Z</time></trkpt><trkpt lat="43.9583263" lon="7.9937636"><ele>117.66666666666666</ele><time>2026-04-21T09:06:03.938Z</time></trkpt><trkpt lat="43.958215" lon="7.9939327"><ele>114.0</ele><time>2026-04-21T09:06:04.946Z</time></trkpt><trkpt lat="43.9581115" lon="7.9941134"><ele>116.33333333333334</ele><time>2026-04-21T09:06:05.933Z</time></trkpt><trkpt lat="43.9580275" lon="7.9943098"><ele>118.66666666666667</ele><time>2026-04-21T09:06:06.935Z</time></trkpt><trkpt lat="43.9579618" lon="7.994512"><ele>121.0</ele><time>2026-04-21T09:06:07.935Z</time></trkpt><trkpt lat="43.9579149" lon="7.9947259"><ele>121.0</ele><time>2026-04-21T09:06:08.928Z</time></trkpt><trkpt lat="43.9578706" lon="7.9949424"><ele>121.0</ele><time>2026-04-21T09:06:09.933Z</time></trkpt><trkpt lat="43.9578214" lon="7.9951636"><ele>121.0</ele><time>2026-04-21T09:06:10.935Z</time></trkpt><trkpt lat="43.9577746" lon="7.9953835"><ele>123.66666666666667</ele><time>2026-04-21T09:06:11.928Z</time></trkpt><trkpt lat="43.9577286" lon="7.9956033"><ele>126.33333333333334</ele><time>2026-04-21T09:06:12.944Z</time></trkpt><trkpt lat="43.9576808" lon="7.9958215"><ele>129.0</ele><time>2026-04-21T09:06:13.933Z</time></trkpt><trkpt lat="43.9576311" lon="7.9960329"><ele>126.5</ele><time>2026-04-21T09:06:14.935Z</time></trkpt><trkpt lat="43.9575262" lon="7.9964567"><ele>124.0</ele><time>2026-04-21T09:06:16.941Z</time></trkpt><trkpt lat="43.9574735" lon="7.9966699"><ele>124.0</ele><time>2026-04-21T09:06:17.933Z</time></trkpt><trkpt lat="43.9574185" lon="7.9968838"><ele>124.0</ele><time>2026-04-21T09:06:18.936Z</time></trkpt><trkpt lat="43.9573545" lon="7.9970973"><ele>124.0</ele><time>2026-04-21T09:06:19.939Z</time></trkpt><trkpt lat="43.9572762" lon="7.9973028"><ele>124.0</ele><time>2026-04-21T09:06:20.93Z</time></trkpt><trkpt lat="43.9571813" lon="7.997495"><ele>124.0</ele><time>2026-04-21T09:06:21.935Z</time></trkpt><trkpt lat="43.9570756" lon="7.9976788"><ele>124.0</ele><time>2026-04-21T09:06:22.947Z</time></trkpt><trkpt lat="43.9569647" lon="7.9978604"><ele>139.0</ele><time>2026-04-21T09:06:23.937Z</time></trkpt><trkpt lat="43.9568564" lon="7.9980479"><ele>154.0</ele><time>2026-04-21T09:06:24.932Z</time></trkpt><trkpt lat="43.9567558" lon="7.9982262"><ele>169.0</ele><time>2026-04-21T09:06:25.928Z</time></trkpt><trkpt lat="43.9566608" lon="7.9983977"><ele>170.66666666666669</ele><time>2026-04-21T09:06:26.924Z</time></trkpt><trkpt lat="43.9565633" lon="7.9985715"><ele>172.33333333333334</ele><time>2026-04-21T09:06:27.914Z</time></trkpt><trkpt lat="43.9564666" lon="7.9987504"><ele>174.0</ele><time>2026-04-21T09:06:28.92Z</time></trkpt><trkpt lat="43.9563749" lon="7.9989294"><ele>174.0</ele><time>2026-04-21T09:06:29.924Z</time></trkpt><trkpt lat="43.9563185" lon="7.9990355"><ele>174.0</ele><time>2026-04-21T09:06:30.922Z</time></trkpt><trkpt lat="43.9561871" lon="7.9992864"><ele>174.0</ele><time>2026-04-21T09:06:31.911Z</time></trkpt><trkpt lat="43.9560976" lon="7.9994549"><ele>176.25</ele><time>2026-04-21T09:06:32.908Z</time></trkpt><trkpt lat="43.956009" lon="7.9996191"><ele>178.5</ele><time>2026-04-21T09:06:33.915Z</time></trkpt><trkpt lat="43.9559227" lon="7.9997802"><ele>180.75</ele><time>2026-04-21T09:06:34.921Z</time></trkpt><trkpt lat="43.9558397" lon="7.9999373"><ele>183.0</ele><time>2026-04-21T09:06:35.917Z</time></trkpt><trkpt lat="43.9556685" lon="8.000238"><ele>175.75</ele><time>2026-04-21T09:06:37.909Z</time></trkpt><trkpt lat="43.955578" lon="8.0003701"><ele>168.5</ele><time>2026-04-21T09:06:38.908Z</time></trkpt><trkpt lat="43.9554816" lon="8.0004976"><ele>161.25</ele><time>2026-04-21T09:06:39.914Z</time></trkpt><trkpt lat="43.9553835" lon="8.0006199"><ele>154.0</ele><time>2026-04-21T09:06:40.907Z</time></trkpt><trkpt lat="43.9552817" lon="8.0007387"><ele>157.0</ele><time>2026-04-21T09:06:41.91Z</time></trkpt><trkpt lat="43.9551777" lon="8.0008516"><ele>160.0</ele><time>2026-04-21T09:06:42.908Z</time></trkpt><trkpt lat="43.9550666" lon="8.0009634"><ele>163.0</ele><time>2026-04-21T09:06:43.913Z</time></trkpt><trkpt lat="43.9549461" lon="8.0010737"><ele>166.0</ele><time>2026-04-21T09:06:44.91Z</time></trkpt><trkpt lat="43.9548201" lon="8.0011742"><ele>159.0</ele><time>2026-04-21T09:06:45.907Z</time></trkpt><trkpt lat="43.954692" lon="8.0012672"><ele>152.0</ele><time>2026-04-21T09:06:46.909Z</time></trkpt><trkpt lat="43.9545627" lon="8.0013528"><ele>145.0</ele><time>2026-04-21T09:06:47.903Z</time></trkpt><trkpt lat="43.9544207" lon="8.0014396"><ele>138.0</ele><time>2026-04-21T09:06:48.91Z</time></trkpt><trkpt lat="43.9542643" lon="8.0015243"><ele>97.0</ele><time>2026-04-21T09:06:49.912Z</time></trkpt><trkpt lat="43.9512488" lon="8.0017664"><ele>96.0</ele><time>2026-04-21T09:07:04.932Z</time></trkpt><trkpt lat="43.9509496" lon="8.001652"><ele>95.0</ele><time>2026-04-21T09:07:06.918Z</time></trkpt><trkpt lat="43.9507851" lon="8.0016244"><ele>92.66666666666667</ele><time>2026-04-21T09:07:07.939Z</time></trkpt><trkpt lat="43.9506341" lon="8.0015611"><ele>90.33333333333333</ele><time>2026-04-21T09:07:08.94Z</time></trkpt><trkpt lat="43.9504838" lon="8.001542"><ele>88.0</ele><time>2026-04-21T09:07:09.933Z</time></trkpt><trkpt lat="43.9503108" lon="8.0014998"><ele>88.0</ele><time>2026-04-21T09:07:10.933Z</time></trkpt><trkpt lat="43.9501398" lon="8.001461"><ele>88.0</ele><time>2026-04-21T09:07:11.939Z</time></trkpt><trkpt lat="43.9499701" lon="8.0014218"><ele>88.0</ele><time>2026-04-21T09:07:12.93Z</time></trkpt><trkpt lat="43.9497974" lon="8.001378"><ele>89.33333333333333</ele><time>2026-04-21T09:07:13.937Z</time></trkpt><trkpt lat="43.9496238" lon="8.0013303"><ele>90.66666666666667</ele><time>2026-04-21T09:07:14.939Z</time></trkpt><trkpt lat="43.9494491" lon="8.0012825"><ele>92.0</ele><time>2026-04-21T09:07:15.935Z</time></trkpt><trkpt lat="43.9492759" lon="8.0012375"><ele>96.0</ele><time>2026-04-21T09:07:16.937Z</time></trkpt><trkpt lat="43.9491027" lon="8.0011929"><ele>100.0</ele><time>2026-04-21T09:07:17.934Z</time></trkpt><trkpt lat="43.9489301" lon="8.0011498"><ele>104.0</ele><time>2026-04-21T09:07:18.946Z</time></trkpt><trkpt lat="43.9487565" lon="8.001107"><ele>104.0</ele><time>2026-04-21T09:07:19.942Z</time></trkpt><trkpt lat="43.9485834" lon="8.0010664"><ele>104.0</ele><time>2026-04-21T09:07:20.941Z</time></trkpt><trkpt lat="43.9484135" lon="8.0010266"><ele>104.0</ele><time>2026-04-21T09:07:21.937Z</time></trkpt><trkpt lat="43.9482428" lon="8.0009857"><ele>102.0</ele><time>2026-04-21T09:07:22.945Z</time></trkpt><trkpt lat="43.9480724" lon="8.0009394"><ele>100.0</ele><time>2026-04-21T09:07:23.935Z</time></trkpt><trkpt lat="43.9479002" lon="8.0008945"><ele>98.0</ele><time>2026-04-21T09:07:24.946Z</time></trkpt><trkpt lat="43.9477292" lon="8.0008451"><ele>103.0</ele><time>2026-04-21T09:07:25.928Z</time></trkpt><trkpt lat="43.947389" lon="8.0007204"><ele>108.0</ele><time>2026-04-21T09:07:27.941Z</time></trkpt><trkpt lat="43.94722" lon="8.0006442"><ele>108.0</ele><time>2026-04-21T09:07:28.94Z</time></trkpt><trkpt lat="43.9470529" lon="8.0005645"><ele>108.0</ele><time>2026-04-21T09:07:29.948Z</time></trkpt><trkpt lat="43.9468867" lon="8.0004873"><ele>108.0</ele><time>2026-04-21T09:07:30.933Z</time></trkpt><trkpt lat="43.9467201" lon="8.0004107"><ele>107.66666666666666</ele><time>2026-04-21T09:07:31.931Z</time></trkpt><trkpt lat="43.9465563" lon="8.0003365"><ele>107.33333333333333</ele><time>2026-04-21T09:07:32.934Z</time></trkpt><trkpt lat="43.9463968" lon="8.0002622"><ele>107.0</ele><time>2026-04-21T09:07:33.923Z</time></trkpt><trkpt lat="43.9462365" lon="8.000186"><ele>107.0</ele><time>2026-04-21T09:07:34.935Z</time></trkpt><trkpt lat="43.9460783" lon="8.0001065"><ele>107.0</ele><time>2026-04-21T09:07:35.93Z</time></trkpt><trkpt lat="43.9459233" lon="8.0000379"><ele>107.0</ele><time>2026-04-21T09:07:36.928Z</time></trkpt><trkpt lat="43.9457916" lon="8.0000722"><ele>111.75</ele><time>2026-04-21T09:07:37.916Z</time></trkpt><trkpt lat="43.9456462" lon="8.0000434"><ele>116.5</ele><time>2026-04-21T09:07:38.922Z</time></trkpt><trkpt lat="43.9455028" lon="8.0000223"><ele>121.25</ele><time>2026-04-21T09:07:39.917Z</time></trkpt><trkpt lat="43.9453622" lon="8.0000095"><ele>126.0</ele><time>2026-04-21T09:07:40.91Z</time></trkpt><trkpt lat="43.9452246" lon="8.000003"><ele>126.0</ele><time>2026-04-21T09:07:41.917Z</time></trkpt><trkpt lat="43.945089" lon="8.0000034"><ele>126.0</ele><time>2026-04-21T09:07:42.919Z</time></trkpt><trkpt lat="43.9449559" lon="8.0000095"><ele>126.0</ele><time>2026-04-21T09:07:43.912Z</time></trkpt><trkpt lat="43.9448264" lon="8.0000219"><ele>126.0</ele><time>2026-04-21T09:07:44.917Z</time></trkpt><trkpt lat="43.9446995" lon="8.0000398"><ele>128.33333333333334</ele><time>2026-04-21T09:07:45.917Z</time></trkpt><trkpt lat="43.9445756" lon="8.0000628"><ele>130.66666666666669</ele><time>2026-04-21T09:07:46.918Z</time></trkpt><trkpt lat="43.9443325" lon="8.0001259"><ele>133.0</ele><time>2026-04-21T09:07:48.912Z</time></trkpt><trkpt lat="43.9442147" lon="8.0001649"><ele>137.5</ele><time>2026-04-21T09:07:49.909Z</time></trkpt><trkpt lat="43.9441036" lon="8.0002068"><ele>142.0</ele><time>2026-04-21T09:07:50.903Z</time></trkpt><trkpt lat="43.9439965" lon="8.0002522"><ele>146.5</ele><time>2026-04-21T09:07:51.905Z</time></trkpt><trkpt lat="43.9438924" lon="8.0003007"><ele>151.0</ele><time>2026-04-21T09:07:52.9Z</time></trkpt><trkpt lat="43.9437863" lon="8.0003547"><ele>151.0</ele><time>2026-04-21T09:07:53.909Z</time></trkpt><trkpt lat="43.9436864" lon="8.0004114"><ele>151.0</ele><time>2026-04-21T09:07:54.91Z</time></trkpt><trkpt lat="43.9435884" lon="8.0004729"><ele>151.0</ele><time>2026-04-21T09:07:55.916Z</time></trkpt><trkpt lat="43.9434936" lon="8.000536"><ele>151.0</ele><time>2026-04-21T09:07:56.915Z</time></trkpt><trkpt lat="43.9434028" lon="8.0006007"><ele>151.0</ele><time>2026-04-21T09:07:57.909Z</time></trkpt><trkpt lat="43.9407053" lon="8.0029591"><ele>82.0</ele><time>2026-04-21T09:08:08.923Z</time></trkpt><trkpt lat="43.9347273" lon="8.0140934"><ele>72.66666666666666</ele><time>2026-04-21T09:09:03.923Z</time></trkpt><trkpt lat="43.9345697" lon="8.0143428"><ele>63.33333333333333</ele><time>2026-04-21T09:09:04.931Z</time></trkpt><trkpt lat="43.9344635" lon="8.0145445"><ele>54.0</ele><time>2026-04-21T09:09:05.918Z</time></trkpt><trkpt lat="43.9343517" lon="8.0147606"><ele>54.0</ele><time>2026-04-21T09:09:06.931Z</time></trkpt><trkpt lat="43.9342358" lon="8.0149547"><ele>54.0</ele><time>2026-04-21T09:09:07.942Z</time></trkpt><trkpt lat="43.9341226" lon="8.0151508"><ele>54.0</ele><time>2026-04-21T09:09:08.945Z</time></trkpt><trkpt lat="43.9340083" lon="8.0153533"><ele>54.0</ele><time>2026-04-21T09:09:09.944Z</time></trkpt><trkpt lat="43.9338908" lon="8.0155559"><ele>54.0</ele><time>2026-04-21T09:09:10.921Z</time></trkpt><trkpt lat="43.9337715" lon="8.015755"><ele>54.0</ele><time>2026-04-21T09:09:11.938Z</time></trkpt><trkpt lat="43.9336521" lon="8.0159514"><ele>54.33333333333333</ele><time>2026-04-21T09:09:12.936Z</time></trkpt><trkpt lat="43.9335347" lon="8.0161497"><ele>54.666666666666664</ele><time>2026-04-21T09:09:13.948Z</time></trkpt><trkpt lat="43.9334194" lon="8.0163474"><ele>55.0</ele><time>2026-04-21T09:09:14.942Z</time></trkpt><trkpt lat="43.9333045" lon="8.0165417"><ele>54.33333333333333</ele><time>2026-04-21T09:09:15.938Z</time></trkpt><trkpt lat="43.9331916" lon="8.0167348"><ele>53.66666666666667</ele><time>2026-04-21T09:09:16.943Z</time></trkpt><trkpt lat="43.9330862" lon="8.0169292"><ele>53.0</ele><time>2026-04-21T09:09:17.943Z</time></trkpt><trkpt lat="43.9329879" lon="8.0171306"><ele>53.0</ele><time>2026-04-21T09:09:18.933Z</time></trkpt><trkpt lat="43.9329001" lon="8.0173384"><ele>53.0</ele><time>2026-04-21T09:09:19.947Z</time></trkpt><trkpt lat="43.9328226" lon="8.0175506"><ele>53.0</ele><time>2026-04-21T09:09:20.942Z</time></trkpt><trkpt lat="43.932755" lon="8.0177774"><ele>57.5</ele><time>2026-04-21T09:09:21.942Z</time></trkpt><trkpt lat="43.9326986" lon="8.0180126"><ele>62.0</ele><time>2026-04-21T09:09:22.937Z</time></trkpt><trkpt lat="43.9326165" lon="8.0184981"><ele>64.66666666666667</ele><time>2026-04-21T09:09:24.936Z</time></trkpt><trkpt lat="43.9325982" lon="8.0187439"><ele>67.33333333333333</ele><time>2026-04-21T09:09:25.939Z</time></trkpt><trkpt lat="43.9325956" lon="8.0189916"><ele>70.0</ele><time>2026-04-21T09:09:26.934Z</time></trkpt><trkpt lat="43.9325897" lon="8.0192366"><ele>74.0</ele><time>2026-04-21T09:09:27.939Z</time></trkpt><trkpt lat="43.9325787" lon="8.0194816"><ele>78.0</ele><time>2026-04-21T09:09:28.942Z</time></trkpt><trkpt lat="43.9325504" lon="8.0197213"><ele>82.0</ele><time>2026-04-21T09:09:29.931Z</time></trkpt><trkpt lat="43.932505" lon="8.0199533"><ele>74.0</ele><time>2026-04-21T09:09:30.946Z</time></trkpt><trkpt lat="43.9324351" lon="8.0201759"><ele>66.0</ele><time>2026-04-21T09:09:31.927Z</time></trkpt><trkpt lat="43.9323431" lon="8.0203918"><ele>58.0</ele><time>2026-04-21T09:09:32.947Z</time></trkpt><trkpt lat="43.9322334" lon="8.0205955"><ele>58.0</ele><time>2026-04-21T09:09:33.932Z</time></trkpt><trkpt lat="43.9321175" lon="8.0207806"><ele>58.0</ele><time>2026-04-21T09:09:34.934Z</time></trkpt><trkpt lat="43.9319984" lon="8.02095"><ele>58.0</ele><time>2026-04-21T09:09:35.938Z</time></trkpt><trkpt lat="43.9318741" lon="8.0211049"><ele>57.0</ele><time>2026-04-21T09:09:36.942Z</time></trkpt><trkpt lat="43.9317479" lon="8.0212361"><ele>56.0</ele><time>2026-04-21T09:09:37.933Z</time></trkpt><trkpt lat="43.9315984" lon="8.0213381"><ele>55.0</ele><time>2026-04-21T09:09:38.941Z</time></trkpt><trkpt lat="43.9314473" lon="8.0214072"><ele>55.0</ele><time>2026-04-21T09:09:39.93Z</time></trkpt><trkpt lat="43.9312874" lon="8.0214307"><ele>55.0</ele><time>2026-04-21T09:09:40.935Z</time></trkpt><trkpt lat="43.9311277" lon="8.0214158"><ele>55.0</ele><time>2026-04-21T09:09:41.944Z</time></trkpt><trkpt lat="43.9309686" lon="8.0213867"><ele>54.5</ele><time>2026-04-21T09:09:42.931Z</time></trkpt><trkpt lat="43.9308087" lon="8.0213357"><ele>54.0</ele><time>2026-04-21T09:09:43.94Z</time></trkpt><trkpt lat="43.9304954" lon="8.0211838"><ele>54.0</ele><time>2026-04-21T09:09:45.93Z</time></trkpt><trkpt lat="43.9303367" lon="8.0211223"><ele>54.0</ele><time>2026-04-21T09:09:46.934Z</time></trkpt><trkpt lat="43.9301821" lon="8.0210578"><ele>54.0</ele><time>2026-04-21T09:09:47.936Z</time></trkpt><trkpt lat="43.930025" lon="8.0209961"><ele>53.33333333333333</ele><time>2026-04-21T09:09:48.935Z</time></trkpt><trkpt lat="43.9298684" lon="8.0209319"><ele>52.666666666666664</ele><time>2026-04-21T09:09:49.933Z</time></trkpt><trkpt lat="43.9297112" lon="8.0208632"><ele>52.0</ele><time>2026-04-21T09:09:50.922Z</time></trkpt><trkpt lat="43.9295545" lon="8.0207965"><ele>51.0</ele><time>2026-04-21T09:09:51.933Z</time></trkpt><trkpt lat="43.9294033" lon="8.0207324"><ele>50.0</ele><time>2026-04-21T09:09:52.939Z</time></trkpt><trkpt lat="43.9292629" lon="8.0206806"><ele>49.0</ele><time>2026-04-21T09:09:53.942Z</time></trkpt><trkpt lat="43.9291311" lon="8.0206299"><ele>48.0</ele><time>2026-04-21T09:09:54.922Z</time></trkpt><trkpt lat="43.9289986" lon="8.0205803"><ele>48.0</ele><time>2026-04-21T09:09:55.94Z</time></trkpt><trkpt lat="43.9288671" lon="8.0205116"><ele>48.0</ele><time>2026-04-21T09:09:56.931Z</time></trkpt><trkpt lat="43.9287431" lon="8.0204141"><ele>48.0</ele><time>2026-04-21T09:09:57.924Z</time></trkpt><trkpt lat="43.9286253" lon="8.0203005"><ele>48.0</ele><time>2026-04-21T09:09:58.934Z</time></trkpt><trkpt lat="43.928507" lon="8.0201737"><ele>49.0</ele><time>2026-04-21T09:09:59.939Z</time></trkpt><trkpt lat="43.9283854" lon="8.0200404"><ele>50.0</ele><time>2026-04-21T09:10:00.936Z</time></trkpt><trkpt lat="43.9282613" lon="8.0199057"><ele>51.0</ele><time>2026-04-21T09:10:01.937Z</time></trkpt><trkpt lat="43.9281295" lon="8.0197798"><ele>49.666666666666664</ele><time>2026-04-21T09:10:02.933Z</time></trkpt><trkpt lat="43.9279922" lon="8.0196678"><ele>48.33333333333333</ele><time>2026-04-21T09:10:03.937Z</time></trkpt><trkpt lat="43.927842" lon="8.0195803"><ele>47.0</ele><time>2026-04-21T09:10:04.931Z</time></trkpt><trkpt lat="43.9275225" lon="8.0195005"><ele>47.0</ele><time>2026-04-21T09:10:06.931Z</time></trkpt><trkpt lat="43.9273511" lon="8.0195115"><ele>47.0</ele><time>2026-04-21T09:10:07.938Z</time></trkpt><trkpt lat="43.9271791" lon="8.0195687"><ele>47.0</ele><time>2026-04-21T09:10:08.948Z</time></trkpt><trkpt lat="43.9270236" lon="8.0196582"><ele>47.0</ele><time>2026-04-21T09:10:09.942Z</time></trkpt><trkpt lat="43.9268728" lon="8.0197734"><ele>47.0</ele><time>2026-04-21T09:10:10.937Z</time></trkpt><trkpt lat="43.9267401" lon="8.0199084"><ele>47.0</ele><time>2026-04-21T09:10:11.935Z</time></trkpt><trkpt lat="43.9266244" lon="8.0200675"><ele>47.666666666666664</ele><time>2026-04-21T09:10:12.939Z</time></trkpt><trkpt lat="43.9265187" lon="8.0202455"><ele>48.33333333333333</ele><time>2026-04-21T09:10:13.94Z</time></trkpt><trkpt lat="43.9264228" lon="8.0204328"><ele>49.0</ele><time>2026-04-21T09:10:14.944Z</time></trkpt><trkpt lat="43.926334" lon="8.0206228"><ele>49.0</ele><time>2026-04-21T09:10:15.95Z</time></trkpt><trkpt lat="43.9262467" lon="8.0208103"><ele>49.0</ele><time>2026-04-21T09:10:16.939Z</time></trkpt><trkpt lat="43.9261424" lon="8.0209831"><ele>49.0</ele><time>2026-04-21T09:10:17.937Z</time></trkpt><trkpt lat="43.9260293" lon="8.0211466"><ele>48.0</ele><time>2026-04-21T09:10:18.942Z</time></trkpt><trkpt lat="43.9259134" lon="8.0212994"><ele>47.0</ele><time>2026-04-21T09:10:19.934Z</time></trkpt><trkpt lat="43.9257906" lon="8.0214503"><ele>46.0</ele><time>2026-04-21T09:10:20.946Z</time></trkpt><trkpt lat="43.9256723" lon="8.0216011"><ele>47.333333333333336</ele><time>2026-04-21T09:10:21.938Z</time></trkpt><trkpt lat="43.9255516" lon="8.021755"><ele>48.66666666666667</ele><time>2026-04-21T09:10:22.937Z</time></trkpt><trkpt lat="43.9254337" lon="8.0219097"><ele>50.0</ele><time>2026-04-21T09:10:23.93Z</time></trkpt><trkpt lat="43.9253188" lon="8.0220611"><ele>50.0</ele><time>2026-04-21T09:10:24.942Z</time></trkpt><trkpt lat="43.9252038" lon="8.0222203"><ele>50.0</ele><time>2026-04-21T09:10:25.934Z</time></trkpt><trkpt lat="43.924972" lon="8.0225324"><ele>49.0</ele><time>2026-04-21T09:10:27.94Z</time></trkpt><trkpt lat="43.9248523" lon="8.0226776"><ele>48.0</ele><time>2026-04-21T09:10:28.947Z</time></trkpt><trkpt lat="43.9247307" lon="8.0228218"><ele>47.0</ele><time>2026-04-21T09:10:29.944Z</time></trkpt><trkpt lat="43.9246023" lon="8.0229667"><ele>47.0</ele><time>2026-04-21T09:10:30.936Z</time></trkpt><trkpt lat="43.92448" lon="8.0231105"><ele>47.0</ele><time>2026-04-21T09:10:31.924Z</time></trkpt><trkpt lat="43.9243565" lon="8.0232511"><ele>47.0</ele><time>2026-04-21T09:10:32.94Z</time></trkpt><trkpt lat="43.924234" lon="8.0233828"><ele>45.666666666666664</ele><time>2026-04-21T09:10:33.942Z</time></trkpt><trkpt lat="43.9241054" lon="8.0235059"><ele>44.333333333333336</ele><time>2026-04-21T09:10:34.94Z</time></trkpt><trkpt lat="43.9239747" lon="8.0236276"><ele>43.0</ele><time>2026-04-21T09:10:35.938Z</time></trkpt><trkpt lat="43.9238515" lon="8.0237609"><ele>43.0</ele><time>2026-04-21T09:10:36.937Z</time></trkpt><trkpt lat="43.9237364" lon="8.0239037"><ele>43.0</ele><time>2026-04-21T09:10:37.93Z</time></trkpt><trkpt lat="43.9236259" lon="8.0240517"><ele>43.0</ele><time>2026-04-21T09:10:38.931Z</time></trkpt><trkpt lat="43.9235143" lon="8.0242009"><ele>43.333333333333336</ele><time>2026-04-21T09:10:39.935Z</time></trkpt><trkpt lat="43.9234001" lon="8.0243625"><ele>43.666666666666664</ele><time>2026-04-21T09:10:40.936Z</time></trkpt><trkpt lat="43.9232832" lon="8.0245105"><ele>44.0</ele><time>2026-04-21T09:10:41.944Z</time></trkpt><trkpt lat="43.9231662" lon="8.0246634"><ele>44.0</ele><time>2026-04-21T09:10:42.94Z</time></trkpt><trkpt lat="43.9230435" lon="8.0248016"><ele>44.0</ele><time>2026-04-21T09:10:43.931Z</time></trkpt><trkpt lat="43.9229071" lon="8.0249107"><ele>44.0</ele><time>2026-04-21T09:10:44.938Z</time></trkpt><trkpt lat="43.9227586" lon="8.0249785"><ele>45.5</ele><time>2026-04-21T09:10:45.933Z</time></trkpt><trkpt lat="43.9226016" lon="8.025012"><ele>47.0</ele><time>2026-04-21T09:10:46.942Z</time></trkpt><trkpt lat="43.9222773" lon="8.0250288"><ele>47.0</ele><time>2026-04-21T09:10:48.94Z</time></trkpt><trkpt lat="43.9221149" lon="8.0250325"><ele>47.0</ele><time>2026-04-21T09:10:49.944Z</time></trkpt><trkpt lat="43.9219546" lon="8.025037"><ele>47.0</ele><time>2026-04-21T09:10:50.938Z</time></trkpt><trkpt lat="43.9218098" lon="8.0250514"><ele>46.5</ele><time>2026-04-21T09:10:51.938Z</time></trkpt><trkpt lat="43.9216735" lon="8.025064"><ele>46.0</ele><time>2026-04-21T09:10:52.934Z</time></trkpt><trkpt lat="43.9215412" lon="8.0250752"><ele>45.5</ele><time>2026-04-21T09:10:53.945Z</time></trkpt><trkpt lat="43.921406" lon="8.0250899"><ele>45.0</ele><time>2026-04-21T09:10:54.924Z</time></trkpt><trkpt lat="43.9212669" lon="8.0251058"><ele>45.0</ele><time>2026-04-21T09:10:55.941Z</time></trkpt><trkpt lat="43.9211269" lon="8.0251299"><ele>45.0</ele><time>2026-04-21T09:10:56.945Z</time></trkpt><trkpt lat="43.9209785" lon="8.0251474"><ele>45.0</ele><time>2026-04-21T09:10:57.934Z</time></trkpt><trkpt lat="43.9208257" lon="8.0251651"><ele>45.0</ele><time>2026-04-21T09:10:58.937Z</time></trkpt><trkpt lat="43.9206703" lon="8.0251828"><ele>45.0</ele><time>2026-04-21T09:10:59.934Z</time></trkpt><trkpt lat="43.920513" lon="8.025203"><ele>45.0</ele><time>2026-04-21T09:11:00.926Z</time></trkpt><trkpt lat="43.9203531" lon="8.0252221"><ele>45.0</ele><time>2026-04-21T09:11:01.931Z</time></trkpt><trkpt lat="43.9201973" lon="8.0252421"><ele>44.75</ele><time>2026-04-21T09:11:02.934Z</time></trkpt><trkpt lat="43.9200439" lon="8.0252627"><ele>44.5</ele><time>2026-04-21T09:11:03.935Z</time></trkpt><trkpt lat="43.9198943" lon="8.0252872"><ele>44.25</ele><time>2026-04-21T09:11:04.937Z</time></trkpt><trkpt lat="43.919758" lon="8.0253081"><ele>44.0</ele><time>2026-04-21T09:11:05.939Z</time></trkpt><trkpt lat="43.9196444" lon="8.0253305"><ele>44.0</ele><time>2026-04-21T09:11:06.931Z</time></trkpt><trkpt lat="43.9195654" lon="8.0253487"><ele>44.0</ele><time>2026-04-21T09:11:07.931Z</time></trkpt><trkpt lat="43.9194116" lon="8.0253775"><ele>44.0</ele><time>2026-04-21T09:12:02.936Z</time></trkpt><trkpt lat="43.919187" lon="8.0254404"><ele>42.25</ele><time>2026-04-21T09:12:05.938Z</time></trkpt><trkpt lat="43.9190884" lon="8.0254619"><ele>40.5</ele><time>2026-04-21T09:12:06.937Z</time></trkpt><trkpt lat="43.9189787" lon="8.0254904"><ele>38.75</ele><time>2026-04-21T09:12:07.937Z</time></trkpt><trkpt lat="43.9188606" lon="8.025521"><ele>37.0</ele><time>2026-04-21T09:12:08.943Z</time></trkpt><trkpt lat="43.918737" lon="8.025554"><ele>37.0</ele><time>2026-04-21T09:12:09.931Z</time></trkpt><trkpt lat="43.9186083" lon="8.0255926"><ele>37.0</ele><time>2026-04-21T09:12:10.934Z</time></trkpt><trkpt lat="43.9184756" lon="8.0256391"><ele>37.0</ele><time>2026-04-21T09:12:11.937Z</time></trkpt><trkpt lat="43.9183419" lon="8.0256956"><ele>37.0</ele><time>2026-04-21T09:12:12.942Z</time></trkpt><trkpt lat="43.9182016" lon="8.0257613"><ele>37.75</ele><time>2026-04-21T09:12:13.939Z</time></trkpt><trkpt lat="43.9180648" lon="8.025832"><ele>38.5</ele><time>2026-04-21T09:12:14.936Z</time></trkpt><trkpt lat="43.9179337" lon="8.025902"><ele>39.25</ele><time>2026-04-21T09:12:15.941Z</time></trkpt><trkpt lat="43.9178099" lon="8.0259604"><ele>40.0</ele><time>2026-04-21T09:12:16.934Z</time></trkpt><trkpt lat="43.9176775" lon="8.0260144"><ele>39.75</ele><time>2026-04-21T09:12:17.938Z</time></trkpt><trkpt lat="43.9175476" lon="8.0260588"><ele>39.5</ele><time>2026-04-21T09:12:18.942Z</time></trkpt><trkpt lat="43.9174" lon="8.0260874"><ele>39.25</ele><time>2026-04-21T09:12:19.943Z</time></trkpt><trkpt lat="43.9172508" lon="8.0260952"><ele>39.0</ele><time>2026-04-21T09:12:20.933Z</time></trkpt><trkpt lat="43.9170969" lon="8.0260702"><ele>39.0</ele><time>2026-04-21T09:12:21.93Z</time></trkpt><trkpt lat="43.9169476" lon="8.0260202"><ele>39.0</ele><time>2026-04-21T09:12:22.944Z</time></trkpt><trkpt lat="43.9168058" lon="8.0259565"><ele>39.0</ele><time>2026-04-21T09:12:23.935Z</time></trkpt><trkpt lat="43.9165342" lon="8.0258249"><ele>39.0</ele><time>2026-04-21T09:12:25.942Z</time></trkpt><trkpt lat="43.9163994" lon="8.0257793"><ele>39.0</ele><time>2026-04-21T09:12:26.939Z</time></trkpt><trkpt lat="43.9162593" lon="8.025764"><ele>39.0</ele><time>2026-04-21T09:12:27.943Z</time></trkpt><trkpt lat="43.9161159" lon="8.0257822"><ele>39.0</ele><time>2026-04-21T09:12:28.935Z</time></trkpt><trkpt lat="43.9159761" lon="8.0258371"><ele>38.0</ele><time>2026-04-21T09:12:29.941Z</time></trkpt><trkpt lat="43.9158569" lon="8.0259249"><ele>37.0</ele><time>2026-04-21T09:12:30.93Z</time></trkpt><trkpt lat="43.915761" lon="8.0260491"><ele>36.0</ele><time>2026-04-21T09:12:31.928Z</time></trkpt><trkpt lat="43.9156682" lon="8.0261793"><ele>35.0</ele><time>2026-04-21T09:12:32.928Z</time></trkpt><trkpt lat="43.9155584" lon="8.0262614"><ele>35.0</ele><time>2026-04-21T09:12:33.921Z</time></trkpt><trkpt lat="43.9154378" lon="8.0263203"><ele>35.0</ele><time>2026-04-21T09:12:34.923Z</time></trkpt><trkpt lat="43.91531" lon="8.0263788"><ele>35.0</ele><time>2026-04-21T09:12:35.928Z</time></trkpt><trkpt lat="43.9151725" lon="8.0264442"><ele>35.0</ele><time>2026-04-21T09:12:36.923Z</time></trkpt><trkpt lat="43.9150353" lon="8.0265244"><ele>34.33333333333333</ele><time>2026-04-21T09:12:37.927Z</time></trkpt><trkpt lat="43.9149042" lon="8.0266218"><ele>33.666666666666664</ele><time>2026-04-21T09:12:38.923Z</time></trkpt><trkpt lat="43.9147727" lon="8.0267257"><ele>33.0</ele><time>2026-04-21T09:12:39.928Z</time></trkpt><trkpt lat="43.9146403" lon="8.0268339"><ele>36.333333333333336</ele><time>2026-04-21T09:12:40.925Z</time></trkpt><trkpt lat="43.9145075" lon="8.0269415"><ele>39.66666666666667</ele><time>2026-04-21T09:12:41.924Z</time></trkpt><trkpt lat="43.9143766" lon="8.0270496"><ele>43.0</ele><time>2026-04-21T09:12:42.924Z</time></trkpt><trkpt lat="43.9142471" lon="8.027144"><ele>41.0</ele><time>2026-04-21T09:12:43.923Z</time></trkpt><trkpt lat="43.9141224" lon="8.0272126"><ele>39.0</ele><time>2026-04-21T09:12:44.93Z</time></trkpt><trkpt lat="43.9138878" lon="8.0271229"><ele>37.0</ele><time>2026-04-21T09:12:46.927Z</time></trkpt><trkpt lat="43.913789" lon="8.0269849"><ele>37.0</ele><time>2026-04-21T09:12:47.923Z</time></trkpt><trkpt lat="43.9136818" lon="8.026849"><ele>37.0</ele><time>2026-04-21T09:12:48.925Z</time></trkpt><trkpt lat="43.9135581" lon="8.0267532"><ele>37.0</ele><time>2026-04-21T09:12:49.928Z</time></trkpt><trkpt lat="43.9134144" lon="8.0267065"><ele>37.0</ele><time>2026-04-21T09:12:50.926Z</time></trkpt><trkpt lat="43.9132515" lon="8.0267201"><ele>36.333333333333336</ele><time>2026-04-21T09:12:51.921Z</time></trkpt><trkpt lat="43.9130855" lon="8.0267693"><ele>35.666666666666664</ele><time>2026-04-21T09:12:52.926Z</time></trkpt><trkpt lat="43.9129227" lon="8.0268539"><ele>35.0</ele><time>2026-04-21T09:12:53.928Z</time></trkpt><trkpt lat="43.9127634" lon="8.026952"><ele>35.0</ele><time>2026-04-21T09:12:54.924Z</time></trkpt><trkpt lat="43.9126118" lon="8.0270387"><ele>35.0</ele><time>2026-04-21T09:12:55.923Z</time></trkpt><trkpt lat="43.9124596" lon="8.027117"><ele>35.0</ele><time>2026-04-21T09:12:56.922Z</time></trkpt><trkpt lat="43.9123026" lon="8.0271857"><ele>33.666666666666664</ele><time>2026-04-21T09:12:57.932Z</time></trkpt><trkpt lat="43.9121436" lon="8.0272542"><ele>32.333333333333336</ele><time>2026-04-21T09:12:58.928Z</time></trkpt><trkpt lat="43.9119977" lon="8.0273508"><ele>31.0</ele><time>2026-04-21T09:12:59.923Z</time></trkpt><trkpt lat="43.9118692" lon="8.0274697"><ele>33.25</ele><time>2026-04-21T09:13:00.927Z</time></trkpt><trkpt lat="43.9117507" lon="8.0275876"><ele>35.5</ele><time>2026-04-21T09:13:01.929Z</time></trkpt><trkpt lat="43.9116256" lon="8.0276671"><ele>37.75</ele><time>2026-04-21T09:13:02.927Z</time></trkpt><trkpt lat="43.9114779" lon="8.0276912"><ele>40.0</ele><time>2026-04-21T09:13:03.923Z</time></trkpt><trkpt lat="43.9113172" lon="8.0276959"><ele>40.0</ele><time>2026-04-21T09:13:04.934Z</time></trkpt><trkpt lat="43.9111489" lon="8.0277028"><ele>40.0</ele><time>2026-04-21T09:13:05.929Z</time></trkpt><trkpt lat="43.9108102" lon="8.0277197"><ele>38.333333333333336</ele><time>2026-04-21T09:13:07.922Z</time></trkpt><trkpt lat="43.9106495" lon="8.0277136"><ele>36.666666666666664</ele><time>2026-04-21T09:13:08.93Z</time></trkpt><trkpt lat="43.910492" lon="8.0276802"><ele>35.0</ele><time>2026-04-21T09:13:09.93Z</time></trkpt><trkpt lat="43.9103297" lon="8.0276187"><ele>35.0</ele><time>2026-04-21T09:13:10.929Z</time></trkpt><trkpt lat="43.9101698" lon="8.0275493"><ele>35.0</ele><time>2026-04-21T09:13:11.922Z</time></trkpt><trkpt lat="43.9100169" lon="8.0274817"><ele>35.0</ele><time>2026-04-21T09:13:12.926Z</time></trkpt><trkpt lat="43.9098736" lon="8.0274052"><ele>32.5</ele><time>2026-04-21T09:13:13.919Z</time></trkpt><trkpt lat="43.9097519" lon="8.0273"><ele>30.0</ele><time>2026-04-21T09:13:14.927Z</time></trkpt><trkpt lat="43.9096541" lon="8.0271592"><ele>27.5</ele><time>2026-04-21T09:13:15.925Z</time></trkpt><trkpt lat="43.9095646" lon="8.0270014"><ele>25.0</ele><time>2026-04-21T09:13:16.924Z</time></trkpt><trkpt lat="43.9094693" lon="8.0268593"><ele>25.0</ele><time>2026-04-21T09:13:17.923Z</time></trkpt><trkpt lat="43.9093423" lon="8.026775"><ele>25.0</ele><time>2026-04-21T09:13:18.924Z</time></trkpt><trkpt lat="43.9091746" lon="8.0267574"><ele>25.0</ele><time>2026-04-21T09:13:19.926Z</time></trkpt><trkpt lat="43.9089929" lon="8.0267617"><ele>28.333333333333336</ele><time>2026-04-21T09:13:20.925Z</time></trkpt><trkpt lat="43.9088093" lon="8.0267646"><ele>31.666666666666664</ele><time>2026-04-21T09:13:21.927Z</time></trkpt><trkpt lat="43.90863" lon="8.026753"><ele>35.0</ele><time>2026-04-21T09:13:22.931Z</time></trkpt><trkpt lat="43.9084546" lon="8.026725"><ele>36.0</ele><time>2026-04-21T09:13:23.926Z</time></trkpt><trkpt lat="43.9082808" lon="8.0266825"><ele>37.0</ele><time>2026-04-21T09:13:24.922Z</time></trkpt><trkpt lat="43.9081072" lon="8.0266301"><ele>38.0</ele><time>2026-04-21T09:13:25.925Z</time></trkpt><trkpt lat="43.9079269" lon="8.0265816"><ele>29.0</ele><time>2026-04-21T09:13:26.928Z</time></trkpt><trkpt lat="43.9075697" lon="8.0265654"><ele>20.0</ele><time>2026-04-21T09:13:28.924Z</time></trkpt><trkpt lat="43.907394" lon="8.0266153"><ele>25.0</ele><time>2026-04-21T09:13:29.927Z</time></trkpt><trkpt lat="43.9072197" lon="8.0266826"><ele>30.0</ele><time>2026-04-21T09:13:30.92Z</time></trkpt><trkpt lat="43.907055" lon="8.0267657"><ele>35.0</ele><time>2026-04-21T09:13:31.924Z</time></trkpt><trkpt lat="43.9068953" lon="8.0268521"><ele>32.33333333333333</ele><time>2026-04-21T09:13:32.928Z</time></trkpt><trkpt lat="43.9067372" lon="8.0269452"><ele>29.666666666666664</ele><time>2026-04-21T09:13:33.924Z</time></trkpt><trkpt lat="43.9065757" lon="8.0270324"><ele>27.0</ele><time>2026-04-21T09:13:34.922Z</time></trkpt><trkpt lat="43.9064121" lon="8.0270968"><ele>27.0</ele><time>2026-04-21T09:13:35.924Z</time></trkpt><trkpt lat="43.9062479" lon="8.027126"><ele>27.0</ele><time>2026-04-21T09:13:36.922Z</time></trkpt><trkpt lat="43.9060847" lon="8.0271192"><ele>27.0</ele><time>2026-04-21T09:13:37.922Z</time></trkpt><trkpt lat="43.9059207" lon="8.0270838"><ele>26.333333333333336</ele><time>2026-04-21T09:13:38.922Z</time></trkpt><trkpt lat="43.9057495" lon="8.0270571"><ele>25.666666666666668</ele><time>2026-04-21T09:13:39.919Z</time></trkpt><trkpt lat="43.9055733" lon="8.0270711"><ele>25.0</ele><time>2026-04-21T09:13:40.923Z</time></trkpt><trkpt lat="43.9053984" lon="8.027121"><ele>25.0</ele><time>2026-04-21T09:13:41.923Z</time></trkpt><trkpt lat="43.9052297" lon="8.0271779"><ele>25.0</ele><time>2026-04-21T09:13:42.926Z</time></trkpt><trkpt lat="43.9050638" lon="8.0272132"><ele>25.0</ele><time>2026-04-21T09:13:43.929Z</time></trkpt><trkpt lat="43.9048976" lon="8.0272364"><ele>24.0</ele><time>2026-04-21T09:13:44.926Z</time></trkpt><trkpt lat="43.9047313" lon="8.0272572"><ele>23.0</ele><time>2026-04-21T09:13:45.92Z</time></trkpt><trkpt lat="43.9045696" lon="8.0272709"><ele>22.0</ele><time>2026-04-21T09:13:46.922Z</time></trkpt><trkpt lat="43.9044156" lon="8.0272604"><ele>20.0</ele><time>2026-04-21T09:13:47.924Z</time></trkpt><trkpt lat="43.9041047" lon="8.0271874"><ele>18.0</ele><time>2026-04-21T09:13:49.918Z</time></trkpt><trkpt lat="43.9039383" lon="8.027181"><ele>18.0</ele><time>2026-04-21T09:13:50.922Z</time></trkpt><trkpt lat="43.9037709" lon="8.0272032"><ele>18.0</ele><time>2026-04-21T09:13:51.923Z</time></trkpt><trkpt lat="43.9036092" lon="8.0272327"><ele>18.0</ele><time>2026-04-21T09:13:52.93Z</time></trkpt><trkpt lat="43.9034534" lon="8.0272714"><ele>17.75</ele><time>2026-04-21T09:13:53.921Z</time></trkpt><trkpt lat="43.9033027" lon="8.0273274"><ele>17.5</ele><time>2026-04-21T09:13:54.918Z</time></trkpt><trkpt lat="43.90317" lon="8.0274069"><ele>17.25</ele><time>2026-04-21T09:13:55.924Z</time></trkpt><trkpt lat="43.903071" lon="8.0275286"><ele>17.0</ele><time>2026-04-21T09:13:56.927Z</time></trkpt><trkpt lat="43.9030055" lon="8.0277059"><ele>22.0</ele><time>2026-04-21T09:13:57.926Z</time></trkpt><trkpt lat="43.9029565" lon="8.0279094"><ele>27.0</ele><time>2026-04-21T09:13:58.921Z</time></trkpt><trkpt lat="43.9029091" lon="8.028107"><ele>32.0</ele><time>2026-04-21T09:13:59.929Z</time></trkpt><trkpt lat="43.9028664" lon="8.0282952"><ele>37.0</ele><time>2026-04-21T09:14:00.924Z</time></trkpt><trkpt lat="43.902818" lon="8.0284746"><ele>41.0</ele><time>2026-04-21T09:14:01.925Z</time></trkpt><trkpt lat="43.9027798" lon="8.0286516"><ele>45.0</ele><time>2026-04-21T09:14:02.93Z</time></trkpt><trkpt lat="43.9027489" lon="8.0288297"><ele>49.0</ele><time>2026-04-21T09:14:03.923Z</time></trkpt><trkpt lat="43.902727" lon="8.0290043"><ele>53.0</ele><time>2026-04-21T09:14:04.928Z</time></trkpt><trkpt lat="43.902709" lon="8.0291743"><ele>54.75</ele><time>2026-04-21T09:14:05.929Z</time></trkpt><trkpt lat="43.9026909" lon="8.0293351"><ele>56.5</ele><time>2026-04-21T09:14:06.921Z</time></trkpt><trkpt lat="43.9026737" lon="8.029489"><ele>58.25</ele><time>2026-04-21T09:14:07.927Z</time></trkpt><trkpt lat="43.9026754" lon="8.0296426"><ele>60.0</ele><time>2026-04-21T09:14:08.928Z</time></trkpt><trkpt lat="43.9026385" lon="8.0299512"><ele>59.0</ele><time>2026-04-21T09:14:10.927Z</time></trkpt><trkpt lat="43.902623" lon="8.0301052"><ele>58.0</ele><time>2026-04-21T09:14:11.923Z</time></trkpt><trkpt lat="43.9026097" lon="8.0302488"><ele>57.0</ele><time>2026-04-21T09:14:12.919Z</time></trkpt><trkpt lat="43.9025961" lon="8.0303886"><ele>56.0</ele><time>2026-04-21T09:14:13.925Z</time></trkpt><trkpt lat="43.902588" lon="8.0305227"><ele>55.0</ele><time>2026-04-21T09:14:14.923Z</time></trkpt><trkpt lat="43.9025818" lon="8.0306519"><ele>50.166666666666664</ele><time>2026-04-21T09:14:15.926Z</time></trkpt><trkpt lat="43.9025804" lon="8.0307789"><ele>45.33333333333333</ele><time>2026-04-21T09:14:16.928Z</time></trkpt><trkpt lat="43.9025729" lon="8.0308998"><ele>40.5</ele><time>2026-04-21T09:14:17.927Z</time></trkpt><trkpt lat="43.9025633" lon="8.0310243"><ele>35.666666666666664</ele><time>2026-04-21T09:14:18.926Z</time></trkpt><trkpt lat="43.9025508" lon="8.0311497"><ele>30.83333333333333</ele><time>2026-04-21T09:14:19.921Z</time></trkpt><trkpt lat="43.9025389" lon="8.0312675"><ele>26.0</ele><time>2026-04-21T09:14:20.926Z</time></trkpt><trkpt lat="43.9025254" lon="8.0313713"><ele>25.8</ele><time>2026-04-21T09:14:21.923Z</time></trkpt><trkpt lat="43.9025029" lon="8.0315014"><ele>25.6</ele><time>2026-04-21T09:14:23.923Z</time></trkpt><trkpt lat="43.9025491" lon="8.0315695"><ele>25.4</ele><time>2026-04-21T09:14:26.924Z</time></trkpt><trkpt lat="43.9025982" lon="8.031498"><ele>25.2</ele><time>2026-04-21T09:14:29.923Z</time></trkpt><trkpt lat="43.9025521" lon="8.0312414"><ele>25.0</ele><time>2026-04-21T09:14:34.924Z</time></trkpt><trkpt lat="43.9025592" lon="8.0311096"><ele>25.0</ele><time>2026-04-21T09:14:35.931Z</time></trkpt><trkpt lat="43.9025698" lon="8.0309475"><ele>25.0</ele><time>2026-04-21T09:14:36.924Z</time></trkpt><trkpt lat="43.9025827" lon="8.0307786"><ele>25.0</ele><time>2026-04-21T09:14:37.924Z</time></trkpt><trkpt lat="43.9025931" lon="8.0306005"><ele>25.0</ele><time>2026-04-21T09:14:38.925Z</time></trkpt><trkpt lat="43.9026054" lon="8.0304154"><ele>32.5</ele><time>2026-04-21T09:14:39.921Z</time></trkpt><trkpt lat="43.9026219" lon="8.0302206"><ele>40.0</ele><time>2026-04-21T09:14:40.922Z</time></trkpt><trkpt lat="43.9026419" lon="8.0300172"><ele>47.5</ele><time>2026-04-21T09:14:41.923Z</time></trkpt><trkpt lat="43.9026732" lon="8.0298023"><ele>55.0</ele><time>2026-04-21T09:14:42.929Z</time></trkpt><trkpt lat="43.9026995" lon="8.0295959"><ele>54.5</ele><time>2026-04-21T09:14:43.924Z</time></trkpt><trkpt lat="43.9027232" lon="8.0294001"><ele>54.0</ele><time>2026-04-21T09:14:44.924Z</time></trkpt><trkpt lat="43.9027522" lon="8.0292105"><ele>53.5</ele><time>2026-04-21T09:14:45.923Z</time></trkpt><trkpt lat="43.90278" lon="8.029027"><ele>53.0</ele><time>2026-04-21T09:14:46.925Z</time></trkpt><trkpt lat="43.9028056" lon="8.0288454"><ele>53.0</ele><time>2026-04-21T09:14:47.926Z</time></trkpt><trkpt lat="43.9028304" lon="8.0286781"><ele>53.0</ele><time>2026-04-21T09:14:48.925Z</time></trkpt><trkpt lat="43.9028587" lon="8.0285201"><ele>53.0</ele><time>2026-04-21T09:14:49.924Z</time></trkpt><trkpt lat="43.9028975" lon="8.0283682"><ele>53.0</ele><time>2026-04-21T09:14:50.924Z</time></trkpt><trkpt lat="43.9030041" lon="8.028073"><ele>49.0</ele><time>2026-04-21T09:14:52.926Z</time></trkpt><trkpt lat="43.9030566" lon="8.0279232"><ele>45.0</ele><time>2026-04-21T09:14:53.928Z</time></trkpt><trkpt lat="43.9031062" lon="8.027766"><ele>41.0</ele><time>2026-04-21T09:14:54.925Z</time></trkpt><trkpt lat="43.9031546" lon="8.0276151"><ele>37.0</ele><time>2026-04-21T09:14:55.929Z</time></trkpt><trkpt lat="43.9031945" lon="8.0274821"><ele>33.2</ele><time>2026-04-21T09:14:56.926Z</time></trkpt><trkpt lat="43.9032397" lon="8.0273782"><ele>29.400000000000002</ele><time>2026-04-21T09:14:57.926Z</time></trkpt><trkpt lat="43.9033023" lon="8.0273267"><ele>25.6</ele><time>2026-04-21T09:14:58.923Z</time></trkpt><trkpt lat="43.9033864" lon="8.0272907"><ele>21.8</ele><time>2026-04-21T09:14:59.927Z</time></trkpt><trkpt lat="43.9034984" lon="8.0272801"><ele>18.0</ele><time>2026-04-21T09:15:00.923Z</time></trkpt><trkpt lat="43.903633" lon="8.0272761"><ele>18.0</ele><time>2026-04-21T09:15:01.924Z</time></trkpt><trkpt lat="43.903778" lon="8.0272746"><ele>18.0</ele><time>2026-04-21T09:15:02.924Z</time></trkpt><trkpt lat="43.9039287" lon="8.0272638"><ele>18.0</ele><time>2026-04-21T09:15:03.921Z</time></trkpt><trkpt lat="43.9040796" lon="8.0272463"><ele>18.0</ele><time>2026-04-21T09:15:04.923Z</time></trkpt><trkpt lat="43.9042299" lon="8.0272455"><ele>18.8</ele><time>2026-04-21T09:15:05.93Z</time></trkpt><trkpt lat="43.9043623" lon="8.0272599"><ele>19.6</ele><time>2026-04-21T09:15:06.922Z</time></trkpt><trkpt lat="43.9044805" lon="8.0272787"><ele>20.400000000000002</ele><time>2026-04-21T09:15:07.923Z</time></trkpt><trkpt lat="43.9045816" lon="8.0272884"><ele>21.200000000000003</ele><time>2026-04-21T09:15:08.922Z</time></trkpt><trkpt lat="43.9046507" lon="8.027297"><ele>22.0</ele><time>2026-04-21T09:15:09.924Z</time></trkpt><trkpt lat="43.9047218" lon="8.0272611"><ele>22.0</ele><time>2026-04-21T09:15:16.922Z</time></trkpt><trkpt lat="43.9045814" lon="8.0270927"><ele>22.0</ele><time>2026-04-21T09:15:20.923Z</time></trkpt><trkpt lat="43.9044696" lon="8.0270611"><ele>22.0</ele><time>2026-04-21T09:15:21.919Z</time></trkpt><trkpt lat="43.9043503" lon="8.0270235"><ele>22.0</ele><time>2026-04-21T09:15:22.923Z</time></trkpt><trkpt lat="43.9042318" lon="8.0269844"><ele>21.0</ele><time>2026-04-21T09:15:23.92Z</time></trkpt><trkpt lat="43.9041163" lon="8.0269563"><ele>20.0</ele><time>2026-04-21T09:15:24.919Z</time></trkpt><trkpt lat="43.9040076" lon="8.0269436"><ele>19.0</ele><time>2026-04-21T09:15:25.928Z</time></trkpt><trkpt lat="43.9038962" lon="8.0269446"><ele>18.0</ele><time>2026-04-21T09:15:26.922Z</time></trkpt><trkpt lat="43.9037825" lon="8.0269482"><ele>18.0</ele><time>2026-04-21T09:15:27.922Z</time></trkpt><trkpt lat="43.9036691" lon="8.0269385"><ele>18.0</ele><time>2026-04-21T09:15:28.923Z</time></trkpt><trkpt lat="43.903557" lon="8.0269211"><ele>18.0</ele><time>2026-04-21T09:15:29.922Z</time></trkpt><trkpt lat="43.9034567" lon="8.0268836"><ele>18.0</ele><time>2026-04-21T09:15:30.923Z</time></trkpt><trkpt lat="43.9033597" lon="8.0268369"><ele>18.0</ele><time>2026-04-21T09:15:31.93Z</time></trkpt><trkpt lat="43.9032594" lon="8.0268059"><ele>17.8</ele><time>2026-04-21T09:15:32.929Z</time></trkpt><trkpt lat="43.903148" lon="8.0267939"><ele>17.6</ele><time>2026-04-21T09:15:33.921Z</time></trkpt><trkpt lat="43.9030383" lon="8.0268024"><ele>17.4</ele><time>2026-04-21T09:15:34.926Z</time></trkpt><trkpt lat="43.9029435" lon="8.0268559"><ele>17.2</ele><time>2026-04-21T09:15:35.926Z</time></trkpt><trkpt lat="43.9028599" lon="8.0269753"><ele>17.0</ele><time>2026-04-21T09:15:36.922Z</time></trkpt><trkpt lat="43.9027852" lon="8.0270961"><ele>17.0</ele><time>2026-04-21T09:15:37.931Z</time></trkpt><trkpt lat="43.9026288" lon="8.0273271"><ele>17.0</ele><time>2026-04-21T09:15:39.932Z</time></trkpt><trkpt lat="43.9025461" lon="8.0274282"><ele>17.0</ele><time>2026-04-21T09:15:40.926Z</time></trkpt><trkpt lat="43.9024673" lon="8.0275213"><ele>17.0</ele><time>2026-04-21T09:15:41.926Z</time></trkpt><trkpt lat="43.9023848" lon="8.0276128"><ele>17.6</ele><time>2026-04-21T09:15:42.926Z</time></trkpt><trkpt lat="43.9023036" lon="8.0276973"><ele>18.2</ele><time>2026-04-21T09:15:43.926Z</time></trkpt><trkpt lat="43.9022258" lon="8.0277751"><ele>18.8</ele><time>2026-04-21T09:15:44.927Z</time></trkpt><trkpt lat="43.9021453" lon="8.0278619"><ele>19.4</ele><time>2026-04-21T09:15:45.923Z</time></trkpt><trkpt lat="43.9020647" lon="8.0279418"><ele>20.0</ele><time>2026-04-21T09:15:46.932Z</time></trkpt><trkpt lat="43.9019886" lon="8.0280213"><ele>20.0</ele><time>2026-04-21T09:15:47.928Z</time></trkpt><trkpt lat="43.9019168" lon="8.028099"><ele>20.0</ele><time>2026-04-21T09:15:48.923Z</time></trkpt><trkpt lat="43.9018398" lon="8.0281819"><ele>20.0</ele><time>2026-04-21T09:15:49.929Z</time></trkpt><trkpt lat="43.9017641" lon="8.0282844"><ele>20.0</ele><time>2026-04-21T09:15:50.93Z</time></trkpt><trkpt lat="43.901692" lon="8.0284097"><ele>20.0</ele><time>2026-04-21T09:15:51.928Z</time></trkpt><trkpt lat="43.9016229" lon="8.0285482"><ele>19.5</ele><time>2026-04-21T09:15:52.927Z</time></trkpt><trkpt lat="43.9015565" lon="8.0286968"><ele>19.0</ele><time>2026-04-21T09:15:53.931Z</time></trkpt><trkpt lat="43.9014865" lon="8.0288532"><ele>18.5</ele><time>2026-04-21T09:15:54.927Z</time></trkpt><trkpt lat="43.9014143" lon="8.0290154"><ele>18.0</ele><time>2026-04-21T09:15:55.926Z</time></trkpt><trkpt lat="43.9013395" lon="8.0291873"><ele>18.0</ele><time>2026-04-21T09:15:56.93Z</time></trkpt><trkpt lat="43.9012748" lon="8.0293541"><ele>18.0</ele><time>2026-04-21T09:15:57.923Z</time></trkpt><trkpt lat="43.9012172" lon="8.0295189"><ele>18.0</ele><time>2026-04-21T09:15:58.928Z</time></trkpt><trkpt lat="43.9011086" lon="8.029838"><ele>17.5</ele><time>2026-04-21T09:16:00.93Z</time></trkpt><trkpt lat="43.9010501" lon="8.0299908"><ele>17.0</ele><time>2026-04-21T09:16:01.927Z</time></trkpt><trkpt lat="43.9009827" lon="8.0301326"><ele>16.5</ele><time>2026-04-21T09:16:02.927Z</time></trkpt><trkpt lat="43.9009117" lon="8.0302622"><ele>16.0</ele><time>2026-04-21T09:16:03.929Z</time></trkpt><trkpt lat="43.9008355" lon="8.030389"><ele>16.0</ele><time>2026-04-21T09:16:04.926Z</time></trkpt><trkpt lat="43.9007591" lon="8.0305156"><ele>16.0</ele><time>2026-04-21T09:16:05.927Z</time></trkpt><trkpt lat="43.9006813" lon="8.0306395"><ele>16.0</ele><time>2026-04-21T09:16:06.927Z</time></trkpt><trkpt lat="43.9006026" lon="8.0307606"><ele>16.0</ele><time>2026-04-21T09:16:07.925Z</time></trkpt><trkpt lat="43.9005187" lon="8.0308735"><ele>16.0</ele><time>2026-04-21T09:16:08.924Z</time></trkpt><trkpt lat="43.9004323" lon="8.0309901"><ele>16.0</ele><time>2026-04-21T09:16:09.929Z</time></trkpt><trkpt lat="43.900341" lon="8.0311068"><ele>16.0</ele><time>2026-04-21T09:16:10.924Z</time></trkpt><trkpt lat="43.9002432" lon="8.0312175"><ele>16.0</ele><time>2026-04-21T09:16:11.928Z</time></trkpt><trkpt lat="43.9001371" lon="8.031321"><ele>16.25</ele><time>2026-04-21T09:16:12.925Z</time></trkpt><trkpt lat="43.9000258" lon="8.0314158"><ele>16.5</ele><time>2026-04-21T09:16:13.928Z</time></trkpt><trkpt lat="43.8999112" lon="8.0315101"><ele>16.75</ele><time>2026-04-21T09:16:14.927Z</time></trkpt><trkpt lat="43.8998007" lon="8.0316029"><ele>17.0</ele><time>2026-04-21T09:16:15.926Z</time></trkpt><trkpt lat="43.8996928" lon="8.0316945"><ele>17.0</ele><time>2026-04-21T09:16:16.926Z</time></trkpt><trkpt lat="43.8995849" lon="8.0317797"><ele>17.0</ele><time>2026-04-21T09:16:17.922Z</time></trkpt><trkpt lat="43.8994702" lon="8.0318498"><ele>17.0</ele><time>2026-04-21T09:16:18.926Z</time></trkpt><trkpt lat="43.899351" lon="8.0319139"><ele>17.0</ele><time>2026-04-21T09:16:19.924Z</time></trkpt><trkpt lat="43.8991017" lon="8.0320273"><ele>15.25</ele><time>2026-04-21T09:16:21.922Z</time></trkpt><trkpt lat="43.8989793" lon="8.0320771"><ele>13.5</ele><time>2026-04-21T09:16:22.926Z</time></trkpt><trkpt lat="43.8988699" lon="8.0321239"><ele>11.75</ele><time>2026-04-21T09:16:23.927Z</time></trkpt><trkpt lat="43.8987667" lon="8.0321747"><ele>10.0</ele><time>2026-04-21T09:16:24.926Z</time></trkpt><trkpt lat="43.8986688" lon="8.0322209"><ele>10.0</ele><time>2026-04-21T09:16:25.923Z</time></trkpt><trkpt lat="43.8985732" lon="8.032273"><ele>10.0</ele><time>2026-04-21T09:16:26.926Z</time></trkpt><trkpt lat="43.8984826" lon="8.0323173"><ele>10.0</ele><time>2026-04-21T09:16:27.921Z</time></trkpt><trkpt lat="43.8984053" lon="8.0323582"><ele>10.0</ele><time>2026-04-21T09:16:28.922Z</time></trkpt><trkpt lat="43.8983461" lon="8.0323886"><ele>10.0</ele><time>2026-04-21T09:16:29.925Z</time></trkpt><trkpt lat="43.898282" lon="8.0324181"><ele>10.0</ele><time>2026-04-21T09:16:31.925Z</time></trkpt><trkpt lat="43.8982055" lon="8.0324589"><ele>9.8</ele><time>2026-04-21T09:16:36.923Z</time></trkpt><trkpt lat="43.8981268" lon="8.0324882"><ele>9.6</ele><time>2026-04-21T09:16:38.922Z</time></trkpt><trkpt lat="43.898047" lon="8.0325272"><ele>9.4</ele><time>2026-04-21T09:16:40.924Z</time></trkpt><trkpt lat="43.8978778" lon="8.03261"><ele>9.2</ele><time>2026-04-21T09:16:44.925Z</time></trkpt><trkpt lat="43.8978133" lon="8.0326351"><ele>9.0</ele><time>2026-04-21T09:16:46.922Z</time></trkpt><trkpt lat="43.8977281" lon="8.0326626"><ele>9.0</ele><time>2026-04-21T09:17:00.922Z</time></trkpt><trkpt lat="43.8976469" lon="8.032689"><ele>9.0</ele><time>2026-04-21T09:17:03.919Z</time></trkpt><trkpt lat="43.897592" lon="8.0323989"><ele>9.0</ele><time>2026-04-21T09:17:08.923Z</time></trkpt><trkpt lat="43.8975813" lon="8.0322925"><ele>9.0</ele><time>2026-04-21T09:17:09.925Z</time></trkpt><trkpt lat="43.8975663" lon="8.0321644"><ele>9.166666666666666</ele><time>2026-04-21T09:17:10.923Z</time></trkpt><trkpt lat="43.8975504" lon="8.0320321"><ele>9.333333333333334</ele><time>2026-04-21T09:17:11.921Z</time></trkpt><trkpt lat="43.8975309" lon="8.0319017"><ele>9.5</ele><time>2026-04-21T09:17:12.917Z</time></trkpt><trkpt lat="43.897508" lon="8.0317902"><ele>9.666666666666668</ele><time>2026-04-21T09:17:13.919Z</time></trkpt><trkpt lat="43.8974806" lon="8.0317098"><ele>9.833333333333334</ele><time>2026-04-21T09:17:14.917Z</time></trkpt><trkpt lat="43.8974132" lon="8.0316256"><ele>10.0</ele><time>2026-04-21T09:17:16.918Z</time></trkpt><trkpt lat="43.897286" lon="8.0315929"><ele>10.0</ele><time>2026-04-21T09:17:18.922Z</time></trkpt><trkpt lat="43.8971975" lon="8.0316311"><ele>10.0</ele><time>2026-04-21T09:17:19.921Z</time></trkpt><trkpt lat="43.8970764" lon="8.0316325"><ele>10.0</ele><time>2026-04-21T09:17:20.925Z</time></trkpt><trkpt lat="43.8969801" lon="8.0316575"><ele>10.0</ele><time>2026-04-21T09:17:21.93Z</time></trkpt><trkpt lat="43.8969194" lon="8.0316852"><ele>10.0</ele><time>2026-04-21T09:17:22.927Z</time></trkpt><trkpt lat="43.8968466" lon="8.0316997"><ele>10.0</ele><time>2026-04-21T09:17:23.927Z</time></trkpt><trkpt lat="43.8967284" lon="8.0317564"><ele>10.0</ele><time>2026-04-21T09:17:25.929Z</time></trkpt><trkpt lat="43.8965738" lon="8.0318326"><ele>10.0</ele><time>2026-04-21T09:17:27.934Z</time></trkpt><trkpt lat="43.8964909" lon="8.0318729"><ele>10.0</ele><time>2026-04-21T09:17:28.927Z</time></trkpt><trkpt lat="43.8964139" lon="8.0319103"><ele>10.0</ele><time>2026-04-21T09:17:29.925Z</time></trkpt><trkpt lat="43.8963479" lon="8.0319447"><ele>10.0</ele><time>2026-04-21T09:17:30.927Z</time></trkpt><trkpt lat="43.8962851" lon="8.031977"><ele>10.0</ele><time>2026-04-21T09:17:31.925Z</time></trkpt><trkpt lat="43.8962204" lon="8.0320065"><ele>10.0</ele><time>2026-04-21T09:17:32.93Z</time></trkpt><trkpt lat="43.8961496" lon="8.032041"><ele>10.0</ele><time>2026-04-21T09:17:33.921Z</time></trkpt><trkpt lat="43.8960735" lon="8.0320753"><ele>10.0</ele><time>2026-04-21T09:17:34.928Z</time></trkpt><trkpt lat="43.8959872" lon="8.0321096"><ele>10.0</ele><time>2026-04-21T09:17:35.922Z</time></trkpt><trkpt lat="43.8958924" lon="8.0321496"><ele>10.0</ele><time>2026-04-21T09:17:36.93Z</time></trkpt><trkpt lat="43.8957952" lon="8.0321948"><ele>10.6</ele><time>2026-04-21T09:17:37.928Z</time></trkpt><trkpt lat="43.8956953" lon="8.0322468"><ele>11.2</ele><time>2026-04-21T09:17:38.926Z</time></trkpt><trkpt lat="43.8955925" lon="8.0322996"><ele>11.8</ele><time>2026-04-21T09:17:39.931Z</time></trkpt><trkpt lat="43.8954852" lon="8.0323531"><ele>12.4</ele><time>2026-04-21T09:17:40.923Z</time></trkpt><trkpt lat="43.8953804" lon="8.032403"><ele>13.0</ele><time>2026-04-21T09:17:41.924Z</time></trkpt><trkpt lat="43.89528" lon="8.0324532"><ele>12.600000000000001</ele><time>2026-04-21T09:17:42.926Z</time></trkpt><trkpt lat="43.8951793" lon="8.0325056"><ele>12.200000000000001</ele><time>2026-04-21T09:17:43.922Z</time></trkpt><trkpt lat="43.8950784" lon="8.0325575"><ele>11.8</ele><time>2026-04-21T09:17:44.927Z</time></trkpt><trkpt lat="43.894979" lon="8.0326065"><ele>11.4</ele><time>2026-04-21T09:17:45.932Z</time></trkpt><trkpt lat="43.8948837" lon="8.0326544"><ele>11.0</ele><time>2026-04-21T09:17:46.923Z</time></trkpt><trkpt lat="43.8946895" lon="8.0327583"><ele>11.0</ele><time>2026-04-21T09:17:48.928Z</time></trkpt><trkpt lat="43.8945939" lon="8.0328055"><ele>11.0</ele><time>2026-04-21T09:17:49.928Z</time></trkpt><trkpt lat="43.8944977" lon="8.0328509"><ele>11.0</ele><time>2026-04-21T09:17:50.923Z</time></trkpt><trkpt lat="43.8944019" lon="8.0328975"><ele>11.0</ele><time>2026-04-21T09:17:51.929Z</time></trkpt><trkpt lat="43.8943072" lon="8.0329426"><ele>11.0</ele><time>2026-04-21T09:17:52.928Z</time></trkpt><trkpt lat="43.8942135" lon="8.03299"><ele>11.0</ele><time>2026-04-21T09:17:53.934Z</time></trkpt><trkpt lat="43.894129" lon="8.0330262"><ele>11.0</ele><time>2026-04-21T09:17:54.923Z</time></trkpt><trkpt lat="43.8940613" lon="8.033051"><ele>11.0</ele><time>2026-04-21T09:17:55.926Z</time></trkpt><trkpt lat="43.8939436" lon="8.0331093"><ele>11.0</ele><time>2026-04-21T09:17:57.927Z</time></trkpt><trkpt lat="43.8938807" lon="8.0331441"><ele>11.0</ele><time>2026-04-21T09:17:58.929Z</time></trkpt><trkpt lat="43.8938109" lon="8.0331822"><ele>11.0</ele><time>2026-04-21T09:17:59.924Z</time></trkpt><trkpt lat="43.8937337" lon="8.0332194"><ele>11.0</ele><time>2026-04-21T09:18:00.929Z</time></trkpt><trkpt lat="43.8936496" lon="8.0332582"><ele>11.0</ele><time>2026-04-21T09:18:01.928Z</time></trkpt><trkpt lat="43.8935628" lon="8.0332942"><ele>11.0</ele><time>2026-04-21T09:18:02.931Z</time></trkpt><trkpt lat="43.8934829" lon="8.0333279"><ele>11.0</ele><time>2026-04-21T09:18:03.922Z</time></trkpt><trkpt lat="43.8934091" lon="8.0333571"><ele>11.0</ele><time>2026-04-21T09:18:04.926Z</time></trkpt><trkpt lat="43.8933388" lon="8.0333867"><ele>11.0</ele><time>2026-04-21T09:18:05.929Z</time></trkpt><trkpt lat="43.8932718" lon="8.0334181"><ele>11.200000000000001</ele><time>2026-04-21T09:18:06.931Z</time></trkpt><trkpt lat="43.8932038" lon="8.0334549"><ele>11.4</ele><time>2026-04-21T09:18:07.929Z</time></trkpt><trkpt lat="43.893055" lon="8.0335282"><ele>11.6</ele><time>2026-04-21T09:18:09.924Z</time></trkpt><trkpt lat="43.8929743" lon="8.0335626"><ele>11.8</ele><time>2026-04-21T09:18:10.928Z</time></trkpt><trkpt lat="43.8928915" lon="8.0335994"><ele>12.0</ele><time>2026-04-21T09:18:11.924Z</time></trkpt><trkpt lat="43.892807" lon="8.0336431"><ele>12.0</ele><time>2026-04-21T09:18:12.924Z</time></trkpt><trkpt lat="43.8927187" lon="8.0336884"><ele>12.0</ele><time>2026-04-21T09:18:13.924Z</time></trkpt><trkpt lat="43.8926247" lon="8.0337342"><ele>12.0</ele><time>2026-04-21T09:18:14.923Z</time></trkpt><trkpt lat="43.8925218" lon="8.0337835"><ele>12.0</ele><time>2026-04-21T09:18:15.926Z</time></trkpt><trkpt lat="43.8924143" lon="8.0338343"><ele>12.0</ele><time>2026-04-21T09:18:16.925Z</time></trkpt><trkpt lat="43.8923028" lon="8.0338872"><ele>14.5</ele><time>2026-04-21T09:18:17.925Z</time></trkpt><trkpt lat="43.8921835" lon="8.0339421"><ele>17.0</ele><time>2026-04-21T09:18:18.923Z</time></trkpt><trkpt lat="43.8920612" lon="8.0339984"><ele>19.5</ele><time>2026-04-21T09:18:19.929Z</time></trkpt><trkpt lat="43.8919377" lon="8.0340548"><ele>22.0</ele><time>2026-04-21T09:18:20.923Z</time></trkpt><trkpt lat="43.8918204" lon="8.0341128"><ele>19.6</ele><time>2026-04-21T09:18:21.923Z</time></trkpt><trkpt lat="43.8917073" lon="8.0341652"><ele>17.200000000000003</ele><time>2026-04-21T09:18:22.928Z</time></trkpt><trkpt lat="43.8916002" lon="8.0342106"><ele>14.8</ele><time>2026-04-21T09:18:23.927Z</time></trkpt><trkpt lat="43.8915015" lon="8.0342449"><ele>12.4</ele><time>2026-04-21T09:18:24.924Z</time></trkpt><trkpt lat="43.891417" lon="8.0342593"><ele>10.0</ele><time>2026-04-21T09:18:25.926Z</time></trkpt><trkpt lat="43.8913425" lon="8.034249"><ele>10.0</ele><time>2026-04-21T09:18:26.929Z</time></trkpt><trkpt lat="43.8912435" lon="8.0342019"><ele>10.0</ele><time>2026-04-21T09:18:28.929Z</time></trkpt><trkpt lat="43.891091" lon="8.0340146"><ele>10.0</ele><time>2026-04-21T09:18:32.922Z</time></trkpt><trkpt lat="43.8910382" lon="8.0339658"><ele>10.0</ele><time>2026-04-21T09:18:33.924Z</time></trkpt><trkpt lat="43.8909757" lon="8.0339391"><ele>10.0</ele><time>2026-04-21T09:18:34.922Z</time></trkpt><trkpt lat="43.8909059" lon="8.0339303"><ele>10.5</ele><time>2026-04-21T09:18:35.922Z</time></trkpt><trkpt lat="43.8908424" lon="8.0339285"><ele>11.0</ele><time>2026-04-21T09:18:36.924Z</time></trkpt><trkpt lat="43.8907661" lon="8.0338722"><ele>11.5</ele><time>2026-04-21T09:18:38.928Z</time></trkpt><trkpt lat="43.8907115" lon="8.0337678"><ele>12.0</ele><time>2026-04-21T09:18:40.922Z</time></trkpt><trkpt lat="43.8906527" lon="8.0336825"><ele>12.499999999999998</ele><time>2026-04-21T09:18:42.93Z</time></trkpt><trkpt lat="43.8905978" lon="8.0335885"><ele>13.0</ele><time>2026-04-21T09:18:44.923Z</time></trkpt><trkpt lat="43.8905155" lon="8.0334774"><ele>13.0</ele><time>2026-04-21T09:18:46.933Z</time></trkpt><trkpt lat="43.8904631" lon="8.0334234"><ele>13.0</ele><time>2026-04-21T09:18:47.925Z</time></trkpt><trkpt lat="43.890405" lon="8.033366"><ele>13.0</ele><time>2026-04-21T09:18:48.929Z</time></trkpt><trkpt lat="43.8903399" lon="8.0333045"><ele>13.0</ele><time>2026-04-21T09:18:49.922Z</time></trkpt><trkpt lat="43.890194" lon="8.0331631"><ele>13.0</ele><time>2026-04-21T09:18:51.925Z</time></trkpt><trkpt lat="43.8901108" lon="8.0330806"><ele>14.25</ele><time>2026-04-21T09:18:52.938Z</time></trkpt><trkpt lat="43.8900215" lon="8.0329908"><ele>15.5</ele><time>2026-04-21T09:18:53.929Z</time></trkpt><trkpt lat="43.8899171" lon="8.0328941"><ele>16.75</ele><time>2026-04-21T09:18:54.931Z</time></trkpt><trkpt lat="43.8898166" lon="8.0327947"><ele>18.0</ele><time>2026-04-21T09:18:55.932Z</time></trkpt><trkpt lat="43.8897156" lon="8.0326985"><ele>18.0</ele><time>2026-04-21T09:18:56.932Z</time></trkpt><trkpt lat="43.889621" lon="8.0326084"><ele>18.0</ele><time>2026-04-21T09:18:57.928Z</time></trkpt><trkpt lat="43.8895278" lon="8.0325243"><ele>18.0</ele><time>2026-04-21T09:18:58.93Z</time></trkpt><trkpt lat="43.8894333" lon="8.0324485"><ele>18.0</ele><time>2026-04-21T09:18:59.923Z</time></trkpt><trkpt lat="43.8893358" lon="8.0323779"><ele>18.0</ele><time>2026-04-21T09:19:00.933Z</time></trkpt><trkpt lat="43.8892389" lon="8.0323093"><ele>18.8</ele><time>2026-04-21T09:19:01.934Z</time></trkpt><trkpt lat="43.8891422" lon="8.0322525"><ele>19.6</ele><time>2026-04-21T09:19:02.936Z</time></trkpt><trkpt lat="43.889049" lon="8.0321981"><ele>20.400000000000002</ele><time>2026-04-21T09:19:03.927Z</time></trkpt><trkpt lat="43.8889558" lon="8.0321481"><ele>21.200000000000003</ele><time>2026-04-21T09:19:04.923Z</time></trkpt><trkpt lat="43.8888659" lon="8.0320975"><ele>22.0</ele><time>2026-04-21T09:19:05.93Z</time></trkpt><trkpt lat="43.8887753" lon="8.0320531"><ele>22.0</ele><time>2026-04-21T09:19:06.926Z</time></trkpt><trkpt lat="43.8886851" lon="8.0320115"><ele>22.0</ele><time>2026-04-21T09:19:07.927Z</time></trkpt><trkpt lat="43.8885943" lon="8.0319666"><ele>22.0</ele><time>2026-04-21T09:19:08.928Z</time></trkpt><trkpt lat="43.8884986" lon="8.0319205"><ele>22.0</ele><time>2026-04-21T09:19:09.924Z</time></trkpt><trkpt lat="43.8884062" lon="8.0318738"><ele>22.0</ele><time>2026-04-21T09:19:10.921Z</time></trkpt><trkpt lat="43.8882351" lon="8.0317559"><ele>23.0</ele><time>2026-04-21T09:19:12.928Z</time></trkpt><trkpt lat="43.888155" lon="8.0316739"><ele>24.0</ele><time>2026-04-21T09:19:13.926Z</time></trkpt><trkpt lat="43.8880757" lon="8.0315785"><ele>25.000000000000004</ele><time>2026-04-21T09:19:14.925Z</time></trkpt><trkpt lat="43.8879917" lon="8.0314678"><ele>26.0</ele><time>2026-04-21T09:19:15.925Z</time></trkpt><trkpt lat="43.8879174" lon="8.03135"><ele>27.0</ele><time>2026-04-21T09:19:16.925Z</time></trkpt><trkpt lat="43.8878444" lon="8.0312351"><ele>27.0</ele><time>2026-04-21T09:19:17.927Z</time></trkpt><trkpt lat="43.8877751" lon="8.0311344"><ele>27.0</ele><time>2026-04-21T09:19:18.922Z</time></trkpt><trkpt lat="43.8877106" lon="8.0310532"><ele>27.0</ele><time>2026-04-21T09:19:19.929Z</time></trkpt><trkpt lat="43.887654" lon="8.0309891"><ele>27.0</ele><time>2026-04-21T09:19:20.931Z</time></trkpt><trkpt lat="43.8876018" lon="8.0309331"><ele>27.0</ele><time>2026-04-21T09:19:21.934Z</time></trkpt><trkpt lat="43.8875512" lon="8.0308751"><ele>27.0</ele><time>2026-04-21T09:19:22.932Z</time></trkpt><trkpt lat="43.8874992" lon="8.0308204"><ele>27.6</ele><time>2026-04-21T09:19:23.934Z</time></trkpt><trkpt lat="43.8874008" lon="8.030732"><ele>28.200000000000003</ele><time>2026-04-21T09:19:25.931Z</time></trkpt><trkpt lat="43.8873411" lon="8.030676"><ele>28.8</ele><time>2026-04-21T09:19:27.923Z</time></trkpt><trkpt lat="43.8872685" lon="8.0305761"><ele>29.4</ele><time>2026-04-21T09:19:34.928Z</time></trkpt><trkpt lat="43.8871506" lon="8.0304568"><ele>30.0</ele><time>2026-04-21T09:19:36.929Z</time></trkpt><trkpt lat="43.8870921" lon="8.0303931"><ele>30.0</ele><time>2026-04-21T09:19:37.928Z</time></trkpt><trkpt lat="43.8870388" lon="8.0303309"><ele>30.0</ele><time>2026-04-21T09:19:38.925Z</time></trkpt><trkpt lat="43.8869841" lon="8.0302656"><ele>30.0</ele><time>2026-04-21T09:19:39.926Z</time></trkpt><trkpt lat="43.8869072" lon="8.0301942"><ele>30.0</ele><time>2026-04-21T09:19:40.928Z</time></trkpt><trkpt lat="43.8868438" lon="8.0301218"><ele>30.0</ele><time>2026-04-21T09:19:41.923Z</time></trkpt><trkpt lat="43.8867888" lon="8.0300583"><ele>30.0</ele><time>2026-04-21T09:19:42.928Z</time></trkpt><trkpt lat="43.8867291" lon="8.0299709"><ele>29.166666666666668</ele><time>2026-04-21T09:19:44.928Z</time></trkpt><trkpt lat="43.8866752" lon="8.0298629"><ele>28.333333333333336</ele><time>2026-04-21T09:19:46.93Z</time></trkpt><trkpt lat="43.8866379" lon="8.0297918"><ele>27.5</ele><time>2026-04-21T09:19:47.926Z</time></trkpt><trkpt lat="43.8866011" lon="8.0296375"><ele>26.666666666666668</ele><time>2026-04-21T09:19:49.93Z</time></trkpt><trkpt lat="43.8866043" lon="8.0295436"><ele>25.833333333333336</ele><time>2026-04-21T09:19:50.927Z</time></trkpt><trkpt lat="43.8866092" lon="8.0294413"><ele>25.0</ele><time>2026-04-21T09:19:51.929Z</time></trkpt><trkpt lat="43.8866066" lon="8.0293407"><ele>25.0</ele><time>2026-04-21T09:19:52.929Z</time></trkpt><trkpt lat="43.8865993" lon="8.0292469"><ele>25.0</ele><time>2026-04-21T09:19:53.929Z</time></trkpt><trkpt lat="43.8865913" lon="8.02914"><ele>25.0</ele><time>2026-04-21T09:19:54.924Z</time></trkpt><trkpt lat="43.8865834" lon="8.0290338"><ele>25.0</ele><time>2026-04-21T09:19:55.923Z</time></trkpt><trkpt lat="43.886564" lon="8.0288382"><ele>25.0</ele><time>2026-04-21T09:19:57.924Z</time></trkpt><trkpt lat="43.8865474" lon="8.0286888"><ele>25.500000000000004</ele><time>2026-04-21T09:19:59.926Z</time></trkpt><trkpt lat="43.8865368" lon="8.0285714"><ele>26.0</ele><time>2026-04-21T09:20:01.923Z</time></trkpt><trkpt lat="43.8865311" lon="8.0284172"><ele>26.5</ele><time>2026-04-21T09:20:03.926Z</time></trkpt><trkpt lat="43.8865348" lon="8.0283178"><ele>27.0</ele><time>2026-04-21T09:20:04.923Z</time></trkpt><trkpt lat="43.8865467" lon="8.0282099"><ele>27.500000000000004</ele><time>2026-04-21T09:20:05.92Z</time></trkpt><trkpt lat="43.886557" lon="8.0281091"><ele>28.0</ele><time>2026-04-21T09:20:06.921Z</time></trkpt><trkpt lat="43.8865656" lon="8.0279588"><ele>28.0</ele><time>2026-04-21T09:20:08.925Z</time></trkpt><trkpt lat="43.886562" lon="8.0278395"><ele>27.999999999999996</ele><time>2026-04-21T09:20:10.923Z</time></trkpt><trkpt lat="43.886487" lon="8.0277433"><ele>27.999999999999996</ele><time>2026-04-21T09:20:12.927Z</time></trkpt><trkpt lat="43.8864108" lon="8.02772"><ele>28.0</ele><time>2026-04-21T09:20:13.924Z</time></trkpt><trkpt lat="43.8863053" lon="8.0277275"><ele>28.0</ele><time>2026-04-21T09:20:14.925Z</time></trkpt><trkpt lat="43.8862009" lon="8.0277811"><ele>28.0</ele><time>2026-04-21T09:20:15.927Z</time></trkpt><trkpt lat="43.8861065" lon="8.027852"><ele>28.0</ele><time>2026-04-21T09:20:16.924Z</time></trkpt><trkpt lat="43.8859926" lon="8.0280618"><ele>28.0</ele><time>2026-04-21T09:20:19.927Z</time></trkpt><trkpt lat="43.8859388" lon="8.0281768"><ele>28.0</ele><time>2026-04-21T09:20:21.93Z</time></trkpt><trkpt lat="43.8858913" lon="8.0282691"><ele>26.75</ele><time>2026-04-21T09:20:23.928Z</time></trkpt><trkpt lat="43.8858319" lon="8.0283693"><ele>25.5</ele><time>2026-04-21T09:20:59.934Z</time></trkpt><trkpt lat="43.885719" lon="8.0285537"><ele>24.25</ele><time>2026-04-21T09:21:03.931Z</time></trkpt><trkpt lat="43.8857535" lon="8.0287036"><ele>23.0</ele><time>2026-04-21T09:21:05.936Z</time></trkpt><trkpt lat="43.8858008" lon="8.0287839"><ele>23.0</ele><time>2026-04-21T09:21:06.943Z</time></trkpt><trkpt lat="43.8858535" lon="8.0288615"><ele>23.0</ele><time>2026-04-21T09:21:07.945Z</time></trkpt><trkpt lat="43.8859067" lon="8.0289378"><ele>23.0</ele><time>2026-04-21T09:21:08.938Z</time></trkpt><trkpt lat="43.8859641" lon="8.0290195"><ele>23.0</ele><time>2026-04-21T09:21:09.941Z</time></trkpt><trkpt lat="43.8860223" lon="8.029104"><ele>23.0</ele><time>2026-04-21T09:21:10.925Z</time></trkpt><trkpt lat="43.8860828" lon="8.0291928"><ele>23.0</ele><time>2026-04-21T09:21:11.945Z</time></trkpt><trkpt lat="43.8861488" lon="8.029287"><ele>23.4</ele><time>2026-04-21T09:21:12.933Z</time></trkpt><trkpt lat="43.8862191" lon="8.0293855"><ele>23.799999999999997</ele><time>2026-04-21T09:21:13.941Z</time></trkpt><trkpt lat="43.8862897" lon="8.0294834"><ele>24.2</ele><time>2026-04-21T09:21:14.941Z</time></trkpt><trkpt lat="43.8863542" lon="8.0295777"><ele>24.6</ele><time>2026-04-21T09:21:15.939Z</time></trkpt><trkpt lat="43.8864191" lon="8.0296739"><ele>25.0</ele><time>2026-04-21T09:21:16.941Z</time></trkpt><trkpt lat="43.8864844" lon="8.0297697"><ele>25.0</ele><time>2026-04-21T09:21:17.947Z</time></trkpt><trkpt lat="43.8865492" lon="8.0298605"><ele>25.0</ele><time>2026-04-21T09:21:18.946Z</time></trkpt><trkpt lat="43.8866117" lon="8.0299466"><ele>25.0</ele><time>2026-04-21T09:21:19.935Z</time></trkpt><trkpt lat="43.8866742" lon="8.0300312"><ele>25.0</ele><time>2026-04-21T09:21:20.94Z</time></trkpt><trkpt lat="43.8867942" lon="8.0301936"><ele>25.0</ele><time>2026-04-21T09:21:22.943Z</time></trkpt><trkpt lat="43.8868537" lon="8.0302715"><ele>25.833333333333336</ele><time>2026-04-21T09:21:23.938Z</time></trkpt><trkpt lat="43.8869134" lon="8.0303474"><ele>26.666666666666668</ele><time>2026-04-21T09:21:24.93Z</time></trkpt><trkpt lat="43.8869713" lon="8.0304204"><ele>27.5</ele><time>2026-04-21T09:21:25.938Z</time></trkpt><trkpt lat="43.8870279" lon="8.0304826"><ele>28.333333333333336</ele><time>2026-04-21T09:21:26.936Z</time></trkpt><trkpt lat="43.8870796" lon="8.030536"><ele>29.166666666666668</ele><time>2026-04-21T09:21:27.933Z</time></trkpt><trkpt lat="43.8871661" lon="8.0306456"><ele>30.0</ele><time>2026-04-21T09:21:29.947Z</time></trkpt><trkpt lat="43.8872493" lon="8.0307626"><ele>29.5</ele><time>2026-04-21T09:21:31.937Z</time></trkpt><trkpt lat="43.8872971" lon="8.0308241"><ele>29.0</ele><time>2026-04-21T09:21:32.946Z</time></trkpt><trkpt lat="43.8873547" lon="8.0308826"><ele>28.5</ele><time>2026-04-21T09:21:33.938Z</time></trkpt><trkpt lat="43.8874126" lon="8.0309476"><ele>28.0</ele><time>2026-04-21T09:21:34.935Z</time></trkpt><trkpt lat="43.8874723" lon="8.0310168"><ele>27.5</ele><time>2026-04-21T09:21:35.939Z</time></trkpt><trkpt lat="43.8875331" lon="8.0310894"><ele>27.0</ele><time>2026-04-21T09:21:36.935Z</time></trkpt><trkpt lat="43.8875954" lon="8.0311619"><ele>27.0</ele><time>2026-04-21T09:21:37.931Z</time></trkpt><trkpt lat="43.8876577" lon="8.0312343"><ele>27.000000000000004</ele><time>2026-04-21T09:21:38.938Z</time></trkpt><trkpt lat="43.8877216" lon="8.0313096"><ele>27.000000000000004</ele><time>2026-04-21T09:21:39.943Z</time></trkpt><trkpt lat="43.8877815" lon="8.031383"><ele>27.0</ele><time>2026-04-21T09:21:40.945Z</time></trkpt><trkpt lat="43.8878342" lon="8.0314606"><ele>27.0</ele><time>2026-04-21T09:21:41.935Z</time></trkpt><trkpt lat="43.8878965" lon="8.0316447"><ele>25.166666666666668</ele><time>2026-04-21T09:21:43.946Z</time></trkpt><trkpt lat="43.8879228" lon="8.0317445"><ele>23.333333333333332</ele><time>2026-04-21T09:21:44.94Z</time></trkpt><trkpt lat="43.8879503" lon="8.0318443"><ele>21.5</ele><time>2026-04-21T09:21:45.94Z</time></trkpt><trkpt lat="43.8879808" lon="8.0319424"><ele>19.666666666666664</ele><time>2026-04-21T09:21:46.945Z</time></trkpt><trkpt lat="43.8880164" lon="8.0320361"><ele>17.833333333333332</ele><time>2026-04-21T09:21:47.935Z</time></trkpt><trkpt lat="43.8880657" lon="8.0321122"><ele>16.0</ele><time>2026-04-21T09:21:48.935Z</time></trkpt><trkpt lat="43.8881264" lon="8.0321769"><ele>15.999999999999998</ele><time>2026-04-21T09:21:49.936Z</time></trkpt><trkpt lat="43.8881924" lon="8.0322357"><ele>16.0</ele><time>2026-04-21T09:21:50.935Z</time></trkpt><trkpt lat="43.888266" lon="8.0322894"><ele>16.0</ele><time>2026-04-21T09:21:51.943Z</time></trkpt><trkpt lat="43.8883432" lon="8.0323347"><ele>16.0</ele><time>2026-04-21T09:21:52.94Z</time></trkpt><trkpt lat="43.8884154" lon="8.0323767"><ele>15.999999999999998</ele><time>2026-04-21T09:21:53.931Z</time></trkpt><trkpt lat="43.888492" lon="8.0324211"><ele>16.0</ele><time>2026-04-21T09:21:54.944Z</time></trkpt><trkpt lat="43.8885688" lon="8.0324663"><ele>15.999999999999998</ele><time>2026-04-21T09:21:55.935Z</time></trkpt><trkpt lat="43.8886428" lon="8.0325076"><ele>16.0</ele><time>2026-04-21T09:21:56.932Z</time></trkpt><trkpt lat="43.8887131" lon="8.0325503"><ele>16.0</ele><time>2026-04-21T09:21:57.933Z</time></trkpt><trkpt lat="43.888782" lon="8.0325974"><ele>16.0</ele><time>2026-04-21T09:21:58.925Z</time></trkpt><trkpt lat="43.8888515" lon="8.0326525"><ele>15.999999999999998</ele><time>2026-04-21T09:21:59.933Z</time></trkpt><trkpt lat="43.8889145" lon="8.0327121"><ele>16.0</ele><time>2026-04-21T09:22:00.931Z</time></trkpt><trkpt lat="43.8889713" lon="8.032768"><ele>15.999999999999998</ele><time>2026-04-21T09:22:01.933Z</time></trkpt><trkpt lat="43.8890261" lon="8.0328206"><ele>16.0</ele><time>2026-04-21T09:22:02.948Z</time></trkpt><trkpt lat="43.8891362" lon="8.0329259"><ele>16.0</ele><time>2026-04-21T09:22:04.931Z</time></trkpt><trkpt lat="43.8891904" lon="8.0329856"><ele>16.0</ele><time>2026-04-21T09:22:05.939Z</time></trkpt><trkpt lat="43.8892458" lon="8.0330502"><ele>15.999999999999998</ele><time>2026-04-21T09:22:06.933Z</time></trkpt><trkpt lat="43.889303" lon="8.0331098"><ele>16.0</ele><time>2026-04-21T09:22:07.931Z</time></trkpt><trkpt lat="43.889354" lon="8.0331734"><ele>16.333333333333332</ele><time>2026-04-21T09:22:08.932Z</time></trkpt><trkpt lat="43.8894079" lon="8.0332408"><ele>16.666666666666664</ele><time>2026-04-21T09:22:09.935Z</time></trkpt><trkpt lat="43.8894681" lon="8.0333055"><ele>17.0</ele><time>2026-04-21T09:22:10.926Z</time></trkpt><trkpt lat="43.8895336" lon="8.0333702"><ele>17.333333333333332</ele><time>2026-04-21T09:22:11.934Z</time></trkpt><trkpt lat="43.8896085" lon="8.0334414"><ele>17.666666666666668</ele><time>2026-04-21T09:22:12.933Z</time></trkpt><trkpt lat="43.8896817" lon="8.033508"><ele>18.0</ele><time>2026-04-21T09:22:13.936Z</time></trkpt><trkpt lat="43.889756" lon="8.0335731"><ele>17.166666666666668</ele><time>2026-04-21T09:22:14.931Z</time></trkpt><trkpt lat="43.8898273" lon="8.0336408"><ele>16.333333333333332</ele><time>2026-04-21T09:22:15.931Z</time></trkpt><trkpt lat="43.8898958" lon="8.0337122"><ele>15.5</ele><time>2026-04-21T09:22:16.936Z</time></trkpt><trkpt lat="43.8899637" lon="8.0337834"><ele>14.666666666666666</ele><time>2026-04-21T09:22:17.932Z</time></trkpt><trkpt lat="43.8900318" lon="8.0338578"><ele>13.833333333333332</ele><time>2026-04-21T09:22:18.935Z</time></trkpt><trkpt lat="43.8901011" lon="8.0339293"><ele>13.0</ele><time>2026-04-21T09:22:19.929Z</time></trkpt><trkpt lat="43.8901662" lon="8.0339946"><ele>13.0</ele><time>2026-04-21T09:22:20.937Z</time></trkpt><trkpt lat="43.8902238" lon="8.0340579"><ele>13.0</ele><time>2026-04-21T09:22:21.938Z</time></trkpt><trkpt lat="43.8902737" lon="8.0341159"><ele>13.0</ele><time>2026-04-21T09:22:22.94Z</time></trkpt><trkpt lat="43.8903494" lon="8.0342094"><ele>13.0</ele><time>2026-04-21T09:22:24.938Z</time></trkpt><trkpt lat="43.8904427" lon="8.0343624"><ele>13.0</ele><time>2026-04-21T09:22:29.935Z</time></trkpt><trkpt lat="43.8904748" lon="8.0344793"><ele>12.499999999999998</ele><time>2026-04-21T09:22:31.93Z</time></trkpt><trkpt lat="43.8904783" lon="8.0346076"><ele>12.0</ele><time>2026-04-21T09:22:33.936Z</time></trkpt><trkpt lat="43.8904986" lon="8.0347765"><ele>11.5</ele><time>2026-04-21T09:22:35.931Z</time></trkpt><trkpt lat="43.8905004" lon="8.0348728"><ele>11.0</ele><time>2026-04-21T09:22:36.934Z</time></trkpt><trkpt lat="43.8904914" lon="8.0349699"><ele>10.5</ele><time>2026-04-21T09:22:37.94Z</time></trkpt><trkpt lat="43.8904752" lon="8.0350754"><ele>10.0</ele><time>2026-04-21T09:22:38.938Z</time></trkpt><trkpt lat="43.8904567" lon="8.0351879"><ele>9.5</ele><time>2026-04-21T09:22:39.943Z</time></trkpt><trkpt lat="43.8904352" lon="8.0353064"><ele>9.0</ele><time>2026-04-21T09:22:40.93Z</time></trkpt><trkpt lat="43.8904167" lon="8.0354232"><ele>8.5</ele><time>2026-04-21T09:22:41.944Z</time></trkpt><trkpt lat="43.8903978" lon="8.0355334"><ele>8.0</ele><time>2026-04-21T09:22:42.938Z</time></trkpt><trkpt lat="43.8903816" lon="8.035637"><ele>7.500000000000001</ele><time>2026-04-21T09:22:43.94Z</time></trkpt><trkpt lat="43.8903685" lon="8.0357256"><ele>7.0</ele><time>2026-04-21T09:22:44.942Z</time></trkpt><trkpt lat="43.8903525" lon="8.0358371"><ele>7.0</ele><time>2026-04-21T09:22:46.943Z</time></trkpt><trkpt lat="43.890322" lon="8.0360228"><ele>6.999999999999999</ele><time>2026-04-21T09:22:54.934Z</time></trkpt><trkpt lat="43.8903183" lon="8.0361337"><ele>6.999999999999999</ele><time>2026-04-21T09:23:03.932Z</time></trkpt><trkpt lat="43.8903892" lon="8.0361921"><ele>7.0</ele><time>2026-04-21T09:23:05.936Z</time></trkpt><trkpt lat="43.8905019" lon="8.0361658"><ele>7.0</ele><time>2026-04-21T09:23:07.938Z</time></trkpt><trkpt lat="43.8906291" lon="8.036092"><ele>7.000000000000001</ele><time>2026-04-21T09:23:09.935Z</time></trkpt><trkpt lat="43.8907227" lon="8.0360397"><ele>7.0</ele><time>2026-04-21T09:23:11.941Z</time></trkpt><trkpt lat="43.8908025" lon="8.035997"><ele>7.0</ele><time>2026-04-21T09:23:14.93Z</time></trkpt><trkpt lat="43.8908769" lon="8.0359565"><ele>7.0</ele><time>2026-04-21T09:23:18.94Z</time></trkpt><trkpt lat="43.8909398" lon="8.0359293"><ele>7.000000000000001</ele><time>2026-04-21T09:23:21.932Z</time></trkpt><trkpt lat="43.8910068" lon="8.0358966"><ele>7.0</ele><time>2026-04-21T09:23:24.94Z</time></trkpt><trkpt lat="43.8910881" lon="8.0358417"><ele>7.199999999999999</ele><time>2026-04-21T09:23:27.93Z</time></trkpt><trkpt lat="43.8911745" lon="8.0358035"><ele>7.3999999999999995</ele><time>2026-04-21T09:23:29.937Z</time></trkpt><trkpt lat="43.8913861" lon="8.0357247"><ele>7.6000000000000005</ele><time>2026-04-21T09:23:33.938Z</time></trkpt><trkpt lat="43.8914497" lon="8.0357001"><ele>7.800000000000001</ele><time>2026-04-21T09:23:34.938Z</time></trkpt><trkpt lat="43.8915167" lon="8.0356767"><ele>8.0</ele><time>2026-04-21T09:23:35.93Z</time></trkpt><trkpt lat="43.89159" lon="8.0356554"><ele>7.666666666666666</ele><time>2026-04-21T09:23:36.936Z</time></trkpt><trkpt lat="43.891667" lon="8.0356283"><ele>7.333333333333333</ele><time>2026-04-21T09:23:37.934Z</time></trkpt><trkpt lat="43.8917457" lon="8.0355877"><ele>7.0</ele><time>2026-04-21T09:23:38.927Z</time></trkpt><trkpt lat="43.8918263" lon="8.0355374"><ele>6.666666666666666</ele><time>2026-04-21T09:23:39.929Z</time></trkpt><trkpt lat="43.8919091" lon="8.0354914"><ele>6.333333333333333</ele><time>2026-04-21T09:23:40.946Z</time></trkpt><trkpt lat="43.8919932" lon="8.035448"><ele>6.0</ele><time>2026-04-21T09:23:41.932Z</time></trkpt><trkpt lat="43.8920708" lon="8.0354062"><ele>6.8</ele><time>2026-04-21T09:23:42.934Z</time></trkpt><trkpt lat="43.8921403" lon="8.0353693"><ele>7.6</ele><time>2026-04-21T09:23:43.94Z</time></trkpt><trkpt lat="43.8922429" lon="8.0353205"><ele>8.4</ele><time>2026-04-21T09:23:45.93Z</time></trkpt><trkpt lat="43.8923157" lon="8.0352838"><ele>9.2</ele><time>2026-04-21T09:23:47.945Z</time></trkpt><trkpt lat="43.8924056" lon="8.0352431"><ele>10.0</ele><time>2026-04-21T09:23:49.938Z</time></trkpt><trkpt lat="43.8925437" lon="8.0351925"><ele>10.0</ele><time>2026-04-21T09:23:51.936Z</time></trkpt><trkpt lat="43.8927038" lon="8.0351221"><ele>10.0</ele><time>2026-04-21T09:23:53.94Z</time></trkpt><trkpt lat="43.8927902" lon="8.0350791"><ele>10.0</ele><time>2026-04-21T09:23:54.939Z</time></trkpt><trkpt lat="43.8928803" lon="8.0350306"><ele>10.0</ele><time>2026-04-21T09:23:55.94Z</time></trkpt><trkpt lat="43.8929724" lon="8.0349823"><ele>9.6</ele><time>2026-04-21T09:23:56.947Z</time></trkpt><trkpt lat="43.8930618" lon="8.0349382"><ele>9.2</ele><time>2026-04-21T09:23:57.931Z</time></trkpt><trkpt lat="43.8931529" lon="8.0348939"><ele>8.8</ele><time>2026-04-21T09:23:58.938Z</time></trkpt><trkpt lat="43.8932437" lon="8.0348503"><ele>8.4</ele><time>2026-04-21T09:23:59.929Z</time></trkpt><trkpt lat="43.8933358" lon="8.0348045"><ele>8.0</ele><time>2026-04-21T09:24:00.938Z</time></trkpt><trkpt lat="43.8934283" lon="8.0347593"><ele>8.0</ele><time>2026-04-21T09:24:01.934Z</time></trkpt><trkpt lat="43.8935208" lon="8.0347133"><ele>8.0</ele><time>2026-04-21T09:24:02.939Z</time></trkpt><trkpt lat="43.8936229" lon="8.0346631"><ele>8.0</ele><time>2026-04-21T09:24:03.943Z</time></trkpt><trkpt lat="43.8937204" lon="8.0346169"><ele>8.0</ele><time>2026-04-21T09:24:04.941Z</time></trkpt><trkpt lat="43.8938217" lon="8.0345747"><ele>8.0</ele><time>2026-04-21T09:24:05.951Z</time></trkpt><trkpt lat="43.8939232" lon="8.0345266"><ele>8.0</ele><time>2026-04-21T09:24:06.933Z</time></trkpt><trkpt lat="43.8940256" lon="8.0344795"><ele>8.0</ele><time>2026-04-21T09:24:07.949Z</time></trkpt><trkpt lat="43.8941272" lon="8.0344323"><ele>8.0</ele><time>2026-04-21T09:24:08.942Z</time></trkpt><trkpt lat="43.8942303" lon="8.0343864"><ele>8.0</ele><time>2026-04-21T09:24:09.948Z</time></trkpt><trkpt lat="43.8943285" lon="8.0343377"><ele>8.0</ele><time>2026-04-21T09:24:10.941Z</time></trkpt><trkpt lat="43.894423" lon="8.0342906"><ele>8.5</ele><time>2026-04-21T09:24:11.939Z</time></trkpt><trkpt lat="43.8945123" lon="8.0342443"><ele>9.0</ele><time>2026-04-21T09:24:12.946Z</time></trkpt><trkpt lat="43.8946884" lon="8.0341588"><ele>9.5</ele><time>2026-04-21T09:24:14.945Z</time></trkpt><trkpt lat="43.8947792" lon="8.0341159"><ele>10.0</ele><time>2026-04-21T09:24:15.936Z</time></trkpt><trkpt lat="43.8948701" lon="8.0340731"><ele>9.6</ele><time>2026-04-21T09:24:16.935Z</time></trkpt><trkpt lat="43.8949586" lon="8.0340315"><ele>9.2</ele><time>2026-04-21T09:24:17.94Z</time></trkpt><trkpt lat="43.8950463" lon="8.0339899"><ele>8.8</ele><time>2026-04-21T09:24:18.938Z</time></trkpt><trkpt lat="43.8951353" lon="8.0339489"><ele>8.4</ele><time>2026-04-21T09:24:19.936Z</time></trkpt><trkpt lat="43.8952257" lon="8.033906"><ele>8.0</ele><time>2026-04-21T09:24:20.941Z</time></trkpt><trkpt lat="43.8953145" lon="8.0338609"><ele>8.0</ele><time>2026-04-21T09:24:21.933Z</time></trkpt><trkpt lat="43.8954052" lon="8.033816"><ele>8.0</ele><time>2026-04-21T09:24:22.945Z</time></trkpt><trkpt lat="43.8955038" lon="8.0337685"><ele>8.0</ele><time>2026-04-21T09:24:23.939Z</time></trkpt><trkpt lat="43.8956071" lon="8.0337211"><ele>8.0</ele><time>2026-04-21T09:24:24.945Z</time></trkpt><trkpt lat="43.8957035" lon="8.0336741"><ele>8.0</ele><time>2026-04-21T09:24:25.931Z</time></trkpt><trkpt lat="43.8957997" lon="8.033625"><ele>8.0</ele><time>2026-04-21T09:24:26.94Z</time></trkpt><trkpt lat="43.8958947" lon="8.033576"><ele>8.0</ele><time>2026-04-21T09:24:27.931Z</time></trkpt><trkpt lat="43.8959902" lon="8.0335285"><ele>8.0</ele><time>2026-04-21T09:24:28.931Z</time></trkpt><trkpt lat="43.8960846" lon="8.0334831"><ele>8.0</ele><time>2026-04-21T09:24:29.941Z</time></trkpt><trkpt lat="43.8961756" lon="8.0334385"><ele>8.0</ele><time>2026-04-21T09:24:30.931Z</time></trkpt><trkpt lat="43.8962749" lon="8.0333952"><ele>8.25</ele><time>2026-04-21T09:24:31.943Z</time></trkpt><trkpt lat="43.8963694" lon="8.0333474"><ele>8.5</ele><time>2026-04-21T09:24:32.941Z</time></trkpt><trkpt lat="43.8964622" lon="8.0332995"><ele>8.75</ele><time>2026-04-21T09:24:33.942Z</time></trkpt><trkpt lat="43.8966399" lon="8.033206"><ele>9.0</ele><time>2026-04-21T09:24:35.937Z</time></trkpt><trkpt lat="43.8967205" lon="8.0331644"><ele>8.666666666666666</ele><time>2026-04-21T09:24:36.934Z</time></trkpt><trkpt lat="43.89679" lon="8.033127"><ele>8.333333333333334</ele><time>2026-04-21T09:24:37.937Z</time></trkpt><trkpt lat="43.8968512" lon="8.0330952"><ele>8.0</ele><time>2026-04-21T09:24:38.941Z</time></trkpt><trkpt lat="43.8969594" lon="8.0330544"><ele>7.666666666666667</ele><time>2026-04-21T09:24:40.938Z</time></trkpt><trkpt lat="43.8970617" lon="8.0330509"><ele>7.333333333333334</ele><time>2026-04-21T09:24:42.933Z</time></trkpt><trkpt lat="43.8971479" lon="8.0330163"><ele>7.0</ele><time>2026-04-21T09:24:44.934Z</time></trkpt><trkpt lat="43.8972136" lon="8.0329821"><ele>7.0</ele><time>2026-04-21T09:24:47.934Z</time></trkpt><trkpt lat="43.89728" lon="8.0329428"><ele>7.0</ele><time>2026-04-21T09:25:35.935Z</time></trkpt><trkpt lat="43.8974903" lon="8.0328287"><ele>7.0</ele><time>2026-04-21T09:25:39.936Z</time></trkpt><trkpt lat="43.8975652" lon="8.0328296"><ele>7.0</ele><time>2026-04-21T09:25:43.923Z</time></trkpt><trkpt lat="43.8976155" lon="8.0329345"><ele>7.199999999999999</ele><time>2026-04-21T09:25:47.925Z</time></trkpt><trkpt lat="43.8976357" lon="8.0330252"><ele>7.3999999999999995</ele><time>2026-04-21T09:25:49.935Z</time></trkpt><trkpt lat="43.8976565" lon="8.0331219"><ele>7.6000000000000005</ele><time>2026-04-21T09:25:51.929Z</time></trkpt><trkpt lat="43.8976973" lon="8.0333381"><ele>7.800000000000001</ele><time>2026-04-21T09:25:53.922Z</time></trkpt><trkpt lat="43.8977131" lon="8.0334322"><ele>8.0</ele><time>2026-04-21T09:25:54.922Z</time></trkpt><trkpt lat="43.8977379" lon="8.0335736"><ele>8.0</ele><time>2026-04-21T09:25:56.923Z</time></trkpt><trkpt lat="43.8977764" lon="8.0338011"><ele>8.0</ele><time>2026-04-21T09:26:02.938Z</time></trkpt><trkpt lat="43.8978111" lon="8.033984"><ele>8.0</ele><time>2026-04-21T09:26:04.935Z</time></trkpt><trkpt lat="43.8978288" lon="8.0341017"><ele>8.0</ele><time>2026-04-21T09:26:05.939Z</time></trkpt><trkpt lat="43.897846" lon="8.0342208"><ele>8.8</ele><time>2026-04-21T09:26:06.924Z</time></trkpt><trkpt lat="43.8978614" lon="8.0343361"><ele>9.600000000000001</ele><time>2026-04-21T09:26:07.939Z</time></trkpt><trkpt lat="43.8978801" lon="8.0344658"><ele>10.399999999999999</ele><time>2026-04-21T09:26:08.935Z</time></trkpt><trkpt lat="43.8979014" lon="8.0346024"><ele>11.2</ele><time>2026-04-21T09:26:09.934Z</time></trkpt><trkpt lat="43.897921" lon="8.0347352"><ele>12.0</ele><time>2026-04-21T09:26:10.933Z</time></trkpt><trkpt lat="43.8979482" lon="8.0348883"><ele>12.399999999999999</ele><time>2026-04-21T09:26:11.933Z</time></trkpt><trkpt lat="43.8979719" lon="8.035032"><ele>12.799999999999999</ele><time>2026-04-21T09:26:12.934Z</time></trkpt><trkpt lat="43.8979927" lon="8.0351867"><ele>13.2</ele><time>2026-04-21T09:26:13.925Z</time></trkpt><trkpt lat="43.8980113" lon="8.0353424"><ele>13.6</ele><time>2026-04-21T09:26:14.937Z</time></trkpt><trkpt lat="43.8980312" lon="8.0354576"><ele>14.0</ele><time>2026-04-21T09:26:15.936Z</time></trkpt><trkpt lat="43.8980486" lon="8.0355692"><ele>14.0</ele><time>2026-04-21T09:26:16.935Z</time></trkpt><trkpt lat="43.8980643" lon="8.035675"><ele>13.999999999999998</ele><time>2026-04-21T09:26:17.937Z</time></trkpt><trkpt lat="43.8980841" lon="8.0358828"><ele>13.999999999999998</ele><time>2026-04-21T09:26:19.922Z</time></trkpt><trkpt lat="43.8981003" lon="8.0360254"><ele>14.0</ele><time>2026-04-21T09:26:21.936Z</time></trkpt><trkpt lat="43.8981199" lon="8.036139"><ele>14.0</ele><time>2026-04-21T09:26:23.938Z</time></trkpt><trkpt lat="43.8981378" lon="8.0362417"><ele>14.5</ele><time>2026-04-21T09:26:26.931Z</time></trkpt><trkpt lat="43.8981437" lon="8.0363399"><ele>15.0</ele><time>2026-04-21T09:26:40.93Z</time></trkpt><trkpt lat="43.898154" lon="8.0366609"><ele>15.5</ele><time>2026-04-21T09:26:52.927Z</time></trkpt><trkpt lat="43.8981685" lon="8.0367843"><ele>16.0</ele><time>2026-04-21T09:26:53.92Z</time></trkpt><trkpt lat="43.8982085" lon="8.0368969"><ele>16.166666666666664</ele><time>2026-04-21T09:26:54.922Z</time></trkpt><trkpt lat="43.8982453" lon="8.0369953"><ele>16.333333333333332</ele><time>2026-04-21T09:26:55.922Z</time></trkpt><trkpt lat="43.8983025" lon="8.0370589"><ele>16.5</ele><time>2026-04-21T09:26:56.927Z</time></trkpt><trkpt lat="43.8983783" lon="8.0371018"><ele>16.666666666666668</ele><time>2026-04-21T09:26:57.925Z</time></trkpt><trkpt lat="43.898462" lon="8.0371057"><ele>16.833333333333336</ele><time>2026-04-21T09:26:58.922Z</time></trkpt><trkpt lat="43.8985816" lon="8.0370817"><ele>17.0</ele><time>2026-04-21T09:26:59.93Z</time></trkpt><trkpt lat="43.8986781" lon="8.0370332"><ele>17.75</ele><time>2026-04-21T09:27:00.936Z</time></trkpt><trkpt lat="43.8987734" lon="8.0369854"><ele>18.5</ele><time>2026-04-21T09:27:01.933Z</time></trkpt><trkpt lat="43.8989488" lon="8.0370539"><ele>19.25</ele><time>2026-04-21T09:27:03.929Z</time></trkpt><trkpt lat="43.8990402" lon="8.03714"><ele>20.0</ele><time>2026-04-21T09:27:04.935Z</time></trkpt><trkpt lat="43.8991415" lon="8.0372372"><ele>20.25</ele><time>2026-04-21T09:27:05.929Z</time></trkpt><trkpt lat="43.8992526" lon="8.0373324"><ele>20.5</ele><time>2026-04-21T09:27:06.927Z</time></trkpt><trkpt lat="43.899369" lon="8.0374225"><ele>20.75</ele><time>2026-04-21T09:27:07.927Z</time></trkpt><trkpt lat="43.8994889" lon="8.0375137"><ele>21.0</ele><time>2026-04-21T09:27:08.923Z</time></trkpt><trkpt lat="43.8996115" lon="8.0376075"><ele>21.0</ele><time>2026-04-21T09:27:09.926Z</time></trkpt><trkpt lat="43.899739" lon="8.0377012"><ele>21.0</ele><time>2026-04-21T09:27:10.924Z</time></trkpt><trkpt lat="43.899868" lon="8.0378022"><ele>21.0</ele><time>2026-04-21T09:27:11.923Z</time></trkpt><trkpt lat="43.8999967" lon="8.0379105"><ele>21.0</ele><time>2026-04-21T09:27:12.933Z</time></trkpt><trkpt lat="43.9001248" lon="8.0380234"><ele>22.333333333333336</ele><time>2026-04-21T09:27:13.929Z</time></trkpt><trkpt lat="43.9002502" lon="8.0381367"><ele>23.666666666666668</ele><time>2026-04-21T09:27:14.933Z</time></trkpt><trkpt lat="43.9003752" lon="8.0382518"><ele>25.0</ele><time>2026-04-21T09:27:15.932Z</time></trkpt><trkpt lat="43.9005056" lon="8.0383717"><ele>25.0</ele><time>2026-04-21T09:27:16.928Z</time></trkpt><trkpt lat="43.900634" lon="8.0384837"><ele>25.0</ele><time>2026-04-21T09:27:17.929Z</time></trkpt><trkpt lat="43.9007638" lon="8.0385946"><ele>25.0</ele><time>2026-04-21T09:27:18.926Z</time></trkpt><trkpt lat="43.9008932" lon="8.0387036"><ele>25.5</ele><time>2026-04-21T09:27:19.929Z</time></trkpt><trkpt lat="43.9010233" lon="8.0388114"><ele>26.0</ele><time>2026-04-21T09:27:20.922Z</time></trkpt><trkpt lat="43.9011562" lon="8.038903"><ele>26.5</ele><time>2026-04-21T09:27:21.936Z</time></trkpt><trkpt lat="43.9013001" lon="8.0389568"><ele>27.0</ele><time>2026-04-21T09:27:22.939Z</time></trkpt><trkpt lat="43.9015947" lon="8.0388787"><ele>27.0</ele><time>2026-04-21T09:27:24.924Z</time></trkpt><trkpt lat="43.9017433" lon="8.0388162"><ele>27.0</ele><time>2026-04-21T09:27:25.929Z</time></trkpt><trkpt lat="43.9018814" lon="8.0387549"><ele>27.0</ele><time>2026-04-21T09:27:26.931Z</time></trkpt><trkpt lat="43.9020098" lon="8.0387081"><ele>27.0</ele><time>2026-04-21T09:27:27.932Z</time></trkpt><trkpt lat="43.9021317" lon="8.0387074"><ele>27.75</ele><time>2026-04-21T09:27:28.924Z</time></trkpt><trkpt lat="43.9022416" lon="8.038776"><ele>28.5</ele><time>2026-04-21T09:27:29.928Z</time></trkpt><trkpt lat="43.9023171" lon="8.0389049"><ele>29.25</ele><time>2026-04-21T09:27:30.927Z</time></trkpt><trkpt lat="43.90234" lon="8.0390822"><ele>30.0</ele><time>2026-04-21T09:27:31.922Z</time></trkpt><trkpt lat="43.9023284" lon="8.0392695"><ele>31.75</ele><time>2026-04-21T09:27:32.932Z</time></trkpt><trkpt lat="43.9022673" lon="8.0394415"><ele>33.5</ele><time>2026-04-21T09:27:33.931Z</time></trkpt><trkpt lat="43.9021544" lon="8.0395739"><ele>35.25</ele><time>2026-04-21T09:27:34.929Z</time></trkpt><trkpt lat="43.9020179" lon="8.0396353"><ele>37.0</ele><time>2026-04-21T09:27:35.923Z</time></trkpt><trkpt lat="43.9018619" lon="8.0396017"><ele>36.333333333333336</ele><time>2026-04-21T09:27:36.918Z</time></trkpt><trkpt lat="43.9017052" lon="8.0395015"><ele>35.666666666666664</ele><time>2026-04-21T09:27:37.922Z</time></trkpt><trkpt lat="43.9015407" lon="8.0394054"><ele>35.0</ele><time>2026-04-21T09:27:38.931Z</time></trkpt><trkpt lat="43.9013748" lon="8.0393487"><ele>35.0</ele><time>2026-04-21T09:27:39.935Z</time></trkpt><trkpt lat="43.9012141" lon="8.0393361"><ele>35.0</ele><time>2026-04-21T09:27:40.933Z</time></trkpt><trkpt lat="43.9010705" lon="8.0394048"><ele>35.0</ele><time>2026-04-21T09:27:41.926Z</time></trkpt><trkpt lat="43.9009679" lon="8.0395783"><ele>35.0</ele><time>2026-04-21T09:27:42.925Z</time></trkpt><trkpt lat="43.9009248" lon="8.0398117"><ele>35.0</ele><time>2026-04-21T09:27:43.926Z</time></trkpt><trkpt lat="43.9010122" lon="8.0402722"><ele>38.33333333333333</ele><time>2026-04-21T09:27:45.928Z</time></trkpt><trkpt lat="43.9011072" lon="8.0404443"><ele>41.666666666666664</ele><time>2026-04-21T09:27:46.926Z</time></trkpt><trkpt lat="43.9012481" lon="8.0405451"><ele>45.0</ele><time>2026-04-21T09:27:47.932Z</time></trkpt><trkpt lat="43.9013997" lon="8.0405789"><ele>45.0</ele><time>2026-04-21T09:27:48.927Z</time></trkpt><trkpt lat="43.901589" lon="8.0404058"><ele>45.0</ele><time>2026-04-21T09:27:49.93Z</time></trkpt><trkpt lat="43.9017892" lon="8.0402316"><ele>47.33333333333333</ele><time>2026-04-21T09:27:50.929Z</time></trkpt><trkpt lat="43.9019691" lon="8.0401223"><ele>49.666666666666664</ele><time>2026-04-21T09:27:51.931Z</time></trkpt><trkpt lat="43.9021542" lon="8.0400171"><ele>52.0</ele><time>2026-04-21T09:27:52.925Z</time></trkpt><trkpt lat="43.9023318" lon="8.0399314"><ele>51.33333333333333</ele><time>2026-04-21T09:27:53.926Z</time></trkpt><trkpt lat="43.9025198" lon="8.039874"><ele>50.66666666666667</ele><time>2026-04-21T09:27:54.939Z</time></trkpt><trkpt lat="43.9026721" lon="8.0398884"><ele>50.0</ele><time>2026-04-21T09:27:55.926Z</time></trkpt><trkpt lat="43.9027887" lon="8.039969"><ele>55.5</ele><time>2026-04-21T09:27:56.924Z</time></trkpt><trkpt lat="43.90287" lon="8.0400987"><ele>61.0</ele><time>2026-04-21T09:27:57.93Z</time></trkpt><trkpt lat="43.9028982" lon="8.0402792"><ele>66.5</ele><time>2026-04-21T09:27:58.925Z</time></trkpt><trkpt lat="43.9028866" lon="8.0404874"><ele>72.0</ele><time>2026-04-21T09:27:59.923Z</time></trkpt><trkpt lat="43.902825" lon="8.0406739"><ele>72.0</ele><time>2026-04-21T09:28:00.929Z</time></trkpt><trkpt lat="43.9026839" lon="8.0407925"><ele>72.0</ele><time>2026-04-21T09:28:01.93Z</time></trkpt><trkpt lat="43.9025331" lon="8.040824"><ele>72.0</ele><time>2026-04-21T09:28:02.921Z</time></trkpt><trkpt lat="43.9023783" lon="8.0407991"><ele>62.0</ele><time>2026-04-21T09:28:03.929Z</time></trkpt><trkpt lat="43.9021826" lon="8.0406924"><ele>52.0</ele><time>2026-04-21T09:28:04.93Z</time></trkpt><trkpt lat="43.9018016" lon="8.04052"><ele>49.666666666666664</ele><time>2026-04-21T09:28:06.928Z</time></trkpt><trkpt lat="43.9016181" lon="8.0405235"><ele>47.33333333333333</ele><time>2026-04-21T09:28:07.927Z</time></trkpt><trkpt lat="43.9014562" lon="8.040627"><ele>45.0</ele><time>2026-04-21T09:28:08.925Z</time></trkpt><trkpt lat="43.9013197" lon="8.0407987"><ele>50.66666666666667</ele><time>2026-04-21T09:28:09.925Z</time></trkpt><trkpt lat="43.9012195" lon="8.041029"><ele>56.333333333333336</ele><time>2026-04-21T09:28:10.928Z</time></trkpt><trkpt lat="43.9011304" lon="8.04127"><ele>62.0</ele><time>2026-04-21T09:28:11.921Z</time></trkpt><trkpt lat="43.901031" lon="8.0414637"><ele>60.0</ele><time>2026-04-21T09:28:12.929Z</time></trkpt><trkpt lat="43.900903" lon="8.0416297"><ele>58.0</ele><time>2026-04-21T09:28:13.926Z</time></trkpt><trkpt lat="43.9007612" lon="8.0417295"><ele>56.0</ele><time>2026-04-21T09:28:14.923Z</time></trkpt><trkpt lat="43.9006001" lon="8.0417769"><ele>61.0</ele><time>2026-04-21T09:28:15.93Z</time></trkpt><trkpt lat="43.9004293" lon="8.0418096"><ele>66.0</ele><time>2026-04-21T09:28:16.934Z</time></trkpt><trkpt lat="43.9002522" lon="8.0418279"><ele>71.0</ele><time>2026-04-21T09:28:17.927Z</time></trkpt><trkpt lat="43.9000869" lon="8.0418593"><ele>70.66666666666667</ele><time>2026-04-21T09:28:18.923Z</time></trkpt><trkpt lat="43.8999204" lon="8.0418982"><ele>70.33333333333333</ele><time>2026-04-21T09:28:19.928Z</time></trkpt><trkpt lat="43.8997548" lon="8.0419339"><ele>70.0</ele><time>2026-04-21T09:28:20.933Z</time></trkpt><trkpt lat="43.899585" lon="8.0419659"><ele>70.0</ele><time>2026-04-21T09:28:21.924Z</time></trkpt><trkpt lat="43.8994087" lon="8.0419967"><ele>70.0</ele><time>2026-04-21T09:28:22.924Z</time></trkpt><trkpt lat="43.899232" lon="8.0420251"><ele>70.0</ele><time>2026-04-21T09:28:23.931Z</time></trkpt><trkpt lat="43.8990658" lon="8.0420563"><ele>68.5</ele><time>2026-04-21T09:28:24.932Z</time></trkpt><trkpt lat="43.8989042" lon="8.042089"><ele>67.0</ele><time>2026-04-21T09:28:25.931Z</time></trkpt><trkpt lat="43.8986086" lon="8.0422222"><ele>67.0</ele><time>2026-04-21T09:28:27.929Z</time></trkpt><trkpt lat="43.8984985" lon="8.0423586"><ele>67.0</ele><time>2026-04-21T09:28:28.929Z</time></trkpt><trkpt lat="43.8984565" lon="8.0425655"><ele>67.0</ele><time>2026-04-21T09:28:29.926Z</time></trkpt><trkpt lat="43.8985021" lon="8.0427966"><ele>72.33333333333333</ele><time>2026-04-21T09:28:30.93Z</time></trkpt><trkpt lat="43.8986064" lon="8.0429832"><ele>77.66666666666667</ele><time>2026-04-21T09:28:31.93Z</time></trkpt><trkpt lat="43.8987451" lon="8.0431141"><ele>83.0</ele><time>2026-04-21T09:28:32.928Z</time></trkpt><trkpt lat="43.898897" lon="8.0431992"><ele>83.0</ele><time>2026-04-21T09:28:33.927Z</time></trkpt><trkpt lat="43.899075" lon="8.0432419"><ele>83.0</ele><time>2026-04-21T09:28:34.925Z</time></trkpt><trkpt lat="43.8992167" lon="8.0431017"><ele>83.0</ele><time>2026-04-21T09:28:35.93Z</time></trkpt><trkpt lat="43.8993302" lon="8.0429091"><ele>83.66666666666667</ele><time>2026-04-21T09:28:36.924Z</time></trkpt><trkpt lat="43.8994425" lon="8.042718"><ele>84.33333333333333</ele><time>2026-04-21T09:28:37.922Z</time></trkpt><trkpt lat="43.8995709" lon="8.0425872"><ele>85.0</ele><time>2026-04-21T09:28:38.923Z</time></trkpt><trkpt lat="43.899713" lon="8.042513"><ele>85.0</ele><time>2026-04-21T09:28:39.923Z</time></trkpt><trkpt lat="43.8998609" lon="8.0425359"><ele>85.0</ele><time>2026-04-21T09:28:40.924Z</time></trkpt><trkpt lat="43.900004" lon="8.042626"><ele>85.0</ele><time>2026-04-21T09:28:41.927Z</time></trkpt><trkpt lat="43.9001445" lon="8.0427667"><ele>86.33333333333333</ele><time>2026-04-21T09:28:42.926Z</time></trkpt><trkpt lat="43.9002859" lon="8.0429042"><ele>87.66666666666667</ele><time>2026-04-21T09:28:43.923Z</time></trkpt><trkpt lat="43.9004224" lon="8.0430183"><ele>89.0</ele><time>2026-04-21T09:28:44.924Z</time></trkpt><trkpt lat="43.9005552" lon="8.0431011"><ele>89.0</ele><time>2026-04-21T09:28:45.932Z</time></trkpt><trkpt lat="43.9006812" lon="8.0431397"><ele>89.0</ele><time>2026-04-21T09:28:46.927Z</time></trkpt><trkpt lat="43.9009065" lon="8.0430802"><ele>89.0</ele><time>2026-04-21T09:28:48.928Z</time></trkpt><trkpt lat="43.9009963" lon="8.0430153"><ele>90.80000000000001</ele><time>2026-04-21T09:28:49.929Z</time></trkpt><trkpt lat="43.9010594" lon="8.042932"><ele>92.60000000000001</ele><time>2026-04-21T09:28:50.928Z</time></trkpt><trkpt lat="43.901104" lon="8.0428325"><ele>94.4</ele><time>2026-04-21T09:28:51.927Z</time></trkpt><trkpt lat="43.9011556" lon="8.042765"><ele>96.2</ele><time>2026-04-21T09:28:52.927Z</time></trkpt><trkpt lat="43.9012374" lon="8.0426878"><ele>98.0</ele><time>2026-04-21T09:28:54.929Z</time></trkpt><trkpt lat="43.9013334" lon="8.0426072"><ele>98.0</ele><time>2026-04-21T09:29:08.926Z</time></trkpt><trkpt lat="43.9015464" lon="8.0424701"><ele>98.0</ele><time>2026-04-21T09:29:10.928Z</time></trkpt><trkpt lat="43.9016607" lon="8.0423904"><ele>98.0</ele><time>2026-04-21T09:29:11.929Z</time></trkpt><trkpt lat="43.9017846" lon="8.0422913"><ele>94.0</ele><time>2026-04-21T09:29:12.929Z</time></trkpt><trkpt lat="43.9019099" lon="8.0421965"><ele>90.0</ele><time>2026-04-21T09:29:13.927Z</time></trkpt><trkpt lat="43.9020196" lon="8.0421317"><ele>86.0</ele><time>2026-04-21T09:29:14.93Z</time></trkpt><trkpt lat="43.9021248" lon="8.0420965"><ele>82.0</ele><time>2026-04-21T09:29:15.93Z</time></trkpt><trkpt lat="43.9022235" lon="8.042096"><ele>82.0</ele><time>2026-04-21T09:29:16.936Z</time></trkpt><trkpt lat="43.902319" lon="8.0421222"><ele>82.0</ele><time>2026-04-21T09:29:17.932Z</time></trkpt><trkpt lat="43.902411" lon="8.0421829"><ele>82.0</ele><time>2026-04-21T09:29:18.934Z</time></trkpt><trkpt lat="43.9025022" lon="8.0422738"><ele>82.0</ele><time>2026-04-21T09:29:19.932Z</time></trkpt><trkpt lat="43.9026101" lon="8.0424051"><ele>85.75</ele><time>2026-04-21T09:29:20.929Z</time></trkpt><trkpt lat="43.9027094" lon="8.0425298"><ele>89.5</ele><time>2026-04-21T09:29:21.923Z</time></trkpt><trkpt lat="43.9027932" lon="8.0426684"><ele>93.25</ele><time>2026-04-21T09:29:22.93Z</time></trkpt><trkpt lat="43.902888" lon="8.0427996"><ele>97.0</ele><time>2026-04-21T09:29:23.924Z</time></trkpt><trkpt lat="43.9029964" lon="8.0429233"><ele>97.0</ele><time>2026-04-21T09:29:24.925Z</time></trkpt><trkpt lat="43.9031173" lon="8.0430166"><ele>97.0</ele><time>2026-04-21T09:29:25.929Z</time></trkpt><trkpt lat="43.9032598" lon="8.0430769"><ele>97.0</ele><time>2026-04-21T09:29:26.926Z</time></trkpt><trkpt lat="43.903399" lon="8.0430935"><ele>97.0</ele><time>2026-04-21T09:29:27.924Z</time></trkpt><trkpt lat="43.9035339" lon="8.0430461"><ele>105.66666666666667</ele><time>2026-04-21T09:29:28.92Z</time></trkpt><trkpt lat="43.9036698" lon="8.0429593"><ele>114.33333333333334</ele><time>2026-04-21T09:29:29.922Z</time></trkpt><trkpt lat="43.9039399" lon="8.0428014"><ele>123.0</ele><time>2026-04-21T09:29:31.928Z</time></trkpt><trkpt lat="43.9040631" lon="8.0428153"><ele>123.0</ele><time>2026-04-21T09:29:32.924Z</time></trkpt><trkpt lat="43.9041654" lon="8.0429321"><ele>123.0</ele><time>2026-04-21T09:29:33.923Z</time></trkpt><trkpt lat="43.9042294" lon="8.043105"><ele>123.0</ele><time>2026-04-21T09:29:34.926Z</time></trkpt><trkpt lat="43.904248" lon="8.0433009"><ele>123.0</ele><time>2026-04-21T09:29:35.925Z</time></trkpt><trkpt lat="43.9042191" lon="8.0434922"><ele>121.5</ele><time>2026-04-21T09:29:36.923Z</time></trkpt><trkpt lat="43.9041428" lon="8.043645"><ele>120.0</ele><time>2026-04-21T09:29:37.925Z</time></trkpt><trkpt lat="43.9040462" lon="8.0437383"><ele>118.5</ele><time>2026-04-21T09:29:38.919Z</time></trkpt><trkpt lat="43.9039308" lon="8.0438042"><ele>117.0</ele><time>2026-04-21T09:29:39.924Z</time></trkpt><trkpt lat="43.9038122" lon="8.0438361"><ele>117.0</ele><time>2026-04-21T09:29:40.924Z</time></trkpt><trkpt lat="43.9037048" lon="8.0438432"><ele>117.0</ele><time>2026-04-21T09:29:41.928Z</time></trkpt><trkpt lat="43.9036026" lon="8.0437963"><ele>117.0</ele><time>2026-04-21T09:29:42.927Z</time></trkpt><trkpt lat="43.9034821" lon="8.04367"><ele>117.0</ele><time>2026-04-21T09:29:43.926Z</time></trkpt><trkpt lat="43.9033624" lon="8.0435069"><ele>114.33333333333334</ele><time>2026-04-21T09:29:44.924Z</time></trkpt><trkpt lat="43.9032388" lon="8.0433293"><ele>111.66666666666667</ele><time>2026-04-21T09:29:45.923Z</time></trkpt><trkpt lat="43.9031075" lon="8.0431504"><ele>109.0</ele><time>2026-04-21T09:29:46.919Z</time></trkpt><trkpt lat="43.9029716" lon="8.0429735"><ele>106.0</ele><time>2026-04-21T09:29:47.924Z</time></trkpt><trkpt lat="43.9028369" lon="8.0427975"><ele>103.0</ele><time>2026-04-21T09:29:48.926Z</time></trkpt><trkpt lat="43.9027059" lon="8.0426323"><ele>100.0</ele><time>2026-04-21T09:29:49.926Z</time></trkpt><trkpt lat="43.9025796" lon="8.0424762"><ele>94.0</ele><time>2026-04-21T09:29:50.924Z</time></trkpt><trkpt lat="43.9023386" lon="8.0422189"><ele>88.0</ele><time>2026-04-21T09:29:52.928Z</time></trkpt><trkpt lat="43.9022094" lon="8.0421463"><ele>82.0</ele><time>2026-04-21T09:29:53.925Z</time></trkpt><trkpt lat="43.9020675" lon="8.0421622"><ele>82.0</ele><time>2026-04-21T09:29:54.927Z</time></trkpt><trkpt lat="43.9019185" lon="8.0423086"><ele>82.0</ele><time>2026-04-21T09:29:55.932Z</time></trkpt><trkpt lat="43.9017968" lon="8.0424956"><ele>82.0</ele><time>2026-04-21T09:29:56.923Z</time></trkpt><trkpt lat="43.9016888" lon="8.0427092"><ele>87.33333333333333</ele><time>2026-04-21T09:29:57.929Z</time></trkpt><trkpt lat="43.9015885" lon="8.0429124"><ele>92.66666666666666</ele><time>2026-04-21T09:29:58.928Z</time></trkpt><trkpt lat="43.9014741" lon="8.04309"><ele>98.0</ele><time>2026-04-21T09:29:59.923Z</time></trkpt><trkpt lat="43.9013512" lon="8.0432605"><ele>102.33333333333333</ele><time>2026-04-21T09:30:00.923Z</time></trkpt><trkpt lat="43.9012235" lon="8.0434121"><ele>106.66666666666666</ele><time>2026-04-21T09:30:01.927Z</time></trkpt><trkpt lat="43.9010939" lon="8.0435395"><ele>111.0</ele><time>2026-04-21T09:30:02.928Z</time></trkpt><trkpt lat="43.9009813" lon="8.0436424"><ele>109.0</ele><time>2026-04-21T09:30:03.927Z</time></trkpt><trkpt lat="43.9008865" lon="8.0437268"><ele>107.0</ele><time>2026-04-21T09:30:04.926Z</time></trkpt><trkpt lat="43.9008069" lon="8.0438"><ele>105.0</ele><time>2026-04-21T09:30:05.923Z</time></trkpt><trkpt lat="43.9007336" lon="8.0438786"><ele>103.0</ele><time>2026-04-21T09:30:06.921Z</time></trkpt><trkpt lat="43.9006593" lon="8.0439718"><ele>101.0</ele><time>2026-04-21T09:30:07.921Z</time></trkpt><trkpt lat="43.9005811" lon="8.0440817"><ele>105.0</ele><time>2026-04-21T09:30:08.924Z</time></trkpt><trkpt lat="43.9005002" lon="8.044207"><ele>109.0</ele><time>2026-04-21T09:30:09.929Z</time></trkpt><trkpt lat="43.9004105" lon="8.044347"><ele>113.0</ele><time>2026-04-21T09:30:10.923Z</time></trkpt><trkpt lat="43.9003156" lon="8.0444926"><ele>117.0</ele><time>2026-04-21T09:30:11.925Z</time></trkpt><trkpt lat="43.9001373" lon="8.0447959"><ele>120.0</ele><time>2026-04-21T09:30:13.919Z</time></trkpt><trkpt lat="43.8989738" lon="8.0482206"><ele>115.0</ele><time>2026-04-21T09:30:27.923Z</time></trkpt><trkpt lat="43.898928" lon="8.0485101"><ele>110.0</ele><time>2026-04-21T09:30:28.924Z</time></trkpt><trkpt lat="43.8988954" lon="8.048775"><ele>105.0</ele><time>2026-04-21T09:30:29.927Z</time></trkpt><trkpt lat="43.8988802" lon="8.0490904"><ele>105.33333333333334</ele><time>2026-04-21T09:30:30.924Z</time></trkpt><trkpt lat="43.8988773" lon="8.0493614"><ele>105.66666666666667</ele><time>2026-04-21T09:30:31.921Z</time></trkpt><trkpt lat="43.898882" lon="8.049649"><ele>106.0</ele><time>2026-04-21T09:30:32.926Z</time></trkpt><trkpt lat="43.8989282" lon="8.0502277"><ele>106.0</ele><time>2026-04-21T09:30:34.926Z</time></trkpt><trkpt lat="43.8989657" lon="8.0505092"><ele>106.0</ele><time>2026-04-21T09:30:35.922Z</time></trkpt><trkpt lat="43.8990063" lon="8.0507868"><ele>106.0</ele><time>2026-04-21T09:30:36.921Z</time></trkpt><trkpt lat="43.90439" lon="8.0615798"><ele>93.0</ele><time>2026-04-21T09:31:19.923Z</time></trkpt><trkpt lat="43.9046528" lon="8.062092"><ele>93.0</ele><time>2026-04-21T09:31:21.923Z</time></trkpt><trkpt lat="43.9048105" lon="8.0623004"><ele>93.0</ele><time>2026-04-21T09:31:22.937Z</time></trkpt><trkpt lat="43.90494" lon="8.062528"><ele>93.0</ele><time>2026-04-21T09:31:23.934Z</time></trkpt><trkpt lat="43.9050747" lon="8.0627674"><ele>94.33333333333334</ele><time>2026-04-21T09:31:24.932Z</time></trkpt><trkpt lat="43.90521" lon="8.063009"><ele>95.66666666666667</ele><time>2026-04-21T09:31:25.936Z</time></trkpt><trkpt lat="43.9053466" lon="8.0632577"><ele>97.0</ele><time>2026-04-21T09:31:26.926Z</time></trkpt><trkpt lat="43.9054832" lon="8.06351"><ele>92.5</ele><time>2026-04-21T09:31:27.945Z</time></trkpt><trkpt lat="43.9056196" lon="8.0637664"><ele>88.0</ele><time>2026-04-21T09:31:28.931Z</time></trkpt><trkpt lat="43.9057616" lon="8.0640116"><ele>90.0</ele><time>2026-04-21T09:31:29.938Z</time></trkpt><trkpt lat="43.9059115" lon="8.0642589"><ele>92.0</ele><time>2026-04-21T09:31:30.935Z</time></trkpt><trkpt lat="43.9060644" lon="8.0645021"><ele>92.0</ele><time>2026-04-21T09:31:31.941Z</time></trkpt><trkpt lat="43.906225" lon="8.0647413"><ele>92.0</ele><time>2026-04-21T09:31:32.93Z</time></trkpt><trkpt lat="43.9063946" lon="8.0649736"><ele>85.0</ele><time>2026-04-21T09:31:33.935Z</time></trkpt><trkpt lat="43.9065665" lon="8.0652064"><ele>78.0</ele><time>2026-04-21T09:31:34.938Z</time></trkpt><trkpt lat="43.9067444" lon="8.0654356"><ele>74.5</ele><time>2026-04-21T09:31:35.933Z</time></trkpt><trkpt lat="43.9069286" lon="8.0656577"><ele>71.0</ele><time>2026-04-21T09:31:36.949Z</time></trkpt><trkpt lat="43.9071174" lon="8.0658753"><ele>69.0</ele><time>2026-04-21T09:31:37.939Z</time></trkpt><trkpt lat="43.9073103" lon="8.066088"><ele>67.0</ele><time>2026-04-21T09:31:38.946Z</time></trkpt><trkpt lat="43.9075138" lon="8.066291"><ele>57.5</ele><time>2026-04-21T09:31:39.938Z</time></trkpt><trkpt lat="43.9077165" lon="8.0664911"><ele>48.0</ele><time>2026-04-21T09:31:40.941Z</time></trkpt><trkpt lat="43.9081353" lon="8.0668641"><ele>48.0</ele><time>2026-04-21T09:31:42.937Z</time></trkpt><trkpt lat="43.9083494" lon="8.0670385"><ele>48.0</ele><time>2026-04-21T09:31:43.939Z</time></trkpt><trkpt lat="43.90857" lon="8.0672093"><ele>42.5</ele><time>2026-04-21T09:31:44.942Z</time></trkpt><trkpt lat="43.9087961" lon="8.0673722"><ele>37.0</ele><time>2026-04-21T09:31:45.939Z</time></trkpt><trkpt lat="43.9090273" lon="8.0675227"><ele>42.5</ele><time>2026-04-21T09:31:46.939Z</time></trkpt><trkpt lat="43.9092618" lon="8.067663"><ele>48.0</ele><time>2026-04-21T09:31:47.946Z</time></trkpt><trkpt lat="43.9094974" lon="8.0677944"><ele>48.0</ele><time>2026-04-21T09:31:48.943Z</time></trkpt><trkpt lat="43.9097403" lon="8.0679174"><ele>48.0</ele><time>2026-04-21T09:31:49.936Z</time></trkpt><trkpt lat="43.9099878" lon="8.068031"><ele>54.5</ele><time>2026-04-21T09:31:50.93Z</time></trkpt><trkpt lat="43.9102381" lon="8.0681368"><ele>61.0</ele><time>2026-04-21T09:31:51.93Z</time></trkpt><trkpt lat="43.91049" lon="8.0682411"><ele>67.0</ele><time>2026-04-21T09:31:52.948Z</time></trkpt><trkpt lat="43.9107405" lon="8.068346"><ele>73.0</ele><time>2026-04-21T09:31:53.937Z</time></trkpt><trkpt lat="43.9109889" lon="8.0684482"><ele>59.0</ele><time>2026-04-21T09:31:54.929Z</time></trkpt><trkpt lat="43.9126736" lon="8.0688383"><ele>51.0</ele><time>2026-04-21T09:32:01.93Z</time></trkpt><trkpt lat="43.9136635" lon="8.0690649"><ele>39.0</ele><time>2026-04-21T09:32:04.935Z</time></trkpt><trkpt lat="43.9139235" lon="8.0691169"><ele>27.0</ele><time>2026-04-21T09:32:05.929Z</time></trkpt><trkpt lat="43.9141842" lon="8.0691751"><ele>23.0</ele><time>2026-04-21T09:32:06.942Z</time></trkpt><trkpt lat="43.9144516" lon="8.0692326"><ele>19.0</ele><time>2026-04-21T09:32:07.931Z</time></trkpt><trkpt lat="43.9147229" lon="8.0692908"><ele>19.0</ele><time>2026-04-21T09:32:08.946Z</time></trkpt><trkpt lat="43.9149996" lon="8.0693494"><ele>19.0</ele><time>2026-04-21T09:32:09.938Z</time></trkpt><trkpt lat="43.9152785" lon="8.0694086"><ele>19.5</ele><time>2026-04-21T09:32:10.938Z</time></trkpt><trkpt lat="43.9155606" lon="8.0694703"><ele>20.0</ele><time>2026-04-21T09:32:11.937Z</time></trkpt><trkpt lat="43.9158389" lon="8.0695321"><ele>20.5</ele><time>2026-04-21T09:32:12.94Z</time></trkpt><trkpt lat="43.9161146" lon="8.069597"><ele>21.0</ele><time>2026-04-21T09:32:13.939Z</time></trkpt><trkpt lat="43.9163889" lon="8.0696712"><ele>21.0</ele><time>2026-04-21T09:32:14.938Z</time></trkpt><trkpt lat="43.9166613" lon="8.0697484"><ele>21.0</ele><time>2026-04-21T09:32:15.934Z</time></trkpt><trkpt lat="43.9169321" lon="8.0698164"><ele>24.5</ele><time>2026-04-21T09:32:16.936Z</time></trkpt><trkpt lat="43.9172003" lon="8.0698754"><ele>28.0</ele><time>2026-04-21T09:32:17.943Z</time></trkpt><trkpt lat="43.9174656" lon="8.0699252"><ele>35.0</ele><time>2026-04-21T09:32:18.947Z</time></trkpt><trkpt lat="43.9177266" lon="8.0699715"><ele>42.0</ele><time>2026-04-21T09:32:19.934Z</time></trkpt><trkpt lat="43.9179921" lon="8.0700192"><ele>39.0</ele><time>2026-04-21T09:32:20.941Z</time></trkpt><trkpt lat="43.9210061" lon="8.0722233"><ele>33.0</ele><time>2026-04-21T09:32:33.928Z</time></trkpt><trkpt lat="43.9212755" lon="8.0728233"><ele>33.0</ele><time>2026-04-21T09:32:35.931Z</time></trkpt><trkpt lat="43.9214116" lon="8.0731044"><ele>33.0</ele><time>2026-04-21T09:32:36.932Z</time></trkpt><trkpt lat="43.9215396" lon="8.073408"><ele>31.0</ele><time>2026-04-21T09:32:37.934Z</time></trkpt><trkpt lat="43.9216601" lon="8.0737108"><ele>29.0</ele><time>2026-04-21T09:32:38.942Z</time></trkpt><trkpt lat="43.9217761" lon="8.074018"><ele>27.0</ele><time>2026-04-21T09:32:39.941Z</time></trkpt><trkpt lat="43.9218853" lon="8.0743299"><ele>25.0</ele><time>2026-04-21T09:32:40.949Z</time></trkpt><trkpt lat="43.9219796" lon="8.074647"><ele>24.0</ele><time>2026-04-21T09:32:41.943Z</time></trkpt><trkpt lat="43.9220671" lon="8.0749703"><ele>23.0</ele><time>2026-04-21T09:32:42.948Z</time></trkpt><trkpt lat="43.9221457" lon="8.0752964"><ele>23.0</ele><time>2026-04-21T09:32:43.946Z</time></trkpt><trkpt lat="43.9222112" lon="8.0756226"><ele>23.0</ele><time>2026-04-21T09:32:44.935Z</time></trkpt><trkpt lat="43.9222641" lon="8.0759522"><ele>24.5</ele><time>2026-04-21T09:32:45.94Z</time></trkpt><trkpt lat="43.9223029" lon="8.0762836"><ele>26.0</ele><time>2026-04-21T09:32:46.94Z</time></trkpt><trkpt lat="43.9223276" lon="8.0766164"><ele>29.5</ele><time>2026-04-21T09:32:47.945Z</time></trkpt><trkpt lat="43.9223363" lon="8.0769459"><ele>33.0</ele><time>2026-04-21T09:32:48.955Z</time></trkpt><trkpt lat="43.9223319" lon="8.0772795"><ele>35.5</ele><time>2026-04-21T09:32:49.943Z</time></trkpt><trkpt lat="43.9223234" lon="8.0776139"><ele>38.0</ele><time>2026-04-21T09:32:50.946Z</time></trkpt><trkpt lat="43.9223265" lon="8.0779428"><ele>38.0</ele><time>2026-04-21T09:32:51.934Z</time></trkpt><trkpt lat="43.922342" lon="8.0782654"><ele>38.0</ele><time>2026-04-21T09:32:52.933Z</time></trkpt><trkpt lat="43.9223582" lon="8.0785923"><ele>41.5</ele><time>2026-04-21T09:32:53.94Z</time></trkpt><trkpt lat="43.9223732" lon="8.0789251"><ele>45.0</ele><time>2026-04-21T09:32:54.939Z</time></trkpt><trkpt lat="43.9224113" lon="8.0795726"><ele>50.0</ele><time>2026-04-21T09:32:56.94Z</time></trkpt><trkpt lat="43.9224241" lon="8.0799017"><ele>55.0</ele><time>2026-04-21T09:32:57.932Z</time></trkpt><trkpt lat="43.9224357" lon="8.0802394"><ele>61.0</ele><time>2026-04-21T09:32:58.928Z</time></trkpt><trkpt lat="43.9225275" lon="8.0846269"><ele>48.5</ele><time>2026-04-21T09:33:10.932Z</time></trkpt><trkpt lat="43.9225718" lon="8.0849336"><ele>36.0</ele><time>2026-04-21T09:33:11.926Z</time></trkpt><trkpt lat="43.9225915" lon="8.0852706"><ele>36.0</ele><time>2026-04-21T09:33:12.93Z</time></trkpt><trkpt lat="43.9226215" lon="8.085621"><ele>36.0</ele><time>2026-04-21T09:33:13.938Z</time></trkpt><trkpt lat="43.9226364" lon="8.0859173"><ele>38.0</ele><time>2026-04-21T09:33:14.952Z</time></trkpt><trkpt lat="43.9226504" lon="8.0862386"><ele>40.0</ele><time>2026-04-21T09:33:15.932Z</time></trkpt><trkpt lat="43.9226824" lon="8.0868699"><ele>44.333333333333336</ele><time>2026-04-21T09:33:17.937Z</time></trkpt><trkpt lat="43.9227149" lon="8.0871786"><ele>48.66666666666667</ele><time>2026-04-21T09:33:18.948Z</time></trkpt><trkpt lat="43.9227307" lon="8.0874874"><ele>53.0</ele><time>2026-04-21T09:33:19.949Z</time></trkpt><trkpt lat="43.9227364" lon="8.0877979"><ele>62.5</ele><time>2026-04-21T09:33:20.949Z</time></trkpt><trkpt lat="43.9227441" lon="8.0881113"><ele>72.0</ele><time>2026-04-21T09:33:21.939Z</time></trkpt><trkpt lat="43.9227606" lon="8.088425"><ele>77.5</ele><time>2026-04-21T09:33:22.949Z</time></trkpt><trkpt lat="43.9227746" lon="8.0887427"><ele>83.0</ele><time>2026-04-21T09:33:23.945Z</time></trkpt><trkpt lat="43.922794" lon="8.0890637"><ele>84.5</ele><time>2026-04-21T09:33:24.932Z</time></trkpt><trkpt lat="43.9228161" lon="8.0893871"><ele>86.0</ele><time>2026-04-21T09:33:25.943Z</time></trkpt><trkpt lat="43.9228391" lon="8.0897114"><ele>85.5</ele><time>2026-04-21T09:33:26.935Z</time></trkpt><trkpt lat="43.9228751" lon="8.0900366"><ele>85.0</ele><time>2026-04-21T09:33:27.942Z</time></trkpt><trkpt lat="43.9229238" lon="8.0903597"><ele>85.0</ele><time>2026-04-21T09:33:28.939Z</time></trkpt><trkpt lat="43.9229806" lon="8.0906795"><ele>85.0</ele><time>2026-04-21T09:33:29.938Z</time></trkpt><trkpt lat="43.9230474" lon="8.0909969"><ele>82.0</ele><time>2026-04-21T09:33:30.943Z</time></trkpt><trkpt lat="43.9231286" lon="8.0913101"><ele>79.0</ele><time>2026-04-21T09:33:31.932Z</time></trkpt><trkpt lat="43.9232228" lon="8.091622"><ele>79.0</ele><time>2026-04-21T09:33:32.94Z</time></trkpt><trkpt lat="43.9233387" lon="8.0919244"><ele>79.0</ele><time>2026-04-21T09:33:33.931Z</time></trkpt><trkpt lat="43.9234537" lon="8.0922225"><ele>86.0</ele><time>2026-04-21T09:33:34.937Z</time></trkpt><trkpt lat="43.9235749" lon="8.092514"><ele>93.0</ele><time>2026-04-21T09:33:35.946Z</time></trkpt><trkpt lat="43.923706" lon="8.0927971"><ele>78.0</ele><time>2026-04-21T09:33:36.932Z</time></trkpt><trkpt lat="43.9240017" lon="8.0933378"><ele>78.0</ele><time>2026-04-21T09:33:38.943Z</time></trkpt><trkpt lat="43.9241623" lon="8.0935929"><ele>78.0</ele><time>2026-04-21T09:33:39.934Z</time></trkpt><trkpt lat="43.9243326" lon="8.0938362"><ele>70.0</ele><time>2026-04-21T09:33:40.939Z</time></trkpt><trkpt lat="43.9245113" lon="8.0940709"><ele>62.0</ele><time>2026-04-21T09:33:41.942Z</time></trkpt><trkpt lat="43.9246944" lon="8.0942928"><ele>63.5</ele><time>2026-04-21T09:33:42.94Z</time></trkpt><trkpt lat="43.9248802" lon="8.0945045"><ele>65.0</ele><time>2026-04-21T09:33:43.948Z</time></trkpt><trkpt lat="43.9250766" lon="8.0947097"><ele>65.0</ele><time>2026-04-21T09:33:44.947Z</time></trkpt><trkpt lat="43.9252801" lon="8.0949072"><ele>65.0</ele><time>2026-04-21T09:33:45.94Z</time></trkpt><trkpt lat="43.9254873" lon="8.0951003"><ele>73.5</ele><time>2026-04-21T09:33:46.933Z</time></trkpt><trkpt lat="43.9256946" lon="8.0952934"><ele>82.0</ele><time>2026-04-21T09:33:47.934Z</time></trkpt><trkpt lat="43.9259047" lon="8.0954875"><ele>84.5</ele><time>2026-04-21T09:33:48.947Z</time></trkpt><trkpt lat="43.9261153" lon="8.0956812"><ele>87.0</ele><time>2026-04-21T09:33:49.94Z</time></trkpt><trkpt lat="43.9263248" lon="8.0958744"><ele>87.0</ele><time>2026-04-21T09:33:50.951Z</time></trkpt><trkpt lat="43.9265392" lon="8.0960725"><ele>87.0</ele><time>2026-04-21T09:33:51.932Z</time></trkpt><trkpt lat="43.9267545" lon="8.0962736"><ele>87.5</ele><time>2026-04-21T09:33:52.93Z</time></trkpt><trkpt lat="43.9269683" lon="8.0964762"><ele>88.0</ele><time>2026-04-21T09:33:53.939Z</time></trkpt><trkpt lat="43.9271837" lon="8.0966792"><ele>86.5</ele><time>2026-04-21T09:33:54.93Z</time></trkpt><trkpt lat="43.9273996" lon="8.0968808"><ele>85.0</ele><time>2026-04-21T09:33:55.95Z</time></trkpt><trkpt lat="43.9276145" lon="8.0970821"><ele>85.0</ele><time>2026-04-21T09:33:56.95Z</time></trkpt><trkpt lat="43.9278275" lon="8.0972841"><ele>85.0</ele><time>2026-04-21T09:33:57.938Z</time></trkpt><trkpt lat="43.9282465" lon="8.0976849"><ele>86.0</ele><time>2026-04-21T09:33:59.944Z</time></trkpt><trkpt lat="43.9284591" lon="8.097881"><ele>87.0</ele><time>2026-04-21T09:34:00.949Z</time></trkpt><trkpt lat="43.9286703" lon="8.0980771"><ele>78.5</ele><time>2026-04-21T09:34:01.936Z</time></trkpt><trkpt lat="43.9288806" lon="8.0982753"><ele>70.0</ele><time>2026-04-21T09:34:02.942Z</time></trkpt><trkpt lat="43.92909" lon="8.0984758"><ele>67.0</ele><time>2026-04-21T09:34:03.931Z</time></trkpt><trkpt lat="43.9292981" lon="8.0986745"><ele>64.0</ele><time>2026-04-21T09:34:04.941Z</time></trkpt><trkpt lat="43.9295062" lon="8.0988733"><ele>64.0</ele><time>2026-04-21T09:34:05.943Z</time></trkpt><trkpt lat="43.9297144" lon="8.0990776"><ele>64.0</ele><time>2026-04-21T09:34:06.94Z</time></trkpt><trkpt lat="43.9299198" lon="8.0992864"><ele>51.0</ele><time>2026-04-21T09:34:07.941Z</time></trkpt><trkpt lat="43.9301203" lon="8.0995006"><ele>38.0</ele><time>2026-04-21T09:34:08.949Z</time></trkpt><trkpt lat="43.9303187" lon="8.0997213"><ele>35.5</ele><time>2026-04-21T09:34:09.938Z</time></trkpt><trkpt lat="43.9305132" lon="8.0999386"><ele>33.0</ele><time>2026-04-21T09:34:10.942Z</time></trkpt><trkpt lat="43.9307058" lon="8.1001589"><ele>36.0</ele><time>2026-04-21T09:34:11.942Z</time></trkpt><trkpt lat="43.9308962" lon="8.1003829"><ele>39.0</ele><time>2026-04-21T09:34:12.935Z</time></trkpt><trkpt lat="43.9310849" lon="8.1006064"><ele>48.0</ele><time>2026-04-21T09:34:13.938Z</time></trkpt><trkpt lat="43.9312703" lon="8.1008315"><ele>57.0</ele><time>2026-04-21T09:34:14.938Z</time></trkpt><trkpt lat="43.9314548" lon="8.1010581"><ele>57.0</ele><time>2026-04-21T09:34:15.943Z</time></trkpt><trkpt lat="43.9316391" lon="8.1012792"><ele>57.0</ele><time>2026-04-21T09:34:16.95Z</time></trkpt><trkpt lat="43.9318205" lon="8.1015016"><ele>66.0</ele><time>2026-04-21T09:34:17.941Z</time></trkpt><trkpt lat="43.9320021" lon="8.1017248"><ele>75.0</ele><time>2026-04-21T09:34:18.942Z</time></trkpt><trkpt lat="43.93237" lon="8.1021716"><ele>75.0</ele><time>2026-04-21T09:34:20.95Z</time></trkpt><trkpt lat="43.9325551" lon="8.1023961"><ele>75.0</ele><time>2026-04-21T09:34:21.936Z</time></trkpt><trkpt lat="43.9327393" lon="8.1026227"><ele>70.5</ele><time>2026-04-21T09:34:22.939Z</time></trkpt><trkpt lat="43.9329212" lon="8.1028493"><ele>66.0</ele><time>2026-04-21T09:34:23.935Z</time></trkpt><trkpt lat="43.9331043" lon="8.1030757"><ele>60.0</ele><time>2026-04-21T09:34:24.935Z</time></trkpt><trkpt lat="43.9332883" lon="8.1032998"><ele>54.0</ele><time>2026-04-21T09:34:25.934Z</time></trkpt><trkpt lat="43.9334711" lon="8.1035224"><ele>49.0</ele><time>2026-04-21T09:34:26.947Z</time></trkpt><trkpt lat="43.9336559" lon="8.103743"><ele>44.0</ele><time>2026-04-21T09:34:27.946Z</time></trkpt><trkpt lat="43.9338446" lon="8.1039603"><ele>38.5</ele><time>2026-04-21T09:34:28.935Z</time></trkpt><trkpt lat="43.934031" lon="8.1041777"><ele>33.0</ele><time>2026-04-21T09:34:29.939Z</time></trkpt><trkpt lat="43.9342156" lon="8.1044027"><ele>31.0</ele><time>2026-04-21T09:34:30.941Z</time></trkpt><trkpt lat="43.9343986" lon="8.1046317"><ele>29.0</ele><time>2026-04-21T09:34:31.945Z</time></trkpt><trkpt lat="43.9345812" lon="8.1048617"><ele>34.0</ele><time>2026-04-21T09:34:32.935Z</time></trkpt><trkpt lat="43.9347663" lon="8.1050892"><ele>39.0</ele><time>2026-04-21T09:34:33.935Z</time></trkpt><trkpt lat="43.9349513" lon="8.1053153"><ele>36.0</ele><time>2026-04-21T09:34:34.944Z</time></trkpt><trkpt lat="43.9351377" lon="8.1055424"><ele>33.0</ele><time>2026-04-21T09:34:35.951Z</time></trkpt><trkpt lat="43.9353276" lon="8.1057659"><ele>45.0</ele><time>2026-04-21T09:34:36.953Z</time></trkpt><trkpt lat="43.9355188" lon="8.1059845"><ele>57.0</ele><time>2026-04-21T09:34:37.937Z</time></trkpt><trkpt lat="43.9357138" lon="8.1061951"><ele>58.0</ele><time>2026-04-21T09:34:38.936Z</time></trkpt><trkpt lat="43.9359139" lon="8.1063957"><ele>59.0</ele><time>2026-04-21T09:34:39.942Z</time></trkpt><trkpt lat="43.9363262" lon="8.1067741"><ele>63.5</ele><time>2026-04-21T09:34:41.937Z</time></trkpt><trkpt lat="43.9365371" lon="8.1069507"><ele>68.0</ele><time>2026-04-21T09:34:42.953Z</time></trkpt><trkpt lat="43.9367518" lon="8.1071201"><ele>68.0</ele><time>2026-04-21T09:34:43.939Z</time></trkpt><trkpt lat="43.9369681" lon="8.1072812"><ele>68.0</ele><time>2026-04-21T09:34:44.933Z</time></trkpt><trkpt lat="43.9371884" lon="8.1074313"><ele>74.5</ele><time>2026-04-21T09:34:45.944Z</time></trkpt><trkpt lat="43.9374143" lon="8.1075722"><ele>81.0</ele><time>2026-04-21T09:34:46.941Z</time></trkpt><trkpt lat="43.9376425" lon="8.1077049"><ele>81.0</ele><time>2026-04-21T09:34:47.939Z</time></trkpt><trkpt lat="43.9378744" lon="8.1078325"><ele>81.0</ele><time>2026-04-21T09:34:48.942Z</time></trkpt><trkpt lat="43.938107" lon="8.1079535"><ele>81.0</ele><time>2026-04-21T09:34:49.94Z</time></trkpt><trkpt lat="43.9383412" lon="8.1080726"><ele>81.0</ele><time>2026-04-21T09:34:50.943Z</time></trkpt><trkpt lat="43.9385733" lon="8.1081939"><ele>85.5</ele><time>2026-04-21T09:34:51.943Z</time></trkpt><trkpt lat="43.9388008" lon="8.1083197"><ele>90.0</ele><time>2026-04-21T09:34:52.941Z</time></trkpt><trkpt lat="43.9390267" lon="8.1084453"><ele>85.0</ele><time>2026-04-21T09:34:53.946Z</time></trkpt><trkpt lat="43.9392473" lon="8.1085754"><ele>80.0</ele><time>2026-04-21T09:34:54.925Z</time></trkpt><trkpt lat="43.9394674" lon="8.1087051"><ele>80.0</ele><time>2026-04-21T09:34:55.943Z</time></trkpt><trkpt lat="43.9396869" lon="8.1088398"><ele>80.0</ele><time>2026-04-21T09:34:56.938Z</time></trkpt><trkpt lat="43.9399025" lon="8.1089809"><ele>89.0</ele><time>2026-04-21T09:34:57.939Z</time></trkpt><trkpt lat="43.9401148" lon="8.1091323"><ele>98.0</ele><time>2026-04-21T09:34:58.934Z</time></trkpt><trkpt lat="43.9403232" lon="8.1092973"><ele>98.0</ele><time>2026-04-21T09:34:59.925Z</time></trkpt><trkpt lat="43.9405309" lon="8.1094678"><ele>98.0</ele><time>2026-04-21T09:35:00.937Z</time></trkpt><trkpt lat="43.9409399" lon="8.1098385"><ele>98.0</ele><time>2026-04-21T09:35:02.93Z</time></trkpt><trkpt lat="43.9411392" lon="8.1100349"><ele>98.0</ele><time>2026-04-21T09:35:03.944Z</time></trkpt><trkpt lat="43.9413328" lon="8.1102381"><ele>98.0</ele><time>2026-04-21T09:35:04.938Z</time></trkpt><trkpt lat="43.9415211" lon="8.110448"><ele>98.0</ele><time>2026-04-21T09:35:05.927Z</time></trkpt><trkpt lat="43.941703" lon="8.1106635"><ele>97.5</ele><time>2026-04-21T09:35:06.935Z</time></trkpt><trkpt lat="43.9418746" lon="8.110892"><ele>97.0</ele><time>2026-04-21T09:35:07.935Z</time></trkpt><trkpt lat="43.9420419" lon="8.1111283"><ele>97.0</ele><time>2026-04-21T09:35:08.942Z</time></trkpt><trkpt lat="43.9422038" lon="8.111377"><ele>97.0</ele><time>2026-04-21T09:35:09.93Z</time></trkpt><trkpt lat="43.9423584" lon="8.1116352"><ele>98.5</ele><time>2026-04-21T09:35:10.924Z</time></trkpt><trkpt lat="43.9425079" lon="8.1118979"><ele>100.0</ele><time>2026-04-21T09:35:11.93Z</time></trkpt><trkpt lat="43.9426573" lon="8.1121642"><ele>105.5</ele><time>2026-04-21T09:35:12.941Z</time></trkpt><trkpt lat="43.9428041" lon="8.1124328"><ele>111.0</ele><time>2026-04-21T09:35:13.941Z</time></trkpt><trkpt lat="43.9429465" lon="8.1127026"><ele>111.0</ele><time>2026-04-21T09:35:14.937Z</time></trkpt><trkpt lat="43.9430837" lon="8.1129751"><ele>111.0</ele><time>2026-04-21T09:35:15.948Z</time></trkpt><trkpt lat="43.943212" lon="8.1132569"><ele>115.0</ele><time>2026-04-21T09:35:16.929Z</time></trkpt><trkpt lat="43.9433352" lon="8.1135444"><ele>119.0</ele><time>2026-04-21T09:35:17.931Z</time></trkpt><trkpt lat="43.9434528" lon="8.1138328"><ele>124.5</ele><time>2026-04-21T09:35:18.946Z</time></trkpt><trkpt lat="43.9435651" lon="8.1141214"><ele>130.0</ele><time>2026-04-21T09:35:19.94Z</time></trkpt><trkpt lat="43.9436719" lon="8.1144155"><ele>130.0</ele><time>2026-04-21T09:35:20.946Z</time></trkpt><trkpt lat="43.9437747" lon="8.1147074"><ele>130.0</ele><time>2026-04-21T09:35:21.938Z</time></trkpt><trkpt lat="43.9439865" lon="8.115281"><ele>137.5</ele><time>2026-04-21T09:35:23.935Z</time></trkpt><trkpt lat="43.9440961" lon="8.1155781"><ele>145.0</ele><time>2026-04-21T09:35:24.931Z</time></trkpt><trkpt lat="43.9442187" lon="8.1159497"><ele>152.5</ele><time>2026-04-21T09:35:25.929Z</time></trkpt><trkpt lat="43.9443335" lon="8.1162667"><ele>160.0</ele><time>2026-04-21T09:35:26.926Z</time></trkpt><trkpt lat="43.9444488" lon="8.1165875"><ele>173.0</ele><time>2026-04-21T09:35:27.923Z</time></trkpt><trkpt lat="43.944565" lon="8.1169126"><ele>186.0</ele><time>2026-04-21T09:35:28.924Z</time></trkpt><trkpt lat="43.9446808" lon="8.1172385"><ele>196.5</ele><time>2026-04-21T09:35:29.917Z</time></trkpt><trkpt lat="43.9447988" lon="8.1175738"><ele>207.0</ele><time>2026-04-21T09:35:30.912Z</time></trkpt><trkpt lat="43.9449171" lon="8.1179088"><ele>214.5</ele><time>2026-04-21T09:35:31.913Z</time></trkpt><trkpt lat="43.9450372" lon="8.1182413"><ele>222.0</ele><time>2026-04-21T09:35:32.914Z</time></trkpt><trkpt lat="43.9451608" lon="8.1185804"><ele>222.0</ele><time>2026-04-21T09:35:33.918Z</time></trkpt><trkpt lat="43.945283" lon="8.1189169"><ele>222.0</ele><time>2026-04-21T09:35:34.909Z</time></trkpt><trkpt lat="43.9454059" lon="8.1192562"><ele>230.0</ele><time>2026-04-21T09:35:35.911Z</time></trkpt><trkpt lat="43.9455305" lon="8.1195986"><ele>238.0</ele><time>2026-04-21T09:35:36.909Z</time></trkpt><trkpt lat="43.9456545" lon="8.1199422"><ele>247.5</ele><time>2026-04-21T09:35:37.915Z</time></trkpt><trkpt lat="43.9457778" lon="8.1202867"><ele>257.0</ele><time>2026-04-21T09:35:38.913Z</time></trkpt><trkpt lat="43.9459024" lon="8.1206335"><ele>278.0</ele><time>2026-04-21T09:35:39.906Z</time></trkpt><trkpt lat="43.9460314" lon="8.120992"><ele>299.0</ele><time>2026-04-21T09:35:40.913Z</time></trkpt><trkpt lat="43.9461625" lon="8.1213555"><ele>304.5</ele><time>2026-04-21T09:35:41.911Z</time></trkpt><trkpt lat="43.946295" lon="8.1217233"><ele>310.0</ele><time>2026-04-21T09:35:42.912Z</time></trkpt><trkpt lat="43.9465608" lon="8.122468"><ele>315.5</ele><time>2026-04-21T09:35:44.915Z</time></trkpt><trkpt lat="43.9466938" lon="8.1228437"><ele>321.0</ele><time>2026-04-21T09:35:45.918Z</time></trkpt><trkpt lat="43.9468268" lon="8.1232208"><ele>340.5</ele><time>2026-04-21T09:35:46.914Z</time></trkpt><trkpt lat="43.9469614" lon="8.1235983"><ele>360.0</ele><time>2026-04-21T09:35:47.908Z</time></trkpt><trkpt lat="43.9470985" lon="8.1239757"><ele>359.5</ele><time>2026-04-21T09:35:48.914Z</time></trkpt><trkpt lat="43.9472383" lon="8.124354"><ele>359.0</ele><time>2026-04-21T09:35:49.907Z</time></trkpt><trkpt lat="43.94738" lon="8.1247324"><ele>348.5</ele><time>2026-04-21T09:35:50.912Z</time></trkpt><trkpt lat="43.94752" lon="8.1251124"><ele>338.0</ele><time>2026-04-21T09:35:51.906Z</time></trkpt><trkpt lat="43.9476513" lon="8.1254791"><ele>322.5</ele><time>2026-04-21T09:35:52.913Z</time></trkpt><trkpt lat="43.9477836" lon="8.1258542"><ele>307.0</ele><time>2026-04-21T09:35:53.914Z</time></trkpt><trkpt lat="43.9479107" lon="8.1262139"><ele>307.0</ele><time>2026-04-21T09:35:54.913Z</time></trkpt><trkpt lat="43.9480078" lon="8.1264834"><ele>307.0</ele><time>2026-04-21T09:35:55.916Z</time></trkpt><trkpt lat="43.948103" lon="8.1267407"><ele>307.0</ele><time>2026-04-21T09:35:56.913Z</time></trkpt><trkpt lat="43.9482195" lon="8.1270568"><ele>293.0</ele><time>2026-04-21T09:35:57.914Z</time></trkpt><trkpt lat="43.948334" lon="8.1273723"><ele>279.0</ele><time>2026-04-21T09:35:58.909Z</time></trkpt><trkpt lat="43.9484534" lon="8.1277058"><ele>266.5</ele><time>2026-04-21T09:35:59.908Z</time></trkpt><trkpt lat="43.9485802" lon="8.12806"><ele>254.0</ele><time>2026-04-21T09:36:00.907Z</time></trkpt><trkpt lat="43.9487057" lon="8.1284147"><ele>98.0</ele><time>2026-04-21T09:36:01.916Z</time></trkpt><trkpt lat="43.9510812" lon="8.1327837"><ele>98.0</ele><time>2026-04-21T09:36:22.93Z</time></trkpt><trkpt lat="43.9514531" lon="8.1331829"><ele>94.5</ele><time>2026-04-21T09:36:24.936Z</time></trkpt><trkpt lat="43.9516635" lon="8.1334121"><ele>91.0</ele><time>2026-04-21T09:36:25.935Z</time></trkpt><trkpt lat="43.9518551" lon="8.1335967"><ele>90.0</ele><time>2026-04-21T09:36:26.937Z</time></trkpt><trkpt lat="43.9520662" lon="8.1337678"><ele>89.0</ele><time>2026-04-21T09:36:27.936Z</time></trkpt><trkpt lat="43.9522838" lon="8.1339259"><ele>87.5</ele><time>2026-04-21T09:36:28.932Z</time></trkpt><trkpt lat="43.9525025" lon="8.1340712"><ele>86.0</ele><time>2026-04-21T09:36:29.943Z</time></trkpt><trkpt lat="43.952728" lon="8.134211"><ele>86.0</ele><time>2026-04-21T09:36:30.937Z</time></trkpt><trkpt lat="43.9529564" lon="8.1343425"><ele>86.0</ele><time>2026-04-21T09:36:31.953Z</time></trkpt><trkpt lat="43.9531907" lon="8.1344648"><ele>98.0</ele><time>2026-04-21T09:36:32.948Z</time></trkpt><trkpt lat="43.953428" lon="8.1345697"><ele>110.0</ele><time>2026-04-21T09:36:33.941Z</time></trkpt><trkpt lat="43.9536683" lon="8.1346557"><ele>110.0</ele><time>2026-04-21T09:36:34.941Z</time></trkpt><trkpt lat="43.9539092" lon="8.1347295"><ele>110.0</ele><time>2026-04-21T09:36:35.935Z</time></trkpt><trkpt lat="43.9541503" lon="8.1347915"><ele>110.5</ele><time>2026-04-21T09:36:36.942Z</time></trkpt><trkpt lat="43.9543947" lon="8.1348425"><ele>111.0</ele><time>2026-04-21T09:36:37.937Z</time></trkpt><trkpt lat="43.9546399" lon="8.1348803"><ele>103.0</ele><time>2026-04-21T09:36:38.95Z</time></trkpt><trkpt lat="43.9548866" lon="8.1349057"><ele>95.0</ele><time>2026-04-21T09:36:39.947Z</time></trkpt><trkpt lat="43.9551344" lon="8.1349251"><ele>89.0</ele><time>2026-04-21T09:36:40.938Z</time></trkpt><trkpt lat="43.9553835" lon="8.1349267"><ele>83.0</ele><time>2026-04-21T09:36:41.927Z</time></trkpt><trkpt lat="43.9556328" lon="8.1349106"><ele>89.0</ele><time>2026-04-21T09:36:42.943Z</time></trkpt><trkpt lat="43.9558807" lon="8.1348839"><ele>95.0</ele><time>2026-04-21T09:36:43.951Z</time></trkpt><trkpt lat="43.9563704" lon="8.1348246"><ele>95.0</ele><time>2026-04-21T09:36:45.942Z</time></trkpt><trkpt lat="43.956611" lon="8.1347869"><ele>95.0</ele><time>2026-04-21T09:36:46.937Z</time></trkpt><trkpt lat="43.9568456" lon="8.1347475"><ele>89.5</ele><time>2026-04-21T09:36:47.955Z</time></trkpt><trkpt lat="43.9570814" lon="8.1347154"><ele>84.0</ele><time>2026-04-21T09:36:48.942Z</time></trkpt><trkpt lat="43.9573187" lon="8.1346879"><ele>80.5</ele><time>2026-04-21T09:36:49.943Z</time></trkpt><trkpt lat="43.9575572" lon="8.1346659"><ele>77.0</ele><time>2026-04-21T09:36:50.943Z</time></trkpt><trkpt lat="43.9577971" lon="8.1346529"><ele>77.0</ele><time>2026-04-21T09:36:51.933Z</time></trkpt><trkpt lat="43.9580359" lon="8.1346525"><ele>77.0</ele><time>2026-04-21T09:36:52.938Z</time></trkpt><trkpt lat="43.9582737" lon="8.1346665"><ele>77.5</ele><time>2026-04-21T09:36:53.952Z</time></trkpt><trkpt lat="43.9585087" lon="8.1346957"><ele>78.0</ele><time>2026-04-21T09:36:54.951Z</time></trkpt><trkpt lat="43.9587445" lon="8.1347463"><ele>78.0</ele><time>2026-04-21T09:36:55.937Z</time></trkpt><trkpt lat="43.9589813" lon="8.1348116"><ele>78.0</ele><time>2026-04-21T09:36:56.938Z</time></trkpt><trkpt lat="43.9592161" lon="8.1348879"><ele>72.5</ele><time>2026-04-21T09:36:57.942Z</time></trkpt><trkpt lat="43.9594462" lon="8.1349787"><ele>67.0</ele><time>2026-04-21T09:36:58.951Z</time></trkpt><trkpt lat="43.9596753" lon="8.1350811"><ele>67.0</ele><time>2026-04-21T09:36:59.941Z</time></trkpt><trkpt lat="43.959899" lon="8.1351995"><ele>67.0</ele><time>2026-04-21T09:37:00.935Z</time></trkpt><trkpt lat="43.9601177" lon="8.1353314"><ele>65.5</ele><time>2026-04-21T09:37:01.94Z</time></trkpt><trkpt lat="43.9603349" lon="8.1354741"><ele>64.0</ele><time>2026-04-21T09:37:02.943Z</time></trkpt><trkpt lat="43.9605464" lon="8.13563"><ele>58.0</ele><time>2026-04-21T09:37:03.948Z</time></trkpt><trkpt lat="43.9607525" lon="8.1357982"><ele>52.0</ele><time>2026-04-21T09:37:04.942Z</time></trkpt><trkpt lat="43.9611463" lon="8.1361709"><ele>39.5</ele><time>2026-04-21T09:37:06.95Z</time></trkpt><trkpt lat="43.961332" lon="8.1363756"><ele>27.0</ele><time>2026-04-21T09:37:07.94Z</time></trkpt><trkpt lat="43.9615063" lon="8.1365886"><ele>24.5</ele><time>2026-04-21T09:37:08.953Z</time></trkpt><trkpt lat="43.961674" lon="8.1368136"><ele>22.0</ele><time>2026-04-21T09:37:09.935Z</time></trkpt><trkpt lat="43.9618361" lon="8.1370444"><ele>16.5</ele><time>2026-04-21T09:37:10.939Z</time></trkpt><trkpt lat="43.9619968" lon="8.1372763"><ele>11.0</ele><time>2026-04-21T09:37:11.942Z</time></trkpt><trkpt lat="43.9621506" lon="8.137516"><ele>10.5</ele><time>2026-04-21T09:37:12.942Z</time></trkpt><trkpt lat="43.9623056" lon="8.1377573"><ele>10.0</ele><time>2026-04-21T09:37:13.955Z</time></trkpt><trkpt lat="43.9624575" lon="8.138002"><ele>9.333333333333334</ele><time>2026-04-21T09:37:14.934Z</time></trkpt><trkpt lat="43.9626058" lon="8.1382355"><ele>8.666666666666666</ele><time>2026-04-21T09:37:15.942Z</time></trkpt><trkpt lat="43.9627444" lon="8.1384582"><ele>8.0</ele><time>2026-04-21T09:37:16.94Z</time></trkpt><trkpt lat="43.9628756" lon="8.1386614"><ele>8.0</ele><time>2026-04-21T09:37:17.944Z</time></trkpt><trkpt lat="43.9629987" lon="8.138852"><ele>8.0</ele><time>2026-04-21T09:37:18.947Z</time></trkpt><trkpt lat="43.9631162" lon="8.1390346"><ele>8.0</ele><time>2026-04-21T09:37:19.942Z</time></trkpt><trkpt lat="43.963231" lon="8.1392146"><ele>8.666666666666666</ele><time>2026-04-21T09:37:20.93Z</time></trkpt><trkpt lat="43.963349" lon="8.1393964"><ele>9.333333333333334</ele><time>2026-04-21T09:37:21.935Z</time></trkpt><trkpt lat="43.9634671" lon="8.1395782"><ele>10.0</ele><time>2026-04-21T09:37:22.939Z</time></trkpt><trkpt lat="43.9635844" lon="8.1397602"><ele>10.666666666666668</ele><time>2026-04-21T09:37:23.942Z</time></trkpt><trkpt lat="43.9636994" lon="8.1399401"><ele>11.333333333333334</ele><time>2026-04-21T09:37:24.943Z</time></trkpt><trkpt lat="43.9638119" lon="8.1401166"><ele>12.0</ele><time>2026-04-21T09:37:25.95Z</time></trkpt><trkpt lat="43.9640393" lon="8.140461"><ele>12.0</ele><time>2026-04-21T09:37:27.943Z</time></trkpt><trkpt lat="43.9641538" lon="8.1406365"><ele>12.0</ele><time>2026-04-21T09:37:28.935Z</time></trkpt><trkpt lat="43.9642676" lon="8.1408161"><ele>12.0</ele><time>2026-04-21T09:37:29.953Z</time></trkpt><trkpt lat="43.9643824" lon="8.1409987"><ele>11.666666666666666</ele><time>2026-04-21T09:37:30.94Z</time></trkpt><trkpt lat="43.9645043" lon="8.1411788"><ele>11.333333333333332</ele><time>2026-04-21T09:37:31.958Z</time></trkpt><trkpt lat="43.9646295" lon="8.1413628"><ele>11.0</ele><time>2026-04-21T09:37:32.947Z</time></trkpt><trkpt lat="43.9647615" lon="8.1415477"><ele>12.0</ele><time>2026-04-21T09:37:33.936Z</time></trkpt><trkpt lat="43.9649004" lon="8.1417344"><ele>13.0</ele><time>2026-04-21T09:37:34.939Z</time></trkpt><trkpt lat="43.9650487" lon="8.1419229"><ele>14.0</ele><time>2026-04-21T09:37:35.943Z</time></trkpt><trkpt lat="43.9652028" lon="8.1421087"><ele>14.333333333333334</ele><time>2026-04-21T09:37:36.941Z</time></trkpt><trkpt lat="43.9653624" lon="8.1422892"><ele>14.666666666666668</ele><time>2026-04-21T09:37:37.936Z</time></trkpt><trkpt lat="43.9655282" lon="8.1424635"><ele>15.0</ele><time>2026-04-21T09:37:38.943Z</time></trkpt><trkpt lat="43.9656968" lon="8.142627"><ele>17.0</ele><time>2026-04-21T09:37:39.944Z</time></trkpt><trkpt lat="43.9658679" lon="8.1427763"><ele>19.0</ele><time>2026-04-21T09:37:40.948Z</time></trkpt><trkpt lat="43.9660423" lon="8.1429215"><ele>21.0</ele><time>2026-04-21T09:37:41.955Z</time></trkpt><trkpt lat="43.9662189" lon="8.1430636"><ele>21.0</ele><time>2026-04-21T09:37:42.945Z</time></trkpt><trkpt lat="43.9663984" lon="8.1432038"><ele>21.0</ele><time>2026-04-21T09:37:43.956Z</time></trkpt><trkpt lat="43.966581" lon="8.1433377"><ele>21.0</ele><time>2026-04-21T09:37:44.943Z</time></trkpt><trkpt lat="43.9667644" lon="8.1434617"><ele>24.5</ele><time>2026-04-21T09:37:45.954Z</time></trkpt><trkpt lat="43.966943" lon="8.1435663"><ele>28.0</ele><time>2026-04-21T09:37:46.94Z</time></trkpt><trkpt lat="43.9672442" lon="8.1437336"><ele>28.000000000000004</ele><time>2026-04-21T09:37:48.938Z</time></trkpt><trkpt lat="43.9673522" lon="8.1437956"><ele>28.0</ele><time>2026-04-21T09:37:49.944Z</time></trkpt><trkpt lat="43.9674386" lon="8.143839"><ele>28.0</ele><time>2026-04-21T09:37:50.931Z</time></trkpt><trkpt lat="43.9674986" lon="8.1438677"><ele>28.0</ele><time>2026-04-21T09:37:51.938Z</time></trkpt><trkpt lat="43.9675752" lon="8.1439002"><ele>28.000000000000004</ele><time>2026-04-21T09:37:53.943Z</time></trkpt><trkpt lat="43.9676465" lon="8.1438857"><ele>28.0</ele><time>2026-04-21T09:38:52.932Z</time></trkpt><trkpt lat="43.9678457" lon="8.1439177"><ele>30.0</ele><time>2026-04-21T09:38:54.933Z</time></trkpt><trkpt lat="43.9679837" lon="8.1439439"><ele>32.0</ele><time>2026-04-21T09:38:55.956Z</time></trkpt><trkpt lat="43.9681338" lon="8.143985"><ele>34.0</ele><time>2026-04-21T09:38:56.935Z</time></trkpt><trkpt lat="43.9682991" lon="8.1440311"><ele>40.0</ele><time>2026-04-21T09:38:57.939Z</time></trkpt><trkpt lat="43.9684763" lon="8.1440708"><ele>46.0</ele><time>2026-04-21T09:38:58.946Z</time></trkpt><trkpt lat="43.9686602" lon="8.1441036"><ele>52.0</ele><time>2026-04-21T09:38:59.939Z</time></trkpt><trkpt lat="43.9688504" lon="8.1441295"><ele>52.0</ele><time>2026-04-21T09:39:00.935Z</time></trkpt><trkpt lat="43.9690487" lon="8.1441452"><ele>52.0</ele><time>2026-04-21T09:39:01.939Z</time></trkpt><trkpt lat="43.9692519" lon="8.144149"><ele>52.0</ele><time>2026-04-21T09:39:02.947Z</time></trkpt><trkpt lat="43.9694603" lon="8.1441428"><ele>52.33333333333333</ele><time>2026-04-21T09:39:03.94Z</time></trkpt><trkpt lat="43.9696719" lon="8.1441271"><ele>52.66666666666667</ele><time>2026-04-21T09:39:04.941Z</time></trkpt><trkpt lat="43.9698869" lon="8.1441009"><ele>53.0</ele><time>2026-04-21T09:39:05.93Z</time></trkpt><trkpt lat="43.9701011" lon="8.1440691"><ele>49.333333333333336</ele><time>2026-04-21T09:39:06.941Z</time></trkpt><trkpt lat="43.9703152" lon="8.1440273"><ele>45.66666666666667</ele><time>2026-04-21T09:39:07.934Z</time></trkpt><trkpt lat="43.9705254" lon="8.1439685"><ele>42.0</ele><time>2026-04-21T09:39:08.949Z</time></trkpt><trkpt lat="43.9707198" lon="8.1438848"><ele>44.33333333333333</ele><time>2026-04-21T09:39:09.932Z</time></trkpt><trkpt lat="43.9709225" lon="8.1437982"><ele>46.666666666666664</ele><time>2026-04-21T09:39:10.933Z</time></trkpt><trkpt lat="43.9711319" lon="8.1437099"><ele>49.0</ele><time>2026-04-21T09:39:11.94Z</time></trkpt><trkpt lat="43.9713431" lon="8.1436113"><ele>49.0</ele><time>2026-04-21T09:39:12.943Z</time></trkpt><trkpt lat="43.9715546" lon="8.1435046"><ele>49.0</ele><time>2026-04-21T09:39:13.947Z</time></trkpt><trkpt lat="43.9719662" lon="8.1432462"><ele>48.5</ele><time>2026-04-21T09:39:15.938Z</time></trkpt><trkpt lat="43.9721696" lon="8.1431019"><ele>48.0</ele><time>2026-04-21T09:39:16.947Z</time></trkpt><trkpt lat="43.9723715" lon="8.1429496"><ele>56.5</ele><time>2026-04-21T09:39:17.936Z</time></trkpt><trkpt lat="43.9725745" lon="8.1427968"><ele>65.0</ele><time>2026-04-21T09:39:18.955Z</time></trkpt><trkpt lat="43.9727769" lon="8.1426498"><ele>65.0</ele><time>2026-04-21T09:39:19.941Z</time></trkpt><trkpt lat="43.9729841" lon="8.1425008"><ele>65.0</ele><time>2026-04-21T09:39:20.943Z</time></trkpt><trkpt lat="43.9731932" lon="8.1423542"><ele>64.5</ele><time>2026-04-21T09:39:21.949Z</time></trkpt><trkpt lat="43.9734026" lon="8.1422109"><ele>64.0</ele><time>2026-04-21T09:39:22.939Z</time></trkpt><trkpt lat="43.9736144" lon="8.1420757"><ele>64.0</ele><time>2026-04-21T09:39:23.94Z</time></trkpt><trkpt lat="43.9738289" lon="8.1419413"><ele>64.0</ele><time>2026-04-21T09:39:24.949Z</time></trkpt><trkpt lat="43.9740467" lon="8.1418115"><ele>66.0</ele><time>2026-04-21T09:39:25.938Z</time></trkpt><trkpt lat="43.9742665" lon="8.1416918"><ele>68.0</ele><time>2026-04-21T09:39:26.942Z</time></trkpt><trkpt lat="43.9744847" lon="8.1415815"><ele>64.0</ele><time>2026-04-21T09:39:27.949Z</time></trkpt><trkpt lat="43.9747002" lon="8.1414751"><ele>60.0</ele><time>2026-04-21T09:39:28.938Z</time></trkpt><trkpt lat="43.9749108" lon="8.1413719"><ele>61.0</ele><time>2026-04-21T09:39:29.924Z</time></trkpt><trkpt lat="43.975121" lon="8.1412698"><ele>62.0</ele><time>2026-04-21T09:39:30.932Z</time></trkpt><trkpt lat="43.9753346" lon="8.1411622"><ele>62.0</ele><time>2026-04-21T09:39:31.943Z</time></trkpt><trkpt lat="43.9755521" lon="8.1410554"><ele>62.0</ele><time>2026-04-21T09:39:32.953Z</time></trkpt><trkpt lat="43.9757766" lon="8.1409578"><ele>66.0</ele><time>2026-04-21T09:39:33.94Z</time></trkpt><trkpt lat="43.9760049" lon="8.1408722"><ele>70.0</ele><time>2026-04-21T09:39:34.946Z</time></trkpt><trkpt lat="43.9764634" lon="8.1407379"><ele>82.5</ele><time>2026-04-21T09:39:36.943Z</time></trkpt><trkpt lat="43.9766871" lon="8.1406797"><ele>95.0</ele><time>2026-04-21T09:39:37.943Z</time></trkpt><trkpt lat="43.9769143" lon="8.1406266"><ele>95.0</ele><time>2026-04-21T09:39:38.944Z</time></trkpt><trkpt lat="43.9771437" lon="8.1405785"><ele>95.0</ele><time>2026-04-21T09:39:39.933Z</time></trkpt><trkpt lat="43.9773751" lon="8.1405375"><ele>102.0</ele><time>2026-04-21T09:39:40.942Z</time></trkpt><trkpt lat="43.9776078" lon="8.1405059"><ele>109.0</ele><time>2026-04-21T09:39:41.949Z</time></trkpt><trkpt lat="43.9778362" lon="8.1404722"><ele>109.0</ele><time>2026-04-21T09:39:42.932Z</time></trkpt><trkpt lat="43.9780571" lon="8.1404287"><ele>109.0</ele><time>2026-04-21T09:39:43.926Z</time></trkpt><trkpt lat="43.9782713" lon="8.1403701"><ele>109.0</ele><time>2026-04-21T09:39:44.929Z</time></trkpt><trkpt lat="43.978488" lon="8.1402933"><ele>106.0</ele><time>2026-04-21T09:39:45.922Z</time></trkpt><trkpt lat="43.9786959" lon="8.1401994"><ele>103.0</ele><time>2026-04-21T09:39:46.924Z</time></trkpt><trkpt lat="43.9789027" lon="8.1401026"><ele>100.0</ele><time>2026-04-21T09:39:47.927Z</time></trkpt><trkpt lat="43.9791489" lon="8.1400507"><ele>100.5</ele><time>2026-04-21T09:39:48.924Z</time></trkpt><trkpt lat="43.9793891" lon="8.1399007"><ele>101.0</ele><time>2026-04-21T09:39:49.935Z</time></trkpt><trkpt lat="43.97961" lon="8.1397099"><ele>91.0</ele><time>2026-04-21T09:39:50.943Z</time></trkpt><trkpt lat="43.979834" lon="8.1395115"><ele>81.0</ele><time>2026-04-21T09:39:51.948Z</time></trkpt><trkpt lat="43.9800569" lon="8.1392942"><ele>78.0</ele><time>2026-04-21T09:39:52.945Z</time></trkpt><trkpt lat="43.9802767" lon="8.1391066"><ele>75.0</ele><time>2026-04-21T09:39:53.937Z</time></trkpt><trkpt lat="43.9804826" lon="8.138929"><ele>75.0</ele><time>2026-04-21T09:39:54.941Z</time></trkpt><trkpt lat="43.9806851" lon="8.1387531"><ele>75.0</ele><time>2026-04-21T09:39:55.939Z</time></trkpt><trkpt lat="43.9810842" lon="8.1384075"><ele>75.5</ele><time>2026-04-21T09:39:57.944Z</time></trkpt><trkpt lat="43.9812841" lon="8.1382387"><ele>76.0</ele><time>2026-04-21T09:39:58.948Z</time></trkpt><trkpt lat="43.9814828" lon="8.1380728"><ele>76.0</ele><time>2026-04-21T09:39:59.939Z</time></trkpt><trkpt lat="43.9816807" lon="8.1379029"><ele>76.0</ele><time>2026-04-21T09:40:00.936Z</time></trkpt><trkpt lat="43.9818784" lon="8.1377322"><ele>78.5</ele><time>2026-04-21T09:40:01.946Z</time></trkpt><trkpt lat="43.9820769" lon="8.137563"><ele>81.0</ele><time>2026-04-21T09:40:02.939Z</time></trkpt><trkpt lat="43.9822785" lon="8.137397"><ele>80.0</ele><time>2026-04-21T09:40:03.948Z</time></trkpt><trkpt lat="43.9824839" lon="8.1372407"><ele>79.0</ele><time>2026-04-21T09:40:04.947Z</time></trkpt><trkpt lat="43.9826944" lon="8.1370951"><ele>91.5</ele><time>2026-04-21T09:40:05.942Z</time></trkpt><trkpt lat="43.9829095" lon="8.1369612"><ele>104.0</ele><time>2026-04-21T09:40:06.948Z</time></trkpt><trkpt lat="43.9831303" lon="8.1368419"><ele>107.0</ele><time>2026-04-21T09:40:07.947Z</time></trkpt><trkpt lat="43.9833525" lon="8.1367402"><ele>110.0</ele><time>2026-04-21T09:40:08.933Z</time></trkpt><trkpt lat="43.9835709" lon="8.1366606"><ele>110.0</ele><time>2026-04-21T09:40:09.954Z</time></trkpt><trkpt lat="43.9837981" lon="8.1365837"><ele>110.0</ele><time>2026-04-21T09:40:10.943Z</time></trkpt><trkpt lat="43.9840261" lon="8.1365219"><ele>95.5</ele><time>2026-04-21T09:40:11.936Z</time></trkpt><trkpt lat="43.9842519" lon="8.1364746"><ele>81.0</ele><time>2026-04-21T09:40:12.937Z</time></trkpt><trkpt lat="43.9844748" lon="8.1364398"><ele>81.0</ele><time>2026-04-21T09:40:13.941Z</time></trkpt><trkpt lat="43.9846993" lon="8.1364248"><ele>81.0</ele><time>2026-04-21T09:40:14.954Z</time></trkpt><trkpt lat="43.9849226" lon="8.1364255"><ele>81.0</ele><time>2026-04-21T09:40:15.948Z</time></trkpt><trkpt lat="43.9851444" lon="8.1364333"><ele>72.5</ele><time>2026-04-21T09:40:16.936Z</time></trkpt><trkpt lat="43.985575" lon="8.1364695"><ele>64.0</ele><time>2026-04-21T09:40:18.942Z</time></trkpt><trkpt lat="43.985791" lon="8.1365004"><ele>64.66666666666666</ele><time>2026-04-21T09:40:19.932Z</time></trkpt><trkpt lat="43.9860028" lon="8.1365325"><ele>65.33333333333333</ele><time>2026-04-21T09:40:20.955Z</time></trkpt><trkpt lat="43.9862149" lon="8.1365648"><ele>66.0</ele><time>2026-04-21T09:40:21.943Z</time></trkpt><trkpt lat="43.9864301" lon="8.1365962"><ele>66.0</ele><time>2026-04-21T09:40:22.944Z</time></trkpt><trkpt lat="43.9866497" lon="8.1366261"><ele>66.0</ele><time>2026-04-21T09:40:23.943Z</time></trkpt><trkpt lat="43.9868739" lon="8.1366527"><ele>66.0</ele><time>2026-04-21T09:40:24.938Z</time></trkpt><trkpt lat="43.9870963" lon="8.1366775"><ele>70.0</ele><time>2026-04-21T09:40:25.955Z</time></trkpt><trkpt lat="43.9873212" lon="8.1366991"><ele>74.0</ele><time>2026-04-21T09:40:26.944Z</time></trkpt><trkpt lat="43.9875432" lon="8.1367247"><ele>78.0</ele><time>2026-04-21T09:40:27.943Z</time></trkpt><trkpt lat="43.9877632" lon="8.1367495"><ele>89.66666666666666</ele><time>2026-04-21T09:40:28.94Z</time></trkpt><trkpt lat="43.9879819" lon="8.136778"><ele>101.33333333333333</ele><time>2026-04-21T09:40:29.946Z</time></trkpt><trkpt lat="43.9881983" lon="8.136806"><ele>113.0</ele><time>2026-04-21T09:40:30.945Z</time></trkpt><trkpt lat="43.9884129" lon="8.1368349"><ele>118.0</ele><time>2026-04-21T09:40:31.94Z</time></trkpt><trkpt lat="43.98863" lon="8.1368648"><ele>123.0</ele><time>2026-04-21T09:40:32.944Z</time></trkpt><trkpt lat="43.9888467" lon="8.1368937"><ele>128.0</ele><time>2026-04-21T09:40:33.935Z</time></trkpt><trkpt lat="43.9890634" lon="8.1369197"><ele>126.0</ele><time>2026-04-21T09:40:34.931Z</time></trkpt><trkpt lat="43.9892783" lon="8.1369431"><ele>124.0</ele><time>2026-04-21T09:40:35.934Z</time></trkpt><trkpt lat="43.9894927" lon="8.1369671"><ele>122.0</ele><time>2026-04-21T09:40:36.951Z</time></trkpt><trkpt lat="43.9897065" lon="8.1369935"><ele>116.5</ele><time>2026-04-21T09:40:37.95Z</time></trkpt><trkpt lat="43.9901292" lon="8.1370433"><ele>111.0</ele><time>2026-04-21T09:40:39.941Z</time></trkpt><trkpt lat="43.990342" lon="8.1370687"><ele>111.0</ele><time>2026-04-21T09:40:40.951Z</time></trkpt><trkpt lat="43.9905542" lon="8.1370902"><ele>111.0</ele><time>2026-04-21T09:40:41.932Z</time></trkpt><trkpt lat="43.9907674" lon="8.1371161"><ele>111.0</ele><time>2026-04-21T09:40:42.943Z</time></trkpt><trkpt lat="43.9909816" lon="8.1371402"><ele>108.66666666666666</ele><time>2026-04-21T09:40:43.935Z</time></trkpt><trkpt lat="43.9911974" lon="8.1371585"><ele>106.33333333333333</ele><time>2026-04-21T09:40:44.944Z</time></trkpt><trkpt lat="43.9914151" lon="8.1371675"><ele>104.0</ele><time>2026-04-21T09:40:45.949Z</time></trkpt><trkpt lat="43.9916331" lon="8.1371647"><ele>97.66666666666666</ele><time>2026-04-21T09:40:46.946Z</time></trkpt><trkpt lat="43.9918514" lon="8.1371544"><ele>91.33333333333333</ele><time>2026-04-21T09:40:47.936Z</time></trkpt><trkpt lat="43.9920705" lon="8.1371361"><ele>85.0</ele><time>2026-04-21T09:40:48.943Z</time></trkpt><trkpt lat="43.9922877" lon="8.1371093"><ele>85.0</ele><time>2026-04-21T09:40:49.943Z</time></trkpt><trkpt lat="43.9925027" lon="8.1370708"><ele>85.0</ele><time>2026-04-21T09:40:50.937Z</time></trkpt><trkpt lat="43.992718" lon="8.1370315"><ele>85.0</ele><time>2026-04-21T09:40:51.937Z</time></trkpt><trkpt lat="43.9929356" lon="8.136983"><ele>88.33333333333333</ele><time>2026-04-21T09:40:52.956Z</time></trkpt><trkpt lat="43.9931512" lon="8.1369313"><ele>91.66666666666667</ele><time>2026-04-21T09:40:53.951Z</time></trkpt><trkpt lat="43.993366" lon="8.1368713"><ele>95.0</ele><time>2026-04-21T09:40:54.942Z</time></trkpt><trkpt lat="43.9935777" lon="8.1368067"><ele>106.0</ele><time>2026-04-21T09:40:55.944Z</time></trkpt><trkpt lat="43.9937902" lon="8.1367316"><ele>117.0</ele><time>2026-04-21T09:40:56.953Z</time></trkpt><trkpt lat="43.9940023" lon="8.1366465"><ele>128.0</ele><time>2026-04-21T09:40:57.952Z</time></trkpt><trkpt lat="43.9942137" lon="8.1365502"><ele>136.0</ele><time>2026-04-21T09:40:58.956Z</time></trkpt><trkpt lat="43.9946314" lon="8.136336"><ele>144.0</ele><time>2026-04-21T09:41:00.949Z</time></trkpt><trkpt lat="43.9948373" lon="8.1362202"><ele>152.0</ele><time>2026-04-21T09:41:01.942Z</time></trkpt><trkpt lat="43.9950429" lon="8.1360985"><ele>160.0</ele><time>2026-04-21T09:41:02.943Z</time></trkpt><trkpt lat="43.9952486" lon="8.1359684"><ele>168.0</ele><time>2026-04-21T09:41:03.936Z</time></trkpt><trkpt lat="43.9954543" lon="8.1358279"><ele>166.0</ele><time>2026-04-21T09:41:04.944Z</time></trkpt><trkpt lat="43.9956555" lon="8.135675"><ele>164.0</ele><time>2026-04-21T09:41:05.947Z</time></trkpt><trkpt lat="43.9958595" lon="8.1355181"><ele>164.0</ele><time>2026-04-21T09:41:06.95Z</time></trkpt><trkpt lat="43.9960625" lon="8.1353526"><ele>164.0</ele><time>2026-04-21T09:41:07.94Z</time></trkpt><trkpt lat="43.9962649" lon="8.1351913"><ele>164.0</ele><time>2026-04-21T09:41:08.953Z</time></trkpt><trkpt lat="43.9964693" lon="8.1350311"><ele>164.0</ele><time>2026-04-21T09:41:09.94Z</time></trkpt><trkpt lat="43.9966768" lon="8.1348722"><ele>168.5</ele><time>2026-04-21T09:41:10.936Z</time></trkpt><trkpt lat="43.9968862" lon="8.1347109"><ele>173.0</ele><time>2026-04-21T09:41:11.944Z</time></trkpt><trkpt lat="43.9970941" lon="8.1345487"><ele>173.0</ele><time>2026-04-21T09:41:12.944Z</time></trkpt><trkpt lat="43.9973016" lon="8.1343837"><ele>173.0</ele><time>2026-04-21T09:41:13.946Z</time></trkpt><trkpt lat="43.9975089" lon="8.1342184"><ele>183.0</ele><time>2026-04-21T09:41:14.94Z</time></trkpt><trkpt lat="43.9977137" lon="8.1340572"><ele>193.0</ele><time>2026-04-21T09:41:15.948Z</time></trkpt><trkpt lat="43.9979209" lon="8.1338922"><ele>206.0</ele><time>2026-04-21T09:41:16.942Z</time></trkpt><trkpt lat="43.9981311" lon="8.1337211"><ele>219.0</ele><time>2026-04-21T09:41:17.932Z</time></trkpt><trkpt lat="43.9983443" lon="8.1335497"><ele>227.5</ele><time>2026-04-21T09:41:18.939Z</time></trkpt><trkpt lat="43.9986289" lon="8.1333314"><ele>236.0</ele><time>2026-04-21T09:41:19.926Z</time></trkpt><trkpt lat="43.999112" lon="8.1329456"><ele>232.5</ele><time>2026-04-21T09:41:21.927Z</time></trkpt><trkpt lat="43.9993597" lon="8.1327478"><ele>229.0</ele><time>2026-04-21T09:41:22.919Z</time></trkpt><trkpt lat="43.9996111" lon="8.1325491"><ele>213.5</ele><time>2026-04-21T09:41:23.927Z</time></trkpt><trkpt lat="43.9998649" lon="8.1323551"><ele>198.0</ele><time>2026-04-21T09:41:24.915Z</time></trkpt><trkpt lat="44.000128" lon="8.1321604"><ele>198.0</ele><time>2026-04-21T09:41:25.923Z</time></trkpt><trkpt lat="44.0003907" lon="8.131973"><ele>198.0</ele><time>2026-04-21T09:41:26.919Z</time></trkpt><trkpt lat="44.0006628" lon="8.1317882"><ele>193.5</ele><time>2026-04-21T09:41:27.922Z</time></trkpt><trkpt lat="44.0009428" lon="8.1316111"><ele>189.0</ele><time>2026-04-21T09:41:28.911Z</time></trkpt><trkpt lat="44.0012279" lon="8.131452"><ele>177.0</ele><time>2026-04-21T09:41:29.914Z</time></trkpt><trkpt lat="44.0015246" lon="8.1313025"><ele>165.0</ele><time>2026-04-21T09:41:30.914Z</time></trkpt><trkpt lat="44.001716" lon="8.131251"><ele>165.0</ele><time>2026-04-21T09:41:31.923Z</time></trkpt><trkpt lat="44.0018572" lon="8.1312512"><ele>165.0</ele><time>2026-04-21T09:41:32.933Z</time></trkpt><trkpt lat="44.0019343" lon="8.1312936"><ele>165.0</ele><time>2026-04-21T09:41:33.938Z</time></trkpt><trkpt lat="44.0020824" lon="8.1313279"><ele>165.0</ele><time>2026-04-21T09:41:34.94Z</time></trkpt><trkpt lat="44.00226" lon="8.1313437"><ele>165.0</ele><time>2026-04-21T09:41:35.934Z</time></trkpt><trkpt lat="44.0024611" lon="8.131356"><ele>165.0</ele><time>2026-04-21T09:41:36.946Z</time></trkpt><trkpt lat="44.0026806" lon="8.1313634"><ele>165.0</ele><time>2026-04-21T09:41:37.942Z</time></trkpt><trkpt lat="44.00291" lon="8.1313664"><ele>170.0</ele><time>2026-04-21T09:41:38.931Z</time></trkpt><trkpt lat="44.0031417" lon="8.1313747"><ele>175.0</ele><time>2026-04-21T09:41:39.934Z</time></trkpt><trkpt lat="44.003374" lon="8.1313818"><ele>186.0</ele><time>2026-04-21T09:41:40.941Z</time></trkpt><trkpt lat="44.0038406" lon="8.1313978"><ele>186.0</ele><time>2026-04-21T09:41:42.932Z</time></trkpt><trkpt lat="44.0040729" lon="8.1314058"><ele>186.0</ele><time>2026-04-21T09:41:43.939Z</time></trkpt><trkpt lat="44.0043052" lon="8.1314126"><ele>203.5</ele><time>2026-04-21T09:41:44.936Z</time></trkpt><trkpt lat="44.0045498" lon="8.1314268"><ele>221.0</ele><time>2026-04-21T09:41:45.925Z</time></trkpt><trkpt lat="44.0047974" lon="8.1314406"><ele>241.0</ele><time>2026-04-21T09:41:46.935Z</time></trkpt><trkpt lat="44.0050474" lon="8.1314559"><ele>261.0</ele><time>2026-04-21T09:41:47.922Z</time></trkpt><trkpt lat="44.0052895" lon="8.1314689"><ele>261.0</ele><time>2026-04-21T09:41:48.931Z</time></trkpt><trkpt lat="44.005531" lon="8.1314825"><ele>261.0</ele><time>2026-04-21T09:41:49.925Z</time></trkpt><trkpt lat="44.0057683" lon="8.1314961"><ele>278.5</ele><time>2026-04-21T09:41:50.919Z</time></trkpt><trkpt lat="44.0060044" lon="8.1315072"><ele>296.0</ele><time>2026-04-21T09:41:51.917Z</time></trkpt><trkpt lat="44.0062334" lon="8.1315161"><ele>296.0</ele><time>2026-04-21T09:41:52.919Z</time></trkpt><trkpt lat="44.0064579" lon="8.1315254"><ele>296.0</ele><time>2026-04-21T09:41:53.924Z</time></trkpt><trkpt lat="44.0066767" lon="8.1315378"><ele>296.0</ele><time>2026-04-21T09:41:54.923Z</time></trkpt><trkpt lat="44.0068969" lon="8.1315498"><ele>302.0</ele><time>2026-04-21T09:41:55.92Z</time></trkpt><trkpt lat="44.0071091" lon="8.1315612"><ele>308.0</ele><time>2026-04-21T09:41:56.92Z</time></trkpt><trkpt lat="44.0073214" lon="8.1315701"><ele>314.0</ele><time>2026-04-21T09:41:57.923Z</time></trkpt><trkpt lat="44.0075295" lon="8.131575"><ele>324.33333333333337</ele><time>2026-04-21T09:41:58.924Z</time></trkpt><trkpt lat="44.0077312" lon="8.1315808"><ele>334.6666666666667</ele><time>2026-04-21T09:41:59.917Z</time></trkpt><trkpt lat="44.0079317" lon="8.1315901"><ele>345.0</ele><time>2026-04-21T09:42:00.907Z</time></trkpt><trkpt lat="44.0081257" lon="8.1316001"><ele>354.0</ele><time>2026-04-21T09:42:01.916Z</time></trkpt><trkpt lat="44.0085024" lon="8.1316127"><ele>363.0</ele><time>2026-04-21T09:42:03.913Z</time></trkpt><trkpt lat="44.008685" lon="8.131617"><ele>363.0</ele><time>2026-04-21T09:42:04.91Z</time></trkpt><trkpt lat="44.0088652" lon="8.1316214"><ele>363.0</ele><time>2026-04-21T09:42:05.918Z</time></trkpt><trkpt lat="44.0090437" lon="8.1316264"><ele>363.0</ele><time>2026-04-21T09:42:06.911Z</time></trkpt><trkpt lat="44.0092211" lon="8.1316333"><ele>171.0</ele><time>2026-04-21T09:42:07.909Z</time></trkpt><trkpt lat="44.0187032" lon="8.1319123"><ele>144.0</ele><time>2026-04-21T09:42:40.924Z</time></trkpt><trkpt lat="44.0191888" lon="8.1318741"><ele>144.0</ele><time>2026-04-21T09:42:42.936Z</time></trkpt><trkpt lat="44.0194711" lon="8.1318696"><ele>144.0</ele><time>2026-04-21T09:42:43.939Z</time></trkpt><trkpt lat="44.019736" lon="8.1318424"><ele>146.5</ele><time>2026-04-21T09:42:44.933Z</time></trkpt><trkpt lat="44.0199848" lon="8.1318129"><ele>149.0</ele><time>2026-04-21T09:42:45.937Z</time></trkpt><trkpt lat="44.020241" lon="8.1317718"><ele>149.0</ele><time>2026-04-21T09:42:46.943Z</time></trkpt><trkpt lat="44.0205005" lon="8.1317259"><ele>149.0</ele><time>2026-04-21T09:42:47.934Z</time></trkpt><trkpt lat="44.0207638" lon="8.1316741"><ele>152.5</ele><time>2026-04-21T09:42:48.946Z</time></trkpt><trkpt lat="44.0210278" lon="8.1316198"><ele>156.0</ele><time>2026-04-21T09:42:49.936Z</time></trkpt><trkpt lat="44.0212953" lon="8.1315634"><ele>149.5</ele><time>2026-04-21T09:42:50.928Z</time></trkpt><trkpt lat="44.0215659" lon="8.1315077"><ele>143.0</ele><time>2026-04-21T09:42:51.931Z</time></trkpt><trkpt lat="44.021837" lon="8.1314486"><ele>143.0</ele><time>2026-04-21T09:42:52.937Z</time></trkpt><trkpt lat="44.0221069" lon="8.131387"><ele>143.0</ele><time>2026-04-21T09:42:53.939Z</time></trkpt><trkpt lat="44.0223746" lon="8.1313277"><ele>137.5</ele><time>2026-04-21T09:42:54.942Z</time></trkpt><trkpt lat="44.0226446" lon="8.1312557"><ele>132.0</ele><time>2026-04-21T09:42:55.944Z</time></trkpt><trkpt lat="44.0229121" lon="8.1311945"><ele>132.0</ele><time>2026-04-21T09:42:56.941Z</time></trkpt><trkpt lat="44.0231823" lon="8.1311371"><ele>132.0</ele><time>2026-04-21T09:42:57.94Z</time></trkpt><trkpt lat="44.0234535" lon="8.1310836"><ele>133.0</ele><time>2026-04-21T09:42:58.942Z</time></trkpt><trkpt lat="44.023725" lon="8.131036"><ele>134.0</ele><time>2026-04-21T09:42:59.941Z</time></trkpt><trkpt lat="44.0239963" lon="8.1310004"><ele>133.0</ele><time>2026-04-21T09:43:00.937Z</time></trkpt><trkpt lat="44.0242151" lon="8.1309588"><ele>132.0</ele><time>2026-04-21T09:43:01.949Z</time></trkpt><trkpt lat="44.0247724" lon="8.1309453"><ele>132.0</ele><time>2026-04-21T09:43:03.938Z</time></trkpt><trkpt lat="44.0250482" lon="8.13096"><ele>132.0</ele><time>2026-04-21T09:43:04.938Z</time></trkpt><trkpt lat="44.0253218" lon="8.1309906"><ele>132.0</ele><time>2026-04-21T09:43:05.939Z</time></trkpt><trkpt lat="44.0255952" lon="8.13103"><ele>132.0</ele><time>2026-04-21T09:43:06.949Z</time></trkpt><trkpt lat="44.0258662" lon="8.1310791"><ele>123.5</ele><time>2026-04-21T09:43:07.94Z</time></trkpt><trkpt lat="44.0261355" lon="8.1311401"><ele>115.0</ele><time>2026-04-21T09:43:08.943Z</time></trkpt><trkpt lat="44.0264046" lon="8.131211"><ele>113.5</ele><time>2026-04-21T09:43:09.941Z</time></trkpt><trkpt lat="44.0266688" lon="8.1312846"><ele>112.0</ele><time>2026-04-21T09:43:10.937Z</time></trkpt><trkpt lat="44.0269301" lon="8.1313679"><ele>112.0</ele><time>2026-04-21T09:43:11.929Z</time></trkpt><trkpt lat="44.0271904" lon="8.1314673"><ele>112.0</ele><time>2026-04-21T09:43:12.933Z</time></trkpt><trkpt lat="44.0274493" lon="8.1315814"><ele>118.5</ele><time>2026-04-21T09:43:13.943Z</time></trkpt><trkpt lat="44.0277085" lon="8.1317076"><ele>125.0</ele><time>2026-04-21T09:43:14.932Z</time></trkpt><trkpt lat="44.027966" lon="8.1318396"><ele>125.0</ele><time>2026-04-21T09:43:15.929Z</time></trkpt><trkpt lat="44.0282253" lon="8.1319726"><ele>125.0</ele><time>2026-04-21T09:43:16.938Z</time></trkpt><trkpt lat="44.0284871" lon="8.1321092"><ele>117.5</ele><time>2026-04-21T09:43:17.94Z</time></trkpt><trkpt lat="44.0287465" lon="8.132245"><ele>110.0</ele><time>2026-04-21T09:43:18.933Z</time></trkpt><trkpt lat="44.0290051" lon="8.1323825"><ele>112.0</ele><time>2026-04-21T09:43:19.94Z</time></trkpt><trkpt lat="44.0292648" lon="8.1325216"><ele>114.0</ele><time>2026-04-21T09:43:20.939Z</time></trkpt><trkpt lat="44.0295241" lon="8.1326607"><ele>114.0</ele><time>2026-04-21T09:43:21.942Z</time></trkpt><trkpt lat="44.0297831" lon="8.1327977"><ele>114.0</ele><time>2026-04-21T09:43:22.947Z</time></trkpt><trkpt lat="44.0302977" lon="8.133065"><ele>111.0</ele><time>2026-04-21T09:43:24.931Z</time></trkpt><trkpt lat="44.0305532" lon="8.1331963"><ele>108.0</ele><time>2026-04-21T09:43:25.94Z</time></trkpt><trkpt lat="44.0308096" lon="8.1333221"><ele>108.0</ele><time>2026-04-21T09:43:26.949Z</time></trkpt><trkpt lat="44.0310692" lon="8.1334372"><ele>108.0</ele><time>2026-04-21T09:43:27.938Z</time></trkpt><trkpt lat="44.0313308" lon="8.1335394"><ele>108.0</ele><time>2026-04-21T09:43:28.949Z</time></trkpt><trkpt lat="44.0315962" lon="8.1336244"><ele>108.0</ele><time>2026-04-21T09:43:29.94Z</time></trkpt><trkpt lat="44.0318621" lon="8.1336949"><ele>100.0</ele><time>2026-04-21T09:43:30.942Z</time></trkpt><trkpt lat="44.0321269" lon="8.1337513"><ele>92.0</ele><time>2026-04-21T09:43:31.943Z</time></trkpt><trkpt lat="44.0323933" lon="8.1337966"><ele>84.0</ele><time>2026-04-21T09:43:32.94Z</time></trkpt><trkpt lat="44.0326611" lon="8.1338265"><ele>76.0</ele><time>2026-04-21T09:43:33.937Z</time></trkpt><trkpt lat="44.0329264" lon="8.1338461"><ele>76.0</ele><time>2026-04-21T09:43:34.943Z</time></trkpt><trkpt lat="44.0331909" lon="8.1338517"><ele>76.0</ele><time>2026-04-21T09:43:35.954Z</time></trkpt><trkpt lat="44.0334572" lon="8.1338477"><ele>79.5</ele><time>2026-04-21T09:43:36.936Z</time></trkpt><trkpt lat="44.0337232" lon="8.1338264"><ele>83.0</ele><time>2026-04-21T09:43:37.937Z</time></trkpt><trkpt lat="44.03399" lon="8.1337943"><ele>88.0</ele><time>2026-04-21T09:43:38.949Z</time></trkpt><trkpt lat="44.0342579" lon="8.1337495"><ele>93.0</ele><time>2026-04-21T09:43:39.944Z</time></trkpt><trkpt lat="44.0345283" lon="8.1336971"><ele>93.0</ele><time>2026-04-21T09:43:40.939Z</time></trkpt><trkpt lat="44.0347991" lon="8.1336411"><ele>93.0</ele><time>2026-04-21T09:43:41.953Z</time></trkpt><trkpt lat="44.0350717" lon="8.1335861"><ele>89.5</ele><time>2026-04-21T09:43:42.942Z</time></trkpt><trkpt lat="44.0353429" lon="8.1335349"><ele>86.0</ele><time>2026-04-21T09:43:43.938Z</time></trkpt><trkpt lat="44.0358882" lon="8.1334426"><ele>81.5</ele><time>2026-04-21T09:43:45.941Z</time></trkpt><trkpt lat="44.0361605" lon="8.1334096"><ele>77.0</ele><time>2026-04-21T09:43:46.937Z</time></trkpt><trkpt lat="44.0364322" lon="8.1333945"><ele>78.0</ele><time>2026-04-21T09:43:47.933Z</time></trkpt><trkpt lat="44.0367047" lon="8.133397"><ele>79.0</ele><time>2026-04-21T09:43:48.946Z</time></trkpt><trkpt lat="44.0369758" lon="8.1334214"><ele>79.0</ele><time>2026-04-21T09:43:49.938Z</time></trkpt><trkpt lat="44.0372416" lon="8.1334685"><ele>79.0</ele><time>2026-04-21T09:43:50.934Z</time></trkpt><trkpt lat="44.0375048" lon="8.1335243"><ele>79.5</ele><time>2026-04-21T09:43:51.954Z</time></trkpt><trkpt lat="44.0377678" lon="8.1335946"><ele>80.0</ele><time>2026-04-21T09:43:52.943Z</time></trkpt><trkpt lat="44.0380318" lon="8.1336811"><ele>80.0</ele><time>2026-04-21T09:43:53.946Z</time></trkpt><trkpt lat="44.0382962" lon="8.1337779"><ele>80.0</ele><time>2026-04-21T09:43:54.924Z</time></trkpt><trkpt lat="44.0385567" lon="8.1339012"><ele>81.5</ele><time>2026-04-21T09:43:55.944Z</time></trkpt><trkpt lat="44.0388123" lon="8.1340508"><ele>83.0</ele><time>2026-04-21T09:43:56.932Z</time></trkpt><trkpt lat="44.0390588" lon="8.1342245"><ele>78.5</ele><time>2026-04-21T09:43:57.94Z</time></trkpt><trkpt lat="44.0392945" lon="8.1344259"><ele>74.0</ele><time>2026-04-21T09:43:58.944Z</time></trkpt><trkpt lat="44.0395298" lon="8.1346466"><ele>74.0</ele><time>2026-04-21T09:43:59.941Z</time></trkpt><trkpt lat="44.0397568" lon="8.1348813"><ele>74.0</ele><time>2026-04-21T09:44:00.95Z</time></trkpt><trkpt lat="44.0399791" lon="8.1351289"><ele>75.5</ele><time>2026-04-21T09:44:01.943Z</time></trkpt><trkpt lat="44.0401979" lon="8.1353909"><ele>77.0</ele><time>2026-04-21T09:44:02.938Z</time></trkpt><trkpt lat="44.0404011" lon="8.1356665"><ele>76.5</ele><time>2026-04-21T09:44:03.95Z</time></trkpt><trkpt lat="44.0405848" lon="8.1359623"><ele>76.0</ele><time>2026-04-21T09:44:04.938Z</time></trkpt><trkpt lat="44.0409082" lon="8.1365952"><ele>76.0</ele><time>2026-04-21T09:44:06.942Z</time></trkpt><trkpt lat="44.0410655" lon="8.1369193"><ele>76.0</ele><time>2026-04-21T09:44:07.937Z</time></trkpt><trkpt lat="44.0412231" lon="8.1372473"><ele>81.5</ele><time>2026-04-21T09:44:08.941Z</time></trkpt><trkpt lat="44.0413772" lon="8.1375786"><ele>87.0</ele><time>2026-04-21T09:44:09.942Z</time></trkpt><trkpt lat="44.0415316" lon="8.1379088"><ele>77.5</ele><time>2026-04-21T09:44:10.952Z</time></trkpt><trkpt lat="44.0416881" lon="8.138238"><ele>68.0</ele><time>2026-04-21T09:44:11.933Z</time></trkpt><trkpt lat="44.0418447" lon="8.1385668"><ele>68.0</ele><time>2026-04-21T09:44:12.943Z</time></trkpt><trkpt lat="44.0420018" lon="8.1388956"><ele>68.0</ele><time>2026-04-21T09:44:13.931Z</time></trkpt><trkpt lat="44.0421601" lon="8.1392211"><ele>77.5</ele><time>2026-04-21T09:44:14.934Z</time></trkpt><trkpt lat="44.0423183" lon="8.1395458"><ele>87.0</ele><time>2026-04-21T09:44:15.947Z</time></trkpt><trkpt lat="44.0424745" lon="8.1398744"><ele>75.0</ele><time>2026-04-21T09:44:16.943Z</time></trkpt><trkpt lat="44.0426302" lon="8.1402035"><ele>63.0</ele><time>2026-04-21T09:44:17.94Z</time></trkpt><trkpt lat="44.0427856" lon="8.1405294"><ele>70.0</ele><time>2026-04-21T09:44:18.936Z</time></trkpt><trkpt lat="44.042938" lon="8.1408538"><ele>77.0</ele><time>2026-04-21T09:44:19.939Z</time></trkpt><trkpt lat="44.0430892" lon="8.1411758"><ele>77.0</ele><time>2026-04-21T09:44:20.947Z</time></trkpt><trkpt lat="44.0432422" lon="8.141494"><ele>77.0</ele><time>2026-04-21T09:44:21.94Z</time></trkpt><trkpt lat="44.0433941" lon="8.1418106"><ele>63.5</ele><time>2026-04-21T09:44:22.936Z</time></trkpt><trkpt lat="44.0435453" lon="8.1421259"><ele>50.0</ele><time>2026-04-21T09:44:23.942Z</time></trkpt><trkpt lat="44.0436969" lon="8.14244"><ele>50.0</ele><time>2026-04-21T09:44:24.937Z</time></trkpt><trkpt lat="44.0438468" lon="8.1427547"><ele>50.0</ele><time>2026-04-21T09:44:25.935Z</time></trkpt><trkpt lat="44.0441452" lon="8.1433848"><ele>45.5</ele><time>2026-04-21T09:44:27.951Z</time></trkpt><trkpt lat="44.044302" lon="8.1436926"><ele>41.0</ele><time>2026-04-21T09:44:28.93Z</time></trkpt><trkpt lat="44.044464" lon="8.1439933"><ele>45.5</ele><time>2026-04-21T09:44:29.942Z</time></trkpt><trkpt lat="44.0446302" lon="8.1442852"><ele>50.0</ele><time>2026-04-21T09:44:30.936Z</time></trkpt><trkpt lat="44.0448045" lon="8.1445677"><ele>49.5</ele><time>2026-04-21T09:44:31.94Z</time></trkpt><trkpt lat="44.0449841" lon="8.1448472"><ele>49.0</ele><time>2026-04-21T09:44:32.947Z</time></trkpt><trkpt lat="44.0451668" lon="8.1451244"><ele>49.0</ele><time>2026-04-21T09:44:33.931Z</time></trkpt><trkpt lat="44.0453491" lon="8.1453917"><ele>49.0</ele><time>2026-04-21T09:44:34.935Z</time></trkpt><trkpt lat="44.0455279" lon="8.1456599"><ele>46.0</ele><time>2026-04-21T09:44:35.936Z</time></trkpt><trkpt lat="44.045708" lon="8.145926"><ele>43.0</ele><time>2026-04-21T09:44:36.93Z</time></trkpt><trkpt lat="44.045889" lon="8.146192"><ele>43.0</ele><time>2026-04-21T09:44:37.927Z</time></trkpt><trkpt lat="44.0460675" lon="8.1464579"><ele>43.0</ele><time>2026-04-21T09:44:38.923Z</time></trkpt><trkpt lat="44.0462428" lon="8.146731"><ele>37.5</ele><time>2026-04-21T09:44:39.926Z</time></trkpt><trkpt lat="44.0464397" lon="8.1470065"><ele>32.0</ele><time>2026-04-21T09:44:40.927Z</time></trkpt><trkpt lat="44.0466602" lon="8.1473009"><ele>34.0</ele><time>2026-04-21T09:44:41.946Z</time></trkpt><trkpt lat="44.0468705" lon="8.1475668"><ele>36.0</ele><time>2026-04-21T09:44:42.936Z</time></trkpt><trkpt lat="44.0470717" lon="8.1478451"><ele>36.0</ele><time>2026-04-21T09:44:43.94Z</time></trkpt><trkpt lat="44.0472641" lon="8.1481259"><ele>36.0</ele><time>2026-04-21T09:44:44.936Z</time></trkpt><trkpt lat="44.0474533" lon="8.1484067"><ele>31.0</ele><time>2026-04-21T09:44:45.94Z</time></trkpt><trkpt lat="44.0476374" lon="8.1486819"><ele>26.0</ele><time>2026-04-21T09:44:46.945Z</time></trkpt><trkpt lat="44.0480036" lon="8.1492223"><ele>26.0</ele><time>2026-04-21T09:44:48.956Z</time></trkpt><trkpt lat="44.0481893" lon="8.1494921"><ele>26.0</ele><time>2026-04-21T09:44:49.939Z</time></trkpt><trkpt lat="44.0483749" lon="8.1497628"><ele>25.5</ele><time>2026-04-21T09:44:50.932Z</time></trkpt><trkpt lat="44.0485593" lon="8.1500365"><ele>25.0</ele><time>2026-04-21T09:44:51.939Z</time></trkpt><trkpt lat="44.0487417" lon="8.1503095"><ele>25.0</ele><time>2026-04-21T09:44:52.941Z</time></trkpt><trkpt lat="44.0489229" lon="8.1505782"><ele>25.0</ele><time>2026-04-21T09:44:53.951Z</time></trkpt><trkpt lat="44.0491068" lon="8.150847"><ele>25.0</ele><time>2026-04-21T09:44:54.943Z</time></trkpt><trkpt lat="44.0492918" lon="8.1511181"><ele>25.0</ele><time>2026-04-21T09:44:55.928Z</time></trkpt><trkpt lat="44.0494734" lon="8.1513946"><ele>24.5</ele><time>2026-04-21T09:44:56.94Z</time></trkpt><trkpt lat="44.0496537" lon="8.1516785"><ele>24.0</ele><time>2026-04-21T09:44:57.943Z</time></trkpt><trkpt lat="44.049831" lon="8.1519683"><ele>24.0</ele><time>2026-04-21T09:44:58.954Z</time></trkpt><trkpt lat="44.0500051" lon="8.1522647"><ele>24.0</ele><time>2026-04-21T09:44:59.95Z</time></trkpt><trkpt lat="44.0501767" lon="8.1525661"><ele>23.0</ele><time>2026-04-21T09:45:00.938Z</time></trkpt><trkpt lat="44.0503438" lon="8.1528727"><ele>22.0</ele><time>2026-04-21T09:45:01.93Z</time></trkpt><trkpt lat="44.0505042" lon="8.1531865"><ele>22.0</ele><time>2026-04-21T09:45:02.951Z</time></trkpt><trkpt lat="44.0506595" lon="8.1535062"><ele>22.0</ele><time>2026-04-21T09:45:03.94Z</time></trkpt><trkpt lat="44.0508139" lon="8.1538281"><ele>22.5</ele><time>2026-04-21T09:45:04.94Z</time></trkpt><trkpt lat="44.0509712" lon="8.1541491"><ele>23.0</ele><time>2026-04-21T09:45:05.94Z</time></trkpt><trkpt lat="44.0511287" lon="8.1544683"><ele>23.0</ele><time>2026-04-21T09:45:06.939Z</time></trkpt><trkpt lat="44.051283" lon="8.1547894"><ele>23.0</ele><time>2026-04-21T09:45:07.94Z</time></trkpt><trkpt lat="44.0515816" lon="8.1554326"><ele>22.5</ele><time>2026-04-21T09:45:09.95Z</time></trkpt><trkpt lat="44.0517292" lon="8.1557584"><ele>22.0</ele><time>2026-04-21T09:45:10.943Z</time></trkpt><trkpt lat="44.0518763" lon="8.1560876"><ele>22.0</ele><time>2026-04-21T09:45:11.953Z</time></trkpt><trkpt lat="44.0520248" lon="8.1564169"><ele>22.0</ele><time>2026-04-21T09:45:12.943Z</time></trkpt><trkpt lat="44.0521722" lon="8.1567459"><ele>22.0</ele><time>2026-04-21T09:45:13.955Z</time></trkpt><trkpt lat="44.0523135" lon="8.1570802"><ele>22.0</ele><time>2026-04-21T09:45:14.939Z</time></trkpt><trkpt lat="44.0524474" lon="8.1574213"><ele>21.5</ele><time>2026-04-21T09:45:15.939Z</time></trkpt><trkpt lat="44.0525746" lon="8.1577657"><ele>21.0</ele><time>2026-04-21T09:45:16.948Z</time></trkpt><trkpt lat="44.0526987" lon="8.1581135"><ele>20.5</ele><time>2026-04-21T09:45:17.95Z</time></trkpt><trkpt lat="44.0528207" lon="8.158463"><ele>20.0</ele><time>2026-04-21T09:45:18.94Z</time></trkpt><trkpt lat="44.0529451" lon="8.1588133"><ele>18.5</ele><time>2026-04-21T09:45:19.957Z</time></trkpt><trkpt lat="44.0530719" lon="8.1591632"><ele>17.0</ele><time>2026-04-21T09:45:20.942Z</time></trkpt><trkpt lat="44.0531998" lon="8.1595097"><ele>17.5</ele><time>2026-04-21T09:45:21.938Z</time></trkpt><trkpt lat="44.0533271" lon="8.1598544"><ele>18.0</ele><time>2026-04-21T09:45:22.94Z</time></trkpt><trkpt lat="44.0534557" lon="8.160197"><ele>18.0</ele><time>2026-04-21T09:45:23.942Z</time></trkpt><trkpt lat="44.0535865" lon="8.1605371"><ele>18.0</ele><time>2026-04-21T09:45:24.944Z</time></trkpt><trkpt lat="44.0537212" lon="8.1608738"><ele>18.5</ele><time>2026-04-21T09:45:25.949Z</time></trkpt><trkpt lat="44.0538593" lon="8.1612058"><ele>19.0</ele><time>2026-04-21T09:45:26.938Z</time></trkpt><trkpt lat="44.0540019" lon="8.1615352"><ele>19.0</ele><time>2026-04-21T09:45:27.957Z</time></trkpt><trkpt lat="44.0541494" lon="8.1618614"><ele>19.0</ele><time>2026-04-21T09:45:28.943Z</time></trkpt><trkpt lat="44.0544583" lon="8.1625012"><ele>19.0</ele><time>2026-04-21T09:45:30.933Z</time></trkpt><trkpt lat="44.0546192" lon="8.1628148"><ele>19.0</ele><time>2026-04-21T09:45:31.938Z</time></trkpt><trkpt lat="44.0547827" lon="8.1631253"><ele>18.5</ele><time>2026-04-21T09:45:32.939Z</time></trkpt><trkpt lat="44.0549497" lon="8.163433"><ele>18.0</ele><time>2026-04-21T09:45:33.944Z</time></trkpt><trkpt lat="44.0551218" lon="8.1637352"><ele>18.0</ele><time>2026-04-21T09:45:34.952Z</time></trkpt><trkpt lat="44.0552972" lon="8.1640329"><ele>18.0</ele><time>2026-04-21T09:45:35.943Z</time></trkpt><trkpt lat="44.0554761" lon="8.1643261"><ele>18.0</ele><time>2026-04-21T09:45:36.955Z</time></trkpt><trkpt lat="44.0556591" lon="8.1646179"><ele>18.0</ele><time>2026-04-21T09:45:37.944Z</time></trkpt><trkpt lat="44.0558471" lon="8.1649038"><ele>19.0</ele><time>2026-04-21T09:45:38.95Z</time></trkpt><trkpt lat="44.0560414" lon="8.1651831"><ele>20.0</ele><time>2026-04-21T09:45:39.953Z</time></trkpt><trkpt lat="44.056241" lon="8.1654583"><ele>20.0</ele><time>2026-04-21T09:45:40.943Z</time></trkpt><trkpt lat="44.0564423" lon="8.1657311"><ele>20.0</ele><time>2026-04-21T09:45:41.955Z</time></trkpt><trkpt lat="44.0566454" lon="8.1660032"><ele>20.0</ele><time>2026-04-21T09:45:42.946Z</time></trkpt><trkpt lat="44.0568511" lon="8.1662738"><ele>20.0</ele><time>2026-04-21T09:45:43.955Z</time></trkpt><trkpt lat="44.0570626" lon="8.1665396"><ele>21.0</ele><time>2026-04-21T09:45:44.938Z</time></trkpt><trkpt lat="44.0572782" lon="8.1668006"><ele>22.0</ele><time>2026-04-21T09:45:45.942Z</time></trkpt><trkpt lat="44.0574965" lon="8.1670569"><ele>24.5</ele><time>2026-04-21T09:45:46.943Z</time></trkpt><trkpt lat="44.0577185" lon="8.1673064"><ele>27.0</ele><time>2026-04-21T09:45:47.944Z</time></trkpt><trkpt lat="44.0579431" lon="8.1675428"><ele>27.0</ele><time>2026-04-21T09:45:48.948Z</time></trkpt><trkpt lat="44.0581668" lon="8.1677721"><ele>27.0</ele><time>2026-04-21T09:45:49.937Z</time></trkpt><trkpt lat="44.058619" lon="8.1682542"><ele>33.0</ele><time>2026-04-21T09:45:51.931Z</time></trkpt><trkpt lat="44.0588429" lon="8.1684945"><ele>39.0</ele><time>2026-04-21T09:45:52.936Z</time></trkpt><trkpt lat="44.0590769" lon="8.1686985"><ele>33.0</ele><time>2026-04-21T09:45:53.946Z</time></trkpt><trkpt lat="44.0593038" lon="8.1689044"><ele>27.0</ele><time>2026-04-21T09:45:54.934Z</time></trkpt><trkpt lat="44.0595181" lon="8.1690913"><ele>27.0</ele><time>2026-04-21T09:45:55.942Z</time></trkpt><trkpt lat="44.0597354" lon="8.1692707"><ele>27.0</ele><time>2026-04-21T09:45:56.932Z</time></trkpt><trkpt lat="44.0599589" lon="8.1694535"><ele>32.5</ele><time>2026-04-21T09:45:57.943Z</time></trkpt><trkpt lat="44.0601821" lon="8.1696366"><ele>38.0</ele><time>2026-04-21T09:45:58.937Z</time></trkpt><trkpt lat="44.0603997" lon="8.169808"><ele>35.5</ele><time>2026-04-21T09:45:59.945Z</time></trkpt><trkpt lat="44.0606092" lon="8.1699712"><ele>33.0</ele><time>2026-04-21T09:46:00.933Z</time></trkpt><trkpt lat="44.0608134" lon="8.1701302"><ele>29.0</ele><time>2026-04-21T09:46:01.944Z</time></trkpt><trkpt lat="44.0610145" lon="8.1702854"><ele>25.0</ele><time>2026-04-21T09:46:02.942Z</time></trkpt><trkpt lat="44.0612134" lon="8.170439"><ele>25.0</ele><time>2026-04-21T09:46:03.942Z</time></trkpt><trkpt lat="44.0614134" lon="8.1706006"><ele>25.0</ele><time>2026-04-21T09:46:04.95Z</time></trkpt><trkpt lat="44.0616141" lon="8.1707681"><ele>22.0</ele><time>2026-04-21T09:46:05.943Z</time></trkpt><trkpt lat="44.0618162" lon="8.1709404"><ele>19.0</ele><time>2026-04-21T09:46:06.94Z</time></trkpt><trkpt lat="44.062023" lon="8.1711087"><ele>19.0</ele><time>2026-04-21T09:46:07.939Z</time></trkpt><trkpt lat="44.0622314" lon="8.1712738"><ele>19.0</ele><time>2026-04-21T09:46:08.942Z</time></trkpt><trkpt lat="44.0624424" lon="8.1714422"><ele>18.5</ele><time>2026-04-21T09:46:09.936Z</time></trkpt><trkpt lat="44.0626519" lon="8.1716103"><ele>18.0</ele><time>2026-04-21T09:46:10.939Z</time></trkpt><trkpt lat="44.0630692" lon="8.1719501"><ele>18.0</ele><time>2026-04-21T09:46:12.939Z</time></trkpt><trkpt lat="44.0632772" lon="8.1721206"><ele>18.0</ele><time>2026-04-21T09:46:13.938Z</time></trkpt><trkpt lat="44.0634846" lon="8.1722961"><ele>16.0</ele><time>2026-04-21T09:46:14.936Z</time></trkpt><trkpt lat="44.0636898" lon="8.172478"><ele>14.0</ele><time>2026-04-21T09:46:15.942Z</time></trkpt><trkpt lat="44.0638926" lon="8.1726634"><ele>14.0</ele><time>2026-04-21T09:46:16.943Z</time></trkpt><trkpt lat="44.0640945" lon="8.1728534"><ele>14.0</ele><time>2026-04-21T09:46:17.936Z</time></trkpt><trkpt lat="44.0642947" lon="8.173046"><ele>14.0</ele><time>2026-04-21T09:46:18.956Z</time></trkpt><trkpt lat="44.0644928" lon="8.1732405"><ele>14.0</ele><time>2026-04-21T09:46:19.942Z</time></trkpt><trkpt lat="44.0646895" lon="8.1734367"><ele>14.0</ele><time>2026-04-21T09:46:20.952Z</time></trkpt><trkpt lat="44.064883" lon="8.1736362"><ele>14.0</ele><time>2026-04-21T09:46:21.944Z</time></trkpt><trkpt lat="44.0650732" lon="8.1738388"><ele>16.5</ele><time>2026-04-21T09:46:22.94Z</time></trkpt><trkpt lat="44.0652606" lon="8.1740489"><ele>19.0</ele><time>2026-04-21T09:46:23.941Z</time></trkpt><trkpt lat="44.0654453" lon="8.1742685"><ele>19.0</ele><time>2026-04-21T09:46:24.942Z</time></trkpt><trkpt lat="44.0656288" lon="8.1744937"><ele>19.0</ele><time>2026-04-21T09:46:25.944Z</time></trkpt><trkpt lat="44.06581" lon="8.1747195"><ele>21.5</ele><time>2026-04-21T09:46:26.946Z</time></trkpt><trkpt lat="44.0659867" lon="8.174945"><ele>24.0</ele><time>2026-04-21T09:46:27.942Z</time></trkpt><trkpt lat="44.0661574" lon="8.1751709"><ele>24.0</ele><time>2026-04-21T09:46:28.943Z</time></trkpt><trkpt lat="44.0663239" lon="8.1753939"><ele>24.0</ele><time>2026-04-21T09:46:29.942Z</time></trkpt><trkpt lat="44.0664834" lon="8.1756094"><ele>23.0</ele><time>2026-04-21T09:46:30.951Z</time></trkpt><trkpt lat="44.0666352" lon="8.1758171"><ele>22.0</ele><time>2026-04-21T09:46:31.933Z</time></trkpt><trkpt lat="44.0669386" lon="8.1762304"><ele>22.0</ele><time>2026-04-21T09:46:33.941Z</time></trkpt><trkpt lat="44.0670935" lon="8.1764394"><ele>22.0</ele><time>2026-04-21T09:46:34.942Z</time></trkpt><trkpt lat="44.0672479" lon="8.1766514"><ele>22.0</ele><time>2026-04-21T09:46:35.953Z</time></trkpt><trkpt lat="44.0674024" lon="8.1768631"><ele>22.666666666666664</ele><time>2026-04-21T09:46:36.95Z</time></trkpt><trkpt lat="44.0675555" lon="8.1770742"><ele>23.333333333333332</ele><time>2026-04-21T09:46:37.953Z</time></trkpt><trkpt lat="44.0677079" lon="8.1772835"><ele>24.0</ele><time>2026-04-21T09:46:38.941Z</time></trkpt><trkpt lat="44.06786" lon="8.1774913"><ele>24.0</ele><time>2026-04-21T09:46:39.934Z</time></trkpt><trkpt lat="44.0680115" lon="8.1776993"><ele>24.0</ele><time>2026-04-21T09:46:40.935Z</time></trkpt><trkpt lat="44.0681638" lon="8.1779059"><ele>24.0</ele><time>2026-04-21T09:46:41.937Z</time></trkpt><trkpt lat="44.0683167" lon="8.178112"><ele>26.0</ele><time>2026-04-21T09:46:42.959Z</time></trkpt><trkpt lat="44.0684696" lon="8.1783191"><ele>28.0</ele><time>2026-04-21T09:46:43.951Z</time></trkpt><trkpt lat="44.0686235" lon="8.1785279"><ele>30.0</ele><time>2026-04-21T09:46:44.934Z</time></trkpt><trkpt lat="44.0687778" lon="8.1787373"><ele>30.0</ele><time>2026-04-21T09:46:45.954Z</time></trkpt><trkpt lat="44.0689335" lon="8.1789493"><ele>30.0</ele><time>2026-04-21T09:46:46.939Z</time></trkpt><trkpt lat="44.0690911" lon="8.1791604"><ele>30.0</ele><time>2026-04-21T09:46:47.957Z</time></trkpt><trkpt lat="44.0692477" lon="8.1793712"><ele>32.666666666666664</ele><time>2026-04-21T09:46:48.943Z</time></trkpt><trkpt lat="44.0694031" lon="8.1795815"><ele>35.33333333333333</ele><time>2026-04-21T09:46:49.944Z</time></trkpt><trkpt lat="44.0695561" lon="8.1797905"><ele>38.0</ele><time>2026-04-21T09:46:50.942Z</time></trkpt><trkpt lat="44.0697092" lon="8.1799996"><ele>38.0</ele><time>2026-04-21T09:46:51.928Z</time></trkpt><trkpt lat="44.069864" lon="8.1802085"><ele>38.0</ele><time>2026-04-21T09:46:52.958Z</time></trkpt><trkpt lat="44.0701799" lon="8.180635"><ele>37.33333333333333</ele><time>2026-04-21T09:46:54.942Z</time></trkpt><trkpt lat="44.0703401" lon="8.180852"><ele>36.666666666666664</ele><time>2026-04-21T09:46:55.943Z</time></trkpt><trkpt lat="44.0705009" lon="8.1810703"><ele>36.0</ele><time>2026-04-21T09:46:56.946Z</time></trkpt><trkpt lat="44.0706624" lon="8.181291"><ele>35.5</ele><time>2026-04-21T09:46:57.943Z</time></trkpt><trkpt lat="44.070826" lon="8.1815167"><ele>35.0</ele><time>2026-04-21T09:46:58.942Z</time></trkpt><trkpt lat="44.070993" lon="8.1817478"><ele>35.0</ele><time>2026-04-21T09:46:59.943Z</time></trkpt><trkpt lat="44.0711634" lon="8.1819864"><ele>35.0</ele><time>2026-04-21T09:47:00.944Z</time></trkpt><trkpt lat="44.0713382" lon="8.1822305"><ele>35.0</ele><time>2026-04-21T09:47:01.945Z</time></trkpt><trkpt lat="44.07152" lon="8.1824747"><ele>35.0</ele><time>2026-04-21T09:47:02.954Z</time></trkpt><trkpt lat="44.0717061" lon="8.1827202"><ele>34.0</ele><time>2026-04-21T09:47:03.938Z</time></trkpt><trkpt lat="44.0718947" lon="8.1829674"><ele>33.0</ele><time>2026-04-21T09:47:04.953Z</time></trkpt><trkpt lat="44.0720829" lon="8.1832206"><ele>32.5</ele><time>2026-04-21T09:47:05.951Z</time></trkpt><trkpt lat="44.0722718" lon="8.183476"><ele>32.0</ele><time>2026-04-21T09:47:06.943Z</time></trkpt><trkpt lat="44.0724619" lon="8.1837329"><ele>32.0</ele><time>2026-04-21T09:47:07.949Z</time></trkpt><trkpt lat="44.0726523" lon="8.1839897"><ele>32.0</ele><time>2026-04-21T09:47:08.947Z</time></trkpt><trkpt lat="44.0728436" lon="8.1842451"><ele>30.5</ele><time>2026-04-21T09:47:09.95Z</time></trkpt><trkpt lat="44.0730347" lon="8.1845061"><ele>29.0</ele><time>2026-04-21T09:47:10.939Z</time></trkpt><trkpt lat="44.0732289" lon="8.1847723"><ele>28.5</ele><time>2026-04-21T09:47:11.955Z</time></trkpt><trkpt lat="44.0734292" lon="8.1850457"><ele>28.0</ele><time>2026-04-21T09:47:12.947Z</time></trkpt><trkpt lat="44.0736346" lon="8.1853271"><ele>26.0</ele><time>2026-04-21T09:47:13.937Z</time></trkpt><trkpt lat="44.0740615" lon="8.1859113"><ele>26.5</ele><time>2026-04-21T09:47:15.944Z</time></trkpt><trkpt lat="44.0742819" lon="8.1862126"><ele>27.0</ele><time>2026-04-21T09:47:16.957Z</time></trkpt><trkpt lat="44.074504" lon="8.1865154"><ele>27.5</ele><time>2026-04-21T09:47:17.943Z</time></trkpt><trkpt lat="44.074729" lon="8.1868198"><ele>28.0</ele><time>2026-04-21T09:47:18.953Z</time></trkpt><trkpt lat="44.0749508" lon="8.1871265"><ele>28.0</ele><time>2026-04-21T09:47:19.952Z</time></trkpt><trkpt lat="44.0751681" lon="8.1874315"><ele>28.0</ele><time>2026-04-21T09:47:20.95Z</time></trkpt><trkpt lat="44.075384" lon="8.1877297"><ele>28.0</ele><time>2026-04-21T09:47:21.952Z</time></trkpt><trkpt lat="44.0755993" lon="8.1880237"><ele>28.0</ele><time>2026-04-21T09:47:22.94Z</time></trkpt><trkpt lat="44.0758144" lon="8.1883164"><ele>29.0</ele><time>2026-04-21T09:47:23.943Z</time></trkpt><trkpt lat="44.0760248" lon="8.1886138"><ele>30.0</ele><time>2026-04-21T09:47:24.951Z</time></trkpt><trkpt lat="44.0762304" lon="8.1889122"><ele>30.5</ele><time>2026-04-21T09:47:25.955Z</time></trkpt><trkpt lat="44.076435" lon="8.1892041"><ele>31.0</ele><time>2026-04-21T09:47:26.941Z</time></trkpt><trkpt lat="44.0766378" lon="8.1894929"><ele>32.5</ele><time>2026-04-21T09:47:27.942Z</time></trkpt><trkpt lat="44.0768374" lon="8.1897815"><ele>34.0</ele><time>2026-04-21T09:47:28.954Z</time></trkpt><trkpt lat="44.0770353" lon="8.1900711"><ele>35.0</ele><time>2026-04-21T09:47:29.934Z</time></trkpt><trkpt lat="44.07723" lon="8.1903635"><ele>36.0</ele><time>2026-04-21T09:47:30.953Z</time></trkpt><trkpt lat="44.0774219" lon="8.190656"><ele>36.5</ele><time>2026-04-21T09:47:31.94Z</time></trkpt><trkpt lat="44.0776131" lon="8.1909469"><ele>37.0</ele><time>2026-04-21T09:47:32.942Z</time></trkpt><trkpt lat="44.0778049" lon="8.1912329"><ele>37.0</ele><time>2026-04-21T09:47:33.947Z</time></trkpt><trkpt lat="44.0779945" lon="8.1915143"><ele>37.0</ele><time>2026-04-21T09:47:34.942Z</time></trkpt><trkpt lat="44.0783711" lon="8.1920631"><ele>37.0</ele><time>2026-04-21T09:47:36.948Z</time></trkpt><trkpt lat="44.0785575" lon="8.1923337"><ele>37.0</ele><time>2026-04-21T09:47:37.95Z</time></trkpt><trkpt lat="44.0787412" lon="8.1926022"><ele>36.5</ele><time>2026-04-21T09:47:38.939Z</time></trkpt><trkpt lat="44.0789242" lon="8.1928681"><ele>36.0</ele><time>2026-04-21T09:47:39.94Z</time></trkpt><trkpt lat="44.0791027" lon="8.1931263"><ele>35.5</ele><time>2026-04-21T09:47:40.948Z</time></trkpt><trkpt lat="44.0792711" lon="8.1933776"><ele>35.0</ele><time>2026-04-21T09:47:41.929Z</time></trkpt><trkpt lat="44.0794316" lon="8.1936202"><ele>35.0</ele><time>2026-04-21T09:47:42.945Z</time></trkpt><trkpt lat="44.0795907" lon="8.1938549"><ele>35.0</ele><time>2026-04-21T09:47:43.941Z</time></trkpt><trkpt lat="44.079754" lon="8.1940887"><ele>34.0</ele><time>2026-04-21T09:47:44.956Z</time></trkpt><trkpt lat="44.0799188" lon="8.1943264"><ele>33.0</ele><time>2026-04-21T09:47:45.944Z</time></trkpt><trkpt lat="44.0800852" lon="8.1945686"><ele>33.0</ele><time>2026-04-21T09:47:46.95Z</time></trkpt><trkpt lat="44.0802486" lon="8.1948134"><ele>33.0</ele><time>2026-04-21T09:47:47.939Z</time></trkpt><trkpt lat="44.0804075" lon="8.1950559"><ele>30.5</ele><time>2026-04-21T09:47:48.947Z</time></trkpt><trkpt lat="44.0805638" lon="8.1952954"><ele>28.0</ele><time>2026-04-21T09:47:49.95Z</time></trkpt><trkpt lat="44.08072" lon="8.1955328"><ele>30.5</ele><time>2026-04-21T09:47:50.942Z</time></trkpt><trkpt lat="44.0808793" lon="8.1957675"><ele>33.0</ele><time>2026-04-21T09:47:51.94Z</time></trkpt><trkpt lat="44.0810391" lon="8.1959973"><ele>33.0</ele><time>2026-04-21T09:47:52.945Z</time></trkpt><trkpt lat="44.0811998" lon="8.1962268"><ele>33.0</ele><time>2026-04-21T09:47:53.944Z</time></trkpt><trkpt lat="44.0813621" lon="8.1964572"><ele>33.5</ele><time>2026-04-21T09:47:54.95Z</time></trkpt><trkpt lat="44.081525" lon="8.1966903"><ele>34.0</ele><time>2026-04-21T09:47:55.942Z</time></trkpt><trkpt lat="44.081848" lon="8.1971654"><ele>32.0</ele><time>2026-04-21T09:47:57.951Z</time></trkpt><trkpt lat="44.0820089" lon="8.1974024"><ele>30.0</ele><time>2026-04-21T09:47:58.942Z</time></trkpt><trkpt lat="44.0821705" lon="8.1976384"><ele>30.0</ele><time>2026-04-21T09:47:59.942Z</time></trkpt><trkpt lat="44.082333" lon="8.1978728"><ele>30.0</ele><time>2026-04-21T09:48:00.935Z</time></trkpt><trkpt lat="44.0824943" lon="8.1981065"><ele>34.5</ele><time>2026-04-21T09:48:01.943Z</time></trkpt><trkpt lat="44.0826531" lon="8.1983411"><ele>39.0</ele><time>2026-04-21T09:48:02.955Z</time></trkpt><trkpt lat="44.0828085" lon="8.1985774"><ele>39.0</ele><time>2026-04-21T09:48:03.94Z</time></trkpt><trkpt lat="44.0829642" lon="8.1988121"><ele>39.0</ele><time>2026-04-21T09:48:04.949Z</time></trkpt><trkpt lat="44.0831209" lon="8.1990455"><ele>41.5</ele><time>2026-04-21T09:48:05.936Z</time></trkpt><trkpt lat="44.0832789" lon="8.1992761"><ele>44.0</ele><time>2026-04-21T09:48:06.942Z</time></trkpt><trkpt lat="44.0834364" lon="8.1995057"><ele>44.0</ele><time>2026-04-21T09:48:07.941Z</time></trkpt><trkpt lat="44.0835915" lon="8.1997357"><ele>44.0</ele><time>2026-04-21T09:48:08.936Z</time></trkpt><trkpt lat="44.0837442" lon="8.1999661"><ele>44.0</ele><time>2026-04-21T09:48:09.948Z</time></trkpt><trkpt lat="44.0838931" lon="8.200188"><ele>44.0</ele><time>2026-04-21T09:48:10.936Z</time></trkpt><trkpt lat="44.0840382" lon="8.2004002"><ele>44.0</ele><time>2026-04-21T09:48:11.957Z</time></trkpt><trkpt lat="44.0841818" lon="8.2006098"><ele>44.33333333333333</ele><time>2026-04-21T09:48:12.946Z</time></trkpt><trkpt lat="44.0843249" lon="8.2008157"><ele>44.666666666666664</ele><time>2026-04-21T09:48:13.955Z</time></trkpt><trkpt lat="44.0844679" lon="8.2010217"><ele>45.0</ele><time>2026-04-21T09:48:14.933Z</time></trkpt><trkpt lat="44.0846089" lon="8.2012289"><ele>45.0</ele><time>2026-04-21T09:48:15.941Z</time></trkpt><trkpt lat="44.0847503" lon="8.2014369"><ele>45.0</ele><time>2026-04-21T09:48:16.941Z</time></trkpt><trkpt lat="44.0850331" lon="8.2018504"><ele>47.66666666666667</ele><time>2026-04-21T09:48:18.954Z</time></trkpt><trkpt lat="44.0851739" lon="8.2020591"><ele>50.333333333333336</ele><time>2026-04-21T09:48:19.941Z</time></trkpt><trkpt lat="44.085315" lon="8.2022684"><ele>53.0</ele><time>2026-04-21T09:48:20.937Z</time></trkpt><trkpt lat="44.0854572" lon="8.2024769"><ele>54.333333333333336</ele><time>2026-04-21T09:48:21.948Z</time></trkpt><trkpt lat="44.085601" lon="8.2026808"><ele>55.66666666666667</ele><time>2026-04-21T09:48:22.943Z</time></trkpt><trkpt lat="44.085746" lon="8.2028829"><ele>57.0</ele><time>2026-04-21T09:48:23.95Z</time></trkpt><trkpt lat="44.0858892" lon="8.2030845"><ele>56.66666666666667</ele><time>2026-04-21T09:48:24.948Z</time></trkpt><trkpt lat="44.0860318" lon="8.2032845"><ele>56.333333333333336</ele><time>2026-04-21T09:48:25.931Z</time></trkpt><trkpt lat="44.0861726" lon="8.2034861"><ele>56.0</ele><time>2026-04-21T09:48:26.941Z</time></trkpt><trkpt lat="44.0863096" lon="8.2036882"><ele>56.0</ele><time>2026-04-21T09:48:27.938Z</time></trkpt><trkpt lat="44.0864443" lon="8.2038871"><ele>56.0</ele><time>2026-04-21T09:48:28.955Z</time></trkpt><trkpt lat="44.0865764" lon="8.2040853"><ele>56.0</ele><time>2026-04-21T09:48:29.948Z</time></trkpt><trkpt lat="44.0867064" lon="8.2042811"><ele>57.333333333333336</ele><time>2026-04-21T09:48:30.943Z</time></trkpt><trkpt lat="44.086837" lon="8.2044719"><ele>58.66666666666667</ele><time>2026-04-21T09:48:31.942Z</time></trkpt><trkpt lat="44.0869656" lon="8.2046622"><ele>60.0</ele><time>2026-04-21T09:48:32.943Z</time></trkpt><trkpt lat="44.0870908" lon="8.2048534"><ele>60.0</ele><time>2026-04-21T09:48:33.937Z</time></trkpt><trkpt lat="44.0872083" lon="8.2050474"><ele>60.0</ele><time>2026-04-21T09:48:34.942Z</time></trkpt><trkpt lat="44.0873226" lon="8.2052424"><ele>60.0</ele><time>2026-04-21T09:48:35.943Z</time></trkpt><trkpt lat="44.087435" lon="8.2054276"><ele>62.0</ele><time>2026-04-21T09:48:36.943Z</time></trkpt><trkpt lat="44.0875454" lon="8.2055927"><ele>64.0</ele><time>2026-04-21T09:48:37.95Z</time></trkpt><trkpt lat="44.0877507" lon="8.2058785"><ele>64.2</ele><time>2026-04-21T09:48:39.953Z</time></trkpt><trkpt lat="44.0878387" lon="8.206"><ele>64.4</ele><time>2026-04-21T09:48:40.943Z</time></trkpt><trkpt lat="44.0879104" lon="8.2061145"><ele>64.6</ele><time>2026-04-21T09:48:41.955Z</time></trkpt><trkpt lat="44.0879685" lon="8.2062276"><ele>64.8</ele><time>2026-04-21T09:48:42.944Z</time></trkpt><trkpt lat="44.0880198" lon="8.2063386"><ele>65.0</ele><time>2026-04-21T09:48:43.94Z</time></trkpt><trkpt lat="44.0880668" lon="8.2064352"><ele>65.0</ele><time>2026-04-21T09:48:44.945Z</time></trkpt><trkpt lat="44.0881114" lon="8.2065201"><ele>65.0</ele><time>2026-04-21T09:48:45.943Z</time></trkpt><trkpt lat="44.0881593" lon="8.2065851"><ele>65.0</ele><time>2026-04-21T09:48:46.957Z</time></trkpt><trkpt lat="44.0882087" lon="8.2066459"><ele>65.0</ele><time>2026-04-21T09:48:47.94Z</time></trkpt><trkpt lat="44.0882574" lon="8.2067074"><ele>65.0</ele><time>2026-04-21T09:48:48.941Z</time></trkpt><trkpt lat="44.0883399" lon="8.2068317"><ele>65.0</ele><time>2026-04-21T09:48:50.935Z</time></trkpt><trkpt lat="44.0884079" lon="8.2069629"><ele>65.75</ele><time>2026-04-21T09:48:52.94Z</time></trkpt><trkpt lat="44.088434" lon="8.2071149"><ele>66.5</ele><time>2026-04-21T09:48:54.943Z</time></trkpt><trkpt lat="44.0884448" lon="8.2072563"><ele>67.25</ele><time>2026-04-21T09:48:56.93Z</time></trkpt><trkpt lat="44.0884675" lon="8.2073412"><ele>68.0</ele><time>2026-04-21T09:48:58.944Z</time></trkpt><trkpt lat="44.0886826" lon="8.2074002"><ele>68.0</ele><time>2026-04-21T10:04:24.935Z</time></trkpt><trkpt lat="44.0887623" lon="8.2074809"><ele>68.0</ele><time>2026-04-21T10:04:25.938Z</time></trkpt><trkpt lat="44.0888595" lon="8.2075595"><ele>68.0</ele><time>2026-04-21T10:04:26.939Z</time></trkpt><trkpt lat="44.0889704" lon="8.2076384"><ele>68.0</ele><time>2026-04-21T10:04:27.934Z</time></trkpt><trkpt lat="44.0890687" lon="8.2077125"><ele>68.0</ele><time>2026-04-21T10:04:28.936Z</time></trkpt><trkpt lat="44.0891725" lon="8.2077979"><ele>68.25</ele><time>2026-04-21T10:04:29.933Z</time></trkpt><trkpt lat="44.0892747" lon="8.2079048"><ele>68.5</ele><time>2026-04-21T10:04:30.941Z</time></trkpt><trkpt lat="44.0893713" lon="8.20803"><ele>68.75</ele><time>2026-04-21T10:04:31.941Z</time></trkpt><trkpt lat="44.0894668" lon="8.2081628"><ele>69.0</ele><time>2026-04-21T10:04:32.93Z</time></trkpt><trkpt lat="44.089569" lon="8.2083003"><ele>69.0</ele><time>2026-04-21T10:04:33.94Z</time></trkpt><trkpt lat="44.0896808" lon="8.2084443"><ele>69.0</ele><time>2026-04-21T10:04:34.94Z</time></trkpt><trkpt lat="44.0898007" lon="8.2086"><ele>69.0</ele><time>2026-04-21T10:04:35.932Z</time></trkpt><trkpt lat="44.0899211" lon="8.208758"><ele>70.0</ele><time>2026-04-21T10:04:36.939Z</time></trkpt><trkpt lat="44.090043" lon="8.2089249"><ele>71.0</ele><time>2026-04-21T10:04:37.936Z</time></trkpt><trkpt lat="44.0901665" lon="8.2091004"><ele>72.0</ele><time>2026-04-21T10:04:38.939Z</time></trkpt><trkpt lat="44.0902905" lon="8.2092839"><ele>72.0</ele><time>2026-04-21T10:04:39.938Z</time></trkpt><trkpt lat="44.0904199" lon="8.2094692"><ele>72.0</ele><time>2026-04-21T10:04:40.936Z</time></trkpt><trkpt lat="44.0905566" lon="8.2096587"><ele>72.0</ele><time>2026-04-21T10:04:41.94Z</time></trkpt><trkpt lat="44.0906975" lon="8.2098521"><ele>72.5</ele><time>2026-04-21T10:04:42.943Z</time></trkpt><trkpt lat="44.0909822" lon="8.2102522"><ele>73.0</ele><time>2026-04-21T10:04:44.937Z</time></trkpt><trkpt lat="44.0911301" lon="8.2104531"><ele>72.0</ele><time>2026-04-21T10:04:45.939Z</time></trkpt><trkpt lat="44.0912813" lon="8.2106578"><ele>71.0</ele><time>2026-04-21T10:04:46.931Z</time></trkpt><trkpt lat="44.0914325" lon="8.2108635"><ele>70.0</ele><time>2026-04-21T10:04:47.933Z</time></trkpt><trkpt lat="44.0915824" lon="8.2110739"><ele>69.66666666666666</ele><time>2026-04-21T10:04:48.941Z</time></trkpt><trkpt lat="44.0917362" lon="8.2112897"><ele>69.33333333333333</ele><time>2026-04-21T10:04:49.945Z</time></trkpt><trkpt lat="44.0918913" lon="8.2115088"><ele>69.0</ele><time>2026-04-21T10:04:50.936Z</time></trkpt><trkpt lat="44.092048" lon="8.2117264"><ele>68.0</ele><time>2026-04-21T10:04:51.948Z</time></trkpt><trkpt lat="44.0922055" lon="8.2119466"><ele>67.0</ele><time>2026-04-21T10:04:52.947Z</time></trkpt><trkpt lat="44.0923662" lon="8.2121666"><ele>66.0</ele><time>2026-04-21T10:04:53.946Z</time></trkpt><trkpt lat="44.0925285" lon="8.212386"><ele>65.5</ele><time>2026-04-21T10:04:54.945Z</time></trkpt><trkpt lat="44.0926898" lon="8.212609"><ele>65.0</ele><time>2026-04-21T10:04:55.943Z</time></trkpt><trkpt lat="44.0928503" lon="8.2128341"><ele>65.0</ele><time>2026-04-21T10:04:56.944Z</time></trkpt><trkpt lat="44.0930118" lon="8.213061"><ele>65.0</ele><time>2026-04-21T10:04:57.945Z</time></trkpt><trkpt lat="44.0931748" lon="8.2132865"><ele>66.0</ele><time>2026-04-21T10:04:58.946Z</time></trkpt><trkpt lat="44.0933388" lon="8.2135137"><ele>67.0</ele><time>2026-04-21T10:04:59.945Z</time></trkpt><trkpt lat="44.0935016" lon="8.2137407"><ele>67.0</ele><time>2026-04-21T10:05:00.944Z</time></trkpt><trkpt lat="44.0936643" lon="8.2139682"><ele>67.0</ele><time>2026-04-21T10:05:01.943Z</time></trkpt><trkpt lat="44.0938289" lon="8.2141932"><ele>66.0</ele><time>2026-04-21T10:05:02.947Z</time></trkpt><trkpt lat="44.093996" lon="8.2144173"><ele>65.0</ele><time>2026-04-21T10:05:03.947Z</time></trkpt><trkpt lat="44.094327" lon="8.2148735"><ele>65.0</ele><time>2026-04-21T10:05:05.945Z</time></trkpt><trkpt lat="44.0944919" lon="8.2151058"><ele>65.0</ele><time>2026-04-21T10:05:06.945Z</time></trkpt><trkpt lat="44.0946547" lon="8.2153372"><ele>65.0</ele><time>2026-04-21T10:05:07.943Z</time></trkpt><trkpt lat="44.0948152" lon="8.215566"><ele>65.0</ele><time>2026-04-21T10:05:08.942Z</time></trkpt><trkpt lat="44.0949738" lon="8.2157937"><ele>63.333333333333336</ele><time>2026-04-21T10:05:09.945Z</time></trkpt><trkpt lat="44.0951304" lon="8.216017"><ele>61.66666666666667</ele><time>2026-04-21T10:05:10.946Z</time></trkpt><trkpt lat="44.0952871" lon="8.2162409"><ele>60.0</ele><time>2026-04-21T10:05:11.944Z</time></trkpt><trkpt lat="44.0954419" lon="8.2164631"><ele>59.33333333333333</ele><time>2026-04-21T10:05:12.946Z</time></trkpt><trkpt lat="44.0955973" lon="8.2166787"><ele>58.666666666666664</ele><time>2026-04-21T10:05:13.946Z</time></trkpt><trkpt lat="44.0957544" lon="8.2168903"><ele>58.0</ele><time>2026-04-21T10:05:14.954Z</time></trkpt><trkpt lat="44.0959092" lon="8.2170996"><ele>57.666666666666664</ele><time>2026-04-21T10:05:15.945Z</time></trkpt><trkpt lat="44.0960597" lon="8.2173106"><ele>57.33333333333333</ele><time>2026-04-21T10:05:16.941Z</time></trkpt><trkpt lat="44.0962075" lon="8.21752"><ele>57.0</ele><time>2026-04-21T10:05:17.946Z</time></trkpt><trkpt lat="44.0963537" lon="8.2177259"><ele>57.0</ele><time>2026-04-21T10:05:18.946Z</time></trkpt><trkpt lat="44.0964998" lon="8.2179301"><ele>57.0</ele><time>2026-04-21T10:05:19.936Z</time></trkpt><trkpt lat="44.0966452" lon="8.2181291"><ele>57.0</ele><time>2026-04-21T10:05:20.946Z</time></trkpt><trkpt lat="44.0967869" lon="8.2183246"><ele>55.0</ele><time>2026-04-21T10:05:21.947Z</time></trkpt><trkpt lat="44.0969256" lon="8.2185199"><ele>53.0</ele><time>2026-04-21T10:05:22.946Z</time></trkpt><trkpt lat="44.0970607" lon="8.2187139"><ele>51.0</ele><time>2026-04-21T10:05:23.945Z</time></trkpt><trkpt lat="44.0971942" lon="8.2189052"><ele>53.5</ele><time>2026-04-21T10:05:24.945Z</time></trkpt><trkpt lat="44.0974616" lon="8.2192797"><ele>56.0</ele><time>2026-04-21T10:05:26.944Z</time></trkpt><trkpt lat="44.097593" lon="8.2194634"><ele>56.0</ele><time>2026-04-21T10:05:27.949Z</time></trkpt><trkpt lat="44.0977238" lon="8.2196451"><ele>56.0</ele><time>2026-04-21T10:05:28.944Z</time></trkpt><trkpt lat="44.0978539" lon="8.2198271"><ele>56.0</ele><time>2026-04-21T10:05:29.945Z</time></trkpt><trkpt lat="44.0979829" lon="8.2200072"><ele>55.66666666666667</ele><time>2026-04-21T10:05:30.945Z</time></trkpt><trkpt lat="44.0981108" lon="8.2201909"><ele>55.33333333333333</ele><time>2026-04-21T10:05:31.951Z</time></trkpt><trkpt lat="44.098238" lon="8.2203762"><ele>55.0</ele><time>2026-04-21T10:05:32.949Z</time></trkpt><trkpt lat="44.098364" lon="8.2205649"><ele>60.33333333333333</ele><time>2026-04-21T10:05:33.943Z</time></trkpt><trkpt lat="44.0984884" lon="8.2207566"><ele>65.66666666666667</ele><time>2026-04-21T10:05:34.94Z</time></trkpt><trkpt lat="44.0986115" lon="8.2209499"><ele>71.0</ele><time>2026-04-21T10:05:35.945Z</time></trkpt><trkpt lat="44.0987307" lon="8.2211479"><ele>71.0</ele><time>2026-04-21T10:05:36.942Z</time></trkpt><trkpt lat="44.0988505" lon="8.2213457"><ele>71.0</ele><time>2026-04-21T10:05:37.934Z</time></trkpt><trkpt lat="44.0989681" lon="8.2215483"><ele>71.0</ele><time>2026-04-21T10:05:38.945Z</time></trkpt><trkpt lat="44.0990838" lon="8.2217556"><ele>71.66666666666667</ele><time>2026-04-21T10:05:39.942Z</time></trkpt><trkpt lat="44.0991992" lon="8.2219694"><ele>72.33333333333333</ele><time>2026-04-21T10:05:40.943Z</time></trkpt><trkpt lat="44.0993142" lon="8.2221849"><ele>73.0</ele><time>2026-04-21T10:05:41.937Z</time></trkpt><trkpt lat="44.0994293" lon="8.2224036"><ele>73.0</ele><time>2026-04-21T10:05:42.947Z</time></trkpt><trkpt lat="44.0995424" lon="8.2226256"><ele>73.0</ele><time>2026-04-21T10:05:43.944Z</time></trkpt><trkpt lat="44.0996523" lon="8.2228531"><ele>73.0</ele><time>2026-04-21T10:05:44.937Z</time></trkpt><trkpt lat="44.0997597" lon="8.2230852"><ele>76.5</ele><time>2026-04-21T10:05:45.944Z</time></trkpt><trkpt lat="44.0999722" lon="8.2235598"><ele>80.0</ele><time>2026-04-21T10:05:47.944Z</time></trkpt><trkpt lat="44.1000772" lon="8.2238008"><ele>77.0</ele><time>2026-04-21T10:05:48.943Z</time></trkpt><trkpt lat="44.1001804" lon="8.2240427"><ele>74.0</ele><time>2026-04-21T10:05:49.934Z</time></trkpt><trkpt lat="44.1002822" lon="8.2242897"><ele>71.0</ele><time>2026-04-21T10:05:50.951Z</time></trkpt><trkpt lat="44.1003816" lon="8.2245414"><ele>71.0</ele><time>2026-04-21T10:05:51.947Z</time></trkpt><trkpt lat="44.1004787" lon="8.2247963"><ele>71.0</ele><time>2026-04-21T10:05:52.946Z</time></trkpt><trkpt lat="44.1005729" lon="8.2250556"><ele>71.0</ele><time>2026-04-21T10:05:53.93Z</time></trkpt><trkpt lat="44.1006649" lon="8.2253174"><ele>71.66666666666667</ele><time>2026-04-21T10:05:54.936Z</time></trkpt><trkpt lat="44.1007605" lon="8.2255784"><ele>72.33333333333333</ele><time>2026-04-21T10:05:55.947Z</time></trkpt><trkpt lat="44.1008613" lon="8.2258368"><ele>73.0</ele><time>2026-04-21T10:05:56.94Z</time></trkpt><trkpt lat="44.1009649" lon="8.2260945"><ele>73.0</ele><time>2026-04-21T10:05:57.956Z</time></trkpt><trkpt lat="44.1010695" lon="8.2263519"><ele>73.0</ele><time>2026-04-21T10:05:58.946Z</time></trkpt><trkpt lat="44.101174" lon="8.2266106"><ele>73.0</ele><time>2026-04-21T10:05:59.944Z</time></trkpt><trkpt lat="44.1012822" lon="8.2268674"><ele>72.0</ele><time>2026-04-21T10:06:00.945Z</time></trkpt><trkpt lat="44.1013997" lon="8.2271159"><ele>71.0</ele><time>2026-04-21T10:06:01.945Z</time></trkpt><trkpt lat="44.101525" lon="8.2273575"><ele>70.0</ele><time>2026-04-21T10:06:02.959Z</time></trkpt><trkpt lat="44.1016522" lon="8.2275979"><ele>73.33333333333333</ele><time>2026-04-21T10:06:03.942Z</time></trkpt><trkpt lat="44.1017819" lon="8.2278379"><ele>76.66666666666667</ele><time>2026-04-21T10:06:04.944Z</time></trkpt><trkpt lat="44.1019164" lon="8.2280762"><ele>80.0</ele><time>2026-04-21T10:06:05.937Z</time></trkpt><trkpt lat="44.1020556" lon="8.2283112"><ele>80.0</ele><time>2026-04-21T10:06:06.939Z</time></trkpt><trkpt lat="44.1023594" lon="8.2287617"><ele>80.0</ele><time>2026-04-21T10:06:08.951Z</time></trkpt><trkpt lat="44.1025199" lon="8.2289769"><ele>83.0</ele><time>2026-04-21T10:06:09.947Z</time></trkpt><trkpt lat="44.1026846" lon="8.2291859"><ele>86.0</ele><time>2026-04-21T10:06:10.938Z</time></trkpt><trkpt lat="44.1028544" lon="8.2293898"><ele>89.0</ele><time>2026-04-21T10:06:11.938Z</time></trkpt><trkpt lat="44.1030276" lon="8.2295892"><ele>89.0</ele><time>2026-04-21T10:06:12.941Z</time></trkpt><trkpt lat="44.1032036" lon="8.2297859"><ele>89.0</ele><time>2026-04-21T10:06:13.932Z</time></trkpt><trkpt lat="44.1105155" lon="8.2315036"><ele>70.0</ele><time>2026-04-21T10:06:42.93Z</time></trkpt><trkpt lat="44.1110091" lon="8.2312933"><ele>70.0</ele><time>2026-04-21T10:06:44.938Z</time></trkpt><trkpt lat="44.1112332" lon="8.2310922"><ele>70.0</ele><time>2026-04-21T10:06:45.938Z</time></trkpt><trkpt lat="44.1114608" lon="8.2309145"><ele>64.5</ele><time>2026-04-21T10:06:46.952Z</time></trkpt><trkpt lat="44.111689" lon="8.2307566"><ele>59.0</ele><time>2026-04-21T10:06:47.943Z</time></trkpt><trkpt lat="44.1119216" lon="8.2305853"><ele>59.0</ele><time>2026-04-21T10:06:48.944Z</time></trkpt><trkpt lat="44.1121537" lon="8.2304164"><ele>59.0</ele><time>2026-04-21T10:06:49.946Z</time></trkpt><trkpt lat="44.1123807" lon="8.2302429"><ele>60.0</ele><time>2026-04-21T10:06:50.941Z</time></trkpt><trkpt lat="44.1126063" lon="8.2300749"><ele>61.0</ele><time>2026-04-21T10:06:51.951Z</time></trkpt><trkpt lat="44.1128337" lon="8.2299141"><ele>57.0</ele><time>2026-04-21T10:06:52.928Z</time></trkpt><trkpt lat="44.113065" lon="8.2297551"><ele>53.0</ele><time>2026-04-21T10:06:53.943Z</time></trkpt><trkpt lat="44.1133005" lon="8.2295968"><ele>53.0</ele><time>2026-04-21T10:06:54.952Z</time></trkpt><trkpt lat="44.1135357" lon="8.2294355"><ele>53.0</ele><time>2026-04-21T10:06:55.942Z</time></trkpt><trkpt lat="44.1137716" lon="8.2292702"><ele>53.0</ele><time>2026-04-21T10:06:56.951Z</time></trkpt><trkpt lat="44.1140068" lon="8.2291036"><ele>53.0</ele><time>2026-04-21T10:06:57.944Z</time></trkpt><trkpt lat="44.1142431" lon="8.2289349"><ele>54.5</ele><time>2026-04-21T10:06:58.956Z</time></trkpt><trkpt lat="44.1144795" lon="8.2287644"><ele>56.0</ele><time>2026-04-21T10:06:59.948Z</time></trkpt><trkpt lat="44.1147183" lon="8.2285938"><ele>52.0</ele><time>2026-04-21T10:07:00.943Z</time></trkpt><trkpt lat="44.1149586" lon="8.2284244"><ele>48.0</ele><time>2026-04-21T10:07:01.957Z</time></trkpt><trkpt lat="44.1151991" lon="8.2282564"><ele>49.0</ele><time>2026-04-21T10:07:02.942Z</time></trkpt><trkpt lat="44.1154396" lon="8.2280872"><ele>50.0</ele><time>2026-04-21T10:07:03.934Z</time></trkpt><trkpt lat="44.1158941" lon="8.2277456"><ele>50.0</ele><time>2026-04-21T10:07:05.944Z</time></trkpt><trkpt lat="44.116105" lon="8.2275848"><ele>50.0</ele><time>2026-04-21T10:07:06.945Z</time></trkpt><trkpt lat="44.1163057" lon="8.2274336"><ele>47.333333333333336</ele><time>2026-04-21T10:07:07.943Z</time></trkpt><trkpt lat="44.1165011" lon="8.2272884"><ele>44.66666666666667</ele><time>2026-04-21T10:07:08.931Z</time></trkpt><trkpt lat="44.1166964" lon="8.2271444"><ele>42.0</ele><time>2026-04-21T10:07:09.956Z</time></trkpt><trkpt lat="44.1168928" lon="8.2270004"><ele>42.0</ele><time>2026-04-21T10:07:10.942Z</time></trkpt><trkpt lat="44.1170876" lon="8.226859"><ele>42.0</ele><time>2026-04-21T10:07:11.944Z</time></trkpt><trkpt lat="44.117277" lon="8.226725"><ele>42.0</ele><time>2026-04-21T10:07:12.954Z</time></trkpt><trkpt lat="44.1174497" lon="8.2266015"><ele>40.0</ele><time>2026-04-21T10:07:13.944Z</time></trkpt><trkpt lat="44.1176047" lon="8.2264914"><ele>38.0</ele><time>2026-04-21T10:07:14.957Z</time></trkpt><trkpt lat="44.1177512" lon="8.2263933"><ele>36.0</ele><time>2026-04-21T10:07:15.944Z</time></trkpt><trkpt lat="44.1178954" lon="8.2263136"><ele>36.0</ele><time>2026-04-21T10:07:16.941Z</time></trkpt><trkpt lat="44.1180287" lon="8.2262303"><ele>36.0</ele><time>2026-04-21T10:07:17.957Z</time></trkpt><trkpt lat="44.1181591" lon="8.2261527"><ele>36.0</ele><time>2026-04-21T10:07:18.945Z</time></trkpt><trkpt lat="44.1182933" lon="8.2260764"><ele>36.0</ele><time>2026-04-21T10:07:19.944Z</time></trkpt><trkpt lat="44.118433" lon="8.2259965"><ele>32.25</ele><time>2026-04-21T10:07:20.944Z</time></trkpt><trkpt lat="44.1185695" lon="8.2259196"><ele>28.5</ele><time>2026-04-21T10:07:21.953Z</time></trkpt><trkpt lat="44.1187007" lon="8.2258508"><ele>24.75</ele><time>2026-04-21T10:07:22.946Z</time></trkpt><trkpt lat="44.1188261" lon="8.2257868"><ele>21.0</ele><time>2026-04-21T10:07:23.96Z</time></trkpt><trkpt lat="44.1189521" lon="8.2257258"><ele>21.333333333333332</ele><time>2026-04-21T10:07:24.936Z</time></trkpt><trkpt lat="44.1192182" lon="8.2256121"><ele>21.666666666666664</ele><time>2026-04-21T10:07:26.953Z</time></trkpt><trkpt lat="44.1193632" lon="8.2255517"><ele>22.0</ele><time>2026-04-21T10:07:27.943Z</time></trkpt><trkpt lat="44.1195181" lon="8.2254885"><ele>22.0</ele><time>2026-04-21T10:07:28.942Z</time></trkpt><trkpt lat="44.119681" lon="8.2254244"><ele>22.0</ele><time>2026-04-21T10:07:29.944Z</time></trkpt><trkpt lat="44.119849" lon="8.2253639"><ele>22.0</ele><time>2026-04-21T10:07:30.936Z</time></trkpt><trkpt lat="44.1200206" lon="8.2253077"><ele>21.666666666666664</ele><time>2026-04-21T10:07:31.943Z</time></trkpt><trkpt lat="44.120194" lon="8.2252595"><ele>21.333333333333332</ele><time>2026-04-21T10:07:32.941Z</time></trkpt><trkpt lat="44.1203719" lon="8.2252165"><ele>21.0</ele><time>2026-04-21T10:07:33.949Z</time></trkpt><trkpt lat="44.1205562" lon="8.2251756"><ele>21.0</ele><time>2026-04-21T10:07:34.944Z</time></trkpt><trkpt lat="44.120751" lon="8.2251394"><ele>21.0</ele><time>2026-04-21T10:07:35.951Z</time></trkpt><trkpt lat="44.1209549" lon="8.225106"><ele>21.0</ele><time>2026-04-21T10:07:36.941Z</time></trkpt><trkpt lat="44.1211663" lon="8.2250729"><ele>21.0</ele><time>2026-04-21T10:07:37.943Z</time></trkpt><trkpt lat="44.1213826" lon="8.2250448"><ele>21.0</ele><time>2026-04-21T10:07:38.946Z</time></trkpt><trkpt lat="44.1216056" lon="8.2250254"><ele>21.0</ele><time>2026-04-21T10:07:39.944Z</time></trkpt><trkpt lat="44.1218327" lon="8.2250155"><ele>21.5</ele><time>2026-04-21T10:07:40.956Z</time></trkpt><trkpt lat="44.1220661" lon="8.2250125"><ele>22.0</ele><time>2026-04-21T10:07:41.956Z</time></trkpt><trkpt lat="44.1223027" lon="8.2250194"><ele>23.5</ele><time>2026-04-21T10:07:42.944Z</time></trkpt><trkpt lat="44.1225375" lon="8.2250385"><ele>25.0</ele><time>2026-04-21T10:07:43.955Z</time></trkpt><trkpt lat="44.1227752" lon="8.225064"><ele>25.0</ele><time>2026-04-21T10:07:44.945Z</time></trkpt><trkpt lat="44.1230194" lon="8.2250972"><ele>25.0</ele><time>2026-04-21T10:07:45.944Z</time></trkpt><trkpt lat="44.1235" lon="8.2251941"><ele>28.0</ele><time>2026-04-21T10:07:47.949Z</time></trkpt><trkpt lat="44.1237438" lon="8.2252635"><ele>31.0</ele><time>2026-04-21T10:07:48.953Z</time></trkpt><trkpt lat="44.1239839" lon="8.2253386"><ele>34.5</ele><time>2026-04-21T10:07:49.963Z</time></trkpt><trkpt lat="44.124219" lon="8.2254126"><ele>38.0</ele><time>2026-04-21T10:07:50.949Z</time></trkpt><trkpt lat="44.1244556" lon="8.2254956"><ele>38.0</ele><time>2026-04-21T10:07:51.938Z</time></trkpt><trkpt lat="44.1246911" lon="8.2255898"><ele>38.0</ele><time>2026-04-21T10:07:52.944Z</time></trkpt><trkpt lat="44.1249247" lon="8.225691"><ele>37.0</ele><time>2026-04-21T10:07:53.94Z</time></trkpt><trkpt lat="44.1251564" lon="8.2257989"><ele>36.0</ele><time>2026-04-21T10:07:54.96Z</time></trkpt><trkpt lat="44.1253807" lon="8.2259119"><ele>36.0</ele><time>2026-04-21T10:07:55.95Z</time></trkpt><trkpt lat="44.125598" lon="8.2260306"><ele>36.0</ele><time>2026-04-21T10:07:56.942Z</time></trkpt><trkpt lat="44.1258096" lon="8.2261552"><ele>37.0</ele><time>2026-04-21T10:07:57.944Z</time></trkpt><trkpt lat="44.1260178" lon="8.226287"><ele>38.0</ele><time>2026-04-21T10:07:58.941Z</time></trkpt><trkpt lat="44.1262222" lon="8.2264264"><ele>44.0</ele><time>2026-04-21T10:07:59.951Z</time></trkpt><trkpt lat="44.1264243" lon="8.2265693"><ele>50.0</ele><time>2026-04-21T10:08:00.942Z</time></trkpt><trkpt lat="44.126624" lon="8.2267191"><ele>50.0</ele><time>2026-04-21T10:08:01.955Z</time></trkpt><trkpt lat="44.1268196" lon="8.2268773"><ele>50.0</ele><time>2026-04-21T10:08:02.943Z</time></trkpt><trkpt lat="44.1270117" lon="8.2270422"><ele>50.0</ele><time>2026-04-21T10:08:03.948Z</time></trkpt><trkpt lat="44.1272005" lon="8.2272157"><ele>50.0</ele><time>2026-04-21T10:08:04.937Z</time></trkpt><trkpt lat="44.1273897" lon="8.2274"><ele>55.5</ele><time>2026-04-21T10:08:05.942Z</time></trkpt><trkpt lat="44.1275736" lon="8.2275855"><ele>61.0</ele><time>2026-04-21T10:08:06.929Z</time></trkpt><trkpt lat="44.1279371" lon="8.2279566"><ele>64.66666666666666</ele><time>2026-04-21T10:08:08.942Z</time></trkpt><trkpt lat="44.1281134" lon="8.2281472"><ele>68.33333333333333</ele><time>2026-04-21T10:08:09.933Z</time></trkpt><trkpt lat="44.1282655" lon="8.2283563"><ele>72.0</ele><time>2026-04-21T10:08:10.939Z</time></trkpt><trkpt lat="44.1284279" lon="8.2285547"><ele>74.0</ele><time>2026-04-21T10:08:11.922Z</time></trkpt><trkpt lat="44.1285848" lon="8.228758"><ele>76.0</ele><time>2026-04-21T10:08:12.921Z</time></trkpt><trkpt lat="44.1287344" lon="8.2289657"><ele>78.0</ele><time>2026-04-21T10:08:13.928Z</time></trkpt><trkpt lat="44.1288823" lon="8.2291753"><ele>78.0</ele><time>2026-04-21T10:08:14.929Z</time></trkpt><trkpt lat="44.1290342" lon="8.2293958"><ele>78.0</ele><time>2026-04-21T10:08:15.93Z</time></trkpt><trkpt lat="44.129187" lon="8.2296262"><ele>78.0</ele><time>2026-04-21T10:08:16.924Z</time></trkpt><trkpt lat="44.1292994" lon="8.2298078"><ele>74.25</ele><time>2026-04-21T10:08:17.928Z</time></trkpt><trkpt lat="44.1293509" lon="8.2299109"><ele>70.5</ele><time>2026-04-21T10:08:18.945Z</time></trkpt><trkpt lat="44.1294458" lon="8.230077"><ele>66.75</ele><time>2026-04-21T10:08:19.929Z</time></trkpt><trkpt lat="44.1295605" lon="8.2302839"><ele>63.0</ele><time>2026-04-21T10:08:20.95Z</time></trkpt><trkpt lat="44.1296748" lon="8.2305058"><ele>59.66666666666667</ele><time>2026-04-21T10:08:21.94Z</time></trkpt><trkpt lat="44.1297833" lon="8.2307336"><ele>56.333333333333336</ele><time>2026-04-21T10:08:22.942Z</time></trkpt><trkpt lat="44.1298907" lon="8.2309688"><ele>53.0</ele><time>2026-04-21T10:08:23.942Z</time></trkpt><trkpt lat="44.1299991" lon="8.2312102"><ele>53.0</ele><time>2026-04-21T10:08:24.944Z</time></trkpt><trkpt lat="44.1301033" lon="8.2314668"><ele>53.0</ele><time>2026-04-21T10:08:25.962Z</time></trkpt><trkpt lat="44.1302032" lon="8.2317323"><ele>53.0</ele><time>2026-04-21T10:08:26.953Z</time></trkpt><trkpt lat="44.1303029" lon="8.2319993"><ele>58.5</ele><time>2026-04-21T10:08:27.934Z</time></trkpt><trkpt lat="44.130501" lon="8.2325397"><ele>64.0</ele><time>2026-04-21T10:08:29.941Z</time></trkpt><trkpt lat="44.1305981" lon="8.2327933"><ele>64.0</ele><time>2026-04-21T10:08:30.94Z</time></trkpt><trkpt lat="44.130696" lon="8.2330518"><ele>64.0</ele><time>2026-04-21T10:08:31.943Z</time></trkpt><trkpt lat="44.1307915" lon="8.2333069"><ele>64.0</ele><time>2026-04-21T10:08:32.941Z</time></trkpt><trkpt lat="44.1308876" lon="8.2335612"><ele>73.5</ele><time>2026-04-21T10:08:33.943Z</time></trkpt><trkpt lat="44.1309882" lon="8.2338143"><ele>83.0</ele><time>2026-04-21T10:08:34.928Z</time></trkpt><trkpt lat="44.1311217" lon="8.2341002"><ele>87.5</ele><time>2026-04-21T10:08:35.923Z</time></trkpt><trkpt lat="44.1312417" lon="8.2343787"><ele>92.0</ele><time>2026-04-21T10:08:36.93Z</time></trkpt><trkpt lat="44.1313615" lon="8.2346534"><ele>90.5</ele><time>2026-04-21T10:08:37.921Z</time></trkpt><trkpt lat="44.1314905" lon="8.2349479"><ele>89.0</ele><time>2026-04-21T10:08:38.928Z</time></trkpt><trkpt lat="44.1316201" lon="8.2352293"><ele>84.33333333333334</ele><time>2026-04-21T10:08:39.929Z</time></trkpt><trkpt lat="44.1317266" lon="8.2354442"><ele>79.66666666666667</ele><time>2026-04-21T10:08:40.932Z</time></trkpt><trkpt lat="44.1317993" lon="8.2355779"><ele>75.0</ele><time>2026-04-21T10:08:41.944Z</time></trkpt><trkpt lat="44.1318964" lon="8.2357641"><ele>70.33333333333333</ele><time>2026-04-21T10:08:42.945Z</time></trkpt><trkpt lat="44.1320009" lon="8.2359789"><ele>65.66666666666666</ele><time>2026-04-21T10:08:43.946Z</time></trkpt><trkpt lat="44.1321053" lon="8.2361955"><ele>61.0</ele><time>2026-04-21T10:08:44.939Z</time></trkpt><trkpt lat="44.1322149" lon="8.2364143"><ele>59.666666666666664</ele><time>2026-04-21T10:08:45.955Z</time></trkpt><trkpt lat="44.1323356" lon="8.2366409"><ele>58.33333333333333</ele><time>2026-04-21T10:08:46.952Z</time></trkpt><trkpt lat="44.1324659" lon="8.2368707"><ele>57.0</ele><time>2026-04-21T10:08:47.946Z</time></trkpt><trkpt lat="44.1326097" lon="8.2371052"><ele>56.0</ele><time>2026-04-21T10:08:48.946Z</time></trkpt><trkpt lat="44.1329332" lon="8.2376071"><ele>56.0</ele><time>2026-04-21T10:08:50.946Z</time></trkpt><trkpt lat="44.1331119" lon="8.2378714"><ele>56.0</ele><time>2026-04-21T10:08:51.957Z</time></trkpt><trkpt lat="44.1333001" lon="8.2381435"><ele>58.0</ele><time>2026-04-21T10:08:52.946Z</time></trkpt><trkpt lat="44.1334992" lon="8.2384186"><ele>60.0</ele><time>2026-04-21T10:08:53.961Z</time></trkpt><trkpt lat="44.1337093" lon="8.238697"><ele>59.5</ele><time>2026-04-21T10:08:54.963Z</time></trkpt><trkpt lat="44.1339301" lon="8.2389749"><ele>59.0</ele><time>2026-04-21T10:08:55.954Z</time></trkpt><trkpt lat="44.1341558" lon="8.239247"><ele>59.0</ele><time>2026-04-21T10:08:56.965Z</time></trkpt><trkpt lat="44.1343867" lon="8.2395144"><ele>59.0</ele><time>2026-04-21T10:08:57.945Z</time></trkpt><trkpt lat="44.1346205" lon="8.2397772"><ele>63.0</ele><time>2026-04-21T10:08:58.944Z</time></trkpt><trkpt lat="44.134857" lon="8.2400335"><ele>67.0</ele><time>2026-04-21T10:08:59.935Z</time></trkpt><trkpt lat="44.1350957" lon="8.2402838"><ele>71.5</ele><time>2026-04-21T10:09:00.934Z</time></trkpt><trkpt lat="44.1353368" lon="8.2405366"><ele>76.0</ele><time>2026-04-21T10:09:01.935Z</time></trkpt><trkpt lat="44.1355841" lon="8.2407953"><ele>77.5</ele><time>2026-04-21T10:09:02.935Z</time></trkpt><trkpt lat="44.1358636" lon="8.2410673"><ele>79.0</ele><time>2026-04-21T10:09:03.928Z</time></trkpt><trkpt lat="44.1361339" lon="8.2413055"><ele>76.5</ele><time>2026-04-21T10:09:04.927Z</time></trkpt><trkpt lat="44.1364071" lon="8.2415453"><ele>74.0</ele><time>2026-04-21T10:09:05.924Z</time></trkpt><trkpt lat="44.1366828" lon="8.2417881"><ele>72.5</ele><time>2026-04-21T10:09:06.927Z</time></trkpt><trkpt lat="44.1369618" lon="8.2420361"><ele>71.0</ele><time>2026-04-21T10:09:07.926Z</time></trkpt><trkpt lat="44.1372439" lon="8.2422874"><ele>61.0</ele><time>2026-04-21T10:09:08.935Z</time></trkpt><trkpt lat="44.1374341" lon="8.2424261"><ele>51.0</ele><time>2026-04-21T10:09:09.94Z</time></trkpt><trkpt lat="44.1377165" lon="8.2426499"><ele>51.0</ele><time>2026-04-21T10:09:11.943Z</time></trkpt><trkpt lat="44.1378987" lon="8.2427901"><ele>51.0</ele><time>2026-04-21T10:09:12.932Z</time></trkpt><trkpt lat="44.1381089" lon="8.2429537"><ele>51.0</ele><time>2026-04-21T10:09:13.939Z</time></trkpt><trkpt lat="44.1383233" lon="8.2431266"><ele>54.5</ele><time>2026-04-21T10:09:14.943Z</time></trkpt><trkpt lat="44.1385376" lon="8.2433083"><ele>58.0</ele><time>2026-04-21T10:09:15.95Z</time></trkpt><trkpt lat="44.1387491" lon="8.2434916"><ele>58.0</ele><time>2026-04-21T10:09:16.937Z</time></trkpt><trkpt lat="44.1389601" lon="8.2436715"><ele>58.0</ele><time>2026-04-21T10:09:17.942Z</time></trkpt><trkpt lat="44.1391781" lon="8.2438586"><ele>60.0</ele><time>2026-04-21T10:09:18.941Z</time></trkpt><trkpt lat="44.1393972" lon="8.2440479"><ele>62.0</ele><time>2026-04-21T10:09:19.944Z</time></trkpt><trkpt lat="44.1396175" lon="8.2442364"><ele>62.0</ele><time>2026-04-21T10:09:20.945Z</time></trkpt><trkpt lat="44.1398418" lon="8.2444306"><ele>62.0</ele><time>2026-04-21T10:09:21.94Z</time></trkpt><trkpt lat="44.1400653" lon="8.244625"><ele>65.0</ele><time>2026-04-21T10:09:22.944Z</time></trkpt><trkpt lat="44.140286" lon="8.244818"><ele>68.0</ele><time>2026-04-21T10:09:23.956Z</time></trkpt><trkpt lat="44.1405075" lon="8.2450091"><ele>69.5</ele><time>2026-04-21T10:09:24.938Z</time></trkpt><trkpt lat="44.1407287" lon="8.2451928"><ele>71.0</ele><time>2026-04-21T10:09:25.939Z</time></trkpt><trkpt lat="44.1409505" lon="8.2453771"><ele>71.0</ele><time>2026-04-21T10:09:26.93Z</time></trkpt><trkpt lat="44.1411701" lon="8.2455639"><ele>71.0</ele><time>2026-04-21T10:09:27.954Z</time></trkpt><trkpt lat="44.1413907" lon="8.2457493"><ele>76.0</ele><time>2026-04-21T10:09:28.937Z</time></trkpt><trkpt lat="44.1416164" lon="8.2459335"><ele>81.0</ele><time>2026-04-21T10:09:29.942Z</time></trkpt><trkpt lat="44.1418415" lon="8.2461193"><ele>94.0</ele><time>2026-04-21T10:09:30.942Z</time></trkpt><trkpt lat="44.1422854" lon="8.2464968"><ele>100.0</ele><time>2026-04-21T10:09:32.937Z</time></trkpt><trkpt lat="44.142502" lon="8.2466913"><ele>106.0</ele><time>2026-04-21T10:09:33.938Z</time></trkpt><trkpt lat="44.1427189" lon="8.2468775"><ele>106.0</ele><time>2026-04-21T10:09:34.929Z</time></trkpt><trkpt lat="44.1429334" lon="8.2470638"><ele>106.0</ele><time>2026-04-21T10:09:35.928Z</time></trkpt><trkpt lat="44.1431452" lon="8.2472556"><ele>106.5</ele><time>2026-04-21T10:09:36.939Z</time></trkpt><trkpt lat="44.1433201" lon="8.247478"><ele>107.0</ele><time>2026-04-21T10:09:37.923Z</time></trkpt><trkpt lat="44.1435191" lon="8.2476861"><ele>107.0</ele><time>2026-04-21T10:09:38.926Z</time></trkpt><trkpt lat="44.1437029" lon="8.2478821"><ele>107.0</ele><time>2026-04-21T10:09:39.935Z</time></trkpt><trkpt lat="44.1438972" lon="8.2480937"><ele>100.0</ele><time>2026-04-21T10:09:40.933Z</time></trkpt><trkpt lat="44.1441017" lon="8.2483205"><ele>93.0</ele><time>2026-04-21T10:09:41.937Z</time></trkpt><trkpt lat="44.1443073" lon="8.2485606"><ele>93.0</ele><time>2026-04-21T10:09:42.936Z</time></trkpt><trkpt lat="44.1445034" lon="8.2487959"><ele>93.0</ele><time>2026-04-21T10:09:43.942Z</time></trkpt><trkpt lat="44.1446982" lon="8.2490312"><ele>97.0</ele><time>2026-04-21T10:09:44.942Z</time></trkpt><trkpt lat="44.1448909" lon="8.2492676"><ele>101.0</ele><time>2026-04-21T10:09:45.951Z</time></trkpt><trkpt lat="44.1450791" lon="8.2495072"><ele>101.0</ele><time>2026-04-21T10:09:46.937Z</time></trkpt><trkpt lat="44.145265" lon="8.249748"><ele>101.0</ele><time>2026-04-21T10:09:47.933Z</time></trkpt><trkpt lat="44.1454474" lon="8.2499922"><ele>97.5</ele><time>2026-04-21T10:09:48.949Z</time></trkpt><trkpt lat="44.1456262" lon="8.2502397"><ele>94.0</ele><time>2026-04-21T10:09:49.944Z</time></trkpt><trkpt lat="44.1458034" lon="8.2504852"><ele>99.5</ele><time>2026-04-21T10:09:50.954Z</time></trkpt><trkpt lat="44.1459785" lon="8.2507329"><ele>105.0</ele><time>2026-04-21T10:09:51.937Z</time></trkpt><trkpt lat="44.146327" lon="8.251246"><ele>108.0</ele><time>2026-04-21T10:09:53.94Z</time></trkpt><trkpt lat="44.1465005" lon="8.2515062"><ele>111.0</ele><time>2026-04-21T10:09:54.942Z</time></trkpt><trkpt lat="44.1466719" lon="8.2517716"><ele>111.0</ele><time>2026-04-21T10:09:55.949Z</time></trkpt><trkpt lat="44.1468439" lon="8.252036"><ele>111.0</ele><time>2026-04-21T10:09:56.937Z</time></trkpt><trkpt lat="44.1470135" lon="8.2523043"><ele>106.0</ele><time>2026-04-21T10:09:57.956Z</time></trkpt><trkpt lat="44.1471823" lon="8.2525771"><ele>101.0</ele><time>2026-04-21T10:09:58.944Z</time></trkpt><trkpt lat="44.1473511" lon="8.2528505"><ele>105.0</ele><time>2026-04-21T10:09:59.95Z</time></trkpt><trkpt lat="44.1475217" lon="8.2531247"><ele>109.0</ele><time>2026-04-21T10:10:00.948Z</time></trkpt><trkpt lat="44.147692" lon="8.2534037"><ele>109.0</ele><time>2026-04-21T10:10:01.94Z</time></trkpt><trkpt lat="44.147864" lon="8.2536758"><ele>109.0</ele><time>2026-04-21T10:10:02.944Z</time></trkpt><trkpt lat="44.1480359" lon="8.2539519"><ele>108.5</ele><time>2026-04-21T10:10:03.947Z</time></trkpt><trkpt lat="44.1482067" lon="8.2542316"><ele>108.0</ele><time>2026-04-21T10:10:04.955Z</time></trkpt><trkpt lat="44.1483769" lon="8.2545109"><ele>116.0</ele><time>2026-04-21T10:10:05.94Z</time></trkpt><trkpt lat="44.1485494" lon="8.2547911"><ele>124.0</ele><time>2026-04-21T10:10:06.941Z</time></trkpt><trkpt lat="44.1487233" lon="8.2550728"><ele>124.0</ele><time>2026-04-21T10:10:07.937Z</time></trkpt><trkpt lat="44.1488965" lon="8.2553556"><ele>124.0</ele><time>2026-04-21T10:10:08.93Z</time></trkpt><trkpt lat="44.1490683" lon="8.2556303"><ele>135.5</ele><time>2026-04-21T10:10:09.94Z</time></trkpt><trkpt lat="44.149221" lon="8.2558475"><ele>147.0</ele><time>2026-04-21T10:10:10.922Z</time></trkpt><trkpt lat="44.1493773" lon="8.2561169"><ele>147.0</ele><time>2026-04-21T10:10:11.927Z</time></trkpt><trkpt lat="44.1495345" lon="8.2563837"><ele>147.0</ele><time>2026-04-21T10:10:12.926Z</time></trkpt><trkpt lat="44.1498419" lon="8.2569081"><ele>151.0</ele><time>2026-04-21T10:10:14.926Z</time></trkpt><trkpt lat="44.1499917" lon="8.2571638"><ele>155.0</ele><time>2026-04-21T10:10:15.928Z</time></trkpt><trkpt lat="44.1501419" lon="8.2574209"><ele>155.0</ele><time>2026-04-21T10:10:16.915Z</time></trkpt><trkpt lat="44.1502958" lon="8.2576875"><ele>155.0</ele><time>2026-04-21T10:10:17.921Z</time></trkpt><trkpt lat="44.1504921" lon="8.258025"><ele>139.0</ele><time>2026-04-21T10:10:18.935Z</time></trkpt><trkpt lat="44.150717" lon="8.2584115"><ele>123.0</ele><time>2026-04-21T10:10:19.937Z</time></trkpt><trkpt lat="44.1509109" lon="8.2587788"><ele>123.0</ele><time>2026-04-21T10:10:20.934Z</time></trkpt><trkpt lat="44.1511001" lon="8.2591522"><ele>123.0</ele><time>2026-04-21T10:10:21.946Z</time></trkpt><trkpt lat="44.1512831" lon="8.2595235"><ele>121.0</ele><time>2026-04-21T10:10:22.929Z</time></trkpt><trkpt lat="44.1514548" lon="8.2598727"><ele>119.0</ele><time>2026-04-21T10:10:23.943Z</time></trkpt><trkpt lat="44.151618" lon="8.2602075"><ele>116.5</ele><time>2026-04-21T10:10:24.943Z</time></trkpt><trkpt lat="44.1517779" lon="8.2605327"><ele>114.0</ele><time>2026-04-21T10:10:25.949Z</time></trkpt><trkpt lat="44.1519367" lon="8.2608546"><ele>112.0</ele><time>2026-04-21T10:10:26.942Z</time></trkpt><trkpt lat="44.1520962" lon="8.2611751"><ele>110.0</ele><time>2026-04-21T10:10:27.942Z</time></trkpt><trkpt lat="44.1522535" lon="8.2614983"><ele>115.0</ele><time>2026-04-21T10:10:28.935Z</time></trkpt><trkpt lat="44.1524069" lon="8.261818"><ele>120.0</ele><time>2026-04-21T10:10:29.936Z</time></trkpt><trkpt lat="44.1525584" lon="8.2621371"><ele>117.0</ele><time>2026-04-21T10:10:30.931Z</time></trkpt><trkpt lat="44.1527076" lon="8.2624524"><ele>114.0</ele><time>2026-04-21T10:10:31.955Z</time></trkpt><trkpt lat="44.1528545" lon="8.2627639"><ele>114.0</ele><time>2026-04-21T10:10:32.935Z</time></trkpt><trkpt lat="44.153" lon="8.263072"><ele>114.0</ele><time>2026-04-21T10:10:33.929Z</time></trkpt><trkpt lat="44.1532828" lon="8.2636832"><ele>112.5</ele><time>2026-04-21T10:10:35.931Z</time></trkpt><trkpt lat="44.1534205" lon="8.2639833"><ele>111.0</ele><time>2026-04-21T10:10:36.943Z</time></trkpt><trkpt lat="44.1535578" lon="8.2642805"><ele>111.0</ele><time>2026-04-21T10:10:37.955Z</time></trkpt><trkpt lat="44.1536942" lon="8.2645764"><ele>111.0</ele><time>2026-04-21T10:10:38.934Z</time></trkpt><trkpt lat="44.1538288" lon="8.2648707"><ele>116.0</ele><time>2026-04-21T10:10:39.936Z</time></trkpt><trkpt lat="44.1539615" lon="8.2651619"><ele>121.0</ele><time>2026-04-21T10:10:40.937Z</time></trkpt><trkpt lat="44.1540961" lon="8.2654563"><ele>111.0</ele><time>2026-04-21T10:10:41.941Z</time></trkpt><trkpt lat="44.1542351" lon="8.2657578"><ele>101.0</ele><time>2026-04-21T10:10:42.952Z</time></trkpt><trkpt lat="44.1543776" lon="8.2660656"><ele>101.0</ele><time>2026-04-21T10:10:43.951Z</time></trkpt><trkpt lat="44.1545208" lon="8.2663779"><ele>101.0</ele><time>2026-04-21T10:10:44.938Z</time></trkpt><trkpt lat="44.1546654" lon="8.2666911"><ele>101.5</ele><time>2026-04-21T10:10:45.957Z</time></trkpt><trkpt lat="44.1548109" lon="8.2670047"><ele>102.0</ele><time>2026-04-21T10:10:46.937Z</time></trkpt><trkpt lat="44.1549577" lon="8.2673185"><ele>102.0</ele><time>2026-04-21T10:10:47.953Z</time></trkpt><trkpt lat="44.155104" lon="8.2676347"><ele>102.0</ele><time>2026-04-21T10:10:48.936Z</time></trkpt><trkpt lat="44.1552506" lon="8.2679496"><ele>99.0</ele><time>2026-04-21T10:10:49.939Z</time></trkpt><trkpt lat="44.1553967" lon="8.268263"><ele>96.0</ele><time>2026-04-21T10:10:50.94Z</time></trkpt><trkpt lat="44.1555467" lon="8.268572"><ele>96.0</ele><time>2026-04-21T10:10:51.943Z</time></trkpt><trkpt lat="44.1557018" lon="8.2688774"><ele>96.0</ele><time>2026-04-21T10:10:52.956Z</time></trkpt><trkpt lat="44.1558624" lon="8.2691762"><ele>97.0</ele><time>2026-04-21T10:10:53.941Z</time></trkpt><trkpt lat="44.1560282" lon="8.2694678"><ele>98.0</ele><time>2026-04-21T10:10:54.944Z</time></trkpt><trkpt lat="44.156375" lon="8.2700301"><ele>108.5</ele><time>2026-04-21T10:10:56.943Z</time></trkpt><trkpt lat="44.1565564" lon="8.2703012"><ele>119.0</ele><time>2026-04-21T10:10:57.941Z</time></trkpt><trkpt lat="44.1567414" lon="8.2705667"><ele>114.0</ele><time>2026-04-21T10:10:58.942Z</time></trkpt><trkpt lat="44.1569321" lon="8.2708214"><ele>109.0</ele><time>2026-04-21T10:10:59.943Z</time></trkpt><trkpt lat="44.1571304" lon="8.2710686"><ele>109.0</ele><time>2026-04-21T10:11:00.938Z</time></trkpt><trkpt lat="44.1573338" lon="8.2713059"><ele>109.0</ele><time>2026-04-21T10:11:01.926Z</time></trkpt><trkpt lat="44.1575425" lon="8.2715368"><ele>111.0</ele><time>2026-04-21T10:11:02.943Z</time></trkpt><trkpt lat="44.1577506" lon="8.2717657"><ele>113.0</ele><time>2026-04-21T10:11:03.933Z</time></trkpt><trkpt lat="44.1579589" lon="8.2719939"><ele>113.0</ele><time>2026-04-21T10:11:04.955Z</time></trkpt><trkpt lat="44.1581741" lon="8.2722139"><ele>113.0</ele><time>2026-04-21T10:11:05.934Z</time></trkpt><trkpt lat="44.1583962" lon="8.2724252"><ele>112.5</ele><time>2026-04-21T10:11:06.943Z</time></trkpt><trkpt lat="44.1586216" lon="8.2726288"><ele>112.0</ele><time>2026-04-21T10:11:07.931Z</time></trkpt><trkpt lat="44.1588483" lon="8.2728247"><ele>109.5</ele><time>2026-04-21T10:11:08.936Z</time></trkpt><trkpt lat="44.1590781" lon="8.2730157"><ele>107.0</ele><time>2026-04-21T10:11:09.94Z</time></trkpt><trkpt lat="44.159313" lon="8.2732068"><ele>107.0</ele><time>2026-04-21T10:11:10.941Z</time></trkpt><trkpt lat="44.1595532" lon="8.2733919"><ele>107.0</ele><time>2026-04-21T10:11:11.931Z</time></trkpt><trkpt lat="44.1597989" lon="8.2735723"><ele>95.0</ele><time>2026-04-21T10:11:12.936Z</time></trkpt><trkpt lat="44.1600484" lon="8.2737453"><ele>83.0</ele><time>2026-04-21T10:11:13.949Z</time></trkpt><trkpt lat="44.1603011" lon="8.2739077"><ele>85.5</ele><time>2026-04-21T10:11:14.939Z</time></trkpt><trkpt lat="44.1605601" lon="8.2740584"><ele>88.0</ele><time>2026-04-21T10:11:15.957Z</time></trkpt><trkpt lat="44.1610944" lon="8.2743171"><ele>77.5</ele><time>2026-04-21T10:11:17.939Z</time></trkpt><trkpt lat="44.1613659" lon="8.2744399"><ele>67.0</ele><time>2026-04-21T10:11:18.941Z</time></trkpt><trkpt lat="44.1616377" lon="8.2745601"><ele>51.0</ele><time>2026-04-21T10:11:19.943Z</time></trkpt><trkpt lat="44.1619117" lon="8.2746787"><ele>35.0</ele><time>2026-04-21T10:11:20.937Z</time></trkpt><trkpt lat="44.1621841" lon="8.2747992"><ele>38.5</ele><time>2026-04-21T10:11:21.951Z</time></trkpt><trkpt lat="44.1624545" lon="8.2749218"><ele>42.0</ele><time>2026-04-21T10:11:22.943Z</time></trkpt><trkpt lat="44.1627213" lon="8.2750481"><ele>42.0</ele><time>2026-04-21T10:11:23.946Z</time></trkpt><trkpt lat="44.1629807" lon="8.275179"><ele>42.0</ele><time>2026-04-21T10:11:24.943Z</time></trkpt><trkpt lat="44.1632384" lon="8.2753172"><ele>63.5</ele><time>2026-04-21T10:11:25.957Z</time></trkpt><trkpt lat="44.1634952" lon="8.2754594"><ele>85.0</ele><time>2026-04-21T10:11:26.943Z</time></trkpt><trkpt lat="44.1637531" lon="8.2755988"><ele>81.5</ele><time>2026-04-21T10:11:27.945Z</time></trkpt><trkpt lat="44.1640115" lon="8.2757292"><ele>78.0</ele><time>2026-04-21T10:11:28.936Z</time></trkpt><trkpt lat="44.1642734" lon="8.2758511"><ele>78.0</ele><time>2026-04-21T10:11:29.943Z</time></trkpt><trkpt lat="44.1645344" lon="8.2759695"><ele>78.0</ele><time>2026-04-21T10:11:30.944Z</time></trkpt><trkpt lat="44.1647951" lon="8.276088"><ele>70.0</ele><time>2026-04-21T10:11:31.945Z</time></trkpt><trkpt lat="44.1650548" lon="8.2762119"><ele>62.0</ele><time>2026-04-21T10:11:32.935Z</time></trkpt><trkpt lat="44.1653124" lon="8.2763396"><ele>47.5</ele><time>2026-04-21T10:11:33.943Z</time></trkpt><trkpt lat="44.1655673" lon="8.2764749"><ele>33.0</ele><time>2026-04-21T10:11:34.955Z</time></trkpt><trkpt lat="44.1658185" lon="8.2766212"><ele>31.5</ele><time>2026-04-21T10:11:35.94Z</time></trkpt><trkpt lat="44.1660655" lon="8.2767815"><ele>30.0</ele><time>2026-04-21T10:11:36.943Z</time></trkpt><trkpt lat="44.1665422" lon="8.2771415"><ele>47.0</ele><time>2026-04-21T10:11:38.944Z</time></trkpt><trkpt lat="44.1667698" lon="8.2773387"><ele>64.0</ele><time>2026-04-21T10:11:39.941Z</time></trkpt><trkpt lat="44.1669907" lon="8.277542"><ele>64.0</ele><time>2026-04-21T10:11:40.949Z</time></trkpt><trkpt lat="44.1672078" lon="8.2777567"><ele>64.0</ele><time>2026-04-21T10:11:41.936Z</time></trkpt><trkpt lat="44.1674201" lon="8.277981"><ele>78.5</ele><time>2026-04-21T10:11:42.939Z</time></trkpt><trkpt lat="44.1676269" lon="8.2782104"><ele>93.0</ele><time>2026-04-21T10:11:43.93Z</time></trkpt><trkpt lat="44.1678355" lon="8.2784388"><ele>93.0</ele><time>2026-04-21T10:11:44.93Z</time></trkpt><trkpt lat="44.1680434" lon="8.2786804"><ele>93.0</ele><time>2026-04-21T10:11:45.939Z</time></trkpt><trkpt lat="44.1682429" lon="8.2790352"><ele>113.0</ele><time>2026-04-21T10:11:46.924Z</time></trkpt><trkpt lat="44.1684387" lon="8.2793271"><ele>133.0</ele><time>2026-04-21T10:11:47.926Z</time></trkpt><trkpt lat="44.1686269" lon="8.2796371"><ele>150.0</ele><time>2026-04-21T10:11:48.923Z</time></trkpt><trkpt lat="44.1688054" lon="8.279964"><ele>167.0</ele><time>2026-04-21T10:11:49.92Z</time></trkpt><trkpt lat="44.1689779" lon="8.2803046"><ele>186.5</ele><time>2026-04-21T10:11:50.923Z</time></trkpt><trkpt lat="44.1691457" lon="8.2806551"><ele>206.0</ele><time>2026-04-21T10:11:51.925Z</time></trkpt><trkpt lat="44.1693079" lon="8.2810129"><ele>206.0</ele><time>2026-04-21T10:11:52.924Z</time></trkpt><trkpt lat="44.1694693" lon="8.2813735"><ele>206.0</ele><time>2026-04-21T10:11:53.925Z</time></trkpt><trkpt lat="44.169609" lon="8.2817268"><ele>224.0</ele><time>2026-04-21T10:11:54.919Z</time></trkpt><trkpt lat="44.1697058" lon="8.2820487"><ele>242.0</ele><time>2026-04-21T10:11:55.913Z</time></trkpt><trkpt lat="44.1697906" lon="8.2823684"><ele>263.5</ele><time>2026-04-21T10:11:56.909Z</time></trkpt><trkpt lat="44.1698738" lon="8.2826806"><ele>285.0</ele><time>2026-04-21T10:11:57.92Z</time></trkpt><trkpt lat="44.1700387" lon="8.2832973"><ele>295.0</ele><time>2026-04-21T10:11:59.923Z</time></trkpt><trkpt lat="44.1701137" lon="8.2835965"><ele>305.0</ele><time>2026-04-21T10:12:00.91Z</time></trkpt><trkpt lat="44.1701879" lon="8.2838915"><ele>305.0</ele><time>2026-04-21T10:12:01.913Z</time></trkpt><trkpt lat="44.1702608" lon="8.2841823"><ele>305.0</ele><time>2026-04-21T10:12:02.916Z</time></trkpt><trkpt lat="44.1703301" lon="8.2844641"><ele>305.0</ele><time>2026-04-21T10:12:03.91Z</time></trkpt><trkpt lat="44.1703981" lon="8.2847412"><ele>300.0</ele><time>2026-04-21T10:12:04.92Z</time></trkpt><trkpt lat="44.1704663" lon="8.2850174"><ele>295.0</ele><time>2026-04-21T10:12:05.917Z</time></trkpt><trkpt lat="44.1705362" lon="8.2852956"><ele>290.0</ele><time>2026-04-21T10:12:06.916Z</time></trkpt><trkpt lat="44.1706011" lon="8.2855604"><ele>97.0</ele><time>2026-04-21T10:12:07.918Z</time></trkpt><trkpt lat="44.1734146" lon="8.2927924"><ele>97.0</ele><time>2026-04-21T10:13:55.929Z</time></trkpt><trkpt lat="44.1735027" lon="8.2929157"><ele>97.0</ele><time>2026-04-21T10:14:20.922Z</time></trkpt><trkpt lat="44.173513" lon="8.2928596"><ele>97.0</ele><time>2026-04-21T10:14:37.934Z</time></trkpt><trkpt lat="44.1735731" lon="8.2929395"><ele>97.0</ele><time>2026-04-21T10:14:41.931Z</time></trkpt><trkpt lat="44.1737228" lon="8.293083"><ele>97.0</ele><time>2026-04-21T10:14:45.937Z</time></trkpt><trkpt lat="44.1737896" lon="8.2931505"><ele>94.33333333333334</ele><time>2026-04-21T10:14:47.958Z</time></trkpt><trkpt lat="44.1738475" lon="8.2931987"><ele>91.66666666666667</ele><time>2026-04-21T10:14:49.943Z</time></trkpt><trkpt lat="44.1739037" lon="8.2932459"><ele>89.0</ele><time>2026-04-21T10:14:51.932Z</time></trkpt><trkpt lat="44.1739806" lon="8.2933005"><ele>86.33333333333334</ele><time>2026-04-21T10:14:54.936Z</time></trkpt><trkpt lat="44.1740639" lon="8.2933683"><ele>83.66666666666667</ele><time>2026-04-21T10:14:56.934Z</time></trkpt><trkpt lat="44.174161" lon="8.2934722"><ele>81.0</ele><time>2026-04-21T10:14:58.953Z</time></trkpt><trkpt lat="44.1742474" lon="8.2935666"><ele>81.0</ele><time>2026-04-21T10:15:00.955Z</time></trkpt><trkpt lat="44.1743198" lon="8.2936394"><ele>81.0</ele><time>2026-04-21T10:15:02.941Z</time></trkpt><trkpt lat="44.1744448" lon="8.2937378"><ele>81.0</ele><time>2026-04-21T10:15:06.941Z</time></trkpt><trkpt lat="44.1745201" lon="8.2937979"><ele>81.0</ele><time>2026-04-21T10:15:09.943Z</time></trkpt><trkpt lat="44.1745846" lon="8.2938438"><ele>81.0</ele><time>2026-04-21T10:15:11.931Z</time></trkpt><trkpt lat="44.1746614" lon="8.2939046"><ele>77.5</ele><time>2026-04-21T10:15:13.95Z</time></trkpt><trkpt lat="44.1747585" lon="8.2939782"><ele>74.0</ele><time>2026-04-21T10:15:15.932Z</time></trkpt><trkpt lat="44.1748205" lon="8.2940231"><ele>70.5</ele><time>2026-04-21T10:15:16.948Z</time></trkpt><trkpt lat="44.1748936" lon="8.2940765"><ele>67.0</ele><time>2026-04-21T10:15:17.951Z</time></trkpt><trkpt lat="44.1749678" lon="8.2941319"><ele>63.5</ele><time>2026-04-21T10:15:18.945Z</time></trkpt><trkpt lat="44.1750423" lon="8.294186"><ele>60.0</ele><time>2026-04-21T10:15:19.943Z</time></trkpt><trkpt lat="44.1751198" lon="8.2942393"><ele>60.0</ele><time>2026-04-21T10:15:20.931Z</time></trkpt><trkpt lat="44.1752002" lon="8.2942941"><ele>60.0</ele><time>2026-04-21T10:15:21.935Z</time></trkpt><trkpt lat="44.1752809" lon="8.294348"><ele>60.0</ele><time>2026-04-21T10:15:22.953Z</time></trkpt><trkpt lat="44.1753662" lon="8.2944041"><ele>60.0</ele><time>2026-04-21T10:15:23.955Z</time></trkpt><trkpt lat="44.1755553" lon="8.2945259"><ele>60.0</ele><time>2026-04-21T10:15:25.943Z</time></trkpt><trkpt lat="44.1756555" lon="8.29459"><ele>60.0</ele><time>2026-04-21T10:15:26.942Z</time></trkpt><trkpt lat="44.1757542" lon="8.2946572"><ele>60.0</ele><time>2026-04-21T10:15:27.94Z</time></trkpt><trkpt lat="44.175852" lon="8.2947229"><ele>60.0</ele><time>2026-04-21T10:15:28.95Z</time></trkpt><trkpt lat="44.1759457" lon="8.2947894"><ele>60.0</ele><time>2026-04-21T10:15:29.934Z</time></trkpt><trkpt lat="44.1760392" lon="8.2948554"><ele>63.333333333333336</ele><time>2026-04-21T10:15:30.934Z</time></trkpt><trkpt lat="44.1761271" lon="8.2949143"><ele>66.66666666666667</ele><time>2026-04-21T10:15:31.94Z</time></trkpt><trkpt lat="44.176204" lon="8.2949652"><ele>70.0</ele><time>2026-04-21T10:15:32.943Z</time></trkpt><trkpt lat="44.1762618" lon="8.2950049"><ele>73.33333333333334</ele><time>2026-04-21T10:15:33.941Z</time></trkpt><trkpt lat="44.1763239" lon="8.295049"><ele>76.66666666666667</ele><time>2026-04-21T10:15:35.942Z</time></trkpt><trkpt lat="44.1763877" lon="8.2950805"><ele>80.0</ele><time>2026-04-21T10:15:39.944Z</time></trkpt><trkpt lat="44.1764531" lon="8.2951228"><ele>79.5</ele><time>2026-04-21T10:15:49.952Z</time></trkpt><trkpt lat="44.1766652" lon="8.2952707"><ele>79.0</ele><time>2026-04-21T10:16:14.939Z</time></trkpt><trkpt lat="44.1767642" lon="8.2953403"><ele>78.5</ele><time>2026-04-21T10:16:16.94Z</time></trkpt><trkpt lat="44.176829" lon="8.2953888"><ele>78.0</ele><time>2026-04-21T10:16:17.943Z</time></trkpt><trkpt lat="44.1769069" lon="8.2954503"><ele>78.0</ele><time>2026-04-21T10:16:18.935Z</time></trkpt><trkpt lat="44.1769941" lon="8.295518"><ele>78.0</ele><time>2026-04-21T10:16:19.953Z</time></trkpt><trkpt lat="44.1770938" lon="8.295597"><ele>78.0</ele><time>2026-04-21T10:16:20.943Z</time></trkpt><trkpt lat="44.1772058" lon="8.2956854"><ele>78.0</ele><time>2026-04-21T10:16:21.945Z</time></trkpt><trkpt lat="44.1773207" lon="8.2957805"><ele>81.0</ele><time>2026-04-21T10:16:22.942Z</time></trkpt><trkpt lat="44.1774356" lon="8.295877"><ele>84.0</ele><time>2026-04-21T10:16:23.947Z</time></trkpt><trkpt lat="44.1775473" lon="8.2959721"><ele>87.0</ele><time>2026-04-21T10:16:24.944Z</time></trkpt><trkpt lat="44.1776545" lon="8.296065"><ele>90.0</ele><time>2026-04-21T10:16:25.942Z</time></trkpt><trkpt lat="44.1777513" lon="8.2961499"><ele>90.0</ele><time>2026-04-21T10:16:26.941Z</time></trkpt><trkpt lat="44.1778415" lon="8.2962256"><ele>90.0</ele><time>2026-04-21T10:16:27.928Z</time></trkpt><trkpt lat="44.1779241" lon="8.2962964"><ele>90.0</ele><time>2026-04-21T10:16:28.938Z</time></trkpt><trkpt lat="44.1780003" lon="8.2963645"><ele>90.0</ele><time>2026-04-21T10:16:29.937Z</time></trkpt><trkpt lat="44.1780636" lon="8.2964185"><ele>90.0</ele><time>2026-04-21T10:16:30.924Z</time></trkpt><trkpt lat="44.178123" lon="8.2964682"><ele>90.0</ele><time>2026-04-21T10:16:31.923Z</time></trkpt><trkpt lat="44.1782511" lon="8.2966021"><ele>96.5</ele><time>2026-04-21T10:16:34.921Z</time></trkpt><trkpt lat="44.1783164" lon="8.2966636"><ele>103.0</ele><time>2026-04-21T10:16:37.921Z</time></trkpt><trkpt lat="44.1784376" lon="8.2967802"><ele>109.5</ele><time>2026-04-21T10:16:43.916Z</time></trkpt><trkpt lat="44.178512" lon="8.2968286"><ele>116.0</ele><time>2026-04-21T10:16:52.913Z</time></trkpt><trkpt lat="44.1786697" lon="8.2969212"><ele>104.0</ele><time>2026-04-21T10:16:57.908Z</time></trkpt><trkpt lat="44.1845114" lon="8.3026885"><ele>104.0</ele><time>2026-04-21T10:21:35.922Z</time></trkpt><trkpt lat="44.1845033" lon="8.3029617"><ele>104.0</ele><time>2026-04-21T10:21:42.926Z</time></trkpt><trkpt lat="44.1845669" lon="8.3030645"><ele>104.0</ele><time>2026-04-21T10:21:44.932Z</time></trkpt><trkpt lat="44.1846439" lon="8.3031642"><ele>104.0</ele><time>2026-04-21T10:21:46.932Z</time></trkpt><trkpt lat="44.184725" lon="8.3032702"><ele>102.33333333333333</ele><time>2026-04-21T10:21:48.933Z</time></trkpt><trkpt lat="44.1848187" lon="8.3033795"><ele>100.66666666666666</ele><time>2026-04-21T10:21:50.93Z</time></trkpt><trkpt lat="44.1848737" lon="8.3034382"><ele>99.0</ele><time>2026-04-21T10:21:51.936Z</time></trkpt><trkpt lat="44.184931" lon="8.3034956"><ele>97.33333333333333</ele><time>2026-04-21T10:21:52.935Z</time></trkpt><trkpt lat="44.1849853" lon="8.3035569"><ele>95.66666666666666</ele><time>2026-04-21T10:21:53.937Z</time></trkpt><trkpt lat="44.1850384" lon="8.3036158"><ele>94.0</ele><time>2026-04-21T10:21:54.928Z</time></trkpt><trkpt lat="44.1850926" lon="8.3036738"><ele>92.6</ele><time>2026-04-21T10:21:55.936Z</time></trkpt><trkpt lat="44.1851512" lon="8.3037326"><ele>91.2</ele><time>2026-04-21T10:21:56.934Z</time></trkpt><trkpt lat="44.18528" lon="8.3038558"><ele>89.8</ele><time>2026-04-21T10:21:58.932Z</time></trkpt><trkpt lat="44.1853441" lon="8.3039173"><ele>88.39999999999999</ele><time>2026-04-21T10:21:59.925Z</time></trkpt><trkpt lat="44.1854071" lon="8.3039768"><ele>87.0</ele><time>2026-04-21T10:22:00.927Z</time></trkpt><trkpt lat="44.1854686" lon="8.3040321"><ele>85.0</ele><time>2026-04-21T10:22:01.936Z</time></trkpt><trkpt lat="44.1855288" lon="8.3040826"><ele>83.0</ele><time>2026-04-21T10:22:02.934Z</time></trkpt><trkpt lat="44.1855872" lon="8.3041349"><ele>81.0</ele><time>2026-04-21T10:22:03.925Z</time></trkpt><trkpt lat="44.185644" lon="8.3041842"><ele>79.0</ele><time>2026-04-21T10:22:04.928Z</time></trkpt><trkpt lat="44.1857024" lon="8.3042329"><ele>77.0</ele><time>2026-04-21T10:22:05.936Z</time></trkpt><trkpt lat="44.1857587" lon="8.3042808"><ele>75.0</ele><time>2026-04-21T10:22:06.935Z</time></trkpt><trkpt lat="44.1858133" lon="8.3043292"><ele>73.0</ele><time>2026-04-21T10:22:07.936Z</time></trkpt><trkpt lat="44.1858668" lon="8.3043757"><ele>72.2</ele><time>2026-04-21T10:22:08.935Z</time></trkpt><trkpt lat="44.1859738" lon="8.3044542"><ele>71.4</ele><time>2026-04-21T10:22:10.932Z</time></trkpt><trkpt lat="44.1860735" lon="8.3045235"><ele>70.60000000000001</ele><time>2026-04-21T10:22:12.936Z</time></trkpt><trkpt lat="44.1861648" lon="8.3045942"><ele>69.8</ele><time>2026-04-21T10:22:14.933Z</time></trkpt><trkpt lat="44.1862492" lon="8.3046582"><ele>69.0</ele><time>2026-04-21T10:22:16.935Z</time></trkpt><trkpt lat="44.1863343" lon="8.30472"><ele>63.75</ele><time>2026-04-21T10:22:18.937Z</time></trkpt><trkpt lat="44.1864952" lon="8.3048203"><ele>58.5</ele><time>2026-04-21T10:22:21.935Z</time></trkpt><trkpt lat="44.1865696" lon="8.3048681"><ele>53.25</ele><time>2026-04-21T10:22:22.94Z</time></trkpt><trkpt lat="44.186666" lon="8.3049332"><ele>48.0</ele><time>2026-04-21T10:22:23.931Z</time></trkpt><trkpt lat="44.1867813" lon="8.3050136"><ele>45.8</ele><time>2026-04-21T10:22:24.934Z</time></trkpt><trkpt lat="44.186891" lon="8.3050903"><ele>43.599999999999994</ele><time>2026-04-21T10:22:25.931Z</time></trkpt><trkpt lat="44.1869902" lon="8.3051568"><ele>41.400000000000006</ele><time>2026-04-21T10:22:26.934Z</time></trkpt><trkpt lat="44.1870771" lon="8.305205"><ele>39.2</ele><time>2026-04-21T10:22:27.946Z</time></trkpt><trkpt lat="44.1871534" lon="8.305244"><ele>37.0</ele><time>2026-04-21T10:22:28.933Z</time></trkpt><trkpt lat="44.1872244" lon="8.3052865"><ele>37.0</ele><time>2026-04-21T10:22:29.943Z</time></trkpt><trkpt lat="44.1872959" lon="8.3053345"><ele>37.0</ele><time>2026-04-21T10:22:30.95Z</time></trkpt><trkpt lat="44.1873743" lon="8.3053793"><ele>37.0</ele><time>2026-04-21T10:22:31.932Z</time></trkpt><trkpt lat="44.1874649" lon="8.3054242"><ele>37.0</ele><time>2026-04-21T10:22:32.953Z</time></trkpt><trkpt lat="44.1875531" lon="8.3054713"><ele>37.0</ele><time>2026-04-21T10:22:33.93Z</time></trkpt><trkpt lat="44.1876342" lon="8.3055097"><ele>37.0</ele><time>2026-04-21T10:22:34.948Z</time></trkpt><trkpt lat="44.1877086" lon="8.3055437"><ele>36.4</ele><time>2026-04-21T10:22:35.942Z</time></trkpt><trkpt lat="44.1877753" lon="8.3055717"><ele>35.800000000000004</ele><time>2026-04-21T10:22:36.934Z</time></trkpt><trkpt lat="44.1878362" lon="8.3055968"><ele>35.2</ele><time>2026-04-21T10:22:37.941Z</time></trkpt><trkpt lat="44.1879003" lon="8.305621"><ele>34.6</ele><time>2026-04-21T10:22:38.94Z</time></trkpt><trkpt lat="44.1879649" lon="8.3056466"><ele>34.0</ele><time>2026-04-21T10:22:39.932Z</time></trkpt><trkpt lat="44.1881431" lon="8.3057227"><ele>35.4</ele><time>2026-04-21T10:22:42.944Z</time></trkpt><trkpt lat="44.1882434" lon="8.305765"><ele>36.8</ele><time>2026-04-21T10:22:44.942Z</time></trkpt><trkpt lat="44.1883379" lon="8.3057877"><ele>38.199999999999996</ele><time>2026-04-21T10:22:46.943Z</time></trkpt><trkpt lat="44.1884276" lon="8.3058202"><ele>39.599999999999994</ele><time>2026-04-21T10:22:48.934Z</time></trkpt><trkpt lat="44.1885353" lon="8.3058513"><ele>41.0</ele><time>2026-04-21T10:22:50.933Z</time></trkpt><trkpt lat="44.1886081" lon="8.3058786"><ele>41.0</ele><time>2026-04-21T10:22:51.94Z</time></trkpt><trkpt lat="44.1886969" lon="8.3059168"><ele>41.0</ele><time>2026-04-21T10:22:52.939Z</time></trkpt><trkpt lat="44.1887929" lon="8.305959"><ele>41.0</ele><time>2026-04-21T10:22:53.939Z</time></trkpt><trkpt lat="44.1888865" lon="8.3059931"><ele>41.0</ele><time>2026-04-21T10:22:54.954Z</time></trkpt><trkpt lat="44.1889661" lon="8.3060166"><ele>41.0</ele><time>2026-04-21T10:22:55.942Z</time></trkpt><trkpt lat="44.1890296" lon="8.3060367"><ele>41.0</ele><time>2026-04-21T10:22:56.933Z</time></trkpt><trkpt lat="44.1891378" lon="8.3060648"><ele>43.599999999999994</ele><time>2026-04-21T10:22:58.943Z</time></trkpt><trkpt lat="44.189221" lon="8.3060806"><ele>46.2</ele><time>2026-04-21T10:23:00.955Z</time></trkpt><trkpt lat="44.1893844" lon="8.3061152"><ele>48.800000000000004</ele><time>2026-04-21T10:23:04.935Z</time></trkpt><trkpt lat="44.1894739" lon="8.3061332"><ele>51.400000000000006</ele><time>2026-04-21T10:23:06.94Z</time></trkpt><trkpt lat="44.1895732" lon="8.3061516"><ele>54.0</ele><time>2026-04-21T10:23:08.942Z</time></trkpt><trkpt lat="44.1896618" lon="8.306164"><ele>54.0</ele><time>2026-04-21T10:23:10.952Z</time></trkpt><trkpt lat="44.1897416" lon="8.3061737"><ele>54.00000000000001</ele><time>2026-04-21T10:23:12.959Z</time></trkpt><trkpt lat="44.1898249" lon="8.306196"><ele>54.00000000000001</ele><time>2026-04-21T10:23:15.934Z</time></trkpt><trkpt lat="44.1898913" lon="8.3062083"><ele>54.0</ele><time>2026-04-21T10:23:18.937Z</time></trkpt><trkpt lat="44.1899728" lon="8.3062173"><ele>54.0</ele><time>2026-04-21T10:23:21.955Z</time></trkpt><trkpt lat="44.1901169" lon="8.306233"><ele>55.714285714285715</ele><time>2026-04-21T10:23:25.942Z</time></trkpt><trkpt lat="44.1902082" lon="8.3062498"><ele>57.42857142857143</ele><time>2026-04-21T10:23:27.935Z</time></trkpt><trkpt lat="44.1902703" lon="8.3062672"><ele>59.14285714285714</ele><time>2026-04-21T10:23:28.935Z</time></trkpt><trkpt lat="44.1903365" lon="8.3062773"><ele>60.85714285714286</ele><time>2026-04-21T10:23:29.944Z</time></trkpt><trkpt lat="44.1904055" lon="8.3062798"><ele>62.57142857142858</ele><time>2026-04-21T10:23:30.951Z</time></trkpt><trkpt lat="44.1904724" lon="8.3062798"><ele>64.28571428571428</ele><time>2026-04-21T10:23:31.946Z</time></trkpt><trkpt lat="44.1905414" lon="8.3062849"><ele>66.0</ele><time>2026-04-21T10:23:32.95Z</time></trkpt><trkpt lat="44.1906243" lon="8.3062969"><ele>69.0</ele><time>2026-04-21T10:23:33.943Z</time></trkpt><trkpt lat="44.1907372" lon="8.3063111"><ele>72.0</ele><time>2026-04-21T10:23:34.942Z</time></trkpt><trkpt lat="44.1908853" lon="8.3063085"><ele>75.0</ele><time>2026-04-21T10:23:35.932Z</time></trkpt><trkpt lat="44.1910485" lon="8.306307"><ele>78.0</ele><time>2026-04-21T10:23:36.933Z</time></trkpt><trkpt lat="44.1912099" lon="8.306298"><ele>78.0</ele><time>2026-04-21T10:23:37.931Z</time></trkpt><trkpt lat="44.1913494" lon="8.3062917"><ele>78.0</ele><time>2026-04-21T10:23:38.939Z</time></trkpt><trkpt lat="44.1914641" lon="8.3062847"><ele>78.0</ele><time>2026-04-21T10:23:39.941Z</time></trkpt><trkpt lat="44.191551" lon="8.3062684"><ele>78.0</ele><time>2026-04-21T10:23:40.939Z</time></trkpt><trkpt lat="44.1916215" lon="8.3062552"><ele>78.0</ele><time>2026-04-21T10:23:41.936Z</time></trkpt><trkpt lat="44.1917128" lon="8.3062283"><ele>82.25</ele><time>2026-04-21T10:23:43.943Z</time></trkpt><trkpt lat="44.1918963" lon="8.3061874"><ele>86.5</ele><time>2026-04-21T10:23:47.943Z</time></trkpt><trkpt lat="44.1920132" lon="8.3061699"><ele>90.75</ele><time>2026-04-21T10:23:49.948Z</time></trkpt><trkpt lat="44.1920776" lon="8.3061575"><ele>95.0</ele><time>2026-04-21T10:23:50.942Z</time></trkpt><trkpt lat="44.192194" lon="8.3061408"><ele>95.0</ele><time>2026-04-21T10:23:52.949Z</time></trkpt><trkpt lat="44.1922984" lon="8.3061228"><ele>95.0</ele><time>2026-04-21T10:23:54.943Z</time></trkpt><trkpt lat="44.192412" lon="8.3061055"><ele>95.0</ele><time>2026-04-21T10:23:56.94Z</time></trkpt><trkpt lat="44.1924812" lon="8.3060945"><ele>95.0</ele><time>2026-04-21T10:23:57.942Z</time></trkpt><trkpt lat="44.192558" lon="8.3060788"><ele>95.0</ele><time>2026-04-21T10:23:58.95Z</time></trkpt><trkpt lat="44.1926394" lon="8.3060589"><ele>95.0</ele><time>2026-04-21T10:23:59.937Z</time></trkpt><trkpt lat="44.1927253" lon="8.3060378"><ele>95.8</ele><time>2026-04-21T10:24:00.946Z</time></trkpt><trkpt lat="44.1928122" lon="8.3060173"><ele>96.6</ele><time>2026-04-21T10:24:01.943Z</time></trkpt><trkpt lat="44.1928923" lon="8.3060006"><ele>97.4</ele><time>2026-04-21T10:24:02.934Z</time></trkpt><trkpt lat="44.1929699" lon="8.3059856"><ele>98.2</ele><time>2026-04-21T10:24:03.947Z</time></trkpt><trkpt lat="44.193044" lon="8.305971"><ele>99.0</ele><time>2026-04-21T10:24:04.94Z</time></trkpt><trkpt lat="44.1931806" lon="8.3059454"><ele>99.42857142857143</ele><time>2026-04-21T10:24:06.942Z</time></trkpt><trkpt lat="44.1932432" lon="8.3059343"><ele>99.85714285714285</ele><time>2026-04-21T10:24:07.939Z</time></trkpt><trkpt lat="44.1933057" lon="8.3059209"><ele>100.28571428571428</ele><time>2026-04-21T10:24:08.953Z</time></trkpt><trkpt lat="44.1933688" lon="8.3059052"><ele>100.71428571428572</ele><time>2026-04-21T10:24:09.942Z</time></trkpt><trkpt lat="44.1934339" lon="8.305891"><ele>101.14285714285714</ele><time>2026-04-21T10:24:10.932Z</time></trkpt><trkpt lat="44.1935016" lon="8.3058794"><ele>101.57142857142857</ele><time>2026-04-21T10:24:11.941Z</time></trkpt><trkpt lat="44.1935724" lon="8.3058655"><ele>102.0</ele><time>2026-04-21T10:24:12.941Z</time></trkpt><trkpt lat="44.1936441" lon="8.3058525"><ele>102.0</ele><time>2026-04-21T10:24:13.932Z</time></trkpt><trkpt lat="44.1937128" lon="8.3058395"><ele>102.0</ele><time>2026-04-21T10:24:14.948Z</time></trkpt><trkpt lat="44.1937785" lon="8.3058259"><ele>102.0</ele><time>2026-04-21T10:24:15.94Z</time></trkpt><trkpt lat="44.1938431" lon="8.3058097"><ele>102.0</ele><time>2026-04-21T10:24:16.937Z</time></trkpt><trkpt lat="44.1939639" lon="8.3057774"><ele>102.0</ele><time>2026-04-21T10:24:18.945Z</time></trkpt><trkpt lat="44.1940841" lon="8.3057515"><ele>102.0</ele><time>2026-04-21T10:24:20.944Z</time></trkpt><trkpt lat="44.1941963" lon="8.3057265"><ele>103.39999999999999</ele><time>2026-04-21T10:24:22.939Z</time></trkpt><trkpt lat="44.1943121" lon="8.3056866"><ele>104.8</ele><time>2026-04-21T10:24:24.946Z</time></trkpt><trkpt lat="44.194375" lon="8.3056565"><ele>106.2</ele><time>2026-04-21T10:24:25.953Z</time></trkpt><trkpt lat="44.194514" lon="8.3055917"><ele>107.6</ele><time>2026-04-21T10:24:27.942Z</time></trkpt><trkpt lat="44.1945886" lon="8.3055655"><ele>109.0</ele><time>2026-04-21T10:24:28.943Z</time></trkpt><trkpt lat="44.1946649" lon="8.3055488"><ele>107.16666666666667</ele><time>2026-04-21T10:24:29.943Z</time></trkpt><trkpt lat="44.194742" lon="8.3055351"><ele>105.33333333333334</ele><time>2026-04-21T10:24:30.952Z</time></trkpt><trkpt lat="44.1948231" lon="8.3055177"><ele>103.5</ele><time>2026-04-21T10:24:31.935Z</time></trkpt><trkpt lat="44.1949141" lon="8.3054969"><ele>101.66666666666666</ele><time>2026-04-21T10:24:32.956Z</time></trkpt><trkpt lat="44.1950093" lon="8.305477"><ele>99.83333333333333</ele><time>2026-04-21T10:24:33.941Z</time></trkpt><trkpt lat="44.1951027" lon="8.3054558"><ele>98.0</ele><time>2026-04-21T10:24:34.936Z</time></trkpt><trkpt lat="44.1951942" lon="8.3054365"><ele>98.0</ele><time>2026-04-21T10:24:35.941Z</time></trkpt><trkpt lat="44.1952853" lon="8.3054147"><ele>98.0</ele><time>2026-04-21T10:24:36.943Z</time></trkpt><trkpt lat="44.1953768" lon="8.3053924"><ele>98.0</ele><time>2026-04-21T10:24:37.948Z</time></trkpt><trkpt lat="44.1954734" lon="8.3053727"><ele>98.0</ele><time>2026-04-21T10:24:38.947Z</time></trkpt><trkpt lat="44.1955673" lon="8.3053522"><ele>98.0</ele><time>2026-04-21T10:24:39.937Z</time></trkpt><trkpt lat="44.1956587" lon="8.3053322"><ele>100.0</ele><time>2026-04-21T10:24:40.931Z</time></trkpt><trkpt lat="44.1957494" lon="8.3053116"><ele>102.0</ele><time>2026-04-21T10:24:41.946Z</time></trkpt><trkpt lat="44.1958389" lon="8.3052926"><ele>104.00000000000001</ele><time>2026-04-21T10:24:42.937Z</time></trkpt><trkpt lat="44.1959303" lon="8.3052756"><ele>106.0</ele><time>2026-04-21T10:24:43.94Z</time></trkpt><trkpt lat="44.1960246" lon="8.3052564"><ele>108.0</ele><time>2026-04-21T10:24:44.949Z</time></trkpt><trkpt lat="44.196124" lon="8.3052328"><ele>108.0</ele><time>2026-04-21T10:24:45.944Z</time></trkpt><trkpt lat="44.1962284" lon="8.3052086"><ele>108.0</ele><time>2026-04-21T10:24:46.947Z</time></trkpt><trkpt lat="44.1964533" lon="8.3051648"><ele>108.0</ele><time>2026-04-21T10:24:48.941Z</time></trkpt><trkpt lat="44.1965724" lon="8.3051408"><ele>111.5</ele><time>2026-04-21T10:24:49.943Z</time></trkpt><trkpt lat="44.1966959" lon="8.305115"><ele>115.0</ele><time>2026-04-21T10:24:50.936Z</time></trkpt><trkpt lat="44.1968218" lon="8.3050866"><ele>118.5</ele><time>2026-04-21T10:24:51.951Z</time></trkpt><trkpt lat="44.1969517" lon="8.3050565"><ele>122.0</ele><time>2026-04-21T10:24:52.932Z</time></trkpt><trkpt lat="44.1970817" lon="8.3050265"><ele>122.0</ele><time>2026-04-21T10:24:53.948Z</time></trkpt><trkpt lat="44.1972126" lon="8.3049979"><ele>122.0</ele><time>2026-04-21T10:24:54.941Z</time></trkpt><trkpt lat="44.197345" lon="8.3049734"><ele>122.0</ele><time>2026-04-21T10:24:55.941Z</time></trkpt><trkpt lat="44.1974804" lon="8.3049547"><ele>122.0</ele><time>2026-04-21T10:24:56.934Z</time></trkpt><trkpt lat="44.1976203" lon="8.3049377"><ele>124.33333333333333</ele><time>2026-04-21T10:24:57.941Z</time></trkpt><trkpt lat="44.1977651" lon="8.3049242"><ele>126.66666666666666</ele><time>2026-04-21T10:24:58.941Z</time></trkpt><trkpt lat="44.1979148" lon="8.3049108"><ele>129.0</ele><time>2026-04-21T10:24:59.941Z</time></trkpt><trkpt lat="44.1980698" lon="8.3049008"><ele>134.66666666666666</ele><time>2026-04-21T10:25:00.94Z</time></trkpt><trkpt lat="44.198226" lon="8.3048941"><ele>140.33333333333331</ele><time>2026-04-21T10:25:01.95Z</time></trkpt><trkpt lat="44.1983859" lon="8.30489"><ele>146.0</ele><time>2026-04-21T10:25:02.941Z</time></trkpt><trkpt lat="44.1985495" lon="8.3048913"><ele>146.0</ele><time>2026-04-21T10:25:03.93Z</time></trkpt><trkpt lat="44.1987204" lon="8.3049027"><ele>146.0</ele><time>2026-04-21T10:25:04.935Z</time></trkpt><trkpt lat="44.1988915" lon="8.3049164"><ele>146.0</ele><time>2026-04-21T10:25:05.934Z</time></trkpt><trkpt lat="44.1990627" lon="8.3049276"><ele>158.5</ele><time>2026-04-21T10:25:06.933Z</time></trkpt><trkpt lat="44.1992627" lon="8.305019"><ele>171.0</ele><time>2026-04-21T10:25:07.93Z</time></trkpt><trkpt lat="44.1996042" lon="8.3051093"><ele>171.0</ele><time>2026-04-21T10:25:09.923Z</time></trkpt><trkpt lat="44.1997695" lon="8.3051652"><ele>171.0</ele><time>2026-04-21T10:25:10.92Z</time></trkpt><trkpt lat="44.1999284" lon="8.3052234"><ele>171.0</ele><time>2026-04-21T10:25:11.918Z</time></trkpt><trkpt lat="44.2000808" lon="8.3052842"><ele>174.33333333333334</ele><time>2026-04-21T10:25:12.922Z</time></trkpt><trkpt lat="44.2002345" lon="8.305353"><ele>177.66666666666669</ele><time>2026-04-21T10:25:13.92Z</time></trkpt><trkpt lat="44.2003846" lon="8.3054266"><ele>181.0</ele><time>2026-04-21T10:25:14.918Z</time></trkpt><trkpt lat="44.2005414" lon="8.305508"><ele>192.33333333333334</ele><time>2026-04-21T10:25:15.926Z</time></trkpt><trkpt lat="44.2006993" lon="8.3055951"><ele>203.66666666666669</ele><time>2026-04-21T10:25:16.919Z</time></trkpt><trkpt lat="44.2008627" lon="8.3056905"><ele>215.0</ele><time>2026-04-21T10:25:17.921Z</time></trkpt><trkpt lat="44.2010351" lon="8.3057969"><ele>215.0</ele><time>2026-04-21T10:25:18.913Z</time></trkpt><trkpt lat="44.2011623" lon="8.3058874"><ele>215.0</ele><time>2026-04-21T10:25:19.921Z</time></trkpt><trkpt lat="44.2012961" lon="8.3059863"><ele>215.0</ele><time>2026-04-21T10:25:20.919Z</time></trkpt><trkpt lat="44.2015908" lon="8.3061868"><ele>218.0</ele><time>2026-04-21T10:25:21.922Z</time></trkpt><trkpt lat="44.2017419" lon="8.306311"><ele>221.0</ele><time>2026-04-21T10:25:22.92Z</time></trkpt><trkpt lat="44.2018922" lon="8.3064379"><ele>224.0</ele><time>2026-04-21T10:25:23.916Z</time></trkpt><trkpt lat="44.202036" lon="8.3065632"><ele>231.66666666666669</ele><time>2026-04-21T10:25:24.921Z</time></trkpt><trkpt lat="44.2021788" lon="8.3066959"><ele>239.33333333333331</ele><time>2026-04-21T10:25:25.912Z</time></trkpt><trkpt lat="44.20231" lon="8.3068312"><ele>247.0</ele><time>2026-04-21T10:25:26.927Z</time></trkpt><trkpt lat="44.2024445" lon="8.3069755"><ele>248.5</ele><time>2026-04-21T10:25:27.918Z</time></trkpt><trkpt lat="44.2025897" lon="8.3071371"><ele>250.0</ele><time>2026-04-21T10:25:28.918Z</time></trkpt><trkpt lat="44.2028243" lon="8.3074336"><ele>256.75</ele><time>2026-04-21T10:25:30.918Z</time></trkpt><trkpt lat="44.2028962" lon="8.3075269"><ele>263.5</ele><time>2026-04-21T10:25:31.915Z</time></trkpt><trkpt lat="44.2029933" lon="8.3076508"><ele>270.25</ele><time>2026-04-21T10:25:32.912Z</time></trkpt><trkpt lat="44.203111" lon="8.3077981"><ele>277.0</ele><time>2026-04-21T10:25:33.913Z</time></trkpt><trkpt lat="44.2032384" lon="8.3079648"><ele>285.3333333333333</ele><time>2026-04-21T10:25:34.914Z</time></trkpt><trkpt lat="44.2033639" lon="8.3081398"><ele>293.6666666666667</ele><time>2026-04-21T10:25:35.907Z</time></trkpt><trkpt lat="44.2034756" lon="8.3083047"><ele>302.0</ele><time>2026-04-21T10:25:36.915Z</time></trkpt><trkpt lat="44.2035787" lon="8.308463"><ele>302.0</ele><time>2026-04-21T10:25:37.913Z</time></trkpt><trkpt lat="44.2036815" lon="8.3086215"><ele>302.0</ele><time>2026-04-21T10:25:38.918Z</time></trkpt><trkpt lat="44.2037823" lon="8.3087654"><ele>302.0</ele><time>2026-04-21T10:25:39.91Z</time></trkpt><trkpt lat="44.2038889" lon="8.3089197"><ele>309.5</ele><time>2026-04-21T10:25:40.908Z</time></trkpt><trkpt lat="44.2039996" lon="8.3090741"><ele>317.0</ele><time>2026-04-21T10:25:41.909Z</time></trkpt><trkpt lat="44.2040918" lon="8.3092155"><ele>324.5</ele><time>2026-04-21T10:25:42.918Z</time></trkpt><trkpt lat="44.2041853" lon="8.3093523"><ele>332.0</ele><time>2026-04-21T10:25:43.914Z</time></trkpt><trkpt lat="44.204294" lon="8.3095115"><ele>332.0</ele><time>2026-04-21T10:25:44.918Z</time></trkpt><trkpt lat="44.2044102" lon="8.3096876"><ele>332.0</ele><time>2026-04-21T10:25:45.914Z</time></trkpt><trkpt lat="44.2044656" lon="8.3097716"><ele>332.0</ele><time>2026-04-21T10:25:46.916Z</time></trkpt><trkpt lat="44.2045178" lon="8.3098451"><ele>332.0</ele><time>2026-04-21T10:25:48.912Z</time></trkpt><trkpt lat="44.2046081" lon="8.3099809"><ele>339.6666666666667</ele><time>2026-04-21T10:25:49.918Z</time></trkpt><trkpt lat="44.2047849" lon="8.3102411"><ele>347.3333333333333</ele><time>2026-04-21T10:25:52.919Z</time></trkpt><trkpt lat="44.204856" lon="8.3103464"><ele>355.0</ele><time>2026-04-21T10:25:53.91Z</time></trkpt><trkpt lat="44.2049616" lon="8.3105056"><ele>363.0</ele><time>2026-04-21T10:25:54.913Z</time></trkpt><trkpt lat="44.205085" lon="8.3106916"><ele>371.0</ele><time>2026-04-21T10:25:55.911Z</time></trkpt><trkpt lat="44.205222" lon="8.3109022"><ele>379.0</ele><time>2026-04-21T10:25:56.912Z</time></trkpt><trkpt lat="44.2054244" lon="8.3112097"><ele>379.0</ele><time>2026-04-21T10:25:57.92Z</time></trkpt><trkpt lat="44.2055148" lon="8.3113454"><ele>379.0</ele><time>2026-04-21T10:25:58.917Z</time></trkpt><trkpt lat="44.2056033" lon="8.3114804"><ele>379.0</ele><time>2026-04-21T10:25:59.91Z</time></trkpt><trkpt lat="44.2057561" lon="8.3117173"><ele>365.0</ele><time>2026-04-21T10:26:00.91Z</time></trkpt><trkpt lat="44.2059651" lon="8.3120346"><ele>351.0</ele><time>2026-04-21T10:26:01.914Z</time></trkpt><trkpt lat="44.2060833" lon="8.3122132"><ele>344.3333333333333</ele><time>2026-04-21T10:26:02.919Z</time></trkpt><trkpt lat="44.2061992" lon="8.3123894"><ele>337.66666666666663</ele><time>2026-04-21T10:26:03.908Z</time></trkpt><trkpt lat="44.2062962" lon="8.3125376"><ele>331.0</ele><time>2026-04-21T10:26:04.913Z</time></trkpt><trkpt lat="44.2063976" lon="8.3126922"><ele>331.0</ele><time>2026-04-21T10:26:05.915Z</time></trkpt><trkpt lat="44.2064889" lon="8.3128312"><ele>331.0</ele><time>2026-04-21T10:26:06.919Z</time></trkpt><trkpt lat="44.2065457" lon="8.312916"><ele>331.0</ele><time>2026-04-21T10:26:07.912Z</time></trkpt><trkpt lat="44.206606" lon="8.3130058"><ele>331.0</ele><time>2026-04-21T10:26:08.914Z</time></trkpt><trkpt lat="44.2066757" lon="8.3131163"><ele>331.0</ele><time>2026-04-21T10:26:09.908Z</time></trkpt><trkpt lat="44.20676" lon="8.3132498"><ele>327.0</ele><time>2026-04-21T10:26:10.915Z</time></trkpt><trkpt lat="44.2069514" lon="8.3135419"><ele>323.0</ele><time>2026-04-21T10:26:12.91Z</time></trkpt><trkpt lat="44.2071019" lon="8.3137719"><ele>317.6666666666667</ele><time>2026-04-21T10:26:13.917Z</time></trkpt><trkpt lat="44.2072327" lon="8.3139745"><ele>312.3333333333333</ele><time>2026-04-21T10:26:14.912Z</time></trkpt><trkpt lat="44.2073582" lon="8.3141708"><ele>307.0</ele><time>2026-04-21T10:26:15.922Z</time></trkpt><trkpt lat="44.2074701" lon="8.3143444"><ele>307.0</ele><time>2026-04-21T10:26:16.91Z</time></trkpt><trkpt lat="44.207568" lon="8.3144978"><ele>307.0</ele><time>2026-04-21T10:26:17.909Z</time></trkpt><trkpt lat="44.2076609" lon="8.3146431"><ele>307.0</ele><time>2026-04-21T10:26:18.915Z</time></trkpt><trkpt lat="44.2077691" lon="8.3148094"><ele>307.0</ele><time>2026-04-21T10:26:19.915Z</time></trkpt><trkpt lat="44.2078689" lon="8.3149651"><ele>305.5</ele><time>2026-04-21T10:26:20.913Z</time></trkpt><trkpt lat="44.2079505" lon="8.3150964"><ele>304.0</ele><time>2026-04-21T10:26:21.915Z</time></trkpt><trkpt lat="44.2080439" lon="8.3152425"><ele>302.5</ele><time>2026-04-21T10:26:22.918Z</time></trkpt><trkpt lat="44.2081213" lon="8.3153605"><ele>301.0</ele><time>2026-04-21T10:26:23.913Z</time></trkpt><trkpt lat="44.2082022" lon="8.3154825"><ele>299.2</ele><time>2026-04-21T10:26:24.91Z</time></trkpt><trkpt lat="44.2082622" lon="8.3155783"><ele>297.40000000000003</ele><time>2026-04-21T10:26:25.909Z</time></trkpt><trkpt lat="44.2083108" lon="8.3156561"><ele>295.6</ele><time>2026-04-21T10:26:26.909Z</time></trkpt><trkpt lat="44.2083755" lon="8.3157571"><ele>293.8</ele><time>2026-04-21T10:26:27.909Z</time></trkpt><trkpt lat="44.2084384" lon="8.3158557"><ele>292.0</ele><time>2026-04-21T10:26:28.918Z</time></trkpt><trkpt lat="44.2085042" lon="8.3159597"><ele>292.0</ele><time>2026-04-21T10:26:29.917Z</time></trkpt><trkpt lat="44.2086661" lon="8.3162028"><ele>292.0</ele><time>2026-04-21T10:26:30.922Z</time></trkpt><trkpt lat="44.2088321" lon="8.3164518"><ele>281.66666666666663</ele><time>2026-04-21T10:26:31.909Z</time></trkpt><trkpt lat="44.2090251" lon="8.316744"><ele>271.3333333333333</ele><time>2026-04-21T10:26:33.917Z</time></trkpt><trkpt lat="44.2091031" lon="8.3168607"><ele>261.0</ele><time>2026-04-21T10:26:34.916Z</time></trkpt><trkpt lat="44.2091619" lon="8.316954"><ele>261.0</ele><time>2026-04-21T10:26:35.916Z</time></trkpt><trkpt lat="44.2092407" lon="8.317075"><ele>261.0</ele><time>2026-04-21T10:26:36.916Z</time></trkpt><trkpt lat="44.2093115" lon="8.3171854"><ele>261.0</ele><time>2026-04-21T10:26:37.914Z</time></trkpt><trkpt lat="44.2093836" lon="8.317294"><ele>261.0</ele><time>2026-04-21T10:26:38.92Z</time></trkpt><trkpt lat="44.2094607" lon="8.3174122"><ele>261.0</ele><time>2026-04-21T10:26:39.913Z</time></trkpt><trkpt lat="44.2095268" lon="8.317519"><ele>256.5</ele><time>2026-04-21T10:26:40.918Z</time></trkpt><trkpt lat="44.2095871" lon="8.3176143"><ele>252.0</ele><time>2026-04-21T10:26:41.921Z</time></trkpt><trkpt lat="44.2096349" lon="8.3176914"><ele>247.5</ele><time>2026-04-21T10:26:42.914Z</time></trkpt><trkpt lat="44.2097736" lon="8.3179042"><ele>243.0</ele><time>2026-04-21T10:26:43.912Z</time></trkpt><trkpt lat="44.2098991" lon="8.3180964"><ele>234.0</ele><time>2026-04-21T10:26:44.914Z</time></trkpt><trkpt lat="44.2099921" lon="8.3182416"><ele>225.0</ele><time>2026-04-21T10:26:45.917Z</time></trkpt><trkpt lat="44.2100952" lon="8.3183984"><ele>216.0</ele><time>2026-04-21T10:26:46.92Z</time></trkpt><trkpt lat="44.2102292" lon="8.3186017"><ele>213.0</ele><time>2026-04-21T10:26:47.914Z</time></trkpt><trkpt lat="44.2104696" lon="8.3189611"><ele>210.0</ele><time>2026-04-21T10:26:48.911Z</time></trkpt><trkpt lat="44.2105873" lon="8.31913"><ele>198.66666666666666</ele><time>2026-04-21T10:26:49.916Z</time></trkpt><trkpt lat="44.2107313" lon="8.3193333"><ele>187.33333333333331</ele><time>2026-04-21T10:26:50.916Z</time></trkpt><trkpt lat="44.2108623" lon="8.3195229"><ele>176.0</ele><time>2026-04-21T10:26:51.919Z</time></trkpt><trkpt lat="44.2109731" lon="8.31968"><ele>176.0</ele><time>2026-04-21T10:26:52.911Z</time></trkpt><trkpt lat="44.2107725" lon="8.3193537"><ele>176.0</ele><time>2026-04-21T10:26:55.938Z</time></trkpt><trkpt lat="44.210844" lon="8.3194575"><ele>176.0</ele><time>2026-04-21T10:26:56.938Z</time></trkpt><trkpt lat="44.2109509" lon="8.3195898"><ele>176.0</ele><time>2026-04-21T10:26:57.942Z</time></trkpt><trkpt lat="44.2110244" lon="8.3196562"><ele>176.0</ele><time>2026-04-21T10:26:58.935Z</time></trkpt><trkpt lat="44.2111013" lon="8.3197407"><ele>176.0</ele><time>2026-04-21T10:26:59.934Z</time></trkpt><trkpt lat="44.2111674" lon="8.3198427"><ele>176.0</ele><time>2026-04-21T10:27:00.943Z</time></trkpt><trkpt lat="44.2112332" lon="8.3199507"><ele>176.0</ele><time>2026-04-21T10:27:01.932Z</time></trkpt><trkpt lat="44.2112959" lon="8.3200655"><ele>175.0</ele><time>2026-04-21T10:27:02.947Z</time></trkpt><trkpt lat="44.2113664" lon="8.320183"><ele>174.0</ele><time>2026-04-21T10:27:03.938Z</time></trkpt><trkpt lat="44.2114549" lon="8.3202899"><ele>173.0</ele><time>2026-04-21T10:27:04.945Z</time></trkpt><trkpt lat="44.2115649" lon="8.3203964"><ele>172.0</ele><time>2026-04-21T10:27:05.942Z</time></trkpt><trkpt lat="44.2117042" lon="8.3205011"><ele>167.33333333333334</ele><time>2026-04-21T10:27:06.942Z</time></trkpt><trkpt lat="44.2118594" lon="8.320618"><ele>162.66666666666666</ele><time>2026-04-21T10:27:07.936Z</time></trkpt><trkpt lat="44.2120301" lon="8.3207531"><ele>158.0</ele><time>2026-04-21T10:27:08.932Z</time></trkpt><trkpt lat="44.2122149" lon="8.3208976"><ele>160.5</ele><time>2026-04-21T10:27:09.942Z</time></trkpt><trkpt lat="44.2124131" lon="8.3210464"><ele>163.0</ele><time>2026-04-21T10:27:10.948Z</time></trkpt><trkpt lat="44.2126195" lon="8.3211972"><ele>163.0</ele><time>2026-04-21T10:27:11.934Z</time></trkpt><trkpt lat="44.2128361" lon="8.3213481"><ele>163.0</ele><time>2026-04-21T10:27:12.939Z</time></trkpt><trkpt lat="44.213054" lon="8.3214999"><ele>155.0</ele><time>2026-04-21T10:27:13.933Z</time></trkpt><trkpt lat="44.2135053" lon="8.3218068"><ele>155.0</ele><time>2026-04-21T10:27:15.945Z</time></trkpt><trkpt lat="44.2137376" lon="8.3219627"><ele>155.0</ele><time>2026-04-21T10:27:16.944Z</time></trkpt><trkpt lat="44.2139773" lon="8.3221189"><ele>152.0</ele><time>2026-04-21T10:27:17.94Z</time></trkpt><trkpt lat="44.214219" lon="8.3222785"><ele>149.0</ele><time>2026-04-21T10:27:18.948Z</time></trkpt><trkpt lat="44.2144614" lon="8.3224422"><ele>149.0</ele><time>2026-04-21T10:27:19.948Z</time></trkpt><trkpt lat="44.2147065" lon="8.3226038"><ele>149.0</ele><time>2026-04-21T10:27:20.953Z</time></trkpt><trkpt lat="44.214955" lon="8.3227669"><ele>143.5</ele><time>2026-04-21T10:27:21.942Z</time></trkpt><trkpt lat="44.2152021" lon="8.3229267"><ele>138.0</ele><time>2026-04-21T10:27:22.943Z</time></trkpt><trkpt lat="44.2154477" lon="8.3230883"><ele>142.5</ele><time>2026-04-21T10:27:23.95Z</time></trkpt><trkpt lat="44.2156938" lon="8.323251"><ele>147.0</ele><time>2026-04-21T10:27:24.943Z</time></trkpt><trkpt lat="44.2159403" lon="8.3234127"><ele>147.0</ele><time>2026-04-21T10:27:25.952Z</time></trkpt><trkpt lat="44.2161854" lon="8.3235742"><ele>147.0</ele><time>2026-04-21T10:27:26.95Z</time></trkpt><trkpt lat="44.2164287" lon="8.3237352"><ele>146.5</ele><time>2026-04-21T10:27:27.943Z</time></trkpt><trkpt lat="44.2166685" lon="8.3238951"><ele>146.0</ele><time>2026-04-21T10:27:28.943Z</time></trkpt><trkpt lat="44.2169078" lon="8.3240526"><ele>143.5</ele><time>2026-04-21T10:27:29.942Z</time></trkpt><trkpt lat="44.2171426" lon="8.3242103"><ele>141.0</ele><time>2026-04-21T10:27:30.951Z</time></trkpt><trkpt lat="44.2173747" lon="8.3243652"><ele>141.0</ele><time>2026-04-21T10:27:31.943Z</time></trkpt><trkpt lat="44.2176067" lon="8.324518"><ele>141.0</ele><time>2026-04-21T10:27:32.953Z</time></trkpt><trkpt lat="44.2178398" lon="8.3246711"><ele>140.5</ele><time>2026-04-21T10:27:33.942Z</time></trkpt><trkpt lat="44.2180721" lon="8.3248218"><ele>140.0</ele><time>2026-04-21T10:27:34.944Z</time></trkpt><trkpt lat="44.2185392" lon="8.3251338"><ele>140.0</ele><time>2026-04-21T10:27:36.942Z</time></trkpt><trkpt lat="44.2187778" lon="8.325291"><ele>140.0</ele><time>2026-04-21T10:27:37.952Z</time></trkpt><trkpt lat="44.2190188" lon="8.3254512"><ele>143.5</ele><time>2026-04-21T10:27:38.943Z</time></trkpt><trkpt lat="44.2192586" lon="8.3256174"><ele>147.0</ele><time>2026-04-21T10:27:39.943Z</time></trkpt><trkpt lat="44.2194946" lon="8.3257926"><ele>147.0</ele><time>2026-04-21T10:27:40.942Z</time></trkpt><trkpt lat="44.219722" lon="8.3259785"><ele>147.0</ele><time>2026-04-21T10:27:41.938Z</time></trkpt><trkpt lat="44.2199406" lon="8.3261772"><ele>148.5</ele><time>2026-04-21T10:27:42.959Z</time></trkpt><trkpt lat="44.220145" lon="8.3263825"><ele>150.0</ele><time>2026-04-21T10:27:43.938Z</time></trkpt><trkpt lat="44.220351" lon="8.3266101"><ele>154.0</ele><time>2026-04-21T10:27:44.94Z</time></trkpt><trkpt lat="44.2205476" lon="8.3268495"><ele>158.0</ele><time>2026-04-21T10:27:45.949Z</time></trkpt><trkpt lat="44.2207383" lon="8.3270989"><ele>166.5</ele><time>2026-04-21T10:27:46.934Z</time></trkpt><trkpt lat="44.220923" lon="8.3273613"><ele>175.0</ele><time>2026-04-21T10:27:47.951Z</time></trkpt><trkpt lat="44.2210956" lon="8.3276327"><ele>175.0</ele><time>2026-04-21T10:27:48.932Z</time></trkpt><trkpt lat="44.2212636" lon="8.3279184"><ele>175.0</ele><time>2026-04-21T10:27:49.945Z</time></trkpt><trkpt lat="44.221413" lon="8.3282106"><ele>172.5</ele><time>2026-04-21T10:27:50.942Z</time></trkpt><trkpt lat="44.2215448" lon="8.3285241"><ele>170.0</ele><time>2026-04-21T10:27:51.937Z</time></trkpt><trkpt lat="44.2216722" lon="8.3288365"><ele>171.5</ele><time>2026-04-21T10:27:52.944Z</time></trkpt><trkpt lat="44.2218003" lon="8.3291533"><ele>173.0</ele><time>2026-04-21T10:27:53.946Z</time></trkpt><trkpt lat="44.2219244" lon="8.3294689"><ele>174.5</ele><time>2026-04-21T10:27:54.942Z</time></trkpt><trkpt lat="44.2220355" lon="8.3297918"><ele>176.0</ele><time>2026-04-21T10:27:55.931Z</time></trkpt><trkpt lat="44.222218" lon="8.3304527"><ele>178.5</ele><time>2026-04-21T10:27:57.936Z</time></trkpt><trkpt lat="44.2223012" lon="8.3307824"><ele>181.0</ele><time>2026-04-21T10:27:58.932Z</time></trkpt><trkpt lat="44.2223789" lon="8.3311042"><ele>185.0</ele><time>2026-04-21T10:27:59.936Z</time></trkpt><trkpt lat="44.2224518" lon="8.3314159"><ele>189.0</ele><time>2026-04-21T10:28:00.945Z</time></trkpt><trkpt lat="44.22252" lon="8.3317306"><ele>189.0</ele><time>2026-04-21T10:28:01.952Z</time></trkpt><trkpt lat="44.2225942" lon="8.3320477"><ele>189.0</ele><time>2026-04-21T10:28:02.939Z</time></trkpt><trkpt lat="44.2226675" lon="8.3323634"><ele>187.5</ele><time>2026-04-21T10:28:03.939Z</time></trkpt><trkpt lat="44.2227445" lon="8.3326831"><ele>186.0</ele><time>2026-04-21T10:28:04.931Z</time></trkpt><trkpt lat="44.2228235" lon="8.3330079"><ele>188.5</ele><time>2026-04-21T10:28:05.941Z</time></trkpt><trkpt lat="44.2229019" lon="8.3333355"><ele>191.0</ele><time>2026-04-21T10:28:06.951Z</time></trkpt><trkpt lat="44.2229781" lon="8.3336663"><ele>198.5</ele><time>2026-04-21T10:28:07.937Z</time></trkpt><trkpt lat="44.2230557" lon="8.3339992"><ele>206.0</ele><time>2026-04-21T10:28:08.933Z</time></trkpt><trkpt lat="44.2231354" lon="8.3343315"><ele>207.0</ele><time>2026-04-21T10:28:09.935Z</time></trkpt><trkpt lat="44.2232134" lon="8.3346705"><ele>208.0</ele><time>2026-04-21T10:28:10.94Z</time></trkpt><trkpt lat="44.2232775" lon="8.3350691"><ele>218.0</ele><time>2026-04-21T10:28:11.931Z</time></trkpt><trkpt lat="44.2233529" lon="8.3354175"><ele>228.0</ele><time>2026-04-21T10:28:12.925Z</time></trkpt><trkpt lat="44.2234297" lon="8.3357674"><ele>237.5</ele><time>2026-04-21T10:28:13.925Z</time></trkpt><trkpt lat="44.2235081" lon="8.3361174"><ele>247.0</ele><time>2026-04-21T10:28:14.925Z</time></trkpt><trkpt lat="44.2235876" lon="8.3364666"><ele>257.5</ele><time>2026-04-21T10:28:15.921Z</time></trkpt><trkpt lat="44.2236641" lon="8.3368142"><ele>268.0</ele><time>2026-04-21T10:28:16.924Z</time></trkpt><trkpt lat="44.2238112" lon="8.3375036"><ele>279.5</ele><time>2026-04-21T10:28:18.927Z</time></trkpt><trkpt lat="44.2238849" lon="8.3378378"><ele>291.0</ele><time>2026-04-21T10:28:19.911Z</time></trkpt><trkpt lat="44.2239597" lon="8.3381719"><ele>301.0</ele><time>2026-04-21T10:28:20.911Z</time></trkpt><trkpt lat="44.224034" lon="8.3385029"><ele>311.0</ele><time>2026-04-21T10:28:21.92Z</time></trkpt><trkpt lat="44.2241075" lon="8.3388326"><ele>324.5</ele><time>2026-04-21T10:28:22.921Z</time></trkpt><trkpt lat="44.2241764" lon="8.3391501"><ele>338.0</ele><time>2026-04-21T10:28:23.909Z</time></trkpt><trkpt lat="44.2242444" lon="8.3394644"><ele>346.0</ele><time>2026-04-21T10:28:24.915Z</time></trkpt><trkpt lat="44.2243109" lon="8.3397648"><ele>354.0</ele><time>2026-04-21T10:28:25.921Z</time></trkpt><trkpt lat="44.2243758" lon="8.3400564"><ele>362.0</ele><time>2026-04-21T10:28:26.916Z</time></trkpt><trkpt lat="44.2244384" lon="8.3403413"><ele>368.6666666666667</ele><time>2026-04-21T10:28:27.911Z</time></trkpt><trkpt lat="44.2244961" lon="8.3406171"><ele>375.3333333333333</ele><time>2026-04-21T10:28:28.922Z</time></trkpt><trkpt lat="44.2245532" lon="8.3408942"><ele>382.0</ele><time>2026-04-21T10:28:29.918Z</time></trkpt><trkpt lat="44.2246077" lon="8.3411602"><ele>390.0</ele><time>2026-04-21T10:28:30.913Z</time></trkpt><trkpt lat="44.2246605" lon="8.3414177"><ele>398.0</ele><time>2026-04-21T10:28:31.916Z</time></trkpt><trkpt lat="44.2252329" lon="8.3477769"><ele>228.0</ele><time>2026-04-21T10:28:47.928Z</time></trkpt><trkpt lat="44.2252539" lon="8.3484188"><ele>228.0</ele><time>2026-04-21T10:28:49.932Z</time></trkpt><trkpt lat="44.2252033" lon="8.3487905"><ele>228.0</ele><time>2026-04-21T10:28:50.935Z</time></trkpt><trkpt lat="44.2251325" lon="8.3491226"><ele>220.0</ele><time>2026-04-21T10:28:51.945Z</time></trkpt><trkpt lat="44.2250677" lon="8.3494685"><ele>212.0</ele><time>2026-04-21T10:28:52.941Z</time></trkpt><trkpt lat="44.2250036" lon="8.3498174"><ele>200.0</ele><time>2026-04-21T10:28:53.944Z</time></trkpt><trkpt lat="44.2249408" lon="8.35017"><ele>188.0</ele><time>2026-04-21T10:28:54.957Z</time></trkpt><trkpt lat="44.2248602" lon="8.3504667"><ele>177.0</ele><time>2026-04-21T10:28:55.938Z</time></trkpt><trkpt lat="44.2248045" lon="8.3508334"><ele>166.0</ele><time>2026-04-21T10:28:56.943Z</time></trkpt><trkpt lat="44.2247533" lon="8.3512041"><ele>162.5</ele><time>2026-04-21T10:28:57.933Z</time></trkpt><trkpt lat="44.2247017" lon="8.3515742"><ele>159.0</ele><time>2026-04-21T10:28:58.951Z</time></trkpt><trkpt lat="44.2246505" lon="8.3519471"><ele>161.0</ele><time>2026-04-21T10:28:59.944Z</time></trkpt><trkpt lat="44.2246046" lon="8.3523197"><ele>163.0</ele><time>2026-04-21T10:29:00.945Z</time></trkpt><trkpt lat="44.2245672" lon="8.3526933"><ele>170.5</ele><time>2026-04-21T10:29:01.943Z</time></trkpt><trkpt lat="44.22454" lon="8.3530688"><ele>178.0</ele><time>2026-04-21T10:29:02.944Z</time></trkpt><trkpt lat="44.2245217" lon="8.3534474"><ele>178.0</ele><time>2026-04-21T10:29:03.941Z</time></trkpt><trkpt lat="44.2245137" lon="8.3538295"><ele>178.0</ele><time>2026-04-21T10:29:04.945Z</time></trkpt><trkpt lat="44.2245124" lon="8.3542049"><ele>189.5</ele><time>2026-04-21T10:29:05.961Z</time></trkpt><trkpt lat="44.2245187" lon="8.3545792"><ele>201.0</ele><time>2026-04-21T10:29:06.934Z</time></trkpt><trkpt lat="44.2245356" lon="8.3549528"><ele>201.5</ele><time>2026-04-21T10:29:07.944Z</time></trkpt><trkpt lat="44.2245642" lon="8.3553227"><ele>202.0</ele><time>2026-04-21T10:29:08.942Z</time></trkpt><trkpt lat="44.2246496" lon="8.3560616"><ele>198.0</ele><time>2026-04-21T10:29:10.943Z</time></trkpt><trkpt lat="44.2247091" lon="8.3564336"><ele>194.0</ele><time>2026-04-21T10:29:11.958Z</time></trkpt><trkpt lat="44.2247741" lon="8.3568043"><ele>209.5</ele><time>2026-04-21T10:29:12.942Z</time></trkpt><trkpt lat="44.2248481" lon="8.3571728"><ele>225.0</ele><time>2026-04-21T10:29:13.944Z</time></trkpt><trkpt lat="44.2249302" lon="8.35754"><ele>225.0</ele><time>2026-04-21T10:29:14.949Z</time></trkpt><trkpt lat="44.22502" lon="8.3579048"><ele>225.0</ele><time>2026-04-21T10:29:15.939Z</time></trkpt><trkpt lat="44.2251199" lon="8.358261"><ele>225.0</ele><time>2026-04-21T10:29:16.941Z</time></trkpt><trkpt lat="44.2252289" lon="8.3586126"><ele>225.0</ele><time>2026-04-21T10:29:17.949Z</time></trkpt><trkpt lat="44.2253444" lon="8.3589646"><ele>226.0</ele><time>2026-04-21T10:29:18.951Z</time></trkpt><trkpt lat="44.2254575" lon="8.3593185"><ele>227.0</ele><time>2026-04-21T10:29:19.938Z</time></trkpt><trkpt lat="44.2255711" lon="8.3596768"><ele>232.5</ele><time>2026-04-21T10:29:20.948Z</time></trkpt><trkpt lat="44.2256849" lon="8.3600374"><ele>238.0</ele><time>2026-04-21T10:29:21.941Z</time></trkpt><trkpt lat="44.2257994" lon="8.3603976"><ele>236.0</ele><time>2026-04-21T10:29:22.945Z</time></trkpt><trkpt lat="44.2259145" lon="8.3607573"><ele>234.0</ele><time>2026-04-21T10:29:23.953Z</time></trkpt><trkpt lat="44.2260322" lon="8.3611182"><ele>240.0</ele><time>2026-04-21T10:29:24.942Z</time></trkpt><trkpt lat="44.2261493" lon="8.361478"><ele>246.0</ele><time>2026-04-21T10:29:25.954Z</time></trkpt><trkpt lat="44.2262673" lon="8.3618383"><ele>246.0</ele><time>2026-04-21T10:29:26.941Z</time></trkpt><trkpt lat="44.2263862" lon="8.3621981"><ele>246.0</ele><time>2026-04-21T10:29:27.943Z</time></trkpt><trkpt lat="44.2265056" lon="8.3625578"><ele>242.5</ele><time>2026-04-21T10:29:28.934Z</time></trkpt><trkpt lat="44.2266281" lon="8.3629168"><ele>239.0</ele><time>2026-04-21T10:29:29.938Z</time></trkpt><trkpt lat="44.2268823" lon="8.363643"><ele>261.5</ele><time>2026-04-21T10:29:31.941Z</time></trkpt><trkpt lat="44.2270058" lon="8.3640056"><ele>284.0</ele><time>2026-04-21T10:29:32.945Z</time></trkpt><trkpt lat="44.2270897" lon="8.3643541"><ele>294.5</ele><time>2026-04-21T10:29:33.924Z</time></trkpt><trkpt lat="44.2272089" lon="8.3647167"><ele>305.0</ele><time>2026-04-21T10:29:34.919Z</time></trkpt><trkpt lat="44.2273295" lon="8.3650764"><ele>305.0</ele><time>2026-04-21T10:29:35.928Z</time></trkpt><trkpt lat="44.2274487" lon="8.3654313"><ele>305.0</ele><time>2026-04-21T10:29:36.927Z</time></trkpt><trkpt lat="44.2275628" lon="8.3657837"><ele>301.0</ele><time>2026-04-21T10:29:37.923Z</time></trkpt><trkpt lat="44.227668" lon="8.3661336"><ele>297.0</ele><time>2026-04-21T10:29:38.92Z</time></trkpt><trkpt lat="44.2277597" lon="8.3664867"><ele>283.5</ele><time>2026-04-21T10:29:39.921Z</time></trkpt><trkpt lat="44.2278347" lon="8.3668397"><ele>270.0</ele><time>2026-04-21T10:29:40.92Z</time></trkpt><trkpt lat="44.2278956" lon="8.3672004"><ele>247.0</ele><time>2026-04-21T10:29:41.916Z</time></trkpt><trkpt lat="44.2280197" lon="8.3686623"><ele>231.0</ele><time>2026-04-21T10:29:45.938Z</time></trkpt><trkpt lat="44.2280694" lon="8.3692907"><ele>226.0</ele><time>2026-04-21T10:29:46.935Z</time></trkpt><trkpt lat="44.2280046" lon="8.3697828"><ele>221.0</ele><time>2026-04-21T10:29:47.924Z</time></trkpt><trkpt lat="44.2279603" lon="8.3701944"><ele>216.5</ele><time>2026-04-21T10:29:48.928Z</time></trkpt><trkpt lat="44.2278965" lon="8.3705842"><ele>212.0</ele><time>2026-04-21T10:29:49.925Z</time></trkpt><trkpt lat="44.227818" lon="8.3709753"><ele>210.0</ele><time>2026-04-21T10:29:50.94Z</time></trkpt><trkpt lat="44.227692" lon="8.3718501"><ele>209.0</ele><time>2026-04-21T10:29:52.932Z</time></trkpt><trkpt lat="44.2275999" lon="8.3722138"><ele>208.0</ele><time>2026-04-21T10:29:53.931Z</time></trkpt><trkpt lat="44.2274824" lon="8.3725763"><ele>208.0</ele><time>2026-04-21T10:29:54.941Z</time></trkpt><trkpt lat="44.2273748" lon="8.3729369"><ele>208.0</ele><time>2026-04-21T10:29:55.945Z</time></trkpt><trkpt lat="44.2272785" lon="8.3733134"><ele>198.5</ele><time>2026-04-21T10:29:56.939Z</time></trkpt><trkpt lat="44.2271797" lon="8.3736859"><ele>189.0</ele><time>2026-04-21T10:29:57.959Z</time></trkpt><trkpt lat="44.2270826" lon="8.3740588"><ele>186.5</ele><time>2026-04-21T10:29:58.94Z</time></trkpt><trkpt lat="44.2269858" lon="8.3744311"><ele>184.0</ele><time>2026-04-21T10:29:59.942Z</time></trkpt><trkpt lat="44.2268882" lon="8.374802"><ele>189.0</ele><time>2026-04-21T10:30:00.942Z</time></trkpt><trkpt lat="44.2267911" lon="8.375171"><ele>194.0</ele><time>2026-04-21T10:30:01.936Z</time></trkpt><trkpt lat="44.2266957" lon="8.3755413"><ele>197.5</ele><time>2026-04-21T10:30:02.952Z</time></trkpt><trkpt lat="44.2266046" lon="8.3759135"><ele>201.0</ele><time>2026-04-21T10:30:03.939Z</time></trkpt><trkpt lat="44.2265204" lon="8.3762851"><ele>185.5</ele><time>2026-04-21T10:30:04.94Z</time></trkpt><trkpt lat="44.2264484" lon="8.3766576"><ele>170.0</ele><time>2026-04-21T10:30:05.942Z</time></trkpt><trkpt lat="44.2263882" lon="8.3770313"><ele>170.5</ele><time>2026-04-21T10:30:06.949Z</time></trkpt><trkpt lat="44.2263404" lon="8.3774074"><ele>171.0</ele><time>2026-04-21T10:30:07.942Z</time></trkpt><trkpt lat="44.2262995" lon="8.3777865"><ele>174.5</ele><time>2026-04-21T10:30:08.938Z</time></trkpt><trkpt lat="44.2262694" lon="8.3781733"><ele>178.0</ele><time>2026-04-21T10:30:09.943Z</time></trkpt><trkpt lat="44.2262476" lon="8.3785628"><ele>178.0</ele><time>2026-04-21T10:30:10.942Z</time></trkpt><trkpt lat="44.2262349" lon="8.3789556"><ele>178.0</ele><time>2026-04-21T10:30:11.95Z</time></trkpt><trkpt lat="44.226233" lon="8.3797481"><ele>178.0</ele><time>2026-04-21T10:30:13.954Z</time></trkpt><trkpt lat="44.2262333" lon="8.3801461"><ele>178.0</ele><time>2026-04-21T10:30:14.944Z</time></trkpt><trkpt lat="44.22623" lon="8.3805407"><ele>173.0</ele><time>2026-04-21T10:30:15.954Z</time></trkpt><trkpt lat="44.2262258" lon="8.3809316"><ele>168.0</ele><time>2026-04-21T10:30:16.935Z</time></trkpt><trkpt lat="44.2262193" lon="8.3813163"><ele>163.5</ele><time>2026-04-21T10:30:17.941Z</time></trkpt><trkpt lat="44.2262148" lon="8.3816909"><ele>159.0</ele><time>2026-04-21T10:30:18.941Z</time></trkpt><trkpt lat="44.2262085" lon="8.3820671"><ele>163.0</ele><time>2026-04-21T10:30:19.944Z</time></trkpt><trkpt lat="44.226205" lon="8.3824434"><ele>167.0</ele><time>2026-04-21T10:30:20.95Z</time></trkpt><trkpt lat="44.2262001" lon="8.3828188"><ele>168.5</ele><time>2026-04-21T10:30:21.937Z</time></trkpt><trkpt lat="44.2261981" lon="8.3831928"><ele>170.0</ele><time>2026-04-21T10:30:22.959Z</time></trkpt><trkpt lat="44.2262023" lon="8.3835641"><ele>165.5</ele><time>2026-04-21T10:30:23.939Z</time></trkpt><trkpt lat="44.2262154" lon="8.3839344"><ele>161.0</ele><time>2026-04-21T10:30:24.934Z</time></trkpt><trkpt lat="44.2262391" lon="8.3843004"><ele>161.0</ele><time>2026-04-21T10:30:25.943Z</time></trkpt><trkpt lat="44.2262814" lon="8.3846646"><ele>161.0</ele><time>2026-04-21T10:30:26.944Z</time></trkpt><trkpt lat="44.226342" lon="8.3850228"><ele>157.5</ele><time>2026-04-21T10:30:27.954Z</time></trkpt><trkpt lat="44.2264186" lon="8.3853771"><ele>154.0</ele><time>2026-04-21T10:30:28.94Z</time></trkpt><trkpt lat="44.2265032" lon="8.3857197"><ele>171.5</ele><time>2026-04-21T10:30:29.945Z</time></trkpt><trkpt lat="44.2265913" lon="8.3860633"><ele>189.0</ele><time>2026-04-21T10:30:30.939Z</time></trkpt><trkpt lat="44.2266827" lon="8.3864118"><ele>192.0</ele><time>2026-04-21T10:30:31.942Z</time></trkpt><trkpt lat="44.226772" lon="8.3867672"><ele>195.0</ele><time>2026-04-21T10:30:32.93Z</time></trkpt><trkpt lat="44.2269781" lon="8.3874884"><ele>197.0</ele><time>2026-04-21T10:30:34.922Z</time></trkpt><trkpt lat="44.2270872" lon="8.3878498"><ele>199.0</ele><time>2026-04-21T10:30:35.929Z</time></trkpt><trkpt lat="44.2271991" lon="8.388211"><ele>182.0</ele><time>2026-04-21T10:30:36.932Z</time></trkpt><trkpt lat="44.2273161" lon="8.3885781"><ele>165.0</ele><time>2026-04-21T10:30:37.939Z</time></trkpt><trkpt lat="44.2274739" lon="8.3889626"><ele>166.0</ele><time>2026-04-21T10:30:38.946Z</time></trkpt><trkpt lat="44.2275822" lon="8.3893389"><ele>167.0</ele><time>2026-04-21T10:30:39.937Z</time></trkpt><trkpt lat="44.2276775" lon="8.3897253"><ele>167.0</ele><time>2026-04-21T10:30:40.957Z</time></trkpt><trkpt lat="44.2277539" lon="8.3901118"><ele>167.0</ele><time>2026-04-21T10:30:41.945Z</time></trkpt><trkpt lat="44.2278172" lon="8.3904888"><ele>169.0</ele><time>2026-04-21T10:30:42.94Z</time></trkpt><trkpt lat="44.2278814" lon="8.3908655"><ele>171.0</ele><time>2026-04-21T10:30:43.937Z</time></trkpt><trkpt lat="44.2279433" lon="8.391244"><ele>175.0</ele><time>2026-04-21T10:30:44.942Z</time></trkpt><trkpt lat="44.2280058" lon="8.3916203"><ele>179.0</ele><time>2026-04-21T10:30:45.949Z</time></trkpt><trkpt lat="44.2280679" lon="8.3919959"><ele>178.5</ele><time>2026-04-21T10:30:46.934Z</time></trkpt><trkpt lat="44.2281291" lon="8.3923703"><ele>178.0</ele><time>2026-04-21T10:30:47.946Z</time></trkpt><trkpt lat="44.2281898" lon="8.392746"><ele>163.0</ele><time>2026-04-21T10:30:48.953Z</time></trkpt><trkpt lat="44.2282517" lon="8.3931227"><ele>148.0</ele><time>2026-04-21T10:30:49.95Z</time></trkpt><trkpt lat="44.2283131" lon="8.3934973"><ele>146.5</ele><time>2026-04-21T10:30:50.939Z</time></trkpt><trkpt lat="44.2283759" lon="8.3938678"><ele>145.0</ele><time>2026-04-21T10:30:51.932Z</time></trkpt><trkpt lat="44.2284402" lon="8.3942364"><ele>145.0</ele><time>2026-04-21T10:30:52.947Z</time></trkpt><trkpt lat="44.2285102" lon="8.3946008"><ele>145.0</ele><time>2026-04-21T10:30:53.942Z</time></trkpt><trkpt lat="44.2286889" lon="8.3953022"><ele>149.0</ele><time>2026-04-21T10:30:55.953Z</time></trkpt><trkpt lat="44.228794" lon="8.3956433"><ele>153.0</ele><time>2026-04-21T10:30:56.936Z</time></trkpt><trkpt lat="44.2289064" lon="8.3959776"><ele>144.0</ele><time>2026-04-21T10:30:57.953Z</time></trkpt><trkpt lat="44.229038" lon="8.3962979"><ele>135.0</ele><time>2026-04-21T10:30:58.942Z</time></trkpt><trkpt lat="44.2291815" lon="8.3966074"><ele>135.0</ele><time>2026-04-21T10:30:59.935Z</time></trkpt><trkpt lat="44.2293376" lon="8.3969065"><ele>135.0</ele><time>2026-04-21T10:31:00.944Z</time></trkpt><trkpt lat="44.2295048" lon="8.3971963"><ele>139.5</ele><time>2026-04-21T10:31:01.938Z</time></trkpt><trkpt lat="44.2296795" lon="8.3974735"><ele>144.0</ele><time>2026-04-21T10:31:02.941Z</time></trkpt><trkpt lat="44.2298623" lon="8.397738"><ele>136.0</ele><time>2026-04-21T10:31:03.939Z</time></trkpt><trkpt lat="44.2300589" lon="8.3979917"><ele>128.0</ele><time>2026-04-21T10:31:04.938Z</time></trkpt><trkpt lat="44.2302682" lon="8.3982299"><ele>128.0</ele><time>2026-04-21T10:31:05.942Z</time></trkpt><trkpt lat="44.2304871" lon="8.3984489"><ele>128.0</ele><time>2026-04-21T10:31:06.948Z</time></trkpt><trkpt lat="44.2307161" lon="8.3986557"><ele>115.5</ele><time>2026-04-21T10:31:07.955Z</time></trkpt><trkpt lat="44.2309599" lon="8.3988575"><ele>103.0</ele><time>2026-04-21T10:31:08.939Z</time></trkpt><trkpt lat="44.2312123" lon="8.3990439"><ele>103.0</ele><time>2026-04-21T10:31:09.943Z</time></trkpt><trkpt lat="44.2314721" lon="8.3992084"><ele>103.0</ele><time>2026-04-21T10:31:10.936Z</time></trkpt><trkpt lat="44.2317383" lon="8.3993544"><ele>92.5</ele><time>2026-04-21T10:31:11.942Z</time></trkpt><trkpt lat="44.2320135" lon="8.3994772"><ele>82.0</ele><time>2026-04-21T10:31:12.956Z</time></trkpt><trkpt lat="44.2322931" lon="8.3995734"><ele>85.5</ele><time>2026-04-21T10:31:13.933Z</time></trkpt><trkpt lat="44.2325783" lon="8.3996498"><ele>89.0</ele><time>2026-04-21T10:31:14.95Z</time></trkpt><trkpt lat="44.233155" lon="8.3997292"><ele>89.0</ele><time>2026-04-21T10:31:16.958Z</time></trkpt><trkpt lat="44.2334448" lon="8.3997359"><ele>89.0</ele><time>2026-04-21T10:31:17.944Z</time></trkpt><trkpt lat="44.2337393" lon="8.3997242"><ele>95.0</ele><time>2026-04-21T10:31:18.944Z</time></trkpt><trkpt lat="44.2340289" lon="8.3996903"><ele>101.0</ele><time>2026-04-21T10:31:19.946Z</time></trkpt><trkpt lat="44.2343173" lon="8.3996353"><ele>108.5</ele><time>2026-04-21T10:31:20.944Z</time></trkpt><trkpt lat="44.2346087" lon="8.3995706"><ele>116.0</ele><time>2026-04-21T10:31:21.936Z</time></trkpt><trkpt lat="44.234896" lon="8.399506"><ele>119.5</ele><time>2026-04-21T10:31:22.951Z</time></trkpt><trkpt lat="44.235186" lon="8.3994332"><ele>123.0</ele><time>2026-04-21T10:31:23.934Z</time></trkpt><trkpt lat="44.2354723" lon="8.3993626"><ele>121.5</ele><time>2026-04-21T10:31:24.95Z</time></trkpt><trkpt lat="44.2357579" lon="8.3992918"><ele>120.0</ele><time>2026-04-21T10:31:25.934Z</time></trkpt><trkpt lat="44.2360455" lon="8.3992204"><ele>120.0</ele><time>2026-04-21T10:31:26.953Z</time></trkpt><trkpt lat="44.2363313" lon="8.3991565"><ele>120.0</ele><time>2026-04-21T10:31:27.944Z</time></trkpt><trkpt lat="44.236617" lon="8.3991024"><ele>115.0</ele><time>2026-04-21T10:31:28.95Z</time></trkpt><trkpt lat="44.2369031" lon="8.3990573"><ele>110.0</ele><time>2026-04-21T10:31:29.934Z</time></trkpt><trkpt lat="44.2371902" lon="8.3990256"><ele>115.5</ele><time>2026-04-21T10:31:30.939Z</time></trkpt><trkpt lat="44.2374748" lon="8.3990069"><ele>121.0</ele><time>2026-04-21T10:31:31.94Z</time></trkpt><trkpt lat="44.2377573" lon="8.398994"><ele>121.0</ele><time>2026-04-21T10:31:32.937Z</time></trkpt><trkpt lat="44.2380414" lon="8.3990118"><ele>121.0</ele><time>2026-04-21T10:31:33.927Z</time></trkpt><trkpt lat="44.2383272" lon="8.3990473"><ele>139.0</ele><time>2026-04-21T10:31:34.932Z</time></trkpt><trkpt lat="44.2386201" lon="8.3991047"><ele>157.0</ele><time>2026-04-21T10:31:35.937Z</time></trkpt><trkpt lat="44.2391947" lon="8.3993459"><ele>182.0</ele><time>2026-04-21T10:31:37.924Z</time></trkpt><trkpt lat="44.2394748" lon="8.3994266"><ele>207.0</ele><time>2026-04-21T10:31:38.92Z</time></trkpt><trkpt lat="44.239752" lon="8.3995214"><ele>228.0</ele><time>2026-04-21T10:31:39.923Z</time></trkpt><trkpt lat="44.2400267" lon="8.3996275"><ele>249.0</ele><time>2026-04-21T10:31:40.925Z</time></trkpt><trkpt lat="44.2403001" lon="8.3997424"><ele>249.0</ele><time>2026-04-21T10:31:41.924Z</time></trkpt><trkpt lat="44.2405686" lon="8.3998742"><ele>249.0</ele><time>2026-04-21T10:31:42.924Z</time></trkpt><trkpt lat="44.24083" lon="8.4000142"><ele>273.5</ele><time>2026-04-21T10:31:43.915Z</time></trkpt><trkpt lat="44.2410923" lon="8.4001688"><ele>298.0</ele><time>2026-04-21T10:31:44.924Z</time></trkpt><trkpt lat="44.2413396" lon="8.4003288"><ele>317.0</ele><time>2026-04-21T10:31:45.92Z</time></trkpt><trkpt lat="44.2415913" lon="8.4004942"><ele>336.0</ele><time>2026-04-21T10:31:46.918Z</time></trkpt><trkpt lat="44.2418412" lon="8.4006589"><ele>336.0</ele><time>2026-04-21T10:31:47.914Z</time></trkpt><trkpt lat="44.2420901" lon="8.4008176"><ele>336.0</ele><time>2026-04-21T10:31:48.91Z</time></trkpt><trkpt lat="44.242337" lon="8.4009727"><ele>354.5</ele><time>2026-04-21T10:31:49.912Z</time></trkpt><trkpt lat="44.2425809" lon="8.4011266"><ele>373.0</ele><time>2026-04-21T10:31:50.917Z</time></trkpt><trkpt lat="44.2428183" lon="8.4012818"><ele>370.5</ele><time>2026-04-21T10:31:51.911Z</time></trkpt><trkpt lat="44.2430525" lon="8.4014353"><ele>368.0</ele><time>2026-04-21T10:31:52.917Z</time></trkpt><trkpt lat="44.2432825" lon="8.4015842"><ele>387.0</ele><time>2026-04-21T10:31:53.914Z</time></trkpt><trkpt lat="44.2435095" lon="8.401731"><ele>406.0</ele><time>2026-04-21T10:31:54.92Z</time></trkpt><trkpt lat="44.243734" lon="8.4018763"><ele>100.0</ele><time>2026-04-21T10:31:55.92Z</time></trkpt><trkpt lat="44.2515624" lon="8.4066239"><ele>100.0</ele><time>2026-04-21T10:32:24.929Z</time></trkpt><trkpt lat="44.2520983" lon="8.4067826"><ele>96.0</ele><time>2026-04-21T10:32:26.937Z</time></trkpt><trkpt lat="44.252412" lon="8.4068528"><ele>92.0</ele><time>2026-04-21T10:32:27.936Z</time></trkpt><trkpt lat="44.252678" lon="8.4068909"><ele>92.0</ele><time>2026-04-21T10:32:28.939Z</time></trkpt><trkpt lat="44.2529663" lon="8.4069344"><ele>92.0</ele><time>2026-04-21T10:32:29.937Z</time></trkpt><trkpt lat="44.2532539" lon="8.4069657"><ele>88.5</ele><time>2026-04-21T10:32:30.93Z</time></trkpt><trkpt lat="44.253541" lon="8.4069767"><ele>85.0</ele><time>2026-04-21T10:32:31.935Z</time></trkpt><trkpt lat="44.2538271" lon="8.4069777"><ele>86.5</ele><time>2026-04-21T10:32:32.943Z</time></trkpt><trkpt lat="44.2541123" lon="8.4069721"><ele>88.0</ele><time>2026-04-21T10:32:33.932Z</time></trkpt><trkpt lat="44.2543992" lon="8.4069668"><ele>88.0</ele><time>2026-04-21T10:32:34.936Z</time></trkpt><trkpt lat="44.2546872" lon="8.4069663"><ele>88.0</ele><time>2026-04-21T10:32:35.926Z</time></trkpt><trkpt lat="44.254974" lon="8.4069732"><ele>84.0</ele><time>2026-04-21T10:32:36.938Z</time></trkpt><trkpt lat="44.2552631" lon="8.4069859"><ele>80.0</ele><time>2026-04-21T10:32:37.946Z</time></trkpt><trkpt lat="44.2555525" lon="8.4069946"><ele>68.5</ele><time>2026-04-21T10:32:38.942Z</time></trkpt><trkpt lat="44.2558419" lon="8.4069895"><ele>57.0</ele><time>2026-04-21T10:32:39.942Z</time></trkpt><trkpt lat="44.2561335" lon="8.4069809"><ele>57.0</ele><time>2026-04-21T10:32:40.938Z</time></trkpt><trkpt lat="44.2564272" lon="8.4069836"><ele>57.0</ele><time>2026-04-21T10:32:41.942Z</time></trkpt><trkpt lat="44.2567221" lon="8.4069865"><ele>54.0</ele><time>2026-04-21T10:32:42.944Z</time></trkpt><trkpt lat="44.2570174" lon="8.4069827"><ele>51.0</ele><time>2026-04-21T10:32:43.955Z</time></trkpt><trkpt lat="44.2573135" lon="8.4069853"><ele>51.0</ele><time>2026-04-21T10:32:44.943Z</time></trkpt><trkpt lat="44.2576088" lon="8.4069908"><ele>51.0</ele><time>2026-04-21T10:32:45.943Z</time></trkpt><trkpt lat="44.2582008" lon="8.4069787"><ele>62.5</ele><time>2026-04-21T10:32:47.933Z</time></trkpt><trkpt lat="44.2584939" lon="8.4069815"><ele>74.0</ele><time>2026-04-21T10:32:48.937Z</time></trkpt><trkpt lat="44.2587887" lon="8.406987"><ele>82.0</ele><time>2026-04-21T10:32:49.939Z</time></trkpt><trkpt lat="44.2590831" lon="8.4069999"><ele>90.0</ele><time>2026-04-21T10:32:50.954Z</time></trkpt><trkpt lat="44.2593765" lon="8.4070333"><ele>90.0</ele><time>2026-04-21T10:32:51.933Z</time></trkpt><trkpt lat="44.2596643" lon="8.4070924"><ele>90.0</ele><time>2026-04-21T10:32:52.949Z</time></trkpt><trkpt lat="44.259956" lon="8.4071783"><ele>85.5</ele><time>2026-04-21T10:32:53.942Z</time></trkpt><trkpt lat="44.2602391" lon="8.4072772"><ele>81.0</ele><time>2026-04-21T10:32:54.942Z</time></trkpt><trkpt lat="44.2605211" lon="8.4073958"><ele>80.0</ele><time>2026-04-21T10:32:55.938Z</time></trkpt><trkpt lat="44.2607981" lon="8.4075359"><ele>79.0</ele><time>2026-04-21T10:32:56.95Z</time></trkpt><trkpt lat="44.2610685" lon="8.4076972"><ele>79.0</ele><time>2026-04-21T10:32:57.949Z</time></trkpt><trkpt lat="44.2613301" lon="8.40788"><ele>79.0</ele><time>2026-04-21T10:32:58.945Z</time></trkpt><trkpt lat="44.2615861" lon="8.4080806"><ele>71.5</ele><time>2026-04-21T10:32:59.943Z</time></trkpt><trkpt lat="44.261839" lon="8.4082977"><ele>64.0</ele><time>2026-04-21T10:33:00.936Z</time></trkpt><trkpt lat="44.2620844" lon="8.408518"><ele>65.5</ele><time>2026-04-21T10:33:01.943Z</time></trkpt><trkpt lat="44.2623144" lon="8.4087517"><ele>67.0</ele><time>2026-04-21T10:33:02.943Z</time></trkpt><trkpt lat="44.2625398" lon="8.4090059"><ele>67.0</ele><time>2026-04-21T10:33:03.943Z</time></trkpt><trkpt lat="44.2627583" lon="8.4092748"><ele>67.0</ele><time>2026-04-21T10:33:04.942Z</time></trkpt><trkpt lat="44.2629677" lon="8.4095552"><ele>64.5</ele><time>2026-04-21T10:33:05.947Z</time></trkpt><trkpt lat="44.2631719" lon="8.4098486"><ele>62.0</ele><time>2026-04-21T10:33:06.941Z</time></trkpt><trkpt lat="44.2635341" lon="8.4104935"><ele>57.0</ele><time>2026-04-21T10:33:08.939Z</time></trkpt><trkpt lat="44.2636979" lon="8.4108359"><ele>52.0</ele><time>2026-04-21T10:33:09.942Z</time></trkpt><trkpt lat="44.2638593" lon="8.4111819"><ele>56.5</ele><time>2026-04-21T10:33:10.94Z</time></trkpt><trkpt lat="44.2640226" lon="8.4115301"><ele>61.0</ele><time>2026-04-21T10:33:11.96Z</time></trkpt><trkpt lat="44.264183" lon="8.4118735"><ele>58.5</ele><time>2026-04-21T10:33:12.944Z</time></trkpt><trkpt lat="44.2643435" lon="8.4122148"><ele>56.0</ele><time>2026-04-21T10:33:13.94Z</time></trkpt><trkpt lat="44.2645077" lon="8.4125521"><ele>56.0</ele><time>2026-04-21T10:33:14.953Z</time></trkpt><trkpt lat="44.2646769" lon="8.4128847"><ele>56.0</ele><time>2026-04-21T10:33:15.941Z</time></trkpt><trkpt lat="44.2648477" lon="8.4132104"><ele>54.5</ele><time>2026-04-21T10:33:16.96Z</time></trkpt><trkpt lat="44.2650221" lon="8.4135329"><ele>53.0</ele><time>2026-04-21T10:33:17.943Z</time></trkpt><trkpt lat="44.2652037" lon="8.4138481"><ele>53.0</ele><time>2026-04-21T10:33:18.936Z</time></trkpt><trkpt lat="44.2653913" lon="8.4141539"><ele>53.0</ele><time>2026-04-21T10:33:19.952Z</time></trkpt><trkpt lat="44.2655873" lon="8.4144502"><ele>55.5</ele><time>2026-04-21T10:33:20.942Z</time></trkpt><trkpt lat="44.2657893" lon="8.414739"><ele>58.0</ele><time>2026-04-21T10:33:21.944Z</time></trkpt><trkpt lat="44.2659958" lon="8.4150172"><ele>58.0</ele><time>2026-04-21T10:33:22.956Z</time></trkpt><trkpt lat="44.26621" lon="8.415287"><ele>58.0</ele><time>2026-04-21T10:33:23.944Z</time></trkpt><trkpt lat="44.2664297" lon="8.4155461"><ele>61.5</ele><time>2026-04-21T10:33:24.942Z</time></trkpt><trkpt lat="44.2666559" lon="8.4157954"><ele>65.0</ele><time>2026-04-21T10:33:25.94Z</time></trkpt><trkpt lat="44.2668872" lon="8.416031"><ele>65.0</ele><time>2026-04-21T10:33:26.94Z</time></trkpt><trkpt lat="44.2671238" lon="8.4162527"><ele>65.0</ele><time>2026-04-21T10:33:27.948Z</time></trkpt><trkpt lat="44.2676005" lon="8.4166898"><ele>59.5</ele><time>2026-04-21T10:33:29.938Z</time></trkpt><trkpt lat="44.2678417" lon="8.4169037"><ele>54.0</ele><time>2026-04-21T10:33:30.961Z</time></trkpt><trkpt lat="44.2680841" lon="8.41712"><ele>55.5</ele><time>2026-04-21T10:33:31.942Z</time></trkpt><trkpt lat="44.2683266" lon="8.4173383"><ele>57.0</ele><time>2026-04-21T10:33:32.943Z</time></trkpt><trkpt lat="44.2685679" lon="8.4175596"><ele>57.0</ele><time>2026-04-21T10:33:33.949Z</time></trkpt><trkpt lat="44.268809" lon="8.4177805"><ele>57.0</ele><time>2026-04-21T10:33:34.95Z</time></trkpt><trkpt lat="44.2690517" lon="8.4180011"><ele>52.5</ele><time>2026-04-21T10:33:35.955Z</time></trkpt><trkpt lat="44.2692969" lon="8.4182253"><ele>48.0</ele><time>2026-04-21T10:33:36.952Z</time></trkpt><trkpt lat="44.2695464" lon="8.418452"><ele>48.0</ele><time>2026-04-21T10:33:37.953Z</time></trkpt><trkpt lat="44.2697964" lon="8.4186789"><ele>48.0</ele><time>2026-04-21T10:33:38.953Z</time></trkpt><trkpt lat="44.2700459" lon="8.4189059"><ele>48.0</ele><time>2026-04-21T10:33:39.937Z</time></trkpt><trkpt lat="44.2702944" lon="8.419134"><ele>48.0</ele><time>2026-04-21T10:33:40.95Z</time></trkpt><trkpt lat="44.270541" lon="8.4193657"><ele>47.5</ele><time>2026-04-21T10:33:41.939Z</time></trkpt><trkpt lat="44.2707867" lon="8.4195976"><ele>47.0</ele><time>2026-04-21T10:33:42.944Z</time></trkpt><trkpt lat="44.271034" lon="8.4198288"><ele>47.0</ele><time>2026-04-21T10:33:43.937Z</time></trkpt><trkpt lat="44.2712791" lon="8.4200624"><ele>47.0</ele><time>2026-04-21T10:33:44.943Z</time></trkpt><trkpt lat="44.2715217" lon="8.4202997"><ele>43.0</ele><time>2026-04-21T10:33:45.954Z</time></trkpt><trkpt lat="44.2717619" lon="8.4205442"><ele>39.0</ele><time>2026-04-21T10:33:46.944Z</time></trkpt><trkpt lat="44.271998" lon="8.4207979"><ele>39.0</ele><time>2026-04-21T10:33:47.95Z</time></trkpt><trkpt lat="44.2722268" lon="8.421062"><ele>39.0</ele><time>2026-04-21T10:33:48.936Z</time></trkpt><trkpt lat="44.2726666" lon="8.4216201"><ele>33.5</ele><time>2026-04-21T10:33:50.945Z</time></trkpt><trkpt lat="44.2728753" lon="8.4219119"><ele>28.0</ele><time>2026-04-21T10:33:51.936Z</time></trkpt><trkpt lat="44.2730784" lon="8.4222137"><ele>25.5</ele><time>2026-04-21T10:33:52.937Z</time></trkpt><trkpt lat="44.2732802" lon="8.4225232"><ele>23.0</ele><time>2026-04-21T10:33:53.945Z</time></trkpt><trkpt lat="44.2734816" lon="8.4228337"><ele>23.0</ele><time>2026-04-21T10:33:54.944Z</time></trkpt><trkpt lat="44.2736853" lon="8.4231438"><ele>23.0</ele><time>2026-04-21T10:33:55.944Z</time></trkpt><trkpt lat="44.2738893" lon="8.4234518"><ele>24.5</ele><time>2026-04-21T10:33:56.952Z</time></trkpt><trkpt lat="44.2740945" lon="8.4237576"><ele>26.0</ele><time>2026-04-21T10:33:57.952Z</time></trkpt><trkpt lat="44.274301" lon="8.4240613"><ele>26.0</ele><time>2026-04-21T10:33:58.937Z</time></trkpt><trkpt lat="44.2745071" lon="8.4243657"><ele>26.0</ele><time>2026-04-21T10:33:59.943Z</time></trkpt><trkpt lat="44.2747128" lon="8.4246708"><ele>26.0</ele><time>2026-04-21T10:34:00.95Z</time></trkpt><trkpt lat="44.2749187" lon="8.4249755"><ele>26.0</ele><time>2026-04-21T10:34:01.95Z</time></trkpt><trkpt lat="44.2751248" lon="8.4252771"><ele>23.5</ele><time>2026-04-21T10:34:02.943Z</time></trkpt><trkpt lat="44.2753301" lon="8.4255757"><ele>21.0</ele><time>2026-04-21T10:34:03.96Z</time></trkpt><trkpt lat="44.2755321" lon="8.4258721"><ele>20.0</ele><time>2026-04-21T10:34:04.943Z</time></trkpt><trkpt lat="44.275731" lon="8.4261698"><ele>19.0</ele><time>2026-04-21T10:34:05.952Z</time></trkpt><trkpt lat="44.2759309" lon="8.4264663"><ele>19.0</ele><time>2026-04-21T10:34:06.942Z</time></trkpt><trkpt lat="44.2761335" lon="8.4267546"><ele>19.0</ele><time>2026-04-21T10:34:07.938Z</time></trkpt><trkpt lat="44.2763389" lon="8.4270312"><ele>17.5</ele><time>2026-04-21T10:34:08.942Z</time></trkpt><trkpt lat="44.2765472" lon="8.4272973"><ele>16.0</ele><time>2026-04-21T10:34:09.945Z</time></trkpt><trkpt lat="44.276989" lon="8.4277981"><ele>15.5</ele><time>2026-04-21T10:34:11.94Z</time></trkpt><trkpt lat="44.2772244" lon="8.4280268"><ele>15.0</ele><time>2026-04-21T10:34:12.953Z</time></trkpt><trkpt lat="44.2774672" lon="8.4282347"><ele>17.0</ele><time>2026-04-21T10:34:13.956Z</time></trkpt><trkpt lat="44.2777101" lon="8.4284202"><ele>19.0</ele><time>2026-04-21T10:34:14.961Z</time></trkpt><trkpt lat="44.2779612" lon="8.428583"><ele>18.0</ele><time>2026-04-21T10:34:15.963Z</time></trkpt><trkpt lat="44.2782234" lon="8.4287339"><ele>17.0</ele><time>2026-04-21T10:34:16.94Z</time></trkpt><trkpt lat="44.2784856" lon="8.4288694"><ele>17.0</ele><time>2026-04-21T10:34:17.944Z</time></trkpt><trkpt lat="44.278752" lon="8.4289894"><ele>17.0</ele><time>2026-04-21T10:34:18.952Z</time></trkpt><trkpt lat="44.2790177" lon="8.4290987"><ele>17.0</ele><time>2026-04-21T10:34:19.937Z</time></trkpt><trkpt lat="44.2792843" lon="8.4292014"><ele>17.0</ele><time>2026-04-21T10:34:20.959Z</time></trkpt><trkpt lat="44.2795509" lon="8.4292985"><ele>15.5</ele><time>2026-04-21T10:34:21.952Z</time></trkpt><trkpt lat="44.2798202" lon="8.4293947"><ele>14.0</ele><time>2026-04-21T10:34:22.944Z</time></trkpt><trkpt lat="44.2800878" lon="8.4294923"><ele>14.0</ele><time>2026-04-21T10:34:23.936Z</time></trkpt><trkpt lat="44.2803537" lon="8.4295938"><ele>14.0</ele><time>2026-04-21T10:34:24.94Z</time></trkpt><trkpt lat="44.2806201" lon="8.4297"><ele>11.5</ele><time>2026-04-21T10:34:25.94Z</time></trkpt><trkpt lat="44.2808841" lon="8.4298177"><ele>9.0</ele><time>2026-04-21T10:34:26.944Z</time></trkpt><trkpt lat="44.281145" lon="8.4299467"><ele>9.0</ele><time>2026-04-21T10:34:27.953Z</time></trkpt><trkpt lat="44.2813997" lon="8.4300968"><ele>9.0</ele><time>2026-04-21T10:34:28.95Z</time></trkpt><trkpt lat="44.2816469" lon="8.4302756"><ele>9.0</ele><time>2026-04-21T10:34:29.943Z</time></trkpt><trkpt lat="44.2818858" lon="8.4304796"><ele>9.0</ele><time>2026-04-21T10:34:30.959Z</time></trkpt><trkpt lat="44.2823357" lon="8.4309545"><ele>9.5</ele><time>2026-04-21T10:34:32.955Z</time></trkpt><trkpt lat="44.2825505" lon="8.4312174"><ele>10.0</ele><time>2026-04-21T10:34:33.961Z</time></trkpt><trkpt lat="44.2827612" lon="8.4314788"><ele>8.5</ele><time>2026-04-21T10:34:34.935Z</time></trkpt><trkpt lat="44.2829715" lon="8.431738"><ele>7.0</ele><time>2026-04-21T10:34:35.949Z</time></trkpt><trkpt lat="44.2831786" lon="8.4319927"><ele>8.0</ele><time>2026-04-21T10:34:36.949Z</time></trkpt><trkpt lat="44.2833829" lon="8.4322478"><ele>9.0</ele><time>2026-04-21T10:34:37.94Z</time></trkpt><trkpt lat="44.2835832" lon="8.4325025"><ele>9.0</ele><time>2026-04-21T10:34:38.95Z</time></trkpt><trkpt lat="44.2837765" lon="8.4327484"><ele>9.0</ele><time>2026-04-21T10:34:39.941Z</time></trkpt><trkpt lat="44.2839575" lon="8.4329799"><ele>8.666666666666666</ele><time>2026-04-21T10:34:40.957Z</time></trkpt><trkpt lat="44.2841288" lon="8.4331955"><ele>8.333333333333332</ele><time>2026-04-21T10:34:41.942Z</time></trkpt><trkpt lat="44.2842902" lon="8.4333968"><ele>8.0</ele><time>2026-04-21T10:34:42.957Z</time></trkpt><trkpt lat="44.2844394" lon="8.433583"><ele>8.0</ele><time>2026-04-21T10:34:43.955Z</time></trkpt><trkpt lat="44.2845853" lon="8.4337658"><ele>8.0</ele><time>2026-04-21T10:34:44.939Z</time></trkpt><trkpt lat="44.2847275" lon="8.433949"><ele>8.0</ele><time>2026-04-21T10:34:45.953Z</time></trkpt><trkpt lat="44.284871" lon="8.4341329"><ele>8.333333333333332</ele><time>2026-04-21T10:34:46.94Z</time></trkpt><trkpt lat="44.2850124" lon="8.4343136"><ele>8.666666666666666</ele><time>2026-04-21T10:34:47.954Z</time></trkpt><trkpt lat="44.2851511" lon="8.4344903"><ele>9.0</ele><time>2026-04-21T10:34:48.942Z</time></trkpt><trkpt lat="44.2852908" lon="8.4346625"><ele>8.333333333333334</ele><time>2026-04-21T10:34:49.943Z</time></trkpt><trkpt lat="44.2854283" lon="8.4348324"><ele>7.666666666666667</ele><time>2026-04-21T10:34:50.941Z</time></trkpt><trkpt lat="44.2855625" lon="8.4350043"><ele>7.0</ele><time>2026-04-21T10:34:51.945Z</time></trkpt><trkpt lat="44.2858311" lon="8.4353555"><ele>8.666666666666668</ele><time>2026-04-21T10:34:53.944Z</time></trkpt><trkpt lat="44.2859641" lon="8.4355351"><ele>10.333333333333334</ele><time>2026-04-21T10:34:54.941Z</time></trkpt><trkpt lat="44.2860956" lon="8.4357208"><ele>12.0</ele><time>2026-04-21T10:34:55.944Z</time></trkpt><trkpt lat="44.2862218" lon="8.4359134"><ele>12.0</ele><time>2026-04-21T10:34:56.941Z</time></trkpt><trkpt lat="44.2863405" lon="8.4361125"><ele>12.0</ele><time>2026-04-21T10:34:57.941Z</time></trkpt><trkpt lat="44.2864574" lon="8.4363215"><ele>12.0</ele><time>2026-04-21T10:34:58.944Z</time></trkpt><trkpt lat="44.2865791" lon="8.4365365"><ele>13.333333333333332</ele><time>2026-04-21T10:34:59.946Z</time></trkpt><trkpt lat="44.2866951" lon="8.4367661"><ele>14.666666666666666</ele><time>2026-04-21T10:35:00.939Z</time></trkpt><trkpt lat="44.2867916" lon="8.4369999"><ele>16.0</ele><time>2026-04-21T10:35:01.94Z</time></trkpt><trkpt lat="44.2868782" lon="8.4372332"><ele>16.0</ele><time>2026-04-21T10:35:02.944Z</time></trkpt><trkpt lat="44.286965" lon="8.4374717"><ele>16.0</ele><time>2026-04-21T10:35:03.943Z</time></trkpt><trkpt lat="44.2870554" lon="8.4377183"><ele>16.0</ele><time>2026-04-21T10:35:04.942Z</time></trkpt><trkpt lat="44.2871405" lon="8.4379734"><ele>15.666666666666666</ele><time>2026-04-21T10:35:05.951Z</time></trkpt><trkpt lat="44.2872056" lon="8.438235"><ele>15.333333333333332</ele><time>2026-04-21T10:35:06.944Z</time></trkpt><trkpt lat="44.2872333" lon="8.4384939"><ele>15.0</ele><time>2026-04-21T10:35:07.938Z</time></trkpt><trkpt lat="44.2872138" lon="8.4387421"><ele>15.666666666666668</ele><time>2026-04-21T10:35:08.954Z</time></trkpt><trkpt lat="44.2871631" lon="8.4389753"><ele>16.333333333333336</ele><time>2026-04-21T10:35:09.959Z</time></trkpt><trkpt lat="44.2870765" lon="8.4391807"><ele>17.0</ele><time>2026-04-21T10:35:10.955Z</time></trkpt><trkpt lat="44.2869705" lon="8.4393799"><ele>17.0</ele><time>2026-04-21T10:35:11.939Z</time></trkpt><trkpt lat="44.286875" lon="8.4395722"><ele>17.0</ele><time>2026-04-21T10:35:12.94Z</time></trkpt><trkpt lat="44.2867535" lon="8.4399603"><ele>17.25</ele><time>2026-04-21T10:35:14.943Z</time></trkpt><trkpt lat="44.2867235" lon="8.4401538"><ele>17.5</ele><time>2026-04-21T10:35:15.953Z</time></trkpt><trkpt lat="44.2867118" lon="8.4403315"><ele>17.75</ele><time>2026-04-21T10:35:16.95Z</time></trkpt><trkpt lat="44.2867038" lon="8.4404915"><ele>18.0</ele><time>2026-04-21T10:35:17.941Z</time></trkpt><trkpt lat="44.2866935" lon="8.4406317"><ele>18.166666666666668</ele><time>2026-04-21T10:35:18.944Z</time></trkpt><trkpt lat="44.2866711" lon="8.4407599"><ele>18.333333333333332</ele><time>2026-04-21T10:35:19.943Z</time></trkpt><trkpt lat="44.2866528" lon="8.4408753"><ele>18.5</ele><time>2026-04-21T10:35:20.954Z</time></trkpt><trkpt lat="44.2866445" lon="8.4409791"><ele>18.666666666666664</ele><time>2026-04-21T10:35:21.954Z</time></trkpt><trkpt lat="44.2866388" lon="8.4410724"><ele>18.833333333333332</ele><time>2026-04-21T10:35:22.956Z</time></trkpt><trkpt lat="44.2866389" lon="8.4412294"><ele>19.0</ele><time>2026-04-21T10:35:24.956Z</time></trkpt><trkpt lat="44.2866458" lon="8.4413518"><ele>19.6</ele><time>2026-04-21T10:35:26.944Z</time></trkpt><trkpt lat="44.2866498" lon="8.4414467"><ele>20.2</ele><time>2026-04-21T10:35:28.943Z</time></trkpt><trkpt lat="44.2866451" lon="8.4415806"><ele>20.8</ele><time>2026-04-21T10:37:30.932Z</time></trkpt><trkpt lat="44.2866296" lon="8.4418461"><ele>21.400000000000002</ele><time>2026-04-21T10:37:34.943Z</time></trkpt><trkpt lat="44.2865944" lon="8.4419244"><ele>22.0</ele><time>2026-04-21T10:37:36.943Z</time></trkpt><trkpt lat="44.2866411" lon="8.4419974"><ele>22.6</ele><time>2026-04-21T10:40:12.954Z</time></trkpt><trkpt lat="44.2866736" lon="8.4421655"><ele>23.200000000000003</ele><time>2026-04-21T10:40:16.945Z</time></trkpt><trkpt lat="44.2867076" lon="8.4422609"><ele>23.8</ele><time>2026-04-21T10:40:27.946Z</time></trkpt><trkpt lat="44.2868096" lon="8.4423846"><ele>24.4</ele><time>2026-04-21T10:40:29.944Z</time></trkpt><trkpt lat="44.28685" lon="8.4424923"><ele>25.0</ele><time>2026-04-21T10:40:30.947Z</time></trkpt><trkpt lat="44.2868681" lon="8.4426459"><ele>25.0</ele><time>2026-04-21T10:40:31.953Z</time></trkpt><trkpt lat="44.2868596" lon="8.4428282"><ele>25.0</ele><time>2026-04-21T10:40:32.942Z</time></trkpt><trkpt lat="44.2868326" lon="8.4430074"><ele>25.0</ele><time>2026-04-21T10:40:33.945Z</time></trkpt><trkpt lat="44.2866746" lon="8.4433066"><ele>25.25</ele><time>2026-04-21T10:40:35.956Z</time></trkpt><trkpt lat="44.2865806" lon="8.4434474"><ele>25.5</ele><time>2026-04-21T10:40:36.939Z</time></trkpt><trkpt lat="44.2864955" lon="8.4435855"><ele>25.75</ele><time>2026-04-21T10:40:37.941Z</time></trkpt><trkpt lat="44.2864464" lon="8.4437126"><ele>26.0</ele><time>2026-04-21T10:40:38.952Z</time></trkpt><trkpt lat="44.2864347" lon="8.4438355"><ele>26.4</ele><time>2026-04-21T10:40:39.943Z</time></trkpt><trkpt lat="44.2864503" lon="8.4439437"><ele>26.8</ele><time>2026-04-21T10:40:40.952Z</time></trkpt><trkpt lat="44.2864779" lon="8.4440294"><ele>27.199999999999996</ele><time>2026-04-21T10:40:41.935Z</time></trkpt><trkpt lat="44.2865387" lon="8.4441178"><ele>27.599999999999998</ele><time>2026-04-21T10:40:43.937Z</time></trkpt><trkpt lat="44.2866152" lon="8.4443048"><ele>28.0</ele><time>2026-04-21T10:40:45.939Z</time></trkpt><trkpt lat="44.2866721" lon="8.444467"><ele>27.666666666666668</ele><time>2026-04-21T10:40:46.938Z</time></trkpt><trkpt lat="44.2867391" lon="8.4446696"><ele>27.333333333333336</ele><time>2026-04-21T10:40:47.944Z</time></trkpt><trkpt lat="44.2868032" lon="8.4448644"><ele>27.0</ele><time>2026-04-21T10:40:48.934Z</time></trkpt><trkpt lat="44.286863" lon="8.4450579"><ele>27.0</ele><time>2026-04-21T10:40:49.937Z</time></trkpt><trkpt lat="44.2869315" lon="8.4452624"><ele>27.0</ele><time>2026-04-21T10:40:50.938Z</time></trkpt><trkpt lat="44.2869994" lon="8.4454468"><ele>27.0</ele><time>2026-04-21T10:40:51.936Z</time></trkpt><trkpt lat="44.2870778" lon="8.445621"><ele>25.333333333333332</ele><time>2026-04-21T10:40:52.943Z</time></trkpt><trkpt lat="44.2871698" lon="8.4457909"><ele>23.666666666666664</ele><time>2026-04-21T10:40:53.934Z</time></trkpt><trkpt lat="44.2872755" lon="8.4459616"><ele>22.0</ele><time>2026-04-21T10:40:54.932Z</time></trkpt><trkpt lat="44.2874775" lon="8.4462986"><ele>20.666666666666664</ele><time>2026-04-21T10:40:56.936Z</time></trkpt><trkpt lat="44.2875735" lon="8.4464789"><ele>19.333333333333332</ele><time>2026-04-21T10:40:57.931Z</time></trkpt><trkpt lat="44.2876763" lon="8.4466676"><ele>18.0</ele><time>2026-04-21T10:40:58.94Z</time></trkpt><trkpt lat="44.287789" lon="8.4468649"><ele>18.0</ele><time>2026-04-21T10:40:59.936Z</time></trkpt><trkpt lat="44.287905" lon="8.4470618"><ele>18.0</ele><time>2026-04-21T10:41:00.937Z</time></trkpt><trkpt lat="44.288019" lon="8.447254"><ele>18.0</ele><time>2026-04-21T10:41:01.938Z</time></trkpt><trkpt lat="44.2881235" lon="8.4474328"><ele>19.25</ele><time>2026-04-21T10:41:02.941Z</time></trkpt><trkpt lat="44.2882195" lon="8.4475932"><ele>20.5</ele><time>2026-04-21T10:41:03.935Z</time></trkpt><trkpt lat="44.2883074" lon="8.4477333"><ele>21.75</ele><time>2026-04-21T10:41:04.936Z</time></trkpt><trkpt lat="44.2883834" lon="8.4478475"><ele>23.0</ele><time>2026-04-21T10:41:05.932Z</time></trkpt><trkpt lat="44.2884447" lon="8.4479376"><ele>21.4</ele><time>2026-04-21T10:41:06.932Z</time></trkpt><trkpt lat="44.2884878" lon="8.448003"><ele>19.799999999999997</ele><time>2026-04-21T10:41:07.939Z</time></trkpt><trkpt lat="44.2885416" lon="8.4480764"><ele>18.2</ele><time>2026-04-21T10:41:09.938Z</time></trkpt><trkpt lat="44.2886035" lon="8.4481625"><ele>16.6</ele><time>2026-04-21T10:41:12.945Z</time></trkpt><trkpt lat="44.288712" lon="8.4483081"><ele>15.0</ele><time>2026-04-21T10:41:14.937Z</time></trkpt><trkpt lat="44.288784" lon="8.4484212"><ele>14.333333333333332</ele><time>2026-04-21T10:41:15.935Z</time></trkpt><trkpt lat="44.2889376" lon="8.448668"><ele>13.666666666666666</ele><time>2026-04-21T10:41:17.937Z</time></trkpt><trkpt lat="44.2890154" lon="8.44878"><ele>13.0</ele><time>2026-04-21T10:41:18.938Z</time></trkpt><trkpt lat="44.2891021" lon="8.4488903"><ele>13.0</ele><time>2026-04-21T10:41:19.942Z</time></trkpt><trkpt lat="44.289199" lon="8.4490013"><ele>13.0</ele><time>2026-04-21T10:41:20.943Z</time></trkpt><trkpt lat="44.2893041" lon="8.4491167"><ele>13.0</ele><time>2026-04-21T10:41:21.937Z</time></trkpt><trkpt lat="44.2894127" lon="8.4492327"><ele>13.0</ele><time>2026-04-21T10:41:22.933Z</time></trkpt><trkpt lat="44.2895252" lon="8.449349"><ele>13.0</ele><time>2026-04-21T10:41:23.933Z</time></trkpt><trkpt lat="44.2896403" lon="8.4494636"><ele>13.0</ele><time>2026-04-21T10:41:24.938Z</time></trkpt><trkpt lat="44.2897568" lon="8.4495735"><ele>13.0</ele><time>2026-04-21T10:41:25.938Z</time></trkpt><trkpt lat="44.2898756" lon="8.4496833"><ele>13.0</ele><time>2026-04-21T10:41:26.938Z</time></trkpt><trkpt lat="44.2899957" lon="8.4497888"><ele>12.75</ele><time>2026-04-21T10:41:27.938Z</time></trkpt><trkpt lat="44.2901172" lon="8.4498861"><ele>12.5</ele><time>2026-04-21T10:41:28.937Z</time></trkpt><trkpt lat="44.2902383" lon="8.4499751"><ele>12.25</ele><time>2026-04-21T10:41:29.934Z</time></trkpt><trkpt lat="44.2903565" lon="8.4500629"><ele>12.0</ele><time>2026-04-21T10:41:30.938Z</time></trkpt><trkpt lat="44.290472" lon="8.4501484"><ele>12.0</ele><time>2026-04-21T10:41:31.936Z</time></trkpt><trkpt lat="44.2905888" lon="8.4502311"><ele>12.0</ele><time>2026-04-21T10:41:32.939Z</time></trkpt><trkpt lat="44.2907102" lon="8.4503076"><ele>12.0</ele><time>2026-04-21T10:41:33.933Z</time></trkpt><trkpt lat="44.2908329" lon="8.4503709"><ele>12.0</ele><time>2026-04-21T10:41:34.942Z</time></trkpt><trkpt lat="44.2909564" lon="8.450421"><ele>12.333333333333332</ele><time>2026-04-21T10:41:35.938Z</time></trkpt><trkpt lat="44.2910835" lon="8.4504578"><ele>12.666666666666666</ele><time>2026-04-21T10:41:36.934Z</time></trkpt><trkpt lat="44.2913132" lon="8.4504992"><ele>13.0</ele><time>2026-04-21T10:41:38.935Z</time></trkpt><trkpt lat="44.2914055" lon="8.4505106"><ele>12.999999999999998</ele><time>2026-04-21T10:41:39.931Z</time></trkpt><trkpt lat="44.2914921" lon="8.4505179"><ele>13.0</ele><time>2026-04-21T10:41:40.936Z</time></trkpt><trkpt lat="44.2915732" lon="8.450524"><ele>13.0</ele><time>2026-04-21T10:41:41.938Z</time></trkpt><trkpt lat="44.2916588" lon="8.4505305"><ele>13.0</ele><time>2026-04-21T10:41:42.94Z</time></trkpt><trkpt lat="44.2917493" lon="8.450543"><ele>12.999999999999998</ele><time>2026-04-21T10:41:43.939Z</time></trkpt><trkpt lat="44.2918494" lon="8.4505603"><ele>13.0</ele><time>2026-04-21T10:41:44.933Z</time></trkpt><trkpt lat="44.2919564" lon="8.4505796"><ele>13.0</ele><time>2026-04-21T10:41:45.939Z</time></trkpt><trkpt lat="44.2920581" lon="8.4505958"><ele>13.0</ele><time>2026-04-21T10:41:46.933Z</time></trkpt><trkpt lat="44.29216" lon="8.4506176"><ele>13.0</ele><time>2026-04-21T10:41:47.939Z</time></trkpt><trkpt lat="44.2922619" lon="8.4506521"><ele>13.0</ele><time>2026-04-21T10:41:48.939Z</time></trkpt><trkpt lat="44.2923611" lon="8.450693"><ele>13.0</ele><time>2026-04-21T10:41:49.938Z</time></trkpt><trkpt lat="44.292467" lon="8.4507433"><ele>12.5</ele><time>2026-04-21T10:41:50.936Z</time></trkpt><trkpt lat="44.2925768" lon="8.4508049"><ele>12.0</ele><time>2026-04-21T10:41:51.94Z</time></trkpt><trkpt lat="44.2926848" lon="8.4508791"><ele>11.5</ele><time>2026-04-21T10:41:52.933Z</time></trkpt><trkpt lat="44.2927861" lon="8.4509627"><ele>11.0</ele><time>2026-04-21T10:41:53.934Z</time></trkpt><trkpt lat="44.2928716" lon="8.4510465"><ele>11.0</ele><time>2026-04-21T10:41:54.937Z</time></trkpt><trkpt lat="44.2929416" lon="8.4511205"><ele>11.0</ele><time>2026-04-21T10:41:55.94Z</time></trkpt><trkpt lat="44.2929993" lon="8.4511861"><ele>11.0</ele><time>2026-04-21T10:41:56.939Z</time></trkpt><trkpt lat="44.2930508" lon="8.451245"><ele>11.0</ele><time>2026-04-21T10:41:57.936Z</time></trkpt><trkpt lat="44.2931496" lon="8.4513692"><ele>11.0</ele><time>2026-04-21T10:41:59.935Z</time></trkpt><trkpt lat="44.2931989" lon="8.4514373"><ele>11.0</ele><time>2026-04-21T10:42:00.94Z</time></trkpt><trkpt lat="44.2932487" lon="8.4515078"><ele>10.714285714285715</ele><time>2026-04-21T10:42:01.935Z</time></trkpt><trkpt lat="44.2932998" lon="8.4515823"><ele>10.428571428571429</ele><time>2026-04-21T10:42:02.934Z</time></trkpt><trkpt lat="44.2933481" lon="8.4516544"><ele>10.142857142857142</ele><time>2026-04-21T10:42:03.934Z</time></trkpt><trkpt lat="44.2933935" lon="8.4517268"><ele>9.857142857142858</ele><time>2026-04-21T10:42:04.939Z</time></trkpt><trkpt lat="44.2934403" lon="8.4518056"><ele>9.571428571428571</ele><time>2026-04-21T10:42:05.938Z</time></trkpt><trkpt lat="44.2934869" lon="8.4518842"><ele>9.285714285714286</ele><time>2026-04-21T10:42:06.933Z</time></trkpt><trkpt lat="44.2935318" lon="8.4519576"><ele>9.0</ele><time>2026-04-21T10:42:07.935Z</time></trkpt><trkpt lat="44.2936056" lon="8.4520901"><ele>9.0</ele><time>2026-04-21T10:42:09.932Z</time></trkpt><trkpt lat="44.2936591" lon="8.4522114"><ele>9.0</ele><time>2026-04-21T10:42:11.937Z</time></trkpt><trkpt lat="44.2936716" lon="8.4523352"><ele>9.0</ele><time>2026-04-21T10:42:13.937Z</time></trkpt><trkpt lat="44.2936114" lon="8.4524888"><ele>9.0</ele><time>2026-04-21T10:42:15.936Z</time></trkpt><trkpt lat="44.2935582" lon="8.4525821"><ele>9.0</ele><time>2026-04-21T10:42:16.937Z</time></trkpt><trkpt lat="44.2934991" lon="8.4526863"><ele>9.0</ele><time>2026-04-21T10:42:17.935Z</time></trkpt><trkpt lat="44.2934598" lon="8.4527905"><ele>9.0</ele><time>2026-04-21T10:42:18.941Z</time></trkpt><trkpt lat="44.2935249" lon="8.4530372"><ele>9.0</ele><time>2026-04-21T10:42:21.944Z</time></trkpt><trkpt lat="44.2935959" lon="8.4531053"><ele>9.0</ele><time>2026-04-21T10:42:22.936Z</time></trkpt><trkpt lat="44.2936763" lon="8.4531831"><ele>9.0</ele><time>2026-04-21T10:42:23.933Z</time></trkpt><trkpt lat="44.2937602" lon="8.4532769"><ele>9.0</ele><time>2026-04-21T10:42:24.935Z</time></trkpt><trkpt lat="44.2938446" lon="8.4533827"><ele>9.0</ele><time>2026-04-21T10:42:25.935Z</time></trkpt><trkpt lat="44.2939224" lon="8.4534886"><ele>9.0</ele><time>2026-04-21T10:42:26.939Z</time></trkpt><trkpt lat="44.2939924" lon="8.4535833"><ele>9.0</ele><time>2026-04-21T10:42:27.934Z</time></trkpt><trkpt lat="44.2940597" lon="8.4536716"><ele>9.0</ele><time>2026-04-21T10:42:28.932Z</time></trkpt><trkpt lat="44.2941325" lon="8.4537616"><ele>9.0</ele><time>2026-04-21T10:42:29.933Z</time></trkpt><trkpt lat="44.2942153" lon="8.4538637"><ele>9.0</ele><time>2026-04-21T10:42:30.936Z</time></trkpt><trkpt lat="44.2942999" lon="8.4539805"><ele>9.0</ele><time>2026-04-21T10:42:31.932Z</time></trkpt><trkpt lat="44.2943779" lon="8.4541058"><ele>9.0</ele><time>2026-04-21T10:42:32.942Z</time></trkpt><trkpt lat="44.2944445" lon="8.4542158"><ele>9.0</ele><time>2026-04-21T10:42:33.934Z</time></trkpt><trkpt lat="44.2945033" lon="8.4543103"><ele>9.0</ele><time>2026-04-21T10:42:34.938Z</time></trkpt><trkpt lat="44.2945558" lon="8.4544013"><ele>9.0</ele><time>2026-04-21T10:42:35.933Z</time></trkpt><trkpt lat="44.2945946" lon="8.4544946"><ele>9.0</ele><time>2026-04-21T10:42:36.929Z</time></trkpt><trkpt lat="44.2946269" lon="8.454586"><ele>9.0</ele><time>2026-04-21T10:42:37.931Z</time></trkpt><trkpt lat="44.2946639" lon="8.4546702"><ele>9.0</ele><time>2026-04-21T10:42:38.94Z</time></trkpt><trkpt lat="44.2947103" lon="8.4547431"><ele>9.0</ele><time>2026-04-21T10:42:39.931Z</time></trkpt><trkpt lat="44.2948107" lon="8.4548826"><ele>9.0</ele><time>2026-04-21T10:42:41.936Z</time></trkpt><trkpt lat="44.2948642" lon="8.4549607"><ele>9.0</ele><time>2026-04-21T10:42:42.94Z</time></trkpt><trkpt lat="44.2949156" lon="8.455039"><ele>9.0</ele><time>2026-04-21T10:42:43.933Z</time></trkpt><trkpt lat="44.2949649" lon="8.4551168"><ele>9.0</ele><time>2026-04-21T10:42:44.939Z</time></trkpt><trkpt lat="44.2950154" lon="8.4551947"><ele>9.0</ele><time>2026-04-21T10:42:45.941Z</time></trkpt><trkpt lat="44.2950655" lon="8.4552653"><ele>9.000000000000002</ele><time>2026-04-21T10:42:46.941Z</time></trkpt><trkpt lat="44.2951161" lon="8.4553182"><ele>9.0</ele><time>2026-04-21T10:42:47.931Z</time></trkpt><trkpt lat="44.2951724" lon="8.4553618"><ele>9.0</ele><time>2026-04-21T10:42:48.936Z</time></trkpt><trkpt lat="44.2952314" lon="8.4554045"><ele>9.0</ele><time>2026-04-21T10:42:49.936Z</time></trkpt><trkpt lat="44.2952887" lon="8.4554568"><ele>9.0</ele><time>2026-04-21T10:42:50.94Z</time></trkpt><trkpt lat="44.2953453" lon="8.4555315"><ele>9.000000000000002</ele><time>2026-04-21T10:42:51.934Z</time></trkpt><trkpt lat="44.2954027" lon="8.4556229"><ele>9.0</ele><time>2026-04-21T10:42:52.942Z</time></trkpt><trkpt lat="44.2954588" lon="8.4557223"><ele>8.8</ele><time>2026-04-21T10:42:53.944Z</time></trkpt><trkpt lat="44.2955134" lon="8.4558228"><ele>8.600000000000001</ele><time>2026-04-21T10:42:54.941Z</time></trkpt><trkpt lat="44.295569" lon="8.4559216"><ele>8.4</ele><time>2026-04-21T10:42:55.939Z</time></trkpt><trkpt lat="44.2956259" lon="8.4560227"><ele>8.200000000000001</ele><time>2026-04-21T10:42:56.938Z</time></trkpt><trkpt lat="44.2956873" lon="8.4561274"><ele>8.0</ele><time>2026-04-21T10:42:57.944Z</time></trkpt><trkpt lat="44.2957519" lon="8.4562363"><ele>8.0</ele><time>2026-04-21T10:42:58.94Z</time></trkpt><trkpt lat="44.2958139" lon="8.4563378"><ele>8.0</ele><time>2026-04-21T10:42:59.942Z</time></trkpt><trkpt lat="44.295871" lon="8.4564215"><ele>8.0</ele><time>2026-04-21T10:43:00.937Z</time></trkpt><trkpt lat="44.2959902" lon="8.4565961"><ele>8.0</ele><time>2026-04-21T10:43:02.938Z</time></trkpt><trkpt lat="44.2960491" lon="8.4566972"><ele>8.0</ele><time>2026-04-21T10:43:03.936Z</time></trkpt><trkpt lat="44.2961038" lon="8.4567923"><ele>8.0</ele><time>2026-04-21T10:43:04.941Z</time></trkpt><trkpt lat="44.2961534" lon="8.4568774"><ele>8.0</ele><time>2026-04-21T10:43:05.936Z</time></trkpt><trkpt lat="44.2962148" lon="8.4569849"><ele>8.0</ele><time>2026-04-21T10:43:07.936Z</time></trkpt><trkpt lat="44.2962614" lon="8.4570583"><ele>8.0</ele><time>2026-04-21T10:43:15.948Z</time></trkpt><trkpt lat="44.296354" lon="8.4572234"><ele>8.0</ele><time>2026-04-21T10:43:17.934Z</time></trkpt><trkpt lat="44.2964196" lon="8.4573523"><ele>8.0</ele><time>2026-04-21T10:43:18.936Z</time></trkpt><trkpt lat="44.2965034" lon="8.457502"><ele>8.0</ele><time>2026-04-21T10:43:19.935Z</time></trkpt><trkpt lat="44.2966068" lon="8.4576755"><ele>8.0</ele><time>2026-04-21T10:43:20.939Z</time></trkpt><trkpt lat="44.2967061" lon="8.4578509"><ele>9.0</ele><time>2026-04-21T10:43:21.941Z</time></trkpt><trkpt lat="44.2969003" lon="8.458204"><ele>10.0</ele><time>2026-04-21T10:43:23.938Z</time></trkpt><trkpt lat="44.2970001" lon="8.45838"><ele>10.0</ele><time>2026-04-21T10:43:24.94Z</time></trkpt><trkpt lat="44.2971015" lon="8.4585567"><ele>10.0</ele><time>2026-04-21T10:43:25.942Z</time></trkpt><trkpt lat="44.297205" lon="8.4587362"><ele>10.0</ele><time>2026-04-21T10:43:26.933Z</time></trkpt><trkpt lat="44.2973069" lon="8.458915"><ele>9.666666666666668</ele><time>2026-04-21T10:43:27.942Z</time></trkpt><trkpt lat="44.2974114" lon="8.4590934"><ele>9.333333333333334</ele><time>2026-04-21T10:43:28.938Z</time></trkpt><trkpt lat="44.2975147" lon="8.4592745"><ele>9.0</ele><time>2026-04-21T10:43:29.938Z</time></trkpt><trkpt lat="44.2976137" lon="8.4594592"><ele>9.0</ele><time>2026-04-21T10:43:30.938Z</time></trkpt><trkpt lat="44.297709" lon="8.4596486"><ele>9.0</ele><time>2026-04-21T10:43:31.932Z</time></trkpt><trkpt lat="44.2978007" lon="8.4598426"><ele>9.0</ele><time>2026-04-21T10:43:32.941Z</time></trkpt><trkpt lat="44.2978911" lon="8.4600376"><ele>9.0</ele><time>2026-04-21T10:43:33.939Z</time></trkpt><trkpt lat="44.2979821" lon="8.4602321"><ele>9.0</ele><time>2026-04-21T10:43:34.938Z</time></trkpt><trkpt lat="44.2980699" lon="8.4604266"><ele>9.0</ele><time>2026-04-21T10:43:35.936Z</time></trkpt><trkpt lat="44.2981524" lon="8.4606269"><ele>9.0</ele><time>2026-04-21T10:43:36.938Z</time></trkpt><trkpt lat="44.2982291" lon="8.4608298"><ele>9.0</ele><time>2026-04-21T10:43:37.939Z</time></trkpt><trkpt lat="44.2983008" lon="8.4610274"><ele>9.0</ele><time>2026-04-21T10:43:38.936Z</time></trkpt><trkpt lat="44.2983646" lon="8.4612047"><ele>9.0</ele><time>2026-04-21T10:43:39.94Z</time></trkpt><trkpt lat="44.2984251" lon="8.4613737"><ele>9.0</ele><time>2026-04-21T10:43:40.936Z</time></trkpt><trkpt lat="44.2984863" lon="8.4615563"><ele>9.0</ele><time>2026-04-21T10:43:41.937Z</time></trkpt><trkpt lat="44.2985466" lon="8.4617485"><ele>9.0</ele><time>2026-04-21T10:43:42.936Z</time></trkpt><trkpt lat="44.2986543" lon="8.46211"><ele>9.0</ele><time>2026-04-21T10:43:44.936Z</time></trkpt><trkpt lat="44.2986999" lon="8.46226"><ele>9.0</ele><time>2026-04-21T10:43:45.936Z</time></trkpt><trkpt lat="44.2987315" lon="8.462384"><ele>9.0</ele><time>2026-04-21T10:43:46.938Z</time></trkpt><trkpt lat="44.29875" lon="8.4625049"><ele>9.0</ele><time>2026-04-21T10:43:48.942Z</time></trkpt><trkpt lat="44.298722" lon="8.4626374"><ele>9.0</ele><time>2026-04-21T10:43:50.932Z</time></trkpt><trkpt lat="44.2986894" lon="8.4627438"><ele>9.0</ele><time>2026-04-21T10:43:51.942Z</time></trkpt><trkpt lat="44.2986541" lon="8.462863"><ele>9.0</ele><time>2026-04-21T10:43:52.94Z</time></trkpt><trkpt lat="44.2986332" lon="8.4629875"><ele>9.0</ele><time>2026-04-21T10:43:53.934Z</time></trkpt><trkpt lat="44.298651" lon="8.4631317"><ele>9.0</ele><time>2026-04-21T10:43:54.935Z</time></trkpt><trkpt lat="44.2987034" lon="8.4632793"><ele>9.0</ele><time>2026-04-21T10:43:55.944Z</time></trkpt><trkpt lat="44.2987823" lon="8.4634239"><ele>8.75</ele><time>2026-04-21T10:43:56.937Z</time></trkpt><trkpt lat="44.2988761" lon="8.4635735"><ele>8.5</ele><time>2026-04-21T10:43:57.938Z</time></trkpt><trkpt lat="44.2989746" lon="8.4637296"><ele>8.25</ele><time>2026-04-21T10:43:58.936Z</time></trkpt><trkpt lat="44.2990757" lon="8.4638979"><ele>8.0</ele><time>2026-04-21T10:43:59.942Z</time></trkpt><trkpt lat="44.299177" lon="8.4640777"><ele>8.0</ele><time>2026-04-21T10:44:00.938Z</time></trkpt><trkpt lat="44.2992769" lon="8.4642541"><ele>8.0</ele><time>2026-04-21T10:44:01.939Z</time></trkpt><trkpt lat="44.2993732" lon="8.4644252"><ele>8.0</ele><time>2026-04-21T10:44:02.933Z</time></trkpt><trkpt lat="44.2994675" lon="8.4645952"><ele>8.333333333333332</ele><time>2026-04-21T10:44:03.936Z</time></trkpt><trkpt lat="44.2996428" lon="8.4649116"><ele>8.666666666666666</ele><time>2026-04-21T10:44:05.939Z</time></trkpt><trkpt lat="44.2997255" lon="8.4650588"><ele>9.0</ele><time>2026-04-21T10:44:06.938Z</time></trkpt><trkpt lat="44.2998056" lon="8.4652"><ele>9.0</ele><time>2026-04-21T10:44:07.936Z</time></trkpt><trkpt lat="44.2998858" lon="8.4653383"><ele>9.0</ele><time>2026-04-21T10:44:08.934Z</time></trkpt><trkpt lat="44.2999659" lon="8.4654694"><ele>9.0</ele><time>2026-04-21T10:44:09.941Z</time></trkpt><trkpt lat="44.3000439" lon="8.4655905"><ele>9.0</ele><time>2026-04-21T10:44:10.941Z</time></trkpt><trkpt lat="44.3001163" lon="8.4657013"><ele>9.0</ele><time>2026-04-21T10:44:11.932Z</time></trkpt><trkpt lat="44.3001851" lon="8.4658061"><ele>9.0</ele><time>2026-04-21T10:44:12.943Z</time></trkpt><trkpt lat="44.3002533" lon="8.4659099"><ele>9.0</ele><time>2026-04-21T10:44:13.939Z</time></trkpt><trkpt lat="44.3003246" lon="8.4660121"><ele>9.0</ele><time>2026-04-21T10:44:14.934Z</time></trkpt><trkpt lat="44.3003974" lon="8.4661208"><ele>9.0</ele><time>2026-04-21T10:44:15.934Z</time></trkpt><trkpt lat="44.3004717" lon="8.4662344"><ele>9.0</ele><time>2026-04-21T10:44:16.931Z</time></trkpt><trkpt lat="44.3005477" lon="8.466351"><ele>9.0</ele><time>2026-04-21T10:44:17.932Z</time></trkpt><trkpt lat="44.3006216" lon="8.4664685"><ele>9.0</ele><time>2026-04-21T10:44:18.943Z</time></trkpt><trkpt lat="44.3006927" lon="8.4665887"><ele>9.0</ele><time>2026-04-21T10:44:19.937Z</time></trkpt><trkpt lat="44.3007635" lon="8.4667181"><ele>9.25</ele><time>2026-04-21T10:44:20.937Z</time></trkpt><trkpt lat="44.3008338" lon="8.4668511"><ele>9.5</ele><time>2026-04-21T10:44:21.942Z</time></trkpt><trkpt lat="44.3009012" lon="8.4669865"><ele>9.75</ele><time>2026-04-21T10:44:22.944Z</time></trkpt><trkpt lat="44.3009662" lon="8.4671221"><ele>10.0</ele><time>2026-04-21T10:44:23.935Z</time></trkpt><trkpt lat="44.3010321" lon="8.4672539"><ele>10.25</ele><time>2026-04-21T10:44:24.935Z</time></trkpt><trkpt lat="44.3011688" lon="8.4675007"><ele>10.5</ele><time>2026-04-21T10:44:26.938Z</time></trkpt><trkpt lat="44.3012366" lon="8.4676203"><ele>10.75</ele><time>2026-04-21T10:44:27.942Z</time></trkpt><trkpt lat="44.3013013" lon="8.4677338"><ele>11.0</ele><time>2026-04-21T10:44:28.939Z</time></trkpt><trkpt lat="44.3013627" lon="8.4678381"><ele>11.0</ele><time>2026-04-21T10:44:29.944Z</time></trkpt><trkpt lat="44.3014198" lon="8.4679335"><ele>11.0</ele><time>2026-04-21T10:44:30.934Z</time></trkpt><trkpt lat="44.3014717" lon="8.4680227"><ele>11.0</ele><time>2026-04-21T10:44:31.935Z</time></trkpt><trkpt lat="44.3015228" lon="8.4681125"><ele>11.0</ele><time>2026-04-21T10:44:32.945Z</time></trkpt><trkpt lat="44.3015796" lon="8.468209"><ele>11.0</ele><time>2026-04-21T10:44:33.934Z</time></trkpt><trkpt lat="44.3016382" lon="8.4683108"><ele>11.0</ele><time>2026-04-21T10:44:34.941Z</time></trkpt><trkpt lat="44.3016966" lon="8.4684133"><ele>11.0</ele><time>2026-04-21T10:44:35.934Z</time></trkpt><trkpt lat="44.3017578" lon="8.4685132"><ele>11.0</ele><time>2026-04-21T10:44:36.937Z</time></trkpt><trkpt lat="44.3018224" lon="8.4686049"><ele>11.0</ele><time>2026-04-21T10:44:37.943Z</time></trkpt><trkpt lat="44.3018917" lon="8.468685"><ele>11.0</ele><time>2026-04-21T10:44:38.933Z</time></trkpt><trkpt lat="44.301968" lon="8.4687512"><ele>11.0</ele><time>2026-04-21T10:44:39.932Z</time></trkpt><trkpt lat="44.3020488" lon="8.4687978"><ele>11.0</ele><time>2026-04-21T10:44:40.935Z</time></trkpt><trkpt lat="44.3021286" lon="8.4688317"><ele>11.0</ele><time>2026-04-21T10:44:41.94Z</time></trkpt><trkpt lat="44.3022033" lon="8.4688624"><ele>11.0</ele><time>2026-04-21T10:44:42.938Z</time></trkpt><trkpt lat="44.3022701" lon="8.4688879"><ele>11.0</ele><time>2026-04-21T10:44:43.935Z</time></trkpt><trkpt lat="44.3023648" lon="8.4689231"><ele>11.0</ele><time>2026-04-21T10:44:45.937Z</time></trkpt><trkpt lat="44.3025518" lon="8.4689999"><ele>11.0</ele><time>2026-04-21T10:44:54.938Z</time></trkpt><trkpt lat="44.3026248" lon="8.4691128"><ele>11.0</ele><time>2026-04-21T10:44:56.937Z</time></trkpt><trkpt lat="44.3026521" lon="8.4692267"><ele>11.0</ele><time>2026-04-21T10:44:58.932Z</time></trkpt><trkpt lat="44.3026745" lon="8.4694348"><ele>11.0</ele><time>2026-04-21T10:45:00.929Z</time></trkpt><trkpt lat="44.3026867" lon="8.4695888"><ele>11.5</ele><time>2026-04-21T10:45:01.931Z</time></trkpt><trkpt lat="44.3026787" lon="8.4697158"><ele>12.0</ele><time>2026-04-21T10:45:02.935Z</time></trkpt><trkpt lat="44.3026718" lon="8.469834"><ele>12.5</ele><time>2026-04-21T10:45:03.931Z</time></trkpt><trkpt lat="44.3026491" lon="8.4699336"><ele>13.0</ele><time>2026-04-21T10:45:04.94Z</time></trkpt><trkpt lat="44.3026183" lon="8.4700267"><ele>13.500000000000002</ele><time>2026-04-21T10:45:05.935Z</time></trkpt><trkpt lat="44.3025832" lon="8.4701297"><ele>14.0</ele><time>2026-04-21T10:45:06.936Z</time></trkpt><trkpt lat="44.3025857" lon="8.4703312"><ele>14.0</ele><time>2026-04-21T10:45:08.934Z</time></trkpt><trkpt lat="44.3026123" lon="8.4704382"><ele>13.999999999999998</ele><time>2026-04-21T10:45:09.932Z</time></trkpt><trkpt lat="44.3026423" lon="8.4705559"><ele>13.999999999999998</ele><time>2026-04-21T10:45:10.934Z</time></trkpt><trkpt lat="44.3026724" lon="8.4706786"><ele>14.0</ele><time>2026-04-21T10:45:11.93Z</time></trkpt><trkpt lat="44.3027048" lon="8.4708119"><ele>14.0</ele><time>2026-04-21T10:45:12.933Z</time></trkpt><trkpt lat="44.3027387" lon="8.4709607"><ele>14.25</ele><time>2026-04-21T10:45:13.939Z</time></trkpt><trkpt lat="44.3027652" lon="8.4711247"><ele>14.5</ele><time>2026-04-21T10:45:14.94Z</time></trkpt><trkpt lat="44.3027962" lon="8.4712934"><ele>14.75</ele><time>2026-04-21T10:45:15.938Z</time></trkpt><trkpt lat="44.3028277" lon="8.4714594"><ele>15.0</ele><time>2026-04-21T10:45:16.94Z</time></trkpt><trkpt lat="44.3028605" lon="8.4716252"><ele>15.0</ele><time>2026-04-21T10:45:17.941Z</time></trkpt><trkpt lat="44.302892" lon="8.471788"><ele>15.0</ele><time>2026-04-21T10:45:18.936Z</time></trkpt><trkpt lat="44.3029183" lon="8.4719438"><ele>15.0</ele><time>2026-04-21T10:45:19.947Z</time></trkpt><trkpt lat="44.3029444" lon="8.4720895"><ele>15.0</ele><time>2026-04-21T10:45:20.94Z</time></trkpt><trkpt lat="44.3029694" lon="8.4722242"><ele>15.0</ele><time>2026-04-21T10:45:21.936Z</time></trkpt><trkpt lat="44.3029954" lon="8.4723549"><ele>14.8</ele><time>2026-04-21T10:45:22.944Z</time></trkpt><trkpt lat="44.3030227" lon="8.4724873"><ele>14.6</ele><time>2026-04-21T10:45:23.934Z</time></trkpt><trkpt lat="44.3030493" lon="8.4726262"><ele>14.399999999999999</ele><time>2026-04-21T10:45:24.936Z</time></trkpt><trkpt lat="44.3030794" lon="8.4727724"><ele>14.2</ele><time>2026-04-21T10:45:25.933Z</time></trkpt><trkpt lat="44.3031102" lon="8.4729221"><ele>14.0</ele><time>2026-04-21T10:45:26.941Z</time></trkpt><trkpt lat="44.3031391" lon="8.4730663"><ele>14.0</ele><time>2026-04-21T10:45:27.934Z</time></trkpt><trkpt lat="44.3031947" lon="8.4733238"><ele>13.999999999999998</ele><time>2026-04-21T10:45:29.941Z</time></trkpt><trkpt lat="44.3032213" lon="8.4734394"><ele>13.999999999999998</ele><time>2026-04-21T10:45:30.938Z</time></trkpt><trkpt lat="44.303248" lon="8.4735503"><ele>14.0</ele><time>2026-04-21T10:45:31.932Z</time></trkpt><trkpt lat="44.3032755" lon="8.4736593"><ele>14.0</ele><time>2026-04-21T10:45:32.937Z</time></trkpt><trkpt lat="44.3033023" lon="8.473773"><ele>14.0</ele><time>2026-04-21T10:45:33.934Z</time></trkpt><trkpt lat="44.3033277" lon="8.4738948"><ele>13.999999999999998</ele><time>2026-04-21T10:45:34.936Z</time></trkpt><trkpt lat="44.3033554" lon="8.4740247"><ele>13.999999999999998</ele><time>2026-04-21T10:45:35.93Z</time></trkpt><trkpt lat="44.3033867" lon="8.4741607"><ele>14.0</ele><time>2026-04-21T10:45:36.933Z</time></trkpt><trkpt lat="44.3034204" lon="8.4743029"><ele>14.0</ele><time>2026-04-21T10:45:37.93Z</time></trkpt><trkpt lat="44.3034572" lon="8.4744555"><ele>14.75</ele><time>2026-04-21T10:45:38.933Z</time></trkpt><trkpt lat="44.3035018" lon="8.4746264"><ele>15.5</ele><time>2026-04-21T10:45:39.934Z</time></trkpt><trkpt lat="44.3035551" lon="8.4748185"><ele>16.25</ele><time>2026-04-21T10:45:40.934Z</time></trkpt><trkpt lat="44.3036055" lon="8.4750154"><ele>17.0</ele><time>2026-04-21T10:45:41.934Z</time></trkpt><trkpt lat="44.3036441" lon="8.4752007"><ele>17.0</ele><time>2026-04-21T10:45:42.937Z</time></trkpt><trkpt lat="44.3036871" lon="8.47538"><ele>17.0</ele><time>2026-04-21T10:45:43.935Z</time></trkpt><trkpt lat="44.3037298" lon="8.47556"><ele>17.0</ele><time>2026-04-21T10:45:44.937Z</time></trkpt><trkpt lat="44.3037725" lon="8.4757542"><ele>17.0</ele><time>2026-04-21T10:45:45.942Z</time></trkpt><trkpt lat="44.3038103" lon="8.4759616"><ele>15.666666666666668</ele><time>2026-04-21T10:45:46.936Z</time></trkpt><trkpt lat="44.3038467" lon="8.4761651"><ele>14.333333333333332</ele><time>2026-04-21T10:45:47.942Z</time></trkpt><trkpt lat="44.3038785" lon="8.4763572"><ele>13.0</ele><time>2026-04-21T10:45:48.941Z</time></trkpt><trkpt lat="44.3039376" lon="8.4766843"><ele>12.8</ele><time>2026-04-21T10:45:50.938Z</time></trkpt><trkpt lat="44.3039587" lon="8.4768263"><ele>12.600000000000001</ele><time>2026-04-21T10:45:51.943Z</time></trkpt><trkpt lat="44.3039821" lon="8.4769549"><ele>12.399999999999999</ele><time>2026-04-21T10:45:52.942Z</time></trkpt><trkpt lat="44.304008" lon="8.4770786"><ele>12.2</ele><time>2026-04-21T10:45:53.933Z</time></trkpt><trkpt lat="44.3040345" lon="8.4772016"><ele>12.0</ele><time>2026-04-21T10:45:54.937Z</time></trkpt><trkpt lat="44.3040611" lon="8.4773239"><ele>11.5</ele><time>2026-04-21T10:45:55.94Z</time></trkpt><trkpt lat="44.3040867" lon="8.4774436"><ele>11.0</ele><time>2026-04-21T10:45:56.936Z</time></trkpt><trkpt lat="44.3041133" lon="8.4775649"><ele>10.5</ele><time>2026-04-21T10:45:57.94Z</time></trkpt><trkpt lat="44.304134" lon="8.4776887"><ele>10.0</ele><time>2026-04-21T10:45:58.943Z</time></trkpt><trkpt lat="44.3041607" lon="8.4778074"><ele>9.5</ele><time>2026-04-21T10:45:59.934Z</time></trkpt><trkpt lat="44.3041852" lon="8.4779183"><ele>9.0</ele><time>2026-04-21T10:46:00.933Z</time></trkpt><trkpt lat="44.3042028" lon="8.4780145"><ele>8.75</ele><time>2026-04-21T10:46:01.933Z</time></trkpt><trkpt lat="44.3042288" lon="8.4781592"><ele>8.5</ele><time>2026-04-21T10:46:03.935Z</time></trkpt><trkpt lat="44.3042481" lon="8.4782611"><ele>8.25</ele><time>2026-04-21T10:46:06.937Z</time></trkpt><trkpt lat="44.3042758" lon="8.4783413"><ele>8.0</ele><time>2026-04-21T10:46:39.936Z</time></trkpt><trkpt lat="44.3043339" lon="8.4787035"><ele>9.25</ele><time>2026-04-21T10:46:42.939Z</time></trkpt><trkpt lat="44.3043696" lon="8.4788982"><ele>10.5</ele><time>2026-04-21T10:46:43.933Z</time></trkpt><trkpt lat="44.3044106" lon="8.4790973"><ele>11.75</ele><time>2026-04-21T10:46:44.931Z</time></trkpt><trkpt lat="44.3044547" lon="8.4792876"><ele>13.0</ele><time>2026-04-21T10:46:45.944Z</time></trkpt><trkpt lat="44.3044965" lon="8.4794793"><ele>13.75</ele><time>2026-04-21T10:46:46.945Z</time></trkpt><trkpt lat="44.3045365" lon="8.4796672"><ele>14.5</ele><time>2026-04-21T10:46:47.954Z</time></trkpt><trkpt lat="44.3045761" lon="8.4798508"><ele>15.25</ele><time>2026-04-21T10:46:48.942Z</time></trkpt><trkpt lat="44.3046129" lon="8.4800341"><ele>16.0</ele><time>2026-04-21T10:46:49.94Z</time></trkpt><trkpt lat="44.3046477" lon="8.4802161"><ele>16.0</ele><time>2026-04-21T10:46:50.943Z</time></trkpt><trkpt lat="44.3046823" lon="8.4803963"><ele>16.0</ele><time>2026-04-21T10:46:51.953Z</time></trkpt><trkpt lat="44.304716" lon="8.4805792"><ele>16.0</ele><time>2026-04-21T10:46:52.955Z</time></trkpt><trkpt lat="44.3047546" lon="8.4807611"><ele>16.0</ele><time>2026-04-21T10:46:53.944Z</time></trkpt><trkpt lat="44.3047936" lon="8.4809431"><ele>14.75</ele><time>2026-04-21T10:46:54.933Z</time></trkpt><trkpt lat="44.3048291" lon="8.4811255"><ele>13.5</ele><time>2026-04-21T10:46:55.95Z</time></trkpt><trkpt lat="44.304864" lon="8.4813052"><ele>12.25</ele><time>2026-04-21T10:46:56.954Z</time></trkpt><trkpt lat="44.3048974" lon="8.4814823"><ele>11.0</ele><time>2026-04-21T10:46:57.95Z</time></trkpt><trkpt lat="44.304923" lon="8.4816588"><ele>10.666666666666666</ele><time>2026-04-21T10:46:58.947Z</time></trkpt><trkpt lat="44.3049509" lon="8.4818378"><ele>10.333333333333334</ele><time>2026-04-21T10:46:59.951Z</time></trkpt><trkpt lat="44.3049765" lon="8.4820167"><ele>10.0</ele><time>2026-04-21T10:47:00.95Z</time></trkpt><trkpt lat="44.3050773" lon="8.4823491"><ele>10.0</ele><time>2026-04-21T10:47:02.943Z</time></trkpt><trkpt lat="44.3051578" lon="8.4825014"><ele>10.0</ele><time>2026-04-21T10:47:03.955Z</time></trkpt><trkpt lat="44.305244" lon="8.4826485"><ele>10.0</ele><time>2026-04-21T10:47:04.935Z</time></trkpt><trkpt lat="44.30533" lon="8.4827983"><ele>10.0</ele><time>2026-04-21T10:47:05.949Z</time></trkpt><trkpt lat="44.3054163" lon="8.4829471"><ele>9.75</ele><time>2026-04-21T10:47:06.95Z</time></trkpt><trkpt lat="44.3054986" lon="8.4830917"><ele>9.5</ele><time>2026-04-21T10:47:07.933Z</time></trkpt><trkpt lat="44.3055834" lon="8.4832273"><ele>9.25</ele><time>2026-04-21T10:47:08.949Z</time></trkpt><trkpt lat="44.3056588" lon="8.4833504"><ele>9.0</ele><time>2026-04-21T10:47:09.943Z</time></trkpt><trkpt lat="44.3057243" lon="8.4834627"><ele>9.0</ele><time>2026-04-21T10:47:10.951Z</time></trkpt><trkpt lat="44.3057793" lon="8.4835673"><ele>9.0</ele><time>2026-04-21T10:47:11.939Z</time></trkpt><trkpt lat="44.3058297" lon="8.4836645"><ele>9.0</ele><time>2026-04-21T10:47:12.942Z</time></trkpt><trkpt lat="44.3058676" lon="8.4837596"><ele>9.0</ele><time>2026-04-21T10:47:13.943Z</time></trkpt><trkpt lat="44.3058868" lon="8.4838584"><ele>9.0</ele><time>2026-04-21T10:47:14.934Z</time></trkpt><trkpt lat="44.3058873" lon="8.4839491"><ele>9.0</ele><time>2026-04-21T10:47:15.949Z</time></trkpt><trkpt lat="44.3058574" lon="8.484078"><ele>8.8</ele><time>2026-04-21T10:47:17.955Z</time></trkpt><trkpt lat="44.3058543" lon="8.4841746"><ele>8.600000000000001</ele><time>2026-04-21T10:47:19.938Z</time></trkpt><trkpt lat="44.3059106" lon="8.4842517"><ele>8.4</ele><time>2026-04-21T10:47:21.943Z</time></trkpt><trkpt lat="44.3060811" lon="8.4842841"><ele>8.200000000000001</ele><time>2026-04-21T10:47:24.941Z</time></trkpt><trkpt lat="44.3061499" lon="8.4842954"><ele>8.0</ele><time>2026-04-21T10:47:25.943Z</time></trkpt><trkpt lat="44.3062098" lon="8.4843289"><ele>7.999999999999999</ele><time>2026-04-21T10:47:26.943Z</time></trkpt><trkpt lat="44.3062606" lon="8.4843874"><ele>8.0</ele><time>2026-04-21T10:47:27.938Z</time></trkpt><trkpt lat="44.3063138" lon="8.4844611"><ele>8.0</ele><time>2026-04-21T10:47:28.944Z</time></trkpt><trkpt lat="44.3063763" lon="8.4845424"><ele>8.0</ele><time>2026-04-21T10:47:29.948Z</time></trkpt><trkpt lat="44.306448" lon="8.4846359"><ele>7.999999999999999</ele><time>2026-04-21T10:47:30.943Z</time></trkpt><trkpt lat="44.3065173" lon="8.484733"><ele>8.0</ele><time>2026-04-21T10:47:31.942Z</time></trkpt><trkpt lat="44.3065766" lon="8.4848164"><ele>8.0</ele><time>2026-04-21T10:47:32.942Z</time></trkpt><trkpt lat="44.3066479" lon="8.484905"><ele>8.0</ele><time>2026-04-21T10:47:34.935Z</time></trkpt><trkpt lat="44.3067276" lon="8.4849689"><ele>8.0</ele><time>2026-04-21T10:47:49.949Z</time></trkpt><trkpt lat="44.3068922" lon="8.4850904"><ele>8.0</ele><time>2026-04-21T10:47:52.935Z</time></trkpt><trkpt lat="44.3069608" lon="8.4851338"><ele>8.0</ele><time>2026-04-21T10:47:53.941Z</time></trkpt><trkpt lat="44.3070385" lon="8.4851761"><ele>7.999999999999999</ele><time>2026-04-21T10:47:54.942Z</time></trkpt><trkpt lat="44.3071223" lon="8.4852174"><ele>8.0</ele><time>2026-04-21T10:47:55.943Z</time></trkpt><trkpt lat="44.307208" lon="8.485246"><ele>8.0</ele><time>2026-04-21T10:47:56.94Z</time></trkpt><trkpt lat="44.3072942" lon="8.4852604"><ele>8.0</ele><time>2026-04-21T10:47:57.943Z</time></trkpt><trkpt lat="44.3073766" lon="8.4852529"><ele>7.999999999999999</ele><time>2026-04-21T10:47:58.941Z</time></trkpt><trkpt lat="44.307453" lon="8.4852282"><ele>8.0</ele><time>2026-04-21T10:47:59.947Z</time></trkpt><trkpt lat="44.3075238" lon="8.4851893"><ele>7.833333333333333</ele><time>2026-04-21T10:48:00.953Z</time></trkpt><trkpt lat="44.3075959" lon="8.4851389"><ele>7.666666666666666</ele><time>2026-04-21T10:48:01.941Z</time></trkpt><trkpt lat="44.3076706" lon="8.4850794"><ele>7.5</ele><time>2026-04-21T10:48:02.956Z</time></trkpt><trkpt lat="44.3077464" lon="8.4850132"><ele>7.333333333333334</ele><time>2026-04-21T10:48:03.947Z</time></trkpt><trkpt lat="44.3078223" lon="8.4849455"><ele>7.166666666666667</ele><time>2026-04-21T10:48:04.954Z</time></trkpt><trkpt lat="44.3078939" lon="8.4848821"><ele>7.0</ele><time>2026-04-21T10:48:05.943Z</time></trkpt><trkpt lat="44.30796" lon="8.4848245"><ele>7.0</ele><time>2026-04-21T10:48:06.942Z</time></trkpt><trkpt lat="44.308032" lon="8.4847744"><ele>6.999999999999999</ele><time>2026-04-21T10:48:07.941Z</time></trkpt><trkpt lat="44.3081123" lon="8.4847298"><ele>6.999999999999999</ele><time>2026-04-21T10:48:08.95Z</time></trkpt><trkpt lat="44.3081971" lon="8.4846926"><ele>7.0</ele><time>2026-04-21T10:48:09.942Z</time></trkpt><trkpt lat="44.3082853" lon="8.4846595"><ele>7.0</ele><time>2026-04-21T10:48:10.942Z</time></trkpt><trkpt lat="44.308462" lon="8.4846146"><ele>6.666666666666667</ele><time>2026-04-21T10:48:12.947Z</time></trkpt><trkpt lat="44.3085549" lon="8.4846023"><ele>6.333333333333334</ele><time>2026-04-21T10:48:13.937Z</time></trkpt><trkpt lat="44.3086473" lon="8.4845976"><ele>6.0</ele><time>2026-04-21T10:48:14.942Z</time></trkpt><trkpt lat="44.3087305" lon="8.4846023"><ele>5.666666666666667</ele><time>2026-04-21T10:48:15.943Z</time></trkpt><trkpt lat="44.3087966" lon="8.4846118"><ele>5.333333333333334</ele><time>2026-04-21T10:48:16.954Z</time></trkpt><trkpt lat="44.308897" lon="8.484643"><ele>5.0</ele><time>2026-04-21T10:48:18.943Z</time></trkpt><trkpt lat="44.3089801" lon="8.4846679"><ele>5.0</ele><time>2026-04-21T10:48:20.942Z</time></trkpt><trkpt lat="44.3090561" lon="8.4846896"><ele>5.0</ele><time>2026-04-21T10:48:22.943Z</time></trkpt><trkpt lat="44.3091223" lon="8.484709"><ele>5.0</ele><time>2026-04-21T10:48:24.948Z</time></trkpt><trkpt lat="44.3091828" lon="8.4847343"><ele>5.0</ele><time>2026-04-21T10:48:27.947Z</time></trkpt><trkpt lat="44.3092766" lon="8.4847739"><ele>5.0</ele><time>2026-04-21T10:48:41.941Z</time></trkpt><trkpt lat="44.3094785" lon="8.4848503"><ele>5.0</ele><time>2026-04-21T10:48:43.944Z</time></trkpt><trkpt lat="44.3095992" lon="8.4848784"><ele>5.0</ele><time>2026-04-21T10:48:44.944Z</time></trkpt><trkpt lat="44.3097193" lon="8.4848994"><ele>5.0</ele><time>2026-04-21T10:48:45.955Z</time></trkpt><trkpt lat="44.3098379" lon="8.4849442"><ele>5.0</ele><time>2026-04-21T10:48:46.944Z</time></trkpt><trkpt lat="44.3099522" lon="8.4850095"><ele>5.5</ele><time>2026-04-21T10:48:47.938Z</time></trkpt><trkpt lat="44.3100637" lon="8.4850902"><ele>6.0</ele><time>2026-04-21T10:48:48.942Z</time></trkpt><trkpt lat="44.3101653" lon="8.4851888"><ele>6.5</ele><time>2026-04-21T10:48:49.949Z</time></trkpt><trkpt lat="44.3102666" lon="8.485292"><ele>7.0</ele><time>2026-04-21T10:48:50.943Z</time></trkpt><trkpt lat="44.3103728" lon="8.4853947"><ele>6.75</ele><time>2026-04-21T10:48:51.937Z</time></trkpt><trkpt lat="44.3104845" lon="8.4854904"><ele>6.5</ele><time>2026-04-21T10:48:52.955Z</time></trkpt><trkpt lat="44.3105994" lon="8.4855834"><ele>6.25</ele><time>2026-04-21T10:48:53.937Z</time></trkpt><trkpt lat="44.3107165" lon="8.485682"><ele>6.0</ele><time>2026-04-21T10:48:54.948Z</time></trkpt><trkpt lat="44.3108358" lon="8.4857827"><ele>6.75</ele><time>2026-04-21T10:48:55.938Z</time></trkpt><trkpt lat="44.3109565" lon="8.4858847"><ele>7.5</ele><time>2026-04-21T10:48:56.959Z</time></trkpt><trkpt lat="44.3110785" lon="8.4859924"><ele>8.25</ele><time>2026-04-21T10:48:57.942Z</time></trkpt><trkpt lat="44.3112001" lon="8.4861018"><ele>9.0</ele><time>2026-04-21T10:48:58.95Z</time></trkpt><trkpt lat="44.3113176" lon="8.4862174"><ele>9.0</ele><time>2026-04-21T10:48:59.941Z</time></trkpt><trkpt lat="44.3114295" lon="8.4863404"><ele>9.0</ele><time>2026-04-21T10:49:00.943Z</time></trkpt><trkpt lat="44.3115363" lon="8.48647"><ele>9.0</ele><time>2026-04-21T10:49:01.938Z</time></trkpt><trkpt lat="44.3116397" lon="8.4866059"><ele>9.0</ele><time>2026-04-21T10:49:02.957Z</time></trkpt><trkpt lat="44.3118294" lon="8.4868944"><ele>9.0</ele><time>2026-04-21T10:49:04.956Z</time></trkpt><trkpt lat="44.3119156" lon="8.4870469"><ele>9.0</ele><time>2026-04-21T10:49:05.953Z</time></trkpt><trkpt lat="44.311999" lon="8.4871993"><ele>9.0</ele><time>2026-04-21T10:49:06.941Z</time></trkpt><trkpt lat="44.3120819" lon="8.4873503"><ele>9.0</ele><time>2026-04-21T10:49:07.943Z</time></trkpt><trkpt lat="44.3121695" lon="8.4874844"><ele>11.75</ele><time>2026-04-21T10:49:08.939Z</time></trkpt><trkpt lat="44.3122664" lon="8.4875977"><ele>14.5</ele><time>2026-04-21T10:49:09.942Z</time></trkpt><trkpt lat="44.3123762" lon="8.4876802"><ele>17.25</ele><time>2026-04-21T10:49:10.939Z</time></trkpt><trkpt lat="44.3124996" lon="8.4877279"><ele>20.0</ele><time>2026-04-21T10:49:11.95Z</time></trkpt><trkpt lat="44.3126272" lon="8.4877495"><ele>20.0</ele><time>2026-04-21T10:49:12.947Z</time></trkpt><trkpt lat="44.3127573" lon="8.4877467"><ele>20.0</ele><time>2026-04-21T10:49:13.938Z</time></trkpt><trkpt lat="44.3128893" lon="8.4877346"><ele>20.0</ele><time>2026-04-21T10:49:14.952Z</time></trkpt><trkpt lat="44.3130221" lon="8.4877207"><ele>20.0</ele><time>2026-04-21T10:49:15.942Z</time></trkpt><trkpt lat="44.313155" lon="8.4877115"><ele>23.0</ele><time>2026-04-21T10:49:16.956Z</time></trkpt><trkpt lat="44.3132872" lon="8.4877109"><ele>26.0</ele><time>2026-04-21T10:49:17.942Z</time></trkpt><trkpt lat="44.313419" lon="8.4877249"><ele>29.0</ele><time>2026-04-21T10:49:18.941Z</time></trkpt><trkpt lat="44.3135464" lon="8.4877675"><ele>32.0</ele><time>2026-04-21T10:49:19.943Z</time></trkpt><trkpt lat="44.313663" lon="8.4878479"><ele>25.5</ele><time>2026-04-21T10:49:20.942Z</time></trkpt><trkpt lat="44.3137699" lon="8.4879656"><ele>19.0</ele><time>2026-04-21T10:49:21.956Z</time></trkpt><trkpt lat="44.3138662" lon="8.4881057"><ele>12.5</ele><time>2026-04-21T10:49:22.943Z</time></trkpt><trkpt lat="44.3139615" lon="8.4882555"><ele>6.0</ele><time>2026-04-21T10:49:23.946Z</time></trkpt><trkpt lat="44.3141546" lon="8.4885515"><ele>6.0</ele><time>2026-04-21T10:49:25.94Z</time></trkpt><trkpt lat="44.3142528" lon="8.4886994"><ele>6.0</ele><time>2026-04-21T10:49:26.942Z</time></trkpt><trkpt lat="44.3143548" lon="8.4888524"><ele>6.0</ele><time>2026-04-21T10:49:27.957Z</time></trkpt><trkpt lat="44.3144549" lon="8.489008"><ele>6.0</ele><time>2026-04-21T10:49:28.942Z</time></trkpt><trkpt lat="44.3145421" lon="8.4891679"><ele>5.25</ele><time>2026-04-21T10:49:29.943Z</time></trkpt><trkpt lat="44.3146179" lon="8.4893399"><ele>4.5</ele><time>2026-04-21T10:49:30.943Z</time></trkpt><trkpt lat="44.3146896" lon="8.4895199"><ele>3.75</ele><time>2026-04-21T10:49:31.942Z</time></trkpt><trkpt lat="44.3147638" lon="8.489702"><ele>3.0</ele><time>2026-04-21T10:49:32.943Z</time></trkpt><trkpt lat="44.3148442" lon="8.489878"><ele>6.0</ele><time>2026-04-21T10:49:33.946Z</time></trkpt><trkpt lat="44.3149333" lon="8.4900449"><ele>9.0</ele><time>2026-04-21T10:49:34.953Z</time></trkpt><trkpt lat="44.3150343" lon="8.4901877"><ele>12.0</ele><time>2026-04-21T10:49:35.945Z</time></trkpt><trkpt lat="44.3151525" lon="8.4903033"><ele>15.0</ele><time>2026-04-21T10:49:36.953Z</time></trkpt><trkpt lat="44.3152877" lon="8.4903846"><ele>14.25</ele><time>2026-04-21T10:49:37.941Z</time></trkpt><trkpt lat="44.3154297" lon="8.4904438"><ele>13.5</ele><time>2026-04-21T10:49:38.939Z</time></trkpt><trkpt lat="44.3155695" lon="8.4904959"><ele>12.75</ele><time>2026-04-21T10:49:39.941Z</time></trkpt><trkpt lat="44.3157118" lon="8.4905491"><ele>12.0</ele><time>2026-04-21T10:49:40.934Z</time></trkpt><trkpt lat="44.3158453" lon="8.4906223"><ele>12.0</ele><time>2026-04-21T10:49:41.942Z</time></trkpt><trkpt lat="44.3159689" lon="8.4907143"><ele>12.0</ele><time>2026-04-21T10:49:42.94Z</time></trkpt><trkpt lat="44.3160959" lon="8.4908239"><ele>12.0</ele><time>2026-04-21T10:49:43.954Z</time></trkpt><trkpt lat="44.316218" lon="8.4909455"><ele>12.0</ele><time>2026-04-21T10:49:44.946Z</time></trkpt><trkpt lat="44.3164467" lon="8.4912128"><ele>11.5</ele><time>2026-04-21T10:49:46.95Z</time></trkpt><trkpt lat="44.3165547" lon="8.49135"><ele>11.0</ele><time>2026-04-21T10:49:47.946Z</time></trkpt><trkpt lat="44.316665" lon="8.4914913"><ele>10.5</ele><time>2026-04-21T10:49:48.944Z</time></trkpt><trkpt lat="44.3167754" lon="8.4916269"><ele>10.0</ele><time>2026-04-21T10:49:49.944Z</time></trkpt><trkpt lat="44.316885" lon="8.4917647"><ele>10.0</ele><time>2026-04-21T10:49:50.944Z</time></trkpt><trkpt lat="44.3169971" lon="8.4918999"><ele>10.0</ele><time>2026-04-21T10:49:51.95Z</time></trkpt><trkpt lat="44.3171114" lon="8.4920333"><ele>10.0</ele><time>2026-04-21T10:49:52.941Z</time></trkpt><trkpt lat="44.3172263" lon="8.4921639"><ele>10.0</ele><time>2026-04-21T10:49:53.932Z</time></trkpt><trkpt lat="44.3173429" lon="8.4922938"><ele>11.5</ele><time>2026-04-21T10:49:54.955Z</time></trkpt><trkpt lat="44.3174588" lon="8.4924217"><ele>13.0</ele><time>2026-04-21T10:49:55.951Z</time></trkpt><trkpt lat="44.3175776" lon="8.4925464"><ele>14.5</ele><time>2026-04-21T10:49:56.953Z</time></trkpt><trkpt lat="44.3177014" lon="8.4926658"><ele>16.0</ele><time>2026-04-21T10:49:57.946Z</time></trkpt><trkpt lat="44.3178305" lon="8.4927732"><ele>16.0</ele><time>2026-04-21T10:49:58.951Z</time></trkpt><trkpt lat="44.31797" lon="8.4928526"><ele>16.0</ele><time>2026-04-21T10:49:59.94Z</time></trkpt><trkpt lat="44.3181169" lon="8.4929143"><ele>16.0</ele><time>2026-04-21T10:50:00.94Z</time></trkpt><trkpt lat="44.3182651" lon="8.4929968"><ele>18.333333333333332</ele><time>2026-04-21T10:50:01.941Z</time></trkpt><trkpt lat="44.3184143" lon="8.4931039"><ele>20.666666666666668</ele><time>2026-04-21T10:50:02.929Z</time></trkpt><trkpt lat="44.3185528" lon="8.4932269"><ele>23.0</ele><time>2026-04-21T10:50:03.934Z</time></trkpt><trkpt lat="44.3186691" lon="8.4933718"><ele>23.0</ele><time>2026-04-21T10:50:04.936Z</time></trkpt><trkpt lat="44.318793" lon="8.4935034"><ele>23.0</ele><time>2026-04-21T10:50:05.928Z</time></trkpt><trkpt lat="44.3190064" lon="8.4937744"><ele>23.0</ele><time>2026-04-21T10:50:07.948Z</time></trkpt><trkpt lat="44.3191236" lon="8.4938885"><ele>21.25</ele><time>2026-04-21T10:50:08.952Z</time></trkpt><trkpt lat="44.3192379" lon="8.4940162"><ele>19.5</ele><time>2026-04-21T10:50:09.941Z</time></trkpt><trkpt lat="44.3193427" lon="8.4941554"><ele>17.75</ele><time>2026-04-21T10:50:10.939Z</time></trkpt><trkpt lat="44.3194361" lon="8.4942988"><ele>16.0</ele><time>2026-04-21T10:50:11.943Z</time></trkpt><trkpt lat="44.3195294" lon="8.4944456"><ele>15.5</ele><time>2026-04-21T10:50:12.936Z</time></trkpt><trkpt lat="44.3196225" lon="8.4945952"><ele>15.0</ele><time>2026-04-21T10:50:13.937Z</time></trkpt><trkpt lat="44.3197224" lon="8.4947413"><ele>14.5</ele><time>2026-04-21T10:50:14.955Z</time></trkpt><trkpt lat="44.3198321" lon="8.494879"><ele>14.0</ele><time>2026-04-21T10:50:15.943Z</time></trkpt><trkpt lat="44.3199561" lon="8.4949916"><ele>14.0</ele><time>2026-04-21T10:50:16.947Z</time></trkpt><trkpt lat="44.320093" lon="8.4950729"><ele>14.0</ele><time>2026-04-21T10:50:17.943Z</time></trkpt><trkpt lat="44.3202353" lon="8.4951384"><ele>14.0</ele><time>2026-04-21T10:50:18.951Z</time></trkpt><trkpt lat="44.3203802" lon="8.4951938"><ele>14.0</ele><time>2026-04-21T10:50:19.937Z</time></trkpt><trkpt lat="44.3205232" lon="8.4952522"><ele>12.75</ele><time>2026-04-21T10:50:20.943Z</time></trkpt><trkpt lat="44.3206621" lon="8.4953091"><ele>11.5</ele><time>2026-04-21T10:50:21.931Z</time></trkpt><trkpt lat="44.3207943" lon="8.495376"><ele>10.25</ele><time>2026-04-21T10:50:22.941Z</time></trkpt><trkpt lat="44.320907" lon="8.4954623"><ele>9.0</ele><time>2026-04-21T10:50:23.942Z</time></trkpt><trkpt lat="44.320999" lon="8.4955773"><ele>9.0</ele><time>2026-04-21T10:50:24.943Z</time></trkpt><trkpt lat="44.3210764" lon="8.4957167"><ele>9.0</ele><time>2026-04-21T10:50:25.958Z</time></trkpt><trkpt lat="44.3211519" lon="8.4958703"><ele>9.0</ele><time>2026-04-21T10:50:26.945Z</time></trkpt><trkpt lat="44.3213037" lon="8.4961946"><ele>9.25</ele><time>2026-04-21T10:50:28.939Z</time></trkpt><trkpt lat="44.3213776" lon="8.4963611"><ele>9.5</ele><time>2026-04-21T10:50:29.949Z</time></trkpt><trkpt lat="44.321447" lon="8.4965372"><ele>9.75</ele><time>2026-04-21T10:50:30.94Z</time></trkpt><trkpt lat="44.3215195" lon="8.4967167"><ele>10.0</ele><time>2026-04-21T10:50:31.943Z</time></trkpt><trkpt lat="44.3215993" lon="8.4968938"><ele>9.666666666666668</ele><time>2026-04-21T10:50:32.951Z</time></trkpt><trkpt lat="44.3216863" lon="8.497067"><ele>9.333333333333334</ele><time>2026-04-21T10:50:33.957Z</time></trkpt><trkpt lat="44.3217834" lon="8.4972338"><ele>9.0</ele><time>2026-04-21T10:50:34.942Z</time></trkpt><trkpt lat="44.3218881" lon="8.4974023"><ele>9.0</ele><time>2026-04-21T10:50:35.934Z</time></trkpt><trkpt lat="44.3219951" lon="8.4975697"><ele>9.0</ele><time>2026-04-21T10:50:36.937Z</time></trkpt><trkpt lat="44.322102" lon="8.4977344"><ele>9.0</ele><time>2026-04-21T10:50:37.942Z</time></trkpt><trkpt lat="44.3222087" lon="8.4978933"><ele>10.0</ele><time>2026-04-21T10:50:38.954Z</time></trkpt><trkpt lat="44.322319" lon="8.4980445"><ele>11.0</ele><time>2026-04-21T10:50:39.952Z</time></trkpt><trkpt lat="44.3224349" lon="8.4981766"><ele>12.0</ele><time>2026-04-21T10:50:40.943Z</time></trkpt><trkpt lat="44.3225585" lon="8.4982856"><ele>12.0</ele><time>2026-04-21T10:50:41.951Z</time></trkpt><trkpt lat="44.3226903" lon="8.4983769"><ele>12.0</ele><time>2026-04-21T10:50:42.942Z</time></trkpt><trkpt lat="44.322829" lon="8.4984556"><ele>12.0</ele><time>2026-04-21T10:50:43.956Z</time></trkpt><trkpt lat="44.3229693" lon="8.4985231"><ele>12.0</ele><time>2026-04-21T10:50:44.942Z</time></trkpt><trkpt lat="44.3231085" lon="8.4985787"><ele>10.333333333333334</ele><time>2026-04-21T10:50:45.942Z</time></trkpt><trkpt lat="44.323244" lon="8.4986368"><ele>8.666666666666668</ele><time>2026-04-21T10:50:46.942Z</time></trkpt><trkpt lat="44.3233747" lon="8.4986987"><ele>7.0</ele><time>2026-04-21T10:50:47.948Z</time></trkpt><trkpt lat="44.3236117" lon="8.4988505"><ele>7.0</ele><time>2026-04-21T10:50:49.943Z</time></trkpt><trkpt lat="44.3237292" lon="8.498934"><ele>7.0</ele><time>2026-04-21T10:50:50.932Z</time></trkpt><trkpt lat="44.3238472" lon="8.4990181"><ele>7.0</ele><time>2026-04-21T10:50:51.932Z</time></trkpt><trkpt lat="44.3239618" lon="8.4990974"><ele>7.0</ele><time>2026-04-21T10:50:52.954Z</time></trkpt><trkpt lat="44.3240727" lon="8.4991744"><ele>10.25</ele><time>2026-04-21T10:50:53.951Z</time></trkpt><trkpt lat="44.3241821" lon="8.4992443"><ele>13.5</ele><time>2026-04-21T10:50:54.945Z</time></trkpt><trkpt lat="44.3242959" lon="8.4993147"><ele>16.75</ele><time>2026-04-21T10:50:55.942Z</time></trkpt><trkpt lat="44.3244116" lon="8.4993867"><ele>20.0</ele><time>2026-04-21T10:50:56.94Z</time></trkpt><trkpt lat="44.3245267" lon="8.4994612"><ele>20.0</ele><time>2026-04-21T10:50:57.942Z</time></trkpt><trkpt lat="44.3246417" lon="8.4995368"><ele>20.0</ele><time>2026-04-21T10:50:58.94Z</time></trkpt><trkpt lat="44.3247565" lon="8.4996103"><ele>20.0</ele><time>2026-04-21T10:50:59.954Z</time></trkpt><trkpt lat="44.3248718" lon="8.4996816"><ele>20.0</ele><time>2026-04-21T10:51:00.943Z</time></trkpt><trkpt lat="44.3249849" lon="8.4997544"><ele>16.25</ele><time>2026-04-21T10:51:01.949Z</time></trkpt><trkpt lat="44.3250917" lon="8.4998242"><ele>12.5</ele><time>2026-04-21T10:51:02.943Z</time></trkpt><trkpt lat="44.3251959" lon="8.4998927"><ele>8.75</ele><time>2026-04-21T10:51:03.94Z</time></trkpt><trkpt lat="44.3253021" lon="8.4999652"><ele>5.0</ele><time>2026-04-21T10:51:04.941Z</time></trkpt><trkpt lat="44.3253974" lon="8.5000384"><ele>5.0</ele><time>2026-04-21T10:51:05.943Z</time></trkpt><trkpt lat="44.3254756" lon="8.5001064"><ele>5.0</ele><time>2026-04-21T10:51:06.942Z</time></trkpt><trkpt lat="44.3255457" lon="8.5001682"><ele>5.0</ele><time>2026-04-21T10:51:07.957Z</time></trkpt><trkpt lat="44.3256066" lon="8.5002237"><ele>5.0</ele><time>2026-04-21T10:51:08.942Z</time></trkpt><trkpt lat="44.3257273" lon="8.5003316"><ele>5.0</ele><time>2026-04-21T10:51:10.942Z</time></trkpt><trkpt lat="44.325791" lon="8.500396"><ele>5.285714285714286</ele><time>2026-04-21T10:51:11.942Z</time></trkpt><trkpt lat="44.3258476" lon="8.5004635"><ele>5.571428571428571</ele><time>2026-04-21T10:51:12.957Z</time></trkpt><trkpt lat="44.3259004" lon="8.5005276"><ele>5.857142857142858</ele><time>2026-04-21T10:51:13.949Z</time></trkpt><trkpt lat="44.3259545" lon="8.500588"><ele>6.142857142857142</ele><time>2026-04-21T10:51:14.953Z</time></trkpt><trkpt lat="44.3260105" lon="8.5006493"><ele>6.428571428571429</ele><time>2026-04-21T10:51:15.948Z</time></trkpt><trkpt lat="44.3260629" lon="8.5007124"><ele>6.714285714285714</ele><time>2026-04-21T10:51:16.933Z</time></trkpt><trkpt lat="44.3261209" lon="8.5007836"><ele>7.0</ele><time>2026-04-21T10:51:17.944Z</time></trkpt><trkpt lat="44.3261843" lon="8.5008714"><ele>7.0</ele><time>2026-04-21T10:51:18.941Z</time></trkpt><trkpt lat="44.3262578" lon="8.5009752"><ele>6.999999999999999</ele><time>2026-04-21T10:51:19.946Z</time></trkpt><trkpt lat="44.3263282" lon="8.5010887"><ele>6.999999999999999</ele><time>2026-04-21T10:51:20.942Z</time></trkpt><trkpt lat="44.3263921" lon="8.5012026"><ele>7.0</ele><time>2026-04-21T10:51:21.96Z</time></trkpt><trkpt lat="44.3264486" lon="8.501311"><ele>7.0</ele><time>2026-04-21T10:51:22.962Z</time></trkpt><trkpt lat="44.3264968" lon="8.501413"><ele>7.333333333333334</ele><time>2026-04-21T10:51:23.943Z</time></trkpt><trkpt lat="44.3265417" lon="8.5015126"><ele>7.666666666666667</ele><time>2026-04-21T10:51:24.951Z</time></trkpt><trkpt lat="44.3265871" lon="8.5016182"><ele>8.0</ele><time>2026-04-21T10:51:25.949Z</time></trkpt><trkpt lat="44.32663" lon="8.5017282"><ele>8.333333333333334</ele><time>2026-04-21T10:51:26.952Z</time></trkpt><trkpt lat="44.3266688" lon="8.5018321"><ele>8.666666666666666</ele><time>2026-04-21T10:51:27.959Z</time></trkpt><trkpt lat="44.3267032" lon="8.5019311"><ele>9.0</ele><time>2026-04-21T10:51:28.953Z</time></trkpt><trkpt lat="44.3267305" lon="8.5020145"><ele>8.4</ele><time>2026-04-21T10:51:29.945Z</time></trkpt><trkpt lat="44.3267931" lon="8.5022451"><ele>7.800000000000001</ele><time>2026-04-21T10:51:32.96Z</time></trkpt><trkpt lat="44.3268211" lon="8.5023393"><ele>7.199999999999999</ele><time>2026-04-21T10:51:33.942Z</time></trkpt><trkpt lat="44.3268536" lon="8.5024438"><ele>6.6</ele><time>2026-04-21T10:51:34.953Z</time></trkpt><trkpt lat="44.3268895" lon="8.5025547"><ele>6.0</ele><time>2026-04-21T10:51:35.943Z</time></trkpt><trkpt lat="44.3269274" lon="8.5026656"><ele>6.0</ele><time>2026-04-21T10:51:36.94Z</time></trkpt><trkpt lat="44.3269648" lon="8.5027738"><ele>6.0</ele><time>2026-04-21T10:51:37.937Z</time></trkpt><trkpt lat="44.327005" lon="8.5028764"><ele>6.0</ele><time>2026-04-21T10:51:38.943Z</time></trkpt><trkpt lat="44.3270436" lon="8.5029699"><ele>6.0</ele><time>2026-04-21T10:51:39.942Z</time></trkpt><trkpt lat="44.3270844" lon="8.503059"><ele>6.0</ele><time>2026-04-21T10:51:40.943Z</time></trkpt><trkpt lat="44.3271222" lon="8.5031535"><ele>6.0</ele><time>2026-04-21T10:51:41.94Z</time></trkpt><trkpt lat="44.3271605" lon="8.5032481"><ele>6.0</ele><time>2026-04-21T10:51:42.956Z</time></trkpt><trkpt lat="44.327195" lon="8.5033361"><ele>6.0</ele><time>2026-04-21T10:51:43.957Z</time></trkpt><trkpt lat="44.3272255" lon="8.5034186"><ele>6.0</ele><time>2026-04-21T10:51:44.943Z</time></trkpt><trkpt lat="44.3272574" lon="8.5034957"><ele>6.0</ele><time>2026-04-21T10:51:45.946Z</time></trkpt><trkpt lat="44.327311" lon="8.5036269"><ele>6.0</ele><time>2026-04-21T10:51:47.936Z</time></trkpt><trkpt lat="44.3273531" lon="8.5037419"><ele>6.0</ele><time>2026-04-21T10:51:49.941Z</time></trkpt><trkpt lat="44.3273958" lon="8.5038607"><ele>6.25</ele><time>2026-04-21T10:51:51.952Z</time></trkpt><trkpt lat="44.3274944" lon="8.5040988"><ele>6.5</ele><time>2026-04-21T10:51:55.941Z</time></trkpt><trkpt lat="44.3275386" lon="8.5042038"><ele>6.75</ele><time>2026-04-21T10:51:57.958Z</time></trkpt><trkpt lat="44.3275915" lon="8.5042541"><ele>7.0</ele><time>2026-04-21T10:52:22.953Z</time></trkpt><trkpt lat="44.3276675" lon="8.5044598"><ele>6.6</ele><time>2026-04-21T10:52:26.945Z</time></trkpt><trkpt lat="44.327725" lon="8.504606"><ele>6.199999999999999</ele><time>2026-04-21T10:52:28.944Z</time></trkpt><trkpt lat="44.327787" lon="8.5047659"><ele>5.8</ele><time>2026-04-21T10:52:30.956Z</time></trkpt><trkpt lat="44.3278242" lon="8.5048517"><ele>5.4</ele><time>2026-04-21T10:52:31.956Z</time></trkpt><trkpt lat="44.3278648" lon="8.5049452"><ele>5.0</ele><time>2026-04-21T10:52:32.951Z</time></trkpt><trkpt lat="44.3279054" lon="8.5050446"><ele>5.0</ele><time>2026-04-21T10:52:33.937Z</time></trkpt><trkpt lat="44.3279459" lon="8.5051456"><ele>5.0</ele><time>2026-04-21T10:52:34.939Z</time></trkpt><trkpt lat="44.3279854" lon="8.505244"><ele>5.0</ele><time>2026-04-21T10:52:35.956Z</time></trkpt><trkpt lat="44.3280218" lon="8.5053392"><ele>5.0</ele><time>2026-04-21T10:52:36.941Z</time></trkpt><trkpt lat="44.3280645" lon="8.5054418"><ele>5.0</ele><time>2026-04-21T10:52:37.938Z</time></trkpt><trkpt lat="44.3281199" lon="8.5055683"><ele>5.0</ele><time>2026-04-21T10:52:38.942Z</time></trkpt><trkpt lat="44.3281849" lon="8.5057263"><ele>5.0</ele><time>2026-04-21T10:52:39.94Z</time></trkpt><trkpt lat="44.3282536" lon="8.5059056"><ele>5.0</ele><time>2026-04-21T10:52:40.942Z</time></trkpt><trkpt lat="44.328318" lon="8.5060905"><ele>5.0</ele><time>2026-04-21T10:52:41.946Z</time></trkpt><trkpt lat="44.3283739" lon="8.5062728"><ele>5.0</ele><time>2026-04-21T10:52:42.942Z</time></trkpt><trkpt lat="44.3284245" lon="8.5064469"><ele>5.0</ele><time>2026-04-21T10:52:43.958Z</time></trkpt><trkpt lat="44.3285198" lon="8.5067565"><ele>5.0</ele><time>2026-04-21T10:52:45.953Z</time></trkpt><trkpt lat="44.3285615" lon="8.5068742"><ele>5.0</ele><time>2026-04-21T10:52:46.955Z</time></trkpt><trkpt lat="44.3285935" lon="8.5069672"><ele>5.0</ele><time>2026-04-21T10:52:47.942Z</time></trkpt><trkpt lat="44.3286267" lon="8.5070711"><ele>4.833333333333334</ele><time>2026-04-21T10:52:49.945Z</time></trkpt><trkpt lat="44.3286623" lon="8.5071563"><ele>4.666666666666667</ele><time>2026-04-21T10:52:52.944Z</time></trkpt><trkpt lat="44.3287155" lon="8.5073045"><ele>4.5</ele><time>2026-04-21T10:52:54.956Z</time></trkpt><trkpt lat="44.3287458" lon="8.5074021"><ele>4.333333333333333</ele><time>2026-04-21T10:52:55.961Z</time></trkpt><trkpt lat="44.3287782" lon="8.5075065"><ele>4.166666666666666</ele><time>2026-04-21T10:52:56.934Z</time></trkpt><trkpt lat="44.3288144" lon="8.5076188"><ele>4.0</ele><time>2026-04-21T10:52:57.941Z</time></trkpt><trkpt lat="44.3288538" lon="8.5077371"><ele>4.4</ele><time>2026-04-21T10:52:58.952Z</time></trkpt><trkpt lat="44.3288934" lon="8.5078576"><ele>4.800000000000001</ele><time>2026-04-21T10:52:59.943Z</time></trkpt><trkpt lat="44.3289295" lon="8.5079746"><ele>5.199999999999999</ele><time>2026-04-21T10:53:00.951Z</time></trkpt><trkpt lat="44.3289652" lon="8.5080896"><ele>5.6</ele><time>2026-04-21T10:53:01.942Z</time></trkpt><trkpt lat="44.3290024" lon="8.508206"><ele>6.0</ele><time>2026-04-21T10:53:02.943Z</time></trkpt><trkpt lat="44.3290394" lon="8.5083279"><ele>5.0</ele><time>2026-04-21T10:53:03.952Z</time></trkpt><trkpt lat="44.3290745" lon="8.5084542"><ele>4.0</ele><time>2026-04-21T10:53:04.959Z</time></trkpt><trkpt lat="44.3291451" lon="8.5087088"><ele>3.0</ele><time>2026-04-21T10:53:06.953Z</time></trkpt><trkpt lat="44.3291789" lon="8.5088274"><ele>2.0</ele><time>2026-04-21T10:53:07.962Z</time></trkpt><trkpt lat="44.3292169" lon="8.5089511"><ele>1.8</ele><time>2026-04-21T10:53:08.947Z</time></trkpt><trkpt lat="44.3292602" lon="8.5090867"><ele>1.6</ele><time>2026-04-21T10:53:09.954Z</time></trkpt><trkpt lat="44.3293026" lon="8.5092328"><ele>1.4000000000000001</ele><time>2026-04-21T10:53:10.961Z</time></trkpt><trkpt lat="44.329341" lon="8.5093766"><ele>1.2000000000000002</ele><time>2026-04-21T10:53:11.948Z</time></trkpt><trkpt lat="44.3293753" lon="8.5095065"><ele>1.0</ele><time>2026-04-21T10:53:12.951Z</time></trkpt><trkpt lat="44.3294096" lon="8.5096279"><ele>1.8</ele><time>2026-04-21T10:53:13.949Z</time></trkpt><trkpt lat="44.3294456" lon="8.5097489"><ele>2.6</ele><time>2026-04-21T10:53:14.96Z</time></trkpt><trkpt lat="44.3294825" lon="8.5098725"><ele>3.4</ele><time>2026-04-21T10:53:15.942Z</time></trkpt><trkpt lat="44.3295193" lon="8.5099997"><ele>4.2</ele><time>2026-04-21T10:53:16.939Z</time></trkpt><trkpt lat="44.3295527" lon="8.5101238"><ele>5.0</ele><time>2026-04-21T10:53:17.941Z</time></trkpt><trkpt lat="44.3295838" lon="8.5102406"><ele>5.0</ele><time>2026-04-21T10:53:18.955Z</time></trkpt><trkpt lat="44.329618" lon="8.5103542"><ele>5.0</ele><time>2026-04-21T10:53:19.954Z</time></trkpt><trkpt lat="44.3296539" lon="8.5104733"><ele>5.0</ele><time>2026-04-21T10:53:20.96Z</time></trkpt><trkpt lat="44.3296891" lon="8.5105987"><ele>5.0</ele><time>2026-04-21T10:53:21.953Z</time></trkpt><trkpt lat="44.3297242" lon="8.5107254"><ele>5.0</ele><time>2026-04-21T10:53:22.956Z</time></trkpt><trkpt lat="44.3297637" lon="8.5108491"><ele>4.75</ele><time>2026-04-21T10:53:23.943Z</time></trkpt><trkpt lat="44.3298026" lon="8.5109747"><ele>4.5</ele><time>2026-04-21T10:53:24.941Z</time></trkpt><trkpt lat="44.3298396" lon="8.5111026"><ele>4.25</ele><time>2026-04-21T10:53:25.943Z</time></trkpt><trkpt lat="44.3299132" lon="8.5113544"><ele>4.0</ele><time>2026-04-21T10:53:27.94Z</time></trkpt><trkpt lat="44.3299475" lon="8.5114728"><ele>4.333333333333333</ele><time>2026-04-21T10:53:28.951Z</time></trkpt><trkpt lat="44.3299802" lon="8.5115907"><ele>4.666666666666666</ele><time>2026-04-21T10:53:29.944Z</time></trkpt><trkpt lat="44.3300129" lon="8.511709"><ele>5.0</ele><time>2026-04-21T10:53:30.941Z</time></trkpt><trkpt lat="44.3300424" lon="8.511821"><ele>5.333333333333333</ele><time>2026-04-21T10:53:31.941Z</time></trkpt><trkpt lat="44.3300713" lon="8.511926"><ele>5.666666666666667</ele><time>2026-04-21T10:53:32.941Z</time></trkpt><trkpt lat="44.330099" lon="8.5120236"><ele>6.0</ele><time>2026-04-21T10:53:33.942Z</time></trkpt><trkpt lat="44.3301232" lon="8.5121113"><ele>6.166666666666667</ele><time>2026-04-21T10:53:34.943Z</time></trkpt><trkpt lat="44.3301456" lon="8.5121977"><ele>6.333333333333334</ele><time>2026-04-21T10:53:35.951Z</time></trkpt><trkpt lat="44.3301698" lon="8.512288"><ele>6.5</ele><time>2026-04-21T10:53:36.935Z</time></trkpt><trkpt lat="44.3301951" lon="8.5123834"><ele>6.666666666666667</ele><time>2026-04-21T10:53:37.94Z</time></trkpt><trkpt lat="44.3302257" lon="8.5124847"><ele>6.833333333333334</ele><time>2026-04-21T10:53:38.932Z</time></trkpt><trkpt lat="44.3302617" lon="8.5125924"><ele>7.0</ele><time>2026-04-21T10:53:39.949Z</time></trkpt><trkpt lat="44.330298" lon="8.5127022"><ele>7.000000000000001</ele><time>2026-04-21T10:53:40.943Z</time></trkpt><trkpt lat="44.3303317" lon="8.5128034"><ele>7.0</ele><time>2026-04-21T10:53:41.949Z</time></trkpt><trkpt lat="44.3303665" lon="8.5128966"><ele>7.0</ele><time>2026-04-21T10:53:42.942Z</time></trkpt><trkpt lat="44.3304042" lon="8.5129869"><ele>7.0</ele><time>2026-04-21T10:53:43.943Z</time></trkpt><trkpt lat="44.330447" lon="8.5130637"><ele>7.000000000000001</ele><time>2026-04-21T10:53:44.942Z</time></trkpt><trkpt lat="44.3305002" lon="8.5131109"><ele>7.0</ele><time>2026-04-21T10:53:45.933Z</time></trkpt><trkpt lat="44.3306337" lon="8.5131146"><ele>7.25</ele><time>2026-04-21T10:53:47.942Z</time></trkpt><trkpt lat="44.3308221" lon="8.5130089"><ele>7.5</ele><time>2026-04-21T10:53:49.944Z</time></trkpt><trkpt lat="44.3309306" lon="8.5129463"><ele>7.75</ele><time>2026-04-21T10:53:50.943Z</time></trkpt><trkpt lat="44.3310443" lon="8.5128917"><ele>8.0</ele><time>2026-04-21T10:53:51.941Z</time></trkpt><trkpt lat="44.3311386" lon="8.5128316"><ele>7.999999999999999</ele><time>2026-04-21T10:53:52.956Z</time></trkpt><trkpt lat="44.3312462" lon="8.5127818"><ele>8.0</ele><time>2026-04-21T10:53:53.933Z</time></trkpt><trkpt lat="44.331325" lon="8.5127095"><ele>8.0</ele><time>2026-04-21T10:53:54.943Z</time></trkpt><trkpt lat="44.3314017" lon="8.5126608"><ele>8.0</ele><time>2026-04-21T10:53:55.932Z</time></trkpt><trkpt lat="44.3314608" lon="8.5126184"><ele>7.999999999999999</ele><time>2026-04-21T10:53:56.952Z</time></trkpt><trkpt lat="44.3315444" lon="8.5125722"><ele>8.0</ele><time>2026-04-21T10:53:58.944Z</time></trkpt><trkpt lat="44.3316419" lon="8.5125315"><ele>8.142857142857142</ele><time>2026-04-21T10:54:00.943Z</time></trkpt><trkpt lat="44.3317044" lon="8.5125062"><ele>8.285714285714285</ele><time>2026-04-21T10:54:01.94Z</time></trkpt><trkpt lat="44.3318117" lon="8.5124369"><ele>8.428571428571429</ele><time>2026-04-21T10:54:03.952Z</time></trkpt><trkpt lat="44.3318733" lon="8.5124067"><ele>8.571428571428571</ele><time>2026-04-21T10:54:04.939Z</time></trkpt><trkpt lat="44.3319354" lon="8.5123802"><ele>8.714285714285715</ele><time>2026-04-21T10:54:05.959Z</time></trkpt><trkpt lat="44.3319965" lon="8.5123457"><ele>8.857142857142858</ele><time>2026-04-21T10:54:06.934Z</time></trkpt><trkpt lat="44.3320557" lon="8.5122976"><ele>9.0</ele><time>2026-04-21T10:54:07.947Z</time></trkpt><trkpt lat="44.332124" lon="8.5122566"><ele>8.8</ele><time>2026-04-21T10:54:08.94Z</time></trkpt><trkpt lat="44.332274" lon="8.5121728"><ele>8.600000000000001</ele><time>2026-04-21T10:54:10.953Z</time></trkpt><trkpt lat="44.3323565" lon="8.5121379"><ele>8.4</ele><time>2026-04-21T10:54:11.936Z</time></trkpt><trkpt lat="44.3324425" lon="8.5120962"><ele>8.200000000000001</ele><time>2026-04-21T10:54:12.957Z</time></trkpt><trkpt lat="44.332529" lon="8.512052"><ele>8.0</ele><time>2026-04-21T10:54:13.931Z</time></trkpt><trkpt lat="44.3326125" lon="8.5120108"><ele>7.999999999999999</ele><time>2026-04-21T10:54:14.95Z</time></trkpt><trkpt lat="44.3326906" lon="8.5119719"><ele>8.0</ele><time>2026-04-21T10:54:15.94Z</time></trkpt><trkpt lat="44.3327618" lon="8.511918"><ele>8.0</ele><time>2026-04-21T10:54:16.943Z</time></trkpt><trkpt lat="44.3328354" lon="8.5118619"><ele>8.0</ele><time>2026-04-21T10:54:17.944Z</time></trkpt><trkpt lat="44.3329099" lon="8.5118"><ele>7.999999999999999</ele><time>2026-04-21T10:54:18.944Z</time></trkpt><trkpt lat="44.3329857" lon="8.5117333"><ele>8.0</ele><time>2026-04-21T10:54:19.956Z</time></trkpt><trkpt lat="44.3330645" lon="8.5116686"><ele>8.0</ele><time>2026-04-21T10:54:20.939Z</time></trkpt><trkpt lat="44.3331427" lon="8.5116063"><ele>8.0</ele><time>2026-04-21T10:54:21.953Z</time></trkpt><trkpt lat="44.3332319" lon="8.5115589"><ele>8.0</ele><time>2026-04-21T10:54:22.941Z</time></trkpt><trkpt lat="44.3333235" lon="8.5115104"><ele>8.0</ele><time>2026-04-21T10:54:23.943Z</time></trkpt><trkpt lat="44.3334201" lon="8.5114621"><ele>8.0</ele><time>2026-04-21T10:54:24.951Z</time></trkpt><trkpt lat="44.3335168" lon="8.511408"><ele>8.0</ele><time>2026-04-21T10:54:25.953Z</time></trkpt><trkpt lat="44.3336101" lon="8.5113551"><ele>8.0</ele><time>2026-04-21T10:54:26.94Z</time></trkpt><trkpt lat="44.3337061" lon="8.5113049"><ele>8.0</ele><time>2026-04-21T10:54:27.955Z</time></trkpt><trkpt lat="44.333804" lon="8.5112574"><ele>8.0</ele><time>2026-04-21T10:54:28.961Z</time></trkpt><trkpt lat="44.3338987" lon="8.5112115"><ele>8.0</ele><time>2026-04-21T10:54:29.938Z</time></trkpt><trkpt lat="44.3340903" lon="8.5111323"><ele>8.0</ele><time>2026-04-21T10:54:31.943Z</time></trkpt><trkpt lat="44.3341873" lon="8.511098"><ele>8.0</ele><time>2026-04-21T10:54:32.943Z</time></trkpt><trkpt lat="44.3342842" lon="8.5110597"><ele>8.0</ele><time>2026-04-21T10:54:33.941Z</time></trkpt><trkpt lat="44.3343804" lon="8.5110131"><ele>8.0</ele><time>2026-04-21T10:54:34.961Z</time></trkpt><trkpt lat="44.3344786" lon="8.5109589"><ele>8.0</ele><time>2026-04-21T10:54:35.948Z</time></trkpt><trkpt lat="44.3345784" lon="8.5109022"><ele>8.0</ele><time>2026-04-21T10:54:36.946Z</time></trkpt><trkpt lat="44.3346813" lon="8.5108478"><ele>8.0</ele><time>2026-04-21T10:54:37.944Z</time></trkpt><trkpt lat="44.3347797" lon="8.5107874"><ele>8.0</ele><time>2026-04-21T10:54:38.94Z</time></trkpt><trkpt lat="44.3348871" lon="8.5107292"><ele>8.0</ele><time>2026-04-21T10:54:39.952Z</time></trkpt><trkpt lat="44.3349951" lon="8.5106567"><ele>8.25</ele><time>2026-04-21T10:54:40.946Z</time></trkpt><trkpt lat="44.3351181" lon="8.5105754"><ele>8.5</ele><time>2026-04-21T10:54:41.95Z</time></trkpt><trkpt lat="44.3352439" lon="8.5104964"><ele>8.75</ele><time>2026-04-21T10:54:42.96Z</time></trkpt><trkpt lat="44.3353645" lon="8.5104328"><ele>9.0</ele><time>2026-04-21T10:54:43.943Z</time></trkpt><trkpt lat="44.3354783" lon="8.5103767"><ele>8.8</ele><time>2026-04-21T10:54:44.96Z</time></trkpt><trkpt lat="44.3355836" lon="8.510326"><ele>8.600000000000001</ele><time>2026-04-21T10:54:45.943Z</time></trkpt><trkpt lat="44.335682" lon="8.5102747"><ele>8.4</ele><time>2026-04-21T10:54:46.949Z</time></trkpt><trkpt lat="44.3357826" lon="8.5102245"><ele>8.200000000000001</ele><time>2026-04-21T10:54:47.943Z</time></trkpt><trkpt lat="44.3358863" lon="8.510171"><ele>8.0</ele><time>2026-04-21T10:54:48.95Z</time></trkpt><trkpt lat="44.3359883" lon="8.5101192"><ele>8.0</ele><time>2026-04-21T10:54:49.958Z</time></trkpt><trkpt lat="44.3360811" lon="8.5100642"><ele>8.0</ele><time>2026-04-21T10:54:50.944Z</time></trkpt><trkpt lat="44.3362555" lon="8.5099664"><ele>8.0</ele><time>2026-04-21T10:54:52.95Z</time></trkpt><trkpt lat="44.336342" lon="8.5099197"><ele>8.0</ele><time>2026-04-21T10:54:53.943Z</time></trkpt><trkpt lat="44.3364241" lon="8.5098747"><ele>8.4</ele><time>2026-04-21T10:54:54.94Z</time></trkpt><trkpt lat="44.3365106" lon="8.509831"><ele>8.8</ele><time>2026-04-21T10:54:55.943Z</time></trkpt><trkpt lat="44.3365941" lon="8.5097886"><ele>9.2</ele><time>2026-04-21T10:54:56.943Z</time></trkpt><trkpt lat="44.3366785" lon="8.5097456"><ele>9.6</ele><time>2026-04-21T10:54:57.944Z</time></trkpt><trkpt lat="44.3367645" lon="8.5096963"><ele>10.0</ele><time>2026-04-21T10:54:58.94Z</time></trkpt><trkpt lat="44.3368458" lon="8.5096448"><ele>10.0</ele><time>2026-04-21T10:54:59.943Z</time></trkpt><trkpt lat="44.3369244" lon="8.5095996"><ele>10.0</ele><time>2026-04-21T10:55:00.94Z</time></trkpt><trkpt lat="44.3369958" lon="8.5095656"><ele>10.0</ele><time>2026-04-21T10:55:01.942Z</time></trkpt><trkpt lat="44.3370889" lon="8.5095531"><ele>10.0</ele><time>2026-04-21T10:55:03.952Z</time></trkpt><trkpt lat="44.3371559" lon="8.5095749"><ele>10.0</ele><time>2026-04-21T10:55:06.943Z</time></trkpt><trkpt lat="44.3372728" lon="8.5095695"><ele>10.0</ele><time>2026-04-21T10:55:08.936Z</time></trkpt><trkpt lat="44.3373442" lon="8.5095505"><ele>10.2</ele><time>2026-04-21T10:55:09.942Z</time></trkpt><trkpt lat="44.337423" lon="8.509544"><ele>10.4</ele><time>2026-04-21T10:55:10.942Z</time></trkpt><trkpt lat="44.3375066" lon="8.5095591"><ele>10.600000000000001</ele><time>2026-04-21T10:55:11.942Z</time></trkpt><trkpt lat="44.3376714" lon="8.5096597"><ele>10.8</ele><time>2026-04-21T10:55:13.944Z</time></trkpt><trkpt lat="44.3377477" lon="8.5097131"><ele>11.0</ele><time>2026-04-21T10:55:14.956Z</time></trkpt><trkpt lat="44.337828" lon="8.5097606"><ele>10.8</ele><time>2026-04-21T10:55:15.943Z</time></trkpt><trkpt lat="44.3379178" lon="8.5098119"><ele>10.600000000000001</ele><time>2026-04-21T10:55:16.943Z</time></trkpt><trkpt lat="44.3380113" lon="8.509865"><ele>10.4</ele><time>2026-04-21T10:55:17.939Z</time></trkpt><trkpt lat="44.3381047" lon="8.5099212"><ele>10.2</ele><time>2026-04-21T10:55:18.941Z</time></trkpt><trkpt lat="44.338198" lon="8.5099747"><ele>10.0</ele><time>2026-04-21T10:55:19.945Z</time></trkpt><trkpt lat="44.3382952" lon="8.5100261"><ele>10.0</ele><time>2026-04-21T10:55:20.949Z</time></trkpt><trkpt lat="44.3383884" lon="8.5100722"><ele>10.0</ele><time>2026-04-21T10:55:21.944Z</time></trkpt><trkpt lat="44.338479" lon="8.5101203"><ele>10.0</ele><time>2026-04-21T10:55:22.943Z</time></trkpt><trkpt lat="44.338564" lon="8.51017"><ele>10.0</ele><time>2026-04-21T10:55:23.936Z</time></trkpt><trkpt lat="44.3386368" lon="8.5102133"><ele>10.0</ele><time>2026-04-21T10:55:24.941Z</time></trkpt><trkpt lat="44.3387227" lon="8.5102577"><ele>10.0</ele><time>2026-04-21T10:55:26.942Z</time></trkpt><trkpt lat="44.3388027" lon="8.5102563"><ele>10.0</ele><time>2026-04-21T10:55:32.937Z</time></trkpt><trkpt lat="44.3389169" lon="8.510357"><ele>10.0</ele><time>2026-04-21T10:55:34.942Z</time></trkpt><trkpt lat="44.338968" lon="8.5104126"><ele>10.0</ele><time>2026-04-21T10:55:35.948Z</time></trkpt><trkpt lat="44.3390247" lon="8.5104717"><ele>10.0</ele><time>2026-04-21T10:55:36.943Z</time></trkpt><trkpt lat="44.3390931" lon="8.5105411"><ele>10.0</ele><time>2026-04-21T10:55:37.956Z</time></trkpt><trkpt lat="44.3391719" lon="8.5106111"><ele>10.4</ele><time>2026-04-21T10:55:38.943Z</time></trkpt><trkpt lat="44.3392466" lon="8.5106833"><ele>10.8</ele><time>2026-04-21T10:55:39.943Z</time></trkpt><trkpt lat="44.3393295" lon="8.5107565"><ele>11.2</ele><time>2026-04-21T10:55:40.94Z</time></trkpt><trkpt lat="44.3394151" lon="8.5108317"><ele>11.6</ele><time>2026-04-21T10:55:41.942Z</time></trkpt><trkpt lat="44.3395043" lon="8.5109071"><ele>12.0</ele><time>2026-04-21T10:55:42.95Z</time></trkpt><trkpt lat="44.3395938" lon="8.5109815"><ele>12.0</ele><time>2026-04-21T10:55:43.94Z</time></trkpt><trkpt lat="44.339687" lon="8.5110536"><ele>12.0</ele><time>2026-04-21T10:55:44.943Z</time></trkpt><trkpt lat="44.3397831" lon="8.5111252"><ele>12.0</ele><time>2026-04-21T10:55:45.95Z</time></trkpt><trkpt lat="44.3398795" lon="8.5111942"><ele>12.0</ele><time>2026-04-21T10:55:46.944Z</time></trkpt><trkpt lat="44.3399794" lon="8.5112528"><ele>12.0</ele><time>2026-04-21T10:55:47.951Z</time></trkpt><trkpt lat="44.3400863" lon="8.5112904"><ele>12.25</ele><time>2026-04-21T10:55:48.935Z</time></trkpt><trkpt lat="44.3401957" lon="8.5113022"><ele>12.5</ele><time>2026-04-21T10:55:49.954Z</time></trkpt><trkpt lat="44.3403036" lon="8.5112972"><ele>12.75</ele><time>2026-04-21T10:55:50.94Z</time></trkpt><trkpt lat="44.3404147" lon="8.5112691"><ele>13.0</ele><time>2026-04-21T10:55:51.936Z</time></trkpt><trkpt lat="44.3405316" lon="8.5112362"><ele>13.25</ele><time>2026-04-21T10:55:52.955Z</time></trkpt><trkpt lat="44.3406464" lon="8.5111975"><ele>13.5</ele><time>2026-04-21T10:55:53.943Z</time></trkpt><trkpt lat="44.3408596" lon="8.5111291"><ele>13.75</ele><time>2026-04-21T10:55:55.949Z</time></trkpt><trkpt lat="44.3409617" lon="8.5110979"><ele>14.0</ele><time>2026-04-21T10:55:56.95Z</time></trkpt><trkpt lat="44.3410631" lon="8.511072"><ele>14.0</ele><time>2026-04-21T10:55:57.94Z</time></trkpt><trkpt lat="44.3411646" lon="8.5110498"><ele>13.999999999999998</ele><time>2026-04-21T10:55:58.944Z</time></trkpt><trkpt lat="44.3412694" lon="8.5110288"><ele>13.999999999999998</ele><time>2026-04-21T10:55:59.938Z</time></trkpt><trkpt lat="44.3413766" lon="8.5110082"><ele>14.0</ele><time>2026-04-21T10:56:00.94Z</time></trkpt><trkpt lat="44.3414891" lon="8.5109834"><ele>14.0</ele><time>2026-04-21T10:56:01.957Z</time></trkpt><trkpt lat="44.3416077" lon="8.5109548"><ele>14.5</ele><time>2026-04-21T10:56:02.934Z</time></trkpt><trkpt lat="44.3417306" lon="8.510919"><ele>15.0</ele><time>2026-04-21T10:56:03.958Z</time></trkpt><trkpt lat="44.3418558" lon="8.5108808"><ele>15.5</ele><time>2026-04-21T10:56:04.942Z</time></trkpt><trkpt lat="44.3419791" lon="8.5108398"><ele>16.0</ele><time>2026-04-21T10:56:05.935Z</time></trkpt><trkpt lat="44.3421033" lon="8.5108009"><ele>16.0</ele><time>2026-04-21T10:56:06.941Z</time></trkpt><trkpt lat="44.3422316" lon="8.5107625"><ele>16.0</ele><time>2026-04-21T10:56:07.939Z</time></trkpt><trkpt lat="44.3423662" lon="8.5107234"><ele>16.0</ele><time>2026-04-21T10:56:08.953Z</time></trkpt><trkpt lat="44.3425045" lon="8.5106826"><ele>16.0</ele><time>2026-04-21T10:56:09.944Z</time></trkpt><trkpt lat="44.3426467" lon="8.5106418"><ele>16.0</ele><time>2026-04-21T10:56:10.951Z</time></trkpt><trkpt lat="44.34279" lon="8.5106015"><ele>16.0</ele><time>2026-04-21T10:56:11.941Z</time></trkpt><trkpt lat="44.3429363" lon="8.5105613"><ele>16.0</ele><time>2026-04-21T10:56:12.93Z</time></trkpt><trkpt lat="44.3430836" lon="8.5105209"><ele>16.0</ele><time>2026-04-21T10:56:13.943Z</time></trkpt><trkpt lat="44.3432284" lon="8.5104804"><ele>16.666666666666664</ele><time>2026-04-21T10:56:14.939Z</time></trkpt><trkpt lat="44.3435159" lon="8.5103997"><ele>17.333333333333332</ele><time>2026-04-21T10:56:16.953Z</time></trkpt><trkpt lat="44.3436578" lon="8.5103602"><ele>18.0</ele><time>2026-04-21T10:56:17.94Z</time></trkpt><trkpt lat="44.3437989" lon="8.5103275"><ele>17.0</ele><time>2026-04-21T10:56:18.942Z</time></trkpt><trkpt lat="44.3439383" lon="8.5103128"><ele>16.0</ele><time>2026-04-21T10:56:19.943Z</time></trkpt><trkpt lat="44.3440754" lon="8.5103263"><ele>15.0</ele><time>2026-04-21T10:56:20.942Z</time></trkpt><trkpt lat="44.344211" lon="8.5103702"><ele>14.0</ele><time>2026-04-21T10:56:21.946Z</time></trkpt><trkpt lat="44.34434" lon="8.5104394"><ele>14.0</ele><time>2026-04-21T10:56:22.945Z</time></trkpt><trkpt lat="44.3444686" lon="8.5105362"><ele>14.0</ele><time>2026-04-21T10:56:23.933Z</time></trkpt><trkpt lat="44.3445943" lon="8.5106502"><ele>14.0</ele><time>2026-04-21T10:56:24.939Z</time></trkpt><trkpt lat="44.3447201" lon="8.5107667"><ele>14.0</ele><time>2026-04-21T10:56:25.938Z</time></trkpt><trkpt lat="44.3448444" lon="8.5108828"><ele>14.25</ele><time>2026-04-21T10:56:26.931Z</time></trkpt><trkpt lat="44.3449682" lon="8.5109989"><ele>14.5</ele><time>2026-04-21T10:56:27.943Z</time></trkpt><trkpt lat="44.3450845" lon="8.5111099"><ele>14.75</ele><time>2026-04-21T10:56:28.95Z</time></trkpt><trkpt lat="44.3451969" lon="8.5112134"><ele>15.0</ele><time>2026-04-21T10:56:29.953Z</time></trkpt><trkpt lat="44.3453088" lon="8.5113099"><ele>15.25</ele><time>2026-04-21T10:56:30.932Z</time></trkpt><trkpt lat="44.3454208" lon="8.5113989"><ele>15.5</ele><time>2026-04-21T10:56:31.941Z</time></trkpt><trkpt lat="44.3455347" lon="8.51148"><ele>15.75</ele><time>2026-04-21T10:56:32.943Z</time></trkpt><trkpt lat="44.3456533" lon="8.5115441"><ele>16.0</ele><time>2026-04-21T10:56:33.943Z</time></trkpt><trkpt lat="44.345776" lon="8.5115838"><ele>16.333333333333332</ele><time>2026-04-21T10:56:34.932Z</time></trkpt><trkpt lat="44.3459058" lon="8.5115986"><ele>16.666666666666668</ele><time>2026-04-21T10:56:35.95Z</time></trkpt><trkpt lat="44.3461734" lon="8.511555"><ele>17.0</ele><time>2026-04-21T10:56:37.94Z</time></trkpt><trkpt lat="44.3463051" lon="8.5115145"><ele>16.5</ele><time>2026-04-21T10:56:38.951Z</time></trkpt><trkpt lat="44.3464362" lon="8.5114595"><ele>16.0</ele><time>2026-04-21T10:56:39.943Z</time></trkpt><trkpt lat="44.3465634" lon="8.5113926"><ele>15.5</ele><time>2026-04-21T10:56:40.946Z</time></trkpt><trkpt lat="44.3466886" lon="8.51131"><ele>15.0</ele><time>2026-04-21T10:56:41.946Z</time></trkpt><trkpt lat="44.3468058" lon="8.5112129"><ele>15.0</ele><time>2026-04-21T10:56:42.944Z</time></trkpt><trkpt lat="44.3469214" lon="8.5111057"><ele>15.0</ele><time>2026-04-21T10:56:43.95Z</time></trkpt><trkpt lat="44.3470382" lon="8.5109875"><ele>15.0</ele><time>2026-04-21T10:56:44.955Z</time></trkpt><trkpt lat="44.347152" lon="8.5108625"><ele>15.0</ele><time>2026-04-21T10:56:45.949Z</time></trkpt><trkpt lat="44.3472665" lon="8.510734"><ele>15.666666666666668</ele><time>2026-04-21T10:56:46.952Z</time></trkpt><trkpt lat="44.3473827" lon="8.5106063"><ele>16.333333333333336</ele><time>2026-04-21T10:56:47.947Z</time></trkpt><trkpt lat="44.3475011" lon="8.5104766"><ele>17.0</ele><time>2026-04-21T10:56:48.938Z</time></trkpt><trkpt lat="44.3476262" lon="8.5103456"><ele>18.333333333333336</ele><time>2026-04-21T10:56:49.932Z</time></trkpt><trkpt lat="44.3477605" lon="8.5102143"><ele>19.666666666666668</ele><time>2026-04-21T10:56:50.949Z</time></trkpt><trkpt lat="44.3479085" lon="8.5100971"><ele>21.0</ele><time>2026-04-21T10:56:51.944Z</time></trkpt><trkpt lat="44.3480754" lon="8.5100203"><ele>21.666666666666668</ele><time>2026-04-21T10:56:52.945Z</time></trkpt><trkpt lat="44.3482569" lon="8.509997"><ele>22.333333333333336</ele><time>2026-04-21T10:56:53.948Z</time></trkpt><trkpt lat="44.3484422" lon="8.5100361"><ele>23.0</ele><time>2026-04-21T10:56:54.951Z</time></trkpt><trkpt lat="44.3486273" lon="8.5101371"><ele>23.0</ele><time>2026-04-21T10:56:55.95Z</time></trkpt><trkpt lat="44.3488106" lon="8.5102907"><ele>23.0</ele><time>2026-04-21T10:56:56.95Z</time></trkpt><trkpt lat="44.3491684" lon="8.510721"><ele>23.0</ele><time>2026-04-21T10:56:58.942Z</time></trkpt><trkpt lat="44.3493548" lon="8.5109298"><ele>23.0</ele><time>2026-04-21T10:56:59.935Z</time></trkpt><trkpt lat="44.3495527" lon="8.5110955"><ele>24.0</ele><time>2026-04-21T10:57:00.941Z</time></trkpt><trkpt lat="44.3497624" lon="8.511211"><ele>25.0</ele><time>2026-04-21T10:57:01.94Z</time></trkpt><trkpt lat="44.3499704" lon="8.5113061"><ele>26.0</ele><time>2026-04-21T10:57:02.943Z</time></trkpt><trkpt lat="44.3501701" lon="8.5113884"><ele>26.0</ele><time>2026-04-21T10:57:03.951Z</time></trkpt><trkpt lat="44.3503641" lon="8.5114857"><ele>26.0</ele><time>2026-04-21T10:57:04.948Z</time></trkpt><trkpt lat="44.3505483" lon="8.5116034"><ele>26.0</ele><time>2026-04-21T10:57:05.956Z</time></trkpt><trkpt lat="44.3507273" lon="8.511748"><ele>26.666666666666664</ele><time>2026-04-21T10:57:06.943Z</time></trkpt><trkpt lat="44.3508882" lon="8.5118955"><ele>27.333333333333336</ele><time>2026-04-21T10:57:07.951Z</time></trkpt><trkpt lat="44.3510385" lon="8.5120611"><ele>28.0</ele><time>2026-04-21T10:57:08.941Z</time></trkpt><trkpt lat="44.3511771" lon="8.5122335"><ele>28.333333333333336</ele><time>2026-04-21T10:57:09.947Z</time></trkpt><trkpt lat="44.3513036" lon="8.5124118"><ele>28.666666666666664</ele><time>2026-04-21T10:57:10.936Z</time></trkpt><trkpt lat="44.3514193" lon="8.512581"><ele>29.0</ele><time>2026-04-21T10:57:11.955Z</time></trkpt><trkpt lat="44.3515359" lon="8.5127252"><ele>30.0</ele><time>2026-04-21T10:57:12.94Z</time></trkpt><trkpt lat="44.3516529" lon="8.5128204"><ele>31.0</ele><time>2026-04-21T10:57:13.942Z</time></trkpt><trkpt lat="44.3517554" lon="8.5128701"><ele>32.0</ele><time>2026-04-21T10:57:14.932Z</time></trkpt><trkpt lat="44.3518288" lon="8.5129004"><ele>33.0</ele><time>2026-04-21T10:57:15.942Z</time></trkpt><trkpt lat="44.3519187" lon="8.5129429"><ele>34.0</ele><time>2026-04-21T10:57:17.943Z</time></trkpt><trkpt lat="44.3520791" lon="8.5130028"><ele>34.0</ele><time>2026-04-21T10:57:22.957Z</time></trkpt><trkpt lat="44.3521803" lon="8.5130463"><ele>34.0</ele><time>2026-04-21T10:57:24.934Z</time></trkpt><trkpt lat="44.352278" lon="8.5131002"><ele>34.0</ele><time>2026-04-21T10:57:26.931Z</time></trkpt><trkpt lat="44.3523577" lon="8.5131441"><ele>34.0</ele><time>2026-04-21T10:57:28.943Z</time></trkpt><trkpt lat="44.3524314" lon="8.5131879"><ele>34.0</ele><time>2026-04-21T10:57:31.942Z</time></trkpt><trkpt lat="44.3525087" lon="8.5132205"><ele>32.25</ele><time>2026-04-21T10:57:34.942Z</time></trkpt><trkpt lat="44.3525757" lon="8.5132445"><ele>30.5</ele><time>2026-04-21T10:57:37.938Z</time></trkpt><trkpt lat="44.3526503" lon="8.5132544"><ele>28.75</ele><time>2026-04-21T10:58:12.953Z</time></trkpt><trkpt lat="44.3526946" lon="8.5132227"><ele>27.0</ele><time>2026-04-21T10:58:34.955Z</time></trkpt><trkpt lat="44.3523641" lon="8.5131054"><ele>27.0</ele><time>2026-04-21T11:01:39.948Z</time></trkpt><trkpt lat="44.352218" lon="8.5130286"><ele>27.0</ele><time>2026-04-21T11:01:40.938Z</time></trkpt><trkpt lat="44.352052" lon="8.512959"><ele>27.0</ele><time>2026-04-21T11:01:41.939Z</time></trkpt><trkpt lat="44.3518868" lon="8.5128891"><ele>25.333333333333332</ele><time>2026-04-21T11:01:42.937Z</time></trkpt><trkpt lat="44.3517195" lon="8.5128002"><ele>23.666666666666664</ele><time>2026-04-21T11:01:43.943Z</time></trkpt><trkpt lat="44.351564" lon="8.5126848"><ele>22.0</ele><time>2026-04-21T11:01:44.94Z</time></trkpt><trkpt lat="44.3514146" lon="8.5125353"><ele>24.0</ele><time>2026-04-21T11:01:45.943Z</time></trkpt><trkpt lat="44.351265" lon="8.5123689"><ele>26.0</ele><time>2026-04-21T11:01:46.939Z</time></trkpt><trkpt lat="44.3511272" lon="8.5121934"><ele>28.0</ele><time>2026-04-21T11:01:47.934Z</time></trkpt><trkpt lat="44.3509917" lon="8.5120226"><ele>28.0</ele><time>2026-04-21T11:01:48.947Z</time></trkpt><trkpt lat="44.3508498" lon="8.511861"><ele>28.0</ele><time>2026-04-21T11:01:49.951Z</time></trkpt><trkpt lat="44.3506966" lon="8.5117121"><ele>28.0</ele><time>2026-04-21T11:01:50.943Z</time></trkpt><trkpt lat="44.3505378" lon="8.5115763"><ele>27.333333333333336</ele><time>2026-04-21T11:01:51.947Z</time></trkpt><trkpt lat="44.350378" lon="8.5114579"><ele>26.666666666666664</ele><time>2026-04-21T11:01:52.944Z</time></trkpt><trkpt lat="44.3502074" lon="8.5113504"><ele>26.0</ele><time>2026-04-21T11:01:53.938Z</time></trkpt><trkpt lat="44.3500354" lon="8.5112546"><ele>25.0</ele><time>2026-04-21T11:01:54.942Z</time></trkpt><trkpt lat="44.3498583" lon="8.5111747"><ele>24.0</ele><time>2026-04-21T11:01:55.942Z</time></trkpt><trkpt lat="44.3496746" lon="8.5110946"><ele>23.0</ele><time>2026-04-21T11:01:56.938Z</time></trkpt><trkpt lat="44.3494957" lon="8.5110009"><ele>23.0</ele><time>2026-04-21T11:01:57.943Z</time></trkpt><trkpt lat="44.3491711" lon="8.5107447"><ele>23.0</ele><time>2026-04-21T11:01:59.95Z</time></trkpt><trkpt lat="44.3490327" lon="8.5105963"><ele>23.0</ele><time>2026-04-21T11:02:00.95Z</time></trkpt><trkpt lat="44.3489013" lon="8.5104333"><ele>23.0</ele><time>2026-04-21T11:02:01.942Z</time></trkpt><trkpt lat="44.3487773" lon="8.5102818"><ele>23.0</ele><time>2026-04-21T11:02:02.945Z</time></trkpt><trkpt lat="44.34865" lon="8.5101471"><ele>23.0</ele><time>2026-04-21T11:02:03.944Z</time></trkpt><trkpt lat="44.3485181" lon="8.5100452"><ele>23.0</ele><time>2026-04-21T11:02:04.94Z</time></trkpt><trkpt lat="44.3483731" lon="8.5099928"><ele>23.0</ele><time>2026-04-21T11:02:05.943Z</time></trkpt><trkpt lat="44.3482203" lon="8.5099914"><ele>23.0</ele><time>2026-04-21T11:02:06.943Z</time></trkpt><trkpt lat="44.3480641" lon="8.5100226"><ele>23.0</ele><time>2026-04-21T11:02:07.934Z</time></trkpt><trkpt lat="44.3479097" lon="8.5100907"><ele>23.0</ele><time>2026-04-21T11:02:08.937Z</time></trkpt><trkpt lat="44.3477683" lon="8.5101853"><ele>22.5</ele><time>2026-04-21T11:02:09.948Z</time></trkpt><trkpt lat="44.3476448" lon="8.5102815"><ele>22.0</ele><time>2026-04-21T11:02:10.942Z</time></trkpt><trkpt lat="44.3475436" lon="8.510393"><ele>21.5</ele><time>2026-04-21T11:02:11.941Z</time></trkpt><trkpt lat="44.3474542" lon="8.5105102"><ele>21.0</ele><time>2026-04-21T11:02:12.953Z</time></trkpt><trkpt lat="44.3473659" lon="8.5106273"><ele>20.0</ele><time>2026-04-21T11:02:13.941Z</time></trkpt><trkpt lat="44.3472781" lon="8.5107338"><ele>19.0</ele><time>2026-04-21T11:02:14.944Z</time></trkpt><trkpt lat="44.3471817" lon="8.5108369"><ele>18.0</ele><time>2026-04-21T11:02:15.937Z</time></trkpt><trkpt lat="44.3470832" lon="8.5109396"><ele>17.0</ele><time>2026-04-21T11:02:16.942Z</time></trkpt><trkpt lat="44.3469794" lon="8.5110495"><ele>18.0</ele><time>2026-04-21T11:02:17.943Z</time></trkpt><trkpt lat="44.3467513" lon="8.5112681"><ele>19.0</ele><time>2026-04-21T11:02:19.941Z</time></trkpt><trkpt lat="44.3466209" lon="8.5113534"><ele>20.0</ele><time>2026-04-21T11:02:20.943Z</time></trkpt><trkpt lat="44.346484" lon="8.511421"><ele>19.25</ele><time>2026-04-21T11:02:21.945Z</time></trkpt><trkpt lat="44.3463379" lon="8.5114707"><ele>18.5</ele><time>2026-04-21T11:02:22.937Z</time></trkpt><trkpt lat="44.3461986" lon="8.5115106"><ele>17.75</ele><time>2026-04-21T11:02:23.944Z</time></trkpt><trkpt lat="44.3460679" lon="8.5115414"><ele>17.0</ele><time>2026-04-21T11:02:24.942Z</time></trkpt><trkpt lat="44.3459381" lon="8.5115542"><ele>17.0</ele><time>2026-04-21T11:02:25.944Z</time></trkpt><trkpt lat="44.3458107" lon="8.5115465"><ele>17.0</ele><time>2026-04-21T11:02:26.942Z</time></trkpt><trkpt lat="44.3456826" lon="8.5115096"><ele>17.0</ele><time>2026-04-21T11:02:27.944Z</time></trkpt><trkpt lat="44.3455555" lon="8.5114483"><ele>17.0</ele><time>2026-04-21T11:02:28.943Z</time></trkpt><trkpt lat="44.3454359" lon="8.5113655"><ele>16.75</ele><time>2026-04-21T11:02:29.938Z</time></trkpt><trkpt lat="44.345331" lon="8.5112724"><ele>16.5</ele><time>2026-04-21T11:02:30.946Z</time></trkpt><trkpt lat="44.3452234" lon="8.5111758"><ele>16.25</ele><time>2026-04-21T11:02:31.94Z</time></trkpt><trkpt lat="44.3451218" lon="8.5110869"><ele>16.0</ele><time>2026-04-21T11:02:32.95Z</time></trkpt><trkpt lat="44.3450256" lon="8.5110047"><ele>15.8</ele><time>2026-04-21T11:02:33.942Z</time></trkpt><trkpt lat="44.3449344" lon="8.5109255"><ele>15.600000000000001</ele><time>2026-04-21T11:02:34.941Z</time></trkpt><trkpt lat="44.3448472" lon="8.5108483"><ele>15.4</ele><time>2026-04-21T11:02:35.942Z</time></trkpt><trkpt lat="44.3447588" lon="8.5107699"><ele>15.2</ele><time>2026-04-21T11:02:36.939Z</time></trkpt><trkpt lat="44.344668" lon="8.5106891"><ele>15.0</ele><time>2026-04-21T11:02:37.949Z</time></trkpt><trkpt lat="44.344573" lon="8.5106117"><ele>14.666666666666668</ele><time>2026-04-21T11:02:38.942Z</time></trkpt><trkpt lat="44.3443704" lon="8.5104588"><ele>14.333333333333334</ele><time>2026-04-21T11:02:40.947Z</time></trkpt><trkpt lat="44.3442697" lon="8.5103886"><ele>14.0</ele><time>2026-04-21T11:02:41.95Z</time></trkpt><trkpt lat="44.3441648" lon="8.5103318"><ele>15.0</ele><time>2026-04-21T11:02:42.941Z</time></trkpt><trkpt lat="44.3440535" lon="8.5102957"><ele>16.0</ele><time>2026-04-21T11:02:43.942Z</time></trkpt><trkpt lat="44.3439374" lon="8.510284"><ele>17.0</ele><time>2026-04-21T11:02:44.943Z</time></trkpt><trkpt lat="44.3438242" lon="8.5102933"><ele>18.0</ele><time>2026-04-21T11:02:45.931Z</time></trkpt><trkpt lat="44.343713" lon="8.5103113"><ele>18.0</ele><time>2026-04-21T11:02:46.937Z</time></trkpt><trkpt lat="44.343605" lon="8.5103372"><ele>18.0</ele><time>2026-04-21T11:02:47.938Z</time></trkpt><trkpt lat="44.3435042" lon="8.5103609"><ele>18.0</ele><time>2026-04-21T11:02:48.943Z</time></trkpt><trkpt lat="44.3434089" lon="8.5103875"><ele>18.0</ele><time>2026-04-21T11:02:49.942Z</time></trkpt><trkpt lat="44.343318" lon="8.5104207"><ele>18.0</ele><time>2026-04-21T11:02:50.941Z</time></trkpt><trkpt lat="44.3432243" lon="8.5104486"><ele>17.5</ele><time>2026-04-21T11:02:51.941Z</time></trkpt><trkpt lat="44.3431254" lon="8.5104765"><ele>17.0</ele><time>2026-04-21T11:02:52.952Z</time></trkpt><trkpt lat="44.3430179" lon="8.5105058"><ele>16.5</ele><time>2026-04-21T11:02:53.943Z</time></trkpt><trkpt lat="44.3429044" lon="8.5105369"><ele>16.0</ele><time>2026-04-21T11:02:54.938Z</time></trkpt><trkpt lat="44.3427829" lon="8.5105703"><ele>16.0</ele><time>2026-04-21T11:02:55.939Z</time></trkpt><trkpt lat="44.3426578" lon="8.5106065"><ele>16.0</ele><time>2026-04-21T11:02:56.942Z</time></trkpt><trkpt lat="44.3425309" lon="8.5106436"><ele>16.0</ele><time>2026-04-21T11:02:57.942Z</time></trkpt><trkpt lat="44.3423996" lon="8.5106807"><ele>16.0</ele><time>2026-04-21T11:02:58.949Z</time></trkpt><trkpt lat="44.3422643" lon="8.5107193"><ele>16.0</ele><time>2026-04-21T11:02:59.939Z</time></trkpt><trkpt lat="44.3419925" lon="8.5107894"><ele>16.0</ele><time>2026-04-21T11:03:01.941Z</time></trkpt><trkpt lat="44.3418576" lon="8.5108256"><ele>16.0</ele><time>2026-04-21T11:03:02.942Z</time></trkpt><trkpt lat="44.341722" lon="8.5108619"><ele>16.0</ele><time>2026-04-21T11:03:03.941Z</time></trkpt><trkpt lat="44.341584" lon="8.510899"><ele>16.0</ele><time>2026-04-21T11:03:04.948Z</time></trkpt><trkpt lat="44.3414444" lon="8.5109368"><ele>16.0</ele><time>2026-04-21T11:03:05.942Z</time></trkpt><trkpt lat="44.3413028" lon="8.5109725"><ele>16.0</ele><time>2026-04-21T11:03:06.942Z</time></trkpt><trkpt lat="44.341163" lon="8.5110069"><ele>15.5</ele><time>2026-04-21T11:03:07.95Z</time></trkpt><trkpt lat="44.3410253" lon="8.511043"><ele>15.0</ele><time>2026-04-21T11:03:08.951Z</time></trkpt><trkpt lat="44.3408885" lon="8.5110825"><ele>14.5</ele><time>2026-04-21T11:03:09.956Z</time></trkpt><trkpt lat="44.3407541" lon="8.5111222"><ele>14.0</ele><time>2026-04-21T11:03:10.951Z</time></trkpt><trkpt lat="44.3406221" lon="8.5111617"><ele>13.75</ele><time>2026-04-21T11:03:11.94Z</time></trkpt><trkpt lat="44.3404921" lon="8.511198"><ele>13.5</ele><time>2026-04-21T11:03:12.942Z</time></trkpt><trkpt lat="44.3403633" lon="8.5112288"><ele>13.25</ele><time>2026-04-21T11:03:13.948Z</time></trkpt><trkpt lat="44.3402347" lon="8.5112441"><ele>13.0</ele><time>2026-04-21T11:03:14.942Z</time></trkpt><trkpt lat="44.3401149" lon="8.5112392"><ele>13.0</ele><time>2026-04-21T11:03:15.943Z</time></trkpt><trkpt lat="44.3400068" lon="8.5112028"><ele>13.0</ele><time>2026-04-21T11:03:16.943Z</time></trkpt><trkpt lat="44.3398988" lon="8.5111428"><ele>13.0</ele><time>2026-04-21T11:03:17.944Z</time></trkpt><trkpt lat="44.3397958" lon="8.511066"><ele>13.0</ele><time>2026-04-21T11:03:18.943Z</time></trkpt><trkpt lat="44.3396978" lon="8.5109907"><ele>12.8</ele><time>2026-04-21T11:03:19.943Z</time></trkpt><trkpt lat="44.339613" lon="8.5109206"><ele>12.600000000000001</ele><time>2026-04-21T11:03:20.939Z</time></trkpt><trkpt lat="44.3394658" lon="8.5107988"><ele>12.399999999999999</ele><time>2026-04-21T11:03:22.944Z</time></trkpt><trkpt lat="44.3393988" lon="8.5107473"><ele>12.2</ele><time>2026-04-21T11:03:23.939Z</time></trkpt><trkpt lat="44.3393387" lon="8.5107039"><ele>12.0</ele><time>2026-04-21T11:03:24.949Z</time></trkpt><trkpt lat="44.3392641" lon="8.5106523"><ele>12.0</ele><time>2026-04-21T11:03:26.955Z</time></trkpt><trkpt lat="44.339196" lon="8.5105936"><ele>12.0</ele><time>2026-04-21T11:03:31.948Z</time></trkpt><trkpt lat="44.3391164" lon="8.5105384"><ele>12.0</ele><time>2026-04-21T11:03:34.942Z</time></trkpt><trkpt lat="44.3390628" lon="8.5104849"><ele>12.0</ele><time>2026-04-21T11:03:39.942Z</time></trkpt><trkpt lat="44.3389966" lon="8.5104247"><ele>12.0</ele><time>2026-04-21T11:03:49.944Z</time></trkpt><trkpt lat="44.3389095" lon="8.5101732"><ele>11.666666666666666</ele><time>2026-04-21T11:03:53.944Z</time></trkpt><trkpt lat="44.3388484" lon="8.5100988"><ele>11.333333333333334</ele><time>2026-04-21T11:03:54.944Z</time></trkpt><trkpt lat="44.3387811" lon="8.5100828"><ele>11.0</ele><time>2026-04-21T11:03:55.944Z</time></trkpt><trkpt lat="44.3387068" lon="8.5100988"><ele>10.666666666666668</ele><time>2026-04-21T11:03:56.941Z</time></trkpt><trkpt lat="44.3386325" lon="8.510099"><ele>10.333333333333334</ele><time>2026-04-21T11:03:57.942Z</time></trkpt><trkpt lat="44.3385563" lon="8.5100778"><ele>10.0</ele><time>2026-04-21T11:03:58.939Z</time></trkpt><trkpt lat="44.3384562" lon="8.5100382"><ele>10.0</ele><time>2026-04-21T11:03:59.944Z</time></trkpt><trkpt lat="44.3383531" lon="8.5099785"><ele>10.0</ele><time>2026-04-21T11:04:00.942Z</time></trkpt><trkpt lat="44.3382376" lon="8.5099099"><ele>10.0</ele><time>2026-04-21T11:04:01.955Z</time></trkpt><trkpt lat="44.338105" lon="8.5098359"><ele>10.0</ele><time>2026-04-21T11:04:02.946Z</time></trkpt><trkpt lat="44.3379871" lon="8.5097682"><ele>10.2</ele><time>2026-04-21T11:04:03.941Z</time></trkpt><trkpt lat="44.3378783" lon="8.5097031"><ele>10.4</ele><time>2026-04-21T11:04:04.951Z</time></trkpt><trkpt lat="44.3377787" lon="8.5096408"><ele>10.600000000000001</ele><time>2026-04-21T11:04:05.948Z</time></trkpt><trkpt lat="44.3376808" lon="8.5095815"><ele>10.8</ele><time>2026-04-21T11:04:06.943Z</time></trkpt><trkpt lat="44.3375916" lon="8.50953"><ele>11.0</ele><time>2026-04-21T11:04:07.952Z</time></trkpt><trkpt lat="44.3375139" lon="8.5094873"><ele>11.0</ele><time>2026-04-21T11:04:08.938Z</time></trkpt><trkpt lat="44.3374412" lon="8.5094432"><ele>11.0</ele><time>2026-04-21T11:04:09.95Z</time></trkpt><trkpt lat="44.3373711" lon="8.5094031"><ele>11.0</ele><time>2026-04-21T11:04:10.938Z</time></trkpt><trkpt lat="44.3372233" lon="8.509352"><ele>11.0</ele><time>2026-04-21T11:04:12.941Z</time></trkpt><trkpt lat="44.3371484" lon="8.5093728"><ele>11.0</ele><time>2026-04-21T11:04:13.944Z</time></trkpt><trkpt lat="44.3370668" lon="8.5094331"><ele>10.8</ele><time>2026-04-21T11:04:14.954Z</time></trkpt><trkpt lat="44.3369757" lon="8.5094997"><ele>10.600000000000001</ele><time>2026-04-21T11:04:15.942Z</time></trkpt><trkpt lat="44.336881" lon="8.5095692"><ele>10.4</ele><time>2026-04-21T11:04:16.938Z</time></trkpt><trkpt lat="44.3367835" lon="8.5096333"><ele>10.2</ele><time>2026-04-21T11:04:17.943Z</time></trkpt><trkpt lat="44.3366828" lon="8.5096951"><ele>10.0</ele><time>2026-04-21T11:04:18.952Z</time></trkpt><trkpt lat="44.3365808" lon="8.509748"><ele>10.0</ele><time>2026-04-21T11:04:19.941Z</time></trkpt><trkpt lat="44.3364804" lon="8.5097992"><ele>10.0</ele><time>2026-04-21T11:04:20.941Z</time></trkpt><trkpt lat="44.3363837" lon="8.50985"><ele>10.0</ele><time>2026-04-21T11:04:21.943Z</time></trkpt><trkpt lat="44.3362871" lon="8.5099"><ele>10.0</ele><time>2026-04-21T11:04:22.939Z</time></trkpt><trkpt lat="44.3361902" lon="8.5099539"><ele>10.0</ele><time>2026-04-21T11:04:23.943Z</time></trkpt><trkpt lat="44.3360928" lon="8.5100063"><ele>9.6</ele><time>2026-04-21T11:04:24.938Z</time></trkpt><trkpt lat="44.3359937" lon="8.5100564"><ele>9.2</ele><time>2026-04-21T11:04:25.943Z</time></trkpt><trkpt lat="44.335892" lon="8.5101094"><ele>8.8</ele><time>2026-04-21T11:04:26.937Z</time></trkpt><trkpt lat="44.3357924" lon="8.510159"><ele>8.4</ele><time>2026-04-21T11:04:27.942Z</time></trkpt><trkpt lat="44.3356979" lon="8.5102064"><ele>8.0</ele><time>2026-04-21T11:04:28.933Z</time></trkpt><trkpt lat="44.3356058" lon="8.5102549"><ele>8.25</ele><time>2026-04-21T11:04:29.943Z</time></trkpt><trkpt lat="44.3355104" lon="8.5102999"><ele>8.5</ele><time>2026-04-21T11:04:30.942Z</time></trkpt><trkpt lat="44.3354125" lon="8.5103504"><ele>8.75</ele><time>2026-04-21T11:04:31.937Z</time></trkpt><trkpt lat="44.3352209" lon="8.5104595"><ele>9.0</ele><time>2026-04-21T11:04:33.944Z</time></trkpt><trkpt lat="44.3351219" lon="8.5105178"><ele>9.0</ele><time>2026-04-21T11:04:34.942Z</time></trkpt><trkpt lat="44.3350186" lon="8.5105784"><ele>9.0</ele><time>2026-04-21T11:04:35.944Z</time></trkpt><trkpt lat="44.3349137" lon="8.5106359"><ele>9.0</ele><time>2026-04-21T11:04:36.944Z</time></trkpt><trkpt lat="44.3348085" lon="8.5106884"><ele>9.0</ele><time>2026-04-21T11:04:37.94Z</time></trkpt><trkpt lat="44.3346929" lon="8.5107405"><ele>8.8</ele><time>2026-04-21T11:04:38.948Z</time></trkpt><trkpt lat="44.3345918" lon="8.5107866"><ele>8.600000000000001</ele><time>2026-04-21T11:04:39.939Z</time></trkpt><trkpt lat="44.3344994" lon="8.5108332"><ele>8.4</ele><time>2026-04-21T11:04:40.949Z</time></trkpt><trkpt lat="44.3344085" lon="8.5108837"><ele>8.200000000000001</ele><time>2026-04-21T11:04:41.941Z</time></trkpt><trkpt lat="44.3343096" lon="8.5109389"><ele>8.0</ele><time>2026-04-21T11:04:42.943Z</time></trkpt><trkpt lat="44.3342289" lon="8.5109935"><ele>7.999999999999999</ele><time>2026-04-21T11:04:43.947Z</time></trkpt><trkpt lat="44.3341587" lon="8.5110384"><ele>8.0</ele><time>2026-04-21T11:04:44.939Z</time></trkpt><trkpt lat="44.3340815" lon="8.5110851"><ele>8.0</ele><time>2026-04-21T11:04:45.941Z</time></trkpt><trkpt lat="44.3340006" lon="8.5111368"><ele>8.0</ele><time>2026-04-21T11:04:46.95Z</time></trkpt><trkpt lat="44.3339147" lon="8.5111921"><ele>7.999999999999999</ele><time>2026-04-21T11:04:47.94Z</time></trkpt><trkpt lat="44.3338299" lon="8.5112442"><ele>8.0</ele><time>2026-04-21T11:04:48.943Z</time></trkpt><trkpt lat="44.3337378" lon="8.5112961"><ele>8.0</ele><time>2026-04-21T11:04:49.949Z</time></trkpt><trkpt lat="44.3336534" lon="8.5113452"><ele>8.0</ele><time>2026-04-21T11:04:50.948Z</time></trkpt><trkpt lat="44.3335735" lon="8.5113961"><ele>8.0</ele><time>2026-04-21T11:04:51.941Z</time></trkpt><trkpt lat="44.3334908" lon="8.5114466"><ele>8.0</ele><time>2026-04-21T11:04:52.94Z</time></trkpt><trkpt lat="44.3333104" lon="8.5115489"><ele>7.999999999999999</ele><time>2026-04-21T11:04:54.946Z</time></trkpt><trkpt lat="44.3332218" lon="8.5115963"><ele>8.0</ele><time>2026-04-21T11:04:55.954Z</time></trkpt><trkpt lat="44.3331383" lon="8.5116424"><ele>8.0</ele><time>2026-04-21T11:04:56.944Z</time></trkpt><trkpt lat="44.3330576" lon="8.5116835"><ele>8.0</ele><time>2026-04-21T11:04:57.951Z</time></trkpt><trkpt lat="44.3329739" lon="8.511727"><ele>7.999999999999999</ele><time>2026-04-21T11:04:58.946Z</time></trkpt><trkpt lat="44.3328973" lon="8.5117712"><ele>8.0</ele><time>2026-04-21T11:04:59.942Z</time></trkpt><trkpt lat="44.3328255" lon="8.5118113"><ele>8.0</ele><time>2026-04-21T11:05:00.947Z</time></trkpt><trkpt lat="44.3327596" lon="8.5118476"><ele>8.0</ele><time>2026-04-21T11:05:01.957Z</time></trkpt><trkpt lat="44.3326992" lon="8.5118767"><ele>8.0</ele><time>2026-04-21T11:05:02.939Z</time></trkpt><trkpt lat="44.3325943" lon="8.5119324"><ele>8.0</ele><time>2026-04-21T11:05:04.942Z</time></trkpt><trkpt lat="44.3324725" lon="8.5120108"><ele>8.0</ele><time>2026-04-21T11:05:06.934Z</time></trkpt><trkpt lat="44.3323917" lon="8.5120788"><ele>8.25</ele><time>2026-04-21T11:05:07.938Z</time></trkpt><trkpt lat="44.33229" lon="8.5121475"><ele>8.5</ele><time>2026-04-21T11:05:08.95Z</time></trkpt><trkpt lat="44.3321767" lon="8.5121966"><ele>8.75</ele><time>2026-04-21T11:05:09.941Z</time></trkpt><trkpt lat="44.3320574" lon="8.5122648"><ele>9.0</ele><time>2026-04-21T11:05:10.94Z</time></trkpt><trkpt lat="44.3319385" lon="8.512334"><ele>9.0</ele><time>2026-04-21T11:05:11.942Z</time></trkpt><trkpt lat="44.3318181" lon="8.5123941"><ele>9.0</ele><time>2026-04-21T11:05:12.951Z</time></trkpt><trkpt lat="44.3316917" lon="8.5124582"><ele>9.0</ele><time>2026-04-21T11:05:13.944Z</time></trkpt><trkpt lat="44.3314779" lon="8.5125726"><ele>8.75</ele><time>2026-04-21T11:05:15.953Z</time></trkpt><trkpt lat="44.3313705" lon="8.5126348"><ele>8.5</ele><time>2026-04-21T11:05:16.936Z</time></trkpt><trkpt lat="44.3312564" lon="8.5126948"><ele>8.25</ele><time>2026-04-21T11:05:17.94Z</time></trkpt><trkpt lat="44.3311454" lon="8.5127543"><ele>8.0</ele><time>2026-04-21T11:05:18.941Z</time></trkpt><trkpt lat="44.3310379" lon="8.5128132"><ele>8.0</ele><time>2026-04-21T11:05:19.942Z</time></trkpt><trkpt lat="44.330935" lon="8.512868"><ele>8.0</ele><time>2026-04-21T11:05:20.942Z</time></trkpt><trkpt lat="44.3308372" lon="8.5129243"><ele>8.0</ele><time>2026-04-21T11:05:21.942Z</time></trkpt><trkpt lat="44.3307468" lon="8.5129766"><ele>8.0</ele><time>2026-04-21T11:05:22.935Z</time></trkpt><trkpt lat="44.3306745" lon="8.5130151"><ele>8.0</ele><time>2026-04-21T11:05:23.943Z</time></trkpt><trkpt lat="44.3305691" lon="8.5130233"><ele>7.800000000000001</ele><time>2026-04-21T11:05:25.942Z</time></trkpt><trkpt lat="44.3304625" lon="8.5130025"><ele>7.6000000000000005</ele><time>2026-04-21T11:05:27.937Z</time></trkpt><trkpt lat="44.3303958" lon="8.513048"><ele>7.3999999999999995</ele><time>2026-04-21T11:05:29.934Z</time></trkpt><trkpt lat="44.3304259" lon="8.5132192"><ele>7.199999999999999</ele><time>2026-04-21T11:05:31.937Z</time></trkpt><trkpt lat="44.3304634" lon="8.5133331"><ele>7.0</ele><time>2026-04-21T11:05:32.942Z</time></trkpt><trkpt lat="44.3305003" lon="8.513443"><ele>7.0</ele><time>2026-04-21T11:05:33.935Z</time></trkpt><trkpt lat="44.3305319" lon="8.5135506"><ele>6.999999999999999</ele><time>2026-04-21T11:05:34.932Z</time></trkpt><trkpt lat="44.3305994" lon="8.5137522"><ele>6.999999999999999</ele><time>2026-04-21T11:05:36.932Z</time></trkpt><trkpt lat="44.3306305" lon="8.5138473"><ele>7.0</ele><time>2026-04-21T11:05:37.94Z</time></trkpt><trkpt lat="44.3306636" lon="8.5139483"><ele>7.0</ele><time>2026-04-21T11:05:38.934Z</time></trkpt><trkpt lat="44.3306983" lon="8.5140632"><ele>7.3999999999999995</ele><time>2026-04-21T11:05:39.938Z</time></trkpt><trkpt lat="44.3307348" lon="8.5141948"><ele>7.799999999999999</ele><time>2026-04-21T11:05:40.938Z</time></trkpt><trkpt lat="44.3307719" lon="8.5143318"><ele>8.2</ele><time>2026-04-21T11:05:41.928Z</time></trkpt><trkpt lat="44.3308118" lon="8.5144689"><ele>8.6</ele><time>2026-04-21T11:05:42.935Z</time></trkpt><trkpt lat="44.3308525" lon="8.5146128"><ele>9.0</ele><time>2026-04-21T11:05:43.935Z</time></trkpt><trkpt lat="44.3308933" lon="8.5147627"><ele>9.0</ele><time>2026-04-21T11:05:44.935Z</time></trkpt><trkpt lat="44.3309351" lon="8.5149159"><ele>9.0</ele><time>2026-04-21T11:05:45.932Z</time></trkpt><trkpt lat="44.330973" lon="8.5150678"><ele>9.0</ele><time>2026-04-21T11:05:46.936Z</time></trkpt><trkpt lat="44.3310115" lon="8.5152225"><ele>9.0</ele><time>2026-04-21T11:05:47.932Z</time></trkpt><trkpt lat="44.3310575" lon="8.5153782"><ele>9.0</ele><time>2026-04-21T11:05:48.935Z</time></trkpt><trkpt lat="44.3311025" lon="8.515531"><ele>9.0</ele><time>2026-04-21T11:05:49.936Z</time></trkpt><trkpt lat="44.33114" lon="8.5156848"><ele>9.0</ele><time>2026-04-21T11:05:50.933Z</time></trkpt><trkpt lat="44.331179" lon="8.5158322"><ele>9.0</ele><time>2026-04-21T11:05:51.931Z</time></trkpt><trkpt lat="44.3312188" lon="8.5159784"><ele>9.0</ele><time>2026-04-21T11:05:52.934Z</time></trkpt><trkpt lat="44.3312565" lon="8.5161223"><ele>9.0</ele><time>2026-04-21T11:05:53.934Z</time></trkpt><trkpt lat="44.3312966" lon="8.5162538"><ele>9.0</ele><time>2026-04-21T11:05:54.933Z</time></trkpt><trkpt lat="44.3313335" lon="8.516371"><ele>9.0</ele><time>2026-04-21T11:05:55.934Z</time></trkpt><trkpt lat="44.3313954" lon="8.5165916"><ele>9.833333333333334</ele><time>2026-04-21T11:05:57.934Z</time></trkpt><trkpt lat="44.3314228" lon="8.5166991"><ele>10.666666666666668</ele><time>2026-04-21T11:05:58.934Z</time></trkpt><trkpt lat="44.3314442" lon="8.5168017"><ele>11.5</ele><time>2026-04-21T11:05:59.934Z</time></trkpt><trkpt lat="44.3314615" lon="8.5168943"><ele>12.333333333333334</ele><time>2026-04-21T11:06:00.931Z</time></trkpt><trkpt lat="44.3314759" lon="8.5170131"><ele>13.166666666666668</ele><time>2026-04-21T11:06:02.933Z</time></trkpt><trkpt lat="44.3315473" lon="8.5170358"><ele>14.0</ele><time>2026-04-21T11:08:31.938Z</time></trkpt><trkpt lat="44.3315992" lon="8.5172895"><ele>14.0</ele><time>2026-04-21T11:09:02.94Z</time></trkpt><trkpt lat="44.3316682" lon="8.5175603"><ele>14.0</ele><time>2026-04-21T11:09:05.949Z</time></trkpt><trkpt lat="44.331694" lon="8.5176664"><ele>14.0</ele><time>2026-04-21T11:09:06.951Z</time></trkpt><trkpt lat="44.331723" lon="8.5177814"><ele>14.0</ele><time>2026-04-21T11:09:07.944Z</time></trkpt><trkpt lat="44.3317555" lon="8.5178987"><ele>13.2</ele><time>2026-04-21T11:09:08.941Z</time></trkpt><trkpt lat="44.3317918" lon="8.5180234"><ele>12.399999999999999</ele><time>2026-04-21T11:09:09.943Z</time></trkpt><trkpt lat="44.3318288" lon="8.5181501"><ele>11.6</ele><time>2026-04-21T11:09:10.942Z</time></trkpt><trkpt lat="44.3318666" lon="8.5182801"><ele>10.8</ele><time>2026-04-21T11:09:11.942Z</time></trkpt><trkpt lat="44.3319074" lon="8.5184148"><ele>10.0</ele><time>2026-04-21T11:09:12.943Z</time></trkpt><trkpt lat="44.3319512" lon="8.5185523"><ele>10.0</ele><time>2026-04-21T11:09:13.941Z</time></trkpt><trkpt lat="44.3319973" lon="8.5186965"><ele>10.0</ele><time>2026-04-21T11:09:14.935Z</time></trkpt><trkpt lat="44.3320418" lon="8.5188453"><ele>10.0</ele><time>2026-04-21T11:09:15.96Z</time></trkpt><trkpt lat="44.332085" lon="8.5189903"><ele>10.0</ele><time>2026-04-21T11:09:16.94Z</time></trkpt><trkpt lat="44.3321243" lon="8.5191366"><ele>10.0</ele><time>2026-04-21T11:09:17.944Z</time></trkpt><trkpt lat="44.3321638" lon="8.5192844"><ele>10.0</ele><time>2026-04-21T11:09:18.943Z</time></trkpt><trkpt lat="44.3322029" lon="8.5194241"><ele>10.0</ele><time>2026-04-21T11:09:19.96Z</time></trkpt><trkpt lat="44.3322386" lon="8.5195446"><ele>10.0</ele><time>2026-04-21T11:09:20.942Z</time></trkpt><trkpt lat="44.3322667" lon="8.5196409"><ele>10.0</ele><time>2026-04-21T11:09:21.944Z</time></trkpt><trkpt lat="44.332297" lon="8.5197796"><ele>11.6</ele><time>2026-04-21T11:09:23.941Z</time></trkpt><trkpt lat="44.3323054" lon="8.5200386"><ele>13.2</ele><time>2026-04-21T11:09:26.942Z</time></trkpt><trkpt lat="44.3323126" lon="8.5201511"><ele>14.8</ele><time>2026-04-21T11:09:27.955Z</time></trkpt><trkpt lat="44.3323209" lon="8.5202669"><ele>16.4</ele><time>2026-04-21T11:09:28.943Z</time></trkpt><trkpt lat="44.332326" lon="8.5203887"><ele>18.0</ele><time>2026-04-21T11:09:29.94Z</time></trkpt><trkpt lat="44.332332" lon="8.5205216"><ele>19.0</ele><time>2026-04-21T11:09:30.944Z</time></trkpt><trkpt lat="44.3323372" lon="8.5206719"><ele>20.0</ele><time>2026-04-21T11:09:31.941Z</time></trkpt><trkpt lat="44.3323372" lon="8.5208403"><ele>21.0</ele><time>2026-04-21T11:09:32.942Z</time></trkpt><trkpt lat="44.3323404" lon="8.5210177"><ele>22.0</ele><time>2026-04-21T11:09:33.945Z</time></trkpt><trkpt lat="44.3323491" lon="8.5212003"><ele>26.5</ele><time>2026-04-21T11:09:34.949Z</time></trkpt><trkpt lat="44.3323593" lon="8.5213845"><ele>31.0</ele><time>2026-04-21T11:09:35.937Z</time></trkpt><trkpt lat="44.3323626" lon="8.5215793"><ele>35.5</ele><time>2026-04-21T11:09:36.943Z</time></trkpt><trkpt lat="44.3323627" lon="8.5217867"><ele>40.0</ele><time>2026-04-21T11:09:37.942Z</time></trkpt><trkpt lat="44.3323631" lon="8.5220086"><ele>45.0</ele><time>2026-04-21T11:09:38.935Z</time></trkpt><trkpt lat="44.3323693" lon="8.5222369"><ele>50.0</ele><time>2026-04-21T11:09:39.938Z</time></trkpt><trkpt lat="44.3323657" lon="8.5225162"><ele>55.0</ele><time>2026-04-21T11:09:40.93Z</time></trkpt><trkpt lat="44.3323637" lon="8.5228108"><ele>54.0</ele><time>2026-04-21T11:09:41.929Z</time></trkpt><trkpt lat="44.3323611" lon="8.5231379"><ele>53.0</ele><time>2026-04-21T11:09:42.924Z</time></trkpt><trkpt lat="44.3323561" lon="8.5234843"><ele>47.0</ele><time>2026-04-21T11:09:43.932Z</time></trkpt><trkpt lat="44.3323518" lon="8.5238397"><ele>41.0</ele><time>2026-04-21T11:09:44.928Z</time></trkpt><trkpt lat="44.3323544" lon="8.5244519"><ele>33.5</ele><time>2026-04-21T11:09:46.921Z</time></trkpt><trkpt lat="44.3323533" lon="8.5247645"><ele>26.0</ele><time>2026-04-21T11:09:47.926Z</time></trkpt><trkpt lat="44.3323527" lon="8.5250824"><ele>20.0</ele><time>2026-04-21T11:09:48.922Z</time></trkpt><trkpt lat="44.3323612" lon="8.5257203"><ele>22.0</ele><time>2026-04-21T11:09:51.938Z</time></trkpt><trkpt lat="44.3323305" lon="8.525362"><ele>24.0</ele><time>2026-04-21T11:09:52.945Z</time></trkpt><trkpt lat="44.3323924" lon="8.5251151"><ele>26.0</ele><time>2026-04-21T11:09:53.943Z</time></trkpt><trkpt lat="44.3324067" lon="8.5252872"><ele>24.5</ele><time>2026-04-21T11:09:54.941Z</time></trkpt><trkpt lat="44.3323953" lon="8.5254732"><ele>23.0</ele><time>2026-04-21T11:09:55.942Z</time></trkpt><trkpt lat="44.3323921" lon="8.5256491"><ele>21.5</ele><time>2026-04-21T11:09:56.952Z</time></trkpt><trkpt lat="44.3323878" lon="8.52583"><ele>20.0</ele><time>2026-04-21T11:09:57.944Z</time></trkpt><trkpt lat="44.3323884" lon="8.5260026"><ele>20.0</ele><time>2026-04-21T11:09:58.961Z</time></trkpt><trkpt lat="44.3323879" lon="8.5261658"><ele>20.0</ele><time>2026-04-21T11:09:59.944Z</time></trkpt><trkpt lat="44.3323833" lon="8.5263272"><ele>20.0</ele><time>2026-04-21T11:10:00.939Z</time></trkpt><trkpt lat="44.3323809" lon="8.5264872"><ele>20.0</ele><time>2026-04-21T11:10:01.955Z</time></trkpt><trkpt lat="44.3323793" lon="8.5266517"><ele>20.5</ele><time>2026-04-21T11:10:02.953Z</time></trkpt><trkpt lat="44.332379" lon="8.5268178"><ele>21.0</ele><time>2026-04-21T11:10:03.943Z</time></trkpt><trkpt lat="44.3323806" lon="8.5269869"><ele>21.5</ele><time>2026-04-21T11:10:04.951Z</time></trkpt><trkpt lat="44.3323817" lon="8.5271596"><ele>22.0</ele><time>2026-04-21T11:10:05.952Z</time></trkpt><trkpt lat="44.3323777" lon="8.5275018"><ele>21.0</ele><time>2026-04-21T11:10:07.941Z</time></trkpt><trkpt lat="44.3323736" lon="8.5276729"><ele>20.0</ele><time>2026-04-21T11:10:08.943Z</time></trkpt><trkpt lat="44.3323719" lon="8.5278414"><ele>19.0</ele><time>2026-04-21T11:10:09.955Z</time></trkpt><trkpt lat="44.3323836" lon="8.5280025"><ele>18.0</ele><time>2026-04-21T11:10:10.952Z</time></trkpt><trkpt lat="44.332415" lon="8.5281625"><ele>17.0</ele><time>2026-04-21T11:10:11.943Z</time></trkpt><trkpt lat="44.3324762" lon="8.528313"><ele>16.0</ele><time>2026-04-21T11:10:12.947Z</time></trkpt><trkpt lat="44.3325619" lon="8.5284584"><ele>15.0</ele><time>2026-04-21T11:10:13.954Z</time></trkpt><trkpt lat="44.3326828" lon="8.5286084"><ele>14.0</ele><time>2026-04-21T11:10:14.956Z</time></trkpt><trkpt lat="44.3328128" lon="8.5287833"><ele>11.0</ele><time>2026-04-21T11:10:15.937Z</time></trkpt><trkpt lat="44.3329519" lon="8.528972"><ele>8.0</ele><time>2026-04-21T11:10:16.954Z</time></trkpt><trkpt lat="44.3330814" lon="8.5291701"><ele>5.0</ele><time>2026-04-21T11:10:17.942Z</time></trkpt><trkpt lat="44.3331973" lon="8.5293811"><ele>8.0</ele><time>2026-04-21T11:10:18.952Z</time></trkpt><trkpt lat="44.3333014" lon="8.5296088"><ele>11.0</ele><time>2026-04-21T11:10:19.952Z</time></trkpt><trkpt lat="44.3333894" lon="8.5298491"><ele>14.0</ele><time>2026-04-21T11:10:20.942Z</time></trkpt><trkpt lat="44.333458" lon="8.5301023"><ele>14.0</ele><time>2026-04-21T11:10:21.951Z</time></trkpt><trkpt lat="44.3335119" lon="8.5303718"><ele>14.0</ele><time>2026-04-21T11:10:22.944Z</time></trkpt><trkpt lat="44.3335708" lon="8.5306266"><ele>14.0</ele><time>2026-04-21T11:10:23.943Z</time></trkpt><trkpt lat="44.333629" lon="8.530871"><ele>13.0</ele><time>2026-04-21T11:10:24.951Z</time></trkpt><trkpt lat="44.3336856" lon="8.5311166"><ele>12.0</ele><time>2026-04-21T11:10:25.954Z</time></trkpt><trkpt lat="44.3337407" lon="8.5313641"><ele>11.0</ele><time>2026-04-21T11:10:26.95Z</time></trkpt><trkpt lat="44.3338408" lon="8.5318602"><ele>13.0</ele><time>2026-04-21T11:10:28.944Z</time></trkpt><trkpt lat="44.3338943" lon="8.5321062"><ele>15.0</ele><time>2026-04-21T11:10:29.942Z</time></trkpt><trkpt lat="44.3339563" lon="8.5323486"><ele>17.0</ele><time>2026-04-21T11:10:30.955Z</time></trkpt><trkpt lat="44.3340288" lon="8.5325848"><ele>17.0</ele><time>2026-04-21T11:10:31.943Z</time></trkpt><trkpt lat="44.3341061" lon="8.5328155"><ele>17.0</ele><time>2026-04-21T11:10:32.944Z</time></trkpt><trkpt lat="44.3341804" lon="8.5330432"><ele>17.0</ele><time>2026-04-21T11:10:33.953Z</time></trkpt><trkpt lat="44.3342466" lon="8.5332707"><ele>16.0</ele><time>2026-04-21T11:10:34.939Z</time></trkpt><trkpt lat="44.3343" lon="8.5335047"><ele>15.0</ele><time>2026-04-21T11:10:35.944Z</time></trkpt><trkpt lat="44.334336" lon="8.5337393"><ele>14.0</ele><time>2026-04-21T11:10:36.944Z</time></trkpt><trkpt lat="44.3343603" lon="8.5339691"><ele>14.0</ele><time>2026-04-21T11:10:37.953Z</time></trkpt><trkpt lat="44.3343798" lon="8.5342024"><ele>14.0</ele><time>2026-04-21T11:10:38.962Z</time></trkpt><trkpt lat="44.3343993" lon="8.534441"><ele>14.0</ele><time>2026-04-21T11:10:39.941Z</time></trkpt><trkpt lat="44.3344188" lon="8.5346849"><ele>13.666666666666668</ele><time>2026-04-21T11:10:40.942Z</time></trkpt><trkpt lat="44.334438" lon="8.5349273"><ele>13.333333333333332</ele><time>2026-04-21T11:10:41.94Z</time></trkpt><trkpt lat="44.3344635" lon="8.5351679"><ele>13.0</ele><time>2026-04-21T11:10:42.96Z</time></trkpt><trkpt lat="44.3344902" lon="8.535411"><ele>11.0</ele><time>2026-04-21T11:10:43.938Z</time></trkpt><trkpt lat="44.3345204" lon="8.5356545"><ele>9.0</ele><time>2026-04-21T11:10:44.942Z</time></trkpt><trkpt lat="44.3345562" lon="8.5359005"><ele>7.0</ele><time>2026-04-21T11:10:45.942Z</time></trkpt><trkpt lat="44.3345964" lon="8.5361486"><ele>7.0</ele><time>2026-04-21T11:10:46.954Z</time></trkpt><trkpt lat="44.3346386" lon="8.5363948"><ele>7.0</ele><time>2026-04-21T11:10:47.936Z</time></trkpt><trkpt lat="44.334729" lon="8.536876"><ele>11.0</ele><time>2026-04-21T11:10:49.943Z</time></trkpt><trkpt lat="44.334775" lon="8.5371072"><ele>15.0</ele><time>2026-04-21T11:10:50.955Z</time></trkpt><trkpt lat="44.3348238" lon="8.5373337"><ele>19.0</ele><time>2026-04-21T11:10:51.949Z</time></trkpt><trkpt lat="44.3348714" lon="8.5375572"><ele>19.0</ele><time>2026-04-21T11:10:52.949Z</time></trkpt><trkpt lat="44.3349234" lon="8.5377799"><ele>19.0</ele><time>2026-04-21T11:10:53.954Z</time></trkpt><trkpt lat="44.3349735" lon="8.5380031"><ele>19.0</ele><time>2026-04-21T11:10:54.951Z</time></trkpt><trkpt lat="44.3350216" lon="8.5382283"><ele>14.333333333333332</ele><time>2026-04-21T11:10:55.959Z</time></trkpt><trkpt lat="44.3350693" lon="8.5384537"><ele>9.666666666666666</ele><time>2026-04-21T11:10:56.944Z</time></trkpt><trkpt lat="44.3351155" lon="8.5386798"><ele>5.0</ele><time>2026-04-21T11:10:57.944Z</time></trkpt><trkpt lat="44.3351604" lon="8.5389018"><ele>5.0</ele><time>2026-04-21T11:10:58.945Z</time></trkpt><trkpt lat="44.3352051" lon="8.5391203"><ele>5.0</ele><time>2026-04-21T11:10:59.951Z</time></trkpt><trkpt lat="44.3352518" lon="8.5393352"><ele>5.0</ele><time>2026-04-21T11:11:00.944Z</time></trkpt><trkpt lat="44.3352985" lon="8.5395461"><ele>5.666666666666667</ele><time>2026-04-21T11:11:01.953Z</time></trkpt><trkpt lat="44.3353451" lon="8.5397532"><ele>6.333333333333334</ele><time>2026-04-21T11:11:02.944Z</time></trkpt><trkpt lat="44.3353964" lon="8.5399586"><ele>7.0</ele><time>2026-04-21T11:11:03.956Z</time></trkpt><trkpt lat="44.3354539" lon="8.5401646"><ele>7.0</ele><time>2026-04-21T11:11:04.941Z</time></trkpt><trkpt lat="44.335515" lon="8.540372"><ele>7.0</ele><time>2026-04-21T11:11:05.951Z</time></trkpt><trkpt lat="44.3355782" lon="8.5405778"><ele>7.0</ele><time>2026-04-21T11:11:06.944Z</time></trkpt><trkpt lat="44.33564" lon="8.5407849"><ele>11.0</ele><time>2026-04-21T11:11:07.954Z</time></trkpt><trkpt lat="44.3357022" lon="8.540991"><ele>15.0</ele><time>2026-04-21T11:11:08.959Z</time></trkpt><trkpt lat="44.3358263" lon="8.5413947"><ele>15.0</ele><time>2026-04-21T11:11:10.943Z</time></trkpt><trkpt lat="44.3358933" lon="8.5415928"><ele>15.0</ele><time>2026-04-21T11:11:11.944Z</time></trkpt><trkpt lat="44.3359629" lon="8.5417856"><ele>15.0</ele><time>2026-04-21T11:11:12.944Z</time></trkpt><trkpt lat="44.3360409" lon="8.5419718"><ele>14.25</ele><time>2026-04-21T11:11:13.943Z</time></trkpt><trkpt lat="44.3361316" lon="8.5421415"><ele>13.5</ele><time>2026-04-21T11:11:14.951Z</time></trkpt><trkpt lat="44.3362458" lon="8.5422694"><ele>12.75</ele><time>2026-04-21T11:11:15.944Z</time></trkpt><trkpt lat="44.3363848" lon="8.5423233"><ele>12.0</ele><time>2026-04-21T11:11:16.944Z</time></trkpt><trkpt lat="44.3365419" lon="8.5423207"><ele>12.0</ele><time>2026-04-21T11:11:17.945Z</time></trkpt><trkpt lat="44.3367016" lon="8.5422791"><ele>12.0</ele><time>2026-04-21T11:11:18.949Z</time></trkpt><trkpt lat="44.3368566" lon="8.542234"><ele>12.0</ele><time>2026-04-21T11:11:19.949Z</time></trkpt><trkpt lat="44.3370089" lon="8.542192"><ele>12.0</ele><time>2026-04-21T11:11:20.944Z</time></trkpt><trkpt lat="44.3371549" lon="8.5421381"><ele>12.0</ele><time>2026-04-21T11:11:21.941Z</time></trkpt><trkpt lat="44.3372934" lon="8.5420609"><ele>12.0</ele><time>2026-04-21T11:11:22.942Z</time></trkpt><trkpt lat="44.3374273" lon="8.5419741"><ele>12.0</ele><time>2026-04-21T11:11:23.944Z</time></trkpt><trkpt lat="44.3375576" lon="8.5418851"><ele>16.0</ele><time>2026-04-21T11:11:24.936Z</time></trkpt><trkpt lat="44.3376927" lon="8.5418289"><ele>20.0</ele><time>2026-04-21T11:11:25.951Z</time></trkpt><trkpt lat="44.3378136" lon="8.5418448"><ele>24.0</ele><time>2026-04-21T11:11:26.942Z</time></trkpt><trkpt lat="44.3379323" lon="8.5419092"><ele>28.0</ele><time>2026-04-21T11:11:27.943Z</time></trkpt><trkpt lat="44.3380524" lon="8.5420071"><ele>24.333333333333336</ele><time>2026-04-21T11:11:28.939Z</time></trkpt><trkpt lat="44.3381492" lon="8.5421233"><ele>20.666666666666668</ele><time>2026-04-21T11:11:29.939Z</time></trkpt><trkpt lat="44.3383172" lon="8.5423272"><ele>17.0</ele><time>2026-04-21T11:11:31.948Z</time></trkpt><trkpt lat="44.3384397" lon="8.5424451"><ele>17.0</ele><time>2026-04-21T11:11:32.944Z</time></trkpt><trkpt lat="44.3385797" lon="8.5425796"><ele>17.0</ele><time>2026-04-21T11:11:33.94Z</time></trkpt><trkpt lat="44.3387128" lon="8.5427118"><ele>17.0</ele><time>2026-04-21T11:11:34.94Z</time></trkpt><trkpt lat="44.3388539" lon="8.542845"><ele>15.666666666666668</ele><time>2026-04-21T11:11:35.941Z</time></trkpt><trkpt lat="44.3389831" lon="8.5429674"><ele>14.333333333333332</ele><time>2026-04-21T11:11:36.954Z</time></trkpt><trkpt lat="44.3391214" lon="8.5430733"><ele>13.0</ele><time>2026-04-21T11:11:37.943Z</time></trkpt><trkpt lat="44.3392628" lon="8.5431391"><ele>13.0</ele><time>2026-04-21T11:11:38.944Z</time></trkpt><trkpt lat="44.3394031" lon="8.5431585"><ele>13.0</ele><time>2026-04-21T11:11:39.943Z</time></trkpt><trkpt lat="44.3395346" lon="8.5431321"><ele>13.0</ele><time>2026-04-21T11:11:40.949Z</time></trkpt><trkpt lat="44.3396568" lon="8.5430605"><ele>13.0</ele><time>2026-04-21T11:11:41.944Z</time></trkpt><trkpt lat="44.3397591" lon="8.5429541"><ele>13.4</ele><time>2026-04-21T11:11:42.951Z</time></trkpt><trkpt lat="44.3398404" lon="8.5428437"><ele>13.8</ele><time>2026-04-21T11:11:43.94Z</time></trkpt><trkpt lat="44.3399134" lon="8.5427344"><ele>14.2</ele><time>2026-04-21T11:11:44.938Z</time></trkpt><trkpt lat="44.3399908" lon="8.5426991"><ele>14.6</ele><time>2026-04-21T11:11:45.936Z</time></trkpt><trkpt lat="44.3400681" lon="8.5427233"><ele>15.0</ele><time>2026-04-21T11:11:46.935Z</time></trkpt><trkpt lat="44.3401582" lon="8.5428462"><ele>14.25</ele><time>2026-04-21T11:11:47.94Z</time></trkpt><trkpt lat="44.34025" lon="8.5429712"><ele>13.5</ele><time>2026-04-21T11:11:48.937Z</time></trkpt><trkpt lat="44.3403506" lon="8.5430954"><ele>12.75</ele><time>2026-04-21T11:11:49.938Z</time></trkpt><trkpt lat="44.3404511" lon="8.5432202"><ele>12.0</ele><time>2026-04-21T11:11:50.938Z</time></trkpt><trkpt lat="44.3406432" lon="8.5434621"><ele>12.0</ele><time>2026-04-21T11:11:52.942Z</time></trkpt><trkpt lat="44.3407386" lon="8.5435819"><ele>12.0</ele><time>2026-04-21T11:11:53.933Z</time></trkpt><trkpt lat="44.3408371" lon="8.5436571"><ele>12.0</ele><time>2026-04-21T11:11:54.942Z</time></trkpt><trkpt lat="44.3409437" lon="8.5436815"><ele>12.0</ele><time>2026-04-21T11:11:55.942Z</time></trkpt><trkpt lat="44.3410639" lon="8.5436713"><ele>12.0</ele><time>2026-04-21T11:11:56.943Z</time></trkpt><trkpt lat="44.3411958" lon="8.5436113"><ele>12.0</ele><time>2026-04-21T11:11:57.935Z</time></trkpt><trkpt lat="44.3413268" lon="8.5435406"><ele>12.0</ele><time>2026-04-21T11:11:58.936Z</time></trkpt><trkpt lat="44.3414435" lon="8.5434676"><ele>12.0</ele><time>2026-04-21T11:11:59.939Z</time></trkpt><trkpt lat="44.3415491" lon="8.5434234"><ele>11.6</ele><time>2026-04-21T11:12:00.94Z</time></trkpt><trkpt lat="44.3416445" lon="8.5434243"><ele>11.2</ele><time>2026-04-21T11:12:01.943Z</time></trkpt><trkpt lat="44.3417266" lon="8.5434741"><ele>10.8</ele><time>2026-04-21T11:12:02.937Z</time></trkpt><trkpt lat="44.3418063" lon="8.5435741"><ele>10.4</ele><time>2026-04-21T11:12:03.94Z</time></trkpt><trkpt lat="44.341877" lon="8.5437074"><ele>10.0</ele><time>2026-04-21T11:12:04.939Z</time></trkpt><trkpt lat="44.3419446" lon="8.5438464"><ele>9.8</ele><time>2026-04-21T11:12:05.937Z</time></trkpt><trkpt lat="44.3420123" lon="8.543983"><ele>9.6</ele><time>2026-04-21T11:12:06.941Z</time></trkpt><trkpt lat="44.3420761" lon="8.5441155"><ele>9.4</ele><time>2026-04-21T11:12:07.941Z</time></trkpt><trkpt lat="44.3421372" lon="8.544237"><ele>9.2</ele><time>2026-04-21T11:12:08.938Z</time></trkpt><trkpt lat="44.3421887" lon="8.5443434"><ele>9.0</ele><time>2026-04-21T11:12:09.934Z</time></trkpt><trkpt lat="44.3422387" lon="8.5444314"><ele>9.0</ele><time>2026-04-21T11:12:10.934Z</time></trkpt><trkpt lat="44.3422799" lon="8.5445175"><ele>9.0</ele><time>2026-04-21T11:12:11.939Z</time></trkpt><trkpt lat="44.3423658" lon="8.5446851"><ele>9.0</ele><time>2026-04-21T11:12:13.94Z</time></trkpt><trkpt lat="44.3424024" lon="8.544765"><ele>9.0</ele><time>2026-04-21T11:12:14.937Z</time></trkpt><trkpt lat="44.3424633" lon="8.5449085"><ele>9.0</ele><time>2026-04-21T11:12:16.936Z</time></trkpt><trkpt lat="44.3425161" lon="8.5450669"><ele>8.75</ele><time>2026-04-21T11:12:18.938Z</time></trkpt><trkpt lat="44.3425614" lon="8.5451826"><ele>8.5</ele><time>2026-04-21T11:12:19.938Z</time></trkpt><trkpt lat="44.342624" lon="8.5453343"><ele>8.25</ele><time>2026-04-21T11:12:20.94Z</time></trkpt><trkpt lat="44.3427023" lon="8.5455237"><ele>8.0</ele><time>2026-04-21T11:12:21.935Z</time></trkpt><trkpt lat="44.3427747" lon="8.5457299"><ele>8.75</ele><time>2026-04-21T11:12:22.944Z</time></trkpt><trkpt lat="44.342844" lon="8.5459015"><ele>9.5</ele><time>2026-04-21T11:12:23.94Z</time></trkpt><trkpt lat="44.3428902" lon="8.5460567"><ele>10.25</ele><time>2026-04-21T11:12:24.936Z</time></trkpt><trkpt lat="44.3428959" lon="8.5462119"><ele>11.0</ele><time>2026-04-21T11:12:25.934Z</time></trkpt><trkpt lat="44.3428701" lon="8.5463637"><ele>11.8</ele><time>2026-04-21T11:12:26.939Z</time></trkpt><trkpt lat="44.3428152" lon="8.5465044"><ele>12.600000000000001</ele><time>2026-04-21T11:12:27.937Z</time></trkpt><trkpt lat="44.3427449" lon="8.5466481"><ele>13.4</ele><time>2026-04-21T11:12:28.944Z</time></trkpt><trkpt lat="44.3426745" lon="8.546767"><ele>14.2</ele><time>2026-04-21T11:12:29.935Z</time></trkpt><trkpt lat="44.3426278" lon="8.5468903"><ele>15.0</ele><time>2026-04-21T11:12:30.939Z</time></trkpt><trkpt lat="44.3426046" lon="8.5470185"><ele>15.0</ele><time>2026-04-21T11:12:31.941Z</time></trkpt><trkpt lat="44.3426101" lon="8.5471533"><ele>15.0</ele><time>2026-04-21T11:12:32.941Z</time></trkpt><trkpt lat="44.3426775" lon="8.5474308"><ele>15.0</ele><time>2026-04-21T11:12:34.94Z</time></trkpt><trkpt lat="44.3427171" lon="8.5475744"><ele>15.0</ele><time>2026-04-21T11:12:35.94Z</time></trkpt><trkpt lat="44.3427487" lon="8.5477168"><ele>15.0</ele><time>2026-04-21T11:12:36.938Z</time></trkpt><trkpt lat="44.3427532" lon="8.5478595"><ele>15.0</ele><time>2026-04-21T11:12:37.936Z</time></trkpt><trkpt lat="44.3427678" lon="8.5480044"><ele>15.0</ele><time>2026-04-21T11:12:38.942Z</time></trkpt><trkpt lat="44.342797" lon="8.5481327"><ele>15.0</ele><time>2026-04-21T11:12:39.946Z</time></trkpt><trkpt lat="44.3428406" lon="8.5482644"><ele>15.0</ele><time>2026-04-21T11:12:40.935Z</time></trkpt><trkpt lat="44.3428963" lon="8.5483954"><ele>15.0</ele><time>2026-04-21T11:12:41.94Z</time></trkpt><trkpt lat="44.3429764" lon="8.5485233"><ele>15.0</ele><time>2026-04-21T11:12:42.944Z</time></trkpt><trkpt lat="44.343065" lon="8.5486395"><ele>15.0</ele><time>2026-04-21T11:12:43.938Z</time></trkpt><trkpt lat="44.3431556" lon="8.5487509"><ele>15.0</ele><time>2026-04-21T11:12:44.938Z</time></trkpt><trkpt lat="44.3432489" lon="8.5488602"><ele>15.0</ele><time>2026-04-21T11:12:45.946Z</time></trkpt><trkpt lat="44.3433452" lon="8.5489686"><ele>15.0</ele><time>2026-04-21T11:12:46.939Z</time></trkpt><trkpt lat="44.3434437" lon="8.5490761"><ele>15.0</ele><time>2026-04-21T11:12:47.939Z</time></trkpt><trkpt lat="44.3435447" lon="8.5491878"><ele>15.0</ele><time>2026-04-21T11:12:48.943Z</time></trkpt><trkpt lat="44.3436424" lon="8.5493074"><ele>15.0</ele><time>2026-04-21T11:12:49.939Z</time></trkpt><trkpt lat="44.3437372" lon="8.5494305"><ele>15.0</ele><time>2026-04-21T11:12:50.94Z</time></trkpt><trkpt lat="44.3438222" lon="8.5495523"><ele>15.0</ele><time>2026-04-21T11:12:51.935Z</time></trkpt><trkpt lat="44.3438977" lon="8.5496731"><ele>15.0</ele><time>2026-04-21T11:12:52.935Z</time></trkpt><trkpt lat="44.3439706" lon="8.5497929"><ele>16.0</ele><time>2026-04-21T11:12:53.936Z</time></trkpt><trkpt lat="44.3441236" lon="8.5500401"><ele>17.0</ele><time>2026-04-21T11:12:55.936Z</time></trkpt><trkpt lat="44.3442013" lon="8.5501687"><ele>18.0</ele><time>2026-04-21T11:12:56.932Z</time></trkpt><trkpt lat="44.3442769" lon="8.5502985"><ele>15.25</ele><time>2026-04-21T11:12:57.935Z</time></trkpt><trkpt lat="44.3443536" lon="8.550431"><ele>12.5</ele><time>2026-04-21T11:12:58.937Z</time></trkpt><trkpt lat="44.3444326" lon="8.5505655"><ele>9.75</ele><time>2026-04-21T11:12:59.94Z</time></trkpt><trkpt lat="44.3445091" lon="8.5507047"><ele>7.0</ele><time>2026-04-21T11:13:00.938Z</time></trkpt><trkpt lat="44.3445809" lon="8.5508517"><ele>7.0</ele><time>2026-04-21T11:13:01.938Z</time></trkpt><trkpt lat="44.3446493" lon="8.5510077"><ele>7.0</ele><time>2026-04-21T11:13:02.939Z</time></trkpt><trkpt lat="44.344714" lon="8.5511751"><ele>7.0</ele><time>2026-04-21T11:13:03.941Z</time></trkpt><trkpt lat="44.3447716" lon="8.5513512"><ele>7.0</ele><time>2026-04-21T11:13:04.938Z</time></trkpt><trkpt lat="44.3448224" lon="8.5515317"><ele>7.25</ele><time>2026-04-21T11:13:05.941Z</time></trkpt><trkpt lat="44.3448722" lon="8.5517137"><ele>7.5</ele><time>2026-04-21T11:13:06.942Z</time></trkpt><trkpt lat="44.3449176" lon="8.5519011"><ele>7.75</ele><time>2026-04-21T11:13:07.94Z</time></trkpt><trkpt lat="44.3449542" lon="8.5520929"><ele>8.0</ele><time>2026-04-21T11:13:08.935Z</time></trkpt><trkpt lat="44.3449834" lon="8.5522842"><ele>8.0</ele><time>2026-04-21T11:13:09.94Z</time></trkpt><trkpt lat="44.3450025" lon="8.5524718"><ele>8.0</ele><time>2026-04-21T11:13:10.934Z</time></trkpt><trkpt lat="44.3450168" lon="8.5526551"><ele>8.0</ele><time>2026-04-21T11:13:11.933Z</time></trkpt><trkpt lat="44.345024" lon="8.5528434"><ele>8.0</ele><time>2026-04-21T11:13:12.944Z</time></trkpt><trkpt lat="44.3450277" lon="8.5530269"><ele>8.0</ele><time>2026-04-21T11:13:13.934Z</time></trkpt><trkpt lat="44.3450273" lon="8.5532042"><ele>8.0</ele><time>2026-04-21T11:13:14.938Z</time></trkpt><trkpt lat="44.345013" lon="8.5535571"><ele>8.0</ele><time>2026-04-21T11:13:16.94Z</time></trkpt><trkpt lat="44.345005" lon="8.5537311"><ele>8.0</ele><time>2026-04-21T11:13:17.939Z</time></trkpt><trkpt lat="44.3449983" lon="8.5539089"><ele>8.0</ele><time>2026-04-21T11:13:18.936Z</time></trkpt><trkpt lat="44.3449885" lon="8.5540944"><ele>8.0</ele><time>2026-04-21T11:13:19.939Z</time></trkpt><trkpt lat="44.3449805" lon="8.5542857"><ele>8.0</ele><time>2026-04-21T11:13:20.936Z</time></trkpt><trkpt lat="44.3449776" lon="8.5544785"><ele>8.0</ele><time>2026-04-21T11:13:21.94Z</time></trkpt><trkpt lat="44.3449785" lon="8.5546732"><ele>8.0</ele><time>2026-04-21T11:13:22.937Z</time></trkpt><trkpt lat="44.3449832" lon="8.5548675"><ele>8.0</ele><time>2026-04-21T11:13:23.933Z</time></trkpt><trkpt lat="44.3449892" lon="8.555064"><ele>8.0</ele><time>2026-04-21T11:13:24.943Z</time></trkpt><trkpt lat="44.3449978" lon="8.5552625"><ele>9.25</ele><time>2026-04-21T11:13:25.935Z</time></trkpt><trkpt lat="44.3450024" lon="8.5554607"><ele>10.5</ele><time>2026-04-21T11:13:26.934Z</time></trkpt><trkpt lat="44.3449992" lon="8.5556602"><ele>11.75</ele><time>2026-04-21T11:13:27.94Z</time></trkpt><trkpt lat="44.3449888" lon="8.5558584"><ele>13.0</ele><time>2026-04-21T11:13:28.94Z</time></trkpt><trkpt lat="44.3449718" lon="8.5560544"><ele>13.0</ele><time>2026-04-21T11:13:29.94Z</time></trkpt><trkpt lat="44.3449471" lon="8.5562478"><ele>13.0</ele><time>2026-04-21T11:13:30.943Z</time></trkpt><trkpt lat="44.3449245" lon="8.5564446"><ele>13.0</ele><time>2026-04-21T11:13:31.937Z</time></trkpt><trkpt lat="44.3449059" lon="8.5566403"><ele>13.0</ele><time>2026-04-21T11:13:32.937Z</time></trkpt><trkpt lat="44.3448973" lon="8.5568374"><ele>13.0</ele><time>2026-04-21T11:13:33.944Z</time></trkpt><trkpt lat="44.3448982" lon="8.5570351"><ele>13.0</ele><time>2026-04-21T11:13:34.941Z</time></trkpt><trkpt lat="44.3449101" lon="8.5572326"><ele>13.0</ele><time>2026-04-21T11:13:35.935Z</time></trkpt><trkpt lat="44.3449555" lon="8.5576102"><ele>12.0</ele><time>2026-04-21T11:13:37.943Z</time></trkpt><trkpt lat="44.3450172" lon="8.5577724"><ele>11.0</ele><time>2026-04-21T11:13:38.94Z</time></trkpt><trkpt lat="44.3451103" lon="8.5579067"><ele>10.0</ele><time>2026-04-21T11:13:39.934Z</time></trkpt><trkpt lat="44.3452152" lon="8.5580156"><ele>9.0</ele><time>2026-04-21T11:13:40.933Z</time></trkpt><trkpt lat="44.3453368" lon="8.5581123"><ele>8.0</ele><time>2026-04-21T11:13:41.95Z</time></trkpt><trkpt lat="44.3454619" lon="8.5582096"><ele>7.0</ele><time>2026-04-21T11:13:42.946Z</time></trkpt><trkpt lat="44.3455854" lon="8.5583103"><ele>6.0</ele><time>2026-04-21T11:13:43.937Z</time></trkpt><trkpt lat="44.3456962" lon="8.558426"><ele>5.0</ele><time>2026-04-21T11:13:44.933Z</time></trkpt><trkpt lat="44.3457768" lon="8.5585704"><ele>8.0</ele><time>2026-04-21T11:13:45.938Z</time></trkpt><trkpt lat="44.3458247" lon="8.5587461"><ele>11.0</ele><time>2026-04-21T11:13:46.935Z</time></trkpt><trkpt lat="44.3458481" lon="8.558952"><ele>14.0</ele><time>2026-04-21T11:13:47.941Z</time></trkpt><trkpt lat="44.3458656" lon="8.5591591"><ele>17.0</ele><time>2026-04-21T11:13:48.942Z</time></trkpt><trkpt lat="44.34588" lon="8.5593627"><ele>16.25</ele><time>2026-04-21T11:13:49.938Z</time></trkpt><trkpt lat="44.3458971" lon="8.5595607"><ele>15.5</ele><time>2026-04-21T11:13:50.937Z</time></trkpt><trkpt lat="44.3459164" lon="8.5597554"><ele>14.75</ele><time>2026-04-21T11:13:51.936Z</time></trkpt><trkpt lat="44.3459354" lon="8.5599439"><ele>14.0</ele><time>2026-04-21T11:13:52.946Z</time></trkpt><trkpt lat="44.3459597" lon="8.5601289"><ele>14.0</ele><time>2026-04-21T11:13:53.934Z</time></trkpt><trkpt lat="44.3459906" lon="8.560312"><ele>14.0</ele><time>2026-04-21T11:13:54.939Z</time></trkpt><trkpt lat="44.3460212" lon="8.5604933"><ele>14.0</ele><time>2026-04-21T11:13:55.942Z</time></trkpt><trkpt lat="44.3460531" lon="8.5606708"><ele>14.0</ele><time>2026-04-21T11:13:56.936Z</time></trkpt><trkpt lat="44.3461121" lon="8.5610244"><ele>13.25</ele><time>2026-04-21T11:13:58.936Z</time></trkpt><trkpt lat="44.3461397" lon="8.5612018"><ele>12.5</ele><time>2026-04-21T11:13:59.937Z</time></trkpt><trkpt lat="44.346171" lon="8.5613799"><ele>11.75</ele><time>2026-04-21T11:14:00.942Z</time></trkpt><trkpt lat="44.3462107" lon="8.5615522"><ele>11.0</ele><time>2026-04-21T11:14:01.936Z</time></trkpt><trkpt lat="44.346258" lon="8.5617045"><ele>11.0</ele><time>2026-04-21T11:14:02.945Z</time></trkpt><trkpt lat="44.3463124" lon="8.5618336"><ele>11.0</ele><time>2026-04-21T11:14:03.937Z</time></trkpt><trkpt lat="44.3463715" lon="8.5619396"><ele>11.0</ele><time>2026-04-21T11:14:04.937Z</time></trkpt><trkpt lat="44.3464453" lon="8.5620335"><ele>11.0</ele><time>2026-04-21T11:14:05.952Z</time></trkpt><trkpt lat="44.3465315" lon="8.56212"><ele>11.0</ele><time>2026-04-21T11:14:06.943Z</time></trkpt><trkpt lat="44.3466175" lon="8.5622037"><ele>12.333333333333332</ele><time>2026-04-21T11:14:07.937Z</time></trkpt><trkpt lat="44.3466896" lon="8.5622892"><ele>13.666666666666666</ele><time>2026-04-21T11:14:08.94Z</time></trkpt><trkpt lat="44.3467385" lon="8.5623779"><ele>15.0</ele><time>2026-04-21T11:14:09.94Z</time></trkpt><trkpt lat="44.3467623" lon="8.5624686"><ele>16.333333333333332</ele><time>2026-04-21T11:14:10.937Z</time></trkpt><trkpt lat="44.3467655" lon="8.56256"><ele>17.666666666666664</ele><time>2026-04-21T11:14:11.934Z</time></trkpt><trkpt lat="44.3467431" lon="8.5626572"><ele>19.0</ele><time>2026-04-21T11:14:12.943Z</time></trkpt><trkpt lat="44.3466927" lon="8.5627533"><ele>19.0</ele><time>2026-04-21T11:14:13.938Z</time></trkpt><trkpt lat="44.3466288" lon="8.5628483"><ele>19.0</ele><time>2026-04-21T11:14:14.936Z</time></trkpt><trkpt lat="44.3465608" lon="8.5629503"><ele>19.0</ele><time>2026-04-21T11:14:15.944Z</time></trkpt><trkpt lat="44.3464969" lon="8.5630607"><ele>19.0</ele><time>2026-04-21T11:14:16.929Z</time></trkpt><trkpt lat="44.3464367" lon="8.563189"><ele>19.0</ele><time>2026-04-21T11:14:17.944Z</time></trkpt><trkpt lat="44.3464196" lon="8.5635032"><ele>19.4</ele><time>2026-04-21T11:14:19.943Z</time></trkpt><trkpt lat="44.3464502" lon="8.5636536"><ele>19.799999999999997</ele><time>2026-04-21T11:14:20.942Z</time></trkpt><trkpt lat="44.3464762" lon="8.5637867"><ele>20.200000000000003</ele><time>2026-04-21T11:14:21.936Z</time></trkpt><trkpt lat="44.3464977" lon="8.5639019"><ele>20.6</ele><time>2026-04-21T11:14:22.935Z</time></trkpt><trkpt lat="44.3465328" lon="8.5640059"><ele>21.0</ele><time>2026-04-21T11:14:23.941Z</time></trkpt><trkpt lat="44.3466002" lon="8.5640912"><ele>20.2</ele><time>2026-04-21T11:14:24.937Z</time></trkpt><trkpt lat="44.346696" lon="8.5641555"><ele>19.400000000000002</ele><time>2026-04-21T11:14:25.94Z</time></trkpt><trkpt lat="44.3467999" lon="8.5642046"><ele>18.6</ele><time>2026-04-21T11:14:26.943Z</time></trkpt><trkpt lat="44.3469092" lon="8.5642516"><ele>17.8</ele><time>2026-04-21T11:14:27.933Z</time></trkpt><trkpt lat="44.3470224" lon="8.5643034"><ele>17.0</ele><time>2026-04-21T11:14:28.939Z</time></trkpt><trkpt lat="44.3471419" lon="8.5643618"><ele>15.0</ele><time>2026-04-21T11:14:29.938Z</time></trkpt><trkpt lat="44.3472633" lon="8.5644198"><ele>13.0</ele><time>2026-04-21T11:14:30.946Z</time></trkpt><trkpt lat="44.3473858" lon="8.5644731"><ele>11.0</ele><time>2026-04-21T11:14:31.937Z</time></trkpt><trkpt lat="44.3475108" lon="8.5645189"><ele>9.0</ele><time>2026-04-21T11:14:32.936Z</time></trkpt><trkpt lat="44.3476403" lon="8.5645537"><ele>9.0</ele><time>2026-04-21T11:14:33.935Z</time></trkpt><trkpt lat="44.3477704" lon="8.5645686"><ele>9.0</ele><time>2026-04-21T11:14:34.939Z</time></trkpt><trkpt lat="44.3478947" lon="8.5645704"><ele>9.0</ele><time>2026-04-21T11:14:35.939Z</time></trkpt><trkpt lat="44.3480143" lon="8.5645698"><ele>9.0</ele><time>2026-04-21T11:14:36.94Z</time></trkpt><trkpt lat="44.3481317" lon="8.5645755"><ele>8.75</ele><time>2026-04-21T11:14:37.947Z</time></trkpt><trkpt lat="44.3482443" lon="8.5645945"><ele>8.5</ele><time>2026-04-21T11:14:38.942Z</time></trkpt><trkpt lat="44.3484418" lon="8.5647114"><ele>8.25</ele><time>2026-04-21T11:14:40.94Z</time></trkpt><trkpt lat="44.3485144" lon="8.5648242"><ele>8.0</ele><time>2026-04-21T11:14:41.936Z</time></trkpt><trkpt lat="44.3485718" lon="8.5649703"><ele>8.0</ele><time>2026-04-21T11:14:42.945Z</time></trkpt><trkpt lat="44.3486152" lon="8.5651332"><ele>8.0</ele><time>2026-04-21T11:14:43.943Z</time></trkpt><trkpt lat="44.3486546" lon="8.565303"><ele>8.0</ele><time>2026-04-21T11:14:44.94Z</time></trkpt><trkpt lat="44.3486964" lon="8.5654743"><ele>8.0</ele><time>2026-04-21T11:14:45.942Z</time></trkpt><trkpt lat="44.3487423" lon="8.5656426"><ele>7.25</ele><time>2026-04-21T11:14:46.941Z</time></trkpt><trkpt lat="44.3487859" lon="8.5658129"><ele>6.5</ele><time>2026-04-21T11:14:47.934Z</time></trkpt><trkpt lat="44.3488223" lon="8.5659927"><ele>5.75</ele><time>2026-04-21T11:14:48.937Z</time></trkpt><trkpt lat="44.3488411" lon="8.5661687"><ele>5.0</ele><time>2026-04-21T11:14:49.939Z</time></trkpt><trkpt lat="44.3488386" lon="8.5663343"><ele>4.6</ele><time>2026-04-21T11:14:50.939Z</time></trkpt><trkpt lat="44.3488425" lon="8.5664765"><ele>4.2</ele><time>2026-04-21T11:14:51.938Z</time></trkpt><trkpt lat="44.348884" lon="8.5665883"><ele>3.8</ele><time>2026-04-21T11:14:52.944Z</time></trkpt><trkpt lat="44.3489421" lon="8.5666772"><ele>3.4</ele><time>2026-04-21T11:14:53.939Z</time></trkpt><trkpt lat="44.3490144" lon="8.5667435"><ele>3.0</ele><time>2026-04-21T11:14:54.936Z</time></trkpt><trkpt lat="44.349099" lon="8.5668018"><ele>6.6</ele><time>2026-04-21T11:14:55.938Z</time></trkpt><trkpt lat="44.3491893" lon="8.5668664"><ele>10.2</ele><time>2026-04-21T11:14:56.938Z</time></trkpt><trkpt lat="44.3492851" lon="8.5669308"><ele>13.8</ele><time>2026-04-21T11:14:57.94Z</time></trkpt><trkpt lat="44.3493911" lon="8.56698"><ele>17.400000000000002</ele><time>2026-04-21T11:14:58.94Z</time></trkpt><trkpt lat="44.3495106" lon="8.5670084"><ele>21.0</ele><time>2026-04-21T11:14:59.941Z</time></trkpt><trkpt lat="44.3497714" lon="8.5669872"><ele>21.25</ele><time>2026-04-21T11:15:01.941Z</time></trkpt><trkpt lat="44.3499043" lon="8.5669279"><ele>21.5</ele><time>2026-04-21T11:15:02.945Z</time></trkpt><trkpt lat="44.3500364" lon="8.5668454"><ele>21.75</ele><time>2026-04-21T11:15:03.937Z</time></trkpt><trkpt lat="44.3501701" lon="8.5667589"><ele>22.0</ele><time>2026-04-21T11:15:04.937Z</time></trkpt><trkpt lat="44.3502996" lon="8.5666683"><ele>22.0</ele><time>2026-04-21T11:15:05.944Z</time></trkpt><trkpt lat="44.3504211" lon="8.5665693"><ele>22.0</ele><time>2026-04-21T11:15:06.944Z</time></trkpt><trkpt lat="44.3505314" lon="8.5664551"><ele>22.0</ele><time>2026-04-21T11:15:07.934Z</time></trkpt><trkpt lat="44.3506313" lon="8.5663225"><ele>22.0</ele><time>2026-04-21T11:15:08.941Z</time></trkpt><trkpt lat="44.3507266" lon="8.566179"><ele>20.5</ele><time>2026-04-21T11:15:09.937Z</time></trkpt><trkpt lat="44.3508176" lon="8.5660344"><ele>19.0</ele><time>2026-04-21T11:15:10.934Z</time></trkpt><trkpt lat="44.3509032" lon="8.5658938"><ele>17.5</ele><time>2026-04-21T11:15:11.943Z</time></trkpt><trkpt lat="44.3509784" lon="8.5657555"><ele>16.0</ele><time>2026-04-21T11:15:12.936Z</time></trkpt><trkpt lat="44.3510406" lon="8.5656172"><ele>16.0</ele><time>2026-04-21T11:15:13.932Z</time></trkpt><trkpt lat="44.3510932" lon="8.565483"><ele>16.0</ele><time>2026-04-21T11:15:14.937Z</time></trkpt><trkpt lat="44.3511497" lon="8.5653635"><ele>16.0</ele><time>2026-04-21T11:15:15.938Z</time></trkpt><trkpt lat="44.3512189" lon="8.5652775"><ele>16.0</ele><time>2026-04-21T11:15:16.942Z</time></trkpt><trkpt lat="44.351306" lon="8.5652665"><ele>16.0</ele><time>2026-04-21T11:15:17.934Z</time></trkpt><trkpt lat="44.3513957" lon="8.5653004"><ele>19.0</ele><time>2026-04-21T11:15:18.934Z</time></trkpt><trkpt lat="44.3514826" lon="8.5653398"><ele>22.0</ele><time>2026-04-21T11:15:19.935Z</time></trkpt><trkpt lat="44.3515683" lon="8.565366"><ele>25.0</ele><time>2026-04-21T11:15:20.945Z</time></trkpt><trkpt lat="44.3517465" lon="8.5653416"><ele>28.0</ele><time>2026-04-21T11:15:22.939Z</time></trkpt><trkpt lat="44.3518436" lon="8.5653034"><ele>28.0</ele><time>2026-04-21T11:15:23.935Z</time></trkpt><trkpt lat="44.35195" lon="8.5652695"><ele>28.0</ele><time>2026-04-21T11:15:24.936Z</time></trkpt><trkpt lat="44.3520603" lon="8.5652436"><ele>28.0</ele><time>2026-04-21T11:15:25.944Z</time></trkpt><trkpt lat="44.3521774" lon="8.5652343"><ele>28.0</ele><time>2026-04-21T11:15:26.934Z</time></trkpt><trkpt lat="44.3522974" lon="8.5652144"><ele>25.0</ele><time>2026-04-21T11:15:27.936Z</time></trkpt><trkpt lat="44.3524164" lon="8.5651716"><ele>22.0</ele><time>2026-04-21T11:15:28.933Z</time></trkpt><trkpt lat="44.3525283" lon="8.5651047"><ele>19.0</ele><time>2026-04-21T11:15:29.936Z</time></trkpt><trkpt lat="44.3526354" lon="8.5650367"><ele>16.0</ele><time>2026-04-21T11:15:30.94Z</time></trkpt><trkpt lat="44.3527364" lon="8.5649623"><ele>16.0</ele><time>2026-04-21T11:15:31.941Z</time></trkpt><trkpt lat="44.3528371" lon="8.5649157"><ele>16.0</ele><time>2026-04-21T11:15:32.94Z</time></trkpt><trkpt lat="44.3529339" lon="8.5648951"><ele>16.0</ele><time>2026-04-21T11:15:33.939Z</time></trkpt><trkpt lat="44.3530242" lon="8.5649096"><ele>16.0</ele><time>2026-04-21T11:15:34.941Z</time></trkpt><trkpt lat="44.3531109" lon="8.5649602"><ele>16.0</ele><time>2026-04-21T11:15:35.937Z</time></trkpt><trkpt lat="44.3531893" lon="8.5650369"><ele>14.333333333333332</ele><time>2026-04-21T11:15:36.942Z</time></trkpt><trkpt lat="44.3532579" lon="8.5651103"><ele>12.666666666666666</ele><time>2026-04-21T11:15:37.943Z</time></trkpt><trkpt lat="44.353326" lon="8.5651709"><ele>11.0</ele><time>2026-04-21T11:15:38.941Z</time></trkpt><trkpt lat="44.353398" lon="8.5652189"><ele>9.333333333333332</ele><time>2026-04-21T11:15:39.938Z</time></trkpt><trkpt lat="44.3534715" lon="8.565261"><ele>7.666666666666666</ele><time>2026-04-21T11:15:40.943Z</time></trkpt><trkpt lat="44.3535531" lon="8.5653021"><ele>6.0</ele><time>2026-04-21T11:15:41.935Z</time></trkpt><trkpt lat="44.3537444" lon="8.5654014"><ele>5.8</ele><time>2026-04-21T11:15:43.937Z</time></trkpt><trkpt lat="44.3538389" lon="8.5654585"><ele>5.6</ele><time>2026-04-21T11:15:44.932Z</time></trkpt><trkpt lat="44.353929" lon="8.565514"><ele>5.4</ele><time>2026-04-21T11:15:45.942Z</time></trkpt><trkpt lat="44.3540186" lon="8.5655599"><ele>5.2</ele><time>2026-04-21T11:15:46.935Z</time></trkpt><trkpt lat="44.3541114" lon="8.565581"><ele>5.0</ele><time>2026-04-21T11:15:47.941Z</time></trkpt><trkpt lat="44.3542079" lon="8.5655861"><ele>5.0</ele><time>2026-04-21T11:15:48.935Z</time></trkpt><trkpt lat="44.3543121" lon="8.5655902"><ele>5.0</ele><time>2026-04-21T11:15:49.936Z</time></trkpt><trkpt lat="44.35441" lon="8.5656212"><ele>5.0</ele><time>2026-04-21T11:15:50.936Z</time></trkpt><trkpt lat="44.3544996" lon="8.5656855"><ele>5.0</ele><time>2026-04-21T11:15:51.937Z</time></trkpt><trkpt lat="44.3545939" lon="8.565785"><ele>5.0</ele><time>2026-04-21T11:15:52.946Z</time></trkpt><trkpt lat="44.354703" lon="8.5659162"><ele>5.0</ele><time>2026-04-21T11:15:53.939Z</time></trkpt><trkpt lat="44.3548232" lon="8.5660648"><ele>5.0</ele><time>2026-04-21T11:15:54.938Z</time></trkpt><trkpt lat="44.3549439" lon="8.5662302"><ele>5.0</ele><time>2026-04-21T11:15:55.937Z</time></trkpt><trkpt lat="44.3550578" lon="8.5663961"><ele>5.0</ele><time>2026-04-21T11:15:56.943Z</time></trkpt><trkpt lat="44.3551677" lon="8.5665504"><ele>5.0</ele><time>2026-04-21T11:15:57.933Z</time></trkpt><trkpt lat="44.3552783" lon="8.566696"><ele>5.0</ele><time>2026-04-21T11:15:58.942Z</time></trkpt><trkpt lat="44.3553862" lon="8.5668335"><ele>5.0</ele><time>2026-04-21T11:15:59.94Z</time></trkpt><trkpt lat="44.3554911" lon="8.5669684"><ele>5.0</ele><time>2026-04-21T11:16:00.937Z</time></trkpt><trkpt lat="44.3555944" lon="8.5671012"><ele>5.0</ele><time>2026-04-21T11:16:01.938Z</time></trkpt><trkpt lat="44.3556952" lon="8.5672333"><ele>5.0</ele><time>2026-04-21T11:16:02.934Z</time></trkpt><trkpt lat="44.3558919" lon="8.5675049"><ele>5.0</ele><time>2026-04-21T11:16:04.938Z</time></trkpt><trkpt lat="44.3559852" lon="8.5676465"><ele>5.0</ele><time>2026-04-21T11:16:05.934Z</time></trkpt><trkpt lat="44.3560741" lon="8.5677953"><ele>5.0</ele><time>2026-04-21T11:16:06.938Z</time></trkpt><trkpt lat="44.3561587" lon="8.5679494"><ele>5.0</ele><time>2026-04-21T11:16:07.933Z</time></trkpt><trkpt lat="44.3562399" lon="8.5681082"><ele>5.0</ele><time>2026-04-21T11:16:08.937Z</time></trkpt><trkpt lat="44.356318" lon="8.5682689"><ele>5.0</ele><time>2026-04-21T11:16:09.931Z</time></trkpt><trkpt lat="44.3563967" lon="8.5684288"><ele>5.0</ele><time>2026-04-21T11:16:10.933Z</time></trkpt><trkpt lat="44.3564734" lon="8.5685864"><ele>5.0</ele><time>2026-04-21T11:16:11.936Z</time></trkpt><trkpt lat="44.356549" lon="8.5687363"><ele>5.25</ele><time>2026-04-21T11:16:12.94Z</time></trkpt><trkpt lat="44.3566242" lon="8.5688817"><ele>5.5</ele><time>2026-04-21T11:16:13.934Z</time></trkpt><trkpt lat="44.3566975" lon="8.5690261"><ele>5.75</ele><time>2026-04-21T11:16:14.94Z</time></trkpt><trkpt lat="44.3567664" lon="8.5691746"><ele>6.0</ele><time>2026-04-21T11:16:15.938Z</time></trkpt><trkpt lat="44.3568366" lon="8.5693268"><ele>6.0</ele><time>2026-04-21T11:16:16.939Z</time></trkpt><trkpt lat="44.3569038" lon="8.5694814"><ele>6.0</ele><time>2026-04-21T11:16:17.936Z</time></trkpt><trkpt lat="44.3569646" lon="8.5696351"><ele>6.0</ele><time>2026-04-21T11:16:18.935Z</time></trkpt><trkpt lat="44.3570237" lon="8.5697888"><ele>6.0</ele><time>2026-04-21T11:16:19.935Z</time></trkpt><trkpt lat="44.3570869" lon="8.5699435"><ele>5.75</ele><time>2026-04-21T11:16:20.939Z</time></trkpt><trkpt lat="44.3571524" lon="8.5700955"><ele>5.5</ele><time>2026-04-21T11:16:21.945Z</time></trkpt><trkpt lat="44.3572203" lon="8.5702479"><ele>5.25</ele><time>2026-04-21T11:16:22.935Z</time></trkpt><trkpt lat="44.3572899" lon="8.5704026"><ele>5.0</ele><time>2026-04-21T11:16:23.939Z</time></trkpt><trkpt lat="44.3574245" lon="8.5707074"><ele>5.5</ele><time>2026-04-21T11:16:25.941Z</time></trkpt><trkpt lat="44.3574896" lon="8.5708552"><ele>6.0</ele><time>2026-04-21T11:16:26.934Z</time></trkpt><trkpt lat="44.3575574" lon="8.571002"><ele>6.5</ele><time>2026-04-21T11:16:27.933Z</time></trkpt><trkpt lat="44.3576239" lon="8.5711505"><ele>7.0</ele><time>2026-04-21T11:16:28.938Z</time></trkpt><trkpt lat="44.3576892" lon="8.5712987"><ele>7.0</ele><time>2026-04-21T11:16:29.945Z</time></trkpt><trkpt lat="44.357754" lon="8.5714496"><ele>7.0</ele><time>2026-04-21T11:16:30.938Z</time></trkpt><trkpt lat="44.3578183" lon="8.5716033"><ele>7.0</ele><time>2026-04-21T11:16:31.933Z</time></trkpt><trkpt lat="44.357884" lon="8.5717597"><ele>7.0</ele><time>2026-04-21T11:16:32.94Z</time></trkpt><trkpt lat="44.3579523" lon="8.571916"><ele>6.25</ele><time>2026-04-21T11:16:33.939Z</time></trkpt><trkpt lat="44.3580207" lon="8.5720715"><ele>5.5</ele><time>2026-04-21T11:16:34.943Z</time></trkpt><trkpt lat="44.3580874" lon="8.5722272"><ele>4.75</ele><time>2026-04-21T11:16:35.939Z</time></trkpt><trkpt lat="44.3581505" lon="8.5723839"><ele>4.0</ele><time>2026-04-21T11:16:36.94Z</time></trkpt><trkpt lat="44.3582112" lon="8.5725444"><ele>5.0</ele><time>2026-04-21T11:16:37.938Z</time></trkpt><trkpt lat="44.3582713" lon="8.5727046"><ele>6.0</ele><time>2026-04-21T11:16:38.937Z</time></trkpt><trkpt lat="44.358326" lon="8.5728577"><ele>7.0</ele><time>2026-04-21T11:16:39.938Z</time></trkpt><trkpt lat="44.3583715" lon="8.572996"><ele>8.0</ele><time>2026-04-21T11:16:40.935Z</time></trkpt><trkpt lat="44.3584142" lon="8.5731224"><ele>8.0</ele><time>2026-04-21T11:16:41.936Z</time></trkpt><trkpt lat="44.3584518" lon="8.5732509"><ele>8.0</ele><time>2026-04-21T11:16:42.941Z</time></trkpt><trkpt lat="44.3584857" lon="8.5733858"><ele>8.0</ele><time>2026-04-21T11:16:43.94Z</time></trkpt><trkpt lat="44.3585232" lon="8.5735252"><ele>8.0</ele><time>2026-04-21T11:16:44.94Z</time></trkpt><trkpt lat="44.3586013" lon="8.5738293"><ele>7.0</ele><time>2026-04-21T11:16:46.94Z</time></trkpt><trkpt lat="44.3586338" lon="8.573993"><ele>6.0</ele><time>2026-04-21T11:16:47.94Z</time></trkpt><trkpt lat="44.3586657" lon="8.5741578"><ele>5.0</ele><time>2026-04-21T11:16:48.938Z</time></trkpt><trkpt lat="44.3586973" lon="8.5743192"><ele>4.0</ele><time>2026-04-21T11:16:49.934Z</time></trkpt><trkpt lat="44.3587293" lon="8.574476"><ele>3.75</ele><time>2026-04-21T11:16:50.934Z</time></trkpt><trkpt lat="44.3587585" lon="8.5746335"><ele>3.5</ele><time>2026-04-21T11:16:51.936Z</time></trkpt><trkpt lat="44.3587851" lon="8.5747916"><ele>3.25</ele><time>2026-04-21T11:16:52.939Z</time></trkpt><trkpt lat="44.3588106" lon="8.5749478"><ele>3.0</ele><time>2026-04-21T11:16:53.934Z</time></trkpt><trkpt lat="44.3588375" lon="8.5751042"><ele>3.0</ele><time>2026-04-21T11:16:54.934Z</time></trkpt><trkpt lat="44.3588639" lon="8.5752557"><ele>3.0</ele><time>2026-04-21T11:16:55.943Z</time></trkpt><trkpt lat="44.3588935" lon="8.5754019"><ele>3.0</ele><time>2026-04-21T11:16:56.94Z</time></trkpt><trkpt lat="44.3589215" lon="8.5755439"><ele>3.0</ele><time>2026-04-21T11:16:57.943Z</time></trkpt><trkpt lat="44.358947" lon="8.5756836"><ele>3.0</ele><time>2026-04-21T11:16:58.944Z</time></trkpt><trkpt lat="44.3589712" lon="8.5758214"><ele>4.0</ele><time>2026-04-21T11:16:59.945Z</time></trkpt><trkpt lat="44.3589963" lon="8.5759581"><ele>5.0</ele><time>2026-04-21T11:17:00.937Z</time></trkpt><trkpt lat="44.3590221" lon="8.576094"><ele>6.000000000000001</ele><time>2026-04-21T11:17:01.934Z</time></trkpt><trkpt lat="44.359048" lon="8.5762325"><ele>7.0</ele><time>2026-04-21T11:17:02.933Z</time></trkpt><trkpt lat="44.3590723" lon="8.5763743"><ele>8.0</ele><time>2026-04-21T11:17:03.935Z</time></trkpt><trkpt lat="44.3590967" lon="8.5765192"><ele>8.0</ele><time>2026-04-21T11:17:04.94Z</time></trkpt><trkpt lat="44.3591235" lon="8.5766673"><ele>8.0</ele><time>2026-04-21T11:17:05.94Z</time></trkpt><trkpt lat="44.3591821" lon="8.5769618"><ele>8.0</ele><time>2026-04-21T11:17:07.938Z</time></trkpt><trkpt lat="44.359211" lon="8.5770928"><ele>8.0</ele><time>2026-04-21T11:17:08.933Z</time></trkpt><trkpt lat="44.3592367" lon="8.577198"><ele>7.666666666666666</ele><time>2026-04-21T11:17:09.934Z</time></trkpt><trkpt lat="44.3592609" lon="8.577286"><ele>7.333333333333333</ele><time>2026-04-21T11:17:10.944Z</time></trkpt><trkpt lat="44.3592813" lon="8.5773805"><ele>7.0</ele><time>2026-04-21T11:17:11.934Z</time></trkpt><trkpt lat="44.3592978" lon="8.577479"><ele>6.666666666666666</ele><time>2026-04-21T11:17:12.939Z</time></trkpt><trkpt lat="44.3593171" lon="8.5776221"><ele>6.333333333333333</ele><time>2026-04-21T11:17:14.94Z</time></trkpt><trkpt lat="44.3593307" lon="8.5777323"><ele>6.0</ele><time>2026-04-21T11:17:16.934Z</time></trkpt><trkpt lat="44.3593466" lon="8.5779015"><ele>6.0</ele><time>2026-04-21T11:17:18.943Z</time></trkpt><trkpt lat="44.3593465" lon="8.5780278"><ele>6.0</ele><time>2026-04-21T11:17:19.934Z</time></trkpt><trkpt lat="44.359344" lon="8.5781768"><ele>6.0</ele><time>2026-04-21T11:17:20.938Z</time></trkpt><trkpt lat="44.3593406" lon="8.5783431"><ele>6.0</ele><time>2026-04-21T11:17:21.938Z</time></trkpt><trkpt lat="44.3593362" lon="8.5785238"><ele>6.0</ele><time>2026-04-21T11:17:22.938Z</time></trkpt><trkpt lat="44.3593432" lon="8.5787071"><ele>5.5</ele><time>2026-04-21T11:17:23.933Z</time></trkpt><trkpt lat="44.3593703" lon="8.5788899"><ele>5.0</ele><time>2026-04-21T11:17:24.937Z</time></trkpt><trkpt lat="44.3594105" lon="8.579079"><ele>4.5</ele><time>2026-04-21T11:17:25.94Z</time></trkpt><trkpt lat="44.3594582" lon="8.5792703"><ele>4.0</ele><time>2026-04-21T11:17:26.938Z</time></trkpt><trkpt lat="44.3595465" lon="8.5796435"><ele>4.0</ele><time>2026-04-21T11:17:28.938Z</time></trkpt><trkpt lat="44.3595851" lon="8.5798163"><ele>4.0</ele><time>2026-04-21T11:17:29.939Z</time></trkpt><trkpt lat="44.3596217" lon="8.5799866"><ele>4.0</ele><time>2026-04-21T11:17:30.949Z</time></trkpt><trkpt lat="44.3596572" lon="8.5801607"><ele>4.0</ele><time>2026-04-21T11:17:31.937Z</time></trkpt><trkpt lat="44.3596901" lon="8.580343"><ele>5.75</ele><time>2026-04-21T11:17:32.937Z</time></trkpt><trkpt lat="44.3597178" lon="8.5805311"><ele>7.5</ele><time>2026-04-21T11:17:33.932Z</time></trkpt><trkpt lat="44.3597416" lon="8.580721"><ele>9.25</ele><time>2026-04-21T11:17:34.936Z</time></trkpt><trkpt lat="44.3597628" lon="8.5809107"><ele>11.0</ele><time>2026-04-21T11:17:35.934Z</time></trkpt><trkpt lat="44.3597818" lon="8.5810975"><ele>10.25</ele><time>2026-04-21T11:17:36.934Z</time></trkpt><trkpt lat="44.3597988" lon="8.5812803"><ele>9.5</ele><time>2026-04-21T11:17:37.934Z</time></trkpt><trkpt lat="44.3598179" lon="8.5814632"><ele>8.75</ele><time>2026-04-21T11:17:38.94Z</time></trkpt><trkpt lat="44.3598389" lon="8.5816476"><ele>8.0</ele><time>2026-04-21T11:17:39.934Z</time></trkpt><trkpt lat="44.3598614" lon="8.581834"><ele>7.75</ele><time>2026-04-21T11:17:40.935Z</time></trkpt><trkpt lat="44.3598838" lon="8.5820181"><ele>7.5</ele><time>2026-04-21T11:17:41.934Z</time></trkpt><trkpt lat="44.3599038" lon="8.5821919"><ele>7.25</ele><time>2026-04-21T11:17:42.936Z</time></trkpt><trkpt lat="44.3599198" lon="8.5823534"><ele>7.0</ele><time>2026-04-21T11:17:43.937Z</time></trkpt><trkpt lat="44.3599309" lon="8.5825051"><ele>7.0</ele><time>2026-04-21T11:17:44.935Z</time></trkpt><trkpt lat="44.3599412" lon="8.5826521"><ele>7.0</ele><time>2026-04-21T11:17:45.938Z</time></trkpt><trkpt lat="44.3599512" lon="8.5828051"><ele>7.0</ele><time>2026-04-21T11:17:46.934Z</time></trkpt><trkpt lat="44.3599656" lon="8.5829701"><ele>7.0</ele><time>2026-04-21T11:17:47.933Z</time></trkpt><trkpt lat="44.360005" lon="8.583335"><ele>7.333333333333334</ele><time>2026-04-21T11:17:49.933Z</time></trkpt><trkpt lat="44.360027" lon="8.5835457"><ele>7.666666666666666</ele><time>2026-04-21T11:17:50.937Z</time></trkpt><trkpt lat="44.3600518" lon="8.5837806"><ele>8.0</ele><time>2026-04-21T11:17:51.937Z</time></trkpt><trkpt lat="44.3600773" lon="8.5840326"><ele>8.0</ele><time>2026-04-21T11:17:52.939Z</time></trkpt><trkpt lat="44.3601016" lon="8.5842886"><ele>8.0</ele><time>2026-04-21T11:17:53.933Z</time></trkpt><trkpt lat="44.3601263" lon="8.5845479"><ele>8.0</ele><time>2026-04-21T11:17:54.941Z</time></trkpt><trkpt lat="44.3601542" lon="8.5848182"><ele>7.0</ele><time>2026-04-21T11:17:55.936Z</time></trkpt><trkpt lat="44.3601742" lon="8.5850979"><ele>6.0</ele><time>2026-04-21T11:17:56.94Z</time></trkpt><trkpt lat="44.3601896" lon="8.5853626"><ele>5.0</ele><time>2026-04-21T11:17:57.941Z</time></trkpt><trkpt lat="44.3602062" lon="8.5856069"><ele>5.0</ele><time>2026-04-21T11:17:58.939Z</time></trkpt><trkpt lat="44.3602259" lon="8.5858347"><ele>5.0</ele><time>2026-04-21T11:17:59.938Z</time></trkpt><trkpt lat="44.3602553" lon="8.586056"><ele>5.0</ele><time>2026-04-21T11:18:00.934Z</time></trkpt><trkpt lat="44.3602896" lon="8.5862744"><ele>5.0</ele><time>2026-04-21T11:18:01.936Z</time></trkpt><trkpt lat="44.3603277" lon="8.5864896"><ele>5.0</ele><time>2026-04-21T11:18:02.941Z</time></trkpt><trkpt lat="44.3603713" lon="8.5867044"><ele>5.0</ele><time>2026-04-21T11:18:03.935Z</time></trkpt><trkpt lat="44.3604233" lon="8.5869139"><ele>5.0</ele><time>2026-04-21T11:18:04.94Z</time></trkpt><trkpt lat="44.3604861" lon="8.5871202"><ele>5.0</ele><time>2026-04-21T11:18:05.939Z</time></trkpt><trkpt lat="44.3605551" lon="8.5873243"><ele>5.0</ele><time>2026-04-21T11:18:06.934Z</time></trkpt><trkpt lat="44.3606253" lon="8.5875307"><ele>8.5</ele><time>2026-04-21T11:18:07.934Z</time></trkpt><trkpt lat="44.3606942" lon="8.5877367"><ele>12.0</ele><time>2026-04-21T11:18:08.937Z</time></trkpt><trkpt lat="44.3608172" lon="8.5881544"><ele>12.0</ele><time>2026-04-21T11:18:10.937Z</time></trkpt><trkpt lat="44.3608644" lon="8.5883662"><ele>12.0</ele><time>2026-04-21T11:18:11.936Z</time></trkpt><trkpt lat="44.3608965" lon="8.588582"><ele>12.0</ele><time>2026-04-21T11:18:12.943Z</time></trkpt><trkpt lat="44.3609142" lon="8.5887982"><ele>11.0</ele><time>2026-04-21T11:18:13.934Z</time></trkpt><trkpt lat="44.3609106" lon="8.5890191"><ele>10.0</ele><time>2026-04-21T11:18:14.932Z</time></trkpt><trkpt lat="44.3608884" lon="8.5892346"><ele>9.0</ele><time>2026-04-21T11:18:15.936Z</time></trkpt><trkpt lat="44.3608552" lon="8.5894525"><ele>8.666666666666666</ele><time>2026-04-21T11:18:16.936Z</time></trkpt><trkpt lat="44.3608217" lon="8.5896751"><ele>8.333333333333332</ele><time>2026-04-21T11:18:17.936Z</time></trkpt><trkpt lat="44.3607953" lon="8.5898919"><ele>8.0</ele><time>2026-04-21T11:18:18.934Z</time></trkpt><trkpt lat="44.3607745" lon="8.5901074"><ele>8.0</ele><time>2026-04-21T11:18:19.935Z</time></trkpt><trkpt lat="44.3607632" lon="8.5903262"><ele>8.0</ele><time>2026-04-21T11:18:20.942Z</time></trkpt><trkpt lat="44.3607631" lon="8.5905484"><ele>8.0</ele><time>2026-04-21T11:18:21.934Z</time></trkpt><trkpt lat="44.360782" lon="8.5907694"><ele>9.666666666666666</ele><time>2026-04-21T11:18:22.937Z</time></trkpt><trkpt lat="44.3608188" lon="8.5909881"><ele>11.333333333333332</ele><time>2026-04-21T11:18:23.937Z</time></trkpt><trkpt lat="44.3608538" lon="8.5912072"><ele>13.0</ele><time>2026-04-21T11:18:24.934Z</time></trkpt><trkpt lat="44.3608771" lon="8.5914273"><ele>13.25</ele><time>2026-04-21T11:18:25.939Z</time></trkpt><trkpt lat="44.3608904" lon="8.5916362"><ele>13.5</ele><time>2026-04-21T11:18:26.94Z</time></trkpt><trkpt lat="44.3609006" lon="8.5918169"><ele>13.75</ele><time>2026-04-21T11:18:27.933Z</time></trkpt><trkpt lat="44.3609235" lon="8.5919727"><ele>14.0</ele><time>2026-04-21T11:18:28.938Z</time></trkpt><trkpt lat="44.3609663" lon="8.5921197"><ele>14.0</ele><time>2026-04-21T11:18:29.933Z</time></trkpt><trkpt lat="44.3610757" lon="8.5924153"><ele>14.0</ele><time>2026-04-21T11:18:31.936Z</time></trkpt><trkpt lat="44.361132" lon="8.5925755"><ele>14.0</ele><time>2026-04-21T11:18:32.933Z</time></trkpt><trkpt lat="44.3611951" lon="8.5927425"><ele>13.75</ele><time>2026-04-21T11:18:33.938Z</time></trkpt><trkpt lat="44.3612707" lon="8.5929067"><ele>13.5</ele><time>2026-04-21T11:18:34.937Z</time></trkpt><trkpt lat="44.3613482" lon="8.5930847"><ele>13.25</ele><time>2026-04-21T11:18:35.934Z</time></trkpt><trkpt lat="44.3614077" lon="8.593286"><ele>13.0</ele><time>2026-04-21T11:18:36.935Z</time></trkpt><trkpt lat="44.3614288" lon="8.5935117"><ele>21.333333333333332</ele><time>2026-04-21T11:18:37.937Z</time></trkpt><trkpt lat="44.3614397" lon="8.59375"><ele>29.666666666666664</ele><time>2026-04-21T11:18:38.939Z</time></trkpt><trkpt lat="44.3614617" lon="8.5939764"><ele>38.0</ele><time>2026-04-21T11:18:39.933Z</time></trkpt><trkpt lat="44.3615163" lon="8.5941861"><ele>38.0</ele><time>2026-04-21T11:18:40.936Z</time></trkpt><trkpt lat="44.361597" lon="8.5943736"><ele>38.0</ele><time>2026-04-21T11:18:41.939Z</time></trkpt><trkpt lat="44.3616938" lon="8.5945501"><ele>38.0</ele><time>2026-04-21T11:18:42.945Z</time></trkpt><trkpt lat="44.3618028" lon="8.5947214"><ele>33.0</ele><time>2026-04-21T11:18:43.942Z</time></trkpt><trkpt lat="44.3619098" lon="8.5948881"><ele>28.0</ele><time>2026-04-21T11:18:44.938Z</time></trkpt><trkpt lat="44.3620126" lon="8.5950535"><ele>23.0</ele><time>2026-04-21T11:18:45.934Z</time></trkpt><trkpt lat="44.3621077" lon="8.5952215"><ele>18.666666666666668</ele><time>2026-04-21T11:18:46.944Z</time></trkpt><trkpt lat="44.3621969" lon="8.5953981"><ele>14.333333333333334</ele><time>2026-04-21T11:18:47.941Z</time></trkpt><trkpt lat="44.3622791" lon="8.595585"><ele>10.0</ele><time>2026-04-21T11:18:48.936Z</time></trkpt><trkpt lat="44.3623576" lon="8.5957762"><ele>18.0</ele><time>2026-04-21T11:18:49.942Z</time></trkpt><trkpt lat="44.3625182" lon="8.5961645"><ele>26.0</ele><time>2026-04-21T11:18:51.939Z</time></trkpt><trkpt lat="44.3626008" lon="8.5963588"><ele>26.0</ele><time>2026-04-21T11:18:52.945Z</time></trkpt><trkpt lat="44.3626876" lon="8.5965511"><ele>26.0</ele><time>2026-04-21T11:18:53.935Z</time></trkpt><trkpt lat="44.3627742" lon="8.5967414"><ele>26.0</ele><time>2026-04-21T11:18:54.936Z</time></trkpt><trkpt lat="44.3628577" lon="8.5969304"><ele>23.333333333333332</ele><time>2026-04-21T11:18:55.936Z</time></trkpt><trkpt lat="44.362928" lon="8.5971245"><ele>20.666666666666664</ele><time>2026-04-21T11:18:56.947Z</time></trkpt><trkpt lat="44.3629716" lon="8.5973267"><ele>18.0</ele><time>2026-04-21T11:18:57.94Z</time></trkpt><trkpt lat="44.3629968" lon="8.5975347"><ele>18.0</ele><time>2026-04-21T11:18:58.943Z</time></trkpt><trkpt lat="44.3630259" lon="8.597725"><ele>18.0</ele><time>2026-04-21T11:18:59.939Z</time></trkpt><trkpt lat="44.3630773" lon="8.5978795"><ele>18.0</ele><time>2026-04-21T11:19:00.937Z</time></trkpt><trkpt lat="44.3631702" lon="8.5979803"><ele>18.0</ele><time>2026-04-21T11:19:01.95Z</time></trkpt><trkpt lat="44.3633068" lon="8.5980221"><ele>22.25</ele><time>2026-04-21T11:19:02.935Z</time></trkpt><trkpt lat="44.3634619" lon="8.598037"><ele>26.5</ele><time>2026-04-21T11:19:03.939Z</time></trkpt><trkpt lat="44.3636061" lon="8.5980583"><ele>30.75</ele><time>2026-04-21T11:19:04.933Z</time></trkpt><trkpt lat="44.3637367" lon="8.5981134"><ele>35.0</ele><time>2026-04-21T11:19:05.939Z</time></trkpt><trkpt lat="44.3638459" lon="8.5982155"><ele>37.33333333333333</ele><time>2026-04-21T11:19:06.936Z</time></trkpt><trkpt lat="44.3639409" lon="8.5983683"><ele>39.666666666666664</ele><time>2026-04-21T11:19:07.937Z</time></trkpt><trkpt lat="44.3640406" lon="8.5985503"><ele>42.0</ele><time>2026-04-21T11:19:08.939Z</time></trkpt><trkpt lat="44.3641672" lon="8.5987359"><ele>42.0</ele><time>2026-04-21T11:19:09.937Z</time></trkpt><trkpt lat="44.3643156" lon="8.5988792"><ele>42.0</ele><time>2026-04-21T11:19:10.936Z</time></trkpt><trkpt lat="44.36458" lon="8.5991317"><ele>42.0</ele><time>2026-04-21T11:19:12.936Z</time></trkpt><trkpt lat="44.3646547" lon="8.5993137"><ele>42.0</ele><time>2026-04-21T11:19:13.934Z</time></trkpt><trkpt lat="44.3647003" lon="8.5995386"><ele>42.0</ele><time>2026-04-21T11:19:14.943Z</time></trkpt><trkpt lat="44.3647516" lon="8.5997601"><ele>46.5</ele><time>2026-04-21T11:19:15.943Z</time></trkpt><trkpt lat="44.364819" lon="8.5999451"><ele>51.0</ele><time>2026-04-21T11:19:16.937Z</time></trkpt><trkpt lat="44.3649072" lon="8.6000712"><ele>55.5</ele><time>2026-04-21T11:19:17.943Z</time></trkpt><trkpt lat="44.365028" lon="8.6000856"><ele>60.0</ele><time>2026-04-21T11:19:18.94Z</time></trkpt><trkpt lat="44.3651791" lon="8.6000087"><ele>60.0</ele><time>2026-04-21T11:19:19.937Z</time></trkpt><trkpt lat="44.3653282" lon="8.5999501"><ele>60.0</ele><time>2026-04-21T11:19:20.934Z</time></trkpt><trkpt lat="44.3654564" lon="8.5999464"><ele>60.0</ele><time>2026-04-21T11:19:21.938Z</time></trkpt><trkpt lat="44.3655664" lon="8.5999958"><ele>60.0</ele><time>2026-04-21T11:19:22.938Z</time></trkpt><trkpt lat="44.3656745" lon="8.6000704"><ele>62.6</ele><time>2026-04-21T11:19:23.938Z</time></trkpt><trkpt lat="44.3657646" lon="8.6001565"><ele>65.2</ele><time>2026-04-21T11:19:24.934Z</time></trkpt><trkpt lat="44.3658282" lon="8.6002601"><ele>67.8</ele><time>2026-04-21T11:19:25.939Z</time></trkpt><trkpt lat="44.365861" lon="8.6003789"><ele>70.4</ele><time>2026-04-21T11:19:26.94Z</time></trkpt><trkpt lat="44.3658565" lon="8.6005094"><ele>73.0</ele><time>2026-04-21T11:19:27.949Z</time></trkpt><trkpt lat="44.3658093" lon="8.6006285"><ele>73.0</ele><time>2026-04-21T11:19:28.935Z</time></trkpt><trkpt lat="44.3657293" lon="8.600711"><ele>73.0</ele><time>2026-04-21T11:19:29.938Z</time></trkpt><trkpt lat="44.3656389" lon="8.6007578"><ele>73.0</ele><time>2026-04-21T11:19:30.938Z</time></trkpt><trkpt lat="44.3655492" lon="8.6007987"><ele>73.0</ele><time>2026-04-21T11:19:31.93Z</time></trkpt><trkpt lat="44.3654112" lon="8.6009518"><ele>73.75</ele><time>2026-04-21T11:19:33.94Z</time></trkpt><trkpt lat="44.3653814" lon="8.6010719"><ele>74.5</ele><time>2026-04-21T11:19:34.934Z</time></trkpt><trkpt lat="44.3653919" lon="8.6012141"><ele>75.25</ele><time>2026-04-21T11:19:35.944Z</time></trkpt><trkpt lat="44.3654491" lon="8.6013747"><ele>76.0</ele><time>2026-04-21T11:19:36.939Z</time></trkpt><trkpt lat="44.365532" lon="8.6015544"><ele>76.0</ele><time>2026-04-21T11:19:37.933Z</time></trkpt><trkpt lat="44.3656209" lon="8.6017344"><ele>76.0</ele><time>2026-04-21T11:19:38.939Z</time></trkpt><trkpt lat="44.3657024" lon="8.6019095"><ele>76.0</ele><time>2026-04-21T11:19:39.94Z</time></trkpt><trkpt lat="44.3657752" lon="8.6020718"><ele>76.0</ele><time>2026-04-21T11:19:40.94Z</time></trkpt><trkpt lat="44.3658342" lon="8.6022314"><ele>73.75</ele><time>2026-04-21T11:19:41.942Z</time></trkpt><trkpt lat="44.3658681" lon="8.6024041"><ele>71.5</ele><time>2026-04-21T11:19:42.938Z</time></trkpt><trkpt lat="44.3658835" lon="8.6025865"><ele>69.25</ele><time>2026-04-21T11:19:43.94Z</time></trkpt><trkpt lat="44.3659039" lon="8.6027679"><ele>67.0</ele><time>2026-04-21T11:19:44.938Z</time></trkpt><trkpt lat="44.365939" lon="8.6029497"><ele>65.0</ele><time>2026-04-21T11:19:45.938Z</time></trkpt><trkpt lat="44.3659937" lon="8.6031235"><ele>63.0</ele><time>2026-04-21T11:19:46.944Z</time></trkpt><trkpt lat="44.3660759" lon="8.60329"><ele>61.0</ele><time>2026-04-21T11:19:47.938Z</time></trkpt><trkpt lat="44.3661768" lon="8.6034501"><ele>59.0</ele><time>2026-04-21T11:19:48.937Z</time></trkpt><trkpt lat="44.3662871" lon="8.6036015"><ele>62.25</ele><time>2026-04-21T11:19:49.938Z</time></trkpt><trkpt lat="44.3663967" lon="8.6037418"><ele>65.5</ele><time>2026-04-21T11:19:50.948Z</time></trkpt><trkpt lat="44.3664988" lon="8.6038753"><ele>68.75</ele><time>2026-04-21T11:19:51.936Z</time></trkpt><trkpt lat="44.3666005" lon="8.6040013"><ele>72.0</ele><time>2026-04-21T11:19:52.94Z</time></trkpt><trkpt lat="44.3668026" lon="8.60425"><ele>72.0</ele><time>2026-04-21T11:19:54.941Z</time></trkpt><trkpt lat="44.366894" lon="8.6043915"><ele>72.0</ele><time>2026-04-21T11:19:55.935Z</time></trkpt><trkpt lat="44.3669695" lon="8.6045505"><ele>72.0</ele><time>2026-04-21T11:19:56.943Z</time></trkpt><trkpt lat="44.3670331" lon="8.6047248"><ele>72.0</ele><time>2026-04-21T11:19:57.943Z</time></trkpt><trkpt lat="44.3670967" lon="8.6049015"><ele>71.75</ele><time>2026-04-21T11:19:58.942Z</time></trkpt><trkpt lat="44.3671688" lon="8.6050743"><ele>71.5</ele><time>2026-04-21T11:19:59.939Z</time></trkpt><trkpt lat="44.3672527" lon="8.6052445"><ele>71.25</ele><time>2026-04-21T11:20:00.935Z</time></trkpt><trkpt lat="44.3673379" lon="8.6054061"><ele>71.0</ele><time>2026-04-21T11:20:01.936Z</time></trkpt><trkpt lat="44.3674235" lon="8.6055644"><ele>71.0</ele><time>2026-04-21T11:20:02.939Z</time></trkpt><trkpt lat="44.3675097" lon="8.6057219"><ele>71.0</ele><time>2026-04-21T11:20:03.934Z</time></trkpt><trkpt lat="44.3675941" lon="8.6058765"><ele>71.0</ele><time>2026-04-21T11:20:04.933Z</time></trkpt><trkpt lat="44.3676825" lon="8.6060273"><ele>71.0</ele><time>2026-04-21T11:20:05.936Z</time></trkpt><trkpt lat="44.3677771" lon="8.6061722"><ele>72.25</ele><time>2026-04-21T11:20:06.932Z</time></trkpt><trkpt lat="44.3678832" lon="8.6063036"><ele>73.5</ele><time>2026-04-21T11:20:07.935Z</time></trkpt><trkpt lat="44.3680004" lon="8.6064197"><ele>74.75</ele><time>2026-04-21T11:20:08.939Z</time></trkpt><trkpt lat="44.3681241" lon="8.6065284"><ele>76.0</ele><time>2026-04-21T11:20:09.941Z</time></trkpt><trkpt lat="44.3682476" lon="8.6066433"><ele>76.0</ele><time>2026-04-21T11:20:10.932Z</time></trkpt><trkpt lat="44.3683651" lon="8.60677"><ele>76.0</ele><time>2026-04-21T11:20:11.935Z</time></trkpt><trkpt lat="44.3684688" lon="8.6069121"><ele>76.0</ele><time>2026-04-21T11:20:12.942Z</time></trkpt><trkpt lat="44.3685459" lon="8.6070778"><ele>76.0</ele><time>2026-04-21T11:20:13.934Z</time></trkpt><trkpt lat="44.3686219" lon="8.6074804"><ele>74.66666666666666</ele><time>2026-04-21T11:20:15.941Z</time></trkpt><trkpt lat="44.3686443" lon="8.6076894"><ele>73.33333333333333</ele><time>2026-04-21T11:20:16.938Z</time></trkpt><trkpt lat="44.3686683" lon="8.6078992"><ele>72.0</ele><time>2026-04-21T11:20:17.939Z</time></trkpt><trkpt lat="44.3686955" lon="8.60811"><ele>70.33333333333333</ele><time>2026-04-21T11:20:18.943Z</time></trkpt><trkpt lat="44.3687268" lon="8.6083182"><ele>68.66666666666666</ele><time>2026-04-21T11:20:19.936Z</time></trkpt><trkpt lat="44.3687635" lon="8.6085263"><ele>67.0</ele><time>2026-04-21T11:20:20.935Z</time></trkpt><trkpt lat="44.368801" lon="8.6087365"><ele>63.0</ele><time>2026-04-21T11:20:21.934Z</time></trkpt><trkpt lat="44.36884" lon="8.6089487"><ele>59.0</ele><time>2026-04-21T11:20:22.94Z</time></trkpt><trkpt lat="44.3688753" lon="8.6091632"><ele>55.0</ele><time>2026-04-21T11:20:23.939Z</time></trkpt><trkpt lat="44.3689041" lon="8.6093808"><ele>64.0</ele><time>2026-04-21T11:20:24.939Z</time></trkpt><trkpt lat="44.3689182" lon="8.6095971"><ele>73.0</ele><time>2026-04-21T11:20:25.939Z</time></trkpt><trkpt lat="44.3689151" lon="8.6098087"><ele>82.0</ele><time>2026-04-21T11:20:26.94Z</time></trkpt><trkpt lat="44.3689017" lon="8.6100167"><ele>82.0</ele><time>2026-04-21T11:20:27.937Z</time></trkpt><trkpt lat="44.368884" lon="8.6102239"><ele>82.0</ele><time>2026-04-21T11:20:28.939Z</time></trkpt><trkpt lat="44.3688642" lon="8.6104265"><ele>82.0</ele><time>2026-04-21T11:20:29.933Z</time></trkpt><trkpt lat="44.3688502" lon="8.6106284"><ele>82.0</ele><time>2026-04-21T11:20:30.938Z</time></trkpt><trkpt lat="44.3688384" lon="8.6108317"><ele>81.25</ele><time>2026-04-21T11:20:31.939Z</time></trkpt><trkpt lat="44.3688304" lon="8.6110373"><ele>80.5</ele><time>2026-04-21T11:20:32.932Z</time></trkpt><trkpt lat="44.3688272" lon="8.6112459"><ele>79.75</ele><time>2026-04-21T11:20:33.934Z</time></trkpt><trkpt lat="44.3688359" lon="8.6114587"><ele>79.0</ele><time>2026-04-21T11:20:34.941Z</time></trkpt><trkpt lat="44.3688791" lon="8.6118927"><ele>77.66666666666666</ele><time>2026-04-21T11:20:36.938Z</time></trkpt><trkpt lat="44.3689241" lon="8.6121049"><ele>76.33333333333333</ele><time>2026-04-21T11:20:37.933Z</time></trkpt><trkpt lat="44.368979" lon="8.6123144"><ele>75.0</ele><time>2026-04-21T11:20:38.937Z</time></trkpt><trkpt lat="44.3690437" lon="8.6125238"><ele>75.0</ele><time>2026-04-21T11:20:39.933Z</time></trkpt><trkpt lat="44.3691113" lon="8.6127337"><ele>75.0</ele><time>2026-04-21T11:20:40.934Z</time></trkpt><trkpt lat="44.3691745" lon="8.6129443"><ele>75.0</ele><time>2026-04-21T11:20:41.943Z</time></trkpt><trkpt lat="44.3692338" lon="8.6131479"><ele>74.5</ele><time>2026-04-21T11:20:42.936Z</time></trkpt><trkpt lat="44.3692916" lon="8.6133383"><ele>74.0</ele><time>2026-04-21T11:20:43.936Z</time></trkpt><trkpt lat="44.3693523" lon="8.61352"><ele>73.5</ele><time>2026-04-21T11:20:44.941Z</time></trkpt><trkpt lat="44.3694287" lon="8.613694"><ele>73.0</ele><time>2026-04-21T11:20:45.935Z</time></trkpt><trkpt lat="44.3695198" lon="8.6138514"><ele>74.0</ele><time>2026-04-21T11:20:46.932Z</time></trkpt><trkpt lat="44.3696271" lon="8.6139911"><ele>75.0</ele><time>2026-04-21T11:20:47.94Z</time></trkpt><trkpt lat="44.3697413" lon="8.6141275"><ele>76.0</ele><time>2026-04-21T11:20:48.937Z</time></trkpt><trkpt lat="44.3698591" lon="8.6142662"><ele>76.0</ele><time>2026-04-21T11:20:49.933Z</time></trkpt><trkpt lat="44.3699786" lon="8.6144063"><ele>76.0</ele><time>2026-04-21T11:20:50.941Z</time></trkpt><trkpt lat="44.3701024" lon="8.6145418"><ele>76.0</ele><time>2026-04-21T11:20:51.936Z</time></trkpt><trkpt lat="44.3702339" lon="8.614665"><ele>76.5</ele><time>2026-04-21T11:20:52.94Z</time></trkpt><trkpt lat="44.370366" lon="8.6147662"><ele>77.0</ele><time>2026-04-21T11:20:53.936Z</time></trkpt><trkpt lat="44.3704934" lon="8.6148576"><ele>77.5</ele><time>2026-04-21T11:20:54.931Z</time></trkpt><trkpt lat="44.3706103" lon="8.6149614"><ele>78.0</ele><time>2026-04-21T11:20:55.942Z</time></trkpt><trkpt lat="44.3707717" lon="8.615269"><ele>76.33333333333333</ele><time>2026-04-21T11:20:57.936Z</time></trkpt><trkpt lat="44.3707918" lon="8.6154729"><ele>74.66666666666666</ele><time>2026-04-21T11:20:58.933Z</time></trkpt><trkpt lat="44.3707858" lon="8.6156971"><ele>73.0</ele><time>2026-04-21T11:20:59.94Z</time></trkpt><trkpt lat="44.3707801" lon="8.6159129"><ele>73.0</ele><time>2026-04-21T11:21:00.937Z</time></trkpt><trkpt lat="44.3707747" lon="8.6161185"><ele>73.0</ele><time>2026-04-21T11:21:01.942Z</time></trkpt><trkpt lat="44.3707885" lon="8.6163056"><ele>73.0</ele><time>2026-04-21T11:21:02.932Z</time></trkpt><trkpt lat="44.3708384" lon="8.6164745"><ele>73.0</ele><time>2026-04-21T11:21:03.938Z</time></trkpt><trkpt lat="44.3709293" lon="8.6166274"><ele>71.0</ele><time>2026-04-21T11:21:04.935Z</time></trkpt><trkpt lat="44.3710457" lon="8.6167742"><ele>69.0</ele><time>2026-04-21T11:21:05.934Z</time></trkpt><trkpt lat="44.3711598" lon="8.6169285"><ele>67.0</ele><time>2026-04-21T11:21:06.941Z</time></trkpt><trkpt lat="44.371252" lon="8.6171037"><ele>70.0</ele><time>2026-04-21T11:21:07.934Z</time></trkpt><trkpt lat="44.3713233" lon="8.6172971"><ele>73.0</ele><time>2026-04-21T11:21:08.937Z</time></trkpt><trkpt lat="44.3713827" lon="8.6174953"><ele>76.0</ele><time>2026-04-21T11:21:09.936Z</time></trkpt><trkpt lat="44.3714386" lon="8.6176919"><ele>74.5</ele><time>2026-04-21T11:21:10.936Z</time></trkpt><trkpt lat="44.3714942" lon="8.6178828"><ele>73.0</ele><time>2026-04-21T11:21:11.939Z</time></trkpt><trkpt lat="44.3715546" lon="8.6180698"><ele>71.5</ele><time>2026-04-21T11:21:12.936Z</time></trkpt><trkpt lat="44.3716163" lon="8.6182587"><ele>70.0</ele><time>2026-04-21T11:21:13.938Z</time></trkpt><trkpt lat="44.3716721" lon="8.6184472"><ele>70.0</ele><time>2026-04-21T11:21:14.934Z</time></trkpt><trkpt lat="44.3717285" lon="8.6186408"><ele>70.0</ele><time>2026-04-21T11:21:15.946Z</time></trkpt><trkpt lat="44.3717868" lon="8.6188269"><ele>70.0</ele><time>2026-04-21T11:21:16.937Z</time></trkpt><trkpt lat="44.3719187" lon="8.6191822"><ele>69.0</ele><time>2026-04-21T11:21:18.938Z</time></trkpt><trkpt lat="44.3719966" lon="8.6193447"><ele>68.0</ele><time>2026-04-21T11:21:19.946Z</time></trkpt><trkpt lat="44.372084" lon="8.6194911"><ele>67.0</ele><time>2026-04-21T11:21:20.936Z</time></trkpt><trkpt lat="44.3721892" lon="8.6196116"><ele>66.0</ele><time>2026-04-21T11:21:21.933Z</time></trkpt><trkpt lat="44.3723094" lon="8.6196942"><ele>66.0</ele><time>2026-04-21T11:21:22.934Z</time></trkpt><trkpt lat="44.3724385" lon="8.6197506"><ele>66.0</ele><time>2026-04-21T11:21:23.933Z</time></trkpt><trkpt lat="44.3725682" lon="8.6198"><ele>66.0</ele><time>2026-04-21T11:21:24.936Z</time></trkpt><trkpt lat="44.3726949" lon="8.6198514"><ele>66.0</ele><time>2026-04-21T11:21:25.94Z</time></trkpt><trkpt lat="44.3728109" lon="8.6199092"><ele>66.0</ele><time>2026-04-21T11:21:26.939Z</time></trkpt><trkpt lat="44.3729078" lon="8.6199829"><ele>66.0</ele><time>2026-04-21T11:21:27.938Z</time></trkpt><trkpt lat="44.3729765" lon="8.6200956"><ele>66.0</ele><time>2026-04-21T11:21:28.936Z</time></trkpt><trkpt lat="44.3730087" lon="8.620256"><ele>66.0</ele><time>2026-04-21T11:21:29.939Z</time></trkpt><trkpt lat="44.373009" lon="8.6204502"><ele>62.25</ele><time>2026-04-21T11:21:30.939Z</time></trkpt><trkpt lat="44.3729872" lon="8.6206524"><ele>58.5</ele><time>2026-04-21T11:21:31.934Z</time></trkpt><trkpt lat="44.3729486" lon="8.6208543"><ele>54.75</ele><time>2026-04-21T11:21:32.937Z</time></trkpt><trkpt lat="44.3729066" lon="8.6210602"><ele>51.0</ele><time>2026-04-21T11:21:33.936Z</time></trkpt><trkpt lat="44.3728793" lon="8.6212571"><ele>49.75</ele><time>2026-04-21T11:21:34.943Z</time></trkpt><trkpt lat="44.3728621" lon="8.6214433"><ele>48.5</ele><time>2026-04-21T11:21:35.937Z</time></trkpt><trkpt lat="44.3728448" lon="8.621623"><ele>47.25</ele><time>2026-04-21T11:21:36.932Z</time></trkpt><trkpt lat="44.3728204" lon="8.6217987"><ele>46.0</ele><time>2026-04-21T11:21:37.934Z</time></trkpt><trkpt lat="44.3727281" lon="8.622131"><ele>46.0</ele><time>2026-04-21T11:21:39.933Z</time></trkpt><trkpt lat="44.3726604" lon="8.6222947"><ele>46.0</ele><time>2026-04-21T11:21:40.94Z</time></trkpt><trkpt lat="44.3725838" lon="8.622454"><ele>46.0</ele><time>2026-04-21T11:21:41.935Z</time></trkpt><trkpt lat="44.3725087" lon="8.6226106"><ele>46.0</ele><time>2026-04-21T11:21:42.938Z</time></trkpt><trkpt lat="44.3724392" lon="8.6227643"><ele>46.75</ele><time>2026-04-21T11:21:43.939Z</time></trkpt><trkpt lat="44.3723759" lon="8.6229154"><ele>47.5</ele><time>2026-04-21T11:21:44.938Z</time></trkpt><trkpt lat="44.3723155" lon="8.6230693"><ele>48.25</ele><time>2026-04-21T11:21:45.935Z</time></trkpt><trkpt lat="44.3722637" lon="8.6232274"><ele>49.0</ele><time>2026-04-21T11:21:46.933Z</time></trkpt><trkpt lat="44.3722238" lon="8.6233868"><ele>49.0</ele><time>2026-04-21T11:21:47.934Z</time></trkpt><trkpt lat="44.3722003" lon="8.6235425"><ele>49.0</ele><time>2026-04-21T11:21:48.941Z</time></trkpt><trkpt lat="44.3722016" lon="8.6236875"><ele>49.0</ele><time>2026-04-21T11:21:49.936Z</time></trkpt><trkpt lat="44.3722347" lon="8.6238113"><ele>49.0</ele><time>2026-04-21T11:21:50.936Z</time></trkpt><trkpt lat="44.3722983" lon="8.6239055"><ele>49.0</ele><time>2026-04-21T11:21:51.937Z</time></trkpt><trkpt lat="44.3723857" lon="8.6239591"><ele>46.2</ele><time>2026-04-21T11:21:52.934Z</time></trkpt><trkpt lat="44.3724989" lon="8.6239698"><ele>43.400000000000006</ele><time>2026-04-21T11:21:53.933Z</time></trkpt><trkpt lat="44.3726206" lon="8.6239552"><ele>40.6</ele><time>2026-04-21T11:21:54.942Z</time></trkpt><trkpt lat="44.3727302" lon="8.6239571"><ele>37.8</ele><time>2026-04-21T11:21:55.941Z</time></trkpt><trkpt lat="44.3728225" lon="8.6240032"><ele>35.0</ele><time>2026-04-21T11:21:56.936Z</time></trkpt><trkpt lat="44.3729111" lon="8.6241094"><ele>35.0</ele><time>2026-04-21T11:21:57.935Z</time></trkpt><trkpt lat="44.3729949" lon="8.6242444"><ele>35.0</ele><time>2026-04-21T11:21:58.946Z</time></trkpt><trkpt lat="44.3731521" lon="8.624526"><ele>35.0</ele><time>2026-04-21T11:22:00.937Z</time></trkpt><trkpt lat="44.3732333" lon="8.6246641"><ele>33.5</ele><time>2026-04-21T11:22:01.937Z</time></trkpt><trkpt lat="44.3733174" lon="8.6247918"><ele>32.0</ele><time>2026-04-21T11:22:02.935Z</time></trkpt><trkpt lat="44.3734143" lon="8.6248926"><ele>30.5</ele><time>2026-04-21T11:22:03.932Z</time></trkpt><trkpt lat="44.3735255" lon="8.6249621"><ele>29.0</ele><time>2026-04-21T11:22:04.937Z</time></trkpt><trkpt lat="44.373652" lon="8.6249921"><ele>29.0</ele><time>2026-04-21T11:22:05.937Z</time></trkpt><trkpt lat="44.3737939" lon="8.6249949"><ele>29.0</ele><time>2026-04-21T11:22:06.937Z</time></trkpt><trkpt lat="44.3739424" lon="8.6249789"><ele>29.0</ele><time>2026-04-21T11:22:07.933Z</time></trkpt><trkpt lat="44.3740872" lon="8.624963"><ele>29.0</ele><time>2026-04-21T11:22:08.939Z</time></trkpt><trkpt lat="44.3742324" lon="8.6249586"><ele>31.0</ele><time>2026-04-21T11:22:09.94Z</time></trkpt><trkpt lat="44.3743752" lon="8.6249631"><ele>33.0</ele><time>2026-04-21T11:22:10.935Z</time></trkpt><trkpt lat="44.3745197" lon="8.624967"><ele>35.0</ele><time>2026-04-21T11:22:11.93Z</time></trkpt><trkpt lat="44.3746562" lon="8.6249502"><ele>37.0</ele><time>2026-04-21T11:22:12.936Z</time></trkpt><trkpt lat="44.3747823" lon="8.6248988"><ele>38.0</ele><time>2026-04-21T11:22:13.937Z</time></trkpt><trkpt lat="44.3748946" lon="8.6248094"><ele>39.0</ele><time>2026-04-21T11:22:14.937Z</time></trkpt><trkpt lat="44.3749819" lon="8.6246925"><ele>40.0</ele><time>2026-04-21T11:22:15.94Z</time></trkpt><trkpt lat="44.3750439" lon="8.6245454"><ele>41.0</ele><time>2026-04-21T11:22:16.934Z</time></trkpt><trkpt lat="44.3750805" lon="8.6243759"><ele>41.0</ele><time>2026-04-21T11:22:17.937Z</time></trkpt><trkpt lat="44.3750963" lon="8.6242013"><ele>41.0</ele><time>2026-04-21T11:22:18.939Z</time></trkpt><trkpt lat="44.3751176" lon="8.6240297"><ele>41.0</ele><time>2026-04-21T11:22:19.94Z</time></trkpt><trkpt lat="44.3752803" lon="8.6237735"><ele>41.0</ele><time>2026-04-21T11:22:21.937Z</time></trkpt><trkpt lat="44.3754142" lon="8.6237127"><ele>41.0</ele><time>2026-04-21T11:22:22.941Z</time></trkpt><trkpt lat="44.3755485" lon="8.6236959"><ele>41.0</ele><time>2026-04-21T11:22:23.94Z</time></trkpt><trkpt lat="44.375683" lon="8.6237586"><ele>41.0</ele><time>2026-04-21T11:22:24.941Z</time></trkpt><trkpt lat="44.3757965" lon="8.6238779"><ele>40.0</ele><time>2026-04-21T11:22:25.943Z</time></trkpt><trkpt lat="44.375867" lon="8.6240657"><ele>39.0</ele><time>2026-04-21T11:22:26.939Z</time></trkpt><trkpt lat="44.3758839" lon="8.6242967"><ele>38.0</ele><time>2026-04-21T11:22:27.936Z</time></trkpt><trkpt lat="44.3758691" lon="8.6245191"><ele>37.25</ele><time>2026-04-21T11:22:28.941Z</time></trkpt><trkpt lat="44.3758331" lon="8.6247198"><ele>36.5</ele><time>2026-04-21T11:22:29.944Z</time></trkpt><trkpt lat="44.3758011" lon="8.6248928"><ele>35.75</ele><time>2026-04-21T11:22:30.934Z</time></trkpt><trkpt lat="44.3757654" lon="8.6250496"><ele>35.0</ele><time>2026-04-21T11:22:31.933Z</time></trkpt><trkpt lat="44.3757161" lon="8.6252045"><ele>31.75</ele><time>2026-04-21T11:22:32.935Z</time></trkpt><trkpt lat="44.3756599" lon="8.6253515"><ele>28.5</ele><time>2026-04-21T11:22:33.932Z</time></trkpt><trkpt lat="44.3755892" lon="8.6254952"><ele>25.25</ele><time>2026-04-21T11:22:34.937Z</time></trkpt><trkpt lat="44.3755098" lon="8.6256341"><ele>22.0</ele><time>2026-04-21T11:22:35.934Z</time></trkpt><trkpt lat="44.3754148" lon="8.6257567"><ele>22.0</ele><time>2026-04-21T11:22:36.934Z</time></trkpt><trkpt lat="44.3753184" lon="8.6258763"><ele>22.0</ele><time>2026-04-21T11:22:37.93Z</time></trkpt><trkpt lat="44.3752263" lon="8.6260046"><ele>22.0</ele><time>2026-04-21T11:22:38.934Z</time></trkpt><trkpt lat="44.3751446" lon="8.6261258"><ele>22.0</ele><time>2026-04-21T11:22:39.939Z</time></trkpt><trkpt lat="44.37507" lon="8.6262268"><ele>24.0</ele><time>2026-04-21T11:22:40.936Z</time></trkpt><trkpt lat="44.3749027" lon="8.626379"><ele>26.0</ele><time>2026-04-21T11:22:42.935Z</time></trkpt><trkpt lat="44.3748293" lon="8.6264526"><ele>28.0</ele><time>2026-04-21T11:22:43.933Z</time></trkpt><trkpt lat="44.3747656" lon="8.6265428"><ele>30.0</ele><time>2026-04-21T11:22:44.941Z</time></trkpt><trkpt lat="44.3747338" lon="8.62666"><ele>30.0</ele><time>2026-04-21T11:22:45.935Z</time></trkpt><trkpt lat="44.3747676" lon="8.6268146"><ele>30.0</ele><time>2026-04-21T11:22:46.936Z</time></trkpt><trkpt lat="44.3748344" lon="8.6269681"><ele>30.0</ele><time>2026-04-21T11:22:47.94Z</time></trkpt><trkpt lat="44.374936" lon="8.6270862"><ele>30.0</ele><time>2026-04-21T11:22:48.942Z</time></trkpt><trkpt lat="44.3750592" lon="8.6271581"><ele>27.0</ele><time>2026-04-21T11:22:49.939Z</time></trkpt><trkpt lat="44.3751754" lon="8.6272025"><ele>24.0</ele><time>2026-04-21T11:22:50.937Z</time></trkpt><trkpt lat="44.3752853" lon="8.6272398"><ele>21.0</ele><time>2026-04-21T11:22:51.936Z</time></trkpt><trkpt lat="44.3753902" lon="8.6272806"><ele>18.0</ele><time>2026-04-21T11:22:52.936Z</time></trkpt><trkpt lat="44.3754986" lon="8.6273371"><ele>22.0</ele><time>2026-04-21T11:22:53.938Z</time></trkpt><trkpt lat="44.3756091" lon="8.6274007"><ele>26.0</ele><time>2026-04-21T11:22:54.939Z</time></trkpt><trkpt lat="44.3757284" lon="8.6274532"><ele>30.0</ele><time>2026-04-21T11:22:55.941Z</time></trkpt><trkpt lat="44.3758486" lon="8.627488"><ele>34.0</ele><time>2026-04-21T11:22:56.942Z</time></trkpt><trkpt lat="44.3759673" lon="8.6274903"><ele>34.0</ele><time>2026-04-21T11:22:57.937Z</time></trkpt><trkpt lat="44.3760904" lon="8.6274668"><ele>34.0</ele><time>2026-04-21T11:22:58.941Z</time></trkpt><trkpt lat="44.3762143" lon="8.6274254"><ele>34.0</ele><time>2026-04-21T11:22:59.935Z</time></trkpt><trkpt lat="44.376335" lon="8.6273693"><ele>34.0</ele><time>2026-04-21T11:23:00.934Z</time></trkpt><trkpt lat="44.3764554" lon="8.6273234"><ele>35.25</ele><time>2026-04-21T11:23:01.935Z</time></trkpt><trkpt lat="44.3766817" lon="8.6273023"><ele>36.5</ele><time>2026-04-21T11:23:03.933Z</time></trkpt><trkpt lat="44.3767786" lon="8.6273088"><ele>37.75</ele><time>2026-04-21T11:23:04.935Z</time></trkpt><trkpt lat="44.3768707" lon="8.6273442"><ele>39.0</ele><time>2026-04-21T11:23:05.937Z</time></trkpt><trkpt lat="44.3769465" lon="8.6274318"><ele>39.0</ele><time>2026-04-21T11:23:06.933Z</time></trkpt><trkpt lat="44.3769926" lon="8.6275795"><ele>39.0</ele><time>2026-04-21T11:23:07.936Z</time></trkpt><trkpt lat="44.3769976" lon="8.6277584"><ele>39.0</ele><time>2026-04-21T11:23:08.939Z</time></trkpt><trkpt lat="44.3769868" lon="8.6279518"><ele>39.0</ele><time>2026-04-21T11:23:09.945Z</time></trkpt><trkpt lat="44.3769868" lon="8.6281377"><ele>39.5</ele><time>2026-04-21T11:23:10.94Z</time></trkpt><trkpt lat="44.3770148" lon="8.6283078"><ele>40.0</ele><time>2026-04-21T11:23:11.936Z</time></trkpt><trkpt lat="44.3770787" lon="8.6284627"><ele>40.5</ele><time>2026-04-21T11:23:12.935Z</time></trkpt><trkpt lat="44.3771892" lon="8.6285874"><ele>41.0</ele><time>2026-04-21T11:23:13.938Z</time></trkpt><trkpt lat="44.3773258" lon="8.6286662"><ele>30.333333333333332</ele><time>2026-04-21T11:23:14.939Z</time></trkpt><trkpt lat="44.3774835" lon="8.6287071"><ele>19.666666666666664</ele><time>2026-04-21T11:23:15.94Z</time></trkpt><trkpt lat="44.3776459" lon="8.6287173"><ele>9.0</ele><time>2026-04-21T11:23:16.936Z</time></trkpt><trkpt lat="44.3778001" lon="8.628717"><ele>9.0</ele><time>2026-04-21T11:23:17.937Z</time></trkpt><trkpt lat="44.377955" lon="8.6287343"><ele>9.0</ele><time>2026-04-21T11:23:18.936Z</time></trkpt><trkpt lat="44.3781083" lon="8.6287814"><ele>9.0</ele><time>2026-04-21T11:23:19.933Z</time></trkpt><trkpt lat="44.3782637" lon="8.6288656"><ele>12.0</ele><time>2026-04-21T11:23:20.936Z</time></trkpt><trkpt lat="44.3784216" lon="8.6289844"><ele>15.0</ele><time>2026-04-21T11:23:21.934Z</time></trkpt><trkpt lat="44.3785811" lon="8.6291289"><ele>18.0</ele><time>2026-04-21T11:23:22.945Z</time></trkpt><trkpt lat="44.3789004" lon="8.6294364"><ele>15.666666666666666</ele><time>2026-04-21T11:23:24.938Z</time></trkpt><trkpt lat="44.3790583" lon="8.6295743"><ele>13.333333333333332</ele><time>2026-04-21T11:23:25.935Z</time></trkpt><trkpt lat="44.3792165" lon="8.629696"><ele>11.0</ele><time>2026-04-21T11:23:26.936Z</time></trkpt><trkpt lat="44.3793725" lon="8.6298032"><ele>11.0</ele><time>2026-04-21T11:23:27.938Z</time></trkpt><trkpt lat="44.3795293" lon="8.6298991"><ele>11.0</ele><time>2026-04-21T11:23:28.936Z</time></trkpt><trkpt lat="44.3796878" lon="8.630004"><ele>11.0</ele><time>2026-04-21T11:23:29.935Z</time></trkpt><trkpt lat="44.3798394" lon="8.6301269"><ele>11.333333333333332</ele><time>2026-04-21T11:23:30.937Z</time></trkpt><trkpt lat="44.3799737" lon="8.6302775"><ele>11.666666666666666</ele><time>2026-04-21T11:23:31.937Z</time></trkpt><trkpt lat="44.3800912" lon="8.630464"><ele>12.0</ele><time>2026-04-21T11:23:32.94Z</time></trkpt><trkpt lat="44.3801967" lon="8.6306721"><ele>12.0</ele><time>2026-04-21T11:23:33.936Z</time></trkpt><trkpt lat="44.3802972" lon="8.6308767"><ele>12.0</ele><time>2026-04-21T11:23:34.932Z</time></trkpt><trkpt lat="44.3803923" lon="8.6310689"><ele>12.0</ele><time>2026-04-21T11:23:35.942Z</time></trkpt><trkpt lat="44.3804765" lon="8.6312577"><ele>10.75</ele><time>2026-04-21T11:23:36.936Z</time></trkpt><trkpt lat="44.3805478" lon="8.6314482"><ele>9.5</ele><time>2026-04-21T11:23:37.938Z</time></trkpt><trkpt lat="44.3806156" lon="8.6316334"><ele>8.25</ele><time>2026-04-21T11:23:38.938Z</time></trkpt><trkpt lat="44.3806986" lon="8.6317965"><ele>7.0</ele><time>2026-04-21T11:23:39.942Z</time></trkpt><trkpt lat="44.3807979" lon="8.6319423"><ele>6.75</ele><time>2026-04-21T11:23:40.933Z</time></trkpt><trkpt lat="44.3809051" lon="8.6320728"><ele>6.5</ele><time>2026-04-21T11:23:41.931Z</time></trkpt><trkpt lat="44.3810127" lon="8.632196"><ele>6.25</ele><time>2026-04-21T11:23:42.939Z</time></trkpt><trkpt lat="44.3811131" lon="8.6323176"><ele>6.0</ele><time>2026-04-21T11:23:43.941Z</time></trkpt><trkpt lat="44.3812507" lon="8.6326084"><ele>6.0</ele><time>2026-04-21T11:23:45.939Z</time></trkpt><trkpt lat="44.3812707" lon="8.6327825"><ele>6.0</ele><time>2026-04-21T11:23:46.934Z</time></trkpt><trkpt lat="44.3812573" lon="8.6329636"><ele>6.0</ele><time>2026-04-21T11:23:47.934Z</time></trkpt><trkpt lat="44.3812283" lon="8.6331532"><ele>6.0</ele><time>2026-04-21T11:23:48.942Z</time></trkpt><trkpt lat="44.3811944" lon="8.6333364"><ele>6.0</ele><time>2026-04-21T11:23:49.939Z</time></trkpt><trkpt lat="44.3811666" lon="8.6335087"><ele>6.0</ele><time>2026-04-21T11:23:50.944Z</time></trkpt><trkpt lat="44.381144" lon="8.6336797"><ele>6.0</ele><time>2026-04-21T11:23:51.938Z</time></trkpt><trkpt lat="44.3811254" lon="8.6338574"><ele>6.0</ele><time>2026-04-21T11:23:52.934Z</time></trkpt><trkpt lat="44.3811109" lon="8.6340422"><ele>5.75</ele><time>2026-04-21T11:23:53.936Z</time></trkpt><trkpt lat="44.381098" lon="8.6342359"><ele>5.5</ele><time>2026-04-21T11:23:54.936Z</time></trkpt><trkpt lat="44.3810844" lon="8.6344312"><ele>5.25</ele><time>2026-04-21T11:23:55.937Z</time></trkpt><trkpt lat="44.3810701" lon="8.6346279"><ele>5.0</ele><time>2026-04-21T11:23:56.939Z</time></trkpt><trkpt lat="44.3810514" lon="8.6348266"><ele>5.0</ele><time>2026-04-21T11:23:57.936Z</time></trkpt><trkpt lat="44.3810327" lon="8.6350262"><ele>5.0</ele><time>2026-04-21T11:23:58.934Z</time></trkpt><trkpt lat="44.3810347" lon="8.6352266"><ele>5.0</ele><time>2026-04-21T11:23:59.939Z</time></trkpt><trkpt lat="44.3810712" lon="8.6354252"><ele>5.0</ele><time>2026-04-21T11:24:00.943Z</time></trkpt><trkpt lat="44.3811444" lon="8.6356113"><ele>4.666666666666667</ele><time>2026-04-21T11:24:01.932Z</time></trkpt><trkpt lat="44.3812608" lon="8.6357781"><ele>4.333333333333333</ele><time>2026-04-21T11:24:02.937Z</time></trkpt><trkpt lat="44.3813897" lon="8.6359127"><ele>4.0</ele><time>2026-04-21T11:24:03.937Z</time></trkpt><trkpt lat="44.381522" lon="8.6360141"><ele>4.0</ele><time>2026-04-21T11:24:04.939Z</time></trkpt><trkpt lat="44.3817892" lon="8.6361693"><ele>4.0</ele><time>2026-04-21T11:24:06.932Z</time></trkpt><trkpt lat="44.3819207" lon="8.6362376"><ele>4.0</ele><time>2026-04-21T11:24:07.937Z</time></trkpt><trkpt lat="44.3820482" lon="8.6363064"><ele>4.0</ele><time>2026-04-21T11:24:08.938Z</time></trkpt><trkpt lat="44.3821728" lon="8.6363779"><ele>4.0</ele><time>2026-04-21T11:24:09.938Z</time></trkpt><trkpt lat="44.3822954" lon="8.6364521"><ele>4.0</ele><time>2026-04-21T11:24:10.933Z</time></trkpt><trkpt lat="44.38242" lon="8.6365278"><ele>4.0</ele><time>2026-04-21T11:24:11.934Z</time></trkpt><trkpt lat="44.3825405" lon="8.6366019"><ele>4.0</ele><time>2026-04-21T11:24:12.942Z</time></trkpt><trkpt lat="44.3826606" lon="8.6366719"><ele>4.0</ele><time>2026-04-21T11:24:13.94Z</time></trkpt><trkpt lat="44.3827817" lon="8.6367381"><ele>4.0</ele><time>2026-04-21T11:24:14.938Z</time></trkpt><trkpt lat="44.3829034" lon="8.6368009"><ele>4.0</ele><time>2026-04-21T11:24:15.938Z</time></trkpt><trkpt lat="44.3830263" lon="8.6368604"><ele>4.0</ele><time>2026-04-21T11:24:16.938Z</time></trkpt><trkpt lat="44.3831438" lon="8.6369241"><ele>4.0</ele><time>2026-04-21T11:24:17.936Z</time></trkpt><trkpt lat="44.3832591" lon="8.636987"><ele>4.0</ele><time>2026-04-21T11:24:18.939Z</time></trkpt><trkpt lat="44.3833784" lon="8.6370447"><ele>4.0</ele><time>2026-04-21T11:24:19.935Z</time></trkpt><trkpt lat="44.383495" lon="8.6371052"><ele>3.25</ele><time>2026-04-21T11:24:20.938Z</time></trkpt><trkpt lat="44.3836092" lon="8.6371672"><ele>2.5</ele><time>2026-04-21T11:24:21.936Z</time></trkpt><trkpt lat="44.3837246" lon="8.6372319"><ele>1.75</ele><time>2026-04-21T11:24:22.939Z</time></trkpt><trkpt lat="44.3838423" lon="8.637293"><ele>1.0</ele><time>2026-04-21T11:24:23.938Z</time></trkpt><trkpt lat="44.3839586" lon="8.6373521"><ele>3.333333333333333</ele><time>2026-04-21T11:24:24.943Z</time></trkpt><trkpt lat="44.38407" lon="8.6374109"><ele>5.666666666666666</ele><time>2026-04-21T11:24:25.936Z</time></trkpt><trkpt lat="44.3842824" lon="8.6375272"><ele>8.0</ele><time>2026-04-21T11:24:27.939Z</time></trkpt><trkpt lat="44.3843891" lon="8.637588"><ele>8.0</ele><time>2026-04-21T11:24:28.942Z</time></trkpt><trkpt lat="44.3844957" lon="8.637651"><ele>8.0</ele><time>2026-04-21T11:24:29.944Z</time></trkpt><trkpt lat="44.3846098" lon="8.6377212"><ele>8.0</ele><time>2026-04-21T11:24:30.935Z</time></trkpt><trkpt lat="44.3847377" lon="8.6377949"><ele>8.0</ele><time>2026-04-21T11:24:31.935Z</time></trkpt><trkpt lat="44.384875" lon="8.6378774"><ele>6.666666666666666</ele><time>2026-04-21T11:24:32.942Z</time></trkpt><trkpt lat="44.3850168" lon="8.6379703"><ele>5.333333333333333</ele><time>2026-04-21T11:24:33.934Z</time></trkpt><trkpt lat="44.3851601" lon="8.6380696"><ele>4.0</ele><time>2026-04-21T11:24:34.942Z</time></trkpt><trkpt lat="44.3852962" lon="8.638168"><ele>4.0</ele><time>2026-04-21T11:24:35.937Z</time></trkpt><trkpt lat="44.385423" lon="8.6382634"><ele>4.0</ele><time>2026-04-21T11:24:36.941Z</time></trkpt><trkpt lat="44.3855413" lon="8.6383514"><ele>4.0</ele><time>2026-04-21T11:24:37.942Z</time></trkpt><trkpt lat="44.3856556" lon="8.6384355"><ele>4.0</ele><time>2026-04-21T11:24:38.932Z</time></trkpt><trkpt lat="44.3857682" lon="8.63852"><ele>4.25</ele><time>2026-04-21T11:24:39.934Z</time></trkpt><trkpt lat="44.3858847" lon="8.6386148"><ele>4.5</ele><time>2026-04-21T11:24:40.939Z</time></trkpt><trkpt lat="44.3860034" lon="8.6387269"><ele>4.75</ele><time>2026-04-21T11:24:41.932Z</time></trkpt><trkpt lat="44.386118" lon="8.6388545"><ele>5.0</ele><time>2026-04-21T11:24:42.939Z</time></trkpt><trkpt lat="44.3862287" lon="8.6389998"><ele>4.75</ele><time>2026-04-21T11:24:43.934Z</time></trkpt><trkpt lat="44.3863304" lon="8.6391508"><ele>4.5</ele><time>2026-04-21T11:24:44.936Z</time></trkpt><trkpt lat="44.3864278" lon="8.6393013"><ele>4.25</ele><time>2026-04-21T11:24:45.935Z</time></trkpt><trkpt lat="44.3865138" lon="8.639455"><ele>4.0</ele><time>2026-04-21T11:24:46.942Z</time></trkpt><trkpt lat="44.3866517" lon="8.6397727"><ele>4.0</ele><time>2026-04-21T11:24:48.942Z</time></trkpt><trkpt lat="44.386716" lon="8.6399291"><ele>4.0</ele><time>2026-04-21T11:24:49.935Z</time></trkpt><trkpt lat="44.3867802" lon="8.6400871"><ele>4.0</ele><time>2026-04-21T11:24:50.936Z</time></trkpt><trkpt lat="44.386842" lon="8.6402448"><ele>4.0</ele><time>2026-04-21T11:24:51.935Z</time></trkpt><trkpt lat="44.3869028" lon="8.6403945"><ele>3.6</ele><time>2026-04-21T11:24:52.948Z</time></trkpt><trkpt lat="44.386959" lon="8.6405337"><ele>3.2</ele><time>2026-04-21T11:24:53.937Z</time></trkpt><trkpt lat="44.3870066" lon="8.6406604"><ele>2.8000000000000003</ele><time>2026-04-21T11:24:54.941Z</time></trkpt><trkpt lat="44.3870439" lon="8.6407726"><ele>2.4000000000000004</ele><time>2026-04-21T11:24:55.944Z</time></trkpt><trkpt lat="44.3870728" lon="8.6408729"><ele>2.0</ele><time>2026-04-21T11:24:56.938Z</time></trkpt><trkpt lat="44.3870983" lon="8.6409663"><ele>2.0</ele><time>2026-04-21T11:24:57.934Z</time></trkpt><trkpt lat="44.3871229" lon="8.6410544"><ele>2.0</ele><time>2026-04-21T11:24:58.935Z</time></trkpt><trkpt lat="44.3871702" lon="8.6412115"><ele>2.0</ele><time>2026-04-21T11:25:00.937Z</time></trkpt><trkpt lat="44.3872141" lon="8.6413416"><ele>2.0</ele><time>2026-04-21T11:25:02.944Z</time></trkpt><trkpt lat="44.3872541" lon="8.6414533"><ele>2.0</ele><time>2026-04-21T11:25:05.939Z</time></trkpt><trkpt lat="44.3872953" lon="8.6415859"><ele>2.75</ele><time>2026-04-21T11:25:08.938Z</time></trkpt><trkpt lat="44.3873704" lon="8.6418181"><ele>3.5</ele><time>2026-04-21T11:25:11.945Z</time></trkpt><trkpt lat="44.3873997" lon="8.6419305"><ele>4.25</ele><time>2026-04-21T11:25:13.942Z</time></trkpt><trkpt lat="44.3874142" lon="8.6420465"><ele>5.0</ele><time>2026-04-21T11:25:20.945Z</time></trkpt><trkpt lat="44.3874528" lon="8.6421724"><ele>5.0</ele><time>2026-04-21T11:25:22.938Z</time></trkpt><trkpt lat="44.3874789" lon="8.6422584"><ele>5.0</ele><time>2026-04-21T11:25:23.941Z</time></trkpt><trkpt lat="44.3875131" lon="8.6423541"><ele>5.0</ele><time>2026-04-21T11:25:24.944Z</time></trkpt><trkpt lat="44.3875412" lon="8.6424528"><ele>5.0</ele><time>2026-04-21T11:25:25.934Z</time></trkpt><trkpt lat="44.3875706" lon="8.6425533"><ele>5.0</ele><time>2026-04-21T11:25:26.935Z</time></trkpt><trkpt lat="44.3876056" lon="8.6426609"><ele>5.0</ele><time>2026-04-21T11:25:27.943Z</time></trkpt><trkpt lat="44.3876425" lon="8.6427782"><ele>4.5</ele><time>2026-04-21T11:25:28.941Z</time></trkpt><trkpt lat="44.3876914" lon="8.6429058"><ele>4.0</ele><time>2026-04-21T11:25:29.943Z</time></trkpt><trkpt lat="44.3878" lon="8.6431745"><ele>3.5</ele><time>2026-04-21T11:25:31.943Z</time></trkpt><trkpt lat="44.3878584" lon="8.6433096"><ele>3.0</ele><time>2026-04-21T11:25:32.942Z</time></trkpt><trkpt lat="44.3879179" lon="8.6434429"><ele>3.0</ele><time>2026-04-21T11:25:33.94Z</time></trkpt><trkpt lat="44.3879813" lon="8.6435704"><ele>3.0</ele><time>2026-04-21T11:25:34.935Z</time></trkpt><trkpt lat="44.3880511" lon="8.6436886"><ele>3.0</ele><time>2026-04-21T11:25:35.936Z</time></trkpt><trkpt lat="44.3881286" lon="8.6437982"><ele>3.0</ele><time>2026-04-21T11:25:36.941Z</time></trkpt><trkpt lat="44.3882156" lon="8.6439002"><ele>3.0</ele><time>2026-04-21T11:25:37.933Z</time></trkpt><trkpt lat="44.3883012" lon="8.6439984"><ele>3.5999999999999996</ele><time>2026-04-21T11:25:38.94Z</time></trkpt><trkpt lat="44.3883843" lon="8.6440999"><ele>4.199999999999999</ele><time>2026-04-21T11:25:39.933Z</time></trkpt><trkpt lat="44.388461" lon="8.6442084"><ele>4.8</ele><time>2026-04-21T11:25:40.939Z</time></trkpt><trkpt lat="44.3885294" lon="8.6443219"><ele>5.3999999999999995</ele><time>2026-04-21T11:25:41.942Z</time></trkpt><trkpt lat="44.3885884" lon="8.6444374"><ele>6.0</ele><time>2026-04-21T11:25:42.946Z</time></trkpt><trkpt lat="44.3886432" lon="8.6445531"><ele>6.0</ele><time>2026-04-21T11:25:43.934Z</time></trkpt><trkpt lat="44.3886961" lon="8.6446687"><ele>6.0</ele><time>2026-04-21T11:25:44.931Z</time></trkpt><trkpt lat="44.3887436" lon="8.6447833"><ele>6.0</ele><time>2026-04-21T11:25:45.939Z</time></trkpt><trkpt lat="44.3887912" lon="8.6449009"><ele>6.0</ele><time>2026-04-21T11:25:46.937Z</time></trkpt><trkpt lat="44.3888393" lon="8.6450266"><ele>6.0</ele><time>2026-04-21T11:25:47.936Z</time></trkpt><trkpt lat="44.3888914" lon="8.6451619"><ele>6.333333333333334</ele><time>2026-04-21T11:25:48.941Z</time></trkpt><trkpt lat="44.3889486" lon="8.6453044"><ele>6.666666666666667</ele><time>2026-04-21T11:25:49.939Z</time></trkpt><trkpt lat="44.389006" lon="8.6454545"><ele>7.0</ele><time>2026-04-21T11:25:50.94Z</time></trkpt><trkpt lat="44.3891062" lon="8.6457681"><ele>7.0</ele><time>2026-04-21T11:25:52.937Z</time></trkpt><trkpt lat="44.3891496" lon="8.6459154"><ele>6.999999999999999</ele><time>2026-04-21T11:25:53.937Z</time></trkpt><trkpt lat="44.3891906" lon="8.6460567"><ele>6.999999999999999</ele><time>2026-04-21T11:25:54.933Z</time></trkpt><trkpt lat="44.3892292" lon="8.6461958"><ele>7.0</ele><time>2026-04-21T11:25:55.937Z</time></trkpt><trkpt lat="44.3892674" lon="8.6463325"><ele>7.0</ele><time>2026-04-21T11:25:56.942Z</time></trkpt><trkpt lat="44.3893047" lon="8.6464687"><ele>6.5</ele><time>2026-04-21T11:25:57.945Z</time></trkpt><trkpt lat="44.3893431" lon="8.6466087"><ele>6.0</ele><time>2026-04-21T11:25:58.935Z</time></trkpt><trkpt lat="44.3893811" lon="8.6467522"><ele>5.5</ele><time>2026-04-21T11:25:59.933Z</time></trkpt><trkpt lat="44.389419" lon="8.6469043"><ele>5.0</ele><time>2026-04-21T11:26:00.943Z</time></trkpt><trkpt lat="44.3894585" lon="8.6470621"><ele>4.75</ele><time>2026-04-21T11:26:01.938Z</time></trkpt><trkpt lat="44.3894965" lon="8.6472206"><ele>4.5</ele><time>2026-04-21T11:26:02.943Z</time></trkpt><trkpt lat="44.3895371" lon="8.6473747"><ele>4.25</ele><time>2026-04-21T11:26:03.94Z</time></trkpt><trkpt lat="44.3895782" lon="8.6475273"><ele>4.0</ele><time>2026-04-21T11:26:04.944Z</time></trkpt><trkpt lat="44.389619" lon="8.6476743"><ele>3.6</ele><time>2026-04-21T11:26:05.939Z</time></trkpt><trkpt lat="44.3896582" lon="8.6478113"><ele>3.2</ele><time>2026-04-21T11:26:06.934Z</time></trkpt><trkpt lat="44.3896953" lon="8.647938"><ele>2.8000000000000003</ele><time>2026-04-21T11:26:07.937Z</time></trkpt><trkpt lat="44.3897306" lon="8.6480661"><ele>2.4000000000000004</ele><time>2026-04-21T11:26:08.943Z</time></trkpt><trkpt lat="44.3897656" lon="8.6482071"><ele>2.0</ele><time>2026-04-21T11:26:09.94Z</time></trkpt><trkpt lat="44.3897998" lon="8.6483637"><ele>4.0</ele><time>2026-04-21T11:26:10.932Z</time></trkpt><trkpt lat="44.3898353" lon="8.6485355"><ele>6.0</ele><time>2026-04-21T11:26:11.936Z</time></trkpt><trkpt lat="44.3899187" lon="8.6489014"><ele>8.0</ele><time>2026-04-21T11:26:13.935Z</time></trkpt><trkpt lat="44.3899581" lon="8.649092"><ele>8.0</ele><time>2026-04-21T11:26:14.933Z</time></trkpt><trkpt lat="44.3899913" lon="8.6492794"><ele>8.0</ele><time>2026-04-21T11:26:15.936Z</time></trkpt><trkpt lat="44.3900206" lon="8.6494634"><ele>8.0</ele><time>2026-04-21T11:26:16.937Z</time></trkpt><trkpt lat="44.3900496" lon="8.6496429"><ele>8.0</ele><time>2026-04-21T11:26:17.937Z</time></trkpt><trkpt lat="44.3900773" lon="8.6498192"><ele>7.5</ele><time>2026-04-21T11:26:18.933Z</time></trkpt><trkpt lat="44.3901006" lon="8.6499981"><ele>7.0</ele><time>2026-04-21T11:26:19.937Z</time></trkpt><trkpt lat="44.3901237" lon="8.6501771"><ele>6.5</ele><time>2026-04-21T11:26:20.933Z</time></trkpt><trkpt lat="44.3901488" lon="8.650355"><ele>6.0</ele><time>2026-04-21T11:26:21.936Z</time></trkpt><trkpt lat="44.3901763" lon="8.650538"><ele>6.0</ele><time>2026-04-21T11:26:22.938Z</time></trkpt><trkpt lat="44.3902041" lon="8.6507262"><ele>6.0</ele><time>2026-04-21T11:26:23.932Z</time></trkpt><trkpt lat="44.3902315" lon="8.6509194"><ele>6.0</ele><time>2026-04-21T11:26:24.939Z</time></trkpt><trkpt lat="44.3902611" lon="8.6511153"><ele>6.0</ele><time>2026-04-21T11:26:25.938Z</time></trkpt><trkpt lat="44.3902919" lon="8.6513152"><ele>4.666666666666667</ele><time>2026-04-21T11:26:26.933Z</time></trkpt><trkpt lat="44.3903231" lon="8.6515183"><ele>3.333333333333333</ele><time>2026-04-21T11:26:27.938Z</time></trkpt><trkpt lat="44.3903538" lon="8.6517238"><ele>2.0</ele><time>2026-04-21T11:26:28.944Z</time></trkpt><trkpt lat="44.3903853" lon="8.6519323"><ele>2.6666666666666665</ele><time>2026-04-21T11:26:29.935Z</time></trkpt><trkpt lat="44.3904169" lon="8.6521435"><ele>3.333333333333333</ele><time>2026-04-21T11:26:30.94Z</time></trkpt><trkpt lat="44.3904468" lon="8.652349"><ele>4.0</ele><time>2026-04-21T11:26:31.936Z</time></trkpt><trkpt lat="44.3904753" lon="8.6525497"><ele>6.666666666666666</ele><time>2026-04-21T11:26:32.938Z</time></trkpt><trkpt lat="44.3905283" lon="8.6529455"><ele>9.333333333333334</ele><time>2026-04-21T11:26:34.941Z</time></trkpt><trkpt lat="44.390552" lon="8.6531392"><ele>12.0</ele><time>2026-04-21T11:26:35.94Z</time></trkpt><trkpt lat="44.3905729" lon="8.6533316"><ele>12.0</ele><time>2026-04-21T11:26:36.937Z</time></trkpt><trkpt lat="44.3905924" lon="8.6535256"><ele>12.0</ele><time>2026-04-21T11:26:37.935Z</time></trkpt><trkpt lat="44.3906124" lon="8.6537174"><ele>12.0</ele><time>2026-04-21T11:26:38.94Z</time></trkpt><trkpt lat="44.390631" lon="8.6539081"><ele>12.0</ele><time>2026-04-21T11:26:39.943Z</time></trkpt><trkpt lat="44.3906481" lon="8.6540996"><ele>12.0</ele><time>2026-04-21T11:26:40.935Z</time></trkpt><trkpt lat="44.3906602" lon="8.6542929"><ele>12.0</ele><time>2026-04-21T11:26:41.931Z</time></trkpt><trkpt lat="44.3906733" lon="8.6544873"><ele>12.0</ele><time>2026-04-21T11:26:42.941Z</time></trkpt><trkpt lat="44.3906871" lon="8.6546821"><ele>12.0</ele><time>2026-04-21T11:26:43.943Z</time></trkpt><trkpt lat="44.3907018" lon="8.6548768"><ele>12.0</ele><time>2026-04-21T11:26:44.936Z</time></trkpt><trkpt lat="44.3907143" lon="8.655071"><ele>12.0</ele><time>2026-04-21T11:26:45.94Z</time></trkpt><trkpt lat="44.3907253" lon="8.6552707"><ele>12.0</ele><time>2026-04-21T11:26:46.933Z</time></trkpt><trkpt lat="44.3907323" lon="8.655471"><ele>12.0</ele><time>2026-04-21T11:26:47.938Z</time></trkpt><trkpt lat="44.3907391" lon="8.6556727"><ele>12.0</ele><time>2026-04-21T11:26:48.941Z</time></trkpt><trkpt lat="44.3907456" lon="8.655878"><ele>12.0</ele><time>2026-04-21T11:26:49.935Z</time></trkpt><trkpt lat="44.3907512" lon="8.6560868"><ele>12.0</ele><time>2026-04-21T11:26:50.944Z</time></trkpt><trkpt lat="44.3907586" lon="8.6562963"><ele>12.0</ele><time>2026-04-21T11:26:51.935Z</time></trkpt><trkpt lat="44.390766" lon="8.6565062"><ele>11.333333333333334</ele><time>2026-04-21T11:26:52.943Z</time></trkpt><trkpt lat="44.3907715" lon="8.6567146"><ele>10.666666666666668</ele><time>2026-04-21T11:26:53.938Z</time></trkpt><trkpt lat="44.3907837" lon="8.6571262"><ele>10.0</ele><time>2026-04-21T11:26:55.941Z</time></trkpt><trkpt lat="44.3907883" lon="8.6573323"><ele>9.25</ele><time>2026-04-21T11:26:56.941Z</time></trkpt><trkpt lat="44.3907945" lon="8.6575376"><ele>8.5</ele><time>2026-04-21T11:26:57.938Z</time></trkpt><trkpt lat="44.390802" lon="8.6577464"><ele>7.75</ele><time>2026-04-21T11:26:58.933Z</time></trkpt><trkpt lat="44.3908096" lon="8.6579562"><ele>7.0</ele><time>2026-04-21T11:26:59.937Z</time></trkpt><trkpt lat="44.3908199" lon="8.6581659"><ele>6.75</ele><time>2026-04-21T11:27:00.944Z</time></trkpt><trkpt lat="44.3908281" lon="8.6583719"><ele>6.5</ele><time>2026-04-21T11:27:01.939Z</time></trkpt><trkpt lat="44.3908345" lon="8.6585714"><ele>6.25</ele><time>2026-04-21T11:27:02.937Z</time></trkpt><trkpt lat="44.3908408" lon="8.6587699"><ele>6.0</ele><time>2026-04-21T11:27:03.938Z</time></trkpt><trkpt lat="44.3908492" lon="8.6589708"><ele>6.0</ele><time>2026-04-21T11:27:04.944Z</time></trkpt><trkpt lat="44.3908542" lon="8.6591746"><ele>6.0</ele><time>2026-04-21T11:27:05.942Z</time></trkpt><trkpt lat="44.3908574" lon="8.659377"><ele>6.0</ele><time>2026-04-21T11:27:06.939Z</time></trkpt><trkpt lat="44.3908591" lon="8.6595738"><ele>6.0</ele><time>2026-04-21T11:27:07.941Z</time></trkpt><trkpt lat="44.3908612" lon="8.6597599"><ele>6.5</ele><time>2026-04-21T11:27:08.955Z</time></trkpt><trkpt lat="44.3908669" lon="8.65994"><ele>7.0</ele><time>2026-04-21T11:27:09.94Z</time></trkpt><trkpt lat="44.3908746" lon="8.6601242"><ele>7.5</ele><time>2026-04-21T11:27:10.943Z</time></trkpt><trkpt lat="44.3908823" lon="8.660309"><ele>8.0</ele><time>2026-04-21T11:27:11.936Z</time></trkpt><trkpt lat="44.3908875" lon="8.6604864"><ele>8.0</ele><time>2026-04-21T11:27:12.955Z</time></trkpt><trkpt lat="44.3908915" lon="8.6606567"><ele>8.0</ele><time>2026-04-21T11:27:13.94Z</time></trkpt><trkpt lat="44.3908962" lon="8.6608208"><ele>8.0</ele><time>2026-04-21T11:27:14.946Z</time></trkpt><trkpt lat="44.3909113" lon="8.6611779"><ele>8.333333333333332</ele><time>2026-04-21T11:27:16.953Z</time></trkpt><trkpt lat="44.3909263" lon="8.6613906"><ele>8.666666666666666</ele><time>2026-04-21T11:27:17.943Z</time></trkpt><trkpt lat="44.3909391" lon="8.6616255"><ele>9.0</ele><time>2026-04-21T11:27:18.952Z</time></trkpt><trkpt lat="44.390944" lon="8.6618743"><ele>9.333333333333334</ele><time>2026-04-21T11:27:19.95Z</time></trkpt><trkpt lat="44.3909403" lon="8.6621244"><ele>9.666666666666668</ele><time>2026-04-21T11:27:20.952Z</time></trkpt><trkpt lat="44.3909394" lon="8.6623687"><ele>10.0</ele><time>2026-04-21T11:27:21.945Z</time></trkpt><trkpt lat="44.3909403" lon="8.6626089"><ele>9.333333333333334</ele><time>2026-04-21T11:27:22.943Z</time></trkpt><trkpt lat="44.390944" lon="8.6628453"><ele>8.666666666666666</ele><time>2026-04-21T11:27:23.955Z</time></trkpt><trkpt lat="44.3909498" lon="8.6630746"><ele>8.0</ele><time>2026-04-21T11:27:24.942Z</time></trkpt><trkpt lat="44.3909559" lon="8.6632905"><ele>8.0</ele><time>2026-04-21T11:27:25.939Z</time></trkpt><trkpt lat="44.3909604" lon="8.6634851"><ele>8.0</ele><time>2026-04-21T11:27:26.943Z</time></trkpt><trkpt lat="44.3909652" lon="8.6636636"><ele>8.0</ele><time>2026-04-21T11:27:27.955Z</time></trkpt><trkpt lat="44.3909708" lon="8.6638354"><ele>8.0</ele><time>2026-04-21T11:27:28.944Z</time></trkpt><trkpt lat="44.3909808" lon="8.6640075"><ele>7.25</ele><time>2026-04-21T11:27:29.951Z</time></trkpt><trkpt lat="44.3909856" lon="8.6641832"><ele>6.5</ele><time>2026-04-21T11:27:30.946Z</time></trkpt><trkpt lat="44.3909907" lon="8.6643604"><ele>5.75</ele><time>2026-04-21T11:27:31.941Z</time></trkpt><trkpt lat="44.3909998" lon="8.6645333"><ele>5.0</ele><time>2026-04-21T11:27:32.954Z</time></trkpt><trkpt lat="44.3910123" lon="8.6647047"><ele>4.666666666666667</ele><time>2026-04-21T11:27:33.949Z</time></trkpt><trkpt lat="44.3910329" lon="8.6648706"><ele>4.333333333333333</ele><time>2026-04-21T11:27:34.948Z</time></trkpt><trkpt lat="44.3910672" lon="8.6650292"><ele>4.0</ele><time>2026-04-21T11:27:35.95Z</time></trkpt><trkpt lat="44.3911888" lon="8.6653039"><ele>4.75</ele><time>2026-04-21T11:27:37.939Z</time></trkpt><trkpt lat="44.391269" lon="8.6654217"><ele>5.5</ele><time>2026-04-21T11:27:38.939Z</time></trkpt><trkpt lat="44.3913604" lon="8.6655194"><ele>6.25</ele><time>2026-04-21T11:27:39.95Z</time></trkpt><trkpt lat="44.391464" lon="8.6656031"><ele>7.0</ele><time>2026-04-21T11:27:40.949Z</time></trkpt><trkpt lat="44.3915763" lon="8.6656725"><ele>8.5</ele><time>2026-04-21T11:27:41.947Z</time></trkpt><trkpt lat="44.3916995" lon="8.6657186"><ele>10.0</ele><time>2026-04-21T11:27:42.944Z</time></trkpt><trkpt lat="44.3918323" lon="8.6657313"><ele>11.5</ele><time>2026-04-21T11:27:43.942Z</time></trkpt><trkpt lat="44.3919682" lon="8.665702"><ele>13.0</ele><time>2026-04-21T11:27:44.944Z</time></trkpt><trkpt lat="44.3921097" lon="8.6656287"><ele>14.0</ele><time>2026-04-21T11:27:45.959Z</time></trkpt><trkpt lat="44.3922526" lon="8.6654904"><ele>15.0</ele><time>2026-04-21T11:27:46.94Z</time></trkpt><trkpt lat="44.392388" lon="8.6653367"><ele>16.0</ele><time>2026-04-21T11:27:47.943Z</time></trkpt><trkpt lat="44.3925304" lon="8.6651803"><ele>16.0</ele><time>2026-04-21T11:27:48.95Z</time></trkpt><trkpt lat="44.3926905" lon="8.6650603"><ele>16.0</ele><time>2026-04-21T11:27:49.943Z</time></trkpt><trkpt lat="44.3928704" lon="8.664999"><ele>16.0</ele><time>2026-04-21T11:27:50.944Z</time></trkpt><trkpt lat="44.3930514" lon="8.6649899"><ele>19.333333333333332</ele><time>2026-04-21T11:27:51.942Z</time></trkpt><trkpt lat="44.3932202" lon="8.66501"><ele>22.666666666666664</ele><time>2026-04-21T11:27:52.95Z</time></trkpt><trkpt lat="44.3933806" lon="8.6650449"><ele>26.0</ele><time>2026-04-21T11:27:53.938Z</time></trkpt><trkpt lat="44.393538" lon="8.6650748"><ele>26.0</ele><time>2026-04-21T11:27:54.938Z</time></trkpt><trkpt lat="44.3936843" lon="8.6650911"><ele>26.0</ele><time>2026-04-21T11:27:55.937Z</time></trkpt><trkpt lat="44.393835" lon="8.6650978"><ele>26.0</ele><time>2026-04-21T11:27:56.94Z</time></trkpt><trkpt lat="44.394143" lon="8.6650956"><ele>29.666666666666664</ele><time>2026-04-21T11:27:58.943Z</time></trkpt><trkpt lat="44.3943005" lon="8.6650953"><ele>33.333333333333336</ele><time>2026-04-21T11:27:59.941Z</time></trkpt><trkpt lat="44.3944556" lon="8.6650767"><ele>37.0</ele><time>2026-04-21T11:28:00.941Z</time></trkpt><trkpt lat="44.394618" lon="8.6650451"><ele>39.66666666666667</ele><time>2026-04-21T11:28:01.942Z</time></trkpt><trkpt lat="44.3947878" lon="8.6650049"><ele>42.333333333333336</ele><time>2026-04-21T11:28:02.952Z</time></trkpt><trkpt lat="44.3949624" lon="8.6649561"><ele>45.0</ele><time>2026-04-21T11:28:03.938Z</time></trkpt><trkpt lat="44.3951396" lon="8.664897"><ele>45.0</ele><time>2026-04-21T11:28:04.933Z</time></trkpt><trkpt lat="44.3953185" lon="8.6648357"><ele>45.0</ele><time>2026-04-21T11:28:05.942Z</time></trkpt><trkpt lat="44.3954978" lon="8.6647765"><ele>45.0</ele><time>2026-04-21T11:28:06.939Z</time></trkpt><trkpt lat="44.3956573" lon="8.6647074"><ele>50.33333333333333</ele><time>2026-04-21T11:28:07.942Z</time></trkpt><trkpt lat="44.3958333" lon="8.6646563"><ele>55.666666666666664</ele><time>2026-04-21T11:28:08.948Z</time></trkpt><trkpt lat="44.3960083" lon="8.664605"><ele>61.0</ele><time>2026-04-21T11:28:09.932Z</time></trkpt><trkpt lat="44.3961809" lon="8.6645528"><ele>60.0</ele><time>2026-04-21T11:28:10.936Z</time></trkpt><trkpt lat="44.3963482" lon="8.6645009"><ele>59.0</ele><time>2026-04-21T11:28:11.938Z</time></trkpt><trkpt lat="44.3965001" lon="8.664447"><ele>58.0</ele><time>2026-04-21T11:28:12.952Z</time></trkpt><trkpt lat="44.3966509" lon="8.6644109"><ele>58.0</ele><time>2026-04-21T11:28:13.948Z</time></trkpt><trkpt lat="44.3967878" lon="8.6643713"><ele>58.0</ele><time>2026-04-21T11:28:14.936Z</time></trkpt><trkpt lat="44.3968777" lon="8.6642908"><ele>58.0</ele><time>2026-04-21T11:28:15.933Z</time></trkpt><trkpt lat="44.3969222" lon="8.6641739"><ele>58.0</ele><time>2026-04-21T11:28:16.935Z</time></trkpt><trkpt lat="44.3969302" lon="8.6640332"><ele>58.0</ele><time>2026-04-21T11:28:17.934Z</time></trkpt><trkpt lat="44.3969289" lon="8.6637512"><ele>58.0</ele><time>2026-04-21T11:28:19.935Z</time></trkpt><trkpt lat="44.3969405" lon="8.6636142"><ele>58.0</ele><time>2026-04-21T11:28:20.931Z</time></trkpt><trkpt lat="44.3969705" lon="8.6634885"><ele>58.0</ele><time>2026-04-21T11:28:21.941Z</time></trkpt><trkpt lat="44.3970238" lon="8.6633825"><ele>58.0</ele><time>2026-04-21T11:28:22.932Z</time></trkpt><trkpt lat="44.3971026" lon="8.6633194"><ele>58.0</ele><time>2026-04-21T11:28:23.933Z</time></trkpt><trkpt lat="44.3971915" lon="8.663307"><ele>59.0</ele><time>2026-04-21T11:28:24.935Z</time></trkpt><trkpt lat="44.3972805" lon="8.6633314"><ele>60.0</ele><time>2026-04-21T11:28:25.935Z</time></trkpt><trkpt lat="44.3973745" lon="8.6633696"><ele>61.0</ele><time>2026-04-21T11:28:26.935Z</time></trkpt><trkpt lat="44.3974699" lon="8.6634118"><ele>62.0</ele><time>2026-04-21T11:28:27.938Z</time></trkpt><trkpt lat="44.3975564" lon="8.6634544"><ele>63.0</ele><time>2026-04-21T11:28:28.934Z</time></trkpt><trkpt lat="44.3976416" lon="8.6634916"><ele>63.0</ele><time>2026-04-21T11:28:29.937Z</time></trkpt><trkpt lat="44.3977346" lon="8.6635089"><ele>63.0</ele><time>2026-04-21T11:28:30.938Z</time></trkpt><trkpt lat="44.3978289" lon="8.6634897"><ele>63.0</ele><time>2026-04-21T11:28:31.935Z</time></trkpt><trkpt lat="44.3979322" lon="8.6634436"><ele>63.0</ele><time>2026-04-21T11:28:32.934Z</time></trkpt><trkpt lat="44.398032" lon="8.6633688"><ele>63.0</ele><time>2026-04-21T11:28:33.942Z</time></trkpt><trkpt lat="44.3981329" lon="8.6632994"><ele>65.0</ele><time>2026-04-21T11:28:34.934Z</time></trkpt><trkpt lat="44.3982387" lon="8.6632576"><ele>67.0</ele><time>2026-04-21T11:28:35.933Z</time></trkpt><trkpt lat="44.3983393" lon="8.6632526"><ele>69.0</ele><time>2026-04-21T11:28:36.935Z</time></trkpt><trkpt lat="44.3984349" lon="8.663275"><ele>71.0</ele><time>2026-04-21T11:28:37.936Z</time></trkpt><trkpt lat="44.3985273" lon="8.6633118"><ele>73.0</ele><time>2026-04-21T11:28:38.934Z</time></trkpt><trkpt lat="44.3987027" lon="8.6634165"><ele>73.0</ele><time>2026-04-21T11:28:40.943Z</time></trkpt><trkpt lat="44.3987715" lon="8.6635001"><ele>73.0</ele><time>2026-04-21T11:28:41.937Z</time></trkpt><trkpt lat="44.3988245" lon="8.6636154"><ele>73.0</ele><time>2026-04-21T11:28:42.934Z</time></trkpt><trkpt lat="44.3988727" lon="8.6637379"><ele>73.0</ele><time>2026-04-21T11:28:43.938Z</time></trkpt><trkpt lat="44.3989165" lon="8.6638657"><ele>73.0</ele><time>2026-04-21T11:28:44.944Z</time></trkpt><trkpt lat="44.3989595" lon="8.6640061"><ele>73.4</ele><time>2026-04-21T11:28:45.948Z</time></trkpt><trkpt lat="44.3990047" lon="8.6641425"><ele>73.8</ele><time>2026-04-21T11:28:46.944Z</time></trkpt><trkpt lat="44.3990487" lon="8.6642778"><ele>74.2</ele><time>2026-04-21T11:28:47.94Z</time></trkpt><trkpt lat="44.3990941" lon="8.6644124"><ele>74.6</ele><time>2026-04-21T11:28:48.94Z</time></trkpt><trkpt lat="44.3991439" lon="8.6645464"><ele>75.0</ele><time>2026-04-21T11:28:49.936Z</time></trkpt><trkpt lat="44.3992006" lon="8.6646809"><ele>75.0</ele><time>2026-04-21T11:28:50.935Z</time></trkpt><trkpt lat="44.3992602" lon="8.6648221"><ele>75.0</ele><time>2026-04-21T11:28:51.944Z</time></trkpt><trkpt lat="44.3993203" lon="8.6649672"><ele>75.0</ele><time>2026-04-21T11:28:52.945Z</time></trkpt><trkpt lat="44.3993793" lon="8.6651145"><ele>75.0</ele><time>2026-04-21T11:28:53.932Z</time></trkpt><trkpt lat="44.3994341" lon="8.6652581"><ele>74.4</ele><time>2026-04-21T11:28:54.944Z</time></trkpt><trkpt lat="44.3994855" lon="8.6654025"><ele>73.8</ele><time>2026-04-21T11:28:55.946Z</time></trkpt><trkpt lat="44.3995359" lon="8.6655415"><ele>73.2</ele><time>2026-04-21T11:28:56.94Z</time></trkpt><trkpt lat="44.3995818" lon="8.6656747"><ele>72.6</ele><time>2026-04-21T11:28:57.935Z</time></trkpt><trkpt lat="44.3996287" lon="8.665801"><ele>72.0</ele><time>2026-04-21T11:28:58.935Z</time></trkpt><trkpt lat="44.399675" lon="8.665923"><ele>70.5</ele><time>2026-04-21T11:28:59.944Z</time></trkpt><trkpt lat="44.3997698" lon="8.6661736"><ele>69.0</ele><time>2026-04-21T11:29:01.933Z</time></trkpt><trkpt lat="44.3998274" lon="8.6663056"><ele>67.5</ele><time>2026-04-21T11:29:02.942Z</time></trkpt><trkpt lat="44.399885" lon="8.6664393"><ele>66.0</ele><time>2026-04-21T11:29:03.936Z</time></trkpt><trkpt lat="44.3999428" lon="8.6665769"><ele>66.0</ele><time>2026-04-21T11:29:04.941Z</time></trkpt><trkpt lat="44.399999" lon="8.6667197"><ele>66.0</ele><time>2026-04-21T11:29:05.94Z</time></trkpt><trkpt lat="44.4000585" lon="8.6668635"><ele>66.0</ele><time>2026-04-21T11:29:06.934Z</time></trkpt><trkpt lat="44.4001203" lon="8.6670101"><ele>66.0</ele><time>2026-04-21T11:29:07.941Z</time></trkpt><trkpt lat="44.4001834" lon="8.6671674"><ele>67.75</ele><time>2026-04-21T11:29:08.934Z</time></trkpt><trkpt lat="44.400243" lon="8.6673471"><ele>69.5</ele><time>2026-04-21T11:29:09.945Z</time></trkpt><trkpt lat="44.4002884" lon="8.6675444"><ele>71.25</ele><time>2026-04-21T11:29:10.93Z</time></trkpt><trkpt lat="44.4003152" lon="8.6677599"><ele>73.0</ele><time>2026-04-21T11:29:11.943Z</time></trkpt><trkpt lat="44.4003253" lon="8.667981"><ele>73.0</ele><time>2026-04-21T11:29:12.942Z</time></trkpt><trkpt lat="44.4003254" lon="8.6682004"><ele>73.0</ele><time>2026-04-21T11:29:13.937Z</time></trkpt><trkpt lat="44.4003142" lon="8.6684066"><ele>73.0</ele><time>2026-04-21T11:29:14.933Z</time></trkpt><trkpt lat="44.4003056" lon="8.6685861"><ele>73.0</ele><time>2026-04-21T11:29:15.936Z</time></trkpt><trkpt lat="44.4003072" lon="8.6687303"><ele>71.2</ele><time>2026-04-21T11:29:16.936Z</time></trkpt><trkpt lat="44.400316" lon="8.6688306"><ele>69.4</ele><time>2026-04-21T11:29:17.932Z</time></trkpt><trkpt lat="44.4003238" lon="8.6689325"><ele>67.60000000000001</ele><time>2026-04-21T11:29:19.937Z</time></trkpt><trkpt lat="44.4003111" lon="8.6690258"><ele>65.8</ele><time>2026-04-21T11:29:21.936Z</time></trkpt><trkpt lat="44.4002914" lon="8.6692864"><ele>64.0</ele><time>2026-04-21T11:29:23.932Z</time></trkpt><trkpt lat="44.4002996" lon="8.6694777"><ele>61.25</ele><time>2026-04-21T11:29:24.939Z</time></trkpt><trkpt lat="44.4003126" lon="8.6696821"><ele>58.5</ele><time>2026-04-21T11:29:25.938Z</time></trkpt><trkpt lat="44.4003364" lon="8.6698733"><ele>55.75</ele><time>2026-04-21T11:29:26.938Z</time></trkpt><trkpt lat="44.4003804" lon="8.6700595"><ele>53.0</ele><time>2026-04-21T11:29:27.931Z</time></trkpt><trkpt lat="44.400438" lon="8.6702308"><ele>53.5</ele><time>2026-04-21T11:29:28.933Z</time></trkpt><trkpt lat="44.4004915" lon="8.6703799"><ele>54.0</ele><time>2026-04-21T11:29:29.942Z</time></trkpt><trkpt lat="44.4005483" lon="8.6705158"><ele>54.5</ele><time>2026-04-21T11:29:30.934Z</time></trkpt><trkpt lat="44.4005994" lon="8.6706488"><ele>55.0</ele><time>2026-04-21T11:29:31.934Z</time></trkpt><trkpt lat="44.4006495" lon="8.6707953"><ele>53.25</ele><time>2026-04-21T11:29:32.942Z</time></trkpt><trkpt lat="44.4006952" lon="8.6709598"><ele>51.5</ele><time>2026-04-21T11:29:33.937Z</time></trkpt><trkpt lat="44.4007281" lon="8.6711369"><ele>49.75</ele><time>2026-04-21T11:29:34.937Z</time></trkpt><trkpt lat="44.4007486" lon="8.6713158"><ele>48.0</ele><time>2026-04-21T11:29:35.931Z</time></trkpt><trkpt lat="44.4007579" lon="8.6714983"><ele>48.0</ele><time>2026-04-21T11:29:36.932Z</time></trkpt><trkpt lat="44.4007671" lon="8.6716751"><ele>48.0</ele><time>2026-04-21T11:29:37.94Z</time></trkpt><trkpt lat="44.4007936" lon="8.6718478"><ele>48.0</ele><time>2026-04-21T11:29:38.939Z</time></trkpt><trkpt lat="44.400845" lon="8.6720131"><ele>48.0</ele><time>2026-04-21T11:29:39.937Z</time></trkpt><trkpt lat="44.4009191" lon="8.6721714"><ele>49.66666666666667</ele><time>2026-04-21T11:29:40.942Z</time></trkpt><trkpt lat="44.4010029" lon="8.6723226"><ele>51.333333333333336</ele><time>2026-04-21T11:29:41.933Z</time></trkpt><trkpt lat="44.4010953" lon="8.6724551"><ele>53.0</ele><time>2026-04-21T11:29:42.936Z</time></trkpt><trkpt lat="44.4012835" lon="8.6726787"><ele>49.75</ele><time>2026-04-21T11:29:44.936Z</time></trkpt><trkpt lat="44.4013504" lon="8.6728175"><ele>46.5</ele><time>2026-04-21T11:29:45.934Z</time></trkpt><trkpt lat="44.4013928" lon="8.6729798"><ele>43.25</ele><time>2026-04-21T11:29:46.936Z</time></trkpt><trkpt lat="44.4014092" lon="8.6731529"><ele>40.0</ele><time>2026-04-21T11:29:47.938Z</time></trkpt><trkpt lat="44.401414" lon="8.6733272"><ele>40.0</ele><time>2026-04-21T11:29:48.934Z</time></trkpt><trkpt lat="44.4014245" lon="8.6735013"><ele>40.0</ele><time>2026-04-21T11:29:49.939Z</time></trkpt><trkpt lat="44.4014403" lon="8.6736731"><ele>40.0</ele><time>2026-04-21T11:29:50.936Z</time></trkpt><trkpt lat="44.4014567" lon="8.6738375"><ele>40.0</ele><time>2026-04-21T11:29:51.933Z</time></trkpt><trkpt lat="44.4014803" lon="8.6739866"><ele>40.0</ele><time>2026-04-21T11:29:52.938Z</time></trkpt><trkpt lat="44.4015158" lon="8.6741267"><ele>40.0</ele><time>2026-04-21T11:29:53.933Z</time></trkpt><trkpt lat="44.4015629" lon="8.6742399"><ele>40.0</ele><time>2026-04-21T11:29:54.933Z</time></trkpt><trkpt lat="44.4016206" lon="8.6743402"><ele>40.0</ele><time>2026-04-21T11:29:55.937Z</time></trkpt><trkpt lat="44.401671" lon="8.6744434"><ele>40.0</ele><time>2026-04-21T11:29:56.935Z</time></trkpt><trkpt lat="44.4017013" lon="8.6745579"><ele>39.6</ele><time>2026-04-21T11:29:57.94Z</time></trkpt><trkpt lat="44.4017054" lon="8.6746867"><ele>39.2</ele><time>2026-04-21T11:29:58.936Z</time></trkpt><trkpt lat="44.401684" lon="8.6748266"><ele>38.8</ele><time>2026-04-21T11:29:59.935Z</time></trkpt><trkpt lat="44.4016364" lon="8.6749696"><ele>38.4</ele><time>2026-04-21T11:30:00.936Z</time></trkpt><trkpt lat="44.4015644" lon="8.6751254"><ele>38.0</ele><time>2026-04-21T11:30:01.932Z</time></trkpt><trkpt lat="44.4015046" lon="8.6753026"><ele>37.0</ele><time>2026-04-21T11:30:02.935Z</time></trkpt><trkpt lat="44.4014722" lon="8.6754936"><ele>36.0</ele><time>2026-04-21T11:30:03.941Z</time></trkpt><trkpt lat="44.4015163" lon="8.6758868"><ele>35.0</ele><time>2026-04-21T11:30:05.938Z</time></trkpt><trkpt lat="44.4015633" lon="8.6760677"><ele>34.75</ele><time>2026-04-21T11:30:06.94Z</time></trkpt><trkpt lat="44.4016119" lon="8.6762332"><ele>34.5</ele><time>2026-04-21T11:30:07.932Z</time></trkpt><trkpt lat="44.4016461" lon="8.6763901"><ele>34.25</ele><time>2026-04-21T11:30:08.935Z</time></trkpt><trkpt lat="44.4016607" lon="8.6765468"><ele>34.0</ele><time>2026-04-21T11:30:09.934Z</time></trkpt><trkpt lat="44.4016537" lon="8.6767197"><ele>34.0</ele><time>2026-04-21T11:30:10.936Z</time></trkpt><trkpt lat="44.40163" lon="8.6769129"><ele>34.0</ele><time>2026-04-21T11:30:11.938Z</time></trkpt><trkpt lat="44.4016027" lon="8.6771058"><ele>34.0</ele><time>2026-04-21T11:30:12.932Z</time></trkpt><trkpt lat="44.4015709" lon="8.6772901"><ele>34.0</ele><time>2026-04-21T11:30:13.931Z</time></trkpt><trkpt lat="44.4015387" lon="8.6774665"><ele>34.0</ele><time>2026-04-21T11:30:14.943Z</time></trkpt><trkpt lat="44.4015054" lon="8.6776354"><ele>34.0</ele><time>2026-04-21T11:30:15.936Z</time></trkpt><trkpt lat="44.4014624" lon="8.6778012"><ele>34.0</ele><time>2026-04-21T11:30:16.94Z</time></trkpt><trkpt lat="44.4014066" lon="8.6779514"><ele>34.0</ele><time>2026-04-21T11:30:17.937Z</time></trkpt><trkpt lat="44.4013315" lon="8.6780824"><ele>34.0</ele><time>2026-04-21T11:30:18.945Z</time></trkpt><trkpt lat="44.4012439" lon="8.6782077"><ele>34.0</ele><time>2026-04-21T11:30:19.931Z</time></trkpt><trkpt lat="44.4011546" lon="8.6783478"><ele>34.0</ele><time>2026-04-21T11:30:20.942Z</time></trkpt><trkpt lat="44.4010806" lon="8.6785066"><ele>34.0</ele><time>2026-04-21T11:30:21.941Z</time></trkpt><trkpt lat="44.4010211" lon="8.6786754"><ele>31.0</ele><time>2026-04-21T11:30:22.945Z</time></trkpt><trkpt lat="44.4009664" lon="8.6788332"><ele>28.0</ele><time>2026-04-21T11:30:23.935Z</time></trkpt><trkpt lat="44.4009127" lon="8.6789807"><ele>25.0</ele><time>2026-04-21T11:30:24.933Z</time></trkpt><trkpt lat="44.4007987" lon="8.6792434"><ele>25.0</ele><time>2026-04-21T11:30:26.933Z</time></trkpt><trkpt lat="44.4007341" lon="8.6793693"><ele>25.0</ele><time>2026-04-21T11:30:27.933Z</time></trkpt><trkpt lat="44.4006728" lon="8.6795038"><ele>25.0</ele><time>2026-04-21T11:30:28.941Z</time></trkpt><trkpt lat="44.4006172" lon="8.6796322"><ele>25.0</ele><time>2026-04-21T11:30:29.941Z</time></trkpt><trkpt lat="44.400571" lon="8.6797401"><ele>25.0</ele><time>2026-04-21T11:30:30.933Z</time></trkpt><trkpt lat="44.4005328" lon="8.6798212"><ele>25.2</ele><time>2026-04-21T11:30:31.929Z</time></trkpt><trkpt lat="44.4004503" lon="8.6799153"><ele>25.4</ele><time>2026-04-21T11:30:33.933Z</time></trkpt><trkpt lat="44.4003556" lon="8.6799939"><ele>25.6</ele><time>2026-04-21T11:30:35.932Z</time></trkpt><trkpt lat="44.4003189" lon="8.6801238"><ele>25.8</ele><time>2026-04-21T11:30:37.936Z</time></trkpt><trkpt lat="44.4003433" lon="8.6802067"><ele>26.0</ele><time>2026-04-21T11:30:38.943Z</time></trkpt><trkpt lat="44.4003892" lon="8.6802799"><ele>26.0</ele><time>2026-04-21T11:30:39.932Z</time></trkpt><trkpt lat="44.4004474" lon="8.6803464"><ele>26.0</ele><time>2026-04-21T11:30:40.936Z</time></trkpt><trkpt lat="44.4005012" lon="8.6804309"><ele>26.0</ele><time>2026-04-21T11:30:41.933Z</time></trkpt><trkpt lat="44.4005307" lon="8.6805518"><ele>26.0</ele><time>2026-04-21T11:30:42.936Z</time></trkpt><trkpt lat="44.4005344" lon="8.6807005"><ele>26.0</ele><time>2026-04-21T11:30:43.936Z</time></trkpt><trkpt lat="44.4005245" lon="8.6808718"><ele>26.0</ele><time>2026-04-21T11:30:44.936Z</time></trkpt><trkpt lat="44.4004959" lon="8.6810532"><ele>26.0</ele><time>2026-04-21T11:30:45.938Z</time></trkpt><trkpt lat="44.4004403" lon="8.6814047"><ele>26.0</ele><time>2026-04-21T11:30:47.933Z</time></trkpt><trkpt lat="44.4004619" lon="8.6815847"><ele>22.0</ele><time>2026-04-21T11:30:48.936Z</time></trkpt><trkpt lat="44.4005164" lon="8.6817617"><ele>18.0</ele><time>2026-04-21T11:30:49.931Z</time></trkpt><trkpt lat="44.400583" lon="8.6819331"><ele>14.0</ele><time>2026-04-21T11:30:50.937Z</time></trkpt><trkpt lat="44.4006329" lon="8.682105"><ele>10.0</ele><time>2026-04-21T11:30:51.934Z</time></trkpt><trkpt lat="44.4006561" lon="8.6822767"><ele>10.0</ele><time>2026-04-21T11:30:52.942Z</time></trkpt><trkpt lat="44.4006533" lon="8.682445"><ele>10.0</ele><time>2026-04-21T11:30:53.937Z</time></trkpt><trkpt lat="44.400624" lon="8.6826204"><ele>10.0</ele><time>2026-04-21T11:30:54.929Z</time></trkpt><trkpt lat="44.4005855" lon="8.6828136"><ele>10.0</ele><time>2026-04-21T11:30:55.934Z</time></trkpt><trkpt lat="44.4005501" lon="8.6830221"><ele>10.0</ele><time>2026-04-21T11:30:56.932Z</time></trkpt><trkpt lat="44.4005102" lon="8.6832464"><ele>10.0</ele><time>2026-04-21T11:30:57.936Z</time></trkpt><trkpt lat="44.4004686" lon="8.6834823"><ele>10.0</ele><time>2026-04-21T11:30:58.937Z</time></trkpt><trkpt lat="44.4004325" lon="8.6837138"><ele>12.666666666666668</ele><time>2026-04-21T11:30:59.938Z</time></trkpt><trkpt lat="44.4003967" lon="8.6839338"><ele>15.333333333333334</ele><time>2026-04-21T11:31:00.933Z</time></trkpt><trkpt lat="44.4003587" lon="8.6841405"><ele>18.0</ele><time>2026-04-21T11:31:01.938Z</time></trkpt><trkpt lat="44.4003188" lon="8.6843373"><ele>16.2</ele><time>2026-04-21T11:31:02.932Z</time></trkpt><trkpt lat="44.4002859" lon="8.684527"><ele>14.4</ele><time>2026-04-21T11:31:03.936Z</time></trkpt><trkpt lat="44.4002661" lon="8.684698"><ele>12.600000000000001</ele><time>2026-04-21T11:31:04.935Z</time></trkpt><trkpt lat="44.4002653" lon="8.6848392"><ele>10.8</ele><time>2026-04-21T11:31:05.937Z</time></trkpt><trkpt lat="44.4002743" lon="8.6849389"><ele>9.0</ele><time>2026-04-21T11:31:06.94Z</time></trkpt><trkpt lat="44.4003967" lon="8.6851369"><ele>8.2</ele><time>2026-04-21T11:31:12.935Z</time></trkpt><trkpt lat="44.4005059" lon="8.6852367"><ele>7.4</ele><time>2026-04-21T11:31:14.938Z</time></trkpt><trkpt lat="44.4005886" lon="8.6852872"><ele>6.6</ele><time>2026-04-21T11:31:15.937Z</time></trkpt><trkpt lat="44.4006887" lon="8.6853405"><ele>5.8</ele><time>2026-04-21T11:31:16.941Z</time></trkpt><trkpt lat="44.4008033" lon="8.6853927"><ele>5.0</ele><time>2026-04-21T11:31:17.943Z</time></trkpt><trkpt lat="44.4009273" lon="8.6854382"><ele>5.0</ele><time>2026-04-21T11:31:18.937Z</time></trkpt><trkpt lat="44.4010548" lon="8.6854664"><ele>5.0</ele><time>2026-04-21T11:31:19.936Z</time></trkpt><trkpt lat="44.4011858" lon="8.6854843"><ele>5.0</ele><time>2026-04-21T11:31:20.935Z</time></trkpt><trkpt lat="44.4013181" lon="8.6854984"><ele>5.0</ele><time>2026-04-21T11:31:21.939Z</time></trkpt><trkpt lat="44.4014552" lon="8.6855076"><ele>5.0</ele><time>2026-04-21T11:31:22.941Z</time></trkpt><trkpt lat="44.4015931" lon="8.6855146"><ele>5.0</ele><time>2026-04-21T11:31:23.935Z</time></trkpt><trkpt lat="44.4017254" lon="8.6855222"><ele>5.0</ele><time>2026-04-21T11:31:24.942Z</time></trkpt><trkpt lat="44.4018531" lon="8.6855303"><ele>5.0</ele><time>2026-04-21T11:31:25.94Z</time></trkpt><trkpt lat="44.4019754" lon="8.6855354"><ele>5.0</ele><time>2026-04-21T11:31:26.936Z</time></trkpt><trkpt lat="44.402091" lon="8.68554"><ele>5.0</ele><time>2026-04-21T11:31:27.933Z</time></trkpt><trkpt lat="44.4023011" lon="8.6855507"><ele>5.0</ele><time>2026-04-21T11:31:29.938Z</time></trkpt><trkpt lat="44.4024001" lon="8.6855578"><ele>5.0</ele><time>2026-04-21T11:31:30.937Z</time></trkpt><trkpt lat="44.4024974" lon="8.6855652"><ele>4.833333333333334</ele><time>2026-04-21T11:31:31.936Z</time></trkpt><trkpt lat="44.4025886" lon="8.6855724"><ele>4.666666666666667</ele><time>2026-04-21T11:31:32.94Z</time></trkpt><trkpt lat="44.4026783" lon="8.6855816"><ele>4.5</ele><time>2026-04-21T11:31:33.935Z</time></trkpt><trkpt lat="44.402762" lon="8.6855886"><ele>4.333333333333333</ele><time>2026-04-21T11:31:34.936Z</time></trkpt><trkpt lat="44.4028385" lon="8.6855939"><ele>4.166666666666666</ele><time>2026-04-21T11:31:35.941Z</time></trkpt><trkpt lat="44.402916" lon="8.6855974"><ele>4.0</ele><time>2026-04-21T11:31:36.936Z</time></trkpt><trkpt lat="44.402996" lon="8.6856"><ele>4.4</ele><time>2026-04-21T11:31:37.936Z</time></trkpt><trkpt lat="44.403081" lon="8.6856068"><ele>4.800000000000001</ele><time>2026-04-21T11:31:38.935Z</time></trkpt><trkpt lat="44.4031687" lon="8.6856163"><ele>5.199999999999999</ele><time>2026-04-21T11:31:39.936Z</time></trkpt><trkpt lat="44.4032619" lon="8.685628"><ele>5.6</ele><time>2026-04-21T11:31:40.936Z</time></trkpt><trkpt lat="44.4033569" lon="8.6856486"><ele>6.0</ele><time>2026-04-21T11:31:41.938Z</time></trkpt><trkpt lat="44.4034502" lon="8.6856834"><ele>6.0</ele><time>2026-04-21T11:31:42.94Z</time></trkpt><trkpt lat="44.4035429" lon="8.6857199"><ele>6.0</ele><time>2026-04-21T11:31:43.939Z</time></trkpt><trkpt lat="44.4036378" lon="8.6857635"><ele>6.0</ele><time>2026-04-21T11:31:44.944Z</time></trkpt><trkpt lat="44.4037306" lon="8.6858218"><ele>6.0</ele><time>2026-04-21T11:31:45.934Z</time></trkpt><trkpt lat="44.4038189" lon="8.6858935"><ele>6.0</ele><time>2026-04-21T11:31:46.936Z</time></trkpt><trkpt lat="44.403906" lon="8.6859717"><ele>5.75</ele><time>2026-04-21T11:31:47.937Z</time></trkpt><trkpt lat="44.403991" lon="8.686053"><ele>5.5</ele><time>2026-04-21T11:31:48.938Z</time></trkpt><trkpt lat="44.4041582" lon="8.6862228"><ele>5.25</ele><time>2026-04-21T11:31:50.935Z</time></trkpt><trkpt lat="44.4042437" lon="8.6863016"><ele>5.0</ele><time>2026-04-21T11:31:51.934Z</time></trkpt><trkpt lat="44.4043282" lon="8.6863769"><ele>5.0</ele><time>2026-04-21T11:31:52.938Z</time></trkpt><trkpt lat="44.4044129" lon="8.6864523"><ele>5.0</ele><time>2026-04-21T11:31:53.941Z</time></trkpt><trkpt lat="44.4044974" lon="8.6865308"><ele>5.0</ele><time>2026-04-21T11:31:54.932Z</time></trkpt><trkpt lat="44.4045806" lon="8.6866107"><ele>5.0</ele><time>2026-04-21T11:31:55.938Z</time></trkpt><trkpt lat="44.4046608" lon="8.6866856"><ele>5.0</ele><time>2026-04-21T11:31:56.934Z</time></trkpt><trkpt lat="44.4047341" lon="8.6867543"><ele>5.0</ele><time>2026-04-21T11:31:57.937Z</time></trkpt><trkpt lat="44.4048003" lon="8.6868109"><ele>5.0</ele><time>2026-04-21T11:31:58.938Z</time></trkpt><trkpt lat="44.4048697" lon="8.6868803"><ele>5.0</ele><time>2026-04-21T11:32:00.943Z</time></trkpt><trkpt lat="44.4049489" lon="8.6869463"><ele>5.0</ele><time>2026-04-21T11:32:05.939Z</time></trkpt><trkpt lat="44.405007" lon="8.6870053"><ele>5.0</ele><time>2026-04-21T11:32:06.939Z</time></trkpt><trkpt lat="44.4050861" lon="8.6870936"><ele>5.0</ele><time>2026-04-21T11:32:07.932Z</time></trkpt><trkpt lat="44.4051832" lon="8.6872052"><ele>5.0</ele><time>2026-04-21T11:32:08.933Z</time></trkpt><trkpt lat="44.4052784" lon="8.6873396"><ele>5.0</ele><time>2026-04-21T11:32:09.936Z</time></trkpt><trkpt lat="44.4054723" lon="8.6876809"><ele>5.0</ele><time>2026-04-21T11:32:11.933Z</time></trkpt><trkpt lat="44.4055563" lon="8.6878669"><ele>5.25</ele><time>2026-04-21T11:32:12.944Z</time></trkpt><trkpt lat="44.4056404" lon="8.6880482"><ele>5.5</ele><time>2026-04-21T11:32:13.937Z</time></trkpt><trkpt lat="44.4057246" lon="8.6882164"><ele>5.75</ele><time>2026-04-21T11:32:14.941Z</time></trkpt><trkpt lat="44.4058096" lon="8.6883697"><ele>6.0</ele><time>2026-04-21T11:32:15.939Z</time></trkpt><trkpt lat="44.4059004" lon="8.6885062"><ele>6.75</ele><time>2026-04-21T11:32:16.936Z</time></trkpt><trkpt lat="44.4059989" lon="8.6886276"><ele>7.5</ele><time>2026-04-21T11:32:17.935Z</time></trkpt><trkpt lat="44.4061056" lon="8.6887354"><ele>8.25</ele><time>2026-04-21T11:32:18.935Z</time></trkpt><trkpt lat="44.4062184" lon="8.6888319"><ele>9.0</ele><time>2026-04-21T11:32:19.938Z</time></trkpt><trkpt lat="44.40633" lon="8.6889199"><ele>9.0</ele><time>2026-04-21T11:32:20.933Z</time></trkpt><trkpt lat="44.4064389" lon="8.6890112"><ele>9.0</ele><time>2026-04-21T11:32:21.94Z</time></trkpt><trkpt lat="44.4065369" lon="8.6891114"><ele>9.0</ele><time>2026-04-21T11:32:22.934Z</time></trkpt><trkpt lat="44.406627" lon="8.6892289"><ele>9.0</ele><time>2026-04-21T11:32:23.943Z</time></trkpt><trkpt lat="44.4067035" lon="8.6893583"><ele>8.166666666666666</ele><time>2026-04-21T11:32:24.939Z</time></trkpt><trkpt lat="44.4067659" lon="8.6894894"><ele>7.333333333333333</ele><time>2026-04-21T11:32:25.935Z</time></trkpt><trkpt lat="44.4068176" lon="8.6896053"><ele>6.5</ele><time>2026-04-21T11:32:26.938Z</time></trkpt><trkpt lat="44.4068629" lon="8.689699"><ele>5.666666666666666</ele><time>2026-04-21T11:32:27.941Z</time></trkpt><trkpt lat="44.4068971" lon="8.6897756"><ele>4.833333333333333</ele><time>2026-04-21T11:32:28.934Z</time></trkpt><trkpt lat="44.4069545" lon="8.6898765"><ele>4.0</ele><time>2026-04-21T11:32:30.935Z</time></trkpt><trkpt lat="44.4070621" lon="8.6900362"><ele>4.0</ele><time>2026-04-21T11:32:49.932Z</time></trkpt><trkpt lat="44.4071125" lon="8.6901239"><ele>4.0</ele><time>2026-04-21T11:32:50.939Z</time></trkpt><trkpt lat="44.4071743" lon="8.6902448"><ele>4.0</ele><time>2026-04-21T11:32:51.937Z</time></trkpt><trkpt lat="44.4073184" lon="8.6905476"><ele>4.0</ele><time>2026-04-21T11:32:53.939Z</time></trkpt><trkpt lat="44.4074021" lon="8.6907103"><ele>4.25</ele><time>2026-04-21T11:32:54.937Z</time></trkpt><trkpt lat="44.4074898" lon="8.6908734"><ele>4.5</ele><time>2026-04-21T11:32:55.939Z</time></trkpt><trkpt lat="44.4075787" lon="8.6910361"><ele>4.75</ele><time>2026-04-21T11:32:56.945Z</time></trkpt><trkpt lat="44.4076653" lon="8.6912028"><ele>5.0</ele><time>2026-04-21T11:32:57.942Z</time></trkpt><trkpt lat="44.4077517" lon="8.6913748"><ele>5.0</ele><time>2026-04-21T11:32:58.941Z</time></trkpt><trkpt lat="44.4078412" lon="8.6915494"><ele>5.0</ele><time>2026-04-21T11:32:59.95Z</time></trkpt><trkpt lat="44.4079337" lon="8.6917243"><ele>5.0</ele><time>2026-04-21T11:33:00.942Z</time></trkpt><trkpt lat="44.4080255" lon="8.6919"><ele>8.666666666666666</ele><time>2026-04-21T11:33:01.94Z</time></trkpt><trkpt lat="44.4081168" lon="8.6920773"><ele>12.333333333333332</ele><time>2026-04-21T11:33:02.953Z</time></trkpt><trkpt lat="44.4082083" lon="8.692257"><ele>16.0</ele><time>2026-04-21T11:33:03.943Z</time></trkpt><trkpt lat="44.4083001" lon="8.6924353"><ele>16.0</ele><time>2026-04-21T11:33:04.941Z</time></trkpt><trkpt lat="44.4083938" lon="8.6926123"><ele>16.0</ele><time>2026-04-21T11:33:05.951Z</time></trkpt><trkpt lat="44.4084882" lon="8.6927872"><ele>16.0</ele><time>2026-04-21T11:33:06.944Z</time></trkpt><trkpt lat="44.4085834" lon="8.6929618"><ele>13.333333333333332</ele><time>2026-04-21T11:33:07.944Z</time></trkpt><trkpt lat="44.4086776" lon="8.6931408"><ele>10.666666666666666</ele><time>2026-04-21T11:33:08.95Z</time></trkpt><trkpt lat="44.4087734" lon="8.6933201"><ele>8.0</ele><time>2026-04-21T11:33:09.948Z</time></trkpt><trkpt lat="44.4088685" lon="8.6935001"><ele>9.666666666666666</ele><time>2026-04-21T11:33:10.941Z</time></trkpt><trkpt lat="44.4089614" lon="8.6936836"><ele>11.333333333333332</ele><time>2026-04-21T11:33:11.943Z</time></trkpt><trkpt lat="44.4090504" lon="8.6938709"><ele>13.0</ele><time>2026-04-21T11:33:12.952Z</time></trkpt><trkpt lat="44.4092384" lon="8.694243"><ele>10.666666666666666</ele><time>2026-04-21T11:33:14.941Z</time></trkpt><trkpt lat="44.4093371" lon="8.6944275"><ele>8.333333333333332</ele><time>2026-04-21T11:33:15.947Z</time></trkpt><trkpt lat="44.4094324" lon="8.6946139"><ele>6.0</ele><time>2026-04-21T11:33:16.953Z</time></trkpt><trkpt lat="44.4095282" lon="8.6947995"><ele>6.0</ele><time>2026-04-21T11:33:17.938Z</time></trkpt><trkpt lat="44.4096267" lon="8.6949806"><ele>6.0</ele><time>2026-04-21T11:33:18.931Z</time></trkpt><trkpt lat="44.4097212" lon="8.6951626"><ele>6.0</ele><time>2026-04-21T11:33:19.947Z</time></trkpt><trkpt lat="44.4098195" lon="8.6953419"><ele>15.333333333333334</ele><time>2026-04-21T11:33:20.943Z</time></trkpt><trkpt lat="44.4099158" lon="8.6955164"><ele>24.666666666666668</ele><time>2026-04-21T11:33:21.94Z</time></trkpt><trkpt lat="44.4100127" lon="8.695692"><ele>34.0</ele><time>2026-04-21T11:33:22.948Z</time></trkpt><trkpt lat="44.4101104" lon="8.6958709"><ele>34.0</ele><time>2026-04-21T11:33:23.943Z</time></trkpt><trkpt lat="44.4102116" lon="8.6960479"><ele>34.0</ele><time>2026-04-21T11:33:24.931Z</time></trkpt><trkpt lat="44.410317" lon="8.6962285"><ele>34.0</ele><time>2026-04-21T11:33:25.928Z</time></trkpt><trkpt lat="44.4104215" lon="8.6964036"><ele>48.0</ele><time>2026-04-21T11:33:26.932Z</time></trkpt><trkpt lat="44.4105122" lon="8.6973465"><ele>48.0</ele><time>2026-04-21T11:33:30.947Z</time></trkpt><trkpt lat="44.4105429" lon="8.6974759"><ele>48.0</ele><time>2026-04-21T11:33:31.938Z</time></trkpt><trkpt lat="44.4105524" lon="8.697697"><ele>48.0</ele><time>2026-04-21T11:33:32.94Z</time></trkpt><trkpt lat="44.4105201" lon="8.6979853"><ele>45.666666666666664</ele><time>2026-04-21T11:33:33.942Z</time></trkpt><trkpt lat="44.4105992" lon="8.6983709"><ele>43.33333333333333</ele><time>2026-04-21T11:33:35.941Z</time></trkpt><trkpt lat="44.4106375" lon="8.6985703"><ele>41.0</ele><time>2026-04-21T11:33:36.938Z</time></trkpt><trkpt lat="44.4106688" lon="8.6987828"><ele>36.666666666666664</ele><time>2026-04-21T11:33:37.942Z</time></trkpt><trkpt lat="44.4107081" lon="8.6989856"><ele>32.333333333333336</ele><time>2026-04-21T11:33:38.949Z</time></trkpt><trkpt lat="44.4107529" lon="8.6991916"><ele>28.0</ele><time>2026-04-21T11:33:39.954Z</time></trkpt><trkpt lat="44.4108054" lon="8.6993953"><ele>22.0</ele><time>2026-04-21T11:33:40.948Z</time></trkpt><trkpt lat="44.4108665" lon="8.6995989"><ele>16.0</ele><time>2026-04-21T11:33:41.941Z</time></trkpt><trkpt lat="44.4109334" lon="8.6998042"><ele>10.0</ele><time>2026-04-21T11:33:42.942Z</time></trkpt><trkpt lat="44.4110073" lon="8.7000061"><ele>10.0</ele><time>2026-04-21T11:33:43.949Z</time></trkpt><trkpt lat="44.4110932" lon="8.7001964"><ele>10.0</ele><time>2026-04-21T11:33:44.938Z</time></trkpt><trkpt lat="44.4111812" lon="8.7003875"><ele>10.0</ele><time>2026-04-21T11:33:45.933Z</time></trkpt><trkpt lat="44.4112661" lon="8.7005801"><ele>11.0</ele><time>2026-04-21T11:33:46.944Z</time></trkpt><trkpt lat="44.411357" lon="8.7007794"><ele>12.0</ele><time>2026-04-21T11:33:47.941Z</time></trkpt><trkpt lat="44.4114536" lon="8.7009754"><ele>13.0</ele><time>2026-04-21T11:33:48.937Z</time></trkpt><trkpt lat="44.4115587" lon="8.7011751"><ele>13.0</ele><time>2026-04-21T11:33:49.938Z</time></trkpt><trkpt lat="44.4116717" lon="8.7013788"><ele>13.0</ele><time>2026-04-21T11:33:50.938Z</time></trkpt><trkpt lat="44.4117859" lon="8.7015864"><ele>13.0</ele><time>2026-04-21T11:33:51.937Z</time></trkpt><trkpt lat="44.4118946" lon="8.7017869"><ele>9.666666666666666</ele><time>2026-04-21T11:33:52.94Z</time></trkpt><trkpt lat="44.4119991" lon="8.7019831"><ele>6.333333333333333</ele><time>2026-04-21T11:33:53.943Z</time></trkpt><trkpt lat="44.4121003" lon="8.7021717"><ele>3.0</ele><time>2026-04-21T11:33:54.938Z</time></trkpt><trkpt lat="44.4122876" lon="8.7025482"><ele>8.0</ele><time>2026-04-21T11:33:56.935Z</time></trkpt><trkpt lat="44.4123632" lon="8.7027427"><ele>13.0</ele><time>2026-04-21T11:33:57.937Z</time></trkpt><trkpt lat="44.4124168" lon="8.7029421"><ele>18.0</ele><time>2026-04-21T11:33:58.933Z</time></trkpt><trkpt lat="44.4124543" lon="8.7031503"><ele>18.0</ele><time>2026-04-21T11:33:59.934Z</time></trkpt><trkpt lat="44.4124899" lon="8.7033566"><ele>18.0</ele><time>2026-04-21T11:34:00.938Z</time></trkpt><trkpt lat="44.4125394" lon="8.7035483"><ele>18.0</ele><time>2026-04-21T11:34:01.932Z</time></trkpt><trkpt lat="44.4126357" lon="8.703706"><ele>18.0</ele><time>2026-04-21T11:34:02.945Z</time></trkpt><trkpt lat="44.4127742" lon="8.703811"><ele>15.5</ele><time>2026-04-21T11:34:03.934Z</time></trkpt><trkpt lat="44.4129234" lon="8.7038732"><ele>13.0</ele><time>2026-04-21T11:34:04.939Z</time></trkpt><trkpt lat="44.4130764" lon="8.7038841"><ele>10.5</ele><time>2026-04-21T11:34:05.935Z</time></trkpt><trkpt lat="44.4132165" lon="8.7038672"><ele>8.0</ele><time>2026-04-21T11:34:06.944Z</time></trkpt><trkpt lat="44.4133407" lon="8.7038473"><ele>8.0</ele><time>2026-04-21T11:34:07.941Z</time></trkpt><trkpt lat="44.4134541" lon="8.7038387"><ele>8.0</ele><time>2026-04-21T11:34:08.936Z</time></trkpt><trkpt lat="44.4135659" lon="8.7038479"><ele>8.0</ele><time>2026-04-21T11:34:09.943Z</time></trkpt><trkpt lat="44.4136765" lon="8.7038719"><ele>8.0</ele><time>2026-04-21T11:34:10.933Z</time></trkpt><trkpt lat="44.4137878" lon="8.7039136"><ele>10.25</ele><time>2026-04-21T11:34:11.936Z</time></trkpt><trkpt lat="44.4138957" lon="8.7039786"><ele>12.5</ele><time>2026-04-21T11:34:12.943Z</time></trkpt><trkpt lat="44.414001" lon="8.7040676"><ele>14.75</ele><time>2026-04-21T11:34:13.934Z</time></trkpt><trkpt lat="44.4140981" lon="8.7041783"><ele>17.0</ele><time>2026-04-21T11:34:14.933Z</time></trkpt><trkpt lat="44.4141872" lon="8.704308"><ele>15.333333333333334</ele><time>2026-04-21T11:34:15.941Z</time></trkpt><trkpt lat="44.4143628" lon="8.7045882"><ele>13.666666666666668</ele><time>2026-04-21T11:34:17.941Z</time></trkpt><trkpt lat="44.4144512" lon="8.704731"><ele>12.0</ele><time>2026-04-21T11:34:18.933Z</time></trkpt><trkpt lat="44.414539" lon="8.7048847"><ele>12.0</ele><time>2026-04-21T11:34:19.937Z</time></trkpt><trkpt lat="44.4146203" lon="8.7050566"><ele>12.0</ele><time>2026-04-21T11:34:20.933Z</time></trkpt><trkpt lat="44.414691" lon="8.7052373"><ele>12.0</ele><time>2026-04-21T11:34:21.939Z</time></trkpt><trkpt lat="44.4147473" lon="8.7054411"><ele>20.0</ele><time>2026-04-21T11:34:22.938Z</time></trkpt><trkpt lat="44.4147842" lon="8.7056639"><ele>28.0</ele><time>2026-04-21T11:34:23.939Z</time></trkpt><trkpt lat="44.4148" lon="8.7059017"><ele>36.0</ele><time>2026-04-21T11:34:24.935Z</time></trkpt><trkpt lat="44.4147921" lon="8.7061495"><ele>36.666666666666664</ele><time>2026-04-21T11:34:25.941Z</time></trkpt><trkpt lat="44.4147625" lon="8.7064065"><ele>37.33333333333333</ele><time>2026-04-21T11:34:26.933Z</time></trkpt><trkpt lat="44.4147268" lon="8.7066718"><ele>38.0</ele><time>2026-04-21T11:34:27.936Z</time></trkpt><trkpt lat="44.4146782" lon="8.7069468"><ele>30.0</ele><time>2026-04-21T11:34:28.937Z</time></trkpt><trkpt lat="44.4146065" lon="8.7072089"><ele>22.0</ele><time>2026-04-21T11:34:29.937Z</time></trkpt><trkpt lat="44.4144938" lon="8.7074509"><ele>14.0</ele><time>2026-04-21T11:34:30.939Z</time></trkpt><trkpt lat="44.4143603" lon="8.7076746"><ele>14.0</ele><time>2026-04-21T11:34:31.934Z</time></trkpt><trkpt lat="44.4142329" lon="8.7078856"><ele>14.0</ele><time>2026-04-21T11:34:32.937Z</time></trkpt><trkpt lat="44.4141386" lon="8.7081038"><ele>14.0</ele><time>2026-04-21T11:34:33.934Z</time></trkpt><trkpt lat="44.414087" lon="8.7083465"><ele>13.0</ele><time>2026-04-21T11:34:34.935Z</time></trkpt><trkpt lat="44.414092" lon="8.7086015"><ele>12.0</ele><time>2026-04-21T11:34:35.933Z</time></trkpt><trkpt lat="44.4141375" lon="8.7088464"><ele>11.0</ele><time>2026-04-21T11:34:36.943Z</time></trkpt><trkpt lat="44.4143465" lon="8.7093174"><ele>12.666666666666666</ele><time>2026-04-21T11:34:38.939Z</time></trkpt><trkpt lat="44.4145049" lon="8.7095121"><ele>14.333333333333332</ele><time>2026-04-21T11:34:39.933Z</time></trkpt><trkpt lat="44.41466" lon="8.7096911"><ele>16.0</ele><time>2026-04-21T11:34:40.937Z</time></trkpt><trkpt lat="44.4147975" lon="8.7098843"><ele>16.0</ele><time>2026-04-21T11:34:41.934Z</time></trkpt><trkpt lat="44.4149165" lon="8.7100964"><ele>16.0</ele><time>2026-04-21T11:34:42.94Z</time></trkpt><trkpt lat="44.4150066" lon="8.7103398"><ele>16.0</ele><time>2026-04-21T11:34:43.94Z</time></trkpt><trkpt lat="44.4150583" lon="8.7106021"><ele>14.666666666666666</ele><time>2026-04-21T11:34:44.939Z</time></trkpt><trkpt lat="44.415091" lon="8.7108775"><ele>13.333333333333332</ele><time>2026-04-21T11:34:45.936Z</time></trkpt><trkpt lat="44.4151151" lon="8.7111488"><ele>12.0</ele><time>2026-04-21T11:34:46.939Z</time></trkpt><trkpt lat="44.4151403" lon="8.7114209"><ele>9.333333333333334</ele><time>2026-04-21T11:34:47.932Z</time></trkpt><trkpt lat="44.4151847" lon="8.7116861"><ele>6.666666666666666</ele><time>2026-04-21T11:34:48.937Z</time></trkpt><trkpt lat="44.4152424" lon="8.7119342"><ele>4.0</ele><time>2026-04-21T11:34:49.932Z</time></trkpt><trkpt lat="44.4153177" lon="8.7121669"><ele>4.333333333333333</ele><time>2026-04-21T11:34:50.929Z</time></trkpt><trkpt lat="44.4154091" lon="8.7123826"><ele>4.666666666666667</ele><time>2026-04-21T11:34:51.928Z</time></trkpt><trkpt lat="44.4154855" lon="8.7125882"><ele>5.0</ele><time>2026-04-21T11:34:52.928Z</time></trkpt><trkpt lat="44.4155528" lon="8.7127935"><ele>5.0</ele><time>2026-04-21T11:34:53.933Z</time></trkpt><trkpt lat="44.4156248" lon="8.7130196"><ele>5.0</ele><time>2026-04-21T11:34:54.934Z</time></trkpt><trkpt lat="44.4157445" lon="8.7132252"><ele>5.0</ele><time>2026-04-21T11:34:55.935Z</time></trkpt><trkpt lat="44.41582" lon="8.7134467"><ele>4.5</ele><time>2026-04-21T11:34:56.943Z</time></trkpt><trkpt lat="44.4158907" lon="8.7136707"><ele>4.0</ele><time>2026-04-21T11:34:57.936Z</time></trkpt><trkpt lat="44.4160158" lon="8.7141229"><ele>4.0</ele><time>2026-04-21T11:34:59.932Z</time></trkpt><trkpt lat="44.4160661" lon="8.71435"><ele>4.0</ele><time>2026-04-21T11:35:00.942Z</time></trkpt><trkpt lat="44.4161081" lon="8.7145784"><ele>4.0</ele><time>2026-04-21T11:35:01.934Z</time></trkpt><trkpt lat="44.4161446" lon="8.7148039"><ele>3.6666666666666665</ele><time>2026-04-21T11:35:02.939Z</time></trkpt><trkpt lat="44.4161802" lon="8.7150203"><ele>3.333333333333333</ele><time>2026-04-21T11:35:03.941Z</time></trkpt><trkpt lat="44.4162041" lon="8.7152308"><ele>3.0</ele><time>2026-04-21T11:35:04.946Z</time></trkpt><trkpt lat="44.4162223" lon="8.7154369"><ele>3.0</ele><time>2026-04-21T11:35:05.936Z</time></trkpt><trkpt lat="44.4162333" lon="8.7156452"><ele>3.0</ele><time>2026-04-21T11:35:06.938Z</time></trkpt><trkpt lat="44.4162436" lon="8.7158598"><ele>3.0</ele><time>2026-04-21T11:35:07.935Z</time></trkpt><trkpt lat="44.4162514" lon="8.7160754"><ele>3.333333333333333</ele><time>2026-04-21T11:35:08.94Z</time></trkpt><trkpt lat="44.4162595" lon="8.7162903"><ele>3.6666666666666665</ele><time>2026-04-21T11:35:09.944Z</time></trkpt><trkpt lat="44.4162699" lon="8.7165132"><ele>4.0</ele><time>2026-04-21T11:35:10.932Z</time></trkpt><trkpt lat="44.4162777" lon="8.7167387"><ele>5.333333333333333</ele><time>2026-04-21T11:35:11.938Z</time></trkpt><trkpt lat="44.41629" lon="8.716972"><ele>6.666666666666666</ele><time>2026-04-21T11:35:12.933Z</time></trkpt><trkpt lat="44.4163061" lon="8.7172049"><ele>8.0</ele><time>2026-04-21T11:35:13.932Z</time></trkpt><trkpt lat="44.416323" lon="8.7174398"><ele>19.666666666666668</ele><time>2026-04-21T11:35:14.937Z</time></trkpt><trkpt lat="44.4163409" lon="8.7176789"><ele>31.333333333333336</ele><time>2026-04-21T11:35:15.936Z</time></trkpt><trkpt lat="44.4163606" lon="8.7179173"><ele>43.0</ele><time>2026-04-21T11:35:16.933Z</time></trkpt><trkpt lat="44.4163774" lon="8.7181489"><ele>43.0</ele><time>2026-04-21T11:35:17.932Z</time></trkpt><trkpt lat="44.4163936" lon="8.7183828"><ele>43.0</ele><time>2026-04-21T11:35:18.937Z</time></trkpt><trkpt lat="44.4164551" lon="8.7188249"><ele>39.66666666666667</ele><time>2026-04-21T11:35:20.933Z</time></trkpt><trkpt lat="44.4164685" lon="8.7190723"><ele>36.333333333333336</ele><time>2026-04-21T11:35:21.933Z</time></trkpt><trkpt lat="44.416482" lon="8.7193211"><ele>33.0</ele><time>2026-04-21T11:35:22.937Z</time></trkpt><trkpt lat="44.4164823" lon="8.719589"><ele>31.333333333333336</ele><time>2026-04-21T11:35:23.936Z</time></trkpt><trkpt lat="44.4164892" lon="8.7198193"><ele>29.666666666666668</ele><time>2026-04-21T11:35:24.936Z</time></trkpt><trkpt lat="44.4164878" lon="8.7200458"><ele>28.0</ele><time>2026-04-21T11:35:25.937Z</time></trkpt><trkpt lat="44.4164913" lon="8.7202767"><ele>27.666666666666668</ele><time>2026-04-21T11:35:26.938Z</time></trkpt><trkpt lat="44.41649" lon="8.7205057"><ele>27.333333333333336</ele><time>2026-04-21T11:35:27.934Z</time></trkpt><trkpt lat="44.4165017" lon="8.7207154"><ele>27.0</ele><time>2026-04-21T11:35:28.934Z</time></trkpt><trkpt lat="44.4165189" lon="8.7209145"><ele>23.333333333333332</ele><time>2026-04-21T11:35:29.936Z</time></trkpt><trkpt lat="44.4165432" lon="8.7211143"><ele>19.666666666666664</ele><time>2026-04-21T11:35:30.938Z</time></trkpt><trkpt lat="44.4165739" lon="8.7213214"><ele>16.0</ele><time>2026-04-21T11:35:31.934Z</time></trkpt><trkpt lat="44.4166141" lon="8.7215343"><ele>16.0</ele><time>2026-04-21T11:35:32.935Z</time></trkpt><trkpt lat="44.416654" lon="8.7217569"><ele>16.0</ele><time>2026-04-21T11:35:33.935Z</time></trkpt><trkpt lat="44.4166949" lon="8.7219848"><ele>16.0</ele><time>2026-04-21T11:35:34.938Z</time></trkpt><trkpt lat="44.4167367" lon="8.7222144"><ele>15.666666666666666</ele><time>2026-04-21T11:35:35.932Z</time></trkpt><trkpt lat="44.4167781" lon="8.7224469"><ele>15.333333333333332</ele><time>2026-04-21T11:35:36.939Z</time></trkpt><trkpt lat="44.4168193" lon="8.7226816"><ele>15.0</ele><time>2026-04-21T11:35:37.935Z</time></trkpt><trkpt lat="44.4168631" lon="8.7229218"><ele>12.5</ele><time>2026-04-21T11:35:38.935Z</time></trkpt><trkpt lat="44.4169065" lon="8.7231658"><ele>10.0</ele><time>2026-04-21T11:35:39.935Z</time></trkpt><trkpt lat="44.4169965" lon="8.7236533"><ele>8.666666666666668</ele><time>2026-04-21T11:35:41.934Z</time></trkpt><trkpt lat="44.4170347" lon="8.7238958"><ele>7.333333333333334</ele><time>2026-04-21T11:35:42.939Z</time></trkpt><trkpt lat="44.4170791" lon="8.7241353"><ele>6.0</ele><time>2026-04-21T11:35:43.937Z</time></trkpt><trkpt lat="44.4171303" lon="8.7243719"><ele>19.0</ele><time>2026-04-21T11:35:44.935Z</time></trkpt><trkpt lat="44.4171903" lon="8.7246025"><ele>32.0</ele><time>2026-04-21T11:35:45.934Z</time></trkpt><trkpt lat="44.4172548" lon="8.7248306"><ele>45.0</ele><time>2026-04-21T11:35:46.935Z</time></trkpt><trkpt lat="44.4173213" lon="8.7250547"><ele>35.0</ele><time>2026-04-21T11:35:47.93Z</time></trkpt><trkpt lat="44.4173876" lon="8.7252808"><ele>25.0</ele><time>2026-04-21T11:35:48.929Z</time></trkpt><trkpt lat="44.4182135" lon="8.7266661"><ele>25.0</ele><time>2026-04-21T11:35:55.934Z</time></trkpt><trkpt lat="44.4183517" lon="8.7268411"><ele>25.0</ele><time>2026-04-21T11:35:56.936Z</time></trkpt><trkpt lat="44.418503" lon="8.7270133"><ele>25.0</ele><time>2026-04-21T11:35:57.936Z</time></trkpt><trkpt lat="44.4186533" lon="8.7271943"><ele>26.666666666666668</ele><time>2026-04-21T11:35:58.935Z</time></trkpt><trkpt lat="44.4188282" lon="8.7273176"><ele>28.333333333333336</ele><time>2026-04-21T11:35:59.933Z</time></trkpt><trkpt lat="44.4189978" lon="8.7274628"><ele>30.0</ele><time>2026-04-21T11:36:00.944Z</time></trkpt><trkpt lat="44.4193069" lon="8.7277844"><ele>29.0</ele><time>2026-04-21T11:36:02.938Z</time></trkpt><trkpt lat="44.4194616" lon="8.7279396"><ele>28.0</ele><time>2026-04-21T11:36:03.939Z</time></trkpt><trkpt lat="44.4196162" lon="8.7280956"><ele>27.0</ele><time>2026-04-21T11:36:04.939Z</time></trkpt><trkpt lat="44.4197727" lon="8.7282494"><ele>27.0</ele><time>2026-04-21T11:36:05.941Z</time></trkpt><trkpt lat="44.4199267" lon="8.7284067"><ele>27.0</ele><time>2026-04-21T11:36:06.938Z</time></trkpt><trkpt lat="44.4200792" lon="8.7285664"><ele>27.0</ele><time>2026-04-21T11:36:07.935Z</time></trkpt><trkpt lat="44.4202293" lon="8.7287329"><ele>30.333333333333336</ele><time>2026-04-21T11:36:08.939Z</time></trkpt><trkpt lat="44.4203701" lon="8.7289075"><ele>33.66666666666667</ele><time>2026-04-21T11:36:09.935Z</time></trkpt><trkpt lat="44.4205061" lon="8.7290889"><ele>37.0</ele><time>2026-04-21T11:36:10.934Z</time></trkpt><trkpt lat="44.4206388" lon="8.7292809"><ele>28.0</ele><time>2026-04-21T11:36:11.933Z</time></trkpt><trkpt lat="44.420771" lon="8.7294789"><ele>19.0</ele><time>2026-04-21T11:36:12.941Z</time></trkpt><trkpt lat="44.4208969" lon="8.7296769"><ele>10.0</ele><time>2026-04-21T11:36:13.932Z</time></trkpt><trkpt lat="44.4210175" lon="8.7298679"><ele>10.0</ele><time>2026-04-21T11:36:14.936Z</time></trkpt><trkpt lat="44.4211381" lon="8.7300481"><ele>10.0</ele><time>2026-04-21T11:36:15.936Z</time></trkpt><trkpt lat="44.4212589" lon="8.7302245"><ele>10.0</ele><time>2026-04-21T11:36:16.938Z</time></trkpt><trkpt lat="44.4213753" lon="8.7303943"><ele>15.666666666666668</ele><time>2026-04-21T11:36:17.94Z</time></trkpt><trkpt lat="44.4214749" lon="8.7305692"><ele>21.333333333333332</ele><time>2026-04-21T11:36:18.932Z</time></trkpt><trkpt lat="44.4215373" lon="8.730761"><ele>27.0</ele><time>2026-04-21T11:36:19.941Z</time></trkpt><trkpt lat="44.4215524" lon="8.7309692"><ele>21.5</ele><time>2026-04-21T11:36:20.939Z</time></trkpt><trkpt lat="44.4215433" lon="8.7311877"><ele>16.0</ele><time>2026-04-21T11:36:21.933Z</time></trkpt><trkpt lat="44.4215913" lon="8.7316255"><ele>16.0</ele><time>2026-04-21T11:36:23.936Z</time></trkpt><trkpt lat="44.4216839" lon="8.7318182"><ele>16.0</ele><time>2026-04-21T11:36:24.938Z</time></trkpt><trkpt lat="44.4217773" lon="8.7320155"><ele>16.0</ele><time>2026-04-21T11:36:25.942Z</time></trkpt><trkpt lat="44.4218427" lon="8.7322349"><ele>14.333333333333332</ele><time>2026-04-21T11:36:26.936Z</time></trkpt><trkpt lat="44.4218677" lon="8.7324724"><ele>12.666666666666666</ele><time>2026-04-21T11:36:27.935Z</time></trkpt><trkpt lat="44.4218581" lon="8.7327196"><ele>11.0</ele><time>2026-04-21T11:36:28.931Z</time></trkpt><trkpt lat="44.4218504" lon="8.7329556"><ele>10.0</ele><time>2026-04-21T11:36:29.943Z</time></trkpt><trkpt lat="44.4218718" lon="8.7331879"><ele>9.0</ele><time>2026-04-21T11:36:30.934Z</time></trkpt><trkpt lat="44.4219512" lon="8.7334063"><ele>8.0</ele><time>2026-04-21T11:36:31.936Z</time></trkpt><trkpt lat="44.4220609" lon="8.733603"><ele>18.333333333333332</ele><time>2026-04-21T11:36:32.933Z</time></trkpt><trkpt lat="44.4221753" lon="8.733788"><ele>28.666666666666668</ele><time>2026-04-21T11:36:33.941Z</time></trkpt><trkpt lat="44.4222712" lon="8.7339682"><ele>39.0</ele><time>2026-04-21T11:36:34.935Z</time></trkpt><trkpt lat="44.4223267" lon="8.7341634"><ele>39.0</ele><time>2026-04-21T11:36:35.938Z</time></trkpt><trkpt lat="44.4223218" lon="8.7343825"><ele>39.0</ele><time>2026-04-21T11:36:36.938Z</time></trkpt><trkpt lat="44.4222657" lon="8.7346079"><ele>39.0</ele><time>2026-04-21T11:36:37.941Z</time></trkpt><trkpt lat="44.4222151" lon="8.7348294"><ele>34.333333333333336</ele><time>2026-04-21T11:36:38.94Z</time></trkpt><trkpt lat="44.4222053" lon="8.7350495"><ele>29.666666666666668</ele><time>2026-04-21T11:36:39.937Z</time></trkpt><trkpt lat="44.4222663" lon="8.7352569"><ele>25.0</ele><time>2026-04-21T11:36:40.941Z</time></trkpt><trkpt lat="44.4223872" lon="8.7354481"><ele>19.0</ele><time>2026-04-21T11:36:41.942Z</time></trkpt><trkpt lat="44.4225183" lon="8.7356339"><ele>13.0</ele><time>2026-04-21T11:36:42.941Z</time></trkpt><trkpt lat="44.4227513" lon="8.736011"><ele>10.0</ele><time>2026-04-21T11:36:44.939Z</time></trkpt><trkpt lat="44.4228381" lon="8.7362062"><ele>7.0</ele><time>2026-04-21T11:36:45.938Z</time></trkpt><trkpt lat="44.4228915" lon="8.7364025"><ele>4.0</ele><time>2026-04-21T11:36:46.936Z</time></trkpt><trkpt lat="44.4229297" lon="8.7365958"><ele>7.0</ele><time>2026-04-21T11:36:47.936Z</time></trkpt><trkpt lat="44.4230102" lon="8.7367724"><ele>10.0</ele><time>2026-04-21T11:36:48.941Z</time></trkpt><trkpt lat="44.4231323" lon="8.7369334"><ele>13.0</ele><time>2026-04-21T11:36:49.945Z</time></trkpt><trkpt lat="44.4232627" lon="8.7370854"><ele>13.0</ele><time>2026-04-21T11:36:50.938Z</time></trkpt><trkpt lat="44.4233933" lon="8.7372306"><ele>13.0</ele><time>2026-04-21T11:36:51.936Z</time></trkpt><trkpt lat="44.4235192" lon="8.7373786"><ele>13.0</ele><time>2026-04-21T11:36:52.934Z</time></trkpt><trkpt lat="44.4236336" lon="8.7375267"><ele>13.0</ele><time>2026-04-21T11:36:53.941Z</time></trkpt><trkpt lat="44.4237403" lon="8.7376626"><ele>13.0</ele><time>2026-04-21T11:36:54.94Z</time></trkpt><trkpt lat="44.4238449" lon="8.7377732"><ele>13.0</ele><time>2026-04-21T11:36:55.947Z</time></trkpt><trkpt lat="44.4239611" lon="8.737836"><ele>13.0</ele><time>2026-04-21T11:36:56.937Z</time></trkpt><trkpt lat="44.4240993" lon="8.7378257"><ele>10.75</ele><time>2026-04-21T11:36:57.937Z</time></trkpt><trkpt lat="44.4242412" lon="8.7377765"><ele>8.5</ele><time>2026-04-21T11:36:58.936Z</time></trkpt><trkpt lat="44.4243746" lon="8.7377436"><ele>6.25</ele><time>2026-04-21T11:36:59.944Z</time></trkpt><trkpt lat="44.4244979" lon="8.737748"><ele>4.0</ele><time>2026-04-21T11:37:00.938Z</time></trkpt><trkpt lat="44.4246071" lon="8.7378176"><ele>11.333333333333332</ele><time>2026-04-21T11:37:01.941Z</time></trkpt><trkpt lat="44.4246976" lon="8.7379493"><ele>18.666666666666664</ele><time>2026-04-21T11:37:02.942Z</time></trkpt><trkpt lat="44.4247682" lon="8.7381283"><ele>26.0</ele><time>2026-04-21T11:37:03.949Z</time></trkpt><trkpt lat="44.4249533" lon="8.7385357"><ele>21.0</ele><time>2026-04-21T11:37:05.944Z</time></trkpt><trkpt lat="44.4250791" lon="8.7387207"><ele>16.0</ele><time>2026-04-21T11:37:06.935Z</time></trkpt><trkpt lat="44.4252147" lon="8.7388973"><ele>11.0</ele><time>2026-04-21T11:37:07.943Z</time></trkpt><trkpt lat="44.4253537" lon="8.7390637"><ele>11.333333333333332</ele><time>2026-04-21T11:37:08.936Z</time></trkpt><trkpt lat="44.4254847" lon="8.7392315"><ele>11.666666666666666</ele><time>2026-04-21T11:37:09.939Z</time></trkpt><trkpt lat="44.4256041" lon="8.7394081"><ele>12.0</ele><time>2026-04-21T11:37:10.938Z</time></trkpt><trkpt lat="44.4257121" lon="8.7395935"><ele>12.0</ele><time>2026-04-21T11:37:11.939Z</time></trkpt><trkpt lat="44.4258083" lon="8.7397765"><ele>12.0</ele><time>2026-04-21T11:37:12.941Z</time></trkpt><trkpt lat="44.4259108" lon="8.739942"><ele>12.0</ele><time>2026-04-21T11:37:13.934Z</time></trkpt><trkpt lat="44.4260173" lon="8.7400873"><ele>14.0</ele><time>2026-04-21T11:37:14.935Z</time></trkpt><trkpt lat="44.4261223" lon="8.74022"><ele>16.0</ele><time>2026-04-21T11:37:15.949Z</time></trkpt><trkpt lat="44.4262178" lon="8.7403398"><ele>18.0</ele><time>2026-04-21T11:37:16.939Z</time></trkpt><trkpt lat="44.4263003" lon="8.740476"><ele>20.0</ele><time>2026-04-21T11:37:17.935Z</time></trkpt><trkpt lat="44.42635" lon="8.7406259"><ele>20.0</ele><time>2026-04-21T11:37:18.937Z</time></trkpt><trkpt lat="44.426375" lon="8.7407848"><ele>20.0</ele><time>2026-04-21T11:37:19.937Z</time></trkpt><trkpt lat="44.4264188" lon="8.7409373"><ele>20.0</ele><time>2026-04-21T11:37:20.934Z</time></trkpt><trkpt lat="44.426501" lon="8.741065"><ele>20.0</ele><time>2026-04-21T11:37:21.944Z</time></trkpt><trkpt lat="44.4266141" lon="8.7411811"><ele>14.666666666666668</ele><time>2026-04-21T11:37:22.944Z</time></trkpt><trkpt lat="44.4267313" lon="8.7413058"><ele>9.333333333333334</ele><time>2026-04-21T11:37:23.94Z</time></trkpt><trkpt lat="44.4268483" lon="8.7414384"><ele>4.0</ele><time>2026-04-21T11:37:24.933Z</time></trkpt><trkpt lat="44.4270528" lon="8.7417162"><ele>4.0</ele><time>2026-04-21T11:37:26.939Z</time></trkpt><trkpt lat="44.4271398" lon="8.741849"><ele>4.0</ele><time>2026-04-21T11:37:27.931Z</time></trkpt><trkpt lat="44.4272105" lon="8.741989"><ele>4.0</ele><time>2026-04-21T11:37:28.942Z</time></trkpt><trkpt lat="44.4272529" lon="8.7421306"><ele>4.0</ele><time>2026-04-21T11:37:29.938Z</time></trkpt><trkpt lat="44.4272705" lon="8.7422767"><ele>4.2</ele><time>2026-04-21T11:37:30.932Z</time></trkpt><trkpt lat="44.4272778" lon="8.7424142"><ele>4.4</ele><time>2026-04-21T11:37:31.941Z</time></trkpt><trkpt lat="44.4272852" lon="8.7425474"><ele>4.6</ele><time>2026-04-21T11:37:32.942Z</time></trkpt><trkpt lat="44.4272923" lon="8.742674"><ele>4.8</ele><time>2026-04-21T11:37:33.937Z</time></trkpt><trkpt lat="44.4272983" lon="8.7427948"><ele>5.0</ele><time>2026-04-21T11:37:34.934Z</time></trkpt><trkpt lat="44.4273004" lon="8.7429152"><ele>5.2</ele><time>2026-04-21T11:37:35.942Z</time></trkpt><trkpt lat="44.4273095" lon="8.7430306"><ele>5.4</ele><time>2026-04-21T11:37:36.935Z</time></trkpt><trkpt lat="44.4273336" lon="8.7431536"><ele>5.6</ele><time>2026-04-21T11:37:37.936Z</time></trkpt><trkpt lat="44.4273722" lon="8.7432814"><ele>5.8</ele><time>2026-04-21T11:37:38.941Z</time></trkpt><trkpt lat="44.4274146" lon="8.7434105"><ele>6.0</ele><time>2026-04-21T11:37:39.938Z</time></trkpt><trkpt lat="44.4274566" lon="8.7435412"><ele>6.199999999999999</ele><time>2026-04-21T11:37:40.939Z</time></trkpt><trkpt lat="44.4274993" lon="8.7436661"><ele>6.3999999999999995</ele><time>2026-04-21T11:37:41.936Z</time></trkpt><trkpt lat="44.4275472" lon="8.7437896"><ele>6.6</ele><time>2026-04-21T11:37:42.941Z</time></trkpt><trkpt lat="44.4275967" lon="8.7439111"><ele>6.8</ele><time>2026-04-21T11:37:43.941Z</time></trkpt><trkpt lat="44.4276495" lon="8.7440363"><ele>7.0</ele><time>2026-04-21T11:37:44.935Z</time></trkpt><trkpt lat="44.4277022" lon="8.7441624"><ele>6.25</ele><time>2026-04-21T11:37:45.935Z</time></trkpt><trkpt lat="44.4278023" lon="8.7444236"><ele>5.5</ele><time>2026-04-21T11:37:47.937Z</time></trkpt><trkpt lat="44.4278509" lon="8.7445564"><ele>4.75</ele><time>2026-04-21T11:37:48.933Z</time></trkpt><trkpt lat="44.4278978" lon="8.7446892"><ele>4.0</ele><time>2026-04-21T11:37:49.937Z</time></trkpt><trkpt lat="44.4279493" lon="8.7448266"><ele>5.2</ele><time>2026-04-21T11:37:50.932Z</time></trkpt><trkpt lat="44.4280023" lon="8.7449642"><ele>6.4</ele><time>2026-04-21T11:37:51.94Z</time></trkpt><trkpt lat="44.4280546" lon="8.7450963"><ele>7.6</ele><time>2026-04-21T11:37:52.941Z</time></trkpt><trkpt lat="44.4281086" lon="8.7452269"><ele>8.8</ele><time>2026-04-21T11:37:53.939Z</time></trkpt><trkpt lat="44.4281645" lon="8.7453578"><ele>10.0</ele><time>2026-04-21T11:37:54.938Z</time></trkpt><trkpt lat="44.4282164" lon="8.7454914"><ele>10.0</ele><time>2026-04-21T11:37:55.941Z</time></trkpt><trkpt lat="44.428266" lon="8.7456264"><ele>10.0</ele><time>2026-04-21T11:37:56.937Z</time></trkpt><trkpt lat="44.4283165" lon="8.7457666"><ele>10.0</ele><time>2026-04-21T11:37:57.934Z</time></trkpt><trkpt lat="44.4283669" lon="8.745911"><ele>10.0</ele><time>2026-04-21T11:37:58.935Z</time></trkpt><trkpt lat="44.4284193" lon="8.7460573"><ele>9.6</ele><time>2026-04-21T11:37:59.934Z</time></trkpt><trkpt lat="44.4284699" lon="8.7462029"><ele>9.2</ele><time>2026-04-21T11:38:00.934Z</time></trkpt><trkpt lat="44.4285181" lon="8.7463435"><ele>8.8</ele><time>2026-04-21T11:38:01.934Z</time></trkpt><trkpt lat="44.4285581" lon="8.7464837"><ele>8.4</ele><time>2026-04-21T11:38:02.942Z</time></trkpt><trkpt lat="44.4285862" lon="8.7466276"><ele>8.0</ele><time>2026-04-21T11:38:03.934Z</time></trkpt><trkpt lat="44.4286003" lon="8.7467781"><ele>7.5</ele><time>2026-04-21T11:38:04.935Z</time></trkpt><trkpt lat="44.4286018" lon="8.746927"><ele>7.0</ele><time>2026-04-21T11:38:05.934Z</time></trkpt><trkpt lat="44.428595" lon="8.7470745"><ele>6.5</ele><time>2026-04-21T11:38:06.936Z</time></trkpt><trkpt lat="44.4285889" lon="8.74737"><ele>6.0</ele><time>2026-04-21T11:38:08.942Z</time></trkpt><trkpt lat="44.4285851" lon="8.7475183"><ele>6.0</ele><time>2026-04-21T11:38:09.935Z</time></trkpt><trkpt lat="44.4285801" lon="8.7476679"><ele>6.0</ele><time>2026-04-21T11:38:10.934Z</time></trkpt><trkpt lat="44.4285779" lon="8.7478229"><ele>6.0</ele><time>2026-04-21T11:38:11.937Z</time></trkpt><trkpt lat="44.4285831" lon="8.7479753"><ele>6.0</ele><time>2026-04-21T11:38:12.934Z</time></trkpt><trkpt lat="44.428585" lon="8.7481298"><ele>6.0</ele><time>2026-04-21T11:38:13.936Z</time></trkpt><trkpt lat="44.4285801" lon="8.7482889"><ele>6.166666666666667</ele><time>2026-04-21T11:38:14.935Z</time></trkpt><trkpt lat="44.4285734" lon="8.7484405"><ele>6.333333333333334</ele><time>2026-04-21T11:38:15.94Z</time></trkpt><trkpt lat="44.4285691" lon="8.7485792"><ele>6.5</ele><time>2026-04-21T11:38:16.933Z</time></trkpt><trkpt lat="44.4285747" lon="8.7487009"><ele>6.666666666666667</ele><time>2026-04-21T11:38:17.936Z</time></trkpt><trkpt lat="44.4285768" lon="8.7488077"><ele>6.833333333333334</ele><time>2026-04-21T11:38:18.938Z</time></trkpt><trkpt lat="44.4285701" lon="8.7489115"><ele>7.0</ele><time>2026-04-21T11:38:19.942Z</time></trkpt><trkpt lat="44.4285629" lon="8.7490023"><ele>7.0</ele><time>2026-04-21T11:38:20.934Z</time></trkpt><trkpt lat="44.4285489" lon="8.7491634"><ele>6.999999999999999</ele><time>2026-04-21T11:38:22.941Z</time></trkpt><trkpt lat="44.4285374" lon="8.7493323"><ele>6.999999999999999</ele><time>2026-04-21T11:38:24.943Z</time></trkpt><trkpt lat="44.4285297" lon="8.7494305"><ele>7.0</ele><time>2026-04-21T11:38:25.936Z</time></trkpt><trkpt lat="44.4285214" lon="8.7495388"><ele>7.0</ele><time>2026-04-21T11:38:26.94Z</time></trkpt><trkpt lat="44.4285158" lon="8.7496547"><ele>7.199999999999999</ele><time>2026-04-21T11:38:27.935Z</time></trkpt><trkpt lat="44.4285062" lon="8.7498881"><ele>7.3999999999999995</ele><time>2026-04-21T11:38:29.933Z</time></trkpt><trkpt lat="44.428498" lon="8.7499999"><ele>7.6000000000000005</ele><time>2026-04-21T11:38:30.94Z</time></trkpt><trkpt lat="44.4284883" lon="8.7501067"><ele>7.800000000000001</ele><time>2026-04-21T11:38:31.934Z</time></trkpt><trkpt lat="44.4284732" lon="8.7502175"><ele>8.0</ele><time>2026-04-21T11:38:32.937Z</time></trkpt><trkpt lat="44.4284604" lon="8.7503354"><ele>7.999999999999999</ele><time>2026-04-21T11:38:33.941Z</time></trkpt><trkpt lat="44.4284489" lon="8.7504573"><ele>8.0</ele><time>2026-04-21T11:38:34.944Z</time></trkpt><trkpt lat="44.42844" lon="8.7505748"><ele>8.0</ele><time>2026-04-21T11:38:35.941Z</time></trkpt><trkpt lat="44.4284297" lon="8.750692"><ele>8.0</ele><time>2026-04-21T11:38:36.944Z</time></trkpt><trkpt lat="44.4284202" lon="8.7508162"><ele>7.999999999999999</ele><time>2026-04-21T11:38:37.946Z</time></trkpt><trkpt lat="44.4284083" lon="8.7509426"><ele>8.0</ele><time>2026-04-21T11:38:38.943Z</time></trkpt><trkpt lat="44.4283964" lon="8.7510706"><ele>7.833333333333333</ele><time>2026-04-21T11:38:39.94Z</time></trkpt><trkpt lat="44.4283896" lon="8.7511928"><ele>7.666666666666666</ele><time>2026-04-21T11:38:40.94Z</time></trkpt><trkpt lat="44.4283801" lon="8.7513168"><ele>7.5</ele><time>2026-04-21T11:38:41.932Z</time></trkpt><trkpt lat="44.428369" lon="8.7514472"><ele>7.333333333333334</ele><time>2026-04-21T11:38:42.934Z</time></trkpt><trkpt lat="44.4283562" lon="8.7515645"><ele>7.166666666666667</ele><time>2026-04-21T11:38:43.94Z</time></trkpt><trkpt lat="44.4283441" lon="8.7516911"><ele>7.0</ele><time>2026-04-21T11:38:44.936Z</time></trkpt><trkpt lat="44.4283306" lon="8.7518068"><ele>7.5</ele><time>2026-04-21T11:38:45.942Z</time></trkpt><trkpt lat="44.4283203" lon="8.7519121"><ele>8.0</ele><time>2026-04-21T11:38:46.933Z</time></trkpt><trkpt lat="44.428313" lon="8.7520082"><ele>8.5</ele><time>2026-04-21T11:38:47.941Z</time></trkpt><trkpt lat="44.4283002" lon="8.7521702"><ele>9.0</ele><time>2026-04-21T11:38:49.934Z</time></trkpt><trkpt lat="44.4283119" lon="8.7524505"><ele>9.0</ele><time>2026-04-21T11:38:53.941Z</time></trkpt><trkpt lat="44.428324" lon="8.7526106"><ele>9.0</ele><time>2026-04-21T11:38:55.94Z</time></trkpt><trkpt lat="44.4283403" lon="8.7527508"><ele>9.0</ele><time>2026-04-21T11:38:57.93Z</time></trkpt><trkpt lat="44.4283537" lon="8.7528881"><ele>9.0</ele><time>2026-04-21T11:38:59.933Z</time></trkpt><trkpt lat="44.4283639" lon="8.7530197"><ele>9.0</ele><time>2026-04-21T11:39:01.935Z</time></trkpt><trkpt lat="44.4283658" lon="8.753132"><ele>9.0</ele><time>2026-04-21T11:39:03.939Z</time></trkpt><trkpt lat="44.428374" lon="8.753257"><ele>9.0</ele><time>2026-04-21T11:39:05.943Z</time></trkpt><trkpt lat="44.4283913" lon="8.7534286"><ele>9.0</ele><time>2026-04-21T11:39:07.944Z</time></trkpt><trkpt lat="44.4283962" lon="8.7535238"><ele>9.0</ele><time>2026-04-21T11:39:08.935Z</time></trkpt><trkpt lat="44.428406" lon="8.7536188"><ele>9.0</ele><time>2026-04-21T11:39:09.932Z</time></trkpt><trkpt lat="44.4284104" lon="8.7537111"><ele>9.0</ele><time>2026-04-21T11:39:10.939Z</time></trkpt><trkpt lat="44.4284128" lon="8.753906"><ele>8.833333333333334</ele><time>2026-04-21T11:39:12.942Z</time></trkpt><trkpt lat="44.4284118" lon="8.7540121"><ele>8.666666666666666</ele><time>2026-04-21T11:39:13.93Z</time></trkpt><trkpt lat="44.4284115" lon="8.7541208"><ele>8.5</ele><time>2026-04-21T11:39:14.942Z</time></trkpt><trkpt lat="44.4284127" lon="8.7542358"><ele>8.333333333333332</ele><time>2026-04-21T11:39:15.935Z</time></trkpt><trkpt lat="44.4284153" lon="8.7543563"><ele>8.166666666666666</ele><time>2026-04-21T11:39:16.938Z</time></trkpt><trkpt lat="44.4284231" lon="8.7544815"><ele>8.0</ele><time>2026-04-21T11:39:17.937Z</time></trkpt><trkpt lat="44.4284296" lon="8.7546106"><ele>7.666666666666666</ele><time>2026-04-21T11:39:18.936Z</time></trkpt><trkpt lat="44.4284327" lon="8.7547415"><ele>7.333333333333333</ele><time>2026-04-21T11:39:19.933Z</time></trkpt><trkpt lat="44.428438" lon="8.7548675"><ele>7.0</ele><time>2026-04-21T11:39:20.936Z</time></trkpt><trkpt lat="44.4284439" lon="8.7549879"><ele>6.666666666666666</ele><time>2026-04-21T11:39:21.934Z</time></trkpt><trkpt lat="44.4284478" lon="8.7551011"><ele>6.333333333333333</ele><time>2026-04-21T11:39:22.939Z</time></trkpt><trkpt lat="44.4284517" lon="8.7552051"><ele>6.0</ele><time>2026-04-21T11:39:23.936Z</time></trkpt><trkpt lat="44.4284542" lon="8.7553027"><ele>6.0</ele><time>2026-04-21T11:39:24.941Z</time></trkpt><trkpt lat="44.4284567" lon="8.7553977"><ele>6.0</ele><time>2026-04-21T11:39:25.944Z</time></trkpt><trkpt lat="44.4284594" lon="8.7554888"><ele>6.0</ele><time>2026-04-21T11:39:26.939Z</time></trkpt><trkpt lat="44.428463" lon="8.7555776"><ele>6.0</ele><time>2026-04-21T11:39:27.941Z</time></trkpt><trkpt lat="44.42847" lon="8.7557521"><ele>6.0</ele><time>2026-04-21T11:39:29.937Z</time></trkpt><trkpt lat="44.4284699" lon="8.7558463"><ele>6.0</ele><time>2026-04-21T11:39:30.938Z</time></trkpt><trkpt lat="44.4284706" lon="8.7559397"><ele>6.0</ele><time>2026-04-21T11:39:31.943Z</time></trkpt><trkpt lat="44.4284669" lon="8.7562899"><ele>6.0</ele><time>2026-04-21T11:39:35.945Z</time></trkpt><trkpt lat="44.4284661" lon="8.7563797"><ele>6.0</ele><time>2026-04-21T11:39:36.938Z</time></trkpt><trkpt lat="44.4284668" lon="8.7564692"><ele>6.0</ele><time>2026-04-21T11:39:37.935Z</time></trkpt><trkpt lat="44.4284648" lon="8.7565659"><ele>6.0</ele><time>2026-04-21T11:39:38.939Z</time></trkpt><trkpt lat="44.4284611" lon="8.7566661"><ele>6.0</ele><time>2026-04-21T11:39:39.94Z</time></trkpt><trkpt lat="44.4284566" lon="8.7567696"><ele>6.0</ele><time>2026-04-21T11:39:40.933Z</time></trkpt><trkpt lat="44.428448" lon="8.7568728"><ele>6.0</ele><time>2026-04-21T11:39:41.931Z</time></trkpt><trkpt lat="44.4284329" lon="8.7569802"><ele>6.0</ele><time>2026-04-21T11:39:42.935Z</time></trkpt><trkpt lat="44.4284102" lon="8.7570897"><ele>6.0</ele><time>2026-04-21T11:39:43.944Z</time></trkpt><trkpt lat="44.4283847" lon="8.7572002"><ele>6.0</ele><time>2026-04-21T11:39:44.935Z</time></trkpt><trkpt lat="44.4283597" lon="8.7573093"><ele>6.166666666666667</ele><time>2026-04-21T11:39:45.939Z</time></trkpt><trkpt lat="44.4283369" lon="8.7574191"><ele>6.333333333333334</ele><time>2026-04-21T11:39:46.939Z</time></trkpt><trkpt lat="44.4283288" lon="8.7575331"><ele>6.5</ele><time>2026-04-21T11:39:47.94Z</time></trkpt><trkpt lat="44.42835" lon="8.7576483"><ele>6.666666666666667</ele><time>2026-04-21T11:39:48.937Z</time></trkpt><trkpt lat="44.428395" lon="8.7577585"><ele>6.833333333333334</ele><time>2026-04-21T11:39:49.937Z</time></trkpt><trkpt lat="44.4284563" lon="8.7578591"><ele>7.0</ele><time>2026-04-21T11:39:50.936Z</time></trkpt><trkpt lat="44.4285241" lon="8.7579562"><ele>7.0</ele><time>2026-04-21T11:39:51.938Z</time></trkpt><trkpt lat="44.4285919" lon="8.7580564"><ele>7.0</ele><time>2026-04-21T11:39:52.934Z</time></trkpt><trkpt lat="44.4287117" lon="8.7582769"><ele>7.0</ele><time>2026-04-21T11:39:54.937Z</time></trkpt><trkpt lat="44.4287548" lon="8.7583947"><ele>7.0</ele><time>2026-04-21T11:39:55.944Z</time></trkpt><trkpt lat="44.4287909" lon="8.7585225"><ele>9.8</ele><time>2026-04-21T11:39:56.936Z</time></trkpt><trkpt lat="44.4288206" lon="8.7586594"><ele>12.6</ele><time>2026-04-21T11:39:57.943Z</time></trkpt><trkpt lat="44.4288362" lon="8.7587967"><ele>15.400000000000002</ele><time>2026-04-21T11:39:58.942Z</time></trkpt><trkpt lat="44.4288431" lon="8.7589378"><ele>18.2</ele><time>2026-04-21T11:39:59.938Z</time></trkpt><trkpt lat="44.4288475" lon="8.7590788"><ele>21.0</ele><time>2026-04-21T11:40:00.942Z</time></trkpt><trkpt lat="44.4288478" lon="8.7592204"><ele>21.0</ele><time>2026-04-21T11:40:01.935Z</time></trkpt><trkpt lat="44.4288408" lon="8.7593592"><ele>21.0</ele><time>2026-04-21T11:40:02.938Z</time></trkpt><trkpt lat="44.4288218" lon="8.7595055"><ele>21.0</ele><time>2026-04-21T11:40:03.939Z</time></trkpt><trkpt lat="44.4287993" lon="8.7596498"><ele>21.0</ele><time>2026-04-21T11:40:04.938Z</time></trkpt><trkpt lat="44.4287771" lon="8.759788"><ele>21.0</ele><time>2026-04-21T11:40:05.942Z</time></trkpt><trkpt lat="44.4287571" lon="8.7599235"><ele>18.666666666666668</ele><time>2026-04-21T11:40:06.937Z</time></trkpt><trkpt lat="44.428738" lon="8.7600513"><ele>16.333333333333332</ele><time>2026-04-21T11:40:07.936Z</time></trkpt><trkpt lat="44.42872" lon="8.7601727"><ele>14.0</ele><time>2026-04-21T11:40:08.941Z</time></trkpt><trkpt lat="44.4287044" lon="8.7602908"><ele>11.666666666666668</ele><time>2026-04-21T11:40:09.937Z</time></trkpt><trkpt lat="44.4286846" lon="8.7603924"><ele>9.333333333333334</ele><time>2026-04-21T11:40:10.937Z</time></trkpt><trkpt lat="44.4286673" lon="8.7604908"><ele>7.0</ele><time>2026-04-21T11:40:11.943Z</time></trkpt><trkpt lat="44.4286546" lon="8.7605937"><ele>6.8</ele><time>2026-04-21T11:40:12.943Z</time></trkpt><trkpt lat="44.4286459" lon="8.7606963"><ele>6.6</ele><time>2026-04-21T11:40:13.937Z</time></trkpt><trkpt lat="44.4285996" lon="8.7609522"><ele>6.3999999999999995</ele><time>2026-04-21T11:40:16.935Z</time></trkpt><trkpt lat="44.4285871" lon="8.7610513"><ele>6.199999999999999</ele><time>2026-04-21T11:40:17.944Z</time></trkpt><trkpt lat="44.428574" lon="8.7611623"><ele>6.0</ele><time>2026-04-21T11:40:18.938Z</time></trkpt><trkpt lat="44.428557" lon="8.7612672"><ele>6.333333333333333</ele><time>2026-04-21T11:40:19.943Z</time></trkpt><trkpt lat="44.4285385" lon="8.761368"><ele>6.666666666666666</ele><time>2026-04-21T11:40:20.936Z</time></trkpt><trkpt lat="44.4285208" lon="8.7614666"><ele>7.0</ele><time>2026-04-21T11:40:21.947Z</time></trkpt><trkpt lat="44.4285" lon="8.7615521"><ele>7.333333333333333</ele><time>2026-04-21T11:40:22.935Z</time></trkpt><trkpt lat="44.428458" lon="8.761704"><ele>7.666666666666666</ele><time>2026-04-21T11:40:24.941Z</time></trkpt><trkpt lat="44.4284288" lon="8.7618522"><ele>8.0</ele><time>2026-04-21T11:40:26.945Z</time></trkpt><trkpt lat="44.4284081" lon="8.7619419"><ele>7.999999999999999</ele><time>2026-04-21T11:40:27.939Z</time></trkpt><trkpt lat="44.4283858" lon="8.7620438"><ele>8.0</ele><time>2026-04-21T11:40:28.941Z</time></trkpt><trkpt lat="44.4283619" lon="8.7621533"><ele>8.0</ele><time>2026-04-21T11:40:29.938Z</time></trkpt><trkpt lat="44.4283333" lon="8.7622578"><ele>8.0</ele><time>2026-04-21T11:40:30.933Z</time></trkpt><trkpt lat="44.428304" lon="8.762358"><ele>7.999999999999999</ele><time>2026-04-21T11:40:31.94Z</time></trkpt><trkpt lat="44.4282825" lon="8.7624589"><ele>8.0</ele><time>2026-04-21T11:40:32.945Z</time></trkpt><trkpt lat="44.4282666" lon="8.7625557"><ele>8.0</ele><time>2026-04-21T11:40:33.935Z</time></trkpt><trkpt lat="44.4282503" lon="8.7626449"><ele>8.0</ele><time>2026-04-21T11:40:34.935Z</time></trkpt><trkpt lat="44.4282219" lon="8.7629366"><ele>8.0</ele><time>2026-04-21T11:40:38.941Z</time></trkpt><trkpt lat="44.4282194" lon="8.763046"><ele>8.0</ele><time>2026-04-21T11:40:40.943Z</time></trkpt><trkpt lat="44.4282251" lon="8.7631364"><ele>8.0</ele><time>2026-04-21T11:40:43.941Z</time></trkpt><trkpt lat="44.4282202" lon="8.7632252"><ele>7.800000000000001</ele><time>2026-04-21T11:40:54.945Z</time></trkpt><trkpt lat="44.4282218" lon="8.7633356"><ele>7.6000000000000005</ele><time>2026-04-21T11:41:03.937Z</time></trkpt><trkpt lat="44.4282166" lon="8.7635756"><ele>7.3999999999999995</ele><time>2026-04-21T11:41:09.939Z</time></trkpt><trkpt lat="44.4282034" lon="8.7636833"><ele>7.199999999999999</ele><time>2026-04-21T11:41:11.936Z</time></trkpt><trkpt lat="44.4281938" lon="8.7638215"><ele>7.0</ele><time>2026-04-21T11:41:13.943Z</time></trkpt><trkpt lat="44.4281863" lon="8.7639628"><ele>7.000000000000001</ele><time>2026-04-21T11:41:15.939Z</time></trkpt><trkpt lat="44.4281752" lon="8.7641211"><ele>7.0</ele><time>2026-04-21T11:41:17.941Z</time></trkpt><trkpt lat="44.4281713" lon="8.7642097"><ele>7.0</ele><time>2026-04-21T11:41:18.943Z</time></trkpt><trkpt lat="44.4281682" lon="8.7643009"><ele>7.0</ele><time>2026-04-21T11:41:19.945Z</time></trkpt><trkpt lat="44.4281627" lon="8.7643993"><ele>7.000000000000001</ele><time>2026-04-21T11:41:20.943Z</time></trkpt><trkpt lat="44.4281585" lon="8.7645129"><ele>7.0</ele><time>2026-04-21T11:41:21.939Z</time></trkpt><trkpt lat="44.4281541" lon="8.7646364"><ele>7.0</ele><time>2026-04-21T11:41:22.94Z</time></trkpt><trkpt lat="44.4281498" lon="8.7647679"><ele>7.0</ele><time>2026-04-21T11:41:23.941Z</time></trkpt><trkpt lat="44.4281418" lon="8.7649105"><ele>7.0</ele><time>2026-04-21T11:41:24.94Z</time></trkpt><trkpt lat="44.4281234" lon="8.7652016"><ele>7.0</ele><time>2026-04-21T11:41:26.943Z</time></trkpt><trkpt lat="44.4281175" lon="8.7653421"><ele>7.000000000000001</ele><time>2026-04-21T11:41:27.943Z</time></trkpt><trkpt lat="44.4281149" lon="8.7654781"><ele>7.0</ele><time>2026-04-21T11:41:28.939Z</time></trkpt><trkpt lat="44.4281112" lon="8.7656053"><ele>7.0</ele><time>2026-04-21T11:41:29.941Z</time></trkpt><trkpt lat="44.4281073" lon="8.7657252"><ele>7.0</ele><time>2026-04-21T11:41:30.947Z</time></trkpt><trkpt lat="44.4281022" lon="8.7658409"><ele>7.000000000000001</ele><time>2026-04-21T11:41:31.941Z</time></trkpt><trkpt lat="44.4280978" lon="8.7659582"><ele>7.0</ele><time>2026-04-21T11:41:32.949Z</time></trkpt><trkpt lat="44.4280932" lon="8.7660788"><ele>7.0</ele><time>2026-04-21T11:41:33.945Z</time></trkpt><trkpt lat="44.428088" lon="8.7662045"><ele>6.999999999999999</ele><time>2026-04-21T11:41:34.945Z</time></trkpt><trkpt lat="44.4280842" lon="8.7663399"><ele>6.999999999999999</ele><time>2026-04-21T11:41:35.943Z</time></trkpt><trkpt lat="44.4280842" lon="8.7664919"><ele>7.0</ele><time>2026-04-21T11:41:36.94Z</time></trkpt><trkpt lat="44.4280871" lon="8.7666676"><ele>7.0</ele><time>2026-04-21T11:41:37.936Z</time></trkpt><trkpt lat="44.428079" lon="8.76687"><ele>7.5</ele><time>2026-04-21T11:41:38.941Z</time></trkpt><trkpt lat="44.4280658" lon="8.7670745"><ele>8.0</ele><time>2026-04-21T11:41:39.943Z</time></trkpt><trkpt lat="44.428052" lon="8.7672685"><ele>8.5</ele><time>2026-04-21T11:41:40.937Z</time></trkpt><trkpt lat="44.4280456" lon="8.7674482"><ele>9.0</ele><time>2026-04-21T11:41:41.935Z</time></trkpt><trkpt lat="44.4280409" lon="8.7676084"><ele>9.6</ele><time>2026-04-21T11:41:42.934Z</time></trkpt><trkpt lat="44.4280372" lon="8.7677486"><ele>10.2</ele><time>2026-04-21T11:41:43.935Z</time></trkpt><trkpt lat="44.4280326" lon="8.7678715"><ele>10.799999999999999</ele><time>2026-04-21T11:41:44.934Z</time></trkpt><trkpt lat="44.4280266" lon="8.7679812"><ele>11.4</ele><time>2026-04-21T11:41:45.94Z</time></trkpt><trkpt lat="44.4280154" lon="8.7681781"><ele>12.0</ele><time>2026-04-21T11:41:47.935Z</time></trkpt><trkpt lat="44.4280066" lon="8.7682786"><ele>12.0</ele><time>2026-04-21T11:41:48.938Z</time></trkpt><trkpt lat="44.4280008" lon="8.7683679"><ele>12.0</ele><time>2026-04-21T11:41:49.935Z</time></trkpt><trkpt lat="44.4279936" lon="8.7684989"><ele>12.0</ele><time>2026-04-21T11:41:51.934Z</time></trkpt><trkpt lat="44.4279949" lon="8.7685874"><ele>12.0</ele><time>2026-04-21T11:41:54.941Z</time></trkpt><trkpt lat="44.4279653" lon="8.7686955"><ele>12.0</ele><time>2026-04-21T11:43:21.941Z</time></trkpt><trkpt lat="44.4279489" lon="8.7689222"><ele>11.4</ele><time>2026-04-21T11:43:25.944Z</time></trkpt><trkpt lat="44.4279416" lon="8.7690686"><ele>10.799999999999999</ele><time>2026-04-21T11:43:27.959Z</time></trkpt><trkpt lat="44.4279401" lon="8.7692232"><ele>10.2</ele><time>2026-04-21T11:43:29.944Z</time></trkpt><trkpt lat="44.4279402" lon="8.7693659"><ele>9.6</ele><time>2026-04-21T11:43:31.944Z</time></trkpt><trkpt lat="44.4279463" lon="8.7694662"><ele>9.0</ele><time>2026-04-21T11:43:33.959Z</time></trkpt><trkpt lat="44.4279814" lon="8.769556"><ele>9.0</ele><time>2026-04-21T11:43:35.962Z</time></trkpt><trkpt lat="44.4280473" lon="8.7696048"><ele>9.0</ele><time>2026-04-21T11:43:37.943Z</time></trkpt><trkpt lat="44.4281611" lon="8.7695579"><ele>9.0</ele><time>2026-04-21T11:43:39.938Z</time></trkpt><trkpt lat="44.4282436" lon="8.7695033"><ele>9.0</ele><time>2026-04-21T11:43:40.952Z</time></trkpt><trkpt lat="44.4283343" lon="8.7694431"><ele>9.0</ele><time>2026-04-21T11:43:41.951Z</time></trkpt><trkpt lat="44.4284204" lon="8.769376"><ele>9.0</ele><time>2026-04-21T11:43:42.95Z</time></trkpt><trkpt lat="44.4285737" lon="8.7692286"><ele>9.0</ele><time>2026-04-21T11:43:44.947Z</time></trkpt><trkpt lat="44.4286471" lon="8.7691432"><ele>9.0</ele><time>2026-04-21T11:43:45.951Z</time></trkpt><trkpt lat="44.4287231" lon="8.769042"><ele>9.0</ele><time>2026-04-21T11:43:46.945Z</time></trkpt><trkpt lat="44.428798" lon="8.7689344"><ele>9.8</ele><time>2026-04-21T11:43:47.954Z</time></trkpt><trkpt lat="44.4288604" lon="8.7688212"><ele>10.600000000000001</ele><time>2026-04-21T11:43:48.951Z</time></trkpt><trkpt lat="44.4289127" lon="8.7687112"><ele>11.4</ele><time>2026-04-21T11:43:49.953Z</time></trkpt><trkpt lat="44.4289522" lon="8.7685932"><ele>12.200000000000001</ele><time>2026-04-21T11:43:50.952Z</time></trkpt><trkpt lat="44.4289821" lon="8.7684805"><ele>13.0</ele><time>2026-04-21T11:43:51.952Z</time></trkpt><trkpt lat="44.4290099" lon="8.7683698"><ele>12.999999999999998</ele><time>2026-04-21T11:43:52.944Z</time></trkpt><trkpt lat="44.4290343" lon="8.7682526"><ele>13.0</ele><time>2026-04-21T11:43:53.944Z</time></trkpt><trkpt lat="44.4290557" lon="8.7681348"><ele>13.0</ele><time>2026-04-21T11:43:54.935Z</time></trkpt><trkpt lat="44.4290718" lon="8.7680182"><ele>13.0</ele><time>2026-04-21T11:43:55.955Z</time></trkpt><trkpt lat="44.4290854" lon="8.7679026"><ele>12.999999999999998</ele><time>2026-04-21T11:43:56.949Z</time></trkpt><trkpt lat="44.4290964" lon="8.7677887"><ele>13.0</ele><time>2026-04-21T11:43:57.954Z</time></trkpt><trkpt lat="44.4291072" lon="8.7676752"><ele>12.999999999999998</ele><time>2026-04-21T11:43:58.955Z</time></trkpt><trkpt lat="44.4291137" lon="8.7675543"><ele>13.0</ele><time>2026-04-21T11:43:59.96Z</time></trkpt><trkpt lat="44.4291203" lon="8.7674425"><ele>13.0</ele><time>2026-04-21T11:44:00.944Z</time></trkpt><trkpt lat="44.4291245" lon="8.7673361"><ele>13.0</ele><time>2026-04-21T11:44:01.964Z</time></trkpt><trkpt lat="44.4291287" lon="8.7672263"><ele>12.999999999999998</ele><time>2026-04-21T11:44:02.955Z</time></trkpt><trkpt lat="44.429132" lon="8.7671174"><ele>13.0</ele><time>2026-04-21T11:44:03.961Z</time></trkpt><trkpt lat="44.429135" lon="8.7669239"><ele>13.0</ele><time>2026-04-21T11:44:05.952Z</time></trkpt><trkpt lat="44.4291336" lon="8.7667941"><ele>13.0</ele><time>2026-04-21T11:44:07.946Z</time></trkpt><trkpt lat="44.4291283" lon="8.7666954"><ele>13.0</ele><time>2026-04-21T11:44:10.951Z</time></trkpt><trkpt lat="44.4291583" lon="8.7666177"><ele>13.0</ele><time>2026-04-21T11:44:24.955Z</time></trkpt><trkpt lat="44.4291834" lon="8.7663217"><ele>13.0</ele><time>2026-04-21T11:44:34.954Z</time></trkpt><trkpt lat="44.4291741" lon="8.7661649"><ele>12.5</ele><time>2026-04-21T11:44:35.954Z</time></trkpt><trkpt lat="44.4291536" lon="8.7659808"><ele>12.0</ele><time>2026-04-21T11:44:36.95Z</time></trkpt><trkpt lat="44.429136" lon="8.7657706"><ele>11.5</ele><time>2026-04-21T11:44:37.944Z</time></trkpt><trkpt lat="44.4291151" lon="8.7655525"><ele>11.0</ele><time>2026-04-21T11:44:38.945Z</time></trkpt><trkpt lat="44.4290971" lon="8.7653537"><ele>11.5</ele><time>2026-04-21T11:44:39.954Z</time></trkpt><trkpt lat="44.4290833" lon="8.7651662"><ele>12.0</ele><time>2026-04-21T11:44:40.953Z</time></trkpt><trkpt lat="44.4290832" lon="8.7649919"><ele>12.5</ele><time>2026-04-21T11:44:41.944Z</time></trkpt><trkpt lat="44.4291172" lon="8.7648386"><ele>13.0</ele><time>2026-04-21T11:44:42.947Z</time></trkpt><trkpt lat="44.4291801" lon="8.764726"><ele>13.0</ele><time>2026-04-21T11:44:43.951Z</time></trkpt><trkpt lat="44.4292491" lon="8.764652"><ele>13.0</ele><time>2026-04-21T11:44:44.954Z</time></trkpt><trkpt lat="44.4293271" lon="8.7646207"><ele>13.0</ele><time>2026-04-21T11:44:45.959Z</time></trkpt><trkpt lat="44.4294946" lon="8.7646567"><ele>13.0</ele><time>2026-04-21T11:44:47.944Z</time></trkpt><trkpt lat="44.4295651" lon="8.7647084"><ele>13.0</ele><time>2026-04-21T11:44:48.945Z</time></trkpt><trkpt lat="44.4296322" lon="8.7647834"><ele>14.600000000000001</ele><time>2026-04-21T11:44:49.935Z</time></trkpt><trkpt lat="44.429688" lon="8.7648669"><ele>16.200000000000003</ele><time>2026-04-21T11:44:50.941Z</time></trkpt><trkpt lat="44.4297401" lon="8.7649684"><ele>17.8</ele><time>2026-04-21T11:44:51.931Z</time></trkpt><trkpt lat="44.4297628" lon="8.7650699"><ele>19.400000000000002</ele><time>2026-04-21T11:44:52.938Z</time></trkpt><trkpt lat="44.4297094" lon="8.7652281"><ele>21.0</ele><time>2026-04-21T11:44:54.933Z</time></trkpt><trkpt lat="44.4296441" lon="8.7654118"><ele>19.0</ele><time>2026-04-21T11:44:55.942Z</time></trkpt><trkpt lat="44.4295819" lon="8.765574"><ele>17.0</ele><time>2026-04-21T11:44:56.936Z</time></trkpt><trkpt lat="44.4295443" lon="8.7657335"><ele>15.0</ele><time>2026-04-21T11:44:57.943Z</time></trkpt><trkpt lat="44.4295033" lon="8.7658837"><ele>13.0</ele><time>2026-04-21T11:44:58.943Z</time></trkpt><trkpt lat="44.4294596" lon="8.7660447"><ele>13.0</ele><time>2026-04-21T11:44:59.938Z</time></trkpt><trkpt lat="44.4294231" lon="8.7662085"><ele>13.0</ele><time>2026-04-21T11:45:00.939Z</time></trkpt><trkpt lat="44.4293919" lon="8.7663816"><ele>13.0</ele><time>2026-04-21T11:45:01.943Z</time></trkpt><trkpt lat="44.4293706" lon="8.7665446"><ele>13.0</ele><time>2026-04-21T11:45:02.939Z</time></trkpt><trkpt lat="44.4293581" lon="8.7667003"><ele>13.0</ele><time>2026-04-21T11:45:03.941Z</time></trkpt><trkpt lat="44.4293495" lon="8.7668569"><ele>13.0</ele><time>2026-04-21T11:45:04.951Z</time></trkpt><trkpt lat="44.4293396" lon="8.7670099"><ele>13.0</ele><time>2026-04-21T11:45:05.947Z</time></trkpt><trkpt lat="44.4293276" lon="8.7671631"><ele>13.0</ele><time>2026-04-21T11:45:06.943Z</time></trkpt><trkpt lat="44.4292868" lon="8.7674608"><ele>13.0</ele><time>2026-04-21T11:45:08.957Z</time></trkpt><trkpt lat="44.4292632" lon="8.7676102"><ele>13.0</ele><time>2026-04-21T11:45:09.954Z</time></trkpt><trkpt lat="44.4292457" lon="8.7677633"><ele>13.0</ele><time>2026-04-21T11:45:10.951Z</time></trkpt><trkpt lat="44.4292423" lon="8.7679131"><ele>13.0</ele><time>2026-04-21T11:45:11.951Z</time></trkpt><trkpt lat="44.429251" lon="8.768059"><ele>13.0</ele><time>2026-04-21T11:45:12.963Z</time></trkpt><trkpt lat="44.4292789" lon="8.7682077"><ele>13.0</ele><time>2026-04-21T11:45:13.941Z</time></trkpt><trkpt lat="44.42932" lon="8.7683454"><ele>13.0</ele><time>2026-04-21T11:45:14.951Z</time></trkpt><trkpt lat="44.4293792" lon="8.7684724"><ele>13.0</ele><time>2026-04-21T11:45:15.96Z</time></trkpt><trkpt lat="44.4294567" lon="8.7685883"><ele>13.0</ele><time>2026-04-21T11:45:16.942Z</time></trkpt><trkpt lat="44.429547" lon="8.7686919"><ele>13.0</ele><time>2026-04-21T11:45:17.954Z</time></trkpt><trkpt lat="44.4296395" lon="8.7687837"><ele>14.0</ele><time>2026-04-21T11:45:18.955Z</time></trkpt><trkpt lat="44.4297301" lon="8.7688709"><ele>15.0</ele><time>2026-04-21T11:45:19.961Z</time></trkpt><trkpt lat="44.4298054" lon="8.768957"><ele>16.0</ele><time>2026-04-21T11:45:20.935Z</time></trkpt><trkpt lat="44.4298635" lon="8.7690468"><ele>17.0</ele><time>2026-04-21T11:45:21.94Z</time></trkpt><trkpt lat="44.4299136" lon="8.7691495"><ele>18.0</ele><time>2026-04-21T11:45:22.944Z</time></trkpt><trkpt lat="44.429956" lon="8.7692601"><ele>20.0</ele><time>2026-04-21T11:45:23.959Z</time></trkpt><trkpt lat="44.4299872" lon="8.7693821"><ele>22.0</ele><time>2026-04-21T11:45:24.943Z</time></trkpt><trkpt lat="44.4300194" lon="8.7695157"><ele>23.999999999999996</ele><time>2026-04-21T11:45:25.96Z</time></trkpt><trkpt lat="44.4300517" lon="8.769645"><ele>26.0</ele><time>2026-04-21T11:45:26.944Z</time></trkpt><trkpt lat="44.4300898" lon="8.7697804"><ele>28.0</ele><time>2026-04-21T11:45:27.935Z</time></trkpt><trkpt lat="44.4301589" lon="8.7700407"><ele>28.0</ele><time>2026-04-21T11:45:29.955Z</time></trkpt><trkpt lat="44.4301851" lon="8.7701631"><ele>27.999999999999996</ele><time>2026-04-21T11:45:30.94Z</time></trkpt><trkpt lat="44.4302096" lon="8.7702899"><ele>27.999999999999996</ele><time>2026-04-21T11:45:31.951Z</time></trkpt><trkpt lat="44.4302313" lon="8.7704202"><ele>28.0</ele><time>2026-04-21T11:45:32.952Z</time></trkpt><trkpt lat="44.430249" lon="8.7705653"><ele>28.0</ele><time>2026-04-21T11:45:33.937Z</time></trkpt><trkpt lat="44.4302641" lon="8.7707261"><ele>28.0</ele><time>2026-04-21T11:45:34.952Z</time></trkpt><trkpt lat="44.4302688" lon="8.7709086"><ele>28.0</ele><time>2026-04-21T11:45:35.94Z</time></trkpt><trkpt lat="44.4302683" lon="8.7710966"><ele>28.0</ele><time>2026-04-21T11:45:36.955Z</time></trkpt><trkpt lat="44.430259" lon="8.7712808"><ele>28.0</ele><time>2026-04-21T11:45:37.946Z</time></trkpt><trkpt lat="44.4302529" lon="8.7714652"><ele>28.75</ele><time>2026-04-21T11:45:38.949Z</time></trkpt><trkpt lat="44.4302426" lon="8.7716487"><ele>29.5</ele><time>2026-04-21T11:45:39.942Z</time></trkpt><trkpt lat="44.4302365" lon="8.7718342"><ele>30.25</ele><time>2026-04-21T11:45:40.946Z</time></trkpt><trkpt lat="44.4302257" lon="8.7720158"><ele>31.0</ele><time>2026-04-21T11:45:41.94Z</time></trkpt><trkpt lat="44.4302178" lon="8.7722169"><ele>31.0</ele><time>2026-04-21T11:45:42.945Z</time></trkpt><trkpt lat="44.4302063" lon="8.7724231"><ele>31.0</ele><time>2026-04-21T11:45:43.939Z</time></trkpt><trkpt lat="44.4301946" lon="8.7726419"><ele>31.0</ele><time>2026-04-21T11:45:44.941Z</time></trkpt><trkpt lat="44.430183" lon="8.7728735"><ele>30.333333333333336</ele><time>2026-04-21T11:45:45.964Z</time></trkpt><trkpt lat="44.430168" lon="8.7731071"><ele>29.666666666666664</ele><time>2026-04-21T11:45:46.949Z</time></trkpt><trkpt lat="44.4301534" lon="8.7733383"><ele>29.0</ele><time>2026-04-21T11:45:47.953Z</time></trkpt><trkpt lat="44.4301353" lon="8.7735648"><ele>28.0</ele><time>2026-04-21T11:45:48.954Z</time></trkpt><trkpt lat="44.4301108" lon="8.774021"><ele>27.0</ele><time>2026-04-21T11:45:50.956Z</time></trkpt><trkpt lat="44.4300995" lon="8.7742434"><ele>25.666666666666668</ele><time>2026-04-21T11:45:51.958Z</time></trkpt><trkpt lat="44.4300869" lon="8.7744633"><ele>24.333333333333336</ele><time>2026-04-21T11:45:52.943Z</time></trkpt><trkpt lat="44.430083" lon="8.7746983"><ele>23.0</ele><time>2026-04-21T11:45:53.953Z</time></trkpt><trkpt lat="44.4300752" lon="8.774957"><ele>20.0</ele><time>2026-04-21T11:45:54.956Z</time></trkpt><trkpt lat="44.4300711" lon="8.7752458"><ele>17.0</ele><time>2026-04-21T11:45:55.962Z</time></trkpt><trkpt lat="44.4300772" lon="8.7755585"><ele>14.0</ele><time>2026-04-21T11:45:56.965Z</time></trkpt><trkpt lat="44.4300944" lon="8.7758706"><ele>12.0</ele><time>2026-04-21T11:45:57.955Z</time></trkpt><trkpt lat="44.4301163" lon="8.7761897"><ele>10.0</ele><time>2026-04-21T11:45:58.95Z</time></trkpt><trkpt lat="44.4301273" lon="8.7765094"><ele>10.0</ele><time>2026-04-21T11:45:59.951Z</time></trkpt><trkpt lat="44.43012" lon="8.7768187"><ele>10.0</ele><time>2026-04-21T11:46:00.951Z</time></trkpt><trkpt lat="44.4300938" lon="8.777131"><ele>10.0</ele><time>2026-04-21T11:46:01.953Z</time></trkpt><trkpt lat="44.4300422" lon="8.7774253"><ele>17.0</ele><time>2026-04-21T11:46:02.947Z</time></trkpt><trkpt lat="44.4299796" lon="8.777714"><ele>24.0</ele><time>2026-04-21T11:46:03.943Z</time></trkpt><trkpt lat="44.4298915" lon="8.7779857"><ele>31.0</ele><time>2026-04-21T11:46:04.941Z</time></trkpt><trkpt lat="44.4297822" lon="8.7782411"><ele>31.0</ele><time>2026-04-21T11:46:05.955Z</time></trkpt><trkpt lat="44.4296605" lon="8.7784653"><ele>31.0</ele><time>2026-04-21T11:46:06.951Z</time></trkpt><trkpt lat="44.4295223" lon="8.7786706"><ele>31.0</ele><time>2026-04-21T11:46:07.94Z</time></trkpt><trkpt lat="44.4293889" lon="8.7788946"><ele>31.5</ele><time>2026-04-21T11:46:08.934Z</time></trkpt><trkpt lat="44.429265" lon="8.7791285"><ele>32.0</ele><time>2026-04-21T11:46:09.953Z</time></trkpt><trkpt lat="44.4290549" lon="8.7796117"><ele>32.0</ele><time>2026-04-21T11:46:11.953Z</time></trkpt><trkpt lat="44.4289813" lon="8.7798681"><ele>32.0</ele><time>2026-04-21T11:46:12.951Z</time></trkpt><trkpt lat="44.428929" lon="8.7801444"><ele>32.0</ele><time>2026-04-21T11:46:13.938Z</time></trkpt><trkpt lat="44.4289167" lon="8.7804275"><ele>33.0</ele><time>2026-04-21T11:46:14.951Z</time></trkpt><trkpt lat="44.4289074" lon="8.7806964"><ele>34.0</ele><time>2026-04-21T11:46:15.95Z</time></trkpt><trkpt lat="44.428893" lon="8.780968"><ele>35.0</ele><time>2026-04-21T11:46:16.946Z</time></trkpt><trkpt lat="44.428869" lon="8.7812328"><ele>36.666666666666664</ele><time>2026-04-21T11:46:17.949Z</time></trkpt><trkpt lat="44.4288386" lon="8.7815036"><ele>38.333333333333336</ele><time>2026-04-21T11:46:18.948Z</time></trkpt><trkpt lat="44.4288047" lon="8.7817816"><ele>40.0</ele><time>2026-04-21T11:46:19.957Z</time></trkpt><trkpt lat="44.4287637" lon="8.7820791"><ele>35.66666666666667</ele><time>2026-04-21T11:46:20.951Z</time></trkpt><trkpt lat="44.4287229" lon="8.7823791"><ele>31.333333333333336</ele><time>2026-04-21T11:46:21.949Z</time></trkpt><trkpt lat="44.4286875" lon="8.7826841"><ele>27.0</ele><time>2026-04-21T11:46:22.936Z</time></trkpt><trkpt lat="44.4286626" lon="8.7829963"><ele>27.0</ele><time>2026-04-21T11:46:23.943Z</time></trkpt><trkpt lat="44.4286552" lon="8.7833169"><ele>27.0</ele><time>2026-04-21T11:46:24.942Z</time></trkpt><trkpt lat="44.4286795" lon="8.7836246"><ele>27.333333333333336</ele><time>2026-04-21T11:46:25.943Z</time></trkpt><trkpt lat="44.4287252" lon="8.7839232"><ele>27.666666666666668</ele><time>2026-04-21T11:46:26.956Z</time></trkpt><trkpt lat="44.4287878" lon="8.7842128"><ele>28.0</ele><time>2026-04-21T11:46:27.952Z</time></trkpt><trkpt lat="44.4288626" lon="8.7845089"><ele>36.0</ele><time>2026-04-21T11:46:28.945Z</time></trkpt><trkpt lat="44.4289503" lon="8.7848062"><ele>44.0</ele><time>2026-04-21T11:46:29.956Z</time></trkpt><trkpt lat="44.4290404" lon="8.785121"><ele>34.0</ele><time>2026-04-21T11:46:30.939Z</time></trkpt><trkpt lat="44.429234" lon="8.7858163"><ele>30.0</ele><time>2026-04-21T11:46:32.936Z</time></trkpt><trkpt lat="44.4293398" lon="8.7861906"><ele>26.0</ele><time>2026-04-21T11:46:33.941Z</time></trkpt><trkpt lat="44.4294577" lon="8.7865235"><ele>24.0</ele><time>2026-04-21T11:46:34.941Z</time></trkpt><trkpt lat="44.4295874" lon="8.7868689"><ele>22.0</ele><time>2026-04-21T11:46:35.946Z</time></trkpt><trkpt lat="44.4297252" lon="8.7872223"><ele>22.0</ele><time>2026-04-21T11:46:36.949Z</time></trkpt><trkpt lat="44.4298659" lon="8.7875677"><ele>22.0</ele><time>2026-04-21T11:46:37.941Z</time></trkpt><trkpt lat="44.4299959" lon="8.7879108"><ele>20.0</ele><time>2026-04-21T11:46:38.961Z</time></trkpt><trkpt lat="44.4301198" lon="8.788249"><ele>18.0</ele><time>2026-04-21T11:46:39.949Z</time></trkpt><trkpt lat="44.4302451" lon="8.7885734"><ele>17.5</ele><time>2026-04-21T11:46:40.944Z</time></trkpt><trkpt lat="44.4303714" lon="8.7889109"><ele>17.0</ele><time>2026-04-21T11:46:41.944Z</time></trkpt><trkpt lat="44.4304637" lon="8.7892602"><ele>19.0</ele><time>2026-04-21T11:46:42.946Z</time></trkpt><trkpt lat="44.4305182" lon="8.7896152"><ele>21.0</ele><time>2026-04-21T11:46:43.963Z</time></trkpt><trkpt lat="44.4305303" lon="8.7899792"><ele>22.0</ele><time>2026-04-21T11:46:44.944Z</time></trkpt><trkpt lat="44.4305101" lon="8.7903362"><ele>23.0</ele><time>2026-04-21T11:46:45.944Z</time></trkpt><trkpt lat="44.4304646" lon="8.7906884"><ele>32.5</ele><time>2026-04-21T11:46:46.941Z</time></trkpt><trkpt lat="44.4304026" lon="8.7910362"><ele>42.0</ele><time>2026-04-21T11:46:47.939Z</time></trkpt><trkpt lat="44.430338" lon="8.7913795"><ele>42.0</ele><time>2026-04-21T11:46:48.942Z</time></trkpt><trkpt lat="44.4302786" lon="8.7917246"><ele>42.0</ele><time>2026-04-21T11:46:49.943Z</time></trkpt><trkpt lat="44.4302222" lon="8.7920638"><ele>56.5</ele><time>2026-04-21T11:46:50.947Z</time></trkpt><trkpt lat="44.4301674" lon="8.7923977"><ele>71.0</ele><time>2026-04-21T11:46:51.945Z</time></trkpt><trkpt lat="44.4300643" lon="8.7930515"><ele>82.5</ele><time>2026-04-21T11:46:53.941Z</time></trkpt><trkpt lat="44.4300123" lon="8.793371"><ele>94.0</ele><time>2026-04-21T11:46:54.934Z</time></trkpt><trkpt lat="44.4299612" lon="8.7936851"><ele>94.0</ele><time>2026-04-21T11:46:55.93Z</time></trkpt><trkpt lat="44.4299121" lon="8.7939949"><ele>94.0</ele><time>2026-04-21T11:46:56.93Z</time></trkpt><trkpt lat="44.4298649" lon="8.7942961"><ele>94.0</ele><time>2026-04-21T11:46:57.931Z</time></trkpt><trkpt lat="44.4298186" lon="8.7945851"><ele>82.0</ele><time>2026-04-21T11:46:58.931Z</time></trkpt><trkpt lat="44.4297739" lon="8.7948611"><ele>70.0</ele><time>2026-04-21T11:46:59.935Z</time></trkpt><trkpt lat="44.4296821" lon="8.7952396"><ele>62.0</ele><time>2026-04-21T11:47:00.943Z</time></trkpt><trkpt lat="44.429597" lon="8.7956426"><ele>54.0</ele><time>2026-04-21T11:47:01.95Z</time></trkpt><trkpt lat="44.4295404" lon="8.7960188"><ele>54.0</ele><time>2026-04-21T11:47:02.947Z</time></trkpt><trkpt lat="44.4295302" lon="8.7963364"><ele>54.0</ele><time>2026-04-21T11:47:03.944Z</time></trkpt><trkpt lat="44.4295567" lon="8.7966438"><ele>54.0</ele><time>2026-04-21T11:47:04.953Z</time></trkpt><trkpt lat="44.4296004" lon="8.7969375"><ele>58.0</ele><time>2026-04-21T11:47:05.941Z</time></trkpt><trkpt lat="44.4296478" lon="8.7972431"><ele>62.0</ele><time>2026-04-21T11:47:06.94Z</time></trkpt><trkpt lat="44.4297007" lon="8.7975329"><ele>66.0</ele><time>2026-04-21T11:47:07.93Z</time></trkpt><trkpt lat="44.4297488" lon="8.7978298"><ele>72.66666666666667</ele><time>2026-04-21T11:47:08.94Z</time></trkpt><trkpt lat="44.429799" lon="8.798127"><ele>79.33333333333334</ele><time>2026-04-21T11:47:09.934Z</time></trkpt><trkpt lat="44.429843" lon="8.7984278"><ele>86.0</ele><time>2026-04-21T11:47:10.92Z</time></trkpt><trkpt lat="44.4298865" lon="8.7987418"><ele>92.0</ele><time>2026-04-21T11:47:11.932Z</time></trkpt><trkpt lat="44.4299297" lon="8.7990426"><ele>98.0</ele><time>2026-04-21T11:47:12.933Z</time></trkpt><trkpt lat="44.4300222" lon="8.7996449"><ele>98.0</ele><time>2026-04-21T11:47:14.926Z</time></trkpt><trkpt lat="44.4300675" lon="8.7999408"><ele>98.0</ele><time>2026-04-21T11:47:15.927Z</time></trkpt><trkpt lat="44.4301123" lon="8.8002349"><ele>98.0</ele><time>2026-04-21T11:47:16.926Z</time></trkpt><trkpt lat="44.4301567" lon="8.8005291"><ele>95.0</ele><time>2026-04-21T11:47:17.93Z</time></trkpt><trkpt lat="44.4301963" lon="8.8008214"><ele>92.0</ele><time>2026-04-21T11:47:18.929Z</time></trkpt><trkpt lat="44.4302373" lon="8.8011166"><ele>89.0</ele><time>2026-04-21T11:47:19.927Z</time></trkpt><trkpt lat="44.4302781" lon="8.801408"><ele>89.0</ele><time>2026-04-21T11:47:20.922Z</time></trkpt><trkpt lat="44.4303216" lon="8.8017054"><ele>89.0</ele><time>2026-04-21T11:47:21.925Z</time></trkpt><trkpt lat="44.4303685" lon="8.8020194"><ele>89.0</ele><time>2026-04-21T11:47:22.915Z</time></trkpt><trkpt lat="44.4304191" lon="8.802357"><ele>102.5</ele><time>2026-04-21T11:47:23.921Z</time></trkpt><trkpt lat="44.4304738" lon="8.8027188"><ele>116.0</ele><time>2026-04-21T11:47:24.926Z</time></trkpt><trkpt lat="44.4305295" lon="8.8030937"><ele>119.5</ele><time>2026-04-21T11:47:25.925Z</time></trkpt><trkpt lat="44.4305835" lon="8.8034861"><ele>123.0</ele><time>2026-04-21T11:47:26.926Z</time></trkpt><trkpt lat="44.4311377" lon="8.8089914"><ele>65.0</ele><time>2026-04-21T11:47:38.941Z</time></trkpt><trkpt lat="44.4312447" lon="8.8097138"><ele>65.0</ele><time>2026-04-21T11:47:40.941Z</time></trkpt><trkpt lat="44.4312918" lon="8.8100812"><ele>65.0</ele><time>2026-04-21T11:47:41.937Z</time></trkpt><trkpt lat="44.4313378" lon="8.8104443"><ele>69.0</ele><time>2026-04-21T11:47:42.937Z</time></trkpt><trkpt lat="44.4313826" lon="8.8108057"><ele>73.0</ele><time>2026-04-21T11:47:43.94Z</time></trkpt><trkpt lat="44.4314171" lon="8.8111416"><ele>74.5</ele><time>2026-04-21T11:47:44.926Z</time></trkpt><trkpt lat="44.4314604" lon="8.8114619"><ele>76.0</ele><time>2026-04-21T11:47:45.95Z</time></trkpt><trkpt lat="44.4314642" lon="8.8118048"><ele>85.5</ele><time>2026-04-21T11:47:46.937Z</time></trkpt><trkpt lat="44.4314427" lon="8.8121808"><ele>95.0</ele><time>2026-04-21T11:47:47.948Z</time></trkpt><trkpt lat="44.4313975" lon="8.8125516"><ele>88.0</ele><time>2026-04-21T11:47:48.939Z</time></trkpt><trkpt lat="44.4313563" lon="8.8129238"><ele>81.0</ele><time>2026-04-21T11:47:49.934Z</time></trkpt><trkpt lat="44.4313183" lon="8.8132994"><ele>72.5</ele><time>2026-04-21T11:47:50.933Z</time></trkpt><trkpt lat="44.4312743" lon="8.8136788"><ele>64.0</ele><time>2026-04-21T11:47:51.934Z</time></trkpt><trkpt lat="44.4312267" lon="8.8140624"><ele>69.0</ele><time>2026-04-21T11:47:52.926Z</time></trkpt><trkpt lat="44.4311756" lon="8.814456"><ele>74.0</ele><time>2026-04-21T11:47:53.927Z</time></trkpt><trkpt lat="44.4311232" lon="8.8148548"><ele>73.5</ele><time>2026-04-21T11:47:54.919Z</time></trkpt><trkpt lat="44.4310716" lon="8.8152608"><ele>73.0</ele><time>2026-04-21T11:47:55.933Z</time></trkpt><trkpt lat="44.4310224" lon="8.8156498"><ele>67.5</ele><time>2026-04-21T11:47:56.932Z</time></trkpt><trkpt lat="44.4309725" lon="8.8160324"><ele>62.0</ele><time>2026-04-21T11:47:57.922Z</time></trkpt><trkpt lat="44.4309192" lon="8.8164092"><ele>62.0</ele><time>2026-04-21T11:47:58.928Z</time></trkpt><trkpt lat="44.4308665" lon="8.8167825"><ele>62.0</ele><time>2026-04-21T11:47:59.918Z</time></trkpt><trkpt lat="44.4307559" lon="8.8175107"><ele>51.5</ele><time>2026-04-21T11:48:01.923Z</time></trkpt><trkpt lat="44.4306275" lon="8.8180433"><ele>41.0</ele><time>2026-04-21T11:48:03.943Z</time></trkpt><trkpt lat="44.4305741" lon="8.8183128"><ele>36.0</ele><time>2026-04-21T11:48:04.933Z</time></trkpt><trkpt lat="44.4304773" lon="8.8186839"><ele>31.0</ele><time>2026-04-21T11:48:05.949Z</time></trkpt><trkpt lat="44.4304612" lon="8.818996"><ele>28.333333333333336</ele><time>2026-04-21T11:48:06.939Z</time></trkpt><trkpt lat="44.4303972" lon="8.8192434"><ele>25.666666666666668</ele><time>2026-04-21T11:48:07.941Z</time></trkpt><trkpt lat="44.4302872" lon="8.8195718"><ele>23.0</ele><time>2026-04-21T11:48:08.956Z</time></trkpt><trkpt lat="44.4301788" lon="8.819921"><ele>19.5</ele><time>2026-04-21T11:48:09.944Z</time></trkpt><trkpt lat="44.4300902" lon="8.8202527"><ele>16.0</ele><time>2026-04-21T11:48:10.958Z</time></trkpt><trkpt lat="44.4300025" lon="8.820588"><ele>16.0</ele><time>2026-04-21T11:48:11.939Z</time></trkpt><trkpt lat="44.4299129" lon="8.8209273"><ele>16.0</ele><time>2026-04-21T11:48:12.957Z</time></trkpt><trkpt lat="44.4298205" lon="8.8212667"><ele>18.0</ele><time>2026-04-21T11:48:13.945Z</time></trkpt><trkpt lat="44.4297238" lon="8.8216077"><ele>20.0</ele><time>2026-04-21T11:48:14.939Z</time></trkpt><trkpt lat="44.4296195" lon="8.8219423"><ele>20.5</ele><time>2026-04-21T11:48:15.944Z</time></trkpt><trkpt lat="44.4295118" lon="8.8222786"><ele>21.0</ele><time>2026-04-21T11:48:16.953Z</time></trkpt><trkpt lat="44.4294108" lon="8.8226171"><ele>25.0</ele><time>2026-04-21T11:48:17.962Z</time></trkpt><trkpt lat="44.4293158" lon="8.8229594"><ele>29.0</ele><time>2026-04-21T11:48:18.942Z</time></trkpt><trkpt lat="44.4292284" lon="8.8232896"><ele>32.0</ele><time>2026-04-21T11:48:19.961Z</time></trkpt><trkpt lat="44.4291571" lon="8.8236048"><ele>35.0</ele><time>2026-04-21T11:48:20.943Z</time></trkpt><trkpt lat="44.4290903" lon="8.8242449"><ele>35.5</ele><time>2026-04-21T11:48:22.956Z</time></trkpt><trkpt lat="44.429108" lon="8.8245785"><ele>36.0</ele><time>2026-04-21T11:48:23.955Z</time></trkpt><trkpt lat="44.4291436" lon="8.8249053"><ele>37.5</ele><time>2026-04-21T11:48:24.953Z</time></trkpt><trkpt lat="44.4292053" lon="8.8252256"><ele>39.0</ele><time>2026-04-21T11:48:25.948Z</time></trkpt><trkpt lat="44.4292816" lon="8.825517"><ele>39.0</ele><time>2026-04-21T11:48:26.956Z</time></trkpt><trkpt lat="44.429369" lon="8.8257757"><ele>39.0</ele><time>2026-04-21T11:48:27.952Z</time></trkpt><trkpt lat="44.4294545" lon="8.8260246"><ele>39.0</ele><time>2026-04-21T11:48:28.949Z</time></trkpt><trkpt lat="44.4295353" lon="8.8262699"><ele>43.0</ele><time>2026-04-21T11:48:29.956Z</time></trkpt><trkpt lat="44.4296099" lon="8.8265112"><ele>47.0</ele><time>2026-04-21T11:48:30.95Z</time></trkpt><trkpt lat="44.4296754" lon="8.826754"><ele>51.0</ele><time>2026-04-21T11:48:31.95Z</time></trkpt><trkpt lat="44.4297207" lon="8.8270095"><ele>52.66666666666667</ele><time>2026-04-21T11:48:32.951Z</time></trkpt><trkpt lat="44.4297287" lon="8.8272881"><ele>54.333333333333336</ele><time>2026-04-21T11:48:33.94Z</time></trkpt><trkpt lat="44.4297118" lon="8.8275726"><ele>56.0</ele><time>2026-04-21T11:48:34.943Z</time></trkpt><trkpt lat="44.4296895" lon="8.8278549"><ele>59.333333333333336</ele><time>2026-04-21T11:48:35.945Z</time></trkpt><trkpt lat="44.4296574" lon="8.82814"><ele>62.66666666666667</ele><time>2026-04-21T11:48:36.935Z</time></trkpt><trkpt lat="44.4296264" lon="8.8284282"><ele>66.0</ele><time>2026-04-21T11:48:37.937Z</time></trkpt><trkpt lat="44.4296004" lon="8.8287249"><ele>71.66666666666667</ele><time>2026-04-21T11:48:38.943Z</time></trkpt><trkpt lat="44.4295788" lon="8.829031"><ele>77.33333333333334</ele><time>2026-04-21T11:48:39.942Z</time></trkpt><trkpt lat="44.4295633" lon="8.8293421"><ele>83.0</ele><time>2026-04-21T11:48:40.931Z</time></trkpt><trkpt lat="44.4295513" lon="8.8296563"><ele>81.5</ele><time>2026-04-21T11:48:41.932Z</time></trkpt><trkpt lat="44.4295187" lon="8.8302516"><ele>80.0</ele><time>2026-04-21T11:48:43.935Z</time></trkpt><trkpt lat="44.4295035" lon="8.8305237"><ele>80.0</ele><time>2026-04-21T11:48:44.936Z</time></trkpt><trkpt lat="44.4294912" lon="8.8307799"><ele>80.0</ele><time>2026-04-21T11:48:45.928Z</time></trkpt><trkpt lat="44.4294806" lon="8.8310291"><ele>80.0</ele><time>2026-04-21T11:48:46.928Z</time></trkpt><trkpt lat="44.4294696" lon="8.8312688"><ele>75.66666666666667</ele><time>2026-04-21T11:48:47.925Z</time></trkpt><trkpt lat="44.4294577" lon="8.8314975"><ele>71.33333333333333</ele><time>2026-04-21T11:48:48.928Z</time></trkpt><trkpt lat="44.429449" lon="8.8317159"><ele>67.0</ele><time>2026-04-21T11:48:49.93Z</time></trkpt><trkpt lat="44.4294438" lon="8.8323738"><ele>54.5</ele><time>2026-04-21T11:48:51.946Z</time></trkpt><trkpt lat="44.4294574" lon="8.8327683"><ele>42.0</ele><time>2026-04-21T11:48:52.951Z</time></trkpt><trkpt lat="44.4294817" lon="8.833062"><ele>42.0</ele><time>2026-04-21T11:48:53.941Z</time></trkpt><trkpt lat="44.4295188" lon="8.833385"><ele>42.0</ele><time>2026-04-21T11:48:54.942Z</time></trkpt><trkpt lat="44.4295581" lon="8.8336864"><ele>40.333333333333336</ele><time>2026-04-21T11:48:55.948Z</time></trkpt><trkpt lat="44.4296119" lon="8.8339684"><ele>38.66666666666667</ele><time>2026-04-21T11:48:56.953Z</time></trkpt><trkpt lat="44.4296828" lon="8.8342821"><ele>37.0</ele><time>2026-04-21T11:48:57.941Z</time></trkpt><trkpt lat="44.4297714" lon="8.834632"><ele>43.0</ele><time>2026-04-21T11:48:58.951Z</time></trkpt><trkpt lat="44.4298624" lon="8.83497"><ele>49.0</ele><time>2026-04-21T11:48:59.961Z</time></trkpt><trkpt lat="44.429951" lon="8.8353082"><ele>49.0</ele><time>2026-04-21T11:49:00.954Z</time></trkpt><trkpt lat="44.4300349" lon="8.8356346"><ele>49.0</ele><time>2026-04-21T11:49:01.959Z</time></trkpt><trkpt lat="44.4301061" lon="8.8359661"><ele>50.0</ele><time>2026-04-21T11:49:02.954Z</time></trkpt><trkpt lat="44.430167" lon="8.8366238"><ele>48.5</ele><time>2026-04-21T11:49:04.943Z</time></trkpt><trkpt lat="44.4301608" lon="8.8369479"><ele>47.0</ele><time>2026-04-21T11:49:05.96Z</time></trkpt><trkpt lat="44.4301313" lon="8.8372754"><ele>47.0</ele><time>2026-04-21T11:49:06.951Z</time></trkpt><trkpt lat="44.4300826" lon="8.8376076"><ele>47.0</ele><time>2026-04-21T11:49:07.948Z</time></trkpt><trkpt lat="44.4300264" lon="8.8379428"><ele>43.0</ele><time>2026-04-21T11:49:08.957Z</time></trkpt><trkpt lat="44.4299756" lon="8.8382763"><ele>39.0</ele><time>2026-04-21T11:49:09.946Z</time></trkpt><trkpt lat="44.4299593" lon="8.8385971"><ele>39.0</ele><time>2026-04-21T11:49:10.954Z</time></trkpt><trkpt lat="44.4299713" lon="8.8389019"><ele>39.0</ele><time>2026-04-21T11:49:11.952Z</time></trkpt><trkpt lat="44.4299914" lon="8.8391964"><ele>39.0</ele><time>2026-04-21T11:49:12.962Z</time></trkpt><trkpt lat="44.4300263" lon="8.8394805"><ele>39.0</ele><time>2026-04-21T11:49:13.956Z</time></trkpt><trkpt lat="44.430081" lon="8.8397468"><ele>39.0</ele><time>2026-04-21T11:49:14.96Z</time></trkpt><trkpt lat="44.4301534" lon="8.8399992"><ele>39.0</ele><time>2026-04-21T11:49:15.953Z</time></trkpt><trkpt lat="44.4302345" lon="8.8402304"><ele>44.0</ele><time>2026-04-21T11:49:16.957Z</time></trkpt><trkpt lat="44.4303215" lon="8.8404442"><ele>49.0</ele><time>2026-04-21T11:49:17.955Z</time></trkpt><trkpt lat="44.4304051" lon="8.8406412"><ele>54.0</ele><time>2026-04-21T11:49:18.948Z</time></trkpt><trkpt lat="44.4304793" lon="8.8408404"><ele>58.33333333333333</ele><time>2026-04-21T11:49:19.946Z</time></trkpt><trkpt lat="44.4305438" lon="8.8410502"><ele>62.666666666666664</ele><time>2026-04-21T11:49:20.934Z</time></trkpt><trkpt lat="44.4305938" lon="8.8412557"><ele>67.0</ele><time>2026-04-21T11:49:21.934Z</time></trkpt><trkpt lat="44.4306371" lon="8.8414579"><ele>67.0</ele><time>2026-04-21T11:49:22.93Z</time></trkpt><trkpt lat="44.4306725" lon="8.8416565"><ele>67.0</ele><time>2026-04-21T11:49:23.933Z</time></trkpt><trkpt lat="44.4306945" lon="8.8420742"><ele>67.0</ele><time>2026-04-21T11:49:25.928Z</time></trkpt><trkpt lat="44.4306775" lon="8.8422933"><ele>63.5</ele><time>2026-04-21T11:49:26.931Z</time></trkpt><trkpt lat="44.430648" lon="8.8425277"><ele>60.0</ele><time>2026-04-21T11:49:27.93Z</time></trkpt><trkpt lat="44.4305725" lon="8.8431241"><ele>54.0</ele><time>2026-04-21T11:49:29.94Z</time></trkpt><trkpt lat="44.430528" lon="8.8434803"><ele>48.0</ele><time>2026-04-21T11:49:30.93Z</time></trkpt><trkpt lat="44.4304783" lon="8.8438245"><ele>49.0</ele><time>2026-04-21T11:49:31.942Z</time></trkpt><trkpt lat="44.4304366" lon="8.8441351"><ele>50.0</ele><time>2026-04-21T11:49:32.932Z</time></trkpt><trkpt lat="44.4304006" lon="8.844437"><ele>51.0</ele><time>2026-04-21T11:49:33.942Z</time></trkpt><trkpt lat="44.4303623" lon="8.8447336"><ele>47.0</ele><time>2026-04-21T11:49:34.93Z</time></trkpt><trkpt lat="44.4303229" lon="8.8450405"><ele>43.0</ele><time>2026-04-21T11:49:35.941Z</time></trkpt><trkpt lat="44.4302906" lon="8.8454035"><ele>41.0</ele><time>2026-04-21T11:49:36.934Z</time></trkpt><trkpt lat="44.4302632" lon="8.8457416"><ele>39.0</ele><time>2026-04-21T11:49:37.939Z</time></trkpt><trkpt lat="44.4302478" lon="8.8460832"><ele>39.0</ele><time>2026-04-21T11:49:38.933Z</time></trkpt><trkpt lat="44.4302397" lon="8.84642"><ele>39.0</ele><time>2026-04-21T11:49:39.945Z</time></trkpt><trkpt lat="44.4302468" lon="8.8468006"><ele>39.0</ele><time>2026-04-21T11:49:40.95Z</time></trkpt><trkpt lat="44.4302592" lon="8.8471293"><ele>39.0</ele><time>2026-04-21T11:49:41.943Z</time></trkpt><trkpt lat="44.4302786" lon="8.8474444"><ele>40.333333333333336</ele><time>2026-04-21T11:49:42.945Z</time></trkpt><trkpt lat="44.4303107" lon="8.8477271"><ele>41.66666666666667</ele><time>2026-04-21T11:49:43.95Z</time></trkpt><trkpt lat="44.4303481" lon="8.8480029"><ele>43.0</ele><time>2026-04-21T11:49:44.941Z</time></trkpt><trkpt lat="44.4304442" lon="8.8485427"><ele>46.66666666666667</ele><time>2026-04-21T11:49:46.935Z</time></trkpt><trkpt lat="44.4304902" lon="8.8488074"><ele>50.333333333333336</ele><time>2026-04-21T11:49:47.939Z</time></trkpt><trkpt lat="44.4305298" lon="8.8490737"><ele>54.0</ele><time>2026-04-21T11:49:48.93Z</time></trkpt><trkpt lat="44.4305522" lon="8.8493397"><ele>55.33333333333333</ele><time>2026-04-21T11:49:49.934Z</time></trkpt><trkpt lat="44.4305523" lon="8.8495967"><ele>56.666666666666664</ele><time>2026-04-21T11:49:50.926Z</time></trkpt><trkpt lat="44.4305389" lon="8.8498525"><ele>58.0</ele><time>2026-04-21T11:49:51.932Z</time></trkpt><trkpt lat="44.430513" lon="8.8501076"><ele>58.33333333333333</ele><time>2026-04-21T11:49:52.928Z</time></trkpt><trkpt lat="44.4304754" lon="8.850352"><ele>58.66666666666667</ele><time>2026-04-21T11:49:53.931Z</time></trkpt><trkpt lat="44.4304332" lon="8.8505876"><ele>59.0</ele><time>2026-04-21T11:49:54.92Z</time></trkpt><trkpt lat="44.4303956" lon="8.8508326"><ele>56.0</ele><time>2026-04-21T11:49:55.92Z</time></trkpt><trkpt lat="44.4303628" lon="8.8510681"><ele>53.0</ele><time>2026-04-21T11:49:56.921Z</time></trkpt><trkpt lat="44.4303318" lon="8.8512955"><ele>50.0</ele><time>2026-04-21T11:49:57.926Z</time></trkpt><trkpt lat="44.4301902" lon="8.8523345"><ele>39.0</ele><time>2026-04-21T11:50:00.936Z</time></trkpt><trkpt lat="44.4301215" lon="8.8528493"><ele>28.0</ele><time>2026-04-21T11:50:01.947Z</time></trkpt><trkpt lat="44.4300685" lon="8.853295"><ele>25.0</ele><time>2026-04-21T11:50:02.945Z</time></trkpt><trkpt lat="44.430017" lon="8.8537733"><ele>22.0</ele><time>2026-04-21T11:50:03.954Z</time></trkpt><trkpt lat="44.429921" lon="8.8542468"><ele>21.5</ele><time>2026-04-21T11:50:04.949Z</time></trkpt><trkpt lat="44.4298321" lon="8.8546617"><ele>21.0</ele><time>2026-04-21T11:50:05.955Z</time></trkpt><trkpt lat="44.4296902" lon="8.8554597"><ele>23.5</ele><time>2026-04-21T11:50:07.949Z</time></trkpt><trkpt lat="44.4296355" lon="8.8558045"><ele>26.0</ele><time>2026-04-21T11:50:08.942Z</time></trkpt><trkpt lat="44.4295831" lon="8.856154"><ele>25.5</ele><time>2026-04-21T11:50:09.953Z</time></trkpt><trkpt lat="44.4295222" lon="8.8564896"><ele>25.0</ele><time>2026-04-21T11:50:10.959Z</time></trkpt><trkpt lat="44.4294566" lon="8.8568232"><ele>25.0</ele><time>2026-04-21T11:50:11.94Z</time></trkpt><trkpt lat="44.4293838" lon="8.8571477"><ele>25.0</ele><time>2026-04-21T11:50:12.949Z</time></trkpt><trkpt lat="44.4292897" lon="8.8574587"><ele>22.0</ele><time>2026-04-21T11:50:13.941Z</time></trkpt><trkpt lat="44.4291697" lon="8.8577556"><ele>19.0</ele><time>2026-04-21T11:50:14.952Z</time></trkpt><trkpt lat="44.4290239" lon="8.8580418"><ele>19.0</ele><time>2026-04-21T11:50:15.95Z</time></trkpt><trkpt lat="44.428863" lon="8.85831"><ele>19.0</ele><time>2026-04-21T11:50:16.939Z</time></trkpt><trkpt lat="44.4287108" lon="8.858583"><ele>18.0</ele><time>2026-04-21T11:50:17.953Z</time></trkpt><trkpt lat="44.4285677" lon="8.8588613"><ele>17.0</ele><time>2026-04-21T11:50:18.953Z</time></trkpt><trkpt lat="44.4284257" lon="8.8591409"><ele>21.5</ele><time>2026-04-21T11:50:19.961Z</time></trkpt><trkpt lat="44.4282782" lon="8.859419"><ele>26.0</ele><time>2026-04-21T11:50:20.943Z</time></trkpt><trkpt lat="44.428129" lon="8.8596967"><ele>26.0</ele><time>2026-04-21T11:50:21.942Z</time></trkpt><trkpt lat="44.4279834" lon="8.8599754"><ele>26.0</ele><time>2026-04-21T11:50:22.953Z</time></trkpt><trkpt lat="44.4278375" lon="8.8602561"><ele>41.0</ele><time>2026-04-21T11:50:23.958Z</time></trkpt><trkpt lat="44.4276957" lon="8.8605385"><ele>56.0</ele><time>2026-04-21T11:50:24.961Z</time></trkpt><trkpt lat="44.4275555" lon="8.8608273"><ele>58.0</ele><time>2026-04-21T11:50:25.936Z</time></trkpt><trkpt lat="44.427419" lon="8.8611172"><ele>60.0</ele><time>2026-04-21T11:50:26.944Z</time></trkpt><trkpt lat="44.4271441" lon="8.8616899"><ele>76.5</ele><time>2026-04-21T11:50:28.95Z</time></trkpt><trkpt lat="44.4270036" lon="8.8619709"><ele>93.0</ele><time>2026-04-21T11:50:29.948Z</time></trkpt><trkpt lat="44.4268646" lon="8.8622459"><ele>93.0</ele><time>2026-04-21T11:50:30.94Z</time></trkpt><trkpt lat="44.4267247" lon="8.8625174"><ele>93.0</ele><time>2026-04-21T11:50:31.942Z</time></trkpt><trkpt lat="44.4265808" lon="8.8627861"><ele>101.5</ele><time>2026-04-21T11:50:32.937Z</time></trkpt><trkpt lat="44.4264363" lon="8.8630543"><ele>110.0</ele><time>2026-04-21T11:50:33.945Z</time></trkpt><trkpt lat="44.4262939" lon="8.8633246"><ele>114.5</ele><time>2026-04-21T11:50:34.932Z</time></trkpt><trkpt lat="44.4261666" lon="8.8636064"><ele>119.0</ele><time>2026-04-21T11:50:35.924Z</time></trkpt><trkpt lat="44.4260411" lon="8.8638713"><ele>119.0</ele><time>2026-04-21T11:50:36.927Z</time></trkpt><trkpt lat="44.425915" lon="8.8641377"><ele>119.0</ele><time>2026-04-21T11:50:37.922Z</time></trkpt><trkpt lat="44.4257871" lon="8.8643993"><ele>118.0</ele><time>2026-04-21T11:50:38.932Z</time></trkpt><trkpt lat="44.425657" lon="8.8646625"><ele>117.0</ele><time>2026-04-21T11:50:39.926Z</time></trkpt><trkpt lat="44.4255282" lon="8.8649266"><ele>117.5</ele><time>2026-04-21T11:50:40.92Z</time></trkpt><trkpt lat="44.4254017" lon="8.8651905"><ele>118.0</ele><time>2026-04-21T11:50:41.925Z</time></trkpt><trkpt lat="44.4252765" lon="8.8654521"><ele>118.0</ele><time>2026-04-21T11:50:42.924Z</time></trkpt><trkpt lat="44.4251509" lon="8.8657111"><ele>118.0</ele><time>2026-04-21T11:50:43.92Z</time></trkpt><trkpt lat="44.425026" lon="8.8659699"><ele>118.0</ele><time>2026-04-21T11:50:44.913Z</time></trkpt><trkpt lat="44.4249036" lon="8.8662325"><ele>117.66666666666667</ele><time>2026-04-21T11:50:45.926Z</time></trkpt><trkpt lat="44.4247821" lon="8.866491"><ele>117.33333333333334</ele><time>2026-04-21T11:50:46.922Z</time></trkpt><trkpt lat="44.4246618" lon="8.8667427"><ele>117.0</ele><time>2026-04-21T11:50:47.92Z</time></trkpt><trkpt lat="44.4244261" lon="8.8672674"><ele>99.5</ele><time>2026-04-21T11:50:49.925Z</time></trkpt><trkpt lat="44.4243023" lon="8.8675702"><ele>82.0</ele><time>2026-04-21T11:50:50.926Z</time></trkpt><trkpt lat="44.4242232" lon="8.8678449"><ele>78.0</ele><time>2026-04-21T11:50:52.949Z</time></trkpt><trkpt lat="44.4241203" lon="8.8681843"><ele>74.0</ele><time>2026-04-21T11:50:53.942Z</time></trkpt><trkpt lat="44.4240662" lon="8.8684702"><ele>74.0</ele><time>2026-04-21T11:50:54.94Z</time></trkpt><trkpt lat="44.4240215" lon="8.8687789"><ele>74.0</ele><time>2026-04-21T11:50:55.949Z</time></trkpt><trkpt lat="44.4239894" lon="8.8691012"><ele>77.5</ele><time>2026-04-21T11:50:56.947Z</time></trkpt><trkpt lat="44.4239812" lon="8.8694199"><ele>81.0</ele><time>2026-04-21T11:50:57.938Z</time></trkpt><trkpt lat="44.4240012" lon="8.8697351"><ele>81.0</ele><time>2026-04-21T11:50:58.938Z</time></trkpt><trkpt lat="44.4240542" lon="8.8700377"><ele>81.0</ele><time>2026-04-21T11:50:59.939Z</time></trkpt><trkpt lat="44.4241315" lon="8.8703321"><ele>81.0</ele><time>2026-04-21T11:51:00.953Z</time></trkpt><trkpt lat="44.4242174" lon="8.8706378"><ele>92.0</ele><time>2026-04-21T11:51:01.942Z</time></trkpt><trkpt lat="44.4243017" lon="8.8709587"><ele>103.0</ele><time>2026-04-21T11:51:02.936Z</time></trkpt><trkpt lat="44.4243952" lon="8.8712812"><ele>103.0</ele><time>2026-04-21T11:51:03.932Z</time></trkpt><trkpt lat="44.4244901" lon="8.8716074"><ele>103.0</ele><time>2026-04-21T11:51:04.931Z</time></trkpt><trkpt lat="44.4245857" lon="8.8719388"><ele>104.5</ele><time>2026-04-21T11:51:05.932Z</time></trkpt><trkpt lat="44.4246809" lon="8.8722715"><ele>106.0</ele><time>2026-04-21T11:51:06.931Z</time></trkpt><trkpt lat="44.4247785" lon="8.87261"><ele>106.0</ele><time>2026-04-21T11:51:07.933Z</time></trkpt><trkpt lat="44.424878" lon="8.8729502"><ele>106.0</ele><time>2026-04-21T11:51:08.921Z</time></trkpt><trkpt lat="44.4250744" lon="8.8736279"><ele>104.0</ele><time>2026-04-21T11:51:10.928Z</time></trkpt><trkpt lat="44.425171" lon="8.8739675"><ele>102.0</ele><time>2026-04-21T11:51:11.923Z</time></trkpt><trkpt lat="44.4252654" lon="8.8743066"><ele>102.0</ele><time>2026-04-21T11:51:12.923Z</time></trkpt><trkpt lat="44.4253593" lon="8.8746425"><ele>102.0</ele><time>2026-04-21T11:51:13.924Z</time></trkpt><trkpt lat="44.4254551" lon="8.874972"><ele>104.5</ele><time>2026-04-21T11:51:14.92Z</time></trkpt><trkpt lat="44.4255494" lon="8.8752951"><ele>107.0</ele><time>2026-04-21T11:51:15.92Z</time></trkpt><trkpt lat="44.4256396" lon="8.8756144"><ele>107.0</ele><time>2026-04-21T11:51:16.927Z</time></trkpt><trkpt lat="44.4257285" lon="8.8759301"><ele>107.0</ele><time>2026-04-21T11:51:17.922Z</time></trkpt><trkpt lat="44.425816" lon="8.8762434"><ele>115.5</ele><time>2026-04-21T11:51:18.921Z</time></trkpt><trkpt lat="44.4259015" lon="8.8765504"><ele>124.0</ele><time>2026-04-21T11:51:19.922Z</time></trkpt><trkpt lat="44.4259872" lon="8.8768528"><ele>126.0</ele><time>2026-04-21T11:51:20.924Z</time></trkpt><trkpt lat="44.426073" lon="8.8771492"><ele>128.0</ele><time>2026-04-21T11:51:21.924Z</time></trkpt><trkpt lat="44.4261584" lon="8.8774437"><ele>119.0</ele><time>2026-04-21T11:51:22.918Z</time></trkpt><trkpt lat="44.4262414" lon="8.8777384"><ele>110.0</ele><time>2026-04-21T11:51:23.925Z</time></trkpt><trkpt lat="44.4277435" lon="8.8815056"><ele>19.0</ele><time>2026-04-21T11:51:36.941Z</time></trkpt><trkpt lat="44.4278516" lon="8.8821787"><ele>19.0</ele><time>2026-04-21T11:51:38.937Z</time></trkpt><trkpt lat="44.4278585" lon="8.8825429"><ele>19.0</ele><time>2026-04-21T11:51:39.94Z</time></trkpt><trkpt lat="44.4278583" lon="8.8828667"><ele>17.5</ele><time>2026-04-21T11:51:40.943Z</time></trkpt><trkpt lat="44.4278302" lon="8.8832046"><ele>16.0</ele><time>2026-04-21T11:51:41.951Z</time></trkpt><trkpt lat="44.427778" lon="8.8835595"><ele>16.0</ele><time>2026-04-21T11:51:42.955Z</time></trkpt><trkpt lat="44.4277049" lon="8.8839203"><ele>16.0</ele><time>2026-04-21T11:51:43.964Z</time></trkpt><trkpt lat="44.427604" lon="8.884234"><ele>16.5</ele><time>2026-04-21T11:51:44.954Z</time></trkpt><trkpt lat="44.4274852" lon="8.8845709"><ele>17.0</ele><time>2026-04-21T11:51:45.955Z</time></trkpt><trkpt lat="44.4273556" lon="8.8848932"><ele>19.0</ele><time>2026-04-21T11:51:46.962Z</time></trkpt><trkpt lat="44.4272245" lon="8.8852003"><ele>21.0</ele><time>2026-04-21T11:51:47.956Z</time></trkpt><trkpt lat="44.4270909" lon="8.8855026"><ele>18.0</ele><time>2026-04-21T11:51:48.963Z</time></trkpt><trkpt lat="44.4269537" lon="8.8857981"><ele>15.0</ele><time>2026-04-21T11:51:49.956Z</time></trkpt><trkpt lat="44.4268187" lon="8.8860979"><ele>15.0</ele><time>2026-04-21T11:51:50.962Z</time></trkpt><trkpt lat="44.426683" lon="8.8864117"><ele>15.0</ele><time>2026-04-21T11:51:51.945Z</time></trkpt><trkpt lat="44.4265485" lon="8.8867366"><ele>15.5</ele><time>2026-04-21T11:51:52.953Z</time></trkpt><trkpt lat="44.426417" lon="8.887066"><ele>16.0</ele><time>2026-04-21T11:51:53.941Z</time></trkpt><trkpt lat="44.4262862" lon="8.8873939"><ele>14.0</ele><time>2026-04-21T11:51:54.951Z</time></trkpt><trkpt lat="44.4261628" lon="8.8877264"><ele>12.0</ele><time>2026-04-21T11:51:55.953Z</time></trkpt><trkpt lat="44.4260366" lon="8.8880551"><ele>12.0</ele><time>2026-04-21T11:51:56.954Z</time></trkpt><trkpt lat="44.4259103" lon="8.8883828"><ele>12.0</ele><time>2026-04-21T11:51:57.953Z</time></trkpt><trkpt lat="44.425653" lon="8.8890292"><ele>13.0</ele><time>2026-04-21T11:51:59.942Z</time></trkpt><trkpt lat="44.4255226" lon="8.8893447"><ele>14.0</ele><time>2026-04-21T11:52:00.948Z</time></trkpt><trkpt lat="44.4253903" lon="8.8896583"><ele>15.5</ele><time>2026-04-21T11:52:01.941Z</time></trkpt><trkpt lat="44.4252616" lon="8.8899698"><ele>17.0</ele><time>2026-04-21T11:52:02.964Z</time></trkpt><trkpt lat="44.4251376" lon="8.8902715"><ele>17.0</ele><time>2026-04-21T11:52:03.942Z</time></trkpt><trkpt lat="44.4250195" lon="8.890556"><ele>17.0</ele><time>2026-04-21T11:52:04.955Z</time></trkpt><trkpt lat="44.4249083" lon="8.8908278"><ele>17.0</ele><time>2026-04-21T11:52:05.942Z</time></trkpt><trkpt lat="44.4248013" lon="8.8910931"><ele>17.0</ele><time>2026-04-21T11:52:06.949Z</time></trkpt><trkpt lat="44.4247004" lon="8.8913466"><ele>17.0</ele><time>2026-04-21T11:52:07.942Z</time></trkpt><trkpt lat="44.4246078" lon="8.8915855"><ele>22.333333333333336</ele><time>2026-04-21T11:52:08.942Z</time></trkpt><trkpt lat="44.4245159" lon="8.8918136"><ele>27.666666666666668</ele><time>2026-04-21T11:52:09.96Z</time></trkpt><trkpt lat="44.4244263" lon="8.8920414"><ele>33.0</ele><time>2026-04-21T11:52:10.954Z</time></trkpt><trkpt lat="44.4243352" lon="8.8922715"><ele>33.0</ele><time>2026-04-21T11:52:11.944Z</time></trkpt><trkpt lat="44.4242443" lon="8.8925027"><ele>33.0</ele><time>2026-04-21T11:52:12.955Z</time></trkpt><trkpt lat="44.4241554" lon="8.8927249"><ele>33.0</ele><time>2026-04-21T11:52:13.951Z</time></trkpt><trkpt lat="44.4240692" lon="8.8929329"><ele>39.75</ele><time>2026-04-21T11:52:14.948Z</time></trkpt><trkpt lat="44.4239859" lon="8.8931276"><ele>46.5</ele><time>2026-04-21T11:52:15.956Z</time></trkpt><trkpt lat="44.4239082" lon="8.8933089"><ele>53.25</ele><time>2026-04-21T11:52:16.952Z</time></trkpt><trkpt lat="44.4238365" lon="8.8934684"><ele>60.0</ele><time>2026-04-21T11:52:17.943Z</time></trkpt><trkpt lat="44.4237687" lon="8.8936014"><ele>62.0</ele><time>2026-04-21T11:52:18.948Z</time></trkpt><trkpt lat="44.4236093" lon="8.8937873"><ele>64.0</ele><time>2026-04-21T11:52:20.954Z</time></trkpt><trkpt lat="44.4235077" lon="8.8938485"><ele>66.0</ele><time>2026-04-21T11:52:21.942Z</time></trkpt><trkpt lat="44.4233889" lon="8.8938905"><ele>68.0</ele><time>2026-04-21T11:52:22.943Z</time></trkpt><trkpt lat="44.4232554" lon="8.8939246"><ele>68.0</ele><time>2026-04-21T11:52:23.951Z</time></trkpt><trkpt lat="44.4231299" lon="8.8939559"><ele>68.0</ele><time>2026-04-21T11:52:24.947Z</time></trkpt><trkpt lat="44.4230125" lon="8.8939941"><ele>68.0</ele><time>2026-04-21T11:52:25.959Z</time></trkpt><trkpt lat="44.422902" lon="8.8940418"><ele>68.0</ele><time>2026-04-21T11:52:26.944Z</time></trkpt><trkpt lat="44.422795" lon="8.8941008"><ele>69.25</ele><time>2026-04-21T11:52:27.952Z</time></trkpt><trkpt lat="44.4226877" lon="8.8941708"><ele>70.5</ele><time>2026-04-21T11:52:28.934Z</time></trkpt><trkpt lat="44.4225792" lon="8.8942506"><ele>71.75</ele><time>2026-04-21T11:52:29.941Z</time></trkpt><trkpt lat="44.422472" lon="8.8943355"><ele>73.0</ele><time>2026-04-21T11:52:30.94Z</time></trkpt><trkpt lat="44.4223661" lon="8.8944292"><ele>73.0</ele><time>2026-04-21T11:52:31.944Z</time></trkpt><trkpt lat="44.4222594" lon="8.8945329"><ele>73.0</ele><time>2026-04-21T11:52:32.949Z</time></trkpt><trkpt lat="44.4221592" lon="8.8946503"><ele>73.0</ele><time>2026-04-21T11:52:33.94Z</time></trkpt><trkpt lat="44.422071" lon="8.8947811"><ele>73.0</ele><time>2026-04-21T11:52:34.958Z</time></trkpt><trkpt lat="44.4219959" lon="8.8949152"><ele>74.25</ele><time>2026-04-21T11:52:35.941Z</time></trkpt><trkpt lat="44.4219158" lon="8.895051"><ele>75.5</ele><time>2026-04-21T11:52:36.946Z</time></trkpt><trkpt lat="44.4218254" lon="8.895194"><ele>76.75</ele><time>2026-04-21T11:52:37.947Z</time></trkpt><trkpt lat="44.4217306" lon="8.8953341"><ele>78.0</ele><time>2026-04-21T11:52:38.941Z</time></trkpt><trkpt lat="44.4216354" lon="8.8954625"><ele>86.0</ele><time>2026-04-21T11:52:39.943Z</time></trkpt><trkpt lat="44.4214352" lon="8.8957157"><ele>94.0</ele><time>2026-04-21T11:52:41.944Z</time></trkpt><trkpt lat="44.4213267" lon="8.8958525"><ele>102.0</ele><time>2026-04-21T11:52:42.931Z</time></trkpt><trkpt lat="44.4212131" lon="8.8959932"><ele>111.0</ele><time>2026-04-21T11:52:43.944Z</time></trkpt><trkpt lat="44.4210712" lon="8.8961636"><ele>120.0</ele><time>2026-04-21T11:52:44.934Z</time></trkpt><trkpt lat="44.4209539" lon="8.8963033"><ele>129.0</ele><time>2026-04-21T11:52:45.928Z</time></trkpt><trkpt lat="44.4208452" lon="8.8964383"><ele>129.0</ele><time>2026-04-21T11:52:46.93Z</time></trkpt><trkpt lat="44.4207471" lon="8.8965619"><ele>129.0</ele><time>2026-04-21T11:52:47.927Z</time></trkpt><trkpt lat="44.4206632" lon="8.8966634"><ele>129.0</ele><time>2026-04-21T11:52:48.92Z</time></trkpt><trkpt lat="44.4205874" lon="8.8967505"><ele>129.0</ele><time>2026-04-21T11:52:49.931Z</time></trkpt><trkpt lat="44.4205231" lon="8.8968275"><ele>129.0</ele><time>2026-04-21T11:52:50.924Z</time></trkpt><trkpt lat="44.4204686" lon="8.8968957"><ele>122.5</ele><time>2026-04-21T11:52:51.925Z</time></trkpt><trkpt lat="44.4204167" lon="8.8969597"><ele>116.0</ele><time>2026-04-21T11:52:52.923Z</time></trkpt><trkpt lat="44.4203663" lon="8.8970192"><ele>109.5</ele><time>2026-04-21T11:52:53.926Z</time></trkpt><trkpt lat="44.4203009" lon="8.897098"><ele>103.0</ele><time>2026-04-21T11:52:55.926Z</time></trkpt><trkpt lat="44.4197159" lon="8.8978485"><ele>105.33333333333334</ele><time>2026-04-21T11:52:57.932Z</time></trkpt><trkpt lat="44.4196021" lon="8.8980486"><ele>107.66666666666666</ele><time>2026-04-21T11:52:58.933Z</time></trkpt><trkpt lat="44.4195696" lon="8.8982006"><ele>110.0</ele><time>2026-04-21T11:53:00.942Z</time></trkpt><trkpt lat="44.4195033" lon="8.8985516"><ele>110.0</ele><time>2026-04-21T11:53:02.938Z</time></trkpt><trkpt lat="44.4195063" lon="8.8986981"><ele>110.0</ele><time>2026-04-21T11:53:03.929Z</time></trkpt><trkpt lat="44.4195061" lon="8.8988582"><ele>110.0</ele><time>2026-04-21T11:53:04.93Z</time></trkpt><trkpt lat="44.4195046" lon="8.8990007"><ele>110.0</ele><time>2026-04-21T11:53:05.931Z</time></trkpt><trkpt lat="44.4195034" lon="8.8991291"><ele>110.0</ele><time>2026-04-21T11:53:06.932Z</time></trkpt><trkpt lat="44.4195035" lon="8.899242"><ele>104.0</ele><time>2026-04-21T11:53:07.926Z</time></trkpt><trkpt lat="44.4195" lon="8.8993614"><ele>98.0</ele><time>2026-04-21T11:53:08.92Z</time></trkpt><trkpt lat="44.4193914" lon="8.9002098"><ele>87.5</ele><time>2026-04-21T11:53:11.942Z</time></trkpt><trkpt lat="44.4192621" lon="8.9007234"><ele>77.0</ele><time>2026-04-21T11:53:12.94Z</time></trkpt><trkpt lat="44.4191348" lon="8.900986"><ele>75.0</ele><time>2026-04-21T11:53:13.941Z</time></trkpt><trkpt lat="44.4189876" lon="8.9012638"><ele>73.0</ele><time>2026-04-21T11:53:14.94Z</time></trkpt><trkpt lat="44.418827" lon="8.9014752"><ele>72.25</ele><time>2026-04-21T11:53:15.943Z</time></trkpt><trkpt lat="44.4186951" lon="8.9015982"><ele>71.5</ele><time>2026-04-21T11:53:16.947Z</time></trkpt><trkpt lat="44.4185744" lon="8.9016775"><ele>70.75</ele><time>2026-04-21T11:53:17.94Z</time></trkpt><trkpt lat="44.4184552" lon="8.9017342"><ele>70.0</ele><time>2026-04-21T11:53:18.936Z</time></trkpt><trkpt lat="44.4183436" lon="8.9017744"><ele>70.0</ele><time>2026-04-21T11:53:19.942Z</time></trkpt><trkpt lat="44.4182395" lon="8.9018221"><ele>70.0</ele><time>2026-04-21T11:53:20.946Z</time></trkpt><trkpt lat="44.4181468" lon="8.90187"><ele>70.0</ele><time>2026-04-21T11:53:21.948Z</time></trkpt><trkpt lat="44.4179685" lon="8.901951"><ele>70.0</ele><time>2026-04-21T11:53:23.954Z</time></trkpt><trkpt lat="44.417894" lon="8.9019956"><ele>67.4</ele><time>2026-04-21T11:53:24.95Z</time></trkpt><trkpt lat="44.4178264" lon="8.9020404"><ele>64.8</ele><time>2026-04-21T11:53:25.94Z</time></trkpt><trkpt lat="44.4177458" lon="8.9020937"><ele>62.2</ele><time>2026-04-21T11:53:27.949Z</time></trkpt><trkpt lat="44.417644" lon="8.9020842"><ele>59.6</ele><time>2026-04-21T11:54:01.942Z</time></trkpt><trkpt lat="44.4174834" lon="8.9021613"><ele>57.0</ele><time>2026-04-21T11:54:04.947Z</time></trkpt><trkpt lat="44.417376" lon="8.9022168"><ele>57.0</ele><time>2026-04-21T11:54:05.955Z</time></trkpt><trkpt lat="44.4172431" lon="8.9022896"><ele>57.0</ele><time>2026-04-21T11:54:06.96Z</time></trkpt><trkpt lat="44.4170939" lon="8.9023667"><ele>57.0</ele><time>2026-04-21T11:54:07.946Z</time></trkpt><trkpt lat="44.4169525" lon="8.9024154"><ele>57.0</ele><time>2026-04-21T11:54:08.954Z</time></trkpt><trkpt lat="44.4168093" lon="8.9024348"><ele>56.66666666666667</ele><time>2026-04-21T11:54:09.949Z</time></trkpt><trkpt lat="44.4166613" lon="8.9024228"><ele>56.333333333333336</ele><time>2026-04-21T11:54:10.939Z</time></trkpt><trkpt lat="44.4165075" lon="8.9023906"><ele>56.0</ele><time>2026-04-21T11:54:11.952Z</time></trkpt><trkpt lat="44.4163431" lon="8.9023473"><ele>53.0</ele><time>2026-04-21T11:54:12.951Z</time></trkpt><trkpt lat="44.416173" lon="8.9022839"><ele>50.0</ele><time>2026-04-21T11:54:13.957Z</time></trkpt><trkpt lat="44.4159969" lon="8.9022033"><ele>47.0</ele><time>2026-04-21T11:54:14.939Z</time></trkpt><trkpt lat="44.4158074" lon="8.9021073"><ele>47.0</ele><time>2026-04-21T11:54:15.941Z</time></trkpt><trkpt lat="44.4156081" lon="8.9020098"><ele>47.0</ele><time>2026-04-21T11:54:16.953Z</time></trkpt><trkpt lat="44.415397" lon="8.9019166"><ele>47.0</ele><time>2026-04-21T11:54:17.947Z</time></trkpt><trkpt lat="44.4151877" lon="8.9018037"><ele>46.5</ele><time>2026-04-21T11:54:18.952Z</time></trkpt><trkpt lat="44.4149792" lon="8.9016684"><ele>46.0</ele><time>2026-04-21T11:54:19.94Z</time></trkpt><trkpt lat="44.4147867" lon="8.9015063"><ele>45.0</ele><time>2026-04-21T11:54:20.956Z</time></trkpt><trkpt lat="44.4146198" lon="8.9013319"><ele>44.0</ele><time>2026-04-21T11:54:21.948Z</time></trkpt><trkpt lat="44.4144659" lon="8.9011634"><ele>43.0</ele><time>2026-04-21T11:54:22.934Z</time></trkpt><trkpt lat="44.4141641" lon="8.900841"><ele>43.0</ele><time>2026-04-21T11:54:24.941Z</time></trkpt><trkpt lat="44.414006" lon="8.9007393"><ele>43.0</ele><time>2026-04-21T11:54:25.939Z</time></trkpt><trkpt lat="44.4138374" lon="8.9006493"><ele>43.0</ele><time>2026-04-21T11:54:26.956Z</time></trkpt><trkpt lat="44.4136694" lon="8.9005631"><ele>42.0</ele><time>2026-04-21T11:54:27.943Z</time></trkpt><trkpt lat="44.4135054" lon="8.9004795"><ele>41.0</ele><time>2026-04-21T11:54:28.938Z</time></trkpt><trkpt lat="44.4133479" lon="8.9003906"><ele>40.0</ele><time>2026-04-21T11:54:29.94Z</time></trkpt><trkpt lat="44.4131895" lon="8.9003092"><ele>40.0</ele><time>2026-04-21T11:54:30.94Z</time></trkpt><trkpt lat="44.4130457" lon="8.9002493"><ele>40.0</ele><time>2026-04-21T11:54:31.942Z</time></trkpt><trkpt lat="44.4128888" lon="8.9002033"><ele>40.0</ele><time>2026-04-21T11:54:32.943Z</time></trkpt><trkpt lat="44.4127373" lon="8.9001706"><ele>40.25</ele><time>2026-04-21T11:54:33.934Z</time></trkpt><trkpt lat="44.4126033" lon="8.9001656"><ele>40.5</ele><time>2026-04-21T11:54:34.942Z</time></trkpt><trkpt lat="44.4124627" lon="8.9001807"><ele>40.75</ele><time>2026-04-21T11:54:35.944Z</time></trkpt><trkpt lat="44.4123143" lon="8.9002172"><ele>41.0</ele><time>2026-04-21T11:54:36.943Z</time></trkpt><trkpt lat="44.4121669" lon="8.9002742"><ele>39.0</ele><time>2026-04-21T11:54:37.943Z</time></trkpt><trkpt lat="44.4120154" lon="8.9003368"><ele>37.0</ele><time>2026-04-21T11:54:38.948Z</time></trkpt><trkpt lat="44.4118606" lon="8.9003973"><ele>35.0</ele><time>2026-04-21T11:54:39.942Z</time></trkpt><trkpt lat="44.4117118" lon="8.9004369"><ele>35.0</ele><time>2026-04-21T11:54:40.943Z</time></trkpt><trkpt lat="44.4115804" lon="8.9004469"><ele>35.0</ele><time>2026-04-21T11:54:41.941Z</time></trkpt><trkpt lat="44.4114645" lon="8.9004209"><ele>35.0</ele><time>2026-04-21T11:54:42.949Z</time></trkpt><trkpt lat="44.4113602" lon="8.9003628"><ele>35.0</ele><time>2026-04-21T11:54:43.956Z</time></trkpt><trkpt lat="44.4111559" lon="8.9002366"><ele>33.666666666666664</ele><time>2026-04-21T11:54:45.943Z</time></trkpt><trkpt lat="44.4110622" lon="8.9001789"><ele>32.33333333333333</ele><time>2026-04-21T11:54:46.942Z</time></trkpt><trkpt lat="44.4109783" lon="8.9001262"><ele>31.0</ele><time>2026-04-21T11:54:47.95Z</time></trkpt><trkpt lat="44.4109055" lon="8.9000819"><ele>29.666666666666664</ele><time>2026-04-21T11:54:48.952Z</time></trkpt><trkpt lat="44.4108463" lon="8.9000445"><ele>28.333333333333332</ele><time>2026-04-21T11:54:49.946Z</time></trkpt><trkpt lat="44.4107768" lon="8.900002"><ele>27.0</ele><time>2026-04-21T11:54:51.949Z</time></trkpt><trkpt lat="44.4106997" lon="8.8999895"><ele>26.400000000000002</ele><time>2026-04-21T11:55:08.95Z</time></trkpt><trkpt lat="44.4105315" lon="8.9001155"><ele>25.800000000000004</ele><time>2026-04-21T11:55:11.936Z</time></trkpt><trkpt lat="44.4105067" lon="8.9002191"><ele>25.2</ele><time>2026-04-21T11:55:12.954Z</time></trkpt><trkpt lat="44.410514" lon="8.9003393"><ele>24.6</ele><time>2026-04-21T11:55:13.951Z</time></trkpt><trkpt lat="44.4105317" lon="8.9004617"><ele>24.0</ele><time>2026-04-21T11:55:14.95Z</time></trkpt><trkpt lat="44.4105455" lon="8.900588"><ele>24.0</ele><time>2026-04-21T11:55:15.939Z</time></trkpt><trkpt lat="44.4105669" lon="8.9007241"><ele>24.0</ele><time>2026-04-21T11:55:16.939Z</time></trkpt><trkpt lat="44.4105794" lon="8.9008666"><ele>24.0</ele><time>2026-04-21T11:55:17.947Z</time></trkpt><trkpt lat="44.4105944" lon="8.9010088"><ele>24.0</ele><time>2026-04-21T11:55:18.935Z</time></trkpt><trkpt lat="44.4106089" lon="8.9011554"><ele>24.0</ele><time>2026-04-21T11:55:19.943Z</time></trkpt><trkpt lat="44.4106253" lon="8.9012961"><ele>24.0</ele><time>2026-04-21T11:55:20.943Z</time></trkpt><trkpt lat="44.410646" lon="8.9014326"><ele>24.0</ele><time>2026-04-21T11:55:21.94Z</time></trkpt><trkpt lat="44.4106495" lon="8.9015708"><ele>24.0</ele><time>2026-04-21T11:55:22.954Z</time></trkpt><trkpt lat="44.4106503" lon="8.9017028"><ele>24.0</ele><time>2026-04-21T11:55:23.951Z</time></trkpt><trkpt lat="44.4106518" lon="8.9018204"><ele>24.0</ele><time>2026-04-21T11:55:24.95Z</time></trkpt><trkpt lat="44.410654" lon="8.9019274"><ele>24.25</ele><time>2026-04-21T11:55:25.939Z</time></trkpt><trkpt lat="44.4106551" lon="8.902019"><ele>24.5</ele><time>2026-04-21T11:55:26.954Z</time></trkpt><trkpt lat="44.4106627" lon="8.9021571"><ele>24.75</ele><time>2026-04-21T11:55:28.94Z</time></trkpt><trkpt lat="44.4106674" lon="8.9022709"><ele>25.0</ele><time>2026-04-21T11:55:31.95Z</time></trkpt><trkpt lat="44.4106384" lon="8.9026836"><ele>25.0</ele><time>2026-04-21T11:56:23.959Z</time></trkpt><trkpt lat="44.4106422" lon="8.9027947"><ele>25.0</ele><time>2026-04-21T11:56:24.943Z</time></trkpt><trkpt lat="44.4106473" lon="8.9029143"><ele>25.0</ele><time>2026-04-21T11:56:25.961Z</time></trkpt><trkpt lat="44.410655" lon="8.9030511"><ele>25.0</ele><time>2026-04-21T11:56:26.94Z</time></trkpt><trkpt lat="44.4106689" lon="8.9031954"><ele>25.0</ele><time>2026-04-21T11:56:27.954Z</time></trkpt><trkpt lat="44.4106834" lon="8.9033565"><ele>24.25</ele><time>2026-04-21T11:56:28.943Z</time></trkpt><trkpt lat="44.410699" lon="8.9035271"><ele>23.5</ele><time>2026-04-21T11:56:29.941Z</time></trkpt><trkpt lat="44.4107206" lon="8.9036941"><ele>22.75</ele><time>2026-04-21T11:56:30.94Z</time></trkpt><trkpt lat="44.4107474" lon="8.9038633"><ele>22.0</ele><time>2026-04-21T11:56:31.957Z</time></trkpt><trkpt lat="44.4107764" lon="8.9040353"><ele>22.0</ele><time>2026-04-21T11:56:32.938Z</time></trkpt><trkpt lat="44.4108125" lon="8.9042067"><ele>22.0</ele><time>2026-04-21T11:56:33.943Z</time></trkpt><trkpt lat="44.4108527" lon="8.9043758"><ele>22.0</ele><time>2026-04-21T11:56:34.954Z</time></trkpt><trkpt lat="44.4108979" lon="8.9045434"><ele>22.0</ele><time>2026-04-21T11:56:35.962Z</time></trkpt><trkpt lat="44.4109458" lon="8.9047115"><ele>21.75</ele><time>2026-04-21T11:56:36.951Z</time></trkpt><trkpt lat="44.4110028" lon="8.9048816"><ele>21.5</ele><time>2026-04-21T11:56:37.951Z</time></trkpt><trkpt lat="44.411066" lon="8.9050573"><ele>21.25</ele><time>2026-04-21T11:56:38.96Z</time></trkpt><trkpt lat="44.4111366" lon="8.9052362"><ele>21.0</ele><time>2026-04-21T11:56:39.95Z</time></trkpt><trkpt lat="44.4112127" lon="8.9054108"><ele>20.666666666666668</ele><time>2026-04-21T11:56:40.95Z</time></trkpt><trkpt lat="44.4112887" lon="8.9055818"><ele>20.333333333333336</ele><time>2026-04-21T11:56:41.952Z</time></trkpt><trkpt lat="44.4114286" lon="8.9059205"><ele>20.0</ele><time>2026-04-21T11:56:43.963Z</time></trkpt><trkpt lat="44.4114993" lon="8.9060876"><ele>20.0</ele><time>2026-04-21T11:56:44.942Z</time></trkpt><trkpt lat="44.4115719" lon="8.9062618"><ele>20.0</ele><time>2026-04-21T11:56:45.95Z</time></trkpt><trkpt lat="44.4116421" lon="8.906442"><ele>20.0</ele><time>2026-04-21T11:56:46.95Z</time></trkpt><trkpt lat="44.4117067" lon="8.9066237"><ele>20.0</ele><time>2026-04-21T11:56:47.941Z</time></trkpt><trkpt lat="44.4117597" lon="8.9068017"><ele>19.0</ele><time>2026-04-21T11:56:48.943Z</time></trkpt><trkpt lat="44.4117922" lon="8.9069784"><ele>18.0</ele><time>2026-04-21T11:56:49.942Z</time></trkpt><trkpt lat="44.4118001" lon="8.9071508"><ele>17.0</ele><time>2026-04-21T11:56:50.94Z</time></trkpt><trkpt lat="44.4117858" lon="8.9073068"><ele>16.0</ele><time>2026-04-21T11:56:51.949Z</time></trkpt><trkpt lat="44.4117619" lon="8.9074429"><ele>16.0</ele><time>2026-04-21T11:56:52.944Z</time></trkpt><trkpt lat="44.4117237" lon="8.9075654"><ele>16.0</ele><time>2026-04-21T11:56:53.941Z</time></trkpt><trkpt lat="44.411673" lon="8.9076894"><ele>16.0</ele><time>2026-04-21T11:56:54.941Z</time></trkpt><trkpt lat="44.4116073" lon="8.9077804"><ele>16.0</ele><time>2026-04-21T11:56:55.943Z</time></trkpt><trkpt lat="44.4115348" lon="8.9078579"><ele>16.0</ele><time>2026-04-21T11:56:56.942Z</time></trkpt><trkpt lat="44.4114688" lon="8.9079138"><ele>15.4</ele><time>2026-04-21T11:56:57.937Z</time></trkpt><trkpt lat="44.4114096" lon="8.9079566"><ele>14.8</ele><time>2026-04-21T11:56:58.949Z</time></trkpt><trkpt lat="44.4112889" lon="8.9079936"><ele>14.200000000000001</ele><time>2026-04-21T11:57:00.96Z</time></trkpt><trkpt lat="44.411217" lon="8.9079838"><ele>13.600000000000001</ele><time>2026-04-21T11:57:01.939Z</time></trkpt><trkpt lat="44.4111448" lon="8.9079918"><ele>13.0</ele><time>2026-04-21T11:57:02.95Z</time></trkpt><trkpt lat="44.4109476" lon="8.9080788"><ele>12.499999999999998</ele><time>2026-04-21T11:57:05.939Z</time></trkpt><trkpt lat="44.4109112" lon="8.9082209"><ele>12.0</ele><time>2026-04-21T11:57:07.941Z</time></trkpt><trkpt lat="44.4109465" lon="8.9083148"><ele>11.5</ele><time>2026-04-21T11:57:08.942Z</time></trkpt><trkpt lat="44.410992" lon="8.9084018"><ele>11.0</ele><time>2026-04-21T11:57:09.941Z</time></trkpt><trkpt lat="44.4110558" lon="8.9084709"><ele>10.5</ele><time>2026-04-21T11:57:10.94Z</time></trkpt><trkpt lat="44.4111421" lon="8.9085239"><ele>10.0</ele><time>2026-04-21T11:57:11.94Z</time></trkpt><trkpt lat="44.4112266" lon="8.908552"><ele>10.0</ele><time>2026-04-21T11:57:12.966Z</time></trkpt><trkpt lat="44.4113133" lon="8.9085778"><ele>10.0</ele><time>2026-04-21T11:57:13.957Z</time></trkpt><trkpt lat="44.4113981" lon="8.908616"><ele>10.0</ele><time>2026-04-21T11:57:14.95Z</time></trkpt><trkpt lat="44.4114756" lon="8.9086681"><ele>10.0</ele><time>2026-04-21T11:57:15.947Z</time></trkpt><trkpt lat="44.4115543" lon="8.9087392"><ele>10.0</ele><time>2026-04-21T11:57:16.952Z</time></trkpt><trkpt lat="44.4116581" lon="8.9088479"><ele>9.5</ele><time>2026-04-21T11:57:17.955Z</time></trkpt><trkpt lat="44.4117605" lon="8.9089553"><ele>9.0</ele><time>2026-04-21T11:57:18.947Z</time></trkpt><trkpt lat="44.4118589" lon="8.9090626"><ele>8.5</ele><time>2026-04-21T11:57:19.961Z</time></trkpt><trkpt lat="44.4119497" lon="8.9091564"><ele>8.0</ele><time>2026-04-21T11:57:20.946Z</time></trkpt><trkpt lat="44.4120338" lon="8.9092385"><ele>8.200000000000001</ele><time>2026-04-21T11:57:21.961Z</time></trkpt><trkpt lat="44.4121127" lon="8.9093149"><ele>8.4</ele><time>2026-04-21T11:57:22.96Z</time></trkpt><trkpt lat="44.4121864" lon="8.9093801"><ele>8.600000000000001</ele><time>2026-04-21T11:57:23.942Z</time></trkpt><trkpt lat="44.4123238" lon="8.9095097"><ele>8.8</ele><time>2026-04-21T11:57:25.955Z</time></trkpt><trkpt lat="44.4123874" lon="8.9095706"><ele>9.0</ele><time>2026-04-21T11:57:26.952Z</time></trkpt><trkpt lat="44.4124412" lon="8.9096236"><ele>9.0</ele><time>2026-04-21T11:57:27.954Z</time></trkpt><trkpt lat="44.412516" lon="8.9096891"><ele>9.0</ele><time>2026-04-21T11:57:29.961Z</time></trkpt><trkpt lat="44.4125742" lon="8.9097429"><ele>9.0</ele><time>2026-04-21T11:57:32.965Z</time></trkpt><trkpt lat="44.4126736" lon="8.9098355"><ele>9.0</ele><time>2026-04-21T11:58:05.96Z</time></trkpt><trkpt lat="44.4128182" lon="8.910015"><ele>8.5</ele><time>2026-04-21T11:58:07.955Z</time></trkpt><trkpt lat="44.4128954" lon="8.9101358"><ele>8.0</ele><time>2026-04-21T11:58:08.957Z</time></trkpt><trkpt lat="44.4129816" lon="8.9102639"><ele>7.5</ele><time>2026-04-21T11:58:09.962Z</time></trkpt><trkpt lat="44.4130739" lon="8.91042"><ele>7.0</ele><time>2026-04-21T11:58:10.952Z</time></trkpt><trkpt lat="44.4131709" lon="8.9105887"><ele>7.0</ele><time>2026-04-21T11:58:11.938Z</time></trkpt><trkpt lat="44.4132637" lon="8.9107662"><ele>7.0</ele><time>2026-04-21T11:58:12.964Z</time></trkpt><trkpt lat="44.4133478" lon="8.9109531"><ele>7.0</ele><time>2026-04-21T11:58:13.96Z</time></trkpt><trkpt lat="44.4134287" lon="8.9111526"><ele>5.333333333333334</ele><time>2026-04-21T11:58:14.95Z</time></trkpt><trkpt lat="44.4135137" lon="8.9113479"><ele>3.666666666666667</ele><time>2026-04-21T11:58:15.954Z</time></trkpt><trkpt lat="44.4135983" lon="8.9115364"><ele>2.0</ele><time>2026-04-21T11:58:16.951Z</time></trkpt><trkpt lat="44.4136779" lon="8.9117094"><ele>1.75</ele><time>2026-04-21T11:58:17.958Z</time></trkpt><trkpt lat="44.4137526" lon="8.9118693"><ele>1.5</ele><time>2026-04-21T11:58:18.944Z</time></trkpt><trkpt lat="44.413821" lon="8.9120189"><ele>1.25</ele><time>2026-04-21T11:58:19.956Z</time></trkpt><trkpt lat="44.413883" lon="8.9121574"><ele>1.0</ele><time>2026-04-21T11:58:20.949Z</time></trkpt><trkpt lat="44.4139401" lon="8.9122756"><ele>2.2</ele><time>2026-04-21T11:58:21.959Z</time></trkpt><trkpt lat="44.413989" lon="8.9123759"><ele>3.4</ele><time>2026-04-21T11:58:22.953Z</time></trkpt><trkpt lat="44.4140242" lon="8.9124554"><ele>4.6</ele><time>2026-04-21T11:58:23.958Z</time></trkpt><trkpt lat="44.4140601" lon="8.9125489"><ele>5.8</ele><time>2026-04-21T11:58:25.951Z</time></trkpt><trkpt lat="44.4141041" lon="8.9126488"><ele>7.0</ele><time>2026-04-21T11:58:49.941Z</time></trkpt><trkpt lat="44.4141981" lon="8.9128847"><ele>7.0</ele><time>2026-04-21T11:58:51.954Z</time></trkpt><trkpt lat="44.4142707" lon="8.9130667"><ele>7.0</ele><time>2026-04-21T11:58:52.959Z</time></trkpt><trkpt lat="44.414356" lon="8.913289"><ele>7.0</ele><time>2026-04-21T11:58:53.949Z</time></trkpt><trkpt lat="44.4144348" lon="8.91351"><ele>6.333333333333334</ele><time>2026-04-21T11:58:54.96Z</time></trkpt><trkpt lat="44.4145185" lon="8.9137226"><ele>5.666666666666667</ele><time>2026-04-21T11:58:55.94Z</time></trkpt><trkpt lat="44.414598" lon="8.9139295"><ele>5.0</ele><time>2026-04-21T11:58:56.955Z</time></trkpt><trkpt lat="44.4146744" lon="8.9141269"><ele>5.5</ele><time>2026-04-21T11:58:57.953Z</time></trkpt><trkpt lat="44.4147468" lon="8.9143172"><ele>6.0</ele><time>2026-04-21T11:58:58.948Z</time></trkpt><trkpt lat="44.4148174" lon="8.9144978"><ele>6.5</ele><time>2026-04-21T11:58:59.937Z</time></trkpt><trkpt lat="44.4148826" lon="8.9146694"><ele>7.0</ele><time>2026-04-21T11:59:00.958Z</time></trkpt><trkpt lat="44.4149388" lon="8.9148182"><ele>7.0</ele><time>2026-04-21T11:59:01.956Z</time></trkpt><trkpt lat="44.4149841" lon="8.9149371"><ele>6.999999999999999</ele><time>2026-04-21T11:59:02.951Z</time></trkpt><trkpt lat="44.4150094" lon="8.915024"><ele>6.999999999999999</ele><time>2026-04-21T11:59:03.957Z</time></trkpt><trkpt lat="44.4150208" lon="8.9151262"><ele>7.0</ele><time>2026-04-21T11:59:05.947Z</time></trkpt><trkpt lat="44.4149756" lon="8.9153062"><ele>7.0</ele><time>2026-04-21T11:59:40.946Z</time></trkpt><trkpt lat="44.41491" lon="8.9156335"><ele>7.5</ele><time>2026-04-21T11:59:42.956Z</time></trkpt><trkpt lat="44.4148705" lon="8.9158251"><ele>8.0</ele><time>2026-04-21T11:59:43.959Z</time></trkpt><trkpt lat="44.4148374" lon="8.9160263"><ele>8.5</ele><time>2026-04-21T11:59:44.958Z</time></trkpt><trkpt lat="44.4148164" lon="8.9162335"><ele>9.0</ele><time>2026-04-21T11:59:45.956Z</time></trkpt><trkpt lat="44.414819" lon="8.9164375"><ele>9.0</ele><time>2026-04-21T11:59:46.958Z</time></trkpt><trkpt lat="44.4148556" lon="8.9166388"><ele>9.0</ele><time>2026-04-21T11:59:47.947Z</time></trkpt><trkpt lat="44.4149052" lon="8.9168372"><ele>9.0</ele><time>2026-04-21T11:59:48.954Z</time></trkpt><trkpt lat="44.4149564" lon="8.917036"><ele>9.0</ele><time>2026-04-21T11:59:49.949Z</time></trkpt><trkpt lat="44.4150084" lon="8.9172395"><ele>8.666666666666666</ele><time>2026-04-21T11:59:50.957Z</time></trkpt><trkpt lat="44.4150559" lon="8.917444"><ele>8.333333333333332</ele><time>2026-04-21T11:59:51.95Z</time></trkpt><trkpt lat="44.4151014" lon="8.9176504"><ele>8.0</ele><time>2026-04-21T11:59:52.958Z</time></trkpt><trkpt lat="44.4151488" lon="8.9178654"><ele>8.0</ele><time>2026-04-21T11:59:53.958Z</time></trkpt><trkpt lat="44.4151977" lon="8.9180841"><ele>8.0</ele><time>2026-04-21T11:59:54.96Z</time></trkpt><trkpt lat="44.4152467" lon="8.9183004"><ele>8.0</ele><time>2026-04-21T11:59:55.957Z</time></trkpt><trkpt lat="44.4152977" lon="8.9185207"><ele>7.333333333333333</ele><time>2026-04-21T11:59:56.955Z</time></trkpt><trkpt lat="44.4153434" lon="8.9187439"><ele>6.666666666666666</ele><time>2026-04-21T11:59:57.946Z</time></trkpt><trkpt lat="44.4153846" lon="8.9189674"><ele>6.0</ele><time>2026-04-21T11:59:58.959Z</time></trkpt><trkpt lat="44.4154208" lon="8.9191937"><ele>6.0</ele><time>2026-04-21T11:59:59.952Z</time></trkpt><trkpt lat="44.4154523" lon="8.919423"><ele>6.0</ele><time>2026-04-21T12:00:00.956Z</time></trkpt><trkpt lat="44.4154825" lon="8.9196469"><ele>6.0</ele><time>2026-04-21T12:00:01.958Z</time></trkpt><trkpt lat="44.4155428" lon="8.9200534"><ele>8.2</ele><time>2026-04-21T12:00:03.939Z</time></trkpt><trkpt lat="44.4155674" lon="8.920231"><ele>10.399999999999999</ele><time>2026-04-21T12:00:04.949Z</time></trkpt><trkpt lat="44.4155879" lon="8.9203858"><ele>12.6</ele><time>2026-04-21T12:00:05.944Z</time></trkpt><trkpt lat="44.4156011" lon="8.9205085"><ele>14.799999999999999</ele><time>2026-04-21T12:00:06.94Z</time></trkpt><trkpt lat="44.4156089" lon="8.9206002"><ele>17.0</ele><time>2026-04-21T12:00:07.957Z</time></trkpt><trkpt lat="44.4156146" lon="8.9207089"><ele>17.0</ele><time>2026-04-21T12:00:09.957Z</time></trkpt><trkpt lat="44.4155817" lon="8.9208057"><ele>17.0</ele><time>2026-04-21T12:00:19.942Z</time></trkpt><trkpt lat="44.4155668" lon="8.9209214"><ele>17.0</ele><time>2026-04-21T12:00:20.952Z</time></trkpt><trkpt lat="44.4155424" lon="8.9210783"><ele>17.0</ele><time>2026-04-21T12:00:21.954Z</time></trkpt><trkpt lat="44.4155123" lon="8.9212503"><ele>17.0</ele><time>2026-04-21T12:00:22.954Z</time></trkpt><trkpt lat="44.4154562" lon="8.9216024"><ele>14.5</ele><time>2026-04-21T12:00:24.954Z</time></trkpt><trkpt lat="44.4154333" lon="8.9217944"><ele>12.0</ele><time>2026-04-21T12:00:25.959Z</time></trkpt><trkpt lat="44.4154099" lon="8.9219956"><ele>9.5</ele><time>2026-04-21T12:00:26.941Z</time></trkpt><trkpt lat="44.4153707" lon="8.9221937"><ele>7.0</ele><time>2026-04-21T12:00:27.953Z</time></trkpt><trkpt lat="44.4153255" lon="8.922407"><ele>8.0</ele><time>2026-04-21T12:00:28.947Z</time></trkpt><trkpt lat="44.4152671" lon="8.9226232"><ele>9.0</ele><time>2026-04-21T12:00:29.944Z</time></trkpt><trkpt lat="44.4152092" lon="8.922846"><ele>10.0</ele><time>2026-04-21T12:00:30.956Z</time></trkpt><trkpt lat="44.4151364" lon="8.9230569"><ele>10.0</ele><time>2026-04-21T12:00:31.948Z</time></trkpt><trkpt lat="44.4150584" lon="8.9232708"><ele>10.0</ele><time>2026-04-21T12:00:32.941Z</time></trkpt><trkpt lat="44.4149692" lon="8.9234752"><ele>10.0</ele><time>2026-04-21T12:00:33.951Z</time></trkpt><trkpt lat="44.4148715" lon="8.9236662"><ele>8.333333333333334</ele><time>2026-04-21T12:00:34.954Z</time></trkpt><trkpt lat="44.4147672" lon="8.9238563"><ele>6.666666666666667</ele><time>2026-04-21T12:00:35.952Z</time></trkpt><trkpt lat="44.4146566" lon="8.9240434"><ele>5.0</ele><time>2026-04-21T12:00:36.939Z</time></trkpt><trkpt lat="44.4145432" lon="8.9242256"><ele>6.0</ele><time>2026-04-21T12:00:37.955Z</time></trkpt><trkpt lat="44.4144253" lon="8.9244195"><ele>7.0</ele><time>2026-04-21T12:00:38.944Z</time></trkpt><trkpt lat="44.414314" lon="8.9245944"><ele>8.0</ele><time>2026-04-21T12:00:39.953Z</time></trkpt><trkpt lat="44.4142016" lon="8.9247681"><ele>8.0</ele><time>2026-04-21T12:00:40.948Z</time></trkpt><trkpt lat="44.4140891" lon="8.924943"><ele>8.0</ele><time>2026-04-21T12:00:41.951Z</time></trkpt><trkpt lat="44.4139689" lon="8.9251144"><ele>8.0</ele><time>2026-04-21T12:00:42.942Z</time></trkpt><trkpt lat="44.4138487" lon="8.9252939"><ele>7.0</ele><time>2026-04-21T12:00:43.948Z</time></trkpt><trkpt lat="44.4136173" lon="8.9256714"><ele>6.0</ele><time>2026-04-21T12:00:45.952Z</time></trkpt><trkpt lat="44.4135028" lon="8.9258601"><ele>8.333333333333332</ele><time>2026-04-21T12:00:46.941Z</time></trkpt><trkpt lat="44.4133877" lon="8.9260484"><ele>10.666666666666666</ele><time>2026-04-21T12:00:47.95Z</time></trkpt><trkpt lat="44.4132737" lon="8.9262313"><ele>13.0</ele><time>2026-04-21T12:00:48.942Z</time></trkpt><trkpt lat="44.4131643" lon="8.9264024"><ele>13.0</ele><time>2026-04-21T12:00:49.942Z</time></trkpt><trkpt lat="44.4130577" lon="8.9265671"><ele>13.0</ele><time>2026-04-21T12:00:50.955Z</time></trkpt><trkpt lat="44.4129432" lon="8.9267332"><ele>13.0</ele><time>2026-04-21T12:00:51.942Z</time></trkpt><trkpt lat="44.4128229" lon="8.9269043"><ele>14.0</ele><time>2026-04-21T12:00:52.949Z</time></trkpt><trkpt lat="44.4127077" lon="8.9270626"><ele>15.0</ele><time>2026-04-21T12:00:53.953Z</time></trkpt><trkpt lat="44.4125874" lon="8.9272047"><ele>16.0</ele><time>2026-04-21T12:00:54.945Z</time></trkpt><trkpt lat="44.4124848" lon="8.9274365"><ele>16.0</ele><time>2026-04-21T12:00:55.938Z</time></trkpt><trkpt lat="44.4123764" lon="8.9275159"><ele>16.0</ele><time>2026-04-21T12:00:56.934Z</time></trkpt><trkpt lat="44.412302" lon="8.9275789"><ele>16.0</ele><time>2026-04-21T12:00:57.937Z</time></trkpt><trkpt lat="44.4122072" lon="8.9276831"><ele>16.0</ele><time>2026-04-21T12:00:59.935Z</time></trkpt><trkpt lat="44.4121513" lon="8.9277313"><ele>16.0</ele><time>2026-04-21T12:01:00.937Z</time></trkpt><trkpt lat="44.4120807" lon="8.9277868"><ele>16.8</ele><time>2026-04-21T12:01:02.932Z</time></trkpt><trkpt lat="44.4120147" lon="8.927858"><ele>17.6</ele><time>2026-04-21T12:01:19.933Z</time></trkpt><trkpt lat="44.4118788" lon="8.9280024"><ele>18.4</ele><time>2026-04-21T12:01:37.934Z</time></trkpt><trkpt lat="44.4118103" lon="8.9280271"><ele>19.2</ele><time>2026-04-21T12:01:38.932Z</time></trkpt><trkpt lat="44.4117391" lon="8.9280707"><ele>20.0</ele><time>2026-04-21T12:01:39.94Z</time></trkpt><trkpt lat="44.4116722" lon="8.9281181"><ele>20.0</ele><time>2026-04-21T12:01:40.937Z</time></trkpt><trkpt lat="44.411535" lon="8.9282019"><ele>20.0</ele><time>2026-04-21T12:01:42.939Z</time></trkpt><trkpt lat="44.4114595" lon="8.9282246"><ele>20.0</ele><time>2026-04-21T12:01:43.934Z</time></trkpt><trkpt lat="44.4113851" lon="8.9282658"><ele>20.0</ele><time>2026-04-21T12:01:44.936Z</time></trkpt><trkpt lat="44.4113097" lon="8.9283077"><ele>20.0</ele><time>2026-04-21T12:01:45.939Z</time></trkpt><trkpt lat="44.4112321" lon="8.9283339"><ele>20.833333333333336</ele><time>2026-04-21T12:01:46.934Z</time></trkpt><trkpt lat="44.4111475" lon="8.9283631"><ele>21.666666666666668</ele><time>2026-04-21T12:01:47.934Z</time></trkpt><trkpt lat="44.4110616" lon="8.9284022"><ele>22.5</ele><time>2026-04-21T12:01:48.928Z</time></trkpt><trkpt lat="44.4109709" lon="8.9284321"><ele>23.333333333333336</ele><time>2026-04-21T12:01:49.938Z</time></trkpt><trkpt lat="44.4108863" lon="8.9284494"><ele>24.166666666666668</ele><time>2026-04-21T12:01:50.933Z</time></trkpt><trkpt lat="44.410817" lon="8.9284581"><ele>25.0</ele><time>2026-04-21T12:01:51.937Z</time></trkpt><trkpt lat="44.4107488" lon="8.9284662"><ele>25.0</ele><time>2026-04-21T12:01:52.942Z</time></trkpt><trkpt lat="44.4106357" lon="8.9284944"><ele>25.0</ele><time>2026-04-21T12:01:54.937Z</time></trkpt><trkpt lat="44.4105536" lon="8.9285292"><ele>25.0</ele><time>2026-04-21T12:01:56.94Z</time></trkpt><trkpt lat="44.410487" lon="8.9285517"><ele>25.0</ele><time>2026-04-21T12:01:58.94Z</time></trkpt><trkpt lat="44.4104114" lon="8.9285267"><ele>25.0</ele><time>2026-04-21T12:02:11.938Z</time></trkpt><trkpt lat="44.4105542" lon="8.928814"><ele>25.000000000000004</ele><time>2026-04-21T12:02:46.933Z</time></trkpt><trkpt lat="44.4106647" lon="8.9287837"><ele>25.0</ele><time>2026-04-21T12:02:48.933Z</time></trkpt><trkpt lat="44.4107323" lon="8.9287437"><ele>25.0</ele><time>2026-04-21T12:02:49.934Z</time></trkpt><trkpt lat="44.410805" lon="8.9287011"><ele>25.0</ele><time>2026-04-21T12:02:50.935Z</time></trkpt><trkpt lat="44.410867" lon="8.9286629"><ele>25.000000000000004</ele><time>2026-04-21T12:02:51.936Z</time></trkpt><trkpt lat="44.410965" lon="8.9286002"><ele>25.0</ele><time>2026-04-21T12:02:53.933Z</time></trkpt><trkpt lat="44.4110458" lon="8.9285468"><ele>25.0</ele><time>2026-04-21T12:02:55.936Z</time></trkpt><trkpt lat="44.4111304" lon="8.9284968"><ele>25.0</ele><time>2026-04-21T12:02:57.936Z</time></trkpt><trkpt lat="44.4112122" lon="8.9284334"><ele>25.0</ele><time>2026-04-21T12:02:59.935Z</time></trkpt><trkpt lat="44.4112906" lon="8.9283717"><ele>25.0</ele><time>2026-04-21T12:03:01.932Z</time></trkpt><trkpt lat="44.4113674" lon="8.9283131"><ele>25.0</ele><time>2026-04-21T12:03:03.935Z</time></trkpt><trkpt lat="44.4115207" lon="8.9281857"><ele>24.166666666666668</ele><time>2026-04-21T12:03:08.932Z</time></trkpt><trkpt lat="44.4115604" lon="8.9280975"><ele>23.333333333333336</ele><time>2026-04-21T12:03:10.931Z</time></trkpt><trkpt lat="44.4115038" lon="8.9279961"><ele>22.5</ele><time>2026-04-21T12:03:12.933Z</time></trkpt><trkpt lat="44.4114407" lon="8.9279913"><ele>21.666666666666668</ele><time>2026-04-21T12:03:13.934Z</time></trkpt><trkpt lat="44.4113606" lon="8.9280406"><ele>20.833333333333336</ele><time>2026-04-21T12:03:14.934Z</time></trkpt><trkpt lat="44.4112667" lon="8.9281271"><ele>20.0</ele><time>2026-04-21T12:03:15.94Z</time></trkpt><trkpt lat="44.411149" lon="8.9282417"><ele>21.666666666666668</ele><time>2026-04-21T12:03:16.937Z</time></trkpt><trkpt lat="44.4110083" lon="8.9283575"><ele>23.333333333333336</ele><time>2026-04-21T12:03:17.935Z</time></trkpt><trkpt lat="44.4108641" lon="8.9284327"><ele>25.0</ele><time>2026-04-21T12:03:18.941Z</time></trkpt><trkpt lat="44.4107198" lon="8.928477"><ele>25.0</ele><time>2026-04-21T12:03:19.94Z</time></trkpt><trkpt lat="44.4105639" lon="8.9285098"><ele>25.0</ele><time>2026-04-21T12:03:20.935Z</time></trkpt><trkpt lat="44.4104041" lon="8.928546"><ele>25.0</ele><time>2026-04-21T12:03:21.933Z</time></trkpt><trkpt lat="44.4102425" lon="8.9285996"><ele>22.0</ele><time>2026-04-21T12:03:22.933Z</time></trkpt><trkpt lat="44.4100796" lon="8.9286532"><ele>19.0</ele><time>2026-04-21T12:03:23.931Z</time></trkpt><trkpt lat="44.4077112" lon="8.9280097"><ele>17.0</ele><time>2026-04-21T12:03:36.931Z</time></trkpt><trkpt lat="44.4074695" lon="8.9279425"><ele>15.0</ele><time>2026-04-21T12:03:38.932Z</time></trkpt><trkpt lat="44.4074091" lon="8.9278969"><ele>13.0</ele><time>2026-04-21T12:03:39.94Z</time></trkpt><trkpt lat="44.4073218" lon="8.9278547"><ele>11.0</ele><time>2026-04-21T12:03:40.934Z</time></trkpt><trkpt lat="44.4072478" lon="8.9278089"><ele>11.0</ele><time>2026-04-21T12:03:41.928Z</time></trkpt><trkpt lat="44.4071763" lon="8.9277681"><ele>11.0</ele><time>2026-04-21T12:03:42.941Z</time></trkpt><trkpt lat="44.4071095" lon="8.9277364"><ele>11.0</ele><time>2026-04-21T12:03:43.942Z</time></trkpt><trkpt lat="44.4070057" lon="8.9277016"><ele>11.0</ele><time>2026-04-21T12:03:45.942Z</time></trkpt><trkpt lat="44.406942" lon="8.9276843"><ele>11.0</ele><time>2026-04-21T12:03:47.942Z</time></trkpt><trkpt lat="44.406838" lon="8.9276432"><ele>11.0</ele><time>2026-04-21T12:03:57.938Z</time></trkpt><trkpt lat="44.4066547" lon="8.9275847"><ele>10.833333333333332</ele><time>2026-04-21T12:04:00.937Z</time></trkpt><trkpt lat="44.4065789" lon="8.9275572"><ele>10.666666666666666</ele><time>2026-04-21T12:04:01.944Z</time></trkpt><trkpt lat="44.4064984" lon="8.927531"><ele>10.5</ele><time>2026-04-21T12:04:02.941Z</time></trkpt><trkpt lat="44.4064194" lon="8.9275246"><ele>10.333333333333334</ele><time>2026-04-21T12:04:03.935Z</time></trkpt><trkpt lat="44.4063551" lon="8.9274967"><ele>10.166666666666668</ele><time>2026-04-21T12:04:04.94Z</time></trkpt><trkpt lat="44.4062841" lon="8.9274733"><ele>10.0</ele><time>2026-04-21T12:04:05.936Z</time></trkpt><trkpt lat="44.4062031" lon="8.9274511"><ele>10.0</ele><time>2026-04-21T12:04:06.931Z</time></trkpt><trkpt lat="44.4061252" lon="8.9274315"><ele>10.0</ele><time>2026-04-21T12:04:07.936Z</time></trkpt><trkpt lat="44.4060518" lon="8.9274223"><ele>10.0</ele><time>2026-04-21T12:04:08.932Z</time></trkpt><trkpt lat="44.4059754" lon="8.9274392"><ele>10.0</ele><time>2026-04-21T12:04:09.936Z</time></trkpt><trkpt lat="44.4058977" lon="8.9274819"><ele>10.0</ele><time>2026-04-21T12:04:10.934Z</time></trkpt><trkpt lat="44.4058209" lon="8.9275291"><ele>10.0</ele><time>2026-04-21T12:04:11.938Z</time></trkpt><trkpt lat="44.4057457" lon="8.9275814"><ele>10.333333333333334</ele><time>2026-04-21T12:04:12.939Z</time></trkpt><trkpt lat="44.4056714" lon="8.9276573"><ele>10.666666666666668</ele><time>2026-04-21T12:04:13.939Z</time></trkpt><trkpt lat="44.4055987" lon="8.9277312"><ele>11.0</ele><time>2026-04-21T12:04:14.934Z</time></trkpt><trkpt lat="44.4055392" lon="8.9278156"><ele>11.333333333333334</ele><time>2026-04-21T12:04:15.941Z</time></trkpt><trkpt lat="44.405475" lon="8.9279012"><ele>11.666666666666666</ele><time>2026-04-21T12:04:16.938Z</time></trkpt><trkpt lat="44.405418" lon="8.927984"><ele>12.0</ele><time>2026-04-21T12:04:17.937Z</time></trkpt><trkpt lat="44.4053472" lon="8.9280817"><ele>12.0</ele><time>2026-04-21T12:04:18.94Z</time></trkpt><trkpt lat="44.4051919" lon="8.9282768"><ele>12.0</ele><time>2026-04-21T12:04:20.935Z</time></trkpt><trkpt lat="44.4051158" lon="8.928349"><ele>12.0</ele><time>2026-04-21T12:04:21.94Z</time></trkpt><trkpt lat="44.4050382" lon="8.9284267"><ele>12.0</ele><time>2026-04-21T12:04:22.936Z</time></trkpt><trkpt lat="44.404964" lon="8.9285085"><ele>12.0</ele><time>2026-04-21T12:04:23.938Z</time></trkpt><trkpt lat="44.4048904" lon="8.9286007"><ele>12.0</ele><time>2026-04-21T12:04:24.933Z</time></trkpt><trkpt lat="44.4048177" lon="8.9286967"><ele>12.0</ele><time>2026-04-21T12:04:25.936Z</time></trkpt><trkpt lat="44.4047412" lon="8.9287975"><ele>12.0</ele><time>2026-04-21T12:04:26.936Z</time></trkpt><trkpt lat="44.4046662" lon="8.9289046"><ele>12.0</ele><time>2026-04-21T12:04:27.935Z</time></trkpt><trkpt lat="44.4045858" lon="8.9289968"><ele>12.0</ele><time>2026-04-21T12:04:28.938Z</time></trkpt><trkpt lat="44.4045141" lon="8.929085"><ele>12.0</ele><time>2026-04-21T12:04:29.935Z</time></trkpt><trkpt lat="44.4044447" lon="8.9291626"><ele>12.0</ele><time>2026-04-21T12:04:30.94Z</time></trkpt><trkpt lat="44.4043775" lon="8.9292406"><ele>12.0</ele><time>2026-04-21T12:04:31.936Z</time></trkpt><trkpt lat="44.4043078" lon="8.9293234"><ele>12.0</ele><time>2026-04-21T12:04:32.932Z</time></trkpt><trkpt lat="44.4042342" lon="8.9294116"><ele>11.6</ele><time>2026-04-21T12:04:33.933Z</time></trkpt><trkpt lat="44.404153" lon="8.9295043"><ele>11.2</ele><time>2026-04-21T12:04:34.938Z</time></trkpt><trkpt lat="44.404067" lon="8.9295986"><ele>10.8</ele><time>2026-04-21T12:04:35.932Z</time></trkpt><trkpt lat="44.4039795" lon="8.9296945"><ele>10.4</ele><time>2026-04-21T12:04:36.93Z</time></trkpt><trkpt lat="44.4038917" lon="8.929787"><ele>10.0</ele><time>2026-04-21T12:04:37.945Z</time></trkpt><trkpt lat="44.4038079" lon="8.9298755"><ele>10.0</ele><time>2026-04-21T12:04:38.942Z</time></trkpt><trkpt lat="44.4037277" lon="8.9299639"><ele>10.0</ele><time>2026-04-21T12:04:39.949Z</time></trkpt><trkpt lat="44.4035782" lon="8.9301234"><ele>10.0</ele><time>2026-04-21T12:04:41.947Z</time></trkpt><trkpt lat="44.4035045" lon="8.930197"><ele>10.0</ele><time>2026-04-21T12:04:42.949Z</time></trkpt><trkpt lat="44.4034275" lon="8.9302788"><ele>9.75</ele><time>2026-04-21T12:04:43.954Z</time></trkpt><trkpt lat="44.4033434" lon="8.9303639"><ele>9.5</ele><time>2026-04-21T12:04:44.947Z</time></trkpt><trkpt lat="44.4032525" lon="8.9304558"><ele>9.25</ele><time>2026-04-21T12:04:45.955Z</time></trkpt><trkpt lat="44.4031577" lon="8.9305553"><ele>9.0</ele><time>2026-04-21T12:04:46.954Z</time></trkpt><trkpt lat="44.4030555" lon="8.9306609"><ele>8.75</ele><time>2026-04-21T12:04:47.956Z</time></trkpt><trkpt lat="44.4029481" lon="8.930766"><ele>8.5</ele><time>2026-04-21T12:04:48.964Z</time></trkpt><trkpt lat="44.4028385" lon="8.9308723"><ele>8.25</ele><time>2026-04-21T12:04:49.938Z</time></trkpt><trkpt lat="44.4027258" lon="8.9309792"><ele>8.0</ele><time>2026-04-21T12:04:50.94Z</time></trkpt><trkpt lat="44.4026062" lon="8.931084"><ele>10.0</ele><time>2026-04-21T12:04:51.96Z</time></trkpt><trkpt lat="44.4024767" lon="8.9311848"><ele>12.0</ele><time>2026-04-21T12:04:52.963Z</time></trkpt><trkpt lat="44.4023392" lon="8.9312832"><ele>14.0</ele><time>2026-04-21T12:04:53.959Z</time></trkpt><trkpt lat="44.4021943" lon="8.9313814"><ele>16.333333333333336</ele><time>2026-04-21T12:04:54.964Z</time></trkpt><trkpt lat="44.4020453" lon="8.9314762"><ele>18.666666666666668</ele><time>2026-04-21T12:04:55.952Z</time></trkpt><trkpt lat="44.4018965" lon="8.9315676"><ele>21.0</ele><time>2026-04-21T12:04:56.951Z</time></trkpt><trkpt lat="44.4017464" lon="8.9316617"><ele>24.0</ele><time>2026-04-21T12:04:57.943Z</time></trkpt><trkpt lat="44.4015961" lon="8.9317568"><ele>27.0</ele><time>2026-04-21T12:04:58.955Z</time></trkpt><trkpt lat="44.4014555" lon="8.9318454"><ele>30.0</ele><time>2026-04-21T12:04:59.943Z</time></trkpt><trkpt lat="44.4013307" lon="8.9319236"><ele>30.0</ele><time>2026-04-21T12:05:00.938Z</time></trkpt><trkpt lat="44.4011569" lon="8.9320305"><ele>30.0</ele><time>2026-04-21T12:05:02.95Z</time></trkpt><trkpt lat="44.4010727" lon="8.9320962"><ele>30.0</ele><time>2026-04-21T12:05:04.95Z</time></trkpt><trkpt lat="44.4009844" lon="8.93217"><ele>30.0</ele><time>2026-04-21T12:05:32.951Z</time></trkpt><trkpt lat="44.400795" lon="8.9323098"><ele>30.0</ele><time>2026-04-21T12:05:34.951Z</time></trkpt><trkpt lat="44.4006996" lon="8.9323948"><ele>30.0</ele><time>2026-04-21T12:05:35.94Z</time></trkpt><trkpt lat="44.4005988" lon="8.9325022"><ele>30.0</ele><time>2026-04-21T12:05:36.952Z</time></trkpt><trkpt lat="44.4005023" lon="8.9326227"><ele>30.0</ele><time>2026-04-21T12:05:37.948Z</time></trkpt><trkpt lat="44.4004115" lon="8.9327447"><ele>28.5</ele><time>2026-04-21T12:05:38.948Z</time></trkpt><trkpt lat="44.4003254" lon="8.9328676"><ele>27.0</ele><time>2026-04-21T12:05:39.946Z</time></trkpt><trkpt lat="44.4002373" lon="8.9329868"><ele>25.5</ele><time>2026-04-21T12:05:40.956Z</time></trkpt><trkpt lat="44.4001411" lon="8.9330917"><ele>24.0</ele><time>2026-04-21T12:05:41.951Z</time></trkpt><trkpt lat="44.4000377" lon="8.9331809"><ele>24.0</ele><time>2026-04-21T12:05:42.954Z</time></trkpt><trkpt lat="44.3999387" lon="8.9332529"><ele>24.0</ele><time>2026-04-21T12:05:43.951Z</time></trkpt><trkpt lat="44.3998446" lon="8.9333162"><ele>24.0</ele><time>2026-04-21T12:05:44.954Z</time></trkpt><trkpt lat="44.3997458" lon="8.9333859"><ele>24.0</ele><time>2026-04-21T12:05:45.963Z</time></trkpt><trkpt lat="44.3996405" lon="8.9334659"><ele>24.0</ele><time>2026-04-21T12:05:46.951Z</time></trkpt><trkpt lat="44.39953" lon="8.9335512"><ele>23.5</ele><time>2026-04-21T12:05:47.944Z</time></trkpt><trkpt lat="44.3994123" lon="8.9336452"><ele>23.0</ele><time>2026-04-21T12:05:48.949Z</time></trkpt><trkpt lat="44.3992868" lon="8.9337454"><ele>22.5</ele><time>2026-04-21T12:05:49.954Z</time></trkpt><trkpt lat="44.3991581" lon="8.9338549"><ele>22.0</ele><time>2026-04-21T12:05:50.938Z</time></trkpt><trkpt lat="44.3990392" lon="8.9339854"><ele>22.0</ele><time>2026-04-21T12:05:51.958Z</time></trkpt><trkpt lat="44.3989473" lon="8.934147"><ele>22.0</ele><time>2026-04-21T12:05:52.943Z</time></trkpt><trkpt lat="44.3988809" lon="8.934334"><ele>22.0</ele><time>2026-04-21T12:05:53.958Z</time></trkpt><trkpt lat="44.3987564" lon="8.934724"><ele>21.75</ele><time>2026-04-21T12:05:55.943Z</time></trkpt><trkpt lat="44.3986932" lon="8.9349098"><ele>21.5</ele><time>2026-04-21T12:05:56.954Z</time></trkpt><trkpt lat="44.3986305" lon="8.9350901"><ele>21.25</ele><time>2026-04-21T12:05:57.945Z</time></trkpt><trkpt lat="44.3985699" lon="8.9352646"><ele>21.0</ele><time>2026-04-21T12:05:58.944Z</time></trkpt><trkpt lat="44.398511" lon="8.9354303"><ele>21.0</ele><time>2026-04-21T12:05:59.951Z</time></trkpt><trkpt lat="44.3984579" lon="8.9355792"><ele>21.0</ele><time>2026-04-21T12:06:00.949Z</time></trkpt><trkpt lat="44.3984142" lon="8.9357079"><ele>21.0</ele><time>2026-04-21T12:06:01.951Z</time></trkpt><trkpt lat="44.3983805" lon="8.9358047"><ele>21.0</ele><time>2026-04-21T12:06:02.966Z</time></trkpt><trkpt lat="44.3983461" lon="8.9359057"><ele>21.0</ele><time>2026-04-21T12:06:04.95Z</time></trkpt><trkpt lat="44.3983865" lon="8.9360349"><ele>24.75</ele><time>2026-04-21T12:06:18.944Z</time></trkpt><trkpt lat="44.3985565" lon="8.9361477"><ele>28.5</ele><time>2026-04-21T12:06:20.938Z</time></trkpt><trkpt lat="44.3986636" lon="8.936187"><ele>32.25</ele><time>2026-04-21T12:06:21.938Z</time></trkpt><trkpt lat="44.3987643" lon="8.9361975"><ele>36.0</ele><time>2026-04-21T12:06:22.943Z</time></trkpt><trkpt lat="44.3988425" lon="8.9361637"><ele>37.4</ele><time>2026-04-21T12:06:23.94Z</time></trkpt><trkpt lat="44.3989065" lon="8.9360773"><ele>38.8</ele><time>2026-04-21T12:06:24.934Z</time></trkpt><trkpt lat="44.3989663" lon="8.9359486"><ele>40.199999999999996</ele><time>2026-04-21T12:06:25.945Z</time></trkpt><trkpt lat="44.3990136" lon="8.9358086"><ele>41.6</ele><time>2026-04-21T12:06:26.939Z</time></trkpt><trkpt lat="44.3990497" lon="8.9356721"><ele>43.0</ele><time>2026-04-21T12:06:27.935Z</time></trkpt><trkpt lat="44.3990843" lon="8.9355442"><ele>43.0</ele><time>2026-04-21T12:06:28.937Z</time></trkpt><trkpt lat="44.3991299" lon="8.935428"><ele>43.0</ele><time>2026-04-21T12:06:29.947Z</time></trkpt><trkpt lat="44.3991832" lon="8.9353187"><ele>43.0</ele><time>2026-04-21T12:06:30.939Z</time></trkpt><trkpt lat="44.3992386" lon="8.935213"><ele>43.0</ele><time>2026-04-21T12:06:31.939Z</time></trkpt><trkpt lat="44.3993023" lon="8.9351037"><ele>43.0</ele><time>2026-04-21T12:06:32.942Z</time></trkpt><trkpt lat="44.3993794" lon="8.9349859"><ele>42.599999999999994</ele><time>2026-04-21T12:06:33.942Z</time></trkpt><trkpt lat="44.3994621" lon="8.9348547"><ele>42.199999999999996</ele><time>2026-04-21T12:06:34.939Z</time></trkpt><trkpt lat="44.3995393" lon="8.9347287"><ele>41.8</ele><time>2026-04-21T12:06:35.939Z</time></trkpt><trkpt lat="44.3996145" lon="8.934625"><ele>41.4</ele><time>2026-04-21T12:06:36.934Z</time></trkpt><trkpt lat="44.39969" lon="8.9345563"><ele>41.0</ele><time>2026-04-21T12:06:37.942Z</time></trkpt><trkpt lat="44.3997694" lon="8.9345366"><ele>41.0</ele><time>2026-04-21T12:06:38.936Z</time></trkpt><trkpt lat="44.3998603" lon="8.9345458"><ele>41.0</ele><time>2026-04-21T12:06:39.94Z</time></trkpt><trkpt lat="44.400037" lon="8.934517"><ele>41.0</ele><time>2026-04-21T12:06:41.939Z</time></trkpt><trkpt lat="44.4001067" lon="8.9344417"><ele>41.0</ele><time>2026-04-21T12:06:42.938Z</time></trkpt><trkpt lat="44.400173" lon="8.9343096"><ele>39.83333333333333</ele><time>2026-04-21T12:06:43.942Z</time></trkpt><trkpt lat="44.4002293" lon="8.9341685"><ele>38.666666666666664</ele><time>2026-04-21T12:06:44.939Z</time></trkpt><trkpt lat="44.4002653" lon="8.9340715"><ele>37.5</ele><time>2026-04-21T12:06:45.942Z</time></trkpt><trkpt lat="44.4002792" lon="8.933976"><ele>36.333333333333336</ele><time>2026-04-21T12:06:47.938Z</time></trkpt><trkpt lat="44.4002353" lon="8.9338903"><ele>35.16666666666667</ele><time>2026-04-21T12:06:50.938Z</time></trkpt><trkpt lat="44.4001728" lon="8.9338508"><ele>34.0</ele><time>2026-04-21T12:06:51.939Z</time></trkpt><trkpt lat="44.4001074" lon="8.9337995"><ele>34.0</ele><time>2026-04-21T12:06:52.941Z</time></trkpt><trkpt lat="44.4000547" lon="8.9337454"><ele>34.0</ele><time>2026-04-21T12:06:53.935Z</time></trkpt><trkpt lat="44.4000472" lon="8.933598"><ele>34.0</ele><time>2026-04-21T12:06:55.936Z</time></trkpt><trkpt lat="44.4000924" lon="8.9334857"><ele>34.0</ele><time>2026-04-21T12:06:56.939Z</time></trkpt><trkpt lat="44.400154" lon="8.9333612"><ele>34.0</ele><time>2026-04-21T12:06:57.937Z</time></trkpt><trkpt lat="44.4002116" lon="8.9332437"><ele>31.5</ele><time>2026-04-21T12:06:58.938Z</time></trkpt><trkpt lat="44.4002517" lon="8.9331503"><ele>29.0</ele><time>2026-04-21T12:06:59.934Z</time></trkpt><trkpt lat="44.4003319" lon="8.9330129"><ele>26.5</ele><time>2026-04-21T12:07:01.938Z</time></trkpt><trkpt lat="44.4004823" lon="8.9327673"><ele>24.0</ele><time>2026-04-21T12:07:03.941Z</time></trkpt><trkpt lat="44.4005825" lon="8.9326291"><ele>25.5</ele><time>2026-04-21T12:07:04.938Z</time></trkpt><trkpt lat="44.4006901" lon="8.9324909"><ele>27.0</ele><time>2026-04-21T12:07:05.937Z</time></trkpt><trkpt lat="44.4008016" lon="8.9323692"><ele>28.5</ele><time>2026-04-21T12:07:06.939Z</time></trkpt><trkpt lat="44.4009127" lon="8.9322678"><ele>30.0</ele><time>2026-04-21T12:07:07.94Z</time></trkpt><trkpt lat="44.4010171" lon="8.9322007"><ele>30.0</ele><time>2026-04-21T12:07:08.94Z</time></trkpt><trkpt lat="44.4011046" lon="8.9321563"><ele>30.0</ele><time>2026-04-21T12:07:09.934Z</time></trkpt><trkpt lat="44.4011759" lon="8.9321154"><ele>30.0</ele><time>2026-04-21T12:07:10.938Z</time></trkpt><trkpt lat="44.401275" lon="8.9320791"><ele>30.0</ele><time>2026-04-21T12:07:12.942Z</time></trkpt><trkpt lat="44.4013748" lon="8.9320183"><ele>30.0</ele><time>2026-04-21T12:07:14.934Z</time></trkpt><trkpt lat="44.4014439" lon="8.9319662"><ele>27.75</ele><time>2026-04-21T12:07:15.935Z</time></trkpt><trkpt lat="44.4015333" lon="8.9319039"><ele>25.5</ele><time>2026-04-21T12:07:16.935Z</time></trkpt><trkpt lat="44.4016393" lon="8.9318328"><ele>23.25</ele><time>2026-04-21T12:07:17.935Z</time></trkpt><trkpt lat="44.4017558" lon="8.9317535"><ele>21.0</ele><time>2026-04-21T12:07:18.932Z</time></trkpt><trkpt lat="44.4018711" lon="8.9316701"><ele>21.0</ele><time>2026-04-21T12:07:19.934Z</time></trkpt><trkpt lat="44.4019837" lon="8.9315954"><ele>21.0</ele><time>2026-04-21T12:07:20.935Z</time></trkpt><trkpt lat="44.4020918" lon="8.9315255"><ele>21.0</ele><time>2026-04-21T12:07:21.937Z</time></trkpt><trkpt lat="44.4021969" lon="8.9314581"><ele>21.0</ele><time>2026-04-21T12:07:22.939Z</time></trkpt><trkpt lat="44.402415" lon="8.931311"><ele>19.25</ele><time>2026-04-21T12:07:24.932Z</time></trkpt><trkpt lat="44.4025288" lon="8.9312331"><ele>17.5</ele><time>2026-04-21T12:07:25.944Z</time></trkpt><trkpt lat="44.4026372" lon="8.9311534"><ele>15.75</ele><time>2026-04-21T12:07:26.943Z</time></trkpt><trkpt lat="44.4027397" lon="8.9310759"><ele>14.0</ele><time>2026-04-21T12:07:27.941Z</time></trkpt><trkpt lat="44.4028381" lon="8.9309916"><ele>14.0</ele><time>2026-04-21T12:07:28.945Z</time></trkpt><trkpt lat="44.4029314" lon="8.9308958"><ele>14.0</ele><time>2026-04-21T12:07:29.946Z</time></trkpt><trkpt lat="44.4030221" lon="8.9307865"><ele>14.0</ele><time>2026-04-21T12:07:30.942Z</time></trkpt><trkpt lat="44.4031103" lon="8.9306792"><ele>14.0</ele><time>2026-04-21T12:07:31.941Z</time></trkpt><trkpt lat="44.4031944" lon="8.930579"><ele>13.0</ele><time>2026-04-21T12:07:32.942Z</time></trkpt><trkpt lat="44.4032745" lon="8.9304863"><ele>11.999999999999998</ele><time>2026-04-21T12:07:33.944Z</time></trkpt><trkpt lat="44.4033516" lon="8.9304017"><ele>11.0</ele><time>2026-04-21T12:07:34.943Z</time></trkpt><trkpt lat="44.4034287" lon="8.9303181"><ele>10.0</ele><time>2026-04-21T12:07:35.937Z</time></trkpt><trkpt lat="44.4035064" lon="8.9302302"><ele>9.0</ele><time>2026-04-21T12:07:36.945Z</time></trkpt><trkpt lat="44.4035883" lon="8.9301362"><ele>9.25</ele><time>2026-04-21T12:07:37.938Z</time></trkpt><trkpt lat="44.4036733" lon="8.9300373"><ele>9.5</ele><time>2026-04-21T12:07:38.937Z</time></trkpt><trkpt lat="44.4037624" lon="8.9299346"><ele>9.75</ele><time>2026-04-21T12:07:39.94Z</time></trkpt><trkpt lat="44.4038541" lon="8.9298298"><ele>10.0</ele><time>2026-04-21T12:07:40.932Z</time></trkpt><trkpt lat="44.4039479" lon="8.9297237"><ele>16.0</ele><time>2026-04-21T12:07:41.937Z</time></trkpt><trkpt lat="44.4040441" lon="8.9296161"><ele>22.0</ele><time>2026-04-21T12:07:42.934Z</time></trkpt><trkpt lat="44.404143" lon="8.929506"><ele>28.0</ele><time>2026-04-21T12:07:43.939Z</time></trkpt><trkpt lat="44.4043468" lon="8.9292737"><ele>27.5</ele><time>2026-04-21T12:07:45.934Z</time></trkpt><trkpt lat="44.404447" lon="8.9291628"><ele>27.0</ele><time>2026-04-21T12:07:46.932Z</time></trkpt><trkpt lat="44.4045441" lon="8.9290586"><ele>26.5</ele><time>2026-04-21T12:07:47.938Z</time></trkpt><trkpt lat="44.4046322" lon="8.9289651"><ele>26.0</ele><time>2026-04-21T12:07:48.935Z</time></trkpt><trkpt lat="44.4047085" lon="8.9288799"><ele>25.999999999999996</ele><time>2026-04-21T12:07:49.937Z</time></trkpt><trkpt lat="44.4047763" lon="8.9288022"><ele>26.0</ele><time>2026-04-21T12:07:50.942Z</time></trkpt><trkpt lat="44.404835" lon="8.9287352"><ele>26.0</ele><time>2026-04-21T12:07:51.934Z</time></trkpt><trkpt lat="44.4048874" lon="8.928677"><ele>26.0</ele><time>2026-04-21T12:07:52.939Z</time></trkpt><trkpt lat="44.4049713" lon="8.9285969"><ele>25.999999999999996</ele><time>2026-04-21T12:07:54.939Z</time></trkpt><trkpt lat="44.4050549" lon="8.9285101"><ele>26.0</ele><time>2026-04-21T12:07:56.934Z</time></trkpt><trkpt lat="44.4051549" lon="8.9284083"><ele>25.333333333333332</ele><time>2026-04-21T12:07:58.933Z</time></trkpt><trkpt lat="44.4052097" lon="8.9283499"><ele>24.666666666666664</ele><time>2026-04-21T12:07:59.935Z</time></trkpt><trkpt lat="44.4052657" lon="8.928282"><ele>24.0</ele><time>2026-04-21T12:08:00.941Z</time></trkpt><trkpt lat="44.4053243" lon="8.9282152"><ele>23.333333333333332</ele><time>2026-04-21T12:08:01.938Z</time></trkpt><trkpt lat="44.405387" lon="8.9281447"><ele>22.666666666666664</ele><time>2026-04-21T12:08:02.935Z</time></trkpt><trkpt lat="44.4054544" lon="8.928075"><ele>22.0</ele><time>2026-04-21T12:08:03.94Z</time></trkpt><trkpt lat="44.4055272" lon="8.928005"><ele>22.0</ele><time>2026-04-21T12:08:04.933Z</time></trkpt><trkpt lat="44.4056638" lon="8.9278737"><ele>22.0</ele><time>2026-04-21T12:08:06.934Z</time></trkpt><trkpt lat="44.4057353" lon="8.9278205"><ele>22.0</ele><time>2026-04-21T12:08:07.942Z</time></trkpt><trkpt lat="44.405796" lon="8.9277719"><ele>22.0</ele><time>2026-04-21T12:08:08.938Z</time></trkpt><trkpt lat="44.4058579" lon="8.9276954"><ele>22.0</ele><time>2026-04-21T12:08:10.934Z</time></trkpt><trkpt lat="44.4059209" lon="8.9276784"><ele>22.0</ele><time>2026-04-21T12:08:25.934Z</time></trkpt><trkpt lat="44.4057605" lon="8.9278271"><ele>22.0</ele><time>2026-04-21T12:08:33.935Z</time></trkpt><trkpt lat="44.4057277" lon="8.92791"><ele>22.0</ele><time>2026-04-21T12:08:34.938Z</time></trkpt><trkpt lat="44.4056693" lon="8.9280106"><ele>22.0</ele><time>2026-04-21T12:08:35.944Z</time></trkpt><trkpt lat="44.4056164" lon="8.9280885"><ele>22.0</ele><time>2026-04-21T12:08:36.94Z</time></trkpt><trkpt lat="44.4055093" lon="8.9281867"><ele>23.0</ele><time>2026-04-21T12:08:37.938Z</time></trkpt><trkpt lat="44.4054226" lon="8.9282926"><ele>24.0</ele><time>2026-04-21T12:08:38.94Z</time></trkpt><trkpt lat="44.4053303" lon="8.9284048"><ele>25.0</ele><time>2026-04-21T12:08:39.941Z</time></trkpt><trkpt lat="44.4052238" lon="8.9285321"><ele>26.0</ele><time>2026-04-21T12:08:40.935Z</time></trkpt><trkpt lat="44.4051066" lon="8.9286594"><ele>26.0</ele><time>2026-04-21T12:08:41.934Z</time></trkpt><trkpt lat="44.4049887" lon="8.9287866"><ele>26.0</ele><time>2026-04-21T12:08:42.942Z</time></trkpt><trkpt lat="44.4048733" lon="8.9289104"><ele>26.0</ele><time>2026-04-21T12:08:43.937Z</time></trkpt><trkpt lat="44.4047371" lon="8.9290137"><ele>26.0</ele><time>2026-04-21T12:08:44.933Z</time></trkpt><trkpt lat="44.4046172" lon="8.9291176"><ele>26.666666666666664</ele><time>2026-04-21T12:08:45.937Z</time></trkpt><trkpt lat="44.4045049" lon="8.9292082"><ele>27.333333333333336</ele><time>2026-04-21T12:08:46.934Z</time></trkpt><trkpt lat="44.4043084" lon="8.9293833"><ele>28.0</ele><time>2026-04-21T12:08:48.936Z</time></trkpt><trkpt lat="44.4042267" lon="8.929461"><ele>28.000000000000004</ele><time>2026-04-21T12:08:49.938Z</time></trkpt><trkpt lat="44.4041569" lon="8.9295256"><ele>28.0</ele><time>2026-04-21T12:08:50.942Z</time></trkpt><trkpt lat="44.4040984" lon="8.9295783"><ele>28.0</ele><time>2026-04-21T12:08:51.934Z</time></trkpt><trkpt lat="44.4040229" lon="8.9296447"><ele>28.0</ele><time>2026-04-21T12:08:53.939Z</time></trkpt><trkpt lat="44.4039187" lon="8.9297244"><ele>28.000000000000004</ele><time>2026-04-21T12:09:05.937Z</time></trkpt><trkpt lat="44.4038517" lon="8.929804"><ele>28.0</ele><time>2026-04-21T12:09:06.933Z</time></trkpt><trkpt lat="44.4037721" lon="8.9298977"><ele>23.25</ele><time>2026-04-21T12:09:07.931Z</time></trkpt><trkpt lat="44.4035901" lon="8.9300905"><ele>18.5</ele><time>2026-04-21T12:09:09.936Z</time></trkpt><trkpt lat="44.403507" lon="8.9301654"><ele>13.75</ele><time>2026-04-21T12:09:10.944Z</time></trkpt><trkpt lat="44.4034257" lon="8.9302222"><ele>9.0</ele><time>2026-04-21T12:09:11.933Z</time></trkpt><trkpt lat="44.4033338" lon="8.930278"><ele>9.0</ele><time>2026-04-21T12:09:12.942Z</time></trkpt><trkpt lat="44.4032283" lon="8.9303518"><ele>9.0</ele><time>2026-04-21T12:09:13.944Z</time></trkpt><trkpt lat="44.4031126" lon="8.9304484"><ele>9.0</ele><time>2026-04-21T12:09:14.944Z</time></trkpt><trkpt lat="44.4029883" lon="8.930569"><ele>9.0</ele><time>2026-04-21T12:09:15.941Z</time></trkpt><trkpt lat="44.4028653" lon="8.9306922"><ele>8.75</ele><time>2026-04-21T12:09:16.937Z</time></trkpt><trkpt lat="44.4027485" lon="8.9308094"><ele>8.5</ele><time>2026-04-21T12:09:17.948Z</time></trkpt><trkpt lat="44.4026352" lon="8.930923"><ele>8.25</ele><time>2026-04-21T12:09:18.944Z</time></trkpt><trkpt lat="44.4025305" lon="8.9310363"><ele>8.0</ele><time>2026-04-21T12:09:19.948Z</time></trkpt><trkpt lat="44.4024302" lon="8.931135"><ele>9.5</ele><time>2026-04-21T12:09:20.94Z</time></trkpt><trkpt lat="44.4023318" lon="8.9312313"><ele>11.0</ele><time>2026-04-21T12:09:21.937Z</time></trkpt><trkpt lat="44.4022356" lon="8.9313311"><ele>12.5</ele><time>2026-04-21T12:09:22.941Z</time></trkpt><trkpt lat="44.402144" lon="8.9314305"><ele>14.0</ele><time>2026-04-21T12:09:23.942Z</time></trkpt><trkpt lat="44.4020543" lon="8.9315273"><ele>15.75</ele><time>2026-04-21T12:09:24.94Z</time></trkpt><trkpt lat="44.4019826" lon="8.93162"><ele>17.5</ele><time>2026-04-21T12:09:25.928Z</time></trkpt><trkpt lat="44.4019212" lon="8.9318001"><ele>19.25</ele><time>2026-04-21T12:09:27.929Z</time></trkpt><trkpt lat="44.4018804" lon="8.9319023"><ele>21.0</ele><time>2026-04-21T12:09:28.93Z</time></trkpt><trkpt lat="44.4021368" lon="8.9320531"><ele>22.666666666666664</ele><time>2026-04-21T12:09:30.933Z</time></trkpt><trkpt lat="44.4022427" lon="8.9321621"><ele>24.333333333333332</ele><time>2026-04-21T12:09:31.935Z</time></trkpt><trkpt lat="44.402533" lon="8.9321862"><ele>26.0</ele><time>2026-04-21T12:09:32.932Z</time></trkpt><trkpt lat="44.4027293" lon="8.9321569"><ele>26.0</ele><time>2026-04-21T12:09:33.934Z</time></trkpt><trkpt lat="44.4028898" lon="8.9321729"><ele>26.0</ele><time>2026-04-21T12:09:34.931Z</time></trkpt><trkpt lat="44.4029985" lon="8.93223"><ele>26.0</ele><time>2026-04-21T12:09:35.944Z</time></trkpt><trkpt lat="44.4029257" lon="8.9321646"><ele>26.0</ele><time>2026-04-21T12:09:39.937Z</time></trkpt><trkpt lat="44.4029441" lon="8.932287"><ele>25.4</ele><time>2026-04-21T12:09:41.938Z</time></trkpt><trkpt lat="44.4030317" lon="8.9323065"><ele>24.8</ele><time>2026-04-21T12:09:43.935Z</time></trkpt><trkpt lat="44.4030987" lon="8.9322052"><ele>24.2</ele><time>2026-04-21T12:09:45.932Z</time></trkpt><trkpt lat="44.4031611" lon="8.9320288"><ele>23.599999999999998</ele><time>2026-04-21T12:09:47.933Z</time></trkpt><trkpt lat="44.4032312" lon="8.9319269"><ele>23.0</ele><time>2026-04-21T12:09:48.941Z</time></trkpt><trkpt lat="44.4033788" lon="8.931762"><ele>20.833333333333336</ele><time>2026-04-21T12:09:50.937Z</time></trkpt><trkpt lat="44.4034241" lon="8.9316985"><ele>18.666666666666668</ele><time>2026-04-21T12:09:51.937Z</time></trkpt><trkpt lat="44.4034781" lon="8.9315932"><ele>16.5</ele><time>2026-04-21T12:09:53.94Z</time></trkpt><trkpt lat="44.4035" lon="8.9314986"><ele>14.333333333333334</ele><time>2026-04-21T12:09:55.935Z</time></trkpt><trkpt lat="44.4034092" lon="8.931469"><ele>12.166666666666668</ele><time>2026-04-21T12:09:58.939Z</time></trkpt><trkpt lat="44.4033596" lon="8.9315767"><ele>10.0</ele><time>2026-04-21T12:10:00.935Z</time></trkpt><trkpt lat="44.403344" lon="8.9316623"><ele>12.166666666666668</ele><time>2026-04-21T12:10:01.936Z</time></trkpt><trkpt lat="44.4033007" lon="8.931816"><ele>14.333333333333334</ele><time>2026-04-21T12:10:03.938Z</time></trkpt><trkpt lat="44.4032532" lon="8.9318827"><ele>16.5</ele><time>2026-04-21T12:10:04.939Z</time></trkpt><trkpt lat="44.4031877" lon="8.9319381"><ele>18.666666666666668</ele><time>2026-04-21T12:10:05.943Z</time></trkpt><trkpt lat="44.403121" lon="8.9319871"><ele>20.833333333333336</ele><time>2026-04-21T12:10:06.933Z</time></trkpt><trkpt lat="44.4030643" lon="8.9320342"><ele>23.0</ele><time>2026-04-21T12:10:07.936Z</time></trkpt><trkpt lat="44.4029898" lon="8.9321163"><ele>23.0</ele><time>2026-04-21T12:10:09.946Z</time></trkpt><trkpt lat="44.4029692" lon="8.9324184"><ele>23.0</ele><time>2026-04-21T12:10:13.933Z</time></trkpt><trkpt lat="44.4030097" lon="8.9325445"><ele>23.0</ele><time>2026-04-21T12:10:14.931Z</time></trkpt><trkpt lat="44.4030528" lon="8.9326502"><ele>23.0</ele><time>2026-04-21T12:10:15.94Z</time></trkpt><trkpt lat="44.4030951" lon="8.9327317"><ele>24.2</ele><time>2026-04-21T12:10:17.943Z</time></trkpt><trkpt lat="44.4030702" lon="8.9328358"><ele>25.4</ele><time>2026-04-21T12:10:25.939Z</time></trkpt><trkpt lat="44.4030842" lon="8.9329737"><ele>26.599999999999998</ele><time>2026-04-21T12:10:27.934Z</time></trkpt><trkpt lat="44.4032083" lon="8.9330545"><ele>27.799999999999997</ele><time>2026-04-21T12:10:28.933Z</time></trkpt><trkpt lat="44.4032992" lon="8.9331589"><ele>29.0</ele><time>2026-04-21T12:10:29.935Z</time></trkpt><trkpt lat="44.4033957" lon="8.9332754"><ele>32.0</ele><time>2026-04-21T12:10:30.932Z</time></trkpt><trkpt lat="44.4036015" lon="8.9335082"><ele>35.0</ele><time>2026-04-21T12:10:32.928Z</time></trkpt><trkpt lat="44.4037051" lon="8.9336138"><ele>38.0</ele><time>2026-04-21T12:10:33.933Z</time></trkpt><trkpt lat="44.4075896" lon="8.938739"><ele>38.5</ele><time>2026-04-21T12:11:23.931Z</time></trkpt><trkpt lat="44.4074649" lon="8.9390329"><ele>39.0</ele><time>2026-04-21T12:11:28.934Z</time></trkpt><trkpt lat="44.4073976" lon="8.9390196"><ele>39.5</ele><time>2026-04-21T12:11:29.935Z</time></trkpt><trkpt lat="44.4073218" lon="8.9389622"><ele>40.0</ele><time>2026-04-21T12:11:31.929Z</time></trkpt><trkpt lat="44.4072563" lon="8.9388735"><ele>40.0</ele><time>2026-04-21T12:11:32.933Z</time></trkpt><trkpt lat="44.4071882" lon="8.9387512"><ele>40.0</ele><time>2026-04-21T12:11:33.931Z</time></trkpt><trkpt lat="44.4071678" lon="8.9386634"><ele>40.0</ele><time>2026-04-21T12:11:34.932Z</time></trkpt><trkpt lat="44.4071405" lon="8.9385107"><ele>40.0</ele><time>2026-04-21T12:11:36.939Z</time></trkpt><trkpt lat="44.4071244" lon="8.9384202"><ele>40.0</ele><time>2026-04-21T12:11:37.935Z</time></trkpt><trkpt lat="44.4071073" lon="8.9382625"><ele>39.8</ele><time>2026-04-21T12:11:39.94Z</time></trkpt><trkpt lat="44.4070786" lon="8.9381099"><ele>39.6</ele><time>2026-04-21T12:11:41.934Z</time></trkpt><trkpt lat="44.4070239" lon="8.9380453"><ele>39.4</ele><time>2026-04-21T12:11:43.933Z</time></trkpt><trkpt lat="44.4069651" lon="8.938"><ele>39.2</ele><time>2026-04-21T12:11:48.939Z</time></trkpt><trkpt lat="44.4068873" lon="8.9378052"><ele>39.0</ele><time>2026-04-21T12:12:31.939Z</time></trkpt><trkpt lat="44.406882" lon="8.937497"><ele>39.0</ele><time>2026-04-21T12:12:34.951Z</time></trkpt><trkpt lat="44.4068898" lon="8.9373854"><ele>39.0</ele><time>2026-04-21T12:12:35.946Z</time></trkpt><trkpt lat="44.4068929" lon="8.9372912"><ele>39.0</ele><time>2026-04-21T12:12:36.943Z</time></trkpt><trkpt lat="44.406896" lon="8.9371757"><ele>39.0</ele><time>2026-04-21T12:12:38.94Z</time></trkpt><trkpt lat="44.4069457" lon="8.9371091"><ele>39.0</ele><time>2026-04-21T12:12:47.949Z</time></trkpt><trkpt lat="44.406951" lon="8.9369623"><ele>39.0</ele><time>2026-04-21T12:12:49.941Z</time></trkpt><trkpt lat="44.4069679" lon="8.9368263"><ele>38.8</ele><time>2026-04-21T12:12:51.943Z</time></trkpt><trkpt lat="44.4069778" lon="8.9366835"><ele>38.599999999999994</ele><time>2026-04-21T12:12:53.958Z</time></trkpt><trkpt lat="44.4068832" lon="8.9365084"><ele>38.4</ele><time>2026-04-21T12:12:57.944Z</time></trkpt><trkpt lat="44.4068134" lon="8.9364974"><ele>38.199999999999996</ele><time>2026-04-21T12:13:00.942Z</time></trkpt><trkpt lat="44.4067487" lon="8.9364849"><ele>38.0</ele><time>2026-04-21T12:13:55.949Z</time></trkpt><trkpt lat="44.4065853" lon="8.9366914"><ele>38.166666666666664</ele><time>2026-04-21T12:14:00.939Z</time></trkpt><trkpt lat="44.406559" lon="8.9367941"><ele>38.33333333333333</ele><time>2026-04-21T12:14:01.94Z</time></trkpt><trkpt lat="44.4065411" lon="8.9368855"><ele>38.5</ele><time>2026-04-21T12:14:02.946Z</time></trkpt><trkpt lat="44.4065162" lon="8.9369755"><ele>38.666666666666664</ele><time>2026-04-21T12:14:03.942Z</time></trkpt><trkpt lat="44.4064828" lon="8.9370919"><ele>38.833333333333336</ele><time>2026-04-21T12:14:04.941Z</time></trkpt><trkpt lat="44.4064368" lon="8.9372289"><ele>39.0</ele><time>2026-04-21T12:14:05.942Z</time></trkpt><trkpt lat="44.4064029" lon="8.9373775"><ele>39.0</ele><time>2026-04-21T12:14:06.954Z</time></trkpt><trkpt lat="44.406372" lon="8.9375333"><ele>39.0</ele><time>2026-04-21T12:14:07.95Z</time></trkpt><trkpt lat="44.4063398" lon="8.9376806"><ele>39.0</ele><time>2026-04-21T12:14:08.948Z</time></trkpt><trkpt lat="44.4063053" lon="8.9378188"><ele>39.0</ele><time>2026-04-21T12:14:09.943Z</time></trkpt><trkpt lat="44.4062611" lon="8.9379416"><ele>39.0</ele><time>2026-04-21T12:14:10.953Z</time></trkpt><trkpt lat="44.4062259" lon="8.9380614"><ele>39.2</ele><time>2026-04-21T12:14:11.947Z</time></trkpt><trkpt lat="44.4061873" lon="8.9381878"><ele>39.4</ele><time>2026-04-21T12:14:12.953Z</time></trkpt><trkpt lat="44.4061496" lon="8.9383182"><ele>39.6</ele><time>2026-04-21T12:14:13.942Z</time></trkpt><trkpt lat="44.4061158" lon="8.9384581"><ele>39.8</ele><time>2026-04-21T12:14:14.948Z</time></trkpt><trkpt lat="44.4060812" lon="8.9385935"><ele>40.0</ele><time>2026-04-21T12:14:15.936Z</time></trkpt><trkpt lat="44.4060544" lon="8.9387395"><ele>40.0</ele><time>2026-04-21T12:14:16.942Z</time></trkpt><trkpt lat="44.4059944" lon="8.9390281"><ele>40.0</ele><time>2026-04-21T12:14:18.934Z</time></trkpt><trkpt lat="44.4059611" lon="8.939169"><ele>40.0</ele><time>2026-04-21T12:14:19.941Z</time></trkpt><trkpt lat="44.4059308" lon="8.9392993"><ele>40.0</ele><time>2026-04-21T12:14:20.944Z</time></trkpt><trkpt lat="44.4058993" lon="8.939427"><ele>37.8</ele><time>2026-04-21T12:14:21.941Z</time></trkpt><trkpt lat="44.4058764" lon="8.9395651"><ele>35.6</ele><time>2026-04-21T12:14:22.94Z</time></trkpt><trkpt lat="44.4058461" lon="8.9396982"><ele>33.4</ele><time>2026-04-21T12:14:23.934Z</time></trkpt><trkpt lat="44.4058214" lon="8.9398323"><ele>31.2</ele><time>2026-04-21T12:14:24.948Z</time></trkpt><trkpt lat="44.4057775" lon="8.9399517"><ele>29.0</ele><time>2026-04-21T12:14:25.939Z</time></trkpt><trkpt lat="44.4057464" lon="8.9400617"><ele>27.799999999999997</ele><time>2026-04-21T12:14:26.948Z</time></trkpt><trkpt lat="44.4057211" lon="8.9401453"><ele>26.599999999999998</ele><time>2026-04-21T12:14:27.941Z</time></trkpt><trkpt lat="44.4056961" lon="8.9402643"><ele>25.4</ele><time>2026-04-21T12:14:29.949Z</time></trkpt><trkpt lat="44.4056651" lon="8.9403898"><ele>24.2</ele><time>2026-04-21T12:14:31.947Z</time></trkpt><trkpt lat="44.4056292" lon="8.9405368"><ele>23.0</ele><time>2026-04-21T12:14:33.952Z</time></trkpt><trkpt lat="44.4055856" lon="8.9406872"><ele>23.0</ele><time>2026-04-21T12:14:35.951Z</time></trkpt><trkpt lat="44.4055538" lon="8.9408343"><ele>23.0</ele><time>2026-04-21T12:14:37.953Z</time></trkpt><trkpt lat="44.4054973" lon="8.9411231"><ele>23.0</ele><time>2026-04-21T12:14:41.945Z</time></trkpt><trkpt lat="44.4054608" lon="8.9413025"><ele>21.833333333333336</ele><time>2026-04-21T12:14:43.942Z</time></trkpt><trkpt lat="44.4054384" lon="8.9414039"><ele>20.666666666666668</ele><time>2026-04-21T12:14:44.953Z</time></trkpt><trkpt lat="44.4054175" lon="8.9415032"><ele>19.5</ele><time>2026-04-21T12:14:45.945Z</time></trkpt><trkpt lat="44.4053965" lon="8.9416059"><ele>18.333333333333332</ele><time>2026-04-21T12:14:46.941Z</time></trkpt><trkpt lat="44.4053796" lon="8.9417198"><ele>17.166666666666664</ele><time>2026-04-21T12:14:47.94Z</time></trkpt><trkpt lat="44.4053519" lon="8.9418348"><ele>16.0</ele><time>2026-04-21T12:14:48.948Z</time></trkpt><trkpt lat="44.4053221" lon="8.9419505"><ele>15.999999999999998</ele><time>2026-04-21T12:14:49.942Z</time></trkpt><trkpt lat="44.4052947" lon="8.9420636"><ele>16.0</ele><time>2026-04-21T12:14:50.942Z</time></trkpt><trkpt lat="44.4052688" lon="8.9421736"><ele>16.0</ele><time>2026-04-21T12:14:51.948Z</time></trkpt><trkpt lat="44.4052403" lon="8.9422904"><ele>16.0</ele><time>2026-04-21T12:14:52.933Z</time></trkpt><trkpt lat="44.4052106" lon="8.9424088"><ele>15.999999999999998</ele><time>2026-04-21T12:14:53.942Z</time></trkpt><trkpt lat="44.4051817" lon="8.942522"><ele>16.0</ele><time>2026-04-21T12:14:54.939Z</time></trkpt><trkpt lat="44.4051528" lon="8.9426345"><ele>16.6</ele><time>2026-04-21T12:14:55.94Z</time></trkpt><trkpt lat="44.4051218" lon="8.9427461"><ele>17.200000000000003</ele><time>2026-04-21T12:14:56.931Z</time></trkpt><trkpt lat="44.4050891" lon="8.9428619"><ele>17.799999999999997</ele><time>2026-04-21T12:14:57.936Z</time></trkpt><trkpt lat="44.4050607" lon="8.9429687"><ele>18.4</ele><time>2026-04-21T12:14:58.943Z</time></trkpt><trkpt lat="44.4049912" lon="8.9432136"><ele>19.0</ele><time>2026-04-21T12:15:01.939Z</time></trkpt><trkpt lat="44.4049746" lon="8.9432989"><ele>19.0</ele><time>2026-04-21T12:15:03.941Z</time></trkpt><trkpt lat="44.4049467" lon="8.9433786"><ele>19.0</ele><time>2026-04-21T12:15:47.939Z</time></trkpt><trkpt lat="44.4049229" lon="8.9435852"><ele>19.0</ele><time>2026-04-21T12:15:54.943Z</time></trkpt><trkpt lat="44.4048911" lon="8.943749"><ele>19.0</ele><time>2026-04-21T12:15:56.949Z</time></trkpt><trkpt lat="44.4048686" lon="8.9438373"><ele>19.0</ele><time>2026-04-21T12:15:57.949Z</time></trkpt><trkpt lat="44.4048422" lon="8.9439402"><ele>18.599999999999998</ele><time>2026-04-21T12:15:58.948Z</time></trkpt><trkpt lat="44.4048083" lon="8.9440658"><ele>18.2</ele><time>2026-04-21T12:15:59.945Z</time></trkpt><trkpt lat="44.4047725" lon="8.944208"><ele>17.799999999999997</ele><time>2026-04-21T12:16:00.94Z</time></trkpt><trkpt lat="44.4047383" lon="8.9443439"><ele>17.4</ele><time>2026-04-21T12:16:01.958Z</time></trkpt><trkpt lat="44.4047127" lon="8.9444824"><ele>17.0</ele><time>2026-04-21T12:16:02.939Z</time></trkpt><trkpt lat="44.4046893" lon="8.9446146"><ele>16.2</ele><time>2026-04-21T12:16:03.94Z</time></trkpt><trkpt lat="44.4046696" lon="8.9447368"><ele>15.399999999999999</ele><time>2026-04-21T12:16:04.95Z</time></trkpt><trkpt lat="44.4046509" lon="8.9448498"><ele>14.600000000000001</ele><time>2026-04-21T12:16:05.952Z</time></trkpt><trkpt lat="44.4046287" lon="8.9449445"><ele>13.8</ele><time>2026-04-21T12:16:06.942Z</time></trkpt><trkpt lat="44.4045943" lon="8.9450798"><ele>13.0</ele><time>2026-04-21T12:16:08.953Z</time></trkpt><trkpt lat="44.4045307" lon="8.9452769"><ele>12.666666666666666</ele><time>2026-04-21T12:16:13.957Z</time></trkpt><trkpt lat="44.4044902" lon="8.9453479"><ele>12.333333333333332</ele><time>2026-04-21T12:16:28.955Z</time></trkpt><trkpt lat="44.4044492" lon="8.945458"><ele>12.0</ele><time>2026-04-21T12:16:45.958Z</time></trkpt><trkpt lat="44.4044105" lon="8.9456376"><ele>11.666666666666666</ele><time>2026-04-21T12:16:49.949Z</time></trkpt><trkpt lat="44.4043903" lon="8.9457414"><ele>11.333333333333332</ele><time>2026-04-21T12:16:52.955Z</time></trkpt><trkpt lat="44.404353" lon="8.9458259"><ele>11.0</ele><time>2026-04-21T12:17:41.954Z</time></trkpt><trkpt lat="44.4042946" lon="8.9460311"><ele>10.666666666666666</ele><time>2026-04-21T12:17:48.945Z</time></trkpt><trkpt lat="44.4042793" lon="8.9461175"><ele>10.333333333333332</ele><time>2026-04-21T12:17:50.956Z</time></trkpt><trkpt lat="44.404259" lon="8.9462049"><ele>10.0</ele><time>2026-04-21T12:17:52.956Z</time></trkpt><trkpt lat="44.4042499" lon="8.9462922"><ele>9.666666666666666</ele><time>2026-04-21T12:17:55.954Z</time></trkpt><trkpt lat="44.4042181" lon="8.9463972"><ele>9.333333333333334</ele><time>2026-04-21T12:19:25.953Z</time></trkpt><trkpt lat="44.4041546" lon="8.9466004"><ele>9.0</ele><time>2026-04-21T12:19:28.955Z</time></trkpt><trkpt lat="44.4041372" lon="8.9466916"><ele>9.833333333333334</ele><time>2026-04-21T12:19:29.949Z</time></trkpt><trkpt lat="44.4041152" lon="8.946783"><ele>10.666666666666668</ele><time>2026-04-21T12:19:30.951Z</time></trkpt><trkpt lat="44.4040978" lon="8.9468723"><ele>11.5</ele><time>2026-04-21T12:19:31.95Z</time></trkpt><trkpt lat="44.4040728" lon="8.9470333"><ele>12.333333333333334</ele><time>2026-04-21T12:19:33.946Z</time></trkpt><trkpt lat="44.4040624" lon="8.9471345"><ele>13.166666666666668</ele><time>2026-04-21T12:19:35.949Z</time></trkpt><trkpt lat="44.4040544" lon="8.9472357"><ele>14.0</ele><time>2026-04-21T12:19:41.952Z</time></trkpt><trkpt lat="44.4041418" lon="8.9472808"><ele>14.0</ele><time>2026-04-21T12:19:45.944Z</time></trkpt><trkpt lat="44.4042056" lon="8.9473116"><ele>13.999999999999998</ele><time>2026-04-21T12:19:47.942Z</time></trkpt><trkpt lat="44.4043506" lon="8.9473928"><ele>13.999999999999998</ele><time>2026-04-21T12:19:50.959Z</time></trkpt><trkpt lat="44.4044317" lon="8.9474472"><ele>14.0</ele><time>2026-04-21T12:19:51.96Z</time></trkpt><trkpt lat="44.404521" lon="8.9475021"><ele>14.0</ele><time>2026-04-21T12:19:52.946Z</time></trkpt><trkpt lat="44.4046017" lon="8.9475595"><ele>13.333333333333334</ele><time>2026-04-21T12:19:53.957Z</time></trkpt><trkpt lat="44.4046788" lon="8.9476105"><ele>12.666666666666668</ele><time>2026-04-21T12:19:54.952Z</time></trkpt><trkpt lat="44.4047498" lon="8.94767"><ele>12.0</ele><time>2026-04-21T12:19:55.956Z</time></trkpt><trkpt lat="44.4048133" lon="8.9477338"><ele>11.333333333333334</ele><time>2026-04-21T12:19:56.947Z</time></trkpt><trkpt lat="44.4048751" lon="8.9477975"><ele>10.666666666666668</ele><time>2026-04-21T12:19:57.95Z</time></trkpt><trkpt lat="44.4049427" lon="8.9478448"><ele>10.0</ele><time>2026-04-21T12:19:58.945Z</time></trkpt><trkpt lat="44.4050526" lon="8.9479032"><ele>10.0</ele><time>2026-04-21T12:20:00.951Z</time></trkpt><trkpt lat="44.4051217" lon="8.9478766"><ele>10.0</ele><time>2026-04-21T12:20:28.946Z</time></trkpt><trkpt lat="44.4052583" lon="8.947982"><ele>10.0</ele><time>2026-04-21T12:20:32.948Z</time></trkpt><trkpt lat="44.4053071" lon="8.9481623"><ele>10.0</ele><time>2026-04-21T12:20:34.942Z</time></trkpt><trkpt lat="44.4053025" lon="8.9482907"><ele>10.6</ele><time>2026-04-21T12:20:35.945Z</time></trkpt><trkpt lat="44.4052733" lon="8.9484356"><ele>11.2</ele><time>2026-04-21T12:20:36.941Z</time></trkpt><trkpt lat="44.4052333" lon="8.9485768"><ele>11.8</ele><time>2026-04-21T12:20:37.942Z</time></trkpt><trkpt lat="44.4051913" lon="8.9487167"><ele>12.4</ele><time>2026-04-21T12:20:38.944Z</time></trkpt><trkpt lat="44.405152" lon="8.9488598"><ele>13.0</ele><time>2026-04-21T12:20:39.94Z</time></trkpt><trkpt lat="44.4051183" lon="8.9489991"><ele>13.0</ele><time>2026-04-21T12:20:40.935Z</time></trkpt><trkpt lat="44.4050793" lon="8.9491431"><ele>13.0</ele><time>2026-04-21T12:20:41.937Z</time></trkpt><trkpt lat="44.4050353" lon="8.9492875"><ele>13.0</ele><time>2026-04-21T12:20:42.938Z</time></trkpt><trkpt lat="44.4049912" lon="8.9494293"><ele>13.0</ele><time>2026-04-21T12:20:43.943Z</time></trkpt><trkpt lat="44.4049517" lon="8.9495706"><ele>13.0</ele><time>2026-04-21T12:20:44.937Z</time></trkpt><trkpt lat="44.4049109" lon="8.9497096"><ele>12.4</ele><time>2026-04-21T12:20:45.941Z</time></trkpt><trkpt lat="44.4048716" lon="8.949849"><ele>11.8</ele><time>2026-04-21T12:20:46.943Z</time></trkpt><trkpt lat="44.4048371" lon="8.9499824"><ele>11.2</ele><time>2026-04-21T12:20:47.943Z</time></trkpt><trkpt lat="44.4048054" lon="8.950099"><ele>10.6</ele><time>2026-04-21T12:20:48.944Z</time></trkpt><trkpt lat="44.4047768" lon="8.9502018"><ele>10.0</ele><time>2026-04-21T12:20:49.945Z</time></trkpt><trkpt lat="44.4047056" lon="8.9503938"><ele>10.0</ele><time>2026-04-21T12:20:51.944Z</time></trkpt><trkpt lat="44.4046705" lon="8.9505052"><ele>10.0</ele><time>2026-04-21T12:20:52.944Z</time></trkpt><trkpt lat="44.4046377" lon="8.950627"><ele>10.0</ele><time>2026-04-21T12:20:53.938Z</time></trkpt><trkpt lat="44.4046063" lon="8.9507578"><ele>10.0</ele><time>2026-04-21T12:20:54.943Z</time></trkpt><trkpt lat="44.4045763" lon="8.9508869"><ele>10.0</ele><time>2026-04-21T12:20:55.943Z</time></trkpt><trkpt lat="44.4045489" lon="8.9510066"><ele>10.833333333333334</ele><time>2026-04-21T12:20:56.935Z</time></trkpt><trkpt lat="44.4045258" lon="8.9511136"><ele>11.666666666666668</ele><time>2026-04-21T12:20:57.946Z</time></trkpt><trkpt lat="44.4045028" lon="8.9512149"><ele>12.5</ele><time>2026-04-21T12:20:58.94Z</time></trkpt><trkpt lat="44.4044799" lon="8.9513176"><ele>13.333333333333334</ele><time>2026-04-21T12:20:59.942Z</time></trkpt><trkpt lat="44.4044477" lon="8.9514212"><ele>14.166666666666666</ele><time>2026-04-21T12:21:00.941Z</time></trkpt><trkpt lat="44.4044176" lon="8.9515379"><ele>15.0</ele><time>2026-04-21T12:21:01.939Z</time></trkpt><trkpt lat="44.4043843" lon="8.9516639"><ele>14.6</ele><time>2026-04-21T12:21:02.941Z</time></trkpt><trkpt lat="44.4043497" lon="8.9518044"><ele>14.2</ele><time>2026-04-21T12:21:03.935Z</time></trkpt><trkpt lat="44.4043367" lon="8.9519591"><ele>13.8</ele><time>2026-04-21T12:21:04.941Z</time></trkpt><trkpt lat="44.4042962" lon="8.9521008"><ele>13.4</ele><time>2026-04-21T12:21:05.94Z</time></trkpt><trkpt lat="44.4042662" lon="8.9522517"><ele>13.0</ele><time>2026-04-21T12:21:06.935Z</time></trkpt><trkpt lat="44.4042324" lon="8.9523982"><ele>13.5</ele><time>2026-04-21T12:21:07.935Z</time></trkpt><trkpt lat="44.4041963" lon="8.9525452"><ele>14.0</ele><time>2026-04-21T12:21:08.941Z</time></trkpt><trkpt lat="44.4041603" lon="8.9526953"><ele>14.5</ele><time>2026-04-21T12:21:09.941Z</time></trkpt><trkpt lat="44.4041229" lon="8.9528489"><ele>15.0</ele><time>2026-04-21T12:21:10.936Z</time></trkpt><trkpt lat="44.4040505" lon="8.9531585"><ele>15.0</ele><time>2026-04-21T12:21:12.944Z</time></trkpt><trkpt lat="44.4040136" lon="8.953315"><ele>15.0</ele><time>2026-04-21T12:21:13.939Z</time></trkpt><trkpt lat="44.4039726" lon="8.9534664"><ele>15.0</ele><time>2026-04-21T12:21:14.94Z</time></trkpt><trkpt lat="44.403937" lon="8.953617"><ele>15.0</ele><time>2026-04-21T12:21:15.936Z</time></trkpt><trkpt lat="44.4039004" lon="8.953761"><ele>15.0</ele><time>2026-04-21T12:21:16.944Z</time></trkpt><trkpt lat="44.4038659" lon="8.953898"><ele>15.0</ele><time>2026-04-21T12:21:17.942Z</time></trkpt><trkpt lat="44.403835" lon="8.954026"><ele>15.0</ele><time>2026-04-21T12:21:18.943Z</time></trkpt><trkpt lat="44.403816" lon="8.9541524"><ele>15.0</ele><time>2026-04-21T12:21:19.944Z</time></trkpt><trkpt lat="44.4038135" lon="8.9542812"><ele>15.0</ele><time>2026-04-21T12:21:20.933Z</time></trkpt><trkpt lat="44.4038265" lon="8.9544058"><ele>15.0</ele><time>2026-04-21T12:21:21.944Z</time></trkpt><trkpt lat="44.4038413" lon="8.9545303"><ele>15.0</ele><time>2026-04-21T12:21:22.932Z</time></trkpt><trkpt lat="44.4038707" lon="8.9546622"><ele>15.0</ele><time>2026-04-21T12:21:23.944Z</time></trkpt><trkpt lat="44.4038697" lon="8.9547843"><ele>15.0</ele><time>2026-04-21T12:21:24.94Z</time></trkpt><trkpt lat="44.4038549" lon="8.9548961"><ele>15.0</ele><time>2026-04-21T12:21:25.939Z</time></trkpt><trkpt lat="44.4038309" lon="8.9550002"><ele>15.0</ele><time>2026-04-21T12:21:26.936Z</time></trkpt><trkpt lat="44.4038038" lon="8.9551047"><ele>16.2</ele><time>2026-04-21T12:21:27.942Z</time></trkpt><trkpt lat="44.4037771" lon="8.9551968"><ele>17.4</ele><time>2026-04-21T12:21:28.943Z</time></trkpt><trkpt lat="44.4037522" lon="8.9552942"><ele>18.6</ele><time>2026-04-21T12:21:29.936Z</time></trkpt><trkpt lat="44.403727" lon="8.9553896"><ele>19.8</ele><time>2026-04-21T12:21:30.934Z</time></trkpt><trkpt lat="44.4037056" lon="8.9554839"><ele>21.0</ele><time>2026-04-21T12:21:31.935Z</time></trkpt><trkpt lat="44.4036662" lon="8.9557384"><ele>23.200000000000003</ele><time>2026-04-21T12:21:34.937Z</time></trkpt><trkpt lat="44.4036426" lon="8.9558727"><ele>25.400000000000002</ele><time>2026-04-21T12:21:36.94Z</time></trkpt><trkpt lat="44.4036008" lon="8.9559469"><ele>27.6</ele><time>2026-04-21T12:21:40.939Z</time></trkpt><trkpt lat="44.4036391" lon="8.9561116"><ele>29.8</ele><time>2026-04-21T12:21:43.942Z</time></trkpt><trkpt lat="44.4036758" lon="8.9562166"><ele>32.0</ele><time>2026-04-21T12:21:44.947Z</time></trkpt><trkpt lat="44.4037639" lon="8.9563602"><ele>32.0</ele><time>2026-04-21T12:21:45.944Z</time></trkpt><trkpt lat="44.4038891" lon="8.9565446"><ele>32.0</ele><time>2026-04-21T12:21:46.937Z</time></trkpt><trkpt lat="44.4040055" lon="8.9567172"><ele>32.0</ele><time>2026-04-21T12:21:47.941Z</time></trkpt><trkpt lat="44.4041021" lon="8.9568817"><ele>32.0</ele><time>2026-04-21T12:21:48.94Z</time></trkpt><trkpt lat="44.4041818" lon="8.957036"><ele>32.0</ele><time>2026-04-21T12:21:49.936Z</time></trkpt><trkpt lat="44.4042575" lon="8.9571696"><ele>32.0</ele><time>2026-04-21T12:21:50.941Z</time></trkpt><trkpt lat="44.4043327" lon="8.9573057"><ele>32.0</ele><time>2026-04-21T12:21:51.943Z</time></trkpt><trkpt lat="44.4044056" lon="8.9574267"><ele>32.75</ele><time>2026-04-21T12:21:52.942Z</time></trkpt><trkpt lat="44.4045536" lon="8.9576607"><ele>33.5</ele><time>2026-04-21T12:21:54.941Z</time></trkpt><trkpt lat="44.4046186" lon="8.957774"><ele>34.25</ele><time>2026-04-21T12:21:55.948Z</time></trkpt><trkpt lat="44.4046613" lon="8.9578881"><ele>35.0</ele><time>2026-04-21T12:21:56.944Z</time></trkpt><trkpt lat="44.4046709" lon="8.9579979"><ele>35.0</ele><time>2026-04-21T12:21:57.945Z</time></trkpt><trkpt lat="44.4046597" lon="8.9580889"><ele>35.0</ele><time>2026-04-21T12:21:58.942Z</time></trkpt><trkpt lat="44.4046353" lon="8.9581753"><ele>35.0</ele><time>2026-04-21T12:22:00.941Z</time></trkpt><trkpt lat="44.4045859" lon="8.9582541"><ele>35.0</ele><time>2026-04-21T12:22:04.937Z</time></trkpt><trkpt lat="44.4045648" lon="8.958396"><ele>35.0</ele><time>2026-04-21T12:22:06.934Z</time></trkpt><trkpt lat="44.4045603" lon="8.9585534"><ele>35.0</ele><time>2026-04-21T12:22:08.938Z</time></trkpt><trkpt lat="44.4045591" lon="8.9587403"><ele>35.2</ele><time>2026-04-21T12:22:10.936Z</time></trkpt><trkpt lat="44.4045534" lon="8.9588395"><ele>35.4</ele><time>2026-04-21T12:22:11.937Z</time></trkpt><trkpt lat="44.4045506" lon="8.9589462"><ele>35.6</ele><time>2026-04-21T12:22:12.938Z</time></trkpt><trkpt lat="44.4045504" lon="8.9590626"><ele>35.8</ele><time>2026-04-21T12:22:13.945Z</time></trkpt><trkpt lat="44.4045614" lon="8.9593235"><ele>36.0</ele><time>2026-04-21T12:22:15.943Z</time></trkpt><trkpt lat="44.4045655" lon="8.959468"><ele>36.25</ele><time>2026-04-21T12:22:16.944Z</time></trkpt><trkpt lat="44.404564" lon="8.95963"><ele>36.5</ele><time>2026-04-21T12:22:17.943Z</time></trkpt><trkpt lat="44.4045644" lon="8.9598036"><ele>36.75</ele><time>2026-04-21T12:22:18.943Z</time></trkpt><trkpt lat="44.4045664" lon="8.9599793"><ele>37.0</ele><time>2026-04-21T12:22:19.943Z</time></trkpt><trkpt lat="44.4045712" lon="8.9601517"><ele>39.5</ele><time>2026-04-21T12:22:20.938Z</time></trkpt><trkpt lat="44.4045768" lon="8.9603256"><ele>42.0</ele><time>2026-04-21T12:22:21.936Z</time></trkpt><trkpt lat="44.4045769" lon="8.9604894"><ele>44.5</ele><time>2026-04-21T12:22:22.942Z</time></trkpt><trkpt lat="44.4045744" lon="8.9606437"><ele>47.0</ele><time>2026-04-21T12:22:23.945Z</time></trkpt><trkpt lat="44.4045697" lon="8.9607954"><ele>47.400000000000006</ele><time>2026-04-21T12:22:24.939Z</time></trkpt><trkpt lat="44.4045688" lon="8.960945"><ele>47.800000000000004</ele><time>2026-04-21T12:22:25.946Z</time></trkpt><trkpt lat="44.4045652" lon="8.9610918"><ele>48.2</ele><time>2026-04-21T12:22:26.947Z</time></trkpt><trkpt lat="44.4045598" lon="8.9612371"><ele>48.6</ele><time>2026-04-21T12:22:27.939Z</time></trkpt><trkpt lat="44.4045618" lon="8.9613822"><ele>49.0</ele><time>2026-04-21T12:22:28.946Z</time></trkpt><trkpt lat="44.4045623" lon="8.9615168"><ele>49.0</ele><time>2026-04-21T12:22:29.943Z</time></trkpt><trkpt lat="44.4045504" lon="8.9616443"><ele>49.0</ele><time>2026-04-21T12:22:30.937Z</time></trkpt><trkpt lat="44.404539" lon="8.9617739"><ele>49.0</ele><time>2026-04-21T12:22:31.943Z</time></trkpt><trkpt lat="44.4045343" lon="8.961908"><ele>49.0</ele><time>2026-04-21T12:22:32.942Z</time></trkpt><trkpt lat="44.4045359" lon="8.9620541"><ele>49.0</ele><time>2026-04-21T12:22:33.942Z</time></trkpt><trkpt lat="44.4045323" lon="8.9621975"><ele>48.75</ele><time>2026-04-21T12:22:34.941Z</time></trkpt><trkpt lat="44.4045319" lon="8.9624794"><ele>48.5</ele><time>2026-04-21T12:22:36.935Z</time></trkpt><trkpt lat="44.4045294" lon="8.962608"><ele>48.25</ele><time>2026-04-21T12:22:37.941Z</time></trkpt><trkpt lat="44.4045295" lon="8.9627255"><ele>48.0</ele><time>2026-04-21T12:22:38.941Z</time></trkpt><trkpt lat="44.4045328" lon="8.9628339"><ele>48.333333333333336</ele><time>2026-04-21T12:22:39.933Z</time></trkpt><trkpt lat="44.4045369" lon="8.9629365"><ele>48.66666666666667</ele><time>2026-04-21T12:22:40.941Z</time></trkpt><trkpt lat="44.4045366" lon="8.9630333"><ele>49.0</ele><time>2026-04-21T12:22:41.936Z</time></trkpt><trkpt lat="44.4045364" lon="8.9631272"><ele>49.333333333333336</ele><time>2026-04-21T12:22:42.942Z</time></trkpt><trkpt lat="44.4045333" lon="8.9632964"><ele>49.66666666666667</ele><time>2026-04-21T12:22:44.932Z</time></trkpt><trkpt lat="44.4045296" lon="8.9634328"><ele>50.0</ele><time>2026-04-21T12:22:46.939Z</time></trkpt><trkpt lat="44.4045209" lon="8.9635303"><ele>50.0</ele><time>2026-04-21T12:22:48.941Z</time></trkpt><trkpt lat="44.4045096" lon="8.963647"><ele>50.0</ele><time>2026-04-21T12:22:50.935Z</time></trkpt><trkpt lat="44.4045105" lon="8.9637467"><ele>50.0</ele><time>2026-04-21T12:22:52.942Z</time></trkpt><trkpt lat="44.4045013" lon="8.9638463"><ele>50.0</ele><time>2026-04-21T12:22:54.942Z</time></trkpt><trkpt lat="44.4044962" lon="8.9639399"><ele>50.0</ele><time>2026-04-21T12:22:56.942Z</time></trkpt><trkpt lat="44.4044895" lon="8.9641698"><ele>51.25</ele><time>2026-04-21T12:23:02.938Z</time></trkpt><trkpt lat="44.4044972" lon="8.9642955"><ele>52.5</ele><time>2026-04-21T12:23:05.941Z</time></trkpt><trkpt lat="44.4044778" lon="8.9644507"><ele>53.75</ele><time>2026-04-21T12:23:29.933Z</time></trkpt><trkpt lat="44.4044734" lon="8.9646671"><ele>55.0</ele><time>2026-04-21T12:23:31.941Z</time></trkpt><trkpt lat="44.404483" lon="8.964804"><ele>55.0</ele><time>2026-04-21T12:23:32.94Z</time></trkpt><trkpt lat="44.4044881" lon="8.964943"><ele>55.0</ele><time>2026-04-21T12:23:33.938Z</time></trkpt><trkpt lat="44.404488" lon="8.9650872"><ele>55.0</ele><time>2026-04-21T12:23:34.938Z</time></trkpt><trkpt lat="44.4044853" lon="8.965242"><ele>55.0</ele><time>2026-04-21T12:23:35.938Z</time></trkpt><trkpt lat="44.4044825" lon="8.9654175"><ele>55.0</ele><time>2026-04-21T12:23:36.941Z</time></trkpt><trkpt lat="44.4044898" lon="8.9655988"><ele>55.25</ele><time>2026-04-21T12:23:37.938Z</time></trkpt><trkpt lat="44.4045108" lon="8.965783"><ele>55.5</ele><time>2026-04-21T12:23:38.952Z</time></trkpt><trkpt lat="44.404544" lon="8.9659623"><ele>55.75</ele><time>2026-04-21T12:23:39.955Z</time></trkpt><trkpt lat="44.404578" lon="8.9661345"><ele>56.0</ele><time>2026-04-21T12:23:40.954Z</time></trkpt><trkpt lat="44.4046084" lon="8.9662859"><ele>56.00000000000001</ele><time>2026-04-21T12:23:41.966Z</time></trkpt><trkpt lat="44.4046416" lon="8.9664214"><ele>56.0</ele><time>2026-04-21T12:23:42.957Z</time></trkpt><trkpt lat="44.404671" lon="8.9665403"><ele>56.0</ele><time>2026-04-21T12:23:43.954Z</time></trkpt><trkpt lat="44.4046965" lon="8.9666454"><ele>56.0</ele><time>2026-04-21T12:23:44.963Z</time></trkpt><trkpt lat="44.4047176" lon="8.9667365"><ele>56.00000000000001</ele><time>2026-04-21T12:23:45.956Z</time></trkpt><trkpt lat="44.4047352" lon="8.9668234"><ele>56.0</ele><time>2026-04-21T12:23:46.951Z</time></trkpt><trkpt lat="44.4047539" lon="8.9669087"><ele>56.0</ele><time>2026-04-21T12:23:47.954Z</time></trkpt><trkpt lat="44.4047687" lon="8.9669959"><ele>55.99999999999999</ele><time>2026-04-21T12:23:48.957Z</time></trkpt><trkpt lat="44.4047789" lon="8.9670881"><ele>55.99999999999999</ele><time>2026-04-21T12:23:49.962Z</time></trkpt><trkpt lat="44.4047897" lon="8.9671911"><ele>56.0</ele><time>2026-04-21T12:23:50.958Z</time></trkpt><trkpt lat="44.4048151" lon="8.967424"><ele>56.0</ele><time>2026-04-21T12:23:52.951Z</time></trkpt><trkpt lat="44.4048313" lon="8.9675522"><ele>56.0</ele><time>2026-04-21T12:23:53.95Z</time></trkpt><trkpt lat="44.4048484" lon="8.9676891"><ele>55.99999999999999</ele><time>2026-04-21T12:23:54.958Z</time></trkpt><trkpt lat="44.4048767" lon="8.9678399"><ele>55.99999999999999</ele><time>2026-04-21T12:23:55.962Z</time></trkpt><trkpt lat="44.4048958" lon="8.9679988"><ele>56.0</ele><time>2026-04-21T12:23:56.944Z</time></trkpt><trkpt lat="44.4049209" lon="8.9681636"><ele>56.0</ele><time>2026-04-21T12:23:57.95Z</time></trkpt><trkpt lat="44.4049551" lon="8.9683336"><ele>59.0</ele><time>2026-04-21T12:23:58.94Z</time></trkpt><trkpt lat="44.4050004" lon="8.9684928"><ele>62.0</ele><time>2026-04-21T12:23:59.958Z</time></trkpt><trkpt lat="44.4050353" lon="8.9686424"><ele>65.0</ele><time>2026-04-21T12:24:00.947Z</time></trkpt><trkpt lat="44.4050777" lon="8.9687935"><ele>68.0</ele><time>2026-04-21T12:24:01.953Z</time></trkpt><trkpt lat="44.4051268" lon="8.9689389"><ele>68.0</ele><time>2026-04-21T12:24:02.947Z</time></trkpt><trkpt lat="44.4051789" lon="8.9690754"><ele>68.0</ele><time>2026-04-21T12:24:03.951Z</time></trkpt><trkpt lat="44.4052311" lon="8.9691938"><ele>68.0</ele><time>2026-04-21T12:24:04.953Z</time></trkpt><trkpt lat="44.4052895" lon="8.9692878"><ele>68.0</ele><time>2026-04-21T12:24:05.946Z</time></trkpt><trkpt lat="44.4053396" lon="8.9693698"><ele>68.0</ele><time>2026-04-21T12:24:06.947Z</time></trkpt><trkpt lat="44.4053874" lon="8.969444"><ele>68.0</ele><time>2026-04-21T12:24:07.941Z</time></trkpt><trkpt lat="44.4054606" lon="8.9695716"><ele>68.25</ele><time>2026-04-21T12:24:09.938Z</time></trkpt><trkpt lat="44.4054998" lon="8.9696883"><ele>68.5</ele><time>2026-04-21T12:24:11.943Z</time></trkpt><trkpt lat="44.4056304" lon="8.9699638"><ele>68.75</ele><time>2026-04-21T12:24:15.941Z</time></trkpt><trkpt lat="44.4056829" lon="8.9700589"><ele>69.0</ele><time>2026-04-21T12:24:16.944Z</time></trkpt><trkpt lat="44.4057295" lon="8.9701618"><ele>69.0</ele><time>2026-04-21T12:24:17.946Z</time></trkpt><trkpt lat="44.4057831" lon="8.9702749"><ele>69.0</ele><time>2026-04-21T12:24:18.958Z</time></trkpt><trkpt lat="44.4058441" lon="8.9703974"><ele>69.0</ele><time>2026-04-21T12:24:19.951Z</time></trkpt><trkpt lat="44.4059072" lon="8.9705184"><ele>69.0</ele><time>2026-04-21T12:24:20.954Z</time></trkpt><trkpt lat="44.4059739" lon="8.9706336"><ele>69.0</ele><time>2026-04-21T12:24:21.96Z</time></trkpt><trkpt lat="44.4060373" lon="8.9707471"><ele>69.8</ele><time>2026-04-21T12:24:22.939Z</time></trkpt><trkpt lat="44.4061" lon="8.9708597"><ele>70.60000000000001</ele><time>2026-04-21T12:24:23.959Z</time></trkpt><trkpt lat="44.4061576" lon="8.9709674"><ele>71.4</ele><time>2026-04-21T12:24:24.947Z</time></trkpt><trkpt lat="44.4062227" lon="8.9710826"><ele>72.2</ele><time>2026-04-21T12:24:25.96Z</time></trkpt><trkpt lat="44.4062869" lon="8.9712014"><ele>73.0</ele><time>2026-04-21T12:24:26.948Z</time></trkpt><trkpt lat="44.4063497" lon="8.9713217"><ele>72.8</ele><time>2026-04-21T12:24:27.944Z</time></trkpt><trkpt lat="44.4064084" lon="8.971441"><ele>72.6</ele><time>2026-04-21T12:24:28.953Z</time></trkpt><trkpt lat="44.4064555" lon="8.9715582"><ele>72.4</ele><time>2026-04-21T12:24:29.951Z</time></trkpt><trkpt lat="44.4064897" lon="8.9716699"><ele>72.2</ele><time>2026-04-21T12:24:30.961Z</time></trkpt><trkpt lat="44.4065234" lon="8.9717761"><ele>72.0</ele><time>2026-04-21T12:24:31.95Z</time></trkpt><trkpt lat="44.4065563" lon="8.9718824"><ele>72.0</ele><time>2026-04-21T12:24:32.955Z</time></trkpt><trkpt lat="44.4066188" lon="8.9721004"><ele>72.0</ele><time>2026-04-21T12:24:34.955Z</time></trkpt><trkpt lat="44.4066425" lon="8.9721873"><ele>72.0</ele><time>2026-04-21T12:24:35.962Z</time></trkpt><trkpt lat="44.4066816" lon="8.9723238"><ele>72.0</ele><time>2026-04-21T12:24:37.948Z</time></trkpt><trkpt lat="44.4067103" lon="8.9724631"><ele>72.0</ele><time>2026-04-21T12:24:39.949Z</time></trkpt><trkpt lat="44.4067305" lon="8.9725492"><ele>72.33333333333333</ele><time>2026-04-21T12:24:40.942Z</time></trkpt><trkpt lat="44.4067554" lon="8.9726515"><ele>72.66666666666667</ele><time>2026-04-21T12:24:41.954Z</time></trkpt><trkpt lat="44.4067851" lon="8.9727673"><ele>73.0</ele><time>2026-04-21T12:24:42.941Z</time></trkpt><trkpt lat="44.4068157" lon="8.9728881"><ele>73.33333333333334</ele><time>2026-04-21T12:24:43.949Z</time></trkpt><trkpt lat="44.4068524" lon="8.9730155"><ele>73.66666666666667</ele><time>2026-04-21T12:24:44.941Z</time></trkpt><trkpt lat="44.4068919" lon="8.9731358"><ele>74.0</ele><time>2026-04-21T12:24:45.959Z</time></trkpt><trkpt lat="44.4069196" lon="8.9732376"><ele>74.0</ele><time>2026-04-21T12:24:46.953Z</time></trkpt><trkpt lat="44.4069442" lon="8.9733399"><ele>74.0</ele><time>2026-04-21T12:24:47.954Z</time></trkpt><trkpt lat="44.406968" lon="8.9734462"><ele>74.0</ele><time>2026-04-21T12:24:48.96Z</time></trkpt><trkpt lat="44.406997" lon="8.9735521"><ele>74.0</ele><time>2026-04-21T12:24:49.944Z</time></trkpt><trkpt lat="44.407025" lon="8.9736456"><ele>74.0</ele><time>2026-04-21T12:24:50.949Z</time></trkpt><trkpt lat="44.4070621" lon="8.973726"><ele>74.0</ele><time>2026-04-21T12:24:51.955Z</time></trkpt><trkpt lat="44.4071122" lon="8.973875"><ele>72.75</ele><time>2026-04-21T12:24:53.969Z</time></trkpt><trkpt lat="44.4071706" lon="8.9741328"><ele>71.5</ele><time>2026-04-21T12:24:56.957Z</time></trkpt><trkpt lat="44.4072161" lon="8.9742761"><ele>70.25</ele><time>2026-04-21T12:24:58.966Z</time></trkpt><trkpt lat="44.4072513" lon="8.9743773"><ele>69.0</ele><time>2026-04-21T12:25:00.937Z</time></trkpt><trkpt lat="44.4072688" lon="8.9744695"><ele>68.60000000000001</ele><time>2026-04-21T12:25:03.964Z</time></trkpt><trkpt lat="44.4072631" lon="8.9745897"><ele>68.2</ele><time>2026-04-21T12:25:26.951Z</time></trkpt><trkpt lat="44.407313" lon="8.9748032"><ele>67.80000000000001</ele><time>2026-04-21T12:25:28.954Z</time></trkpt><trkpt lat="44.407354" lon="8.9749315"><ele>67.4</ele><time>2026-04-21T12:25:29.943Z</time></trkpt><trkpt lat="44.4073935" lon="8.9750624"><ele>67.0</ele><time>2026-04-21T12:25:30.948Z</time></trkpt><trkpt lat="44.4074338" lon="8.9752015"><ele>69.5</ele><time>2026-04-21T12:25:31.963Z</time></trkpt><trkpt lat="44.4074765" lon="8.9753481"><ele>72.0</ele><time>2026-04-21T12:25:32.973Z</time></trkpt><trkpt lat="44.4075202" lon="8.9754985"><ele>74.5</ele><time>2026-04-21T12:25:33.954Z</time></trkpt><trkpt lat="44.4075695" lon="8.9756465"><ele>77.0</ele><time>2026-04-21T12:25:34.952Z</time></trkpt><trkpt lat="44.4076138" lon="8.9757981"><ele>77.8</ele><time>2026-04-21T12:25:35.955Z</time></trkpt><trkpt lat="44.4076545" lon="8.9759491"><ele>78.6</ele><time>2026-04-21T12:25:36.953Z</time></trkpt><trkpt lat="44.4076926" lon="8.9760995"><ele>79.39999999999999</ele><time>2026-04-21T12:25:37.96Z</time></trkpt><trkpt lat="44.4077245" lon="8.9762394"><ele>80.2</ele><time>2026-04-21T12:25:38.955Z</time></trkpt><trkpt lat="44.4077467" lon="8.9763822"><ele>81.0</ele><time>2026-04-21T12:25:39.942Z</time></trkpt><trkpt lat="44.4077559" lon="8.9765273"><ele>79.25</ele><time>2026-04-21T12:25:40.954Z</time></trkpt><trkpt lat="44.4077587" lon="8.9766897"><ele>77.5</ele><time>2026-04-21T12:25:41.959Z</time></trkpt><trkpt lat="44.4077608" lon="8.9768569"><ele>75.75</ele><time>2026-04-21T12:25:42.962Z</time></trkpt><trkpt lat="44.4077545" lon="8.9770253"><ele>74.0</ele><time>2026-04-21T12:25:43.94Z</time></trkpt><trkpt lat="44.4077433" lon="8.977193"><ele>74.0</ele><time>2026-04-21T12:25:44.943Z</time></trkpt><trkpt lat="44.4077218" lon="8.977364"><ele>74.0</ele><time>2026-04-21T12:25:45.942Z</time></trkpt><trkpt lat="44.4076914" lon="8.9775263"><ele>74.0</ele><time>2026-04-21T12:25:46.947Z</time></trkpt><trkpt lat="44.407652" lon="8.9776762"><ele>74.0</ele><time>2026-04-21T12:25:47.957Z</time></trkpt><trkpt lat="44.4075569" lon="8.9779797"><ele>71.25</ele><time>2026-04-21T12:25:49.952Z</time></trkpt><trkpt lat="44.4074919" lon="8.9781379"><ele>68.5</ele><time>2026-04-21T12:25:50.945Z</time></trkpt><trkpt lat="44.4074197" lon="8.9783003"><ele>65.75</ele><time>2026-04-21T12:25:51.952Z</time></trkpt><trkpt lat="44.4073473" lon="8.9784727"><ele>63.0</ele><time>2026-04-21T12:25:52.948Z</time></trkpt><trkpt lat="44.4072658" lon="8.9786375"><ele>62.75</ele><time>2026-04-21T12:25:53.956Z</time></trkpt><trkpt lat="44.4071872" lon="8.9788019"><ele>62.5</ele><time>2026-04-21T12:25:54.958Z</time></trkpt><trkpt lat="44.4071068" lon="8.9789613"><ele>62.25</ele><time>2026-04-21T12:25:55.951Z</time></trkpt><trkpt lat="44.4070246" lon="8.9791126"><ele>62.0</ele><time>2026-04-21T12:25:56.943Z</time></trkpt><trkpt lat="44.4069483" lon="8.979255"><ele>61.0</ele><time>2026-04-21T12:25:57.943Z</time></trkpt><trkpt lat="44.4068717" lon="8.9793863"><ele>60.0</ele><time>2026-04-21T12:25:58.939Z</time></trkpt><trkpt lat="44.4067931" lon="8.9795073"><ele>59.0</ele><time>2026-04-21T12:25:59.95Z</time></trkpt><trkpt lat="44.4067044" lon="8.9796215"><ele>58.0</ele><time>2026-04-21T12:26:00.939Z</time></trkpt><trkpt lat="44.406624" lon="8.9797372"><ele>58.0</ele><time>2026-04-21T12:26:01.951Z</time></trkpt><trkpt lat="44.4065402" lon="8.9798473"><ele>58.0</ele><time>2026-04-21T12:26:02.949Z</time></trkpt><trkpt lat="44.4064517" lon="8.9799585"><ele>58.0</ele><time>2026-04-21T12:26:03.94Z</time></trkpt><trkpt lat="44.4063599" lon="8.9800584"><ele>58.0</ele><time>2026-04-21T12:26:04.942Z</time></trkpt><trkpt lat="44.4062642" lon="8.9801559"><ele>57.5</ele><time>2026-04-21T12:26:05.957Z</time></trkpt><trkpt lat="44.4061707" lon="8.980248"><ele>57.0</ele><time>2026-04-21T12:26:06.956Z</time></trkpt><trkpt lat="44.4060836" lon="8.9803373"><ele>56.5</ele><time>2026-04-21T12:26:07.951Z</time></trkpt><trkpt lat="44.4059916" lon="8.9804262"><ele>56.0</ele><time>2026-04-21T12:26:08.95Z</time></trkpt><trkpt lat="44.4058054" lon="8.9806058"><ele>56.0</ele><time>2026-04-21T12:26:10.956Z</time></trkpt><trkpt lat="44.4057079" lon="8.9806983"><ele>56.0</ele><time>2026-04-21T12:26:11.952Z</time></trkpt><trkpt lat="44.4056109" lon="8.9807905"><ele>56.0</ele><time>2026-04-21T12:26:12.94Z</time></trkpt><trkpt lat="44.405513" lon="8.9808853"><ele>56.0</ele><time>2026-04-21T12:26:13.944Z</time></trkpt><trkpt lat="44.4054151" lon="8.9809812"><ele>55.25</ele><time>2026-04-21T12:26:14.946Z</time></trkpt><trkpt lat="44.4053165" lon="8.9810779"><ele>54.5</ele><time>2026-04-21T12:26:15.952Z</time></trkpt><trkpt lat="44.4052177" lon="8.9811786"><ele>53.75</ele><time>2026-04-21T12:26:16.949Z</time></trkpt><trkpt lat="44.405118" lon="8.9812728"><ele>53.0</ele><time>2026-04-21T12:26:17.951Z</time></trkpt><trkpt lat="44.4050183" lon="8.9813686"><ele>53.0</ele><time>2026-04-21T12:26:18.951Z</time></trkpt><trkpt lat="44.4049213" lon="8.9814641"><ele>53.0</ele><time>2026-04-21T12:26:19.945Z</time></trkpt><trkpt lat="44.4048276" lon="8.9815601"><ele>53.0</ele><time>2026-04-21T12:26:20.945Z</time></trkpt><trkpt lat="44.4047338" lon="8.981654"><ele>53.0</ele><time>2026-04-21T12:26:21.946Z</time></trkpt><trkpt lat="44.4046428" lon="8.9817467"><ele>52.0</ele><time>2026-04-21T12:26:22.948Z</time></trkpt><trkpt lat="44.4045467" lon="8.9818406"><ele>51.0</ele><time>2026-04-21T12:26:23.952Z</time></trkpt><trkpt lat="44.4044525" lon="8.9819314"><ele>50.0</ele><time>2026-04-21T12:26:24.955Z</time></trkpt><trkpt lat="44.4043634" lon="8.982017"><ele>49.0</ele><time>2026-04-21T12:26:25.956Z</time></trkpt><trkpt lat="44.4042801" lon="8.9821024"><ele>48.0</ele><time>2026-04-21T12:26:26.938Z</time></trkpt><trkpt lat="44.4041911" lon="8.9821885"><ele>48.0</ele><time>2026-04-21T12:26:27.943Z</time></trkpt><trkpt lat="44.4040976" lon="8.9822776"><ele>48.0</ele><time>2026-04-21T12:26:28.949Z</time></trkpt><trkpt lat="44.4040037" lon="8.9823658"><ele>48.0</ele><time>2026-04-21T12:26:29.954Z</time></trkpt><trkpt lat="44.4038302" lon="8.9825271"><ele>48.0</ele><time>2026-04-21T12:26:31.946Z</time></trkpt><trkpt lat="44.4037564" lon="8.9825988"><ele>48.5</ele><time>2026-04-21T12:26:32.949Z</time></trkpt><trkpt lat="44.4036916" lon="8.982668"><ele>49.0</ele><time>2026-04-21T12:26:33.936Z</time></trkpt><trkpt lat="44.4036295" lon="8.9827333"><ele>49.5</ele><time>2026-04-21T12:26:34.954Z</time></trkpt><trkpt lat="44.4035635" lon="8.9828017"><ele>50.0</ele><time>2026-04-21T12:26:35.949Z</time></trkpt><trkpt lat="44.4034939" lon="8.9828779"><ele>50.5</ele><time>2026-04-21T12:26:36.944Z</time></trkpt><trkpt lat="44.4034261" lon="8.9829637"><ele>51.0</ele><time>2026-04-21T12:26:37.957Z</time></trkpt><trkpt lat="44.4033598" lon="8.9830451"><ele>51.0</ele><time>2026-04-21T12:26:38.949Z</time></trkpt><trkpt lat="44.4032973" lon="8.9831289"><ele>51.0</ele><time>2026-04-21T12:26:39.945Z</time></trkpt><trkpt lat="44.4032335" lon="8.9832204"><ele>51.0</ele><time>2026-04-21T12:26:40.949Z</time></trkpt><trkpt lat="44.4031674" lon="8.9833181"><ele>51.0</ele><time>2026-04-21T12:26:41.952Z</time></trkpt><trkpt lat="44.4031025" lon="8.9834208"><ele>51.0</ele><time>2026-04-21T12:26:42.958Z</time></trkpt><trkpt lat="44.403037" lon="8.9835266"><ele>49.5</ele><time>2026-04-21T12:26:43.952Z</time></trkpt><trkpt lat="44.4029758" lon="8.983634"><ele>48.0</ele><time>2026-04-21T12:26:44.949Z</time></trkpt><trkpt lat="44.4029225" lon="8.9837354"><ele>46.5</ele><time>2026-04-21T12:26:45.947Z</time></trkpt><trkpt lat="44.4028759" lon="8.9838304"><ele>45.0</ele><time>2026-04-21T12:26:46.941Z</time></trkpt><trkpt lat="44.4028385" lon="8.9839213"><ele>43.5</ele><time>2026-04-21T12:26:47.947Z</time></trkpt><trkpt lat="44.4028037" lon="8.9840177"><ele>42.0</ele><time>2026-04-21T12:26:48.949Z</time></trkpt><trkpt lat="44.4027633" lon="8.9841206"><ele>41.0</ele><time>2026-04-21T12:26:49.951Z</time></trkpt><trkpt lat="44.4027195" lon="8.9842328"><ele>40.0</ele><time>2026-04-21T12:26:50.957Z</time></trkpt><trkpt lat="44.4026325" lon="8.9844584"><ele>39.0</ele><time>2026-04-21T12:26:52.957Z</time></trkpt><trkpt lat="44.4025885" lon="8.9845732"><ele>38.0</ele><time>2026-04-21T12:26:53.946Z</time></trkpt><trkpt lat="44.40254" lon="8.9846971"><ele>38.0</ele><time>2026-04-21T12:26:54.953Z</time></trkpt><trkpt lat="44.4024895" lon="8.9848336"><ele>38.0</ele><time>2026-04-21T12:26:55.95Z</time></trkpt><trkpt lat="44.402436" lon="8.9849727"><ele>38.0</ele><time>2026-04-21T12:26:56.954Z</time></trkpt><trkpt lat="44.4023807" lon="8.9851122"><ele>38.0</ele><time>2026-04-21T12:26:57.954Z</time></trkpt><trkpt lat="44.4023272" lon="8.9852476"><ele>38.0</ele><time>2026-04-21T12:26:58.958Z</time></trkpt><trkpt lat="44.4022708" lon="8.9853816"><ele>36.25</ele><time>2026-04-21T12:26:59.948Z</time></trkpt><trkpt lat="44.4022123" lon="8.9855243"><ele>34.5</ele><time>2026-04-21T12:27:00.954Z</time></trkpt><trkpt lat="44.4021512" lon="8.985671"><ele>32.75</ele><time>2026-04-21T12:27:01.953Z</time></trkpt><trkpt lat="44.4020933" lon="8.985816"><ele>31.0</ele><time>2026-04-21T12:27:02.952Z</time></trkpt><trkpt lat="44.4020337" lon="8.9859633"><ele>28.5</ele><time>2026-04-21T12:27:03.958Z</time></trkpt><trkpt lat="44.4019669" lon="8.9861111"><ele>26.0</ele><time>2026-04-21T12:27:04.94Z</time></trkpt><trkpt lat="44.4019003" lon="8.9862668"><ele>23.5</ele><time>2026-04-21T12:27:05.96Z</time></trkpt><trkpt lat="44.4018339" lon="8.9864274"><ele>21.0</ele><time>2026-04-21T12:27:06.96Z</time></trkpt><trkpt lat="44.4017661" lon="8.9865899"><ele>23.25</ele><time>2026-04-21T12:27:07.959Z</time></trkpt><trkpt lat="44.4016973" lon="8.986751"><ele>25.5</ele><time>2026-04-21T12:27:08.961Z</time></trkpt><trkpt lat="44.4016299" lon="8.9869095"><ele>27.75</ele><time>2026-04-21T12:27:09.948Z</time></trkpt><trkpt lat="44.4015633" lon="8.9870653"><ele>30.0</ele><time>2026-04-21T12:27:10.942Z</time></trkpt><trkpt lat="44.4014969" lon="8.9872156"><ele>30.0</ele><time>2026-04-21T12:27:11.962Z</time></trkpt><trkpt lat="44.4013481" lon="8.9874918"><ele>30.0</ele><time>2026-04-21T12:27:13.952Z</time></trkpt><trkpt lat="44.4012607" lon="8.9876113"><ele>30.0</ele><time>2026-04-21T12:27:14.95Z</time></trkpt><trkpt lat="44.4011563" lon="8.9876958"><ele>33.25</ele><time>2026-04-21T12:27:15.946Z</time></trkpt><trkpt lat="44.4010454" lon="8.9877705"><ele>36.5</ele><time>2026-04-21T12:27:16.936Z</time></trkpt><trkpt lat="44.4009294" lon="8.987825"><ele>39.75</ele><time>2026-04-21T12:27:17.94Z</time></trkpt><trkpt lat="44.4008121" lon="8.9878783"><ele>43.0</ele><time>2026-04-21T12:27:18.942Z</time></trkpt><trkpt lat="44.4006962" lon="8.9879243"><ele>43.0</ele><time>2026-04-21T12:27:19.947Z</time></trkpt><trkpt lat="44.4005887" lon="8.9879707"><ele>43.0</ele><time>2026-04-21T12:27:20.948Z</time></trkpt><trkpt lat="44.4004891" lon="8.9880115"><ele>43.0</ele><time>2026-04-21T12:27:21.949Z</time></trkpt><trkpt lat="44.4003966" lon="8.9880521"><ele>43.0</ele><time>2026-04-21T12:27:22.941Z</time></trkpt><trkpt lat="44.4003073" lon="8.988095"><ele>43.0</ele><time>2026-04-21T12:27:23.942Z</time></trkpt><trkpt lat="44.4002175" lon="8.9881436"><ele>41.4</ele><time>2026-04-21T12:27:24.949Z</time></trkpt><trkpt lat="44.4001352" lon="8.9881978"><ele>39.8</ele><time>2026-04-21T12:27:25.942Z</time></trkpt><trkpt lat="44.4000595" lon="8.9882677"><ele>38.2</ele><time>2026-04-21T12:27:26.946Z</time></trkpt><trkpt lat="44.3999864" lon="8.9883534"><ele>36.6</ele><time>2026-04-21T12:27:27.949Z</time></trkpt><trkpt lat="44.3999154" lon="8.9884552"><ele>35.0</ele><time>2026-04-21T12:27:28.948Z</time></trkpt><trkpt lat="44.3998451" lon="8.9885616"><ele>33.75</ele><time>2026-04-21T12:27:29.94Z</time></trkpt><trkpt lat="44.3997772" lon="8.9886734"><ele>32.5</ele><time>2026-04-21T12:27:30.944Z</time></trkpt><trkpt lat="44.399709" lon="8.9887852"><ele>31.25</ele><time>2026-04-21T12:27:31.947Z</time></trkpt><trkpt lat="44.3996463" lon="8.9888962"><ele>30.0</ele><time>2026-04-21T12:27:32.951Z</time></trkpt><trkpt lat="44.3995061" lon="8.9891198"><ele>32.5</ele><time>2026-04-21T12:27:34.945Z</time></trkpt><trkpt lat="44.3994326" lon="8.9892312"><ele>35.0</ele><time>2026-04-21T12:27:35.938Z</time></trkpt><trkpt lat="44.3993554" lon="8.9893501"><ele>37.5</ele><time>2026-04-21T12:27:36.951Z</time></trkpt><trkpt lat="44.3992752" lon="8.9894675"><ele>40.0</ele><time>2026-04-21T12:27:37.944Z</time></trkpt><trkpt lat="44.3991936" lon="8.9895908"><ele>40.0</ele><time>2026-04-21T12:27:38.943Z</time></trkpt><trkpt lat="44.3991099" lon="8.9897248"><ele>40.0</ele><time>2026-04-21T12:27:39.939Z</time></trkpt><trkpt lat="44.3990277" lon="8.9898605"><ele>40.0</ele><time>2026-04-21T12:27:40.941Z</time></trkpt><trkpt lat="44.3989535" lon="8.9899961"><ele>40.0</ele><time>2026-04-21T12:27:41.95Z</time></trkpt><trkpt lat="44.3988902" lon="8.9901468"><ele>41.0</ele><time>2026-04-21T12:27:42.944Z</time></trkpt><trkpt lat="44.3988398" lon="8.9903086"><ele>42.0</ele><time>2026-04-21T12:27:43.946Z</time></trkpt><trkpt lat="44.3987996" lon="8.9904838"><ele>43.0</ele><time>2026-04-21T12:27:44.959Z</time></trkpt><trkpt lat="44.3987681" lon="8.9906592"><ele>44.0</ele><time>2026-04-21T12:27:45.962Z</time></trkpt><trkpt lat="44.3987369" lon="8.9908258"><ele>42.0</ele><time>2026-04-21T12:27:46.953Z</time></trkpt><trkpt lat="44.398721" lon="8.991001"><ele>40.0</ele><time>2026-04-21T12:27:47.942Z</time></trkpt><trkpt lat="44.3987059" lon="8.9911756"><ele>38.0</ele><time>2026-04-21T12:27:48.936Z</time></trkpt><trkpt lat="44.3986952" lon="8.9913389"><ele>36.0</ele><time>2026-04-21T12:27:49.949Z</time></trkpt><trkpt lat="44.3986819" lon="8.9915021"><ele>35.75</ele><time>2026-04-21T12:27:50.942Z</time></trkpt><trkpt lat="44.3986658" lon="8.9916779"><ele>35.5</ele><time>2026-04-21T12:27:51.957Z</time></trkpt><trkpt lat="44.398649" lon="8.9918829"><ele>35.25</ele><time>2026-04-21T12:27:52.956Z</time></trkpt><trkpt lat="44.3986425" lon="8.9921081"><ele>35.0</ele><time>2026-04-21T12:27:53.953Z</time></trkpt><trkpt lat="44.3986248" lon="8.9925476"><ele>36.0</ele><time>2026-04-21T12:27:55.947Z</time></trkpt><trkpt lat="44.3986028" lon="8.9927505"><ele>37.0</ele><time>2026-04-21T12:27:56.953Z</time></trkpt><trkpt lat="44.3985566" lon="8.9929428"><ele>38.0</ele><time>2026-04-21T12:27:57.942Z</time></trkpt><trkpt lat="44.3984823" lon="8.9931155"><ele>39.0</ele><time>2026-04-21T12:27:58.948Z</time></trkpt><trkpt lat="44.3983858" lon="8.9932707"><ele>41.5</ele><time>2026-04-21T12:27:59.951Z</time></trkpt><trkpt lat="44.398294" lon="8.99339"><ele>44.0</ele><time>2026-04-21T12:28:00.941Z</time></trkpt><trkpt lat="44.3981889" lon="8.9934672"><ele>46.5</ele><time>2026-04-21T12:28:01.952Z</time></trkpt><trkpt lat="44.3980663" lon="8.9935138"><ele>49.0</ele><time>2026-04-21T12:28:02.953Z</time></trkpt><trkpt lat="44.3979324" lon="8.9935377"><ele>49.0</ele><time>2026-04-21T12:28:03.955Z</time></trkpt><trkpt lat="44.3978" lon="8.9935418"><ele>49.0</ele><time>2026-04-21T12:28:04.948Z</time></trkpt><trkpt lat="44.3976741" lon="8.9935321"><ele>49.0</ele><time>2026-04-21T12:28:05.953Z</time></trkpt><trkpt lat="44.397549" lon="8.993519"><ele>49.0</ele><time>2026-04-21T12:28:06.947Z</time></trkpt><trkpt lat="44.397422" lon="8.993499"><ele>49.0</ele><time>2026-04-21T12:28:07.951Z</time></trkpt><trkpt lat="44.3972953" lon="8.9934693"><ele>49.0</ele><time>2026-04-21T12:28:08.952Z</time></trkpt><trkpt lat="44.3971761" lon="8.9934422"><ele>49.0</ele><time>2026-04-21T12:28:09.944Z</time></trkpt><trkpt lat="44.3970583" lon="8.993422"><ele>49.0</ele><time>2026-04-21T12:28:10.951Z</time></trkpt><trkpt lat="44.3969375" lon="8.9934015"><ele>48.5</ele><time>2026-04-21T12:28:11.946Z</time></trkpt><trkpt lat="44.3968122" lon="8.9933882"><ele>48.0</ele><time>2026-04-21T12:28:12.951Z</time></trkpt><trkpt lat="44.3966836" lon="8.9933742"><ele>47.5</ele><time>2026-04-21T12:28:13.953Z</time></trkpt><trkpt lat="44.3965549" lon="8.9933525"><ele>47.0</ele><time>2026-04-21T12:28:14.956Z</time></trkpt><trkpt lat="44.39631" lon="8.9933208"><ele>47.0</ele><time>2026-04-21T12:28:16.949Z</time></trkpt><trkpt lat="44.3961904" lon="8.9933063"><ele>47.0</ele><time>2026-04-21T12:28:17.949Z</time></trkpt><trkpt lat="44.3960696" lon="8.9932936"><ele>47.0</ele><time>2026-04-21T12:28:18.951Z</time></trkpt><trkpt lat="44.395949" lon="8.9932844"><ele>47.0</ele><time>2026-04-21T12:28:19.946Z</time></trkpt><trkpt lat="44.3958305" lon="8.9932882"><ele>47.0</ele><time>2026-04-21T12:28:20.951Z</time></trkpt><trkpt lat="44.3957129" lon="8.9933111"><ele>47.0</ele><time>2026-04-21T12:28:21.954Z</time></trkpt><trkpt lat="44.395601" lon="8.9933537"><ele>47.0</ele><time>2026-04-21T12:28:22.936Z</time></trkpt><trkpt lat="44.3954968" lon="8.9934098"><ele>47.0</ele><time>2026-04-21T12:28:23.958Z</time></trkpt><trkpt lat="44.3953929" lon="8.9934708"><ele>48.0</ele><time>2026-04-21T12:28:24.954Z</time></trkpt><trkpt lat="44.3952958" lon="8.9935407"><ele>49.0</ele><time>2026-04-21T12:28:25.952Z</time></trkpt><trkpt lat="44.3951928" lon="8.9936245"><ele>50.0</ele><time>2026-04-21T12:28:26.941Z</time></trkpt><trkpt lat="44.3950821" lon="8.9937426"><ele>51.0</ele><time>2026-04-21T12:28:27.955Z</time></trkpt><trkpt lat="44.3949859" lon="8.9938689"><ele>51.0</ele><time>2026-04-21T12:28:28.962Z</time></trkpt><trkpt lat="44.3949044" lon="8.9940097"><ele>51.0</ele><time>2026-04-21T12:28:29.963Z</time></trkpt><trkpt lat="44.3948443" lon="8.9941551"><ele>51.0</ele><time>2026-04-21T12:28:30.949Z</time></trkpt><trkpt lat="44.3948005" lon="8.9943133"><ele>51.0</ele><time>2026-04-21T12:28:31.942Z</time></trkpt><trkpt lat="44.3947587" lon="8.9944726"><ele>50.75</ele><time>2026-04-21T12:28:32.959Z</time></trkpt><trkpt lat="44.3947223" lon="8.994638"><ele>50.5</ele><time>2026-04-21T12:28:33.951Z</time></trkpt><trkpt lat="44.3946952" lon="8.9948115"><ele>50.25</ele><time>2026-04-21T12:28:34.941Z</time></trkpt><trkpt lat="44.3946727" lon="8.9949917"><ele>50.0</ele><time>2026-04-21T12:28:35.948Z</time></trkpt><trkpt lat="44.3946365" lon="8.995355"><ele>50.0</ele><time>2026-04-21T12:28:37.96Z</time></trkpt><trkpt lat="44.3946159" lon="8.995533"><ele>50.0</ele><time>2026-04-21T12:28:38.956Z</time></trkpt><trkpt lat="44.3945946" lon="8.9957055"><ele>50.0</ele><time>2026-04-21T12:28:39.946Z</time></trkpt><trkpt lat="44.3945708" lon="8.9958753"><ele>50.0</ele><time>2026-04-21T12:28:40.952Z</time></trkpt><trkpt lat="44.3945481" lon="8.9960427"><ele>48.75</ele><time>2026-04-21T12:28:41.942Z</time></trkpt><trkpt lat="44.3945256" lon="8.996211"><ele>47.5</ele><time>2026-04-21T12:28:42.953Z</time></trkpt><trkpt lat="44.394504" lon="8.9963809"><ele>46.25</ele><time>2026-04-21T12:28:43.95Z</time></trkpt><trkpt lat="44.394484" lon="8.9965479"><ele>45.0</ele><time>2026-04-21T12:28:44.96Z</time></trkpt><trkpt lat="44.3944665" lon="8.9967151"><ele>44.75</ele><time>2026-04-21T12:28:45.952Z</time></trkpt><trkpt lat="44.3944496" lon="8.9968855"><ele>44.5</ele><time>2026-04-21T12:28:46.966Z</time></trkpt><trkpt lat="44.3944332" lon="8.997056"><ele>44.25</ele><time>2026-04-21T12:28:47.951Z</time></trkpt><trkpt lat="44.3944094" lon="8.997223"><ele>44.0</ele><time>2026-04-21T12:28:48.958Z</time></trkpt><trkpt lat="44.3943853" lon="8.9973837"><ele>42.5</ele><time>2026-04-21T12:28:49.961Z</time></trkpt><trkpt lat="44.3943604" lon="8.9975386"><ele>41.0</ele><time>2026-04-21T12:28:50.966Z</time></trkpt><trkpt lat="44.3943351" lon="8.9976934"><ele>39.5</ele><time>2026-04-21T12:28:51.956Z</time></trkpt><trkpt lat="44.3943093" lon="8.9978484"><ele>38.0</ele><time>2026-04-21T12:28:52.942Z</time></trkpt><trkpt lat="44.3942809" lon="8.9980135"><ele>38.0</ele><time>2026-04-21T12:28:53.959Z</time></trkpt><trkpt lat="44.3942518" lon="8.9981872"><ele>38.0</ele><time>2026-04-21T12:28:54.953Z</time></trkpt><trkpt lat="44.3942247" lon="8.9983691"><ele>38.0</ele><time>2026-04-21T12:28:55.939Z</time></trkpt><trkpt lat="44.3941961" lon="8.9985469"><ele>38.0</ele><time>2026-04-21T12:28:56.942Z</time></trkpt><trkpt lat="44.3941424" lon="8.9988937"><ele>38.5</ele><time>2026-04-21T12:28:58.964Z</time></trkpt><trkpt lat="44.3941174" lon="8.9990669"><ele>39.0</ele><time>2026-04-21T12:28:59.956Z</time></trkpt><trkpt lat="44.3940959" lon="8.9992425"><ele>39.5</ele><time>2026-04-21T12:29:00.942Z</time></trkpt><trkpt lat="44.3940802" lon="8.9994201"><ele>40.0</ele><time>2026-04-21T12:29:01.947Z</time></trkpt><trkpt lat="44.3940744" lon="8.9995908"><ele>42.0</ele><time>2026-04-21T12:29:02.938Z</time></trkpt><trkpt lat="44.3940749" lon="8.9997602"><ele>44.0</ele><time>2026-04-21T12:29:03.96Z</time></trkpt><trkpt lat="44.3940879" lon="8.9999328"><ele>46.0</ele><time>2026-04-21T12:29:04.952Z</time></trkpt><trkpt lat="44.3941062" lon="9.0000943"><ele>48.0</ele><time>2026-04-21T12:29:05.958Z</time></trkpt><trkpt lat="44.3941298" lon="9.000242"><ele>48.0</ele><time>2026-04-21T12:29:06.957Z</time></trkpt><trkpt lat="44.3941573" lon="9.0003814"><ele>48.0</ele><time>2026-04-21T12:29:07.948Z</time></trkpt><trkpt lat="44.3941833" lon="9.0004944"><ele>48.0</ele><time>2026-04-21T12:29:08.942Z</time></trkpt><trkpt lat="44.3942075" lon="9.0005795"><ele>48.0</ele><time>2026-04-21T12:29:09.939Z</time></trkpt><trkpt lat="44.3942402" lon="9.0006972"><ele>48.0</ele><time>2026-04-21T12:29:11.951Z</time></trkpt><trkpt lat="44.3942709" lon="9.0008379"><ele>48.0</ele><time>2026-04-21T12:29:44.953Z</time></trkpt><trkpt lat="44.3943632" lon="9.0010732"><ele>47.75</ele><time>2026-04-21T12:29:46.955Z</time></trkpt><trkpt lat="44.3944284" lon="9.0012067"><ele>47.5</ele><time>2026-04-21T12:29:47.944Z</time></trkpt><trkpt lat="44.3945038" lon="9.0013315"><ele>47.25</ele><time>2026-04-21T12:29:48.956Z</time></trkpt><trkpt lat="44.3945753" lon="9.0014644"><ele>47.0</ele><time>2026-04-21T12:29:49.956Z</time></trkpt><trkpt lat="44.3946451" lon="9.0016054"><ele>48.25</ele><time>2026-04-21T12:29:50.941Z</time></trkpt><trkpt lat="44.3947115" lon="9.0017493"><ele>49.5</ele><time>2026-04-21T12:29:51.945Z</time></trkpt><trkpt lat="44.394769" lon="9.0018855"><ele>50.75</ele><time>2026-04-21T12:29:52.963Z</time></trkpt><trkpt lat="44.3948146" lon="9.0020321"><ele>52.0</ele><time>2026-04-21T12:29:53.951Z</time></trkpt><trkpt lat="44.3948456" lon="9.0021961"><ele>52.0</ele><time>2026-04-21T12:29:54.943Z</time></trkpt><trkpt lat="44.3948634" lon="9.0023544"><ele>52.0</ele><time>2026-04-21T12:29:55.942Z</time></trkpt><trkpt lat="44.3948585" lon="9.0025243"><ele>52.0</ele><time>2026-04-21T12:29:56.953Z</time></trkpt><trkpt lat="44.3948418" lon="9.0026957"><ele>52.0</ele><time>2026-04-21T12:29:57.958Z</time></trkpt><trkpt lat="44.3948169" lon="9.0028614"><ele>53.666666666666664</ele><time>2026-04-21T12:29:58.955Z</time></trkpt><trkpt lat="44.3947909" lon="9.0030557"><ele>55.33333333333333</ele><time>2026-04-21T12:29:59.942Z</time></trkpt><trkpt lat="44.3947639" lon="9.003275"><ele>57.0</ele><time>2026-04-21T12:30:00.933Z</time></trkpt><trkpt lat="44.3947432" lon="9.0034911"><ele>57.0</ele><time>2026-04-21T12:30:01.946Z</time></trkpt><trkpt lat="44.3947153" lon="9.0037013"><ele>57.0</ele><time>2026-04-21T12:30:02.944Z</time></trkpt><trkpt lat="44.3946819" lon="9.0039053"><ele>57.0</ele><time>2026-04-21T12:30:03.942Z</time></trkpt><trkpt lat="44.3946477" lon="9.0041001"><ele>57.0</ele><time>2026-04-21T12:30:04.94Z</time></trkpt><trkpt lat="44.3946066" lon="9.0042969"><ele>54.0</ele><time>2026-04-21T12:30:05.95Z</time></trkpt><trkpt lat="44.394495" lon="9.0046823"><ele>51.0</ele><time>2026-04-21T12:30:07.943Z</time></trkpt><trkpt lat="44.3944241" lon="9.0048672"><ele>48.0</ele><time>2026-04-21T12:30:08.934Z</time></trkpt><trkpt lat="44.3943379" lon="9.0050372"><ele>48.0</ele><time>2026-04-21T12:30:09.953Z</time></trkpt><trkpt lat="44.3942408" lon="9.0052023"><ele>48.0</ele><time>2026-04-21T12:30:10.948Z</time></trkpt><trkpt lat="44.394136" lon="9.005361"><ele>48.0</ele><time>2026-04-21T12:30:11.953Z</time></trkpt><trkpt lat="44.3940339" lon="9.005515"><ele>48.0</ele><time>2026-04-21T12:30:12.956Z</time></trkpt><trkpt lat="44.3939314" lon="9.0056682"><ele>48.0</ele><time>2026-04-21T12:30:13.94Z</time></trkpt><trkpt lat="44.3938264" lon="9.0058199"><ele>48.0</ele><time>2026-04-21T12:30:14.952Z</time></trkpt><trkpt lat="44.3937273" lon="9.0059612"><ele>48.0</ele><time>2026-04-21T12:30:15.936Z</time></trkpt><trkpt lat="44.3936386" lon="9.0060922"><ele>49.599999999999994</ele><time>2026-04-21T12:30:16.944Z</time></trkpt><trkpt lat="44.3935637" lon="9.006205"><ele>51.199999999999996</ele><time>2026-04-21T12:30:17.95Z</time></trkpt><trkpt lat="44.3935046" lon="9.0062977"><ele>52.8</ele><time>2026-04-21T12:30:18.937Z</time></trkpt><trkpt lat="44.3934477" lon="9.0063933"><ele>54.4</ele><time>2026-04-21T12:30:20.953Z</time></trkpt><trkpt lat="44.3934237" lon="9.0065155"><ele>56.0</ele><time>2026-04-21T12:30:24.94Z</time></trkpt><trkpt lat="44.3934332" lon="9.0066168"><ele>58.75</ele><time>2026-04-21T12:30:26.943Z</time></trkpt><trkpt lat="44.3935799" lon="9.0067732"><ele>61.5</ele><time>2026-04-21T12:30:29.938Z</time></trkpt><trkpt lat="44.3936538" lon="9.0068596"><ele>64.25</ele><time>2026-04-21T12:30:30.941Z</time></trkpt><trkpt lat="44.3937322" lon="9.0069825"><ele>67.0</ele><time>2026-04-21T12:30:31.94Z</time></trkpt><trkpt lat="44.3937928" lon="9.0071448"><ele>67.0</ele><time>2026-04-21T12:30:32.944Z</time></trkpt><trkpt lat="44.3938335" lon="9.0073234"><ele>67.0</ele><time>2026-04-21T12:30:33.937Z</time></trkpt><trkpt lat="44.3938491" lon="9.0075066"><ele>67.0</ele><time>2026-04-21T12:30:34.933Z</time></trkpt><trkpt lat="44.3938471" lon="9.0076835"><ele>67.0</ele><time>2026-04-21T12:30:35.938Z</time></trkpt><trkpt lat="44.3938277" lon="9.0078515"><ele>66.25</ele><time>2026-04-21T12:30:36.931Z</time></trkpt><trkpt lat="44.3937891" lon="9.0080188"><ele>65.5</ele><time>2026-04-21T12:30:37.945Z</time></trkpt><trkpt lat="44.3937374" lon="9.0081659"><ele>64.75</ele><time>2026-04-21T12:30:38.936Z</time></trkpt><trkpt lat="44.3936726" lon="9.0082981"><ele>64.0</ele><time>2026-04-21T12:30:39.939Z</time></trkpt><trkpt lat="44.3936082" lon="9.0084198"><ele>64.0</ele><time>2026-04-21T12:30:40.943Z</time></trkpt><trkpt lat="44.3935521" lon="9.0085409"><ele>64.0</ele><time>2026-04-21T12:30:41.935Z</time></trkpt><trkpt lat="44.3935071" lon="9.0086654"><ele>64.0</ele><time>2026-04-21T12:30:42.938Z</time></trkpt><trkpt lat="44.3934736" lon="9.0087883"><ele>64.0</ele><time>2026-04-21T12:30:43.946Z</time></trkpt><trkpt lat="44.3934547" lon="9.0089276"><ele>64.0</ele><time>2026-04-21T12:30:44.94Z</time></trkpt><trkpt lat="44.3934532" lon="9.0090856"><ele>67.0</ele><time>2026-04-21T12:30:45.94Z</time></trkpt><trkpt lat="44.3934763" lon="9.0092499"><ele>70.0</ele><time>2026-04-21T12:30:46.936Z</time></trkpt><trkpt lat="44.3935255" lon="9.0094042"><ele>73.0</ele><time>2026-04-21T12:30:47.937Z</time></trkpt><trkpt lat="44.3936716" lon="9.0097254"><ele>73.0</ele><time>2026-04-21T12:30:49.939Z</time></trkpt><trkpt lat="44.3937565" lon="9.0098812"><ele>73.0</ele><time>2026-04-21T12:30:50.943Z</time></trkpt><trkpt lat="44.39383" lon="9.0100342"><ele>73.0</ele><time>2026-04-21T12:30:51.942Z</time></trkpt><trkpt lat="44.3938986" lon="9.0101816"><ele>73.0</ele><time>2026-04-21T12:30:52.937Z</time></trkpt><trkpt lat="44.3939653" lon="9.0103156"><ele>76.5</ele><time>2026-04-21T12:30:53.944Z</time></trkpt><trkpt lat="44.3940328" lon="9.0104572"><ele>80.0</ele><time>2026-04-21T12:30:54.938Z</time></trkpt><trkpt lat="44.3940997" lon="9.0106014"><ele>83.5</ele><time>2026-04-21T12:30:55.937Z</time></trkpt><trkpt lat="44.3941663" lon="9.010747"><ele>87.0</ele><time>2026-04-21T12:30:56.941Z</time></trkpt><trkpt lat="44.3942352" lon="9.0108936"><ele>87.0</ele><time>2026-04-21T12:30:57.935Z</time></trkpt><trkpt lat="44.3943034" lon="9.0110392"><ele>87.0</ele><time>2026-04-21T12:30:58.942Z</time></trkpt><trkpt lat="44.3943712" lon="9.0111828"><ele>87.0</ele><time>2026-04-21T12:30:59.934Z</time></trkpt><trkpt lat="44.3944464" lon="9.0113245"><ele>87.0</ele><time>2026-04-21T12:31:00.934Z</time></trkpt><trkpt lat="44.3945306" lon="9.0114604"><ele>87.0</ele><time>2026-04-21T12:31:01.933Z</time></trkpt><trkpt lat="44.3946196" lon="9.0115946"><ele>87.0</ele><time>2026-04-21T12:31:02.943Z</time></trkpt><trkpt lat="44.3947095" lon="9.0117154"><ele>87.0</ele><time>2026-04-21T12:31:03.941Z</time></trkpt><trkpt lat="44.3948001" lon="9.0118322"><ele>87.0</ele><time>2026-04-21T12:31:04.931Z</time></trkpt><trkpt lat="44.3948923" lon="9.0119381"><ele>92.25</ele><time>2026-04-21T12:31:05.934Z</time></trkpt><trkpt lat="44.3949868" lon="9.0120381"><ele>97.5</ele><time>2026-04-21T12:31:06.938Z</time></trkpt><trkpt lat="44.3950855" lon="9.0121333"><ele>102.75</ele><time>2026-04-21T12:31:07.937Z</time></trkpt><trkpt lat="44.3951881" lon="9.0122236"><ele>108.0</ele><time>2026-04-21T12:31:08.936Z</time></trkpt><trkpt lat="44.3953911" lon="9.012398"><ele>108.0</ele><time>2026-04-21T12:31:10.94Z</time></trkpt><trkpt lat="44.3954862" lon="9.0124813"><ele>108.0</ele><time>2026-04-21T12:31:11.932Z</time></trkpt><trkpt lat="44.3955838" lon="9.0125709"><ele>108.0</ele><time>2026-04-21T12:31:12.939Z</time></trkpt><trkpt lat="44.3956808" lon="9.0126608"><ele>108.0</ele><time>2026-04-21T12:31:13.936Z</time></trkpt><trkpt lat="44.3957777" lon="9.0127586"><ele>111.75</ele><time>2026-04-21T12:31:14.943Z</time></trkpt><trkpt lat="44.3958789" lon="9.0128516"><ele>115.5</ele><time>2026-04-21T12:31:15.936Z</time></trkpt><trkpt lat="44.3959769" lon="9.0129435"><ele>119.25</ele><time>2026-04-21T12:31:16.941Z</time></trkpt><trkpt lat="44.3960723" lon="9.0130343"><ele>123.0</ele><time>2026-04-21T12:31:17.935Z</time></trkpt><trkpt lat="44.3961666" lon="9.0131234"><ele>123.0</ele><time>2026-04-21T12:31:18.94Z</time></trkpt><trkpt lat="44.3962612" lon="9.0132139"><ele>123.0</ele><time>2026-04-21T12:31:19.938Z</time></trkpt><trkpt lat="44.3963551" lon="9.0133063"><ele>123.0</ele><time>2026-04-21T12:31:20.93Z</time></trkpt><trkpt lat="44.3964486" lon="9.0134024"><ele>123.0</ele><time>2026-04-21T12:31:21.935Z</time></trkpt><trkpt lat="44.3965429" lon="9.0134933"><ele>123.0</ele><time>2026-04-21T12:31:22.942Z</time></trkpt><trkpt lat="44.3966338" lon="9.0135883"><ele>123.0</ele><time>2026-04-21T12:31:23.936Z</time></trkpt><trkpt lat="44.3967221" lon="9.0136947"><ele>123.0</ele><time>2026-04-21T12:31:24.935Z</time></trkpt><trkpt lat="44.3968081" lon="9.0138123"><ele>123.0</ele><time>2026-04-21T12:31:25.942Z</time></trkpt><trkpt lat="44.3968922" lon="9.0139415"><ele>123.0</ele><time>2026-04-21T12:31:26.941Z</time></trkpt><trkpt lat="44.3969711" lon="9.0140772"><ele>123.0</ele><time>2026-04-21T12:31:27.931Z</time></trkpt><trkpt lat="44.3970486" lon="9.0142091"><ele>123.0</ele><time>2026-04-21T12:31:28.939Z</time></trkpt><trkpt lat="44.3971229" lon="9.0143364"><ele>123.0</ele><time>2026-04-21T12:31:29.935Z</time></trkpt><trkpt lat="44.3972684" lon="9.0145756"><ele>123.0</ele><time>2026-04-21T12:31:31.932Z</time></trkpt><trkpt lat="44.3973411" lon="9.014695"><ele>123.0</ele><time>2026-04-21T12:31:32.93Z</time></trkpt><trkpt lat="44.3974155" lon="9.0148159"><ele>123.0</ele><time>2026-04-21T12:31:33.933Z</time></trkpt><trkpt lat="44.3974893" lon="9.0149374"><ele>123.0</ele><time>2026-04-21T12:31:34.935Z</time></trkpt><trkpt lat="44.3975632" lon="9.0150609"><ele>123.0</ele><time>2026-04-21T12:31:35.932Z</time></trkpt><trkpt lat="44.3976383" lon="9.0151822"><ele>123.00000000000001</ele><time>2026-04-21T12:31:36.935Z</time></trkpt><trkpt lat="44.3977169" lon="9.0152864"><ele>123.00000000000001</ele><time>2026-04-21T12:31:37.933Z</time></trkpt><trkpt lat="44.3978076" lon="9.0153516"><ele>123.0</ele><time>2026-04-21T12:31:38.931Z</time></trkpt><trkpt lat="44.3979114" lon="9.0153576"><ele>123.0</ele><time>2026-04-21T12:31:39.933Z</time></trkpt><trkpt lat="44.3980201" lon="9.0153116"><ele>124.5</ele><time>2026-04-21T12:31:40.931Z</time></trkpt><trkpt lat="44.3981009" lon="9.0152231"><ele>126.0</ele><time>2026-04-21T12:31:41.932Z</time></trkpt><trkpt lat="44.398181" lon="9.0150919"><ele>127.5</ele><time>2026-04-21T12:31:42.934Z</time></trkpt><trkpt lat="44.398232" lon="9.014931"><ele>129.0</ele><time>2026-04-21T12:31:43.932Z</time></trkpt><trkpt lat="44.3982186" lon="9.0147697"><ele>128.0</ele><time>2026-04-21T12:31:44.935Z</time></trkpt><trkpt lat="44.3981683" lon="9.0146333"><ele>127.0</ele><time>2026-04-21T12:31:45.937Z</time></trkpt><trkpt lat="44.3981141" lon="9.0145204"><ele>126.0</ele><time>2026-04-21T12:31:46.933Z</time></trkpt><trkpt lat="44.3980506" lon="9.0144312"><ele>125.0</ele><time>2026-04-21T12:31:47.933Z</time></trkpt><trkpt lat="44.3979781" lon="9.0143517"><ele>124.0</ele><time>2026-04-21T12:31:48.932Z</time></trkpt><trkpt lat="44.3979048" lon="9.0142831"><ele>124.0</ele><time>2026-04-21T12:31:49.932Z</time></trkpt><trkpt lat="44.3978286" lon="9.0142175"><ele>124.0</ele><time>2026-04-21T12:31:50.932Z</time></trkpt><trkpt lat="44.3976774" lon="9.0141069"><ele>124.0</ele><time>2026-04-21T12:31:53.94Z</time></trkpt><trkpt lat="44.3976141" lon="9.0140818"><ele>124.0</ele><time>2026-04-21T12:31:56.934Z</time></trkpt><trkpt lat="44.3975297" lon="9.0140184"><ele>124.0</ele><time>2026-04-21T12:32:06.936Z</time></trkpt><trkpt lat="44.3974529" lon="9.013925"><ele>123.75</ele><time>2026-04-21T12:32:08.934Z</time></trkpt><trkpt lat="44.3973782" lon="9.0138961"><ele>123.5</ele><time>2026-04-21T12:32:52.956Z</time></trkpt><trkpt lat="44.3972096" lon="9.0137938"><ele>123.25</ele><time>2026-04-21T12:32:54.935Z</time></trkpt><trkpt lat="44.3970867" lon="9.0136985"><ele>123.0</ele><time>2026-04-21T12:32:55.941Z</time></trkpt><trkpt lat="44.3969488" lon="9.0135738"><ele>123.0</ele><time>2026-04-21T12:32:56.946Z</time></trkpt><trkpt lat="44.396802" lon="9.0134293"><ele>123.0</ele><time>2026-04-21T12:32:57.951Z</time></trkpt><trkpt lat="44.3966532" lon="9.0132683"><ele>123.0</ele><time>2026-04-21T12:32:58.951Z</time></trkpt><trkpt lat="44.3965016" lon="9.0130927"><ele>123.0</ele><time>2026-04-21T12:32:59.945Z</time></trkpt><trkpt lat="44.3963507" lon="9.0129051"><ele>123.0</ele><time>2026-04-21T12:33:00.935Z</time></trkpt><trkpt lat="44.3962072" lon="9.0127155"><ele>123.0</ele><time>2026-04-21T12:33:01.939Z</time></trkpt><trkpt lat="44.3960668" lon="9.0125277"><ele>129.66666666666666</ele><time>2026-04-21T12:33:02.942Z</time></trkpt><trkpt lat="44.3959401" lon="9.0123311"><ele>136.33333333333331</ele><time>2026-04-21T12:33:03.941Z</time></trkpt><trkpt lat="44.3958212" lon="9.0121458"><ele>143.0</ele><time>2026-04-21T12:33:04.959Z</time></trkpt><trkpt lat="44.3957123" lon="9.0119822"><ele>143.0</ele><time>2026-04-21T12:33:05.943Z</time></trkpt><trkpt lat="44.3956126" lon="9.0118382"><ele>143.0</ele><time>2026-04-21T12:33:06.939Z</time></trkpt><trkpt lat="44.3955182" lon="9.0117053"><ele>143.0</ele><time>2026-04-21T12:33:07.941Z</time></trkpt><trkpt lat="44.3954247" lon="9.0115819"><ele>143.0</ele><time>2026-04-21T12:33:08.951Z</time></trkpt><trkpt lat="44.3953378" lon="9.0114675"><ele>138.20000000000002</ele><time>2026-04-21T12:33:09.943Z</time></trkpt><trkpt lat="44.3952633" lon="9.0113558"><ele>133.4</ele><time>2026-04-21T12:33:10.943Z</time></trkpt><trkpt lat="44.3952023" lon="9.0112308"><ele>128.60000000000002</ele><time>2026-04-21T12:33:11.946Z</time></trkpt><trkpt lat="44.3951639" lon="9.0110963"><ele>123.80000000000001</ele><time>2026-04-21T12:33:12.949Z</time></trkpt><trkpt lat="44.3951442" lon="9.0109496"><ele>119.0</ele><time>2026-04-21T12:33:13.95Z</time></trkpt><trkpt lat="44.3950972" lon="9.0106418"><ele>119.0</ele><time>2026-04-21T12:33:15.949Z</time></trkpt><trkpt lat="44.3950909" lon="9.0105031"><ele>119.0</ele><time>2026-04-21T12:33:16.941Z</time></trkpt><trkpt lat="44.3950837" lon="9.0103655"><ele>119.0</ele><time>2026-04-21T12:33:17.935Z</time></trkpt><trkpt lat="44.3950788" lon="9.0102217"><ele>119.0</ele><time>2026-04-21T12:33:18.953Z</time></trkpt><trkpt lat="44.3950749" lon="9.010083"><ele>119.0</ele><time>2026-04-21T12:33:19.942Z</time></trkpt><trkpt lat="44.3950737" lon="9.0099494"><ele>117.66666666666666</ele><time>2026-04-21T12:33:20.943Z</time></trkpt><trkpt lat="44.3950736" lon="9.0098222"><ele>116.33333333333333</ele><time>2026-04-21T12:33:21.952Z</time></trkpt><trkpt lat="44.3950809" lon="9.0096973"><ele>115.0</ele><time>2026-04-21T12:33:22.958Z</time></trkpt><trkpt lat="44.3951018" lon="9.0095769"><ele>113.66666666666666</ele><time>2026-04-21T12:33:23.941Z</time></trkpt><trkpt lat="44.3951487" lon="9.0094739"><ele>112.33333333333333</ele><time>2026-04-21T12:33:24.944Z</time></trkpt><trkpt lat="44.3952118" lon="9.009408"><ele>111.0</ele><time>2026-04-21T12:33:25.943Z</time></trkpt><trkpt lat="44.3952852" lon="9.009377"><ele>111.0</ele><time>2026-04-21T12:33:26.936Z</time></trkpt><trkpt lat="44.3953707" lon="9.009383"><ele>111.0</ele><time>2026-04-21T12:33:27.952Z</time></trkpt><trkpt lat="44.3954527" lon="9.0094214"><ele>111.0</ele><time>2026-04-21T12:33:28.94Z</time></trkpt><trkpt lat="44.395523" lon="9.0094859"><ele>111.0</ele><time>2026-04-21T12:33:29.962Z</time></trkpt><trkpt lat="44.3955691" lon="9.009572"><ele>111.0</ele><time>2026-04-21T12:33:30.95Z</time></trkpt><trkpt lat="44.3955979" lon="9.0096584"><ele>111.0</ele><time>2026-04-21T12:33:31.942Z</time></trkpt><trkpt lat="44.3956056" lon="9.0098184"><ele>112.6</ele><time>2026-04-21T12:33:33.962Z</time></trkpt><trkpt lat="44.3955864" lon="9.0099099"><ele>114.19999999999999</ele><time>2026-04-21T12:33:34.954Z</time></trkpt><trkpt lat="44.3955202" lon="9.010113"><ele>115.80000000000001</ele><time>2026-04-21T12:33:36.945Z</time></trkpt><trkpt lat="44.3954898" lon="9.0102298"><ele>117.4</ele><time>2026-04-21T12:33:37.952Z</time></trkpt><trkpt lat="44.395458" lon="9.0103626"><ele>119.0</ele><time>2026-04-21T12:33:38.944Z</time></trkpt><trkpt lat="44.3954319" lon="9.0105089"><ele>119.0</ele><time>2026-04-21T12:33:39.962Z</time></trkpt><trkpt lat="44.3954279" lon="9.0106797"><ele>119.0</ele><time>2026-04-21T12:33:40.951Z</time></trkpt><trkpt lat="44.3954158" lon="9.0108668"><ele>119.0</ele><time>2026-04-21T12:33:41.949Z</time></trkpt><trkpt lat="44.3954014" lon="9.0111054"><ele>119.0</ele><time>2026-04-21T12:33:42.937Z</time></trkpt><trkpt lat="44.3953837" lon="9.0113756"><ele>115.33333333333333</ele><time>2026-04-21T12:33:43.952Z</time></trkpt><trkpt lat="44.3953579" lon="9.011675"><ele>111.66666666666666</ele><time>2026-04-21T12:33:44.953Z</time></trkpt><trkpt lat="44.3953412" lon="9.0119896"><ele>108.0</ele><time>2026-04-21T12:33:45.942Z</time></trkpt><trkpt lat="44.395322" lon="9.0123164"><ele>100.0</ele><time>2026-04-21T12:33:46.957Z</time></trkpt><trkpt lat="44.3953055" lon="9.0126521"><ele>92.0</ele><time>2026-04-21T12:33:47.952Z</time></trkpt><trkpt lat="44.3952888" lon="9.0129987"><ele>91.5</ele><time>2026-04-21T12:33:48.951Z</time></trkpt><trkpt lat="44.3952723" lon="9.0133418"><ele>91.0</ele><time>2026-04-21T12:33:49.949Z</time></trkpt><trkpt lat="44.3952612" lon="9.0136667"><ele>91.0</ele><time>2026-04-21T12:33:50.941Z</time></trkpt><trkpt lat="44.3952485" lon="9.0140032"><ele>91.0</ele><time>2026-04-21T12:33:51.948Z</time></trkpt><trkpt lat="44.3952383" lon="9.0143496"><ele>107.5</ele><time>2026-04-21T12:33:52.935Z</time></trkpt><trkpt lat="44.3952249" lon="9.0147071"><ele>124.0</ele><time>2026-04-21T12:33:53.943Z</time></trkpt><trkpt lat="44.3952029" lon="9.0150646"><ele>133.5</ele><time>2026-04-21T12:33:54.934Z</time></trkpt><trkpt lat="44.3951782" lon="9.0154145"><ele>143.0</ele><time>2026-04-21T12:33:55.938Z</time></trkpt><trkpt lat="44.3945532" lon="9.0197472"><ele>138.5</ele><time>2026-04-21T12:34:08.932Z</time></trkpt><trkpt lat="44.394504" lon="9.0200805"><ele>134.0</ele><time>2026-04-21T12:34:09.933Z</time></trkpt><trkpt lat="44.3943926" lon="9.0205695"><ele>139.0</ele><time>2026-04-21T12:34:10.933Z</time></trkpt><trkpt lat="44.394332" lon="9.0208962"><ele>144.0</ele><time>2026-04-21T12:34:11.934Z</time></trkpt><trkpt lat="44.3942793" lon="9.0212263"><ele>144.0</ele><time>2026-04-21T12:34:12.933Z</time></trkpt><trkpt lat="44.3942178" lon="9.0215608"><ele>144.0</ele><time>2026-04-21T12:34:13.933Z</time></trkpt><trkpt lat="44.3941551" lon="9.0218857"><ele>143.0</ele><time>2026-04-21T12:34:14.934Z</time></trkpt><trkpt lat="44.3940989" lon="9.0222026"><ele>142.0</ele><time>2026-04-21T12:34:15.932Z</time></trkpt><trkpt lat="44.3921443" lon="9.0338827"><ele>126.0</ele><time>2026-04-21T12:34:49.933Z</time></trkpt><trkpt lat="44.39216" lon="9.0346484"><ele>120.0</ele><time>2026-04-21T12:34:51.942Z</time></trkpt><trkpt lat="44.3921624" lon="9.0350148"><ele>114.0</ele><time>2026-04-21T12:34:52.932Z</time></trkpt><trkpt lat="44.3921731" lon="9.0354037"><ele>133.5</ele><time>2026-04-21T12:34:53.941Z</time></trkpt><trkpt lat="44.392212" lon="9.0357715"><ele>153.0</ele><time>2026-04-21T12:34:54.947Z</time></trkpt><trkpt lat="44.3922275" lon="9.0361232"><ele>165.0</ele><time>2026-04-21T12:34:55.938Z</time></trkpt><trkpt lat="44.3922489" lon="9.0364782"><ele>177.0</ele><time>2026-04-21T12:34:56.939Z</time></trkpt><trkpt lat="44.3921881" lon="9.0379038"><ele>181.33333333333334</ele><time>2026-04-21T12:35:00.947Z</time></trkpt><trkpt lat="44.3922189" lon="9.0381661"><ele>185.66666666666669</ele><time>2026-04-21T12:35:01.948Z</time></trkpt><trkpt lat="44.3922654" lon="9.0384934"><ele>190.0</ele><time>2026-04-21T12:35:02.947Z</time></trkpt><trkpt lat="44.3923186" lon="9.0387871"><ele>173.5</ele><time>2026-04-21T12:35:03.95Z</time></trkpt><trkpt lat="44.3923744" lon="9.039133"><ele>157.0</ele><time>2026-04-21T12:35:04.962Z</time></trkpt><trkpt lat="44.392394" lon="9.0394779"><ele>149.5</ele><time>2026-04-21T12:35:05.944Z</time></trkpt><trkpt lat="44.3924108" lon="9.039824"><ele>142.0</ele><time>2026-04-21T12:35:06.94Z</time></trkpt><trkpt lat="44.3924272" lon="9.0401669"><ele>131.0</ele><time>2026-04-21T12:35:07.961Z</time></trkpt><trkpt lat="44.3924477" lon="9.0405113"><ele>120.0</ele><time>2026-04-21T12:35:08.953Z</time></trkpt><trkpt lat="44.3924667" lon="9.040855"><ele>95.5</ele><time>2026-04-21T12:35:09.961Z</time></trkpt><trkpt lat="44.3924867" lon="9.0412018"><ele>71.0</ele><time>2026-04-21T12:35:10.941Z</time></trkpt><trkpt lat="44.3925233" lon="9.0419057"><ele>68.5</ele><time>2026-04-21T12:35:12.952Z</time></trkpt><trkpt lat="44.3925431" lon="9.0422512"><ele>66.0</ele><time>2026-04-21T12:35:13.951Z</time></trkpt><trkpt lat="44.3925632" lon="9.0426015"><ele>66.0</ele><time>2026-04-21T12:35:14.943Z</time></trkpt><trkpt lat="44.3925819" lon="9.0429578"><ele>66.0</ele><time>2026-04-21T12:35:15.937Z</time></trkpt><trkpt lat="44.392599" lon="9.0433151"><ele>76.5</ele><time>2026-04-21T12:35:16.941Z</time></trkpt><trkpt lat="44.3926148" lon="9.0436715"><ele>87.0</ele><time>2026-04-21T12:35:17.956Z</time></trkpt><trkpt lat="44.3926314" lon="9.0440274"><ele>103.5</ele><time>2026-04-21T12:35:18.934Z</time></trkpt><trkpt lat="44.3926477" lon="9.0443839"><ele>120.0</ele><time>2026-04-21T12:35:19.938Z</time></trkpt><trkpt lat="44.3926653" lon="9.044742"><ele>134.5</ele><time>2026-04-21T12:35:20.952Z</time></trkpt><trkpt lat="44.3926824" lon="9.0450989"><ele>149.0</ele><time>2026-04-21T12:35:21.951Z</time></trkpt><trkpt lat="44.3927011" lon="9.0454558"><ele>151.5</ele><time>2026-04-21T12:35:22.943Z</time></trkpt><trkpt lat="44.3927198" lon="9.0458126"><ele>154.0</ele><time>2026-04-21T12:35:23.95Z</time></trkpt><trkpt lat="44.392736" lon="9.0461666"><ele>154.0</ele><time>2026-04-21T12:35:24.957Z</time></trkpt><trkpt lat="44.392745" lon="9.0465182"><ele>154.0</ele><time>2026-04-21T12:35:25.957Z</time></trkpt><trkpt lat="44.3927423" lon="9.0468659"><ele>159.0</ele><time>2026-04-21T12:35:26.951Z</time></trkpt><trkpt lat="44.3927296" lon="9.0472102"><ele>164.0</ele><time>2026-04-21T12:35:27.944Z</time></trkpt><trkpt lat="44.3927123" lon="9.0475484"><ele>157.0</ele><time>2026-04-21T12:35:28.941Z</time></trkpt><trkpt lat="44.392692" lon="9.0478862"><ele>150.0</ele><time>2026-04-21T12:35:29.947Z</time></trkpt><trkpt lat="44.388592" lon="9.0682895"><ele>150.0</ele><time>2026-04-21T12:36:26.946Z</time></trkpt><trkpt lat="44.3886232" lon="9.0689819"><ele>141.5</ele><time>2026-04-21T12:36:28.947Z</time></trkpt><trkpt lat="44.3886406" lon="9.0693095"><ele>133.0</ele><time>2026-04-21T12:36:29.954Z</time></trkpt><trkpt lat="44.3886911" lon="9.0696347"><ele>135.5</ele><time>2026-04-21T12:36:30.944Z</time></trkpt><trkpt lat="44.3887172" lon="9.0699693"><ele>138.0</ele><time>2026-04-21T12:36:31.949Z</time></trkpt><trkpt lat="44.3887411" lon="9.0703065"><ele>138.0</ele><time>2026-04-21T12:36:32.95Z</time></trkpt><trkpt lat="44.388754" lon="9.0706416"><ele>138.0</ele><time>2026-04-21T12:36:33.944Z</time></trkpt><trkpt lat="44.3887672" lon="9.0709906"><ele>154.5</ele><time>2026-04-21T12:36:34.956Z</time></trkpt><trkpt lat="44.3887821" lon="9.0713302"><ele>171.0</ele><time>2026-04-21T12:36:35.945Z</time></trkpt><trkpt lat="44.3887943" lon="9.0716731"><ele>184.0</ele><time>2026-04-21T12:36:36.945Z</time></trkpt><trkpt lat="44.3891246" lon="9.0782339"><ele>161.0</ele><time>2026-04-21T12:36:55.936Z</time></trkpt><trkpt lat="44.3891733" lon="9.0789409"><ele>157.5</ele><time>2026-04-21T12:36:57.942Z</time></trkpt><trkpt lat="44.3891331" lon="9.0792139"><ele>154.0</ele><time>2026-04-21T12:36:58.956Z</time></trkpt><trkpt lat="44.3891349" lon="9.0795776"><ele>154.0</ele><time>2026-04-21T12:36:59.954Z</time></trkpt><trkpt lat="44.3891386" lon="9.079931"><ele>154.0</ele><time>2026-04-21T12:37:00.943Z</time></trkpt><trkpt lat="44.3891501" lon="9.0802814"><ele>150.0</ele><time>2026-04-21T12:37:01.952Z</time></trkpt><trkpt lat="44.3891987" lon="9.0806216"><ele>146.0</ele><time>2026-04-21T12:37:02.953Z</time></trkpt><trkpt lat="44.3892307" lon="9.0809639"><ele>143.0</ele><time>2026-04-21T12:37:03.957Z</time></trkpt><trkpt lat="44.389255" lon="9.0813071"><ele>140.0</ele><time>2026-04-21T12:37:04.948Z</time></trkpt><trkpt lat="44.3892759" lon="9.0816507"><ele>140.0</ele><time>2026-04-21T12:37:05.942Z</time></trkpt><trkpt lat="44.3892931" lon="9.0820009"><ele>140.0</ele><time>2026-04-21T12:37:06.951Z</time></trkpt><trkpt lat="44.3893061" lon="9.0823525"><ele>153.5</ele><time>2026-04-21T12:37:07.943Z</time></trkpt><trkpt lat="44.3893077" lon="9.0826898"><ele>167.0</ele><time>2026-04-21T12:37:08.938Z</time></trkpt><trkpt lat="44.3893054" lon="9.0830273"><ele>178.0</ele><time>2026-04-21T12:37:09.949Z</time></trkpt><trkpt lat="44.3892994" lon="9.0833645"><ele>189.0</ele><time>2026-04-21T12:37:10.943Z</time></trkpt><trkpt lat="44.3854777" lon="9.0995169"><ele>166.0</ele><time>2026-04-21T12:37:59.935Z</time></trkpt><trkpt lat="44.385181" lon="9.1000347"><ele>166.0</ele><time>2026-04-21T12:38:01.943Z</time></trkpt><trkpt lat="44.3850145" lon="9.1002739"><ele>166.0</ele><time>2026-04-21T12:38:02.933Z</time></trkpt><trkpt lat="44.3848426" lon="9.1005206"><ele>169.0</ele><time>2026-04-21T12:38:03.953Z</time></trkpt><trkpt lat="44.3846816" lon="9.1007653"><ele>172.0</ele><time>2026-04-21T12:38:04.95Z</time></trkpt><trkpt lat="44.3845272" lon="9.1010095"><ele>172.0</ele><time>2026-04-21T12:38:05.953Z</time></trkpt><trkpt lat="44.3843663" lon="9.1012557"><ele>172.0</ele><time>2026-04-21T12:38:06.936Z</time></trkpt><trkpt lat="44.3842113" lon="9.101503"><ele>155.5</ele><time>2026-04-21T12:38:07.937Z</time></trkpt><trkpt lat="44.3840519" lon="9.1017446"><ele>139.0</ele><time>2026-04-21T12:38:08.957Z</time></trkpt><trkpt lat="44.3838891" lon="9.1019802"><ele>147.5</ele><time>2026-04-21T12:38:09.948Z</time></trkpt><trkpt lat="44.3837212" lon="9.1022109"><ele>156.0</ele><time>2026-04-21T12:38:10.956Z</time></trkpt><trkpt lat="44.3835453" lon="9.1024333"><ele>156.0</ele><time>2026-04-21T12:38:11.94Z</time></trkpt><trkpt lat="44.3833551" lon="9.1026491"><ele>156.0</ele><time>2026-04-21T12:38:12.943Z</time></trkpt><trkpt lat="44.383155" lon="9.1028517"><ele>164.5</ele><time>2026-04-21T12:38:13.934Z</time></trkpt><trkpt lat="44.3829471" lon="9.1030437"><ele>173.0</ele><time>2026-04-21T12:38:14.951Z</time></trkpt><trkpt lat="44.3827345" lon="9.1032283"><ele>160.5</ele><time>2026-04-21T12:38:15.952Z</time></trkpt><trkpt lat="44.3825171" lon="9.1034084"><ele>148.0</ele><time>2026-04-21T12:38:16.953Z</time></trkpt><trkpt lat="44.3823056" lon="9.1035856"><ele>156.5</ele><time>2026-04-21T12:38:17.953Z</time></trkpt><trkpt lat="44.3820836" lon="9.1037564"><ele>165.0</ele><time>2026-04-21T12:38:18.941Z</time></trkpt><trkpt lat="44.381863" lon="9.1039299"><ele>167.0</ele><time>2026-04-21T12:38:19.94Z</time></trkpt><trkpt lat="44.38165" lon="9.104112"><ele>169.0</ele><time>2026-04-21T12:38:20.954Z</time></trkpt><trkpt lat="44.3812533" lon="9.1045347"><ele>169.0</ele><time>2026-04-21T12:38:22.959Z</time></trkpt><trkpt lat="44.3810704" lon="9.1047856"><ele>169.0</ele><time>2026-04-21T12:38:23.951Z</time></trkpt><trkpt lat="44.3809011" lon="9.1050655"><ele>155.5</ele><time>2026-04-21T12:38:24.95Z</time></trkpt><trkpt lat="44.3807429" lon="9.1053745"><ele>142.0</ele><time>2026-04-21T12:38:25.951Z</time></trkpt><trkpt lat="44.3805965" lon="9.1057114"><ele>133.5</ele><time>2026-04-21T12:38:26.944Z</time></trkpt><trkpt lat="44.3804652" lon="9.1060587"><ele>125.0</ele><time>2026-04-21T12:38:27.953Z</time></trkpt><trkpt lat="44.3803558" lon="9.1064154"><ele>113.5</ele><time>2026-04-21T12:38:28.941Z</time></trkpt><trkpt lat="44.3802685" lon="9.1067837"><ele>102.0</ele><time>2026-04-21T12:38:29.957Z</time></trkpt><trkpt lat="44.3801957" lon="9.1071559"><ele>86.5</ele><time>2026-04-21T12:38:30.947Z</time></trkpt><trkpt lat="44.3801408" lon="9.1075301"><ele>71.0</ele><time>2026-04-21T12:38:31.956Z</time></trkpt><trkpt lat="44.3801028" lon="9.1079096"><ele>57.0</ele><time>2026-04-21T12:38:32.945Z</time></trkpt><trkpt lat="44.3800918" lon="9.108284"><ele>43.0</ele><time>2026-04-21T12:38:33.943Z</time></trkpt><trkpt lat="44.3800602" lon="9.1086548"><ele>43.0</ele><time>2026-04-21T12:38:34.943Z</time></trkpt><trkpt lat="44.3800263" lon="9.1090234"><ele>43.0</ele><time>2026-04-21T12:38:35.959Z</time></trkpt><trkpt lat="44.3799883" lon="9.1093869"><ele>40.0</ele><time>2026-04-21T12:38:36.946Z</time></trkpt><trkpt lat="44.3799514" lon="9.1097452"><ele>37.0</ele><time>2026-04-21T12:38:37.953Z</time></trkpt><trkpt lat="44.3799207" lon="9.1101023"><ele>49.0</ele><time>2026-04-21T12:38:38.96Z</time></trkpt><trkpt lat="44.3798933" lon="9.1104563"><ele>61.0</ele><time>2026-04-21T12:38:39.953Z</time></trkpt><trkpt lat="44.379877" lon="9.1108091"><ele>78.5</ele><time>2026-04-21T12:38:40.961Z</time></trkpt><trkpt lat="44.3798511" lon="9.1111609"><ele>96.0</ele><time>2026-04-21T12:38:41.937Z</time></trkpt><trkpt lat="44.3798092" lon="9.1118306"><ele>110.0</ele><time>2026-04-21T12:38:43.952Z</time></trkpt><trkpt lat="44.3797799" lon="9.1121461"><ele>124.0</ele><time>2026-04-21T12:38:44.955Z</time></trkpt><trkpt lat="44.3797529" lon="9.1124625"><ele>124.0</ele><time>2026-04-21T12:38:45.96Z</time></trkpt><trkpt lat="44.3797313" lon="9.1127897"><ele>124.0</ele><time>2026-04-21T12:38:46.943Z</time></trkpt><trkpt lat="44.3797065" lon="9.1131198"><ele>141.5</ele><time>2026-04-21T12:38:47.942Z</time></trkpt><trkpt lat="44.3796829" lon="9.113455"><ele>159.0</ele><time>2026-04-21T12:38:48.953Z</time></trkpt><trkpt lat="44.3796582" lon="9.113795"><ele>160.5</ele><time>2026-04-21T12:38:49.94Z</time></trkpt><trkpt lat="44.3796312" lon="9.1141313"><ele>162.0</ele><time>2026-04-21T12:38:50.957Z</time></trkpt><trkpt lat="44.3796049" lon="9.114468"><ele>162.0</ele><time>2026-04-21T12:38:51.95Z</time></trkpt><trkpt lat="44.379578" lon="9.1148068"><ele>162.0</ele><time>2026-04-21T12:38:52.944Z</time></trkpt><trkpt lat="44.3795464" lon="9.1151435"><ele>161.5</ele><time>2026-04-21T12:38:53.94Z</time></trkpt><trkpt lat="44.379514" lon="9.1154766"><ele>161.0</ele><time>2026-04-21T12:38:54.95Z</time></trkpt><trkpt lat="44.379483" lon="9.1158069"><ele>161.0</ele><time>2026-04-21T12:38:55.941Z</time></trkpt><trkpt lat="44.3794483" lon="9.1161354"><ele>161.0</ele><time>2026-04-21T12:38:56.934Z</time></trkpt><trkpt lat="44.3794091" lon="9.1164604"><ele>161.0</ele><time>2026-04-21T12:38:57.934Z</time></trkpt><trkpt lat="44.379368" lon="9.1167846"><ele>161.0</ele><time>2026-04-21T12:38:58.949Z</time></trkpt><trkpt lat="44.3793195" lon="9.1171053"><ele>162.5</ele><time>2026-04-21T12:38:59.941Z</time></trkpt><trkpt lat="44.3792716" lon="9.1174186"><ele>164.0</ele><time>2026-04-21T12:39:00.943Z</time></trkpt><trkpt lat="44.3792239" lon="9.117728"><ele>164.0</ele><time>2026-04-21T12:39:01.934Z</time></trkpt><trkpt lat="44.3791741" lon="9.1180303"><ele>164.0</ele><time>2026-04-21T12:39:02.935Z</time></trkpt><trkpt lat="44.3790836" lon="9.1187089"><ele>181.0</ele><time>2026-04-21T12:39:04.931Z</time></trkpt><trkpt lat="44.3790744" lon="9.1193298"><ele>198.0</ele><time>2026-04-21T12:39:05.937Z</time></trkpt><trkpt lat="44.3790383" lon="9.1197302"><ele>213.0</ele><time>2026-04-21T12:39:06.932Z</time></trkpt><trkpt lat="44.3790012" lon="9.1201317"><ele>228.0</ele><time>2026-04-21T12:39:07.936Z</time></trkpt><trkpt lat="44.3789638" lon="9.1205416"><ele>245.5</ele><time>2026-04-21T12:39:08.919Z</time></trkpt><trkpt lat="44.3789274" lon="9.1209495"><ele>263.0</ele><time>2026-04-21T12:39:09.926Z</time></trkpt><trkpt lat="44.3788918" lon="9.1213693"><ele>269.0</ele><time>2026-04-21T12:39:10.927Z</time></trkpt><trkpt lat="44.3788563" lon="9.1218104"><ele>275.0</ele><time>2026-04-21T12:39:11.923Z</time></trkpt><trkpt lat="44.378821" lon="9.1222682"><ele>297.0</ele><time>2026-04-21T12:39:12.923Z</time></trkpt><trkpt lat="44.3787887" lon="9.1227463"><ele>319.0</ele><time>2026-04-21T12:39:13.922Z</time></trkpt><trkpt lat="44.3787565" lon="9.1232482"><ele>138.0</ele><time>2026-04-21T12:39:14.927Z</time></trkpt><trkpt lat="44.3771041" lon="9.1424431"><ele>138.0</ele><time>2026-04-21T12:40:21.939Z</time></trkpt><trkpt lat="44.3771004" lon="9.1429273"><ele>138.0</ele><time>2026-04-21T12:40:23.937Z</time></trkpt><trkpt lat="44.3770624" lon="9.1431614"><ele>133.0</ele><time>2026-04-21T12:40:24.938Z</time></trkpt><trkpt lat="44.3770209" lon="9.1433791"><ele>128.0</ele><time>2026-04-21T12:40:25.944Z</time></trkpt><trkpt lat="44.3769564" lon="9.1435938"><ele>123.0</ele><time>2026-04-21T12:40:26.955Z</time></trkpt><trkpt lat="44.3768821" lon="9.1438041"><ele>123.0</ele><time>2026-04-21T12:40:27.937Z</time></trkpt><trkpt lat="44.3768393" lon="9.1440086"><ele>123.0</ele><time>2026-04-21T12:40:28.937Z</time></trkpt><trkpt lat="44.3768319" lon="9.1441992"><ele>123.0</ele><time>2026-04-21T12:40:29.953Z</time></trkpt><trkpt lat="44.3768655" lon="9.1443698"><ele>123.0</ele><time>2026-04-21T12:40:30.943Z</time></trkpt><trkpt lat="44.3769233" lon="9.1445127"><ele>122.0</ele><time>2026-04-21T12:40:31.962Z</time></trkpt><trkpt lat="44.3770047" lon="9.1446099"><ele>121.00000000000001</ele><time>2026-04-21T12:40:32.954Z</time></trkpt><trkpt lat="44.3770942" lon="9.1446867"><ele>120.00000000000001</ele><time>2026-04-21T12:40:33.941Z</time></trkpt><trkpt lat="44.3771911" lon="9.1447469"><ele>119.0</ele><time>2026-04-21T12:40:34.948Z</time></trkpt><trkpt lat="44.3772964" lon="9.144816"><ele>118.0</ele><time>2026-04-21T12:40:35.944Z</time></trkpt><trkpt lat="44.377413" lon="9.1448739"><ele>113.5</ele><time>2026-04-21T12:40:36.957Z</time></trkpt><trkpt lat="44.3775313" lon="9.1449331"><ele>109.0</ele><time>2026-04-21T12:40:37.947Z</time></trkpt><trkpt lat="44.3776513" lon="9.1450089"><ele>104.5</ele><time>2026-04-21T12:40:38.947Z</time></trkpt><trkpt lat="44.3777469" lon="9.1451157"><ele>100.0</ele><time>2026-04-21T12:40:39.936Z</time></trkpt><trkpt lat="44.3778101" lon="9.1452752"><ele>100.0</ele><time>2026-04-21T12:40:40.949Z</time></trkpt><trkpt lat="44.3778569" lon="9.1454523"><ele>100.0</ele><time>2026-04-21T12:40:41.949Z</time></trkpt><trkpt lat="44.3778795" lon="9.1456741"><ele>100.0</ele><time>2026-04-21T12:40:42.951Z</time></trkpt><trkpt lat="44.377839" lon="9.1460428"><ele>98.0</ele><time>2026-04-21T12:40:44.935Z</time></trkpt><trkpt lat="44.3778075" lon="9.1462111"><ele>96.0</ele><time>2026-04-21T12:40:45.943Z</time></trkpt><trkpt lat="44.3777876" lon="9.1463876"><ele>94.0</ele><time>2026-04-21T12:40:46.942Z</time></trkpt><trkpt lat="44.377763" lon="9.1465835"><ele>92.0</ele><time>2026-04-21T12:40:47.942Z</time></trkpt><trkpt lat="44.3777357" lon="9.1467574"><ele>91.0</ele><time>2026-04-21T12:40:48.938Z</time></trkpt><trkpt lat="44.3776977" lon="9.1469335"><ele>90.0</ele><time>2026-04-21T12:40:49.942Z</time></trkpt><trkpt lat="44.3776504" lon="9.1470933"><ele>89.0</ele><time>2026-04-21T12:40:50.949Z</time></trkpt><trkpt lat="44.3775991" lon="9.1472666"><ele>88.0</ele><time>2026-04-21T12:40:51.949Z</time></trkpt><trkpt lat="44.3775481" lon="9.1474466"><ele>90.75</ele><time>2026-04-21T12:40:52.947Z</time></trkpt><trkpt lat="44.3774934" lon="9.147629"><ele>93.5</ele><time>2026-04-21T12:40:53.939Z</time></trkpt><trkpt lat="44.3774416" lon="9.1478067"><ele>96.25</ele><time>2026-04-21T12:40:54.945Z</time></trkpt><trkpt lat="44.3773859" lon="9.1479854"><ele>99.0</ele><time>2026-04-21T12:40:55.95Z</time></trkpt><trkpt lat="44.3773277" lon="9.148162"><ele>101.75</ele><time>2026-04-21T12:40:56.943Z</time></trkpt><trkpt lat="44.3772669" lon="9.1483486"><ele>104.5</ele><time>2026-04-21T12:40:57.953Z</time></trkpt><trkpt lat="44.3772201" lon="9.1485277"><ele>107.25</ele><time>2026-04-21T12:40:58.941Z</time></trkpt><trkpt lat="44.37718" lon="9.1487221"><ele>110.0</ele><time>2026-04-21T12:40:59.942Z</time></trkpt><trkpt lat="44.3771646" lon="9.1489201"><ele>112.0</ele><time>2026-04-21T12:41:00.949Z</time></trkpt><trkpt lat="44.3771746" lon="9.1491121"><ele>114.0</ele><time>2026-04-21T12:41:01.955Z</time></trkpt><trkpt lat="44.3771897" lon="9.1492854"><ele>116.0</ele><time>2026-04-21T12:41:02.959Z</time></trkpt><trkpt lat="44.3772053" lon="9.1494362"><ele>118.0</ele><time>2026-04-21T12:41:03.943Z</time></trkpt><trkpt lat="44.3772017" lon="9.1496664"><ele>109.33333333333334</ele><time>2026-04-21T12:41:05.947Z</time></trkpt><trkpt lat="44.3771221" lon="9.1497829"><ele>100.66666666666667</ele><time>2026-04-21T12:41:07.956Z</time></trkpt><trkpt lat="44.3770502" lon="9.1498059"><ele>92.0</ele><time>2026-04-21T12:41:08.941Z</time></trkpt><trkpt lat="44.3769751" lon="9.1498068"><ele>83.33333333333334</ele><time>2026-04-21T12:41:09.95Z</time></trkpt><trkpt lat="44.3769043" lon="9.1497481"><ele>74.66666666666667</ele><time>2026-04-21T12:41:10.95Z</time></trkpt><trkpt lat="44.3768437" lon="9.1496509"><ele>66.0</ele><time>2026-04-21T12:41:11.941Z</time></trkpt><trkpt lat="44.3768085" lon="9.1495443"><ele>66.0</ele><time>2026-04-21T12:41:12.963Z</time></trkpt><trkpt lat="44.3768063" lon="9.1494476"><ele>66.0</ele><time>2026-04-21T12:41:13.942Z</time></trkpt><trkpt lat="44.3768381" lon="9.1493594"><ele>66.0</ele><time>2026-04-21T12:41:14.951Z</time></trkpt><trkpt lat="44.3768724" lon="9.1492625"><ele>66.0</ele><time>2026-04-21T12:41:15.956Z</time></trkpt><trkpt lat="44.3769025" lon="9.1491576"><ele>66.0</ele><time>2026-04-21T12:41:16.956Z</time></trkpt><trkpt lat="44.3769403" lon="9.149027"><ele>66.0</ele><time>2026-04-21T12:41:17.957Z</time></trkpt><trkpt lat="44.376975" lon="9.1488755"><ele>66.25</ele><time>2026-04-21T12:41:18.948Z</time></trkpt><trkpt lat="44.3770136" lon="9.1487046"><ele>66.5</ele><time>2026-04-21T12:41:19.951Z</time></trkpt><trkpt lat="44.3770584" lon="9.1485058"><ele>66.75</ele><time>2026-04-21T12:41:20.948Z</time></trkpt><trkpt lat="44.3771043" lon="9.1483053"><ele>67.0</ele><time>2026-04-21T12:41:21.942Z</time></trkpt><trkpt lat="44.3771477" lon="9.1481018"><ele>67.0</ele><time>2026-04-21T12:41:22.938Z</time></trkpt><trkpt lat="44.3771814" lon="9.1479273"><ele>67.0</ele><time>2026-04-21T12:41:23.95Z</time></trkpt><trkpt lat="44.3772157" lon="9.1477693"><ele>67.0</ele><time>2026-04-21T12:41:24.948Z</time></trkpt><trkpt lat="44.3772846" lon="9.1474487"><ele>72.25</ele><time>2026-04-21T12:41:26.955Z</time></trkpt><trkpt lat="44.3773168" lon="9.1472721"><ele>77.5</ele><time>2026-04-21T12:41:27.943Z</time></trkpt><trkpt lat="44.3773437" lon="9.1470954"><ele>82.75</ele><time>2026-04-21T12:41:28.95Z</time></trkpt><trkpt lat="44.3773657" lon="9.1469228"><ele>88.0</ele><time>2026-04-21T12:41:29.951Z</time></trkpt><trkpt lat="44.3773826" lon="9.1467547"><ele>88.0</ele><time>2026-04-21T12:41:30.937Z</time></trkpt><trkpt lat="44.3773982" lon="9.146588"><ele>88.0</ele><time>2026-04-21T12:41:31.956Z</time></trkpt><trkpt lat="44.3774087" lon="9.146431"><ele>88.0</ele><time>2026-04-21T12:41:32.938Z</time></trkpt><trkpt lat="44.3773884" lon="9.1462945"><ele>88.0</ele><time>2026-04-21T12:41:33.941Z</time></trkpt><trkpt lat="44.3773435" lon="9.1461818"><ele>88.0</ele><time>2026-04-21T12:41:34.955Z</time></trkpt><trkpt lat="44.3772832" lon="9.1460971"><ele>87.80000000000001</ele><time>2026-04-21T12:41:35.949Z</time></trkpt><trkpt lat="44.377223" lon="9.1460264"><ele>87.6</ele><time>2026-04-21T12:41:36.954Z</time></trkpt><trkpt lat="44.3771434" lon="9.1459974"><ele>87.4</ele><time>2026-04-21T12:41:38.949Z</time></trkpt><trkpt lat="44.3770503" lon="9.146051"><ele>87.19999999999999</ele><time>2026-04-21T12:41:40.934Z</time></trkpt><trkpt lat="44.3769812" lon="9.1461404"><ele>87.0</ele><time>2026-04-21T12:41:42.939Z</time></trkpt><trkpt lat="44.3768327" lon="9.1463337"><ele>87.0</ele><time>2026-04-21T12:41:43.958Z</time></trkpt><trkpt lat="44.3767936" lon="9.1464059"><ele>87.0</ele><time>2026-04-21T12:41:44.943Z</time></trkpt><trkpt lat="44.3767236" lon="9.1465024"><ele>87.0</ele><time>2026-04-21T12:41:46.943Z</time></trkpt><trkpt lat="44.3766246" lon="9.1466496"><ele>87.0</ele><time>2026-04-21T12:42:34.942Z</time></trkpt><trkpt lat="44.3762732" lon="9.147023"><ele>84.0</ele><time>2026-04-21T12:44:50.938Z</time></trkpt><trkpt lat="44.3761668" lon="9.1471655"><ele>81.0</ele><time>2026-04-21T12:44:51.944Z</time></trkpt><trkpt lat="44.3760276" lon="9.1473328"><ele>78.0</ele><time>2026-04-21T12:44:52.948Z</time></trkpt><trkpt lat="44.3758899" lon="9.1475275"><ele>78.0</ele><time>2026-04-21T12:44:53.942Z</time></trkpt><trkpt lat="44.3757697" lon="9.1477399"><ele>78.0</ele><time>2026-04-21T12:44:54.954Z</time></trkpt><trkpt lat="44.3756615" lon="9.1479515"><ele>78.0</ele><time>2026-04-21T12:44:55.941Z</time></trkpt><trkpt lat="44.3755527" lon="9.1481641"><ele>82.33333333333333</ele><time>2026-04-21T12:44:56.942Z</time></trkpt><trkpt lat="44.37546" lon="9.1483663"><ele>86.66666666666666</ele><time>2026-04-21T12:44:57.934Z</time></trkpt><trkpt lat="44.3753849" lon="9.1485709"><ele>91.0</ele><time>2026-04-21T12:44:58.947Z</time></trkpt><trkpt lat="44.3753315" lon="9.1487682"><ele>91.0</ele><time>2026-04-21T12:44:59.959Z</time></trkpt><trkpt lat="44.3752887" lon="9.1489773"><ele>91.0</ele><time>2026-04-21T12:45:00.959Z</time></trkpt><trkpt lat="44.3752395" lon="9.1491873"><ele>91.0</ele><time>2026-04-21T12:45:01.942Z</time></trkpt><trkpt lat="44.3751845" lon="9.1493815"><ele>84.75</ele><time>2026-04-21T12:45:02.942Z</time></trkpt><trkpt lat="44.3751142" lon="9.1495461"><ele>78.5</ele><time>2026-04-21T12:45:03.945Z</time></trkpt><trkpt lat="44.3750187" lon="9.1496742"><ele>72.25</ele><time>2026-04-21T12:45:04.942Z</time></trkpt><trkpt lat="44.3749229" lon="9.1497386"><ele>66.0</ele><time>2026-04-21T12:45:05.954Z</time></trkpt><trkpt lat="44.3748237" lon="9.1497344"><ele>66.0</ele><time>2026-04-21T12:45:06.946Z</time></trkpt><trkpt lat="44.3747461" lon="9.1496925"><ele>66.0</ele><time>2026-04-21T12:45:07.942Z</time></trkpt><trkpt lat="44.3746979" lon="9.1496357"><ele>66.0</ele><time>2026-04-21T12:45:08.952Z</time></trkpt><trkpt lat="44.3745222" lon="9.1494246"><ele>66.0</ele><time>2026-04-21T12:45:11.958Z</time></trkpt><trkpt lat="44.3743642" lon="9.1493355"><ele>62.5</ele><time>2026-04-21T12:45:12.944Z</time></trkpt><trkpt lat="44.3742404" lon="9.1493185"><ele>59.0</ele><time>2026-04-21T12:45:13.954Z</time></trkpt><trkpt lat="44.3740924" lon="9.1493151"><ele>55.5</ele><time>2026-04-21T12:45:14.961Z</time></trkpt><trkpt lat="44.3739551" lon="9.1493255"><ele>52.0</ele><time>2026-04-21T12:45:15.953Z</time></trkpt><trkpt lat="44.3737894" lon="9.1493381"><ele>48.0</ele><time>2026-04-21T12:45:16.96Z</time></trkpt><trkpt lat="44.3736647" lon="9.149353"><ele>44.0</ele><time>2026-04-21T12:45:17.947Z</time></trkpt><trkpt lat="44.3735028" lon="9.1493637"><ele>40.0</ele><time>2026-04-21T12:45:18.949Z</time></trkpt><trkpt lat="44.3733141" lon="9.1493751"><ele>40.0</ele><time>2026-04-21T12:45:19.956Z</time></trkpt><trkpt lat="44.3730609" lon="9.1493822"><ele>40.0</ele><time>2026-04-21T12:45:20.936Z</time></trkpt><trkpt lat="44.3728588" lon="9.1493651"><ele>39.0</ele><time>2026-04-21T12:45:21.952Z</time></trkpt><trkpt lat="44.3726086" lon="9.1493524"><ele>38.0</ele><time>2026-04-21T12:45:22.951Z</time></trkpt><trkpt lat="44.3723576" lon="9.1493264"><ele>33.5</ele><time>2026-04-21T12:45:23.956Z</time></trkpt><trkpt lat="44.3720293" lon="9.1492882"><ele>29.0</ele><time>2026-04-21T12:45:24.948Z</time></trkpt><trkpt lat="44.3717557" lon="9.1492062"><ele>29.0</ele><time>2026-04-21T12:45:25.955Z</time></trkpt><trkpt lat="44.371594" lon="9.1490793"><ele>29.0</ele><time>2026-04-21T12:45:26.941Z</time></trkpt><trkpt lat="44.371398" lon="9.1489112"><ele>29.0</ele><time>2026-04-21T12:45:27.962Z</time></trkpt><trkpt lat="44.371167" lon="9.148714"><ele>29.5</ele><time>2026-04-21T12:45:28.95Z</time></trkpt><trkpt lat="44.3709472" lon="9.1484967"><ele>30.0</ele><time>2026-04-21T12:45:29.939Z</time></trkpt><trkpt lat="44.370503" lon="9.1480182"><ele>29.0</ele><time>2026-04-21T12:45:31.961Z</time></trkpt><trkpt lat="44.3703954" lon="9.1477729"><ele>28.0</ele><time>2026-04-21T12:45:32.956Z</time></trkpt><trkpt lat="44.3701965" lon="9.1469827"><ele>28.0</ele><time>2026-04-21T12:45:33.952Z</time></trkpt><trkpt lat="44.370136" lon="9.1467254"><ele>28.0</ele><time>2026-04-21T12:45:34.94Z</time></trkpt><trkpt lat="44.3700467" lon="9.1465119"><ele>28.0</ele><time>2026-04-21T12:45:35.954Z</time></trkpt><trkpt lat="44.3699189" lon="9.1463655"><ele>35.0</ele><time>2026-04-21T12:45:36.962Z</time></trkpt><trkpt lat="44.3697581" lon="9.1462933"><ele>42.0</ele><time>2026-04-21T12:45:37.952Z</time></trkpt><trkpt lat="44.3695979" lon="9.146273"><ele>49.0</ele><time>2026-04-21T12:45:38.939Z</time></trkpt><trkpt lat="44.369438" lon="9.1463173"><ele>50.666666666666664</ele><time>2026-04-21T12:45:39.954Z</time></trkpt><trkpt lat="44.369277" lon="9.1464568"><ele>52.33333333333333</ele><time>2026-04-21T12:45:40.948Z</time></trkpt><trkpt lat="44.3691073" lon="9.1466306"><ele>54.0</ele><time>2026-04-21T12:45:41.951Z</time></trkpt><trkpt lat="44.3689538" lon="9.1467578"><ele>43.5</ele><time>2026-04-21T12:45:42.941Z</time></trkpt><trkpt lat="44.3688086" lon="9.1468796"><ele>33.0</ele><time>2026-04-21T12:45:43.958Z</time></trkpt><trkpt lat="44.3686818" lon="9.1469758"><ele>22.5</ele><time>2026-04-21T12:45:44.953Z</time></trkpt><trkpt lat="44.3685743" lon="9.1470745"><ele>12.0</ele><time>2026-04-21T12:45:45.949Z</time></trkpt><trkpt lat="44.368495" lon="9.1471399"><ele>12.0</ele><time>2026-04-21T12:45:46.941Z</time></trkpt><trkpt lat="44.3684379" lon="9.1472019"><ele>12.0</ele><time>2026-04-21T12:45:47.942Z</time></trkpt><trkpt lat="44.3683687" lon="9.1472766"><ele>12.0</ele><time>2026-04-21T12:45:49.948Z</time></trkpt><trkpt lat="44.3682932" lon="9.1473548"><ele>12.0</ele><time>2026-04-21T12:45:51.942Z</time></trkpt><trkpt lat="44.3681479" lon="9.1474694"><ele>12.0</ele><time>2026-04-21T12:45:56.95Z</time></trkpt><trkpt lat="44.3680835" lon="9.1475091"><ele>11.25</ele><time>2026-04-21T12:46:13.957Z</time></trkpt><trkpt lat="44.3679668" lon="9.1473664"><ele>10.5</ele><time>2026-04-21T12:46:16.951Z</time></trkpt><trkpt lat="44.3679079" lon="9.1472406"><ele>9.75</ele><time>2026-04-21T12:46:17.943Z</time></trkpt><trkpt lat="44.3678462" lon="9.1471172"><ele>9.0</ele><time>2026-04-21T12:46:18.945Z</time></trkpt><trkpt lat="44.367777" lon="9.1469946"><ele>9.0</ele><time>2026-04-21T12:46:19.943Z</time></trkpt><trkpt lat="44.3676994" lon="9.1468892"><ele>9.0</ele><time>2026-04-21T12:46:20.938Z</time></trkpt><trkpt lat="44.3676259" lon="9.1467976"><ele>9.0</ele><time>2026-04-21T12:46:21.946Z</time></trkpt><trkpt lat="44.3675522" lon="9.1467294"><ele>9.0</ele><time>2026-04-21T12:46:22.942Z</time></trkpt><trkpt lat="44.367479" lon="9.1466843"><ele>9.0</ele><time>2026-04-21T12:46:23.936Z</time></trkpt><trkpt lat="44.3674088" lon="9.1466433"><ele>9.0</ele><time>2026-04-21T12:46:24.944Z</time></trkpt><trkpt lat="44.367334" lon="9.1465997"><ele>9.0</ele><time>2026-04-21T12:46:25.938Z</time></trkpt><trkpt lat="44.3672542" lon="9.146558"><ele>9.0</ele><time>2026-04-21T12:46:26.935Z</time></trkpt><trkpt lat="44.3671747" lon="9.146531"><ele>9.0</ele><time>2026-04-21T12:46:27.934Z</time></trkpt><trkpt lat="44.3671033" lon="9.1465158"><ele>9.0</ele><time>2026-04-21T12:46:28.934Z</time></trkpt><trkpt lat="44.3670252" lon="9.1465136"><ele>9.0</ele><time>2026-04-21T12:46:30.938Z</time></trkpt><trkpt lat="44.3669587" lon="9.1465564"><ele>8.6</ele><time>2026-04-21T12:46:35.937Z</time></trkpt><trkpt lat="44.3668071" lon="9.1465666"><ele>8.2</ele><time>2026-04-21T12:46:40.934Z</time></trkpt><trkpt lat="44.3667373" lon="9.1465643"><ele>7.799999999999999</ele><time>2026-04-21T12:46:42.942Z</time></trkpt><trkpt lat="44.3666632" lon="9.1465683"><ele>7.3999999999999995</ele><time>2026-04-21T12:46:44.938Z</time></trkpt><trkpt lat="44.3665568" lon="9.14658"><ele>7.0</ele><time>2026-04-21T12:46:46.943Z</time></trkpt><trkpt lat="44.3664942" lon="9.1465907"><ele>7.0</ele><time>2026-04-21T12:46:47.941Z</time></trkpt><trkpt lat="44.3664273" lon="9.1465959"><ele>7.0</ele><time>2026-04-21T12:46:48.934Z</time></trkpt><trkpt lat="44.3663609" lon="9.1466017"><ele>7.0</ele><time>2026-04-21T12:46:49.937Z</time></trkpt><trkpt lat="44.366295" lon="9.1466148"><ele>7.0</ele><time>2026-04-21T12:46:50.938Z</time></trkpt><trkpt lat="44.3662297" lon="9.1466291"><ele>7.0</ele><time>2026-04-21T12:46:51.938Z</time></trkpt><trkpt lat="44.3661623" lon="9.146642"><ele>7.0</ele><time>2026-04-21T12:46:52.941Z</time></trkpt><trkpt lat="44.3660936" lon="9.1466547"><ele>7.0</ele><time>2026-04-21T12:46:53.94Z</time></trkpt><trkpt lat="44.3660203" lon="9.1466668"><ele>7.0</ele><time>2026-04-21T12:46:54.937Z</time></trkpt><trkpt lat="44.3659442" lon="9.1466779"><ele>6.999999999999999</ele><time>2026-04-21T12:46:55.941Z</time></trkpt><trkpt lat="44.365867" lon="9.146692"><ele>6.999999999999999</ele><time>2026-04-21T12:46:56.942Z</time></trkpt><trkpt lat="44.3657095" lon="9.1467214"><ele>7.0</ele><time>2026-04-21T12:46:58.943Z</time></trkpt><trkpt lat="44.3656273" lon="9.1467329"><ele>7.0</ele><time>2026-04-21T12:46:59.94Z</time></trkpt><trkpt lat="44.3655425" lon="9.146748"><ele>7.166666666666667</ele><time>2026-04-21T12:47:00.935Z</time></trkpt><trkpt lat="44.3654602" lon="9.1467602"><ele>7.333333333333334</ele><time>2026-04-21T12:47:01.939Z</time></trkpt><trkpt lat="44.3653808" lon="9.1467705"><ele>7.5</ele><time>2026-04-21T12:47:02.939Z</time></trkpt><trkpt lat="44.3653047" lon="9.1467775"><ele>7.666666666666666</ele><time>2026-04-21T12:47:03.941Z</time></trkpt><trkpt lat="44.3652335" lon="9.1467852"><ele>7.833333333333333</ele><time>2026-04-21T12:47:04.938Z</time></trkpt><trkpt lat="44.3651708" lon="9.146794"><ele>8.0</ele><time>2026-04-21T12:47:05.938Z</time></trkpt><trkpt lat="44.365071" lon="9.1468184"><ele>8.0</ele><time>2026-04-21T12:47:07.939Z</time></trkpt><trkpt lat="44.3649834" lon="9.1468298"><ele>8.0</ele><time>2026-04-21T12:47:09.934Z</time></trkpt><trkpt lat="44.3649199" lon="9.1468284"><ele>8.0</ele><time>2026-04-21T12:47:11.934Z</time></trkpt><trkpt lat="44.3648537" lon="9.1468116"><ele>8.0</ele><time>2026-04-21T12:47:19.94Z</time></trkpt><trkpt lat="44.364702" lon="9.1467338"><ele>8.0</ele><time>2026-04-21T12:47:23.942Z</time></trkpt><trkpt lat="44.3646032" lon="9.1466637"><ele>7.833333333333333</ele><time>2026-04-21T12:47:25.946Z</time></trkpt><trkpt lat="44.3645437" lon="9.1466063"><ele>7.666666666666666</ele><time>2026-04-21T12:47:26.941Z</time></trkpt><trkpt lat="44.3644761" lon="9.1465441"><ele>7.5</ele><time>2026-04-21T12:47:27.943Z</time></trkpt><trkpt lat="44.3644097" lon="9.1464743"><ele>7.333333333333334</ele><time>2026-04-21T12:47:28.945Z</time></trkpt><trkpt lat="44.3643467" lon="9.1463966"><ele>7.166666666666667</ele><time>2026-04-21T12:47:29.939Z</time></trkpt><trkpt lat="44.3642886" lon="9.1463228"><ele>7.0</ele><time>2026-04-21T12:47:30.94Z</time></trkpt><trkpt lat="44.3642379" lon="9.1462559"><ele>7.0</ele><time>2026-04-21T12:47:31.938Z</time></trkpt><trkpt lat="44.3641896" lon="9.146189"><ele>7.0</ele><time>2026-04-21T12:47:32.939Z</time></trkpt><trkpt lat="44.3641422" lon="9.1461157"><ele>7.0</ele><time>2026-04-21T12:47:33.937Z</time></trkpt><trkpt lat="44.3640928" lon="9.1460337"><ele>7.0</ele><time>2026-04-21T12:47:34.937Z</time></trkpt><trkpt lat="44.3640429" lon="9.1459529"><ele>7.0</ele><time>2026-04-21T12:47:35.939Z</time></trkpt><trkpt lat="44.3639937" lon="9.1458771"><ele>7.0</ele><time>2026-04-21T12:47:36.935Z</time></trkpt><trkpt lat="44.3639441" lon="9.1458041"><ele>7.0</ele><time>2026-04-21T12:47:37.938Z</time></trkpt><trkpt lat="44.3638962" lon="9.1457323"><ele>7.25</ele><time>2026-04-21T12:47:38.936Z</time></trkpt><trkpt lat="44.3638498" lon="9.1456663"><ele>7.5</ele><time>2026-04-21T12:47:39.937Z</time></trkpt><trkpt lat="44.3637648" lon="9.1455553"><ele>7.75</ele><time>2026-04-21T12:47:41.942Z</time></trkpt><trkpt lat="44.363621" lon="9.1453504"><ele>8.0</ele><time>2026-04-21T12:47:44.94Z</time></trkpt><trkpt lat="44.3635657" lon="9.1452695"><ele>8.0</ele><time>2026-04-21T12:47:45.937Z</time></trkpt><trkpt lat="44.3635134" lon="9.1451896"><ele>7.999999999999999</ele><time>2026-04-21T12:47:46.937Z</time></trkpt><trkpt lat="44.3634629" lon="9.1451157"><ele>8.0</ele><time>2026-04-21T12:47:47.939Z</time></trkpt><trkpt lat="44.3634132" lon="9.145052"><ele>8.0</ele><time>2026-04-21T12:47:48.939Z</time></trkpt><trkpt lat="44.3633599" lon="9.1449956"><ele>7.999999999999999</ele><time>2026-04-21T12:47:49.942Z</time></trkpt><trkpt lat="44.3633021" lon="9.1449476"><ele>8.0</ele><time>2026-04-21T12:47:50.938Z</time></trkpt><trkpt lat="44.3632407" lon="9.1449083"><ele>8.0</ele><time>2026-04-21T12:47:51.938Z</time></trkpt><trkpt lat="44.3631786" lon="9.1448704"><ele>7.833333333333333</ele><time>2026-04-21T12:47:52.938Z</time></trkpt><trkpt lat="44.3631166" lon="9.144838"><ele>7.666666666666666</ele><time>2026-04-21T12:47:53.936Z</time></trkpt><trkpt lat="44.3630546" lon="9.1448071"><ele>7.5</ele><time>2026-04-21T12:47:54.944Z</time></trkpt><trkpt lat="44.3629955" lon="9.1447739"><ele>7.333333333333334</ele><time>2026-04-21T12:47:55.941Z</time></trkpt><trkpt lat="44.3628811" lon="9.1447143"><ele>7.166666666666667</ele><time>2026-04-21T12:47:57.935Z</time></trkpt><trkpt lat="44.3627836" lon="9.1446859"><ele>7.0</ele><time>2026-04-21T12:47:59.938Z</time></trkpt><trkpt lat="44.3627102" lon="9.1446614"><ele>7.5</ele><time>2026-04-21T12:48:01.933Z</time></trkpt><trkpt lat="44.3626534" lon="9.1445917"><ele>8.0</ele><time>2026-04-21T12:48:03.942Z</time></trkpt><trkpt lat="44.3624677" lon="9.1444482"><ele>8.5</ele><time>2026-04-21T12:48:07.941Z</time></trkpt><trkpt lat="44.3623714" lon="9.1444709"><ele>9.0</ele><time>2026-04-21T12:48:09.933Z</time></trkpt><trkpt lat="44.3623822" lon="9.1445647"><ele>9.0</ele><time>2026-04-21T12:48:11.941Z</time></trkpt><trkpt lat="44.3624463" lon="9.1446031"><ele>9.0</ele><time>2026-04-21T12:48:13.938Z</time></trkpt><trkpt lat="44.3625172" lon="9.1445777"><ele>9.0</ele><time>2026-04-21T12:48:14.936Z</time></trkpt><trkpt lat="44.3625766" lon="9.1444904"><ele>9.0</ele><time>2026-04-21T12:48:15.936Z</time></trkpt><trkpt lat="44.3626326" lon="9.1443874"><ele>9.0</ele><time>2026-04-21T12:48:16.939Z</time></trkpt><trkpt lat="44.3626967" lon="9.1442522"><ele>9.0</ele><time>2026-04-21T12:48:17.937Z</time></trkpt><trkpt lat="44.3627467" lon="9.1441368"><ele>9.285714285714286</ele><time>2026-04-21T12:48:18.94Z</time></trkpt><trkpt lat="44.3627886" lon="9.1440435"><ele>9.571428571428571</ele><time>2026-04-21T12:48:19.939Z</time></trkpt><trkpt lat="44.3628261" lon="9.1439404"><ele>9.857142857142858</ele><time>2026-04-21T12:48:20.934Z</time></trkpt><trkpt lat="44.3628589" lon="9.1438476"><ele>10.142857142857142</ele><time>2026-04-21T12:48:21.945Z</time></trkpt><trkpt lat="44.3628891" lon="9.1437618"><ele>10.428571428571429</ele><time>2026-04-21T12:48:22.939Z</time></trkpt><trkpt lat="44.3629065" lon="9.1436739"><ele>10.714285714285715</ele><time>2026-04-21T12:48:23.939Z</time></trkpt><trkpt lat="44.3629118" lon="9.1435806"><ele>11.0</ele><time>2026-04-21T12:48:24.934Z</time></trkpt><trkpt lat="44.3628957" lon="9.1433342"><ele>11.0</ele><time>2026-04-21T12:48:27.941Z</time></trkpt><trkpt lat="44.3628669" lon="9.1432025"><ele>11.0</ele><time>2026-04-21T12:48:29.944Z</time></trkpt><trkpt lat="44.3628144" lon="9.1431393"><ele>11.0</ele><time>2026-04-21T12:48:31.941Z</time></trkpt><trkpt lat="44.3627492" lon="9.1431862"><ele>11.0</ele><time>2026-04-21T12:48:33.937Z</time></trkpt><trkpt lat="44.3627192" lon="9.1432946"><ele>11.0</ele><time>2026-04-21T12:48:35.946Z</time></trkpt><trkpt lat="44.3626955" lon="9.1433878"><ele>11.0</ele><time>2026-04-21T12:48:41.936Z</time></trkpt><trkpt lat="44.3626609" lon="9.1435006"><ele>11.0</ele><time>2026-04-21T12:48:43.942Z</time></trkpt><trkpt lat="44.3626106" lon="9.1436525"><ele>11.0</ele><time>2026-04-21T12:48:45.938Z</time></trkpt><trkpt lat="44.3625616" lon="9.1438335"><ele>11.0</ele><time>2026-04-21T12:48:47.94Z</time></trkpt><trkpt lat="44.3625369" lon="9.1439265"><ele>11.0</ele><time>2026-04-21T12:48:48.941Z</time></trkpt><trkpt lat="44.3625093" lon="9.1440158"><ele>11.0</ele><time>2026-04-21T12:48:49.938Z</time></trkpt><trkpt lat="44.3624793" lon="9.1441617"><ele>10.600000000000001</ele><time>2026-04-21T12:48:51.945Z</time></trkpt><trkpt lat="44.3624243" lon="9.1442773"><ele>10.200000000000001</ele><time>2026-04-21T12:50:25.938Z</time></trkpt><trkpt lat="44.3624187" lon="9.1445096"><ele>9.8</ele><time>2026-04-21T12:50:30.938Z</time></trkpt><trkpt lat="44.3625004" lon="9.1444894"><ele>9.4</ele><time>2026-04-21T12:50:32.941Z</time></trkpt><trkpt lat="44.3625426" lon="9.1443861"><ele>9.0</ele><time>2026-04-21T12:50:34.938Z</time></trkpt><trkpt lat="44.3624756" lon="9.1443206"><ele>9.0</ele><time>2026-04-21T12:50:36.941Z</time></trkpt><trkpt lat="44.3623492" lon="9.1442742"><ele>9.0</ele><time>2026-04-21T12:50:38.937Z</time></trkpt><trkpt lat="44.3622684" lon="9.1442652"><ele>9.0</ele><time>2026-04-21T12:50:39.942Z</time></trkpt><trkpt lat="44.3621939" lon="9.1442598"><ele>9.0</ele><time>2026-04-21T12:50:40.942Z</time></trkpt><trkpt lat="44.3621275" lon="9.1442739"><ele>9.0</ele><time>2026-04-21T12:50:41.938Z</time></trkpt><trkpt lat="44.3620187" lon="9.1442658"><ele>9.0</ele><time>2026-04-21T12:50:43.938Z</time></trkpt><trkpt lat="44.3619218" lon="9.1441893"><ele>9.0</ele><time>2026-04-21T12:50:45.941Z</time></trkpt><trkpt lat="44.3618199" lon="9.1441204"><ele>9.0</ele><time>2026-04-21T12:50:47.934Z</time></trkpt><trkpt lat="44.3616006" lon="9.143993"><ele>9.0</ele><time>2026-04-21T12:50:51.943Z</time></trkpt><trkpt lat="44.3615183" lon="9.1439289"><ele>9.0</ele><time>2026-04-21T12:50:53.941Z</time></trkpt><trkpt lat="44.3614621" lon="9.1438881"><ele>9.0</ele><time>2026-04-21T12:50:56.934Z</time></trkpt><trkpt lat="44.3613893" lon="9.1438165"><ele>9.0</ele><time>2026-04-21T12:50:59.937Z</time></trkpt><trkpt lat="44.3613075" lon="9.143674"><ele>9.0</ele><time>2026-04-21T12:51:01.937Z</time></trkpt><trkpt lat="44.3612605" lon="9.1435871"><ele>9.6</ele><time>2026-04-21T12:51:02.948Z</time></trkpt><trkpt lat="44.3612099" lon="9.1435096"><ele>10.2</ele><time>2026-04-21T12:51:03.938Z</time></trkpt><trkpt lat="44.3611634" lon="9.1434471"><ele>10.799999999999999</ele><time>2026-04-21T12:51:04.935Z</time></trkpt><trkpt lat="44.361065" lon="9.1433811"><ele>11.4</ele><time>2026-04-21T12:51:06.941Z</time></trkpt><trkpt lat="44.3609615" lon="9.143342"><ele>12.0</ele><time>2026-04-21T12:51:08.938Z</time></trkpt><trkpt lat="44.3608073" lon="9.1432184"><ele>9.799999999999999</ele><time>2026-04-21T12:51:12.941Z</time></trkpt><trkpt lat="44.3607676" lon="9.1431268"><ele>7.6</ele><time>2026-04-21T12:51:14.938Z</time></trkpt><trkpt lat="44.3608168" lon="9.1431988"><ele>5.4</ele><time>2026-04-21T12:51:24.934Z</time></trkpt><trkpt lat="44.3608832" lon="9.1432077"><ele>3.2</ele><time>2026-04-21T12:51:30.936Z</time></trkpt><trkpt lat="44.3609903" lon="9.1429626"><ele>1.0</ele><time>2026-04-21T12:53:07.943Z</time></trkpt><trkpt lat="44.3610106" lon="9.1428514"><ele>0.9999999999999999</ele><time>2026-04-21T12:53:11.942Z</time></trkpt><trkpt lat="44.3610403" lon="9.1427714"><ele>1.0</ele><time>2026-04-21T12:53:15.941Z</time></trkpt><trkpt lat="44.3611065" lon="9.1427617"><ele>1.0</ele><time>2026-04-21T12:53:21.939Z</time></trkpt><trkpt lat="44.3612032" lon="9.1426237"><ele>1.0</ele><time>2026-04-21T12:53:31.931Z</time></trkpt><trkpt lat="44.3612607" lon="9.1425661"><ele>0.9999999999999999</ele><time>2026-04-21T12:53:36.941Z</time></trkpt><trkpt lat="44.361291" lon="9.1424768"><ele>1.0</ele><time>2026-04-21T12:53:42.942Z</time></trkpt><trkpt lat="44.3613563" lon="9.1423005"><ele>1.0</ele><time>2026-04-21T12:53:53.941Z</time></trkpt><trkpt lat="44.3614357" lon="9.1422928"><ele>0.9999999999999999</ele><time>2026-04-21T12:53:59.936Z</time></trkpt><trkpt lat="44.3615003" lon="9.1422648"><ele>1.0</ele><time>2026-04-21T12:54:04.934Z</time></trkpt><trkpt lat="44.3614493" lon="9.1422813"><ele>1.0</ele><time>2026-04-21T12:56:16.924Z</time></trkpt><trkpt lat="44.3613531" lon="9.1423031"><ele>0.9999999999999999</ele><time>2026-04-21T12:56:17.926Z</time></trkpt><trkpt lat="44.3612975" lon="9.1423713"><ele>1.0</ele><time>2026-04-21T12:56:24.93Z</time></trkpt><trkpt lat="44.3612989" lon="9.1424666"><ele>1.0</ele><time>2026-04-21T12:56:27.936Z</time></trkpt><trkpt lat="44.361252" lon="9.1425284"><ele>1.0</ele><time>2026-04-21T12:56:30.942Z</time></trkpt><trkpt lat="44.3612133" lon="9.1426222"><ele>1.0</ele><time>2026-04-21T12:56:39.945Z</time></trkpt><trkpt lat="44.3611881" lon="9.1428067"><ele>1.0</ele><time>2026-04-21T12:56:47.944Z</time></trkpt><trkpt lat="44.3611566" lon="9.1428854"><ele>1.0</ele><time>2026-04-21T12:56:51.94Z</time></trkpt><trkpt lat="44.3611039" lon="9.1429535"><ele>1.0</ele><time>2026-04-21T12:56:59.942Z</time></trkpt><trkpt lat="44.3610312" lon="9.1429546"><ele>1.0</ele><time>2026-04-21T12:57:04.947Z</time></trkpt></trkseg><trkseg><trkpt lat="44.3609755" lon="9.1432194"><ele>12.0</ele><time>2026-04-21T13:30:50.305Z</time></trkpt><trkpt lat="44.3610858" lon="9.1432611"><ele>12.0</ele><time>2026-04-21T13:30:52.304Z</time></trkpt><trkpt lat="44.3611514" lon="9.1432896"><ele>12.0</ele><time>2026-04-21T13:30:53.302Z</time></trkpt><trkpt lat="44.3612475" lon="9.1433802"><ele>12.0</ele><time>2026-04-21T13:30:55.309Z</time></trkpt><trkpt lat="44.3612932" lon="9.1434661"><ele>12.0</ele><time>2026-04-21T13:30:57.311Z</time></trkpt><trkpt lat="44.3612879" lon="9.1435654"><ele>12.0</ele><time>2026-04-21T13:31:01.308Z</time></trkpt><trkpt lat="44.3612817" lon="9.143671"><ele>11.5</ele><time>2026-04-21T13:31:04.31Z</time></trkpt><trkpt lat="44.3613787" lon="9.1437299"><ele>11.0</ele><time>2026-04-21T13:31:07.311Z</time></trkpt><trkpt lat="44.3614394" lon="9.1437581"><ele>10.5</ele><time>2026-04-21T13:31:08.309Z</time></trkpt><trkpt lat="44.3614996" lon="9.1438014"><ele>10.0</ele><time>2026-04-21T13:31:09.298Z</time></trkpt><trkpt lat="44.3615669" lon="9.1438408"><ele>9.5</ele><time>2026-04-21T13:31:10.308Z</time></trkpt><trkpt lat="44.3616256" lon="9.1438775"><ele>9.0</ele><time>2026-04-21T13:31:11.322Z</time></trkpt><trkpt lat="44.361707" lon="9.1439297"><ele>9.0</ele><time>2026-04-21T13:31:13.312Z</time></trkpt><trkpt lat="44.3617813" lon="9.1439765"><ele>9.0</ele><time>2026-04-21T13:31:16.311Z</time></trkpt><trkpt lat="44.3618542" lon="9.1440055"><ele>9.0</ele><time>2026-04-21T13:31:21.311Z</time></trkpt><trkpt lat="44.3619233" lon="9.1440405"><ele>9.0</ele><time>2026-04-21T13:31:23.31Z</time></trkpt><trkpt lat="44.3619992" lon="9.1440743"><ele>9.0</ele><time>2026-04-21T13:31:25.31Z</time></trkpt><trkpt lat="44.3620523" lon="9.1441285"><ele>9.0</ele><time>2026-04-21T13:31:28.301Z</time></trkpt><trkpt lat="44.3621173" lon="9.1441853"><ele>9.000000000000002</ele><time>2026-04-21T13:31:32.31Z</time></trkpt><trkpt lat="44.3621742" lon="9.1442291"><ele>9.0</ele><time>2026-04-21T13:31:36.309Z</time></trkpt><trkpt lat="44.3622404" lon="9.144258"><ele>9.0</ele><time>2026-04-21T13:31:44.312Z</time></trkpt><trkpt lat="44.3623111" lon="9.1442898"><ele>9.0</ele><time>2026-04-21T13:31:49.307Z</time></trkpt><trkpt lat="44.3623711" lon="9.1443274"><ele>9.0</ele><time>2026-04-21T13:31:53.31Z</time></trkpt><trkpt lat="44.3624196" lon="9.1444039"><ele>9.000000000000002</ele><time>2026-04-21T13:32:02.309Z</time></trkpt><trkpt lat="44.3624834" lon="9.1444575"><ele>9.0</ele><time>2026-04-21T13:32:04.31Z</time></trkpt><trkpt lat="44.3625754" lon="9.1444924"><ele>9.0</ele><time>2026-04-21T13:32:06.311Z</time></trkpt><trkpt lat="44.3626458" lon="9.1445523"><ele>9.0</ele><time>2026-04-21T13:32:08.3Z</time></trkpt><trkpt lat="44.3627141" lon="9.1446178"><ele>9.0</ele><time>2026-04-21T13:32:10.311Z</time></trkpt><trkpt lat="44.3627988" lon="9.1446858"><ele>9.0</ele><time>2026-04-21T13:32:12.302Z</time></trkpt><trkpt lat="44.3629061" lon="9.1447536"><ele>9.0</ele><time>2026-04-21T13:32:14.304Z</time></trkpt><trkpt lat="44.3630203" lon="9.144809"><ele>8.8</ele><time>2026-04-21T13:32:16.304Z</time></trkpt><trkpt lat="44.3631394" lon="9.1448933"><ele>8.600000000000001</ele><time>2026-04-21T13:32:18.309Z</time></trkpt><trkpt lat="44.3632072" lon="9.1449468"><ele>8.4</ele><time>2026-04-21T13:32:19.311Z</time></trkpt><trkpt lat="44.3632805" lon="9.1450021"><ele>8.200000000000001</ele><time>2026-04-21T13:32:20.311Z</time></trkpt><trkpt lat="44.3633551" lon="9.1450613"><ele>8.0</ele><time>2026-04-21T13:32:21.301Z</time></trkpt><trkpt lat="44.363422" lon="9.1451332"><ele>7.999999999999999</ele><time>2026-04-21T13:32:22.311Z</time></trkpt><trkpt lat="44.3634767" lon="9.1452091"><ele>8.0</ele><time>2026-04-21T13:32:23.316Z</time></trkpt><trkpt lat="44.3635333" lon="9.145306"><ele>8.0</ele><time>2026-04-21T13:32:25.306Z</time></trkpt><trkpt lat="44.3635809" lon="9.1453745"><ele>8.0</ele><time>2026-04-21T13:32:29.302Z</time></trkpt><trkpt lat="44.3636883" lon="9.1454965"><ele>7.999999999999999</ele><time>2026-04-21T13:32:31.304Z</time></trkpt><trkpt lat="44.363741" lon="9.1455708"><ele>8.0</ele><time>2026-04-21T13:32:32.304Z</time></trkpt><trkpt lat="44.3637859" lon="9.145638"><ele>7.833333333333333</ele><time>2026-04-21T13:32:33.305Z</time></trkpt><trkpt lat="44.3638482" lon="9.1457262"><ele>7.666666666666666</ele><time>2026-04-21T13:32:35.304Z</time></trkpt><trkpt lat="44.3639051" lon="9.1458122"><ele>7.5</ele><time>2026-04-21T13:32:38.307Z</time></trkpt><trkpt lat="44.3639586" lon="9.1459103"><ele>7.333333333333334</ele><time>2026-04-21T13:32:41.302Z</time></trkpt><trkpt lat="44.3640096" lon="9.1459892"><ele>7.166666666666667</ele><time>2026-04-21T13:32:44.298Z</time></trkpt><trkpt lat="44.3640705" lon="9.1461075"><ele>7.0</ele><time>2026-04-21T13:32:59.304Z</time></trkpt><trkpt lat="44.3641356" lon="9.1462328"><ele>7.0</ele><time>2026-04-21T13:33:01.302Z</time></trkpt><trkpt lat="44.3642055" lon="9.1463591"><ele>7.0</ele><time>2026-04-21T13:33:03.299Z</time></trkpt><trkpt lat="44.3642811" lon="9.1464703"><ele>7.0</ele><time>2026-04-21T13:33:05.3Z</time></trkpt><trkpt lat="44.3643707" lon="9.1465666"><ele>7.0</ele><time>2026-04-21T13:33:07.307Z</time></trkpt><trkpt lat="44.3644729" lon="9.1466578"><ele>7.166666666666667</ele><time>2026-04-21T13:33:09.298Z</time></trkpt><trkpt lat="44.3645283" lon="9.146701"><ele>7.333333333333334</ele><time>2026-04-21T13:33:10.307Z</time></trkpt><trkpt lat="44.3645837" lon="9.146743"><ele>7.5</ele><time>2026-04-21T13:33:11.296Z</time></trkpt><trkpt lat="44.3646839" lon="9.1467837"><ele>7.666666666666666</ele><time>2026-04-21T13:33:13.302Z</time></trkpt><trkpt lat="44.3647636" lon="9.1468088"><ele>7.833333333333333</ele><time>2026-04-21T13:33:16.299Z</time></trkpt><trkpt lat="44.3648353" lon="9.1468208"><ele>8.0</ele><time>2026-04-21T13:33:20.303Z</time></trkpt><trkpt lat="44.3649275" lon="9.1468365"><ele>7.999999999999999</ele><time>2026-04-21T13:33:31.309Z</time></trkpt><trkpt lat="44.3650281" lon="9.1468402"><ele>8.0</ele><time>2026-04-21T13:33:33.293Z</time></trkpt><trkpt lat="44.3651056" lon="9.1468204"><ele>8.0</ele><time>2026-04-21T13:33:35.302Z</time></trkpt><trkpt lat="44.3651658" lon="9.1467858"><ele>8.0</ele><time>2026-04-21T13:33:42.297Z</time></trkpt><trkpt lat="44.3652443" lon="9.1467745"><ele>7.999999999999999</ele><time>2026-04-21T13:33:45.305Z</time></trkpt><trkpt lat="44.3653368" lon="9.1467684"><ele>8.0</ele><time>2026-04-21T13:33:50.304Z</time></trkpt><trkpt lat="44.3654218" lon="9.1467638"><ele>8.0</ele><time>2026-04-21T13:33:52.305Z</time></trkpt><trkpt lat="44.3655181" lon="9.1467501"><ele>7.999999999999999</ele><time>2026-04-21T13:33:54.298Z</time></trkpt><trkpt lat="44.3655824" lon="9.1467416"><ele>8.0</ele><time>2026-04-21T13:33:56.307Z</time></trkpt><trkpt lat="44.3656581" lon="9.1467402"><ele>8.0</ele><time>2026-04-21T13:33:59.301Z</time></trkpt><trkpt lat="44.3657245" lon="9.1467343"><ele>7.999999999999999</ele><time>2026-04-21T13:34:02.301Z</time></trkpt><trkpt lat="44.3657899" lon="9.1467236"><ele>8.0</ele><time>2026-04-21T13:34:04.296Z</time></trkpt><trkpt lat="44.3658548" lon="9.1467019"><ele>8.0</ele><time>2026-04-21T13:34:06.301Z</time></trkpt><trkpt lat="44.365931" lon="9.1466837"><ele>7.857142857142857</ele><time>2026-04-21T13:34:08.304Z</time></trkpt><trkpt lat="44.3660095" lon="9.1466711"><ele>7.7142857142857135</ele><time>2026-04-21T13:34:11.298Z</time></trkpt><trkpt lat="44.3660751" lon="9.1466606"><ele>7.571428571428571</ele><time>2026-04-21T13:34:14.302Z</time></trkpt><trkpt lat="44.3661377" lon="9.1466363"><ele>7.428571428571429</ele><time>2026-04-21T13:34:22.303Z</time></trkpt><trkpt lat="44.3662077" lon="9.1466243"><ele>7.285714285714286</ele><time>2026-04-21T13:34:25.296Z</time></trkpt><trkpt lat="44.3662984" lon="9.146619"><ele>7.142857142857142</ele><time>2026-04-21T13:34:28.302Z</time></trkpt><trkpt lat="44.3663751" lon="9.146619"><ele>7.0</ele><time>2026-04-21T13:34:30.3Z</time></trkpt><trkpt lat="44.3664582" lon="9.146615"><ele>7.0</ele><time>2026-04-21T13:34:32.299Z</time></trkpt><trkpt lat="44.3665314" lon="9.1466275"><ele>6.999999999999999</ele><time>2026-04-21T13:34:34.298Z</time></trkpt><trkpt lat="44.366613" lon="9.146594"><ele>6.999999999999999</ele><time>2026-04-21T13:36:45.308Z</time></trkpt><trkpt lat="44.3667288" lon="9.1465462"><ele>7.0</ele><time>2026-04-21T13:36:47.307Z</time></trkpt><trkpt lat="44.3668256" lon="9.146537"><ele>7.0</ele><time>2026-04-21T13:36:48.307Z</time></trkpt><trkpt lat="44.3669392" lon="9.1465312"><ele>7.5</ele><time>2026-04-21T13:36:49.303Z</time></trkpt><trkpt lat="44.3670694" lon="9.1465419"><ele>8.0</ele><time>2026-04-21T13:36:50.304Z</time></trkpt><trkpt lat="44.3672035" lon="9.1465801"><ele>8.5</ele><time>2026-04-21T13:36:51.303Z</time></trkpt><trkpt lat="44.3673393" lon="9.1466405"><ele>9.0</ele><time>2026-04-21T13:36:52.304Z</time></trkpt><trkpt lat="44.3674767" lon="9.1467087"><ele>9.0</ele><time>2026-04-21T13:36:53.308Z</time></trkpt><trkpt lat="44.3675998" lon="9.1468025"><ele>9.0</ele><time>2026-04-21T13:36:54.313Z</time></trkpt><trkpt lat="44.3677009" lon="9.1469139"><ele>9.0</ele><time>2026-04-21T13:36:55.313Z</time></trkpt><trkpt lat="44.367786" lon="9.1470383"><ele>9.0</ele><time>2026-04-21T13:36:56.314Z</time></trkpt><trkpt lat="44.3678506" lon="9.1471819"><ele>9.0</ele><time>2026-04-21T13:36:57.301Z</time></trkpt><trkpt lat="44.367894" lon="9.1473047"><ele>9.0</ele><time>2026-04-21T13:36:58.309Z</time></trkpt><trkpt lat="44.3679182" lon="9.147398"><ele>9.0</ele><time>2026-04-21T13:36:59.309Z</time></trkpt><trkpt lat="44.3679416" lon="9.1475051"><ele>9.0</ele><time>2026-04-21T13:37:01.32Z</time></trkpt><trkpt lat="44.3680224" lon="9.1475612"><ele>9.0</ele><time>2026-04-21T13:37:06.321Z</time></trkpt><trkpt lat="44.368112" lon="9.1475558"><ele>9.0</ele><time>2026-04-21T13:37:08.307Z</time></trkpt><trkpt lat="44.3681799" lon="9.1474703"><ele>8.6</ele><time>2026-04-21T13:37:10.323Z</time></trkpt><trkpt lat="44.3682462" lon="9.1473903"><ele>8.2</ele><time>2026-04-21T13:37:12.324Z</time></trkpt><trkpt lat="44.3682831" lon="9.1472992"><ele>7.799999999999999</ele><time>2026-04-21T13:37:14.309Z</time></trkpt><trkpt lat="44.3682108" lon="9.147134"><ele>7.3999999999999995</ele><time>2026-04-21T13:37:16.309Z</time></trkpt><trkpt lat="44.3681509" lon="9.1470269"><ele>7.0</ele><time>2026-04-21T13:37:17.306Z</time></trkpt><trkpt lat="44.3680794" lon="9.1469021"><ele>7.5</ele><time>2026-04-21T13:37:18.309Z</time></trkpt><trkpt lat="44.3680032" lon="9.1467605"><ele>8.0</ele><time>2026-04-21T13:37:19.308Z</time></trkpt><trkpt lat="44.3679275" lon="9.1466157"><ele>8.5</ele><time>2026-04-21T13:37:20.304Z</time></trkpt><trkpt lat="44.3678458" lon="9.1464793"><ele>9.0</ele><time>2026-04-21T13:37:21.306Z</time></trkpt><trkpt lat="44.3677593" lon="9.1463576"><ele>11.25</ele><time>2026-04-21T13:37:22.301Z</time></trkpt><trkpt lat="44.3676693" lon="9.1462511"><ele>13.5</ele><time>2026-04-21T13:37:23.297Z</time></trkpt><trkpt lat="44.3675657" lon="9.1461513"><ele>15.75</ele><time>2026-04-21T13:37:24.302Z</time></trkpt><trkpt lat="44.3674453" lon="9.1460688"><ele>18.0</ele><time>2026-04-21T13:37:25.305Z</time></trkpt><trkpt lat="44.3673195" lon="9.1460044"><ele>18.0</ele><time>2026-04-21T13:37:26.305Z</time></trkpt><trkpt lat="44.3671944" lon="9.1459707"><ele>18.0</ele><time>2026-04-21T13:37:27.305Z</time></trkpt><trkpt lat="44.3670702" lon="9.1459549"><ele>18.0</ele><time>2026-04-21T13:37:28.304Z</time></trkpt><trkpt lat="44.3669454" lon="9.1459641"><ele>18.0</ele><time>2026-04-21T13:37:29.303Z</time></trkpt><trkpt lat="44.3668239" lon="9.1459783"><ele>17.0</ele><time>2026-04-21T13:37:30.305Z</time></trkpt><trkpt lat="44.3667067" lon="9.1459958"><ele>16.0</ele><time>2026-04-21T13:37:31.306Z</time></trkpt><trkpt lat="44.3665903" lon="9.1460042"><ele>15.0</ele><time>2026-04-21T13:37:32.303Z</time></trkpt><trkpt lat="44.3664854" lon="9.1459957"><ele>14.0</ele><time>2026-04-21T13:37:33.306Z</time></trkpt><trkpt lat="44.3663921" lon="9.1459702"><ele>13.0</ele><time>2026-04-21T13:37:34.302Z</time></trkpt><trkpt lat="44.3663007" lon="9.145927"><ele>13.333333333333332</ele><time>2026-04-21T13:37:35.303Z</time></trkpt><trkpt lat="44.3662107" lon="9.1458725"><ele>13.666666666666666</ele><time>2026-04-21T13:37:36.304Z</time></trkpt><trkpt lat="44.3661343" lon="9.1458161"><ele>14.0</ele><time>2026-04-21T13:37:37.303Z</time></trkpt><trkpt lat="44.3660751" lon="9.1457704"><ele>14.333333333333332</ele><time>2026-04-21T13:37:38.306Z</time></trkpt><trkpt lat="44.3659984" lon="9.1457271"><ele>14.666666666666666</ele><time>2026-04-21T13:37:40.305Z</time></trkpt><trkpt lat="44.3659392" lon="9.1456909"><ele>15.0</ele><time>2026-04-21T13:37:42.305Z</time></trkpt><trkpt lat="44.3658522" lon="9.1456399"><ele>15.0</ele><time>2026-04-21T13:37:44.305Z</time></trkpt><trkpt lat="44.3657931" lon="9.1456065"><ele>15.0</ele><time>2026-04-21T13:37:45.304Z</time></trkpt><trkpt lat="44.365687" lon="9.1455429"><ele>15.0</ele><time>2026-04-21T13:37:47.305Z</time></trkpt><trkpt lat="44.3656024" lon="9.1454824"><ele>15.0</ele><time>2026-04-21T13:37:49.303Z</time></trkpt><trkpt lat="44.3655252" lon="9.1454342"><ele>15.0</ele><time>2026-04-21T13:37:51.296Z</time></trkpt><trkpt lat="44.3654539" lon="9.1453943"><ele>15.0</ele><time>2026-04-21T13:37:53.303Z</time></trkpt><trkpt lat="44.3653909" lon="9.1453546"><ele>13.666666666666666</ele><time>2026-04-21T13:37:55.301Z</time></trkpt><trkpt lat="44.365328" lon="9.1453174"><ele>12.333333333333334</ele><time>2026-04-21T13:38:02.308Z</time></trkpt><trkpt lat="44.3652493" lon="9.1452723"><ele>11.0</ele><time>2026-04-21T13:38:09.305Z</time></trkpt><trkpt lat="44.3651724" lon="9.1452337"><ele>9.666666666666668</ele><time>2026-04-21T13:38:14.314Z</time></trkpt><trkpt lat="44.3651023" lon="9.1453094"><ele>8.333333333333334</ele><time>2026-04-21T13:38:18.304Z</time></trkpt><trkpt lat="44.3650647" lon="9.145422"><ele>7.0</ele><time>2026-04-21T13:38:20.307Z</time></trkpt><trkpt lat="44.3650316" lon="9.1455502"><ele>7.000000000000001</ele><time>2026-04-21T13:38:22.306Z</time></trkpt><trkpt lat="44.3649865" lon="9.1456845"><ele>7.0</ele><time>2026-04-21T13:38:24.299Z</time></trkpt><trkpt lat="44.3649517" lon="9.1457712"><ele>7.0</ele><time>2026-04-21T13:38:25.311Z</time></trkpt><trkpt lat="44.364925" lon="9.1458523"><ele>7.0</ele><time>2026-04-21T13:38:26.308Z</time></trkpt><trkpt lat="44.3648809" lon="9.1459177"><ele>7.000000000000001</ele><time>2026-04-21T13:38:29.303Z</time></trkpt><trkpt lat="44.3648352" lon="9.146046"><ele>7.0</ele><time>2026-04-21T13:38:34.304Z</time></trkpt><trkpt lat="44.3647861" lon="9.1461861"><ele>7.000000000000001</ele><time>2026-04-21T13:38:36.306Z</time></trkpt><trkpt lat="44.3647541" lon="9.1462648"><ele>7.0</ele><time>2026-04-21T13:38:37.302Z</time></trkpt><trkpt lat="44.3647179" lon="9.1463501"><ele>7.0</ele><time>2026-04-21T13:38:38.309Z</time></trkpt><trkpt lat="44.3646841" lon="9.1464475"><ele>7.0</ele><time>2026-04-21T13:38:39.309Z</time></trkpt><trkpt lat="44.3646564" lon="9.146543"><ele>7.000000000000001</ele><time>2026-04-21T13:38:40.308Z</time></trkpt><trkpt lat="44.3645906" lon="9.1466615"><ele>7.0</ele><time>2026-04-21T13:38:42.3Z</time></trkpt><trkpt lat="44.364497" lon="9.1466115"><ele>7.000000000000001</ele><time>2026-04-21T13:38:44.303Z</time></trkpt><trkpt lat="44.3644413" lon="9.1465506"><ele>7.0</ele><time>2026-04-21T13:38:45.307Z</time></trkpt><trkpt lat="44.3643874" lon="9.1464775"><ele>7.0</ele><time>2026-04-21T13:38:46.3Z</time></trkpt><trkpt lat="44.3643278" lon="9.146401"><ele>7.0</ele><time>2026-04-21T13:38:47.303Z</time></trkpt><trkpt lat="44.3642644" lon="9.1463181"><ele>7.000000000000001</ele><time>2026-04-21T13:38:48.299Z</time></trkpt><trkpt lat="44.3642031" lon="9.1462294"><ele>7.0</ele><time>2026-04-21T13:38:49.303Z</time></trkpt><trkpt lat="44.3641433" lon="9.1461328"><ele>7.000000000000001</ele><time>2026-04-21T13:38:50.304Z</time></trkpt><trkpt lat="44.364084" lon="9.146034"><ele>7.0</ele><time>2026-04-21T13:38:51.303Z</time></trkpt><trkpt lat="44.3640253" lon="9.1459421"><ele>7.0</ele><time>2026-04-21T13:38:52.308Z</time></trkpt><trkpt lat="44.3639701" lon="9.1458529"><ele>7.0</ele><time>2026-04-21T13:38:53.309Z</time></trkpt><trkpt lat="44.3639194" lon="9.145775"><ele>7.000000000000001</ele><time>2026-04-21T13:38:54.307Z</time></trkpt><trkpt lat="44.3638748" lon="9.1457049"><ele>7.0</ele><time>2026-04-21T13:38:55.309Z</time></trkpt><trkpt lat="44.3637969" lon="9.1455943"><ele>7.166666666666667</ele><time>2026-04-21T13:38:57.305Z</time></trkpt><trkpt lat="44.3637482" lon="9.1455242"><ele>7.333333333333334</ele><time>2026-04-21T13:39:05.309Z</time></trkpt><trkpt lat="44.3636977" lon="9.1454712"><ele>7.5</ele><time>2026-04-21T13:39:08.309Z</time></trkpt><trkpt lat="44.3636334" lon="9.1453741"><ele>7.666666666666666</ele><time>2026-04-21T13:39:13.307Z</time></trkpt><trkpt lat="44.3635823" lon="9.1453066"><ele>7.833333333333333</ele><time>2026-04-21T13:39:14.297Z</time></trkpt><trkpt lat="44.3635166" lon="9.1452184"><ele>8.0</ele><time>2026-04-21T13:39:15.305Z</time></trkpt><trkpt lat="44.3634436" lon="9.1451203"><ele>7.999999999999999</ele><time>2026-04-21T13:39:16.307Z</time></trkpt><trkpt lat="44.3633728" lon="9.1450297"><ele>8.0</ele><time>2026-04-21T13:39:17.308Z</time></trkpt><trkpt lat="44.3633084" lon="9.1449649"><ele>8.0</ele><time>2026-04-21T13:39:18.309Z</time></trkpt><trkpt lat="44.3632192" lon="9.1449025"><ele>8.0</ele><time>2026-04-21T13:39:20.305Z</time></trkpt><trkpt lat="44.3631303" lon="9.1448674"><ele>7.999999999999999</ele><time>2026-04-21T13:39:30.302Z</time></trkpt><trkpt lat="44.3630708" lon="9.1448248"><ele>8.0</ele><time>2026-04-21T13:39:31.303Z</time></trkpt><trkpt lat="44.3630015" lon="9.1447695"><ele>8.166666666666666</ele><time>2026-04-21T13:39:32.306Z</time></trkpt><trkpt lat="44.3629231" lon="9.1447119"><ele>8.333333333333332</ele><time>2026-04-21T13:39:33.301Z</time></trkpt><trkpt lat="44.3628424" lon="9.1446608"><ele>8.5</ele><time>2026-04-21T13:39:34.307Z</time></trkpt><trkpt lat="44.3627722" lon="9.1446142"><ele>8.666666666666666</ele><time>2026-04-21T13:39:35.308Z</time></trkpt><trkpt lat="44.3627152" lon="9.1445737"><ele>8.833333333333334</ele><time>2026-04-21T13:39:36.307Z</time></trkpt><trkpt lat="44.3626214" lon="9.1444783"><ele>9.0</ele><time>2026-04-21T13:39:38.308Z</time></trkpt><trkpt lat="44.3625655" lon="9.1444163"><ele>9.0</ele><time>2026-04-21T13:39:39.306Z</time></trkpt><trkpt lat="44.3624983" lon="9.1443571"><ele>9.0</ele><time>2026-04-21T13:39:40.308Z</time></trkpt><trkpt lat="44.3624289" lon="9.1443082"><ele>9.0</ele><time>2026-04-21T13:39:41.306Z</time></trkpt><trkpt lat="44.3623635" lon="9.1442622"><ele>9.0</ele><time>2026-04-21T13:39:42.307Z</time></trkpt><trkpt lat="44.3622494" lon="9.1442113"><ele>9.0</ele><time>2026-04-21T13:39:44.307Z</time></trkpt><trkpt lat="44.362173" lon="9.1441612"><ele>9.0</ele><time>2026-04-21T13:39:46.307Z</time></trkpt><trkpt lat="44.3621091" lon="9.1441318"><ele>9.0</ele><time>2026-04-21T13:39:48.308Z</time></trkpt><trkpt lat="44.3620446" lon="9.1441343"><ele>9.0</ele><time>2026-04-21T13:39:52.301Z</time></trkpt><trkpt lat="44.3619628" lon="9.144109"><ele>9.0</ele><time>2026-04-21T13:39:59.304Z</time></trkpt><trkpt lat="44.3618926" lon="9.1440694"><ele>9.0</ele><time>2026-04-21T13:40:00.306Z</time></trkpt><trkpt lat="44.3618062" lon="9.1440241"><ele>9.0</ele><time>2026-04-21T13:40:01.308Z</time></trkpt><trkpt lat="44.3617123" lon="9.1439673"><ele>9.0</ele><time>2026-04-21T13:40:02.307Z</time></trkpt><trkpt lat="44.3616212" lon="9.1439103"><ele>9.0</ele><time>2026-04-21T13:40:03.308Z</time></trkpt><trkpt lat="44.3615419" lon="9.1438595"><ele>9.0</ele><time>2026-04-21T13:40:04.308Z</time></trkpt><trkpt lat="44.3614757" lon="9.1438177"><ele>9.0</ele><time>2026-04-21T13:40:05.308Z</time></trkpt><trkpt lat="44.3614198" lon="9.1437759"><ele>9.0</ele><time>2026-04-21T13:40:06.306Z</time></trkpt><trkpt lat="44.3613318" lon="9.1436979"><ele>9.0</ele><time>2026-04-21T13:40:08.306Z</time></trkpt><trkpt lat="44.3612526" lon="9.1437228"><ele>9.0</ele><time>2026-04-21T13:40:10.307Z</time></trkpt><trkpt lat="44.3612375" lon="9.1439045"><ele>9.6</ele><time>2026-04-21T13:40:12.303Z</time></trkpt><trkpt lat="44.3612161" lon="9.1440198"><ele>10.2</ele><time>2026-04-21T13:40:13.297Z</time></trkpt><trkpt lat="44.3611825" lon="9.1441378"><ele>10.799999999999999</ele><time>2026-04-21T13:40:14.307Z</time></trkpt><trkpt lat="44.3611413" lon="9.1442605"><ele>11.4</ele><time>2026-04-21T13:40:15.304Z</time></trkpt><trkpt lat="44.3610907" lon="9.144394"><ele>12.0</ele><time>2026-04-21T13:40:16.3Z</time></trkpt><trkpt lat="44.3610374" lon="9.1445365"><ele>12.5</ele><time>2026-04-21T13:40:17.307Z</time></trkpt><trkpt lat="44.3609867" lon="9.1446922"><ele>13.0</ele><time>2026-04-21T13:40:18.305Z</time></trkpt><trkpt lat="44.3609212" lon="9.144847"><ele>13.5</ele><time>2026-04-21T13:40:19.305Z</time></trkpt><trkpt lat="44.3608382" lon="9.1449896"><ele>14.0</ele><time>2026-04-21T13:40:20.3Z</time></trkpt><trkpt lat="44.3607344" lon="9.1450945"><ele>14.0</ele><time>2026-04-21T13:40:21.304Z</time></trkpt><trkpt lat="44.3606196" lon="9.1451544"><ele>14.0</ele><time>2026-04-21T13:40:22.305Z</time></trkpt><trkpt lat="44.3605014" lon="9.1451993"><ele>14.0</ele><time>2026-04-21T13:40:23.306Z</time></trkpt><trkpt lat="44.360385" lon="9.1452526"><ele>14.0</ele><time>2026-04-21T13:40:24.307Z</time></trkpt><trkpt lat="44.3602742" lon="9.1453131"><ele>19.75</ele><time>2026-04-21T13:40:25.302Z</time></trkpt><trkpt lat="44.3601681" lon="9.1453844"><ele>25.5</ele><time>2026-04-21T13:40:26.299Z</time></trkpt><trkpt lat="44.3600689" lon="9.1454539"><ele>31.25</ele><time>2026-04-21T13:40:27.3Z</time></trkpt><trkpt lat="44.359975" lon="9.1455353"><ele>37.0</ele><time>2026-04-21T13:40:28.299Z</time></trkpt><trkpt lat="44.3598806" lon="9.1456197"><ele>37.0</ele><time>2026-04-21T13:40:29.302Z</time></trkpt><trkpt lat="44.3597835" lon="9.1457013"><ele>37.0</ele><time>2026-04-21T13:40:30.303Z</time></trkpt><trkpt lat="44.3596853" lon="9.1457868"><ele>37.0</ele><time>2026-04-21T13:40:31.302Z</time></trkpt><trkpt lat="44.3595926" lon="9.1458835"><ele>37.0</ele><time>2026-04-21T13:40:32.299Z</time></trkpt><trkpt lat="44.3595113" lon="9.1460002"><ele>37.5</ele><time>2026-04-21T13:40:33.297Z</time></trkpt><trkpt lat="44.3594524" lon="9.1461432"><ele>38.0</ele><time>2026-04-21T13:40:34.302Z</time></trkpt><trkpt lat="44.3594123" lon="9.1462946"><ele>38.5</ele><time>2026-04-21T13:40:35.3Z</time></trkpt><trkpt lat="44.3593724" lon="9.1464558"><ele>39.0</ele><time>2026-04-21T13:40:36.297Z</time></trkpt><trkpt lat="44.3593202" lon="9.1466083"><ele>37.5</ele><time>2026-04-21T13:40:37.303Z</time></trkpt><trkpt lat="44.3592433" lon="9.1467469"><ele>36.0</ele><time>2026-04-21T13:40:38.301Z</time></trkpt><trkpt lat="44.3591413" lon="9.1468619"><ele>34.5</ele><time>2026-04-21T13:40:39.303Z</time></trkpt><trkpt lat="44.3590326" lon="9.1469613"><ele>33.0</ele><time>2026-04-21T13:40:40.3Z</time></trkpt><trkpt lat="44.3589309" lon="9.1470676"><ele>37.4</ele><time>2026-04-21T13:40:41.301Z</time></trkpt><trkpt lat="44.3588623" lon="9.147204"><ele>41.8</ele><time>2026-04-21T13:40:42.306Z</time></trkpt><trkpt lat="44.3588323" lon="9.1473515"><ele>46.2</ele><time>2026-04-21T13:40:43.299Z</time></trkpt><trkpt lat="44.3588159" lon="9.1474926"><ele>50.6</ele><time>2026-04-21T13:40:44.3Z</time></trkpt><trkpt lat="44.3588034" lon="9.1476139"><ele>55.0</ele><time>2026-04-21T13:40:45.302Z</time></trkpt><trkpt lat="44.3587948" lon="9.1477306"><ele>55.33333333333333</ele><time>2026-04-21T13:40:46.3Z</time></trkpt><trkpt lat="44.358785" lon="9.1478377"><ele>55.666666666666664</ele><time>2026-04-21T13:40:47.3Z</time></trkpt><trkpt lat="44.3587729" lon="9.1479439"><ele>56.0</ele><time>2026-04-21T13:40:48.301Z</time></trkpt><trkpt lat="44.3587578" lon="9.1480412"><ele>56.33333333333333</ele><time>2026-04-21T13:40:49.303Z</time></trkpt><trkpt lat="44.3587381" lon="9.1481315"><ele>56.666666666666664</ele><time>2026-04-21T13:40:50.299Z</time></trkpt><trkpt lat="44.3586756" lon="9.1482323"><ele>57.0</ele><time>2026-04-21T13:40:52.302Z</time></trkpt><trkpt lat="44.3586007" lon="9.148176"><ele>57.6</ele><time>2026-04-21T13:40:54.303Z</time></trkpt><trkpt lat="44.3585646" lon="9.1480903"><ele>58.2</ele><time>2026-04-21T13:40:55.303Z</time></trkpt><trkpt lat="44.3585538" lon="9.1479616"><ele>58.8</ele><time>2026-04-21T13:40:56.298Z</time></trkpt><trkpt lat="44.3585672" lon="9.1478124"><ele>59.4</ele><time>2026-04-21T13:40:57.296Z</time></trkpt><trkpt lat="44.358583" lon="9.1476559"><ele>60.0</ele><time>2026-04-21T13:40:58.302Z</time></trkpt><trkpt lat="44.3586042" lon="9.1474998"><ele>58.75</ele><time>2026-04-21T13:40:59.301Z</time></trkpt><trkpt lat="44.3586273" lon="9.1473404"><ele>57.5</ele><time>2026-04-21T13:41:00.304Z</time></trkpt><trkpt lat="44.3586476" lon="9.1471762"><ele>56.25</ele><time>2026-04-21T13:41:01.301Z</time></trkpt><trkpt lat="44.3586674" lon="9.1470173"><ele>55.0</ele><time>2026-04-21T13:41:02.303Z</time></trkpt><trkpt lat="44.3586861" lon="9.1468702"><ele>55.0</ele><time>2026-04-21T13:41:03.294Z</time></trkpt><trkpt lat="44.3587002" lon="9.1467349"><ele>55.0</ele><time>2026-04-21T13:41:04.3Z</time></trkpt><trkpt lat="44.3587176" lon="9.146609"><ele>55.0</ele><time>2026-04-21T13:41:05.3Z</time></trkpt><trkpt lat="44.3587368" lon="9.1464788"><ele>55.0</ele><time>2026-04-21T13:41:06.305Z</time></trkpt><trkpt lat="44.3587305" lon="9.14635"><ele>55.0</ele><time>2026-04-21T13:41:07.303Z</time></trkpt><trkpt lat="44.3586912" lon="9.1462202"><ele>53.2</ele><time>2026-04-21T13:41:08.307Z</time></trkpt><trkpt lat="44.3586275" lon="9.1461037"><ele>51.4</ele><time>2026-04-21T13:41:09.305Z</time></trkpt><trkpt lat="44.3585414" lon="9.1460133"><ele>49.599999999999994</ele><time>2026-04-21T13:41:10.303Z</time></trkpt><trkpt lat="44.3584447" lon="9.1459384"><ele>47.8</ele><time>2026-04-21T13:41:11.303Z</time></trkpt><trkpt lat="44.3583452" lon="9.1458824"><ele>46.0</ele><time>2026-04-21T13:41:12.309Z</time></trkpt><trkpt lat="44.3582423" lon="9.1458324"><ele>46.0</ele><time>2026-04-21T13:41:13.308Z</time></trkpt><trkpt lat="44.3581431" lon="9.1457906"><ele>46.0</ele><time>2026-04-21T13:41:14.309Z</time></trkpt><trkpt lat="44.3580481" lon="9.1457678"><ele>46.0</ele><time>2026-04-21T13:41:15.302Z</time></trkpt><trkpt lat="44.3579513" lon="9.145775"><ele>46.0</ele><time>2026-04-21T13:41:16.31Z</time></trkpt><trkpt lat="44.3578581" lon="9.1458141"><ele>46.0</ele><time>2026-04-21T13:41:17.308Z</time></trkpt><trkpt lat="44.3577649" lon="9.1458838"><ele>45.199999999999996</ele><time>2026-04-21T13:41:18.31Z</time></trkpt><trkpt lat="44.3576827" lon="9.1459931"><ele>44.4</ele><time>2026-04-21T13:41:19.308Z</time></trkpt><trkpt lat="44.3576167" lon="9.1461307"><ele>43.6</ele><time>2026-04-21T13:41:20.301Z</time></trkpt><trkpt lat="44.3575574" lon="9.1462661"><ele>42.8</ele><time>2026-04-21T13:41:21.308Z</time></trkpt><trkpt lat="44.3575" lon="9.1463853"><ele>42.0</ele><time>2026-04-21T13:41:22.307Z</time></trkpt><trkpt lat="44.3574343" lon="9.1464909"><ele>42.6</ele><time>2026-04-21T13:41:23.307Z</time></trkpt><trkpt lat="44.3573597" lon="9.1465701"><ele>43.2</ele><time>2026-04-21T13:41:24.307Z</time></trkpt><trkpt lat="44.3572756" lon="9.1466355"><ele>43.8</ele><time>2026-04-21T13:41:25.308Z</time></trkpt><trkpt lat="44.3571939" lon="9.1467029"><ele>44.4</ele><time>2026-04-21T13:41:26.307Z</time></trkpt><trkpt lat="44.3571168" lon="9.1467865"><ele>45.0</ele><time>2026-04-21T13:41:27.309Z</time></trkpt><trkpt lat="44.3570489" lon="9.1468896"><ele>45.0</ele><time>2026-04-21T13:41:28.308Z</time></trkpt><trkpt lat="44.356993" lon="9.1470036"><ele>45.0</ele><time>2026-04-21T13:41:29.306Z</time></trkpt><trkpt lat="44.3569384" lon="9.1471212"><ele>45.0</ele><time>2026-04-21T13:41:30.307Z</time></trkpt><trkpt lat="44.3568833" lon="9.1472383"><ele>45.0</ele><time>2026-04-21T13:41:31.301Z</time></trkpt><trkpt lat="44.3568294" lon="9.1473589"><ele>45.0</ele><time>2026-04-21T13:41:32.308Z</time></trkpt><trkpt lat="44.3567814" lon="9.1474838"><ele>48.2</ele><time>2026-04-21T13:41:33.308Z</time></trkpt><trkpt lat="44.3567467" lon="9.1476124"><ele>51.4</ele><time>2026-04-21T13:41:34.307Z</time></trkpt><trkpt lat="44.3567353" lon="9.1477437"><ele>54.599999999999994</ele><time>2026-04-21T13:41:35.308Z</time></trkpt><trkpt lat="44.3567486" lon="9.1478852"><ele>57.8</ele><time>2026-04-21T13:41:36.309Z</time></trkpt><trkpt lat="44.3567746" lon="9.1480218"><ele>61.0</ele><time>2026-04-21T13:41:37.306Z</time></trkpt><trkpt lat="44.3568008" lon="9.1481611"><ele>61.8</ele><time>2026-04-21T13:41:38.309Z</time></trkpt><trkpt lat="44.3568116" lon="9.1483056"><ele>62.599999999999994</ele><time>2026-04-21T13:41:39.308Z</time></trkpt><trkpt lat="44.3568092" lon="9.1484506"><ele>63.4</ele><time>2026-04-21T13:41:40.297Z</time></trkpt><trkpt lat="44.3567946" lon="9.1485879"><ele>64.2</ele><time>2026-04-21T13:41:41.304Z</time></trkpt><trkpt lat="44.3567698" lon="9.1487194"><ele>65.0</ele><time>2026-04-21T13:41:42.311Z</time></trkpt><trkpt lat="44.3567312" lon="9.1488488"><ele>65.0</ele><time>2026-04-21T13:41:43.311Z</time></trkpt><trkpt lat="44.3566903" lon="9.148982"><ele>65.0</ele><time>2026-04-21T13:41:44.308Z</time></trkpt><trkpt lat="44.3566544" lon="9.1491203"><ele>65.0</ele><time>2026-04-21T13:41:45.307Z</time></trkpt><trkpt lat="44.3566306" lon="9.1492672"><ele>65.0</ele><time>2026-04-21T13:41:46.307Z</time></trkpt><trkpt lat="44.3566164" lon="9.1494225"><ele>65.0</ele><time>2026-04-21T13:41:47.299Z</time></trkpt><trkpt lat="44.3566111" lon="9.1495806"><ele>67.25</ele><time>2026-04-21T13:41:48.298Z</time></trkpt><trkpt lat="44.3566096" lon="9.1497413"><ele>69.5</ele><time>2026-04-21T13:41:49.299Z</time></trkpt><trkpt lat="44.3566104" lon="9.1499054"><ele>71.75</ele><time>2026-04-21T13:41:50.308Z</time></trkpt><trkpt lat="44.3566109" lon="9.1500781"><ele>74.0</ele><time>2026-04-21T13:41:51.301Z</time></trkpt><trkpt lat="44.3566093" lon="9.1502512"><ele>76.25</ele><time>2026-04-21T13:41:52.306Z</time></trkpt><trkpt lat="44.3566044" lon="9.1504242"><ele>78.5</ele><time>2026-04-21T13:41:53.301Z</time></trkpt><trkpt lat="44.3566012" lon="9.1505974"><ele>80.75</ele><time>2026-04-21T13:41:54.299Z</time></trkpt><trkpt lat="44.3565986" lon="9.1507727"><ele>83.0</ele><time>2026-04-21T13:41:55.305Z</time></trkpt><trkpt lat="44.3565989" lon="9.1509451"><ele>84.0</ele><time>2026-04-21T13:41:56.307Z</time></trkpt><trkpt lat="44.3565968" lon="9.1511114"><ele>85.0</ele><time>2026-04-21T13:41:57.306Z</time></trkpt><trkpt lat="44.3565875" lon="9.1512701"><ele>86.0</ele><time>2026-04-21T13:41:58.305Z</time></trkpt><trkpt lat="44.3565725" lon="9.1514233"><ele>87.0</ele><time>2026-04-21T13:41:59.305Z</time></trkpt><trkpt lat="44.3565495" lon="9.1515711"><ele>87.8</ele><time>2026-04-21T13:42:00.31Z</time></trkpt><trkpt lat="44.3565224" lon="9.1517159"><ele>88.6</ele><time>2026-04-21T13:42:01.306Z</time></trkpt><trkpt lat="44.3564998" lon="9.1518562"><ele>89.39999999999999</ele><time>2026-04-21T13:42:02.304Z</time></trkpt><trkpt lat="44.3564867" lon="9.1520003"><ele>90.19999999999999</ele><time>2026-04-21T13:42:03.307Z</time></trkpt><trkpt lat="44.3564885" lon="9.1521354"><ele>91.0</ele><time>2026-04-21T13:42:04.304Z</time></trkpt><trkpt lat="44.3565008" lon="9.1522597"><ele>92.33333333333333</ele><time>2026-04-21T13:42:05.309Z</time></trkpt><trkpt lat="44.3565091" lon="9.1523831"><ele>93.66666666666666</ele><time>2026-04-21T13:42:06.298Z</time></trkpt><trkpt lat="44.3565089" lon="9.1525071"><ele>95.0</ele><time>2026-04-21T13:42:07.297Z</time></trkpt><trkpt lat="44.3565015" lon="9.1526274"><ele>96.33333333333333</ele><time>2026-04-21T13:42:08.306Z</time></trkpt><trkpt lat="44.3564929" lon="9.1527536"><ele>97.66666666666667</ele><time>2026-04-21T13:42:09.306Z</time></trkpt><trkpt lat="44.3564828" lon="9.1528844"><ele>99.0</ele><time>2026-04-21T13:42:10.3Z</time></trkpt><trkpt lat="44.3564709" lon="9.1530185"><ele>99.0</ele><time>2026-04-21T13:42:11.294Z</time></trkpt><trkpt lat="44.3564607" lon="9.1531576"><ele>99.0</ele><time>2026-04-21T13:42:12.304Z</time></trkpt><trkpt lat="44.3564479" lon="9.1533005"><ele>99.0</ele><time>2026-04-21T13:42:13.302Z</time></trkpt><trkpt lat="44.3564317" lon="9.1534474"><ele>99.0</ele><time>2026-04-21T13:42:14.301Z</time></trkpt><trkpt lat="44.3564158" lon="9.1535962"><ele>99.0</ele><time>2026-04-21T13:42:15.307Z</time></trkpt><trkpt lat="44.3564011" lon="9.1537471"><ele>98.6</ele><time>2026-04-21T13:42:16.306Z</time></trkpt><trkpt lat="44.3563854" lon="9.1538971"><ele>98.2</ele><time>2026-04-21T13:42:17.302Z</time></trkpt><trkpt lat="44.3563676" lon="9.154045"><ele>97.8</ele><time>2026-04-21T13:42:18.298Z</time></trkpt><trkpt lat="44.3563415" lon="9.1541916"><ele>97.39999999999999</ele><time>2026-04-21T13:42:19.302Z</time></trkpt><trkpt lat="44.3563045" lon="9.1543363"><ele>97.0</ele><time>2026-04-21T13:42:20.31Z</time></trkpt><trkpt lat="44.3562579" lon="9.1544776"><ele>97.0</ele><time>2026-04-21T13:42:21.305Z</time></trkpt><trkpt lat="44.3562035" lon="9.1546176"><ele>97.0</ele><time>2026-04-21T13:42:22.309Z</time></trkpt><trkpt lat="44.3561427" lon="9.1547531"><ele>97.0</ele><time>2026-04-21T13:42:23.308Z</time></trkpt><trkpt lat="44.3560781" lon="9.1548843"><ele>97.0</ele><time>2026-04-21T13:42:24.309Z</time></trkpt><trkpt lat="44.3560113" lon="9.1550127"><ele>101.0</ele><time>2026-04-21T13:42:25.308Z</time></trkpt><trkpt lat="44.3559396" lon="9.1551358"><ele>105.0</ele><time>2026-04-21T13:42:26.307Z</time></trkpt><trkpt lat="44.3558618" lon="9.1552453"><ele>108.99999999999999</ele><time>2026-04-21T13:42:27.307Z</time></trkpt><trkpt lat="44.3557809" lon="9.1553465"><ele>113.0</ele><time>2026-04-21T13:42:28.304Z</time></trkpt><trkpt lat="44.3557011" lon="9.1554273"><ele>117.0</ele><time>2026-04-21T13:42:29.306Z</time></trkpt><trkpt lat="44.3556146" lon="9.155479"><ele>120.8</ele><time>2026-04-21T13:42:30.305Z</time></trkpt><trkpt lat="44.3555194" lon="9.1554863"><ele>124.6</ele><time>2026-04-21T13:42:31.295Z</time></trkpt><trkpt lat="44.3554273" lon="9.1554403"><ele>128.39999999999998</ele><time>2026-04-21T13:42:32.299Z</time></trkpt><trkpt lat="44.3553601" lon="9.1553475"><ele>132.2</ele><time>2026-04-21T13:42:33.298Z</time></trkpt><trkpt lat="44.3553129" lon="9.1552093"><ele>136.0</ele><time>2026-04-21T13:42:34.304Z</time></trkpt><trkpt lat="44.355278" lon="9.1550447"><ele>136.0</ele><time>2026-04-21T13:42:35.302Z</time></trkpt><trkpt lat="44.3552356" lon="9.1548965"><ele>136.0</ele><time>2026-04-21T13:42:36.309Z</time></trkpt><trkpt lat="44.3551755" lon="9.1547643"><ele>136.0</ele><time>2026-04-21T13:42:37.306Z</time></trkpt><trkpt lat="44.3551044" lon="9.1546544"><ele>136.0</ele><time>2026-04-21T13:42:38.303Z</time></trkpt><trkpt lat="44.3550351" lon="9.1545612"><ele>136.0</ele><time>2026-04-21T13:42:39.304Z</time></trkpt><trkpt lat="44.3549715" lon="9.1544699"><ele>133.4</ele><time>2026-04-21T13:42:40.306Z</time></trkpt><trkpt lat="44.3549081" lon="9.1543754"><ele>130.8</ele><time>2026-04-21T13:42:41.302Z</time></trkpt><trkpt lat="44.3548426" lon="9.1542814"><ele>128.20000000000002</ele><time>2026-04-21T13:42:42.307Z</time></trkpt><trkpt lat="44.3547751" lon="9.1541957"><ele>125.60000000000001</ele><time>2026-04-21T13:42:43.31Z</time></trkpt><trkpt lat="44.3546975" lon="9.1541292"><ele>123.0</ele><time>2026-04-21T13:42:44.307Z</time></trkpt><trkpt lat="44.3546152" lon="9.1540889"><ele>123.0</ele><time>2026-04-21T13:42:45.306Z</time></trkpt><trkpt lat="44.354522" lon="9.1540762"><ele>123.00000000000001</ele><time>2026-04-21T13:42:46.311Z</time></trkpt><trkpt lat="44.3544235" lon="9.1541267"><ele>123.00000000000001</ele><time>2026-04-21T13:42:47.306Z</time></trkpt><trkpt lat="44.3543288" lon="9.1542296"><ele>123.0</ele><time>2026-04-21T13:42:48.304Z</time></trkpt><trkpt lat="44.354233" lon="9.154345"><ele>123.0</ele><time>2026-04-21T13:42:49.304Z</time></trkpt><trkpt lat="44.3541321" lon="9.154467"><ele>123.0</ele><time>2026-04-21T13:42:50.312Z</time></trkpt><trkpt lat="44.3540212" lon="9.1546007"><ele>123.0</ele><time>2026-04-21T13:42:51.309Z</time></trkpt><trkpt lat="44.3538978" lon="9.154737"><ele>123.0</ele><time>2026-04-21T13:42:52.304Z</time></trkpt><trkpt lat="44.3537626" lon="9.1548658"><ele>124.66666666666666</ele><time>2026-04-21T13:42:53.307Z</time></trkpt><trkpt lat="44.3536284" lon="9.1549939"><ele>126.33333333333333</ele><time>2026-04-21T13:42:54.305Z</time></trkpt><trkpt lat="44.3534939" lon="9.1551319"><ele>128.0</ele><time>2026-04-21T13:42:55.304Z</time></trkpt><trkpt lat="44.3533714" lon="9.1552841"><ele>128.0</ele><time>2026-04-21T13:42:56.304Z</time></trkpt><trkpt lat="44.3532748" lon="9.1554577"><ele>128.0</ele><time>2026-04-21T13:42:57.307Z</time></trkpt><trkpt lat="44.3531772" lon="9.1556404"><ele>128.0</ele><time>2026-04-21T13:42:58.303Z</time></trkpt><trkpt lat="44.35307" lon="9.1557896"><ele>129.0</ele><time>2026-04-21T13:42:59.305Z</time></trkpt><trkpt lat="44.3529299" lon="9.1558969"><ele>130.0</ele><time>2026-04-21T13:43:00.301Z</time></trkpt><trkpt lat="44.3527916" lon="9.1559944"><ele>131.0</ele><time>2026-04-21T13:43:01.301Z</time></trkpt><trkpt lat="44.3526669" lon="9.1561069"><ele>131.0</ele><time>2026-04-21T13:43:02.309Z</time></trkpt><trkpt lat="44.352556" lon="9.1562378"><ele>131.0</ele><time>2026-04-21T13:43:03.303Z</time></trkpt><trkpt lat="44.3524527" lon="9.1563822"><ele>131.0</ele><time>2026-04-21T13:43:04.302Z</time></trkpt><trkpt lat="44.3523509" lon="9.1565263"><ele>131.0</ele><time>2026-04-21T13:43:05.305Z</time></trkpt><trkpt lat="44.3522489" lon="9.156653"><ele>135.25</ele><time>2026-04-21T13:43:06.3Z</time></trkpt><trkpt lat="44.3521436" lon="9.1567635"><ele>139.5</ele><time>2026-04-21T13:43:07.302Z</time></trkpt><trkpt lat="44.3520324" lon="9.1568346"><ele>143.75</ele><time>2026-04-21T13:43:08.308Z</time></trkpt><trkpt lat="44.3519179" lon="9.1568468"><ele>148.0</ele><time>2026-04-21T13:43:09.3Z</time></trkpt><trkpt lat="44.3518067" lon="9.1567964"><ele>148.0</ele><time>2026-04-21T13:43:10.303Z</time></trkpt><trkpt lat="44.351701" lon="9.1567111"><ele>148.0</ele><time>2026-04-21T13:43:11.307Z</time></trkpt><trkpt lat="44.3516005" lon="9.1566455"><ele>148.0</ele><time>2026-04-21T13:43:12.305Z</time></trkpt><trkpt lat="44.3514978" lon="9.1566286"><ele>148.0</ele><time>2026-04-21T13:43:13.3Z</time></trkpt><trkpt lat="44.3514041" lon="9.1566606"><ele>148.0</ele><time>2026-04-21T13:43:14.298Z</time></trkpt><trkpt lat="44.3513149" lon="9.1567579"><ele>143.5</ele><time>2026-04-21T13:43:15.298Z</time></trkpt><trkpt lat="44.3512305" lon="9.156879"><ele>139.0</ele><time>2026-04-21T13:43:16.304Z</time></trkpt><trkpt lat="44.3511409" lon="9.1570178"><ele>134.5</ele><time>2026-04-21T13:43:17.306Z</time></trkpt><trkpt lat="44.3510473" lon="9.1571395"><ele>130.0</ele><time>2026-04-21T13:43:18.305Z</time></trkpt><trkpt lat="44.3509491" lon="9.1572478"><ele>130.0</ele><time>2026-04-21T13:43:19.306Z</time></trkpt><trkpt lat="44.3508494" lon="9.1573474"><ele>130.0</ele><time>2026-04-21T13:43:20.304Z</time></trkpt><trkpt lat="44.3507486" lon="9.1574438"><ele>130.0</ele><time>2026-04-21T13:43:21.311Z</time></trkpt><trkpt lat="44.3506499" lon="9.1575426"><ele>130.0</ele><time>2026-04-21T13:43:22.304Z</time></trkpt><trkpt lat="44.3505513" lon="9.1576469"><ele>131.5</ele><time>2026-04-21T13:43:23.303Z</time></trkpt><trkpt lat="44.3504431" lon="9.1577509"><ele>133.0</ele><time>2026-04-21T13:43:24.301Z</time></trkpt><trkpt lat="44.3503284" lon="9.15786"><ele>134.5</ele><time>2026-04-21T13:43:25.307Z</time></trkpt><trkpt lat="44.3502111" lon="9.1579819"><ele>136.0</ele><time>2026-04-21T13:43:26.303Z</time></trkpt><trkpt lat="44.3501071" lon="9.1581327"><ele>145.66666666666669</ele><time>2026-04-21T13:43:27.304Z</time></trkpt><trkpt lat="44.3500161" lon="9.1583226"><ele>155.33333333333334</ele><time>2026-04-21T13:43:28.302Z</time></trkpt><trkpt lat="44.3499377" lon="9.1585351"><ele>165.0</ele><time>2026-04-21T13:43:29.301Z</time></trkpt><trkpt lat="44.3498738" lon="9.1587623"><ele>165.0</ele><time>2026-04-21T13:43:30.304Z</time></trkpt><trkpt lat="44.3498317" lon="9.1590018"><ele>165.0</ele><time>2026-04-21T13:43:31.307Z</time></trkpt><trkpt lat="44.3497989" lon="9.159239"><ele>165.0</ele><time>2026-04-21T13:43:32.299Z</time></trkpt><trkpt lat="44.3497765" lon="9.1594727"><ele>170.66666666666666</ele><time>2026-04-21T13:43:33.309Z</time></trkpt><trkpt lat="44.3497704" lon="9.1596956"><ele>176.33333333333331</ele><time>2026-04-21T13:43:34.301Z</time></trkpt><trkpt lat="44.3497867" lon="9.1599159"><ele>182.0</ele><time>2026-04-21T13:43:35.306Z</time></trkpt><trkpt lat="44.3498122" lon="9.1601405"><ele>183.66666666666666</ele><time>2026-04-21T13:43:36.301Z</time></trkpt><trkpt lat="44.3498373" lon="9.160361"><ele>185.33333333333334</ele><time>2026-04-21T13:43:37.305Z</time></trkpt><trkpt lat="44.3498538" lon="9.1605887"><ele>187.0</ele><time>2026-04-21T13:43:38.301Z</time></trkpt><trkpt lat="44.3498548" lon="9.1608201"><ele>189.66666666666669</ele><time>2026-04-21T13:43:39.304Z</time></trkpt><trkpt lat="44.3498314" lon="9.1610365"><ele>192.33333333333334</ele><time>2026-04-21T13:43:40.299Z</time></trkpt><trkpt lat="44.349786" lon="9.1612425"><ele>195.0</ele><time>2026-04-21T13:43:41.297Z</time></trkpt><trkpt lat="44.3497276" lon="9.1614372"><ele>189.75</ele><time>2026-04-21T13:43:42.304Z</time></trkpt><trkpt lat="44.349668" lon="9.1616275"><ele>184.5</ele><time>2026-04-21T13:43:43.303Z</time></trkpt><trkpt lat="44.3496024" lon="9.1618059"><ele>179.25</ele><time>2026-04-21T13:43:44.301Z</time></trkpt><trkpt lat="44.3495212" lon="9.1619632"><ele>174.0</ele><time>2026-04-21T13:43:45.298Z</time></trkpt><trkpt lat="44.3494184" lon="9.162073"><ele>174.0</ele><time>2026-04-21T13:43:46.305Z</time></trkpt><trkpt lat="44.3492846" lon="9.1621456"><ele>174.0</ele><time>2026-04-21T13:43:47.304Z</time></trkpt><trkpt lat="44.3491425" lon="9.1622409"><ele>174.0</ele><time>2026-04-21T13:43:48.309Z</time></trkpt><trkpt lat="44.3490154" lon="9.1623705"><ele>171.66666666666666</ele><time>2026-04-21T13:43:49.309Z</time></trkpt><trkpt lat="44.3489001" lon="9.1625257"><ele>169.33333333333331</ele><time>2026-04-21T13:43:50.306Z</time></trkpt><trkpt lat="44.348792" lon="9.162684"><ele>167.0</ele><time>2026-04-21T13:43:51.304Z</time></trkpt><trkpt lat="44.3486893" lon="9.1628456"><ele>167.0</ele><time>2026-04-21T13:43:52.301Z</time></trkpt><trkpt lat="44.348611" lon="9.1630216"><ele>167.0</ele><time>2026-04-21T13:43:53.305Z</time></trkpt><trkpt lat="44.3485814" lon="9.1632244"><ele>167.0</ele><time>2026-04-21T13:43:54.307Z</time></trkpt><trkpt lat="44.3485701" lon="9.1634419"><ele>171.0</ele><time>2026-04-21T13:43:55.303Z</time></trkpt><trkpt lat="44.3485424" lon="9.1636286"><ele>175.0</ele><time>2026-04-21T13:43:56.305Z</time></trkpt><trkpt lat="44.3485103" lon="9.1637927"><ele>179.0</ele><time>2026-04-21T13:43:57.301Z</time></trkpt><trkpt lat="44.3484805" lon="9.163942"><ele>183.0</ele><time>2026-04-21T13:43:58.305Z</time></trkpt><trkpt lat="44.3484574" lon="9.1640849"><ele>186.4</ele><time>2026-04-21T13:43:59.301Z</time></trkpt><trkpt lat="44.3484409" lon="9.1642324"><ele>189.8</ele><time>2026-04-21T13:44:00.307Z</time></trkpt><trkpt lat="44.3484274" lon="9.1643843"><ele>193.2</ele><time>2026-04-21T13:44:01.308Z</time></trkpt><trkpt lat="44.3484033" lon="9.1645407"><ele>196.6</ele><time>2026-04-21T13:44:02.309Z</time></trkpt><trkpt lat="44.3483662" lon="9.1646957"><ele>200.0</ele><time>2026-04-21T13:44:03.308Z</time></trkpt><trkpt lat="44.3483183" lon="9.1648472"><ele>202.25</ele><time>2026-04-21T13:44:04.307Z</time></trkpt><trkpt lat="44.3482658" lon="9.1649991"><ele>204.5</ele><time>2026-04-21T13:44:05.309Z</time></trkpt><trkpt lat="44.3482121" lon="9.1651489"><ele>206.75</ele><time>2026-04-21T13:44:06.307Z</time></trkpt><trkpt lat="44.3481564" lon="9.1652964"><ele>209.0</ele><time>2026-04-21T13:44:07.301Z</time></trkpt><trkpt lat="44.3480971" lon="9.1654426"><ele>204.5</ele><time>2026-04-21T13:44:08.308Z</time></trkpt><trkpt lat="44.3480392" lon="9.1655914"><ele>200.0</ele><time>2026-04-21T13:44:09.299Z</time></trkpt><trkpt lat="44.347982" lon="9.1657366"><ele>195.5</ele><time>2026-04-21T13:44:10.307Z</time></trkpt><trkpt lat="44.3479271" lon="9.1658827"><ele>191.0</ele><time>2026-04-21T13:44:11.308Z</time></trkpt><trkpt lat="44.347872" lon="9.1660314"><ele>191.0</ele><time>2026-04-21T13:44:12.306Z</time></trkpt><trkpt lat="44.347819" lon="9.1661835"><ele>191.0</ele><time>2026-04-21T13:44:13.305Z</time></trkpt><trkpt lat="44.3477733" lon="9.1663427"><ele>191.0</ele><time>2026-04-21T13:44:14.309Z</time></trkpt><trkpt lat="44.3477412" lon="9.1665078"><ele>191.0</ele><time>2026-04-21T13:44:15.307Z</time></trkpt><trkpt lat="44.3477153" lon="9.1666776"><ele>194.75</ele><time>2026-04-21T13:44:16.305Z</time></trkpt><trkpt lat="44.3476868" lon="9.1668466"><ele>198.5</ele><time>2026-04-21T13:44:17.31Z</time></trkpt><trkpt lat="44.3476504" lon="9.16701"><ele>202.25</ele><time>2026-04-21T13:44:18.3Z</time></trkpt><trkpt lat="44.3476061" lon="9.1671746"><ele>206.0</ele><time>2026-04-21T13:44:19.308Z</time></trkpt><trkpt lat="44.3475491" lon="9.1673365"><ele>210.0</ele><time>2026-04-21T13:44:20.3Z</time></trkpt><trkpt lat="44.347485" lon="9.1674956"><ele>214.0</ele><time>2026-04-21T13:44:21.305Z</time></trkpt><trkpt lat="44.3474182" lon="9.1676563"><ele>218.0</ele><time>2026-04-21T13:44:22.309Z</time></trkpt><trkpt lat="44.3473507" lon="9.1678144"><ele>222.0</ele><time>2026-04-21T13:44:23.307Z</time></trkpt><trkpt lat="44.3472837" lon="9.1679732"><ele>222.0</ele><time>2026-04-21T13:44:24.308Z</time></trkpt><trkpt lat="44.3472112" lon="9.1681251"><ele>222.0</ele><time>2026-04-21T13:44:25.305Z</time></trkpt><trkpt lat="44.3471348" lon="9.1682677"><ele>222.0</ele><time>2026-04-21T13:44:26.305Z</time></trkpt><trkpt lat="44.3470458" lon="9.1684076"><ele>222.0</ele><time>2026-04-21T13:44:27.301Z</time></trkpt><trkpt lat="44.3469522" lon="9.1685251"><ele>220.75</ele><time>2026-04-21T13:44:28.301Z</time></trkpt><trkpt lat="44.3468537" lon="9.1686319"><ele>219.5</ele><time>2026-04-21T13:44:29.302Z</time></trkpt><trkpt lat="44.3467486" lon="9.1687302"><ele>218.25</ele><time>2026-04-21T13:44:30.304Z</time></trkpt><trkpt lat="44.3466451" lon="9.168832"><ele>217.0</ele><time>2026-04-21T13:44:31.307Z</time></trkpt><trkpt lat="44.3465442" lon="9.1689356"><ele>220.75</ele><time>2026-04-21T13:44:32.301Z</time></trkpt><trkpt lat="44.346447" lon="9.1690459"><ele>224.5</ele><time>2026-04-21T13:44:33.304Z</time></trkpt><trkpt lat="44.3463529" lon="9.1691547"><ele>228.25</ele><time>2026-04-21T13:44:34.308Z</time></trkpt><trkpt lat="44.3462626" lon="9.1692471"><ele>232.0</ele><time>2026-04-21T13:44:35.305Z</time></trkpt><trkpt lat="44.3461742" lon="9.1693235"><ele>232.0</ele><time>2026-04-21T13:44:36.297Z</time></trkpt><trkpt lat="44.3460824" lon="9.1693841"><ele>232.0</ele><time>2026-04-21T13:44:37.303Z</time></trkpt><trkpt lat="44.3459859" lon="9.1694248"><ele>232.0</ele><time>2026-04-21T13:44:38.305Z</time></trkpt><trkpt lat="44.345876" lon="9.1694324"><ele>232.0</ele><time>2026-04-21T13:44:39.306Z</time></trkpt><trkpt lat="44.3457606" lon="9.169416"><ele>232.0</ele><time>2026-04-21T13:44:40.303Z</time></trkpt><trkpt lat="44.3456373" lon="9.1693889"><ele>231.75</ele><time>2026-04-21T13:44:41.303Z</time></trkpt><trkpt lat="44.3455075" lon="9.1693588"><ele>231.5</ele><time>2026-04-21T13:44:42.301Z</time></trkpt><trkpt lat="44.3453725" lon="9.1693365"><ele>231.25</ele><time>2026-04-21T13:44:43.304Z</time></trkpt><trkpt lat="44.3452342" lon="9.1693418"><ele>231.0</ele><time>2026-04-21T13:44:44.3Z</time></trkpt><trkpt lat="44.3451086" lon="9.1693988"><ele>231.0</ele><time>2026-04-21T13:44:45.303Z</time></trkpt><trkpt lat="44.3450033" lon="9.1695005"><ele>231.0</ele><time>2026-04-21T13:44:46.301Z</time></trkpt><trkpt lat="44.3448991" lon="9.1696056"><ele>231.0</ele><time>2026-04-21T13:44:47.301Z</time></trkpt><trkpt lat="44.3447908" lon="9.1697096"><ele>231.0</ele><time>2026-04-21T13:44:48.296Z</time></trkpt><trkpt lat="44.3446833" lon="9.169808"><ele>235.25</ele><time>2026-04-21T13:44:49.3Z</time></trkpt><trkpt lat="44.3445738" lon="9.1698956"><ele>239.5</ele><time>2026-04-21T13:44:50.304Z</time></trkpt><trkpt lat="44.3444592" lon="9.1699847"><ele>243.75</ele><time>2026-04-21T13:44:51.298Z</time></trkpt><trkpt lat="44.3443448" lon="9.1700762"><ele>248.0</ele><time>2026-04-21T13:44:52.297Z</time></trkpt><trkpt lat="44.3442339" lon="9.17017"><ele>248.0</ele><time>2026-04-21T13:44:53.303Z</time></trkpt><trkpt lat="44.3441264" lon="9.1702603"><ele>248.0</ele><time>2026-04-21T13:44:54.302Z</time></trkpt><trkpt lat="44.3440271" lon="9.1703409"><ele>248.0</ele><time>2026-04-21T13:44:55.301Z</time></trkpt><trkpt lat="44.3439385" lon="9.1704203"><ele>248.0</ele><time>2026-04-21T13:44:56.303Z</time></trkpt><trkpt lat="44.3438586" lon="9.1705089"><ele>248.0</ele><time>2026-04-21T13:44:57.298Z</time></trkpt><trkpt lat="44.343783" lon="9.1706138"><ele>252.75</ele><time>2026-04-21T13:44:58.308Z</time></trkpt><trkpt lat="44.3437183" lon="9.170742"><ele>257.5</ele><time>2026-04-21T13:44:59.315Z</time></trkpt><trkpt lat="44.3436734" lon="9.1708933"><ele>262.25</ele><time>2026-04-21T13:45:00.316Z</time></trkpt><trkpt lat="44.343651" lon="9.1710664"><ele>267.0</ele><time>2026-04-21T13:45:01.307Z</time></trkpt><trkpt lat="44.3436299" lon="9.1712428"><ele>267.0</ele><time>2026-04-21T13:45:02.314Z</time></trkpt><trkpt lat="44.3435901" lon="9.1714254"><ele>267.0</ele><time>2026-04-21T13:45:03.297Z</time></trkpt><trkpt lat="44.3435462" lon="9.1716188"><ele>267.0</ele><time>2026-04-21T13:45:04.31Z</time></trkpt><trkpt lat="44.3435115" lon="9.1718288"><ele>267.0</ele><time>2026-04-21T13:45:05.311Z</time></trkpt><trkpt lat="44.3434696" lon="9.1720347"><ele>267.6</ele><time>2026-04-21T13:45:06.312Z</time></trkpt><trkpt lat="44.3434161" lon="9.1722264"><ele>268.2</ele><time>2026-04-21T13:45:07.311Z</time></trkpt><trkpt lat="44.3433963" lon="9.1723968"><ele>268.8</ele><time>2026-04-21T13:45:08.313Z</time></trkpt><trkpt lat="44.3434113" lon="9.1725257"><ele>269.4</ele><time>2026-04-21T13:45:09.31Z</time></trkpt><trkpt lat="44.3434052" lon="9.172617"><ele>270.0</ele><time>2026-04-21T13:45:10.313Z</time></trkpt><trkpt lat="44.3433417" lon="9.1727571"><ele>270.0</ele><time>2026-04-21T13:45:12.304Z</time></trkpt><trkpt lat="44.3432987" lon="9.1728436"><ele>270.0</ele><time>2026-04-21T13:45:13.314Z</time></trkpt><trkpt lat="44.3432275" lon="9.1729261"><ele>270.0</ele><time>2026-04-21T13:45:14.316Z</time></trkpt><trkpt lat="44.3431148" lon="9.1729895"><ele>270.0</ele><time>2026-04-21T13:45:15.31Z</time></trkpt><trkpt lat="44.3430195" lon="9.1730623"><ele>270.0</ele><time>2026-04-21T13:45:16.308Z</time></trkpt><trkpt lat="44.3429328" lon="9.1731374"><ele>267.6</ele><time>2026-04-21T13:45:17.317Z</time></trkpt><trkpt lat="44.3428507" lon="9.173213"><ele>265.2</ele><time>2026-04-21T13:45:18.31Z</time></trkpt><trkpt lat="44.3427765" lon="9.1732895"><ele>262.8</ele><time>2026-04-21T13:45:19.319Z</time></trkpt><trkpt lat="44.3427095" lon="9.1733584"><ele>260.4</ele><time>2026-04-21T13:45:20.318Z</time></trkpt><trkpt lat="44.3426367" lon="9.1734298"><ele>258.0</ele><time>2026-04-21T13:45:21.318Z</time></trkpt><trkpt lat="44.3425594" lon="9.1735003"><ele>258.0</ele><time>2026-04-21T13:45:22.317Z</time></trkpt><trkpt lat="44.3424792" lon="9.1735568"><ele>258.0</ele><time>2026-04-21T13:45:23.314Z</time></trkpt><trkpt lat="44.3423966" lon="9.1735847"><ele>258.0</ele><time>2026-04-21T13:45:24.314Z</time></trkpt><trkpt lat="44.3423025" lon="9.1735811"><ele>258.0</ele><time>2026-04-21T13:45:25.319Z</time></trkpt><trkpt lat="44.3422041" lon="9.173566"><ele>258.0</ele><time>2026-04-21T13:45:26.318Z</time></trkpt><trkpt lat="44.3421102" lon="9.1735541"><ele>261.6</ele><time>2026-04-21T13:45:27.315Z</time></trkpt><trkpt lat="44.3420209" lon="9.1735701"><ele>265.20000000000005</ele><time>2026-04-21T13:45:28.315Z</time></trkpt><trkpt lat="44.3419414" lon="9.173618"><ele>268.8</ele><time>2026-04-21T13:45:29.309Z</time></trkpt><trkpt lat="44.3418684" lon="9.1736999"><ele>272.40000000000003</ele><time>2026-04-21T13:45:30.304Z</time></trkpt><trkpt lat="44.3417928" lon="9.1737936"><ele>276.0</ele><time>2026-04-21T13:45:31.319Z</time></trkpt><trkpt lat="44.3417148" lon="9.1738882"><ele>276.0</ele><time>2026-04-21T13:45:32.317Z</time></trkpt><trkpt lat="44.3416443" lon="9.1739855"><ele>276.0</ele><time>2026-04-21T13:45:33.317Z</time></trkpt><trkpt lat="44.3415761" lon="9.1740842"><ele>276.0</ele><time>2026-04-21T13:45:34.306Z</time></trkpt><trkpt lat="44.3415014" lon="9.1741792"><ele>276.0</ele><time>2026-04-21T13:45:35.308Z</time></trkpt><trkpt lat="44.3414177" lon="9.1742655"><ele>276.0</ele><time>2026-04-21T13:45:36.303Z</time></trkpt><trkpt lat="44.3413388" lon="9.1743403"><ele>274.6</ele><time>2026-04-21T13:45:37.319Z</time></trkpt><trkpt lat="44.3412629" lon="9.1744067"><ele>273.20000000000005</ele><time>2026-04-21T13:45:38.318Z</time></trkpt><trkpt lat="44.3411994" lon="9.1744819"><ele>271.79999999999995</ele><time>2026-04-21T13:45:39.322Z</time></trkpt><trkpt lat="44.3411507" lon="9.1745861"><ele>270.4</ele><time>2026-04-21T13:45:40.306Z</time></trkpt><trkpt lat="44.3411279" lon="9.1747222"><ele>269.0</ele><time>2026-04-21T13:45:41.304Z</time></trkpt><trkpt lat="44.3411349" lon="9.1748712"><ele>266.59999999999997</ele><time>2026-04-21T13:45:42.321Z</time></trkpt><trkpt lat="44.3411585" lon="9.1750013"><ele>264.2</ele><time>2026-04-21T13:45:43.308Z</time></trkpt><trkpt lat="44.3412163" lon="9.1750974"><ele>261.79999999999995</ele><time>2026-04-21T13:45:44.319Z</time></trkpt><trkpt lat="44.3412977" lon="9.1751535"><ele>259.4</ele><time>2026-04-21T13:45:45.307Z</time></trkpt><trkpt lat="44.3414372" lon="9.1751142"><ele>257.0</ele><time>2026-04-21T13:45:46.309Z</time></trkpt><trkpt lat="44.34153" lon="9.1751642"><ele>255.0</ele><time>2026-04-21T13:45:47.315Z</time></trkpt><trkpt lat="44.3415957" lon="9.1752012"><ele>253.0</ele><time>2026-04-21T13:45:48.319Z</time></trkpt><trkpt lat="44.3416897" lon="9.1752457"><ele>251.0</ele><time>2026-04-21T13:45:49.316Z</time></trkpt><trkpt lat="44.3417971" lon="9.1752838"><ele>249.0</ele><time>2026-04-21T13:45:50.316Z</time></trkpt><trkpt lat="44.3419088" lon="9.1753137"><ele>247.0</ele><time>2026-04-21T13:45:51.317Z</time></trkpt><trkpt lat="44.3420176" lon="9.1753254"><ele>247.0</ele><time>2026-04-21T13:45:52.312Z</time></trkpt><trkpt lat="44.3421284" lon="9.1753178"><ele>247.0</ele><time>2026-04-21T13:45:53.31Z</time></trkpt><trkpt lat="44.3422376" lon="9.1752927"><ele>247.0</ele><time>2026-04-21T13:45:54.32Z</time></trkpt><trkpt lat="44.3423399" lon="9.1752582"><ele>247.0</ele><time>2026-04-21T13:45:55.321Z</time></trkpt><trkpt lat="44.3424333" lon="9.1752253"><ele>247.0</ele><time>2026-04-21T13:45:56.316Z</time></trkpt><trkpt lat="44.3425362" lon="9.1751975"><ele>246.0</ele><time>2026-04-21T13:45:57.305Z</time></trkpt><trkpt lat="44.3426403" lon="9.1751788"><ele>245.0</ele><time>2026-04-21T13:45:58.307Z</time></trkpt><trkpt lat="44.3427423" lon="9.1751778"><ele>244.0</ele><time>2026-04-21T13:45:59.315Z</time></trkpt><trkpt lat="44.3428399" lon="9.1752036"><ele>243.0</ele><time>2026-04-21T13:46:00.308Z</time></trkpt><trkpt lat="44.3429343" lon="9.1752522"><ele>242.0</ele><time>2026-04-21T13:46:01.305Z</time></trkpt><trkpt lat="44.3430081" lon="9.175301"><ele>240.8</ele><time>2026-04-21T13:46:02.305Z</time></trkpt><trkpt lat="44.3430608" lon="9.1753506"><ele>239.6</ele><time>2026-04-21T13:46:03.306Z</time></trkpt><trkpt lat="44.3431511" lon="9.1754185"><ele>238.40000000000003</ele><time>2026-04-21T13:46:05.31Z</time></trkpt><trkpt lat="44.3432445" lon="9.1755619"><ele>237.20000000000002</ele><time>2026-04-21T13:46:07.303Z</time></trkpt><trkpt lat="44.3432902" lon="9.175668"><ele>236.0</ele><time>2026-04-21T13:46:08.305Z</time></trkpt><trkpt lat="44.3433376" lon="9.1757774"><ele>240.0</ele><time>2026-04-21T13:46:09.304Z</time></trkpt><trkpt lat="44.3433881" lon="9.1759033"><ele>244.0</ele><time>2026-04-21T13:46:10.302Z</time></trkpt><trkpt lat="44.3434479" lon="9.1760439"><ele>248.0</ele><time>2026-04-21T13:46:11.298Z</time></trkpt><trkpt lat="44.3435269" lon="9.1762094"><ele>252.0</ele><time>2026-04-21T13:46:12.302Z</time></trkpt><trkpt lat="44.343615" lon="9.1764108"><ele>254.66666666666669</ele><time>2026-04-21T13:46:13.306Z</time></trkpt><trkpt lat="44.3437056" lon="9.1766424"><ele>257.33333333333337</ele><time>2026-04-21T13:46:14.307Z</time></trkpt><trkpt lat="44.3437883" lon="9.1768703"><ele>260.0</ele><time>2026-04-21T13:46:15.301Z</time></trkpt><trkpt lat="44.3438638" lon="9.1770738"><ele>255.25</ele><time>2026-04-21T13:46:16.301Z</time></trkpt><trkpt lat="44.3439189" lon="9.1772575"><ele>250.5</ele><time>2026-04-21T13:46:17.307Z</time></trkpt><trkpt lat="44.3439347" lon="9.1774325"><ele>245.75</ele><time>2026-04-21T13:46:18.302Z</time></trkpt><trkpt lat="44.3439156" lon="9.1776027"><ele>241.0</ele><time>2026-04-21T13:46:19.304Z</time></trkpt><trkpt lat="44.3438906" lon="9.1777277"><ele>241.0</ele><time>2026-04-21T13:46:20.311Z</time></trkpt><trkpt lat="44.3438802" lon="9.1778271"><ele>241.00000000000003</ele><time>2026-04-21T13:46:21.301Z</time></trkpt><trkpt lat="44.3438671" lon="9.1779337"><ele>241.00000000000003</ele><time>2026-04-21T13:46:22.308Z</time></trkpt><trkpt lat="44.343858" lon="9.1780681"><ele>241.0</ele><time>2026-04-21T13:46:23.306Z</time></trkpt><trkpt lat="44.3438486" lon="9.1782232"><ele>241.0</ele><time>2026-04-21T13:46:24.303Z</time></trkpt><trkpt lat="44.343843" lon="9.1783966"><ele>245.75</ele><time>2026-04-21T13:46:25.305Z</time></trkpt><trkpt lat="44.3438329" lon="9.1785774"><ele>250.5</ele><time>2026-04-21T13:46:26.303Z</time></trkpt><trkpt lat="44.3438198" lon="9.1787592"><ele>255.25</ele><time>2026-04-21T13:46:27.307Z</time></trkpt><trkpt lat="44.3438067" lon="9.1789452"><ele>260.0</ele><time>2026-04-21T13:46:28.304Z</time></trkpt><trkpt lat="44.3437926" lon="9.1791359"><ele>260.0</ele><time>2026-04-21T13:46:29.306Z</time></trkpt><trkpt lat="44.3437816" lon="9.179334"><ele>260.0</ele><time>2026-04-21T13:46:30.305Z</time></trkpt><trkpt lat="44.3437665" lon="9.1795323"><ele>260.0</ele><time>2026-04-21T13:46:31.304Z</time></trkpt><trkpt lat="44.3437544" lon="9.1797336"><ele>260.0</ele><time>2026-04-21T13:46:32.303Z</time></trkpt><trkpt lat="44.3437495" lon="9.179941"><ele>259.75</ele><time>2026-04-21T13:46:33.31Z</time></trkpt><trkpt lat="44.3437542" lon="9.1801507"><ele>259.5</ele><time>2026-04-21T13:46:34.304Z</time></trkpt><trkpt lat="44.343777" lon="9.1803547"><ele>259.25</ele><time>2026-04-21T13:46:35.298Z</time></trkpt><trkpt lat="44.3438109" lon="9.1805503"><ele>259.0</ele><time>2026-04-21T13:46:36.304Z</time></trkpt><trkpt lat="44.3438438" lon="9.1807386"><ele>259.5</ele><time>2026-04-21T13:46:37.306Z</time></trkpt><trkpt lat="44.3438495" lon="9.1809235"><ele>260.0</ele><time>2026-04-21T13:46:38.305Z</time></trkpt><trkpt lat="44.3438453" lon="9.18113"><ele>260.5</ele><time>2026-04-21T13:46:39.305Z</time></trkpt><trkpt lat="44.3438271" lon="9.1813293"><ele>261.0</ele><time>2026-04-21T13:46:40.306Z</time></trkpt><trkpt lat="44.3438034" lon="9.1815224"><ele>259.25</ele><time>2026-04-21T13:46:41.303Z</time></trkpt><trkpt lat="44.3437772" lon="9.1817069"><ele>257.5</ele><time>2026-04-21T13:46:42.307Z</time></trkpt><trkpt lat="44.343756" lon="9.1818841"><ele>255.75</ele><time>2026-04-21T13:46:43.305Z</time></trkpt><trkpt lat="44.3437399" lon="9.1820602"><ele>254.0</ele><time>2026-04-21T13:46:44.308Z</time></trkpt><trkpt lat="44.3437243" lon="9.1822237"><ele>251.5</ele><time>2026-04-21T13:46:45.306Z</time></trkpt><trkpt lat="44.3437118" lon="9.1823846"><ele>249.0</ele><time>2026-04-21T13:46:46.307Z</time></trkpt><trkpt lat="44.3437001" lon="9.1825455"><ele>246.5</ele><time>2026-04-21T13:46:47.306Z</time></trkpt><trkpt lat="44.3436856" lon="9.1827045"><ele>244.0</ele><time>2026-04-21T13:46:48.312Z</time></trkpt><trkpt lat="44.343669" lon="9.1828649"><ele>244.0</ele><time>2026-04-21T13:46:49.306Z</time></trkpt><trkpt lat="44.3436525" lon="9.1830243"><ele>243.99999999999997</ele><time>2026-04-21T13:46:50.306Z</time></trkpt><trkpt lat="44.3436374" lon="9.1831632"><ele>243.99999999999997</ele><time>2026-04-21T13:46:51.305Z</time></trkpt><trkpt lat="44.34362" lon="9.1832876"><ele>244.0</ele><time>2026-04-21T13:46:52.303Z</time></trkpt><trkpt lat="44.3435925" lon="9.1833984"><ele>244.0</ele><time>2026-04-21T13:46:53.312Z</time></trkpt><trkpt lat="44.3435518" lon="9.1834909"><ele>243.2</ele><time>2026-04-21T13:46:54.307Z</time></trkpt><trkpt lat="44.3434935" lon="9.1835685"><ele>242.39999999999998</ele><time>2026-04-21T13:46:55.305Z</time></trkpt><trkpt lat="44.3434123" lon="9.1836188"><ele>241.6</ele><time>2026-04-21T13:46:56.308Z</time></trkpt><trkpt lat="44.3433204" lon="9.1836454"><ele>240.8</ele><time>2026-04-21T13:46:57.302Z</time></trkpt><trkpt lat="44.343221" lon="9.1836326"><ele>240.0</ele><time>2026-04-21T13:46:58.308Z</time></trkpt><trkpt lat="44.3431217" lon="9.1835878"><ele>237.2</ele><time>2026-04-21T13:46:59.306Z</time></trkpt><trkpt lat="44.3430282" lon="9.1835224"><ele>234.4</ele><time>2026-04-21T13:47:00.308Z</time></trkpt><trkpt lat="44.3429484" lon="9.1834606"><ele>231.60000000000002</ele><time>2026-04-21T13:47:01.309Z</time></trkpt><trkpt lat="44.342873" lon="9.1834"><ele>228.8</ele><time>2026-04-21T13:47:02.313Z</time></trkpt><trkpt lat="44.342799" lon="9.1833335"><ele>226.0</ele><time>2026-04-21T13:47:03.312Z</time></trkpt><trkpt lat="44.3427292" lon="9.1832538"><ele>229.20000000000002</ele><time>2026-04-21T13:47:04.305Z</time></trkpt><trkpt lat="44.3426649" lon="9.1831499"><ele>232.40000000000003</ele><time>2026-04-21T13:47:05.308Z</time></trkpt><trkpt lat="44.3426028" lon="9.1830358"><ele>235.6</ele><time>2026-04-21T13:47:06.311Z</time></trkpt><trkpt lat="44.342532" lon="9.1829349"><ele>238.8</ele><time>2026-04-21T13:47:07.304Z</time></trkpt><trkpt lat="44.3424546" lon="9.1828371"><ele>242.0</ele><time>2026-04-21T13:47:08.307Z</time></trkpt><trkpt lat="44.3423679" lon="9.1827475"><ele>242.0</ele><time>2026-04-21T13:47:09.304Z</time></trkpt><trkpt lat="44.3422682" lon="9.182662"><ele>242.0</ele><time>2026-04-21T13:47:10.312Z</time></trkpt><trkpt lat="44.3421573" lon="9.1825663"><ele>242.0</ele><time>2026-04-21T13:47:11.307Z</time></trkpt><trkpt lat="44.3420278" lon="9.1824544"><ele>242.0</ele><time>2026-04-21T13:47:12.31Z</time></trkpt><trkpt lat="44.3418823" lon="9.1823222"><ele>243.33333333333334</ele><time>2026-04-21T13:47:13.305Z</time></trkpt><trkpt lat="44.3417352" lon="9.1821993"><ele>244.66666666666669</ele><time>2026-04-21T13:47:14.312Z</time></trkpt><trkpt lat="44.3415838" lon="9.1821128"><ele>246.0</ele><time>2026-04-21T13:47:15.304Z</time></trkpt><trkpt lat="44.3414244" lon="9.1820733"><ele>243.66666666666669</ele><time>2026-04-21T13:47:16.307Z</time></trkpt><trkpt lat="44.341266" lon="9.182058"><ele>241.33333333333334</ele><time>2026-04-21T13:47:17.307Z</time></trkpt><trkpt lat="44.3411173" lon="9.1820487"><ele>239.0</ele><time>2026-04-21T13:47:18.306Z</time></trkpt><trkpt lat="44.340973" lon="9.1820389"><ele>239.0</ele><time>2026-04-21T13:47:19.308Z</time></trkpt><trkpt lat="44.3408254" lon="9.1820228"><ele>239.0</ele><time>2026-04-21T13:47:20.306Z</time></trkpt><trkpt lat="44.3406724" lon="9.1820033"><ele>239.0</ele><time>2026-04-21T13:47:21.298Z</time></trkpt><trkpt lat="44.340515" lon="9.1819792"><ele>236.66666666666669</ele><time>2026-04-21T13:47:22.302Z</time></trkpt><trkpt lat="44.3403537" lon="9.181951"><ele>234.33333333333331</ele><time>2026-04-21T13:47:23.306Z</time></trkpt><trkpt lat="44.3401908" lon="9.1819236"><ele>232.0</ele><time>2026-04-21T13:47:24.301Z</time></trkpt><trkpt lat="44.3400313" lon="9.181892"><ele>232.0</ele><time>2026-04-21T13:47:25.3Z</time></trkpt><trkpt lat="44.339882" lon="9.1818616"><ele>232.0</ele><time>2026-04-21T13:47:26.301Z</time></trkpt><trkpt lat="44.3397435" lon="9.1818578"><ele>232.0</ele><time>2026-04-21T13:47:27.296Z</time></trkpt><trkpt lat="44.3396238" lon="9.1818984"><ele>232.0</ele><time>2026-04-21T13:47:28.305Z</time></trkpt><trkpt lat="44.3395202" lon="9.1820059"><ele>230.66666666666666</ele><time>2026-04-21T13:47:29.302Z</time></trkpt><trkpt lat="44.3394302" lon="9.1821649"><ele>229.33333333333331</ele><time>2026-04-21T13:47:30.298Z</time></trkpt><trkpt lat="44.3393612" lon="9.1823596"><ele>228.0</ele><time>2026-04-21T13:47:31.301Z</time></trkpt><trkpt lat="44.3393131" lon="9.1825748"><ele>228.0</ele><time>2026-04-21T13:47:32.303Z</time></trkpt><trkpt lat="44.3392763" lon="9.1827911"><ele>228.0</ele><time>2026-04-21T13:47:33.301Z</time></trkpt><trkpt lat="44.3392621" lon="9.1830156"><ele>228.0</ele><time>2026-04-21T13:47:34.299Z</time></trkpt><trkpt lat="44.3392644" lon="9.1832355"><ele>225.0</ele><time>2026-04-21T13:47:35.3Z</time></trkpt><trkpt lat="44.3392692" lon="9.1834564"><ele>222.0</ele><time>2026-04-21T13:47:36.302Z</time></trkpt><trkpt lat="44.3392641" lon="9.1836717"><ele>219.0</ele><time>2026-04-21T13:47:37.303Z</time></trkpt><trkpt lat="44.3392428" lon="9.1838774"><ele>216.75</ele><time>2026-04-21T13:47:38.306Z</time></trkpt><trkpt lat="44.3392016" lon="9.1840772"><ele>214.5</ele><time>2026-04-21T13:47:39.302Z</time></trkpt><trkpt lat="44.3391694" lon="9.1842691"><ele>212.25</ele><time>2026-04-21T13:47:40.303Z</time></trkpt><trkpt lat="44.3391593" lon="9.1844712"><ele>210.0</ele><time>2026-04-21T13:47:41.297Z</time></trkpt><trkpt lat="44.3391604" lon="9.1846849"><ele>207.75</ele><time>2026-04-21T13:47:42.299Z</time></trkpt><trkpt lat="44.3391421" lon="9.1848842"><ele>205.5</ele><time>2026-04-21T13:47:43.299Z</time></trkpt><trkpt lat="44.3391002" lon="9.1850671"><ele>203.25</ele><time>2026-04-21T13:47:44.303Z</time></trkpt><trkpt lat="44.3390601" lon="9.1852234"><ele>201.0</ele><time>2026-04-21T13:47:45.303Z</time></trkpt><trkpt lat="44.3390314" lon="9.1853624"><ele>201.0</ele><time>2026-04-21T13:47:46.307Z</time></trkpt><trkpt lat="44.3390243" lon="9.185506"><ele>201.0</ele><time>2026-04-21T13:47:47.305Z</time></trkpt><trkpt lat="44.339026" lon="9.1856554"><ele>201.0</ele><time>2026-04-21T13:47:48.305Z</time></trkpt><trkpt lat="44.3390315" lon="9.1858091"><ele>201.0</ele><time>2026-04-21T13:47:49.302Z</time></trkpt><trkpt lat="44.3390389" lon="9.1859655"><ele>201.0</ele><time>2026-04-21T13:47:50.307Z</time></trkpt><trkpt lat="44.3390495" lon="9.1861292"><ele>199.0</ele><time>2026-04-21T13:47:51.303Z</time></trkpt><trkpt lat="44.339062" lon="9.1862894"><ele>197.0</ele><time>2026-04-21T13:47:52.303Z</time></trkpt><trkpt lat="44.339075" lon="9.1864486"><ele>195.0</ele><time>2026-04-21T13:47:53.31Z</time></trkpt><trkpt lat="44.33909" lon="9.1866105"><ele>193.0</ele><time>2026-04-21T13:47:54.308Z</time></trkpt><trkpt lat="44.3391095" lon="9.1867675"><ele>192.4</ele><time>2026-04-21T13:47:55.307Z</time></trkpt><trkpt lat="44.3391262" lon="9.1869194"><ele>191.8</ele><time>2026-04-21T13:47:56.303Z</time></trkpt><trkpt lat="44.3391539" lon="9.1870673"><ele>191.2</ele><time>2026-04-21T13:47:57.305Z</time></trkpt><trkpt lat="44.3391827" lon="9.1872069"><ele>190.6</ele><time>2026-04-21T13:47:58.309Z</time></trkpt><trkpt lat="44.3392183" lon="9.1873435"><ele>190.0</ele><time>2026-04-21T13:47:59.304Z</time></trkpt><trkpt lat="44.3392568" lon="9.1874856"><ele>189.5</ele><time>2026-04-21T13:48:00.308Z</time></trkpt><trkpt lat="44.3392958" lon="9.1876421"><ele>189.0</ele><time>2026-04-21T13:48:01.305Z</time></trkpt><trkpt lat="44.3393385" lon="9.1878107"><ele>188.5</ele><time>2026-04-21T13:48:02.298Z</time></trkpt><trkpt lat="44.3393841" lon="9.1879799"><ele>188.0</ele><time>2026-04-21T13:48:03.304Z</time></trkpt><trkpt lat="44.3394339" lon="9.1881523"><ele>186.75</ele><time>2026-04-21T13:48:04.302Z</time></trkpt><trkpt lat="44.3394828" lon="9.1883273"><ele>185.5</ele><time>2026-04-21T13:48:05.308Z</time></trkpt><trkpt lat="44.3395256" lon="9.1885014"><ele>184.25</ele><time>2026-04-21T13:48:06.307Z</time></trkpt><trkpt lat="44.3395549" lon="9.1886723"><ele>183.0</ele><time>2026-04-21T13:48:07.304Z</time></trkpt><trkpt lat="44.3395741" lon="9.1888454"><ele>182.5</ele><time>2026-04-21T13:48:08.312Z</time></trkpt><trkpt lat="44.3395766" lon="9.1890195"><ele>182.0</ele><time>2026-04-21T13:48:09.308Z</time></trkpt><trkpt lat="44.3395536" lon="9.1891903"><ele>181.5</ele><time>2026-04-21T13:48:10.301Z</time></trkpt><trkpt lat="44.3395122" lon="9.1893656"><ele>181.0</ele><time>2026-04-21T13:48:11.306Z</time></trkpt><trkpt lat="44.3394704" lon="9.1895497"><ele>181.0</ele><time>2026-04-21T13:48:12.308Z</time></trkpt><trkpt lat="44.3394389" lon="9.1897305"><ele>181.0</ele><time>2026-04-21T13:48:13.306Z</time></trkpt><trkpt lat="44.3394125" lon="9.1899081"><ele>181.0</ele><time>2026-04-21T13:48:14.312Z</time></trkpt><trkpt lat="44.3394015" lon="9.1900949"><ele>181.0</ele><time>2026-04-21T13:48:15.305Z</time></trkpt><trkpt lat="44.3394009" lon="9.1902887"><ele>179.66666666666669</ele><time>2026-04-21T13:48:16.304Z</time></trkpt><trkpt lat="44.3394192" lon="9.1904913"><ele>178.33333333333334</ele><time>2026-04-21T13:48:17.306Z</time></trkpt><trkpt lat="44.339467" lon="9.1906986"><ele>177.0</ele><time>2026-04-21T13:48:18.308Z</time></trkpt><trkpt lat="44.3395459" lon="9.1909075"><ele>174.33333333333334</ele><time>2026-04-21T13:48:19.311Z</time></trkpt><trkpt lat="44.3396241" lon="9.1911147"><ele>171.66666666666669</ele><time>2026-04-21T13:48:20.312Z</time></trkpt><trkpt lat="44.3396681" lon="9.1913164"><ele>169.0</ele><time>2026-04-21T13:48:21.311Z</time></trkpt><trkpt lat="44.3396659" lon="9.1915276"><ele>167.33333333333334</ele><time>2026-04-21T13:48:22.304Z</time></trkpt><trkpt lat="44.3396233" lon="9.1917352"><ele>165.66666666666666</ele><time>2026-04-21T13:48:23.313Z</time></trkpt><trkpt lat="44.339571" lon="9.1919444"><ele>164.0</ele><time>2026-04-21T13:48:24.311Z</time></trkpt><trkpt lat="44.3395214" lon="9.1921477"><ele>163.0</ele><time>2026-04-21T13:48:25.31Z</time></trkpt><trkpt lat="44.3394919" lon="9.1923547"><ele>162.0</ele><time>2026-04-21T13:48:26.31Z</time></trkpt><trkpt lat="44.3395055" lon="9.1925738"><ele>161.0</ele><time>2026-04-21T13:48:27.305Z</time></trkpt><trkpt lat="44.3395478" lon="9.1927949"><ele>161.0</ele><time>2026-04-21T13:48:28.309Z</time></trkpt><trkpt lat="44.3396144" lon="9.1930004"><ele>161.0</ele><time>2026-04-21T13:48:29.31Z</time></trkpt><trkpt lat="44.3396839" lon="9.1932"><ele>161.0</ele><time>2026-04-21T13:48:30.307Z</time></trkpt><trkpt lat="44.3397613" lon="9.1933983"><ele>167.66666666666666</ele><time>2026-04-21T13:48:31.306Z</time></trkpt><trkpt lat="44.3398302" lon="9.1936049"><ele>174.33333333333334</ele><time>2026-04-21T13:48:32.307Z</time></trkpt><trkpt lat="44.3398822" lon="9.1938168"><ele>181.0</ele><time>2026-04-21T13:48:33.303Z</time></trkpt><trkpt lat="44.3399218" lon="9.1940304"><ele>181.0</ele><time>2026-04-21T13:48:34.307Z</time></trkpt><trkpt lat="44.3399507" lon="9.1942453"><ele>181.0</ele><time>2026-04-21T13:48:35.299Z</time></trkpt><trkpt lat="44.3399704" lon="9.1944672"><ele>181.0</ele><time>2026-04-21T13:48:36.302Z</time></trkpt><trkpt lat="44.33999" lon="9.194689"><ele>179.33333333333334</ele><time>2026-04-21T13:48:37.306Z</time></trkpt><trkpt lat="44.3400192" lon="9.1949024"><ele>177.66666666666666</ele><time>2026-04-21T13:48:38.301Z</time></trkpt><trkpt lat="44.3400772" lon="9.1951059"><ele>176.0</ele><time>2026-04-21T13:48:39.302Z</time></trkpt><trkpt lat="44.3401503" lon="9.1953034"><ele>176.0</ele><time>2026-04-21T13:48:40.304Z</time></trkpt><trkpt lat="44.3402198" lon="9.1955025"><ele>176.0</ele><time>2026-04-21T13:48:41.305Z</time></trkpt><trkpt lat="44.3402733" lon="9.1957051"><ele>176.0</ele><time>2026-04-21T13:48:42.307Z</time></trkpt><trkpt lat="44.3403059" lon="9.1959148"><ele>174.0</ele><time>2026-04-21T13:48:43.312Z</time></trkpt><trkpt lat="44.3403088" lon="9.1961291"><ele>172.0</ele><time>2026-04-21T13:48:44.303Z</time></trkpt><trkpt lat="44.3402899" lon="9.1963474"><ele>170.0</ele><time>2026-04-21T13:48:45.3Z</time></trkpt><trkpt lat="44.340274" lon="9.1965697"><ele>168.66666666666666</ele><time>2026-04-21T13:48:46.3Z</time></trkpt><trkpt lat="44.3402671" lon="9.1967881"><ele>167.33333333333334</ele><time>2026-04-21T13:48:47.301Z</time></trkpt><trkpt lat="44.3402837" lon="9.1970034"><ele>166.0</ele><time>2026-04-21T13:48:48.3Z</time></trkpt><trkpt lat="44.3403334" lon="9.1972021"><ele>165.25</ele><time>2026-04-21T13:48:49.306Z</time></trkpt><trkpt lat="44.3403961" lon="9.1973941"><ele>164.5</ele><time>2026-04-21T13:48:50.305Z</time></trkpt><trkpt lat="44.3404228" lon="9.197596"><ele>163.75</ele><time>2026-04-21T13:48:51.304Z</time></trkpt><trkpt lat="44.3404093" lon="9.1978002"><ele>163.0</ele><time>2026-04-21T13:48:52.301Z</time></trkpt><trkpt lat="44.3403559" lon="9.1980037"><ele>163.0</ele><time>2026-04-21T13:48:53.306Z</time></trkpt><trkpt lat="44.3402807" lon="9.198211"><ele>163.0</ele><time>2026-04-21T13:48:54.304Z</time></trkpt><trkpt lat="44.3402068" lon="9.1984185"><ele>163.0</ele><time>2026-04-21T13:48:55.308Z</time></trkpt><trkpt lat="44.3401383" lon="9.1986374"><ele>163.0</ele><time>2026-04-21T13:48:56.307Z</time></trkpt><trkpt lat="44.3400839" lon="9.1988687"><ele>163.0</ele><time>2026-04-21T13:48:57.305Z</time></trkpt><trkpt lat="44.3400532" lon="9.1991015"><ele>163.0</ele><time>2026-04-21T13:48:58.301Z</time></trkpt><trkpt lat="44.3400563" lon="9.1993273"><ele>163.66666666666669</ele><time>2026-04-21T13:48:59.302Z</time></trkpt><trkpt lat="44.340105" lon="9.1995182"><ele>164.33333333333334</ele><time>2026-04-21T13:49:00.308Z</time></trkpt><trkpt lat="44.3402111" lon="9.199672"><ele>165.0</ele><time>2026-04-21T13:49:01.305Z</time></trkpt><trkpt lat="44.3403492" lon="9.1998055"><ele>161.33333333333334</ele><time>2026-04-21T13:49:02.309Z</time></trkpt><trkpt lat="44.3404812" lon="9.1999707"><ele>157.66666666666669</ele><time>2026-04-21T13:49:03.304Z</time></trkpt><trkpt lat="44.3405887" lon="9.2001771"><ele>154.0</ele><time>2026-04-21T13:49:04.305Z</time></trkpt><trkpt lat="44.3406658" lon="9.2003904"><ele>160.25</ele><time>2026-04-21T13:49:05.301Z</time></trkpt><trkpt lat="44.3407177" lon="9.2005971"><ele>166.5</ele><time>2026-04-21T13:49:06.306Z</time></trkpt><trkpt lat="44.3407456" lon="9.2007908"><ele>172.75</ele><time>2026-04-21T13:49:07.301Z</time></trkpt><trkpt lat="44.3407363" lon="9.2009843"><ele>179.0</ele><time>2026-04-21T13:49:08.306Z</time></trkpt><trkpt lat="44.3407113" lon="9.2011828"><ele>179.0</ele><time>2026-04-21T13:49:09.307Z</time></trkpt><trkpt lat="44.3407058" lon="9.2013681"><ele>179.0</ele><time>2026-04-21T13:49:10.308Z</time></trkpt><trkpt lat="44.3407402" lon="9.2015273"><ele>179.0</ele><time>2026-04-21T13:49:11.3Z</time></trkpt><trkpt lat="44.3408208" lon="9.2016952"><ele>179.0</ele><time>2026-04-21T13:49:12.306Z</time></trkpt><trkpt lat="44.3409242" lon="9.2018812"><ele>175.66666666666666</ele><time>2026-04-21T13:49:13.306Z</time></trkpt><trkpt lat="44.3410022" lon="9.2020688"><ele>172.33333333333334</ele><time>2026-04-21T13:49:14.307Z</time></trkpt><trkpt lat="44.3410392" lon="9.2022748"><ele>169.0</ele><time>2026-04-21T13:49:15.304Z</time></trkpt><trkpt lat="44.3410474" lon="9.2024984"><ele>165.0</ele><time>2026-04-21T13:49:16.307Z</time></trkpt><trkpt lat="44.3410386" lon="9.2027262"><ele>161.0</ele><time>2026-04-21T13:49:17.294Z</time></trkpt><trkpt lat="44.341024" lon="9.2029548"><ele>157.0</ele><time>2026-04-21T13:49:18.302Z</time></trkpt><trkpt lat="44.341017" lon="9.2031777"><ele>156.25</ele><time>2026-04-21T13:49:19.303Z</time></trkpt><trkpt lat="44.3410197" lon="9.2033944"><ele>155.5</ele><time>2026-04-21T13:49:20.307Z</time></trkpt><trkpt lat="44.3410187" lon="9.2036021"><ele>154.75</ele><time>2026-04-21T13:49:21.301Z</time></trkpt><trkpt lat="44.3410169" lon="9.2038008"><ele>154.0</ele><time>2026-04-21T13:49:22.297Z</time></trkpt><trkpt lat="44.3410308" lon="9.2039864"><ele>153.5</ele><time>2026-04-21T13:49:23.309Z</time></trkpt><trkpt lat="44.3410911" lon="9.2041459"><ele>153.0</ele><time>2026-04-21T13:49:24.303Z</time></trkpt><trkpt lat="44.3411852" lon="9.2043061"><ele>152.5</ele><time>2026-04-21T13:49:25.3Z</time></trkpt><trkpt lat="44.3412842" lon="9.2044833"><ele>152.0</ele><time>2026-04-21T13:49:26.301Z</time></trkpt><trkpt lat="44.3413466" lon="9.2046826"><ele>149.33333333333331</ele><time>2026-04-21T13:49:27.3Z</time></trkpt><trkpt lat="44.3413481" lon="9.2048898"><ele>146.66666666666666</ele><time>2026-04-21T13:49:28.302Z</time></trkpt><trkpt lat="44.3413112" lon="9.2051052"><ele>144.0</ele><time>2026-04-21T13:49:29.306Z</time></trkpt><trkpt lat="44.341257" lon="9.2053184"><ele>144.0</ele><time>2026-04-21T13:49:30.306Z</time></trkpt><trkpt lat="44.3412077" lon="9.2055196"><ele>144.0</ele><time>2026-04-21T13:49:31.302Z</time></trkpt><trkpt lat="44.3411785" lon="9.2057157"><ele>144.0</ele><time>2026-04-21T13:49:32.305Z</time></trkpt><trkpt lat="44.3411717" lon="9.2058852"><ele>144.0</ele><time>2026-04-21T13:49:33.306Z</time></trkpt><trkpt lat="44.3411762" lon="9.2060434"><ele>144.5</ele><time>2026-04-21T13:49:34.306Z</time></trkpt><trkpt lat="44.3412399" lon="9.2061801"><ele>145.0</ele><time>2026-04-21T13:49:35.307Z</time></trkpt><trkpt lat="44.3413164" lon="9.2063225"><ele>145.5</ele><time>2026-04-21T13:49:36.301Z</time></trkpt><trkpt lat="44.3413623" lon="9.2064828"><ele>146.0</ele><time>2026-04-21T13:49:37.305Z</time></trkpt><trkpt lat="44.3413822" lon="9.2066629"><ele>145.25</ele><time>2026-04-21T13:49:38.303Z</time></trkpt><trkpt lat="44.3413761" lon="9.2068492"><ele>144.5</ele><time>2026-04-21T13:49:39.304Z</time></trkpt><trkpt lat="44.3413608" lon="9.2070325"><ele>143.75</ele><time>2026-04-21T13:49:40.301Z</time></trkpt><trkpt lat="44.341346" lon="9.207201"><ele>143.0</ele><time>2026-04-21T13:49:41.305Z</time></trkpt><trkpt lat="44.3413344" lon="9.2073661"><ele>142.6</ele><time>2026-04-21T13:49:42.304Z</time></trkpt><trkpt lat="44.3413282" lon="9.2075188"><ele>142.20000000000002</ele><time>2026-04-21T13:49:43.301Z</time></trkpt><trkpt lat="44.3413243" lon="9.207665"><ele>141.8</ele><time>2026-04-21T13:49:44.303Z</time></trkpt><trkpt lat="44.3413158" lon="9.2078061"><ele>141.4</ele><time>2026-04-21T13:49:45.311Z</time></trkpt><trkpt lat="44.3413053" lon="9.2079475"><ele>141.0</ele><time>2026-04-21T13:49:46.307Z</time></trkpt><trkpt lat="44.3412966" lon="9.2080802"><ele>141.0</ele><time>2026-04-21T13:49:47.304Z</time></trkpt><trkpt lat="44.3412936" lon="9.2082093"><ele>141.0</ele><time>2026-04-21T13:49:48.3Z</time></trkpt><trkpt lat="44.3413009" lon="9.2083357"><ele>141.0</ele><time>2026-04-21T13:49:49.305Z</time></trkpt><trkpt lat="44.34131" lon="9.2084558"><ele>141.0</ele><time>2026-04-21T13:49:50.303Z</time></trkpt><trkpt lat="44.3413231" lon="9.2085786"><ele>141.0</ele><time>2026-04-21T13:49:51.305Z</time></trkpt><trkpt lat="44.3413451" lon="9.2087152"><ele>141.0</ele><time>2026-04-21T13:49:52.304Z</time></trkpt><trkpt lat="44.3413564" lon="9.2088635"><ele>141.0</ele><time>2026-04-21T13:49:53.307Z</time></trkpt><trkpt lat="44.341354" lon="9.2090158"><ele>141.0</ele><time>2026-04-21T13:49:54.301Z</time></trkpt><trkpt lat="44.3413429" lon="9.2091733"><ele>141.0</ele><time>2026-04-21T13:49:55.301Z</time></trkpt><trkpt lat="44.3413237" lon="9.2093345"><ele>141.0</ele><time>2026-04-21T13:49:56.305Z</time></trkpt><trkpt lat="44.3413082" lon="9.2095047"><ele>140.0</ele><time>2026-04-21T13:49:57.303Z</time></trkpt><trkpt lat="44.3412946" lon="9.2096797"><ele>139.0</ele><time>2026-04-21T13:49:58.308Z</time></trkpt><trkpt lat="44.3412816" lon="9.2098547"><ele>138.0</ele><time>2026-04-21T13:49:59.308Z</time></trkpt><trkpt lat="44.3412675" lon="9.2100223"><ele>137.0</ele><time>2026-04-21T13:50:00.301Z</time></trkpt><trkpt lat="44.3412506" lon="9.2101721"><ele>136.4</ele><time>2026-04-21T13:50:01.307Z</time></trkpt><trkpt lat="44.3412329" lon="9.2102969"><ele>135.79999999999998</ele><time>2026-04-21T13:50:02.306Z</time></trkpt><trkpt lat="44.3412182" lon="9.2103873"><ele>135.2</ele><time>2026-04-21T13:50:03.3Z</time></trkpt><trkpt lat="44.3412107" lon="9.2105664"><ele>134.6</ele><time>2026-04-21T13:50:26.32Z</time></trkpt><trkpt lat="44.341199" lon="9.2107079"><ele>134.0</ele><time>2026-04-21T13:50:27.316Z</time></trkpt><trkpt lat="44.3411887" lon="9.2108923"><ele>134.0</ele><time>2026-04-21T13:50:28.317Z</time></trkpt><trkpt lat="44.3411891" lon="9.2110974"><ele>134.0</ele><time>2026-04-21T13:50:29.316Z</time></trkpt><trkpt lat="44.3412169" lon="9.2113153"><ele>134.0</ele><time>2026-04-21T13:50:30.321Z</time></trkpt><trkpt lat="44.341267" lon="9.2115348"><ele>133.66666666666666</ele><time>2026-04-21T13:50:31.309Z</time></trkpt><trkpt lat="44.34132" lon="9.2117506"><ele>133.33333333333334</ele><time>2026-04-21T13:50:32.318Z</time></trkpt><trkpt lat="44.3413543" lon="9.2119651"><ele>133.0</ele><time>2026-04-21T13:50:33.318Z</time></trkpt><trkpt lat="44.3413649" lon="9.2121669"><ele>133.25</ele><time>2026-04-21T13:50:34.316Z</time></trkpt><trkpt lat="44.34136" lon="9.2123566"><ele>133.5</ele><time>2026-04-21T13:50:35.317Z</time></trkpt><trkpt lat="44.3413427" lon="9.2125356"><ele>133.75</ele><time>2026-04-21T13:50:36.308Z</time></trkpt><trkpt lat="44.3412935" lon="9.2127169"><ele>134.0</ele><time>2026-04-21T13:50:37.319Z</time></trkpt><trkpt lat="44.3412198" lon="9.212903"><ele>134.0</ele><time>2026-04-21T13:50:38.322Z</time></trkpt><trkpt lat="44.3411349" lon="9.2130961"><ele>134.0</ele><time>2026-04-21T13:50:39.324Z</time></trkpt><trkpt lat="44.3410637" lon="9.2132998"><ele>134.0</ele><time>2026-04-21T13:50:40.32Z</time></trkpt><trkpt lat="44.3410335" lon="9.2135174"><ele>135.66666666666666</ele><time>2026-04-21T13:50:41.31Z</time></trkpt><trkpt lat="44.3410261" lon="9.2137442"><ele>137.33333333333334</ele><time>2026-04-21T13:50:42.308Z</time></trkpt><trkpt lat="44.3410141" lon="9.2139588"><ele>139.0</ele><time>2026-04-21T13:50:43.306Z</time></trkpt><trkpt lat="44.3409883" lon="9.2141547"><ele>139.0</ele><time>2026-04-21T13:50:44.308Z</time></trkpt><trkpt lat="44.3409499" lon="9.2143439"><ele>139.0</ele><time>2026-04-21T13:50:45.306Z</time></trkpt><trkpt lat="44.3409204" lon="9.2145324"><ele>139.0</ele><time>2026-04-21T13:50:46.304Z</time></trkpt><trkpt lat="44.3409101" lon="9.214726"><ele>139.0</ele><time>2026-04-21T13:50:47.307Z</time></trkpt><trkpt lat="44.340933" lon="9.2149155"><ele>139.0</ele><time>2026-04-21T13:50:48.31Z</time></trkpt><trkpt lat="44.3410022" lon="9.2150789"><ele>139.0</ele><time>2026-04-21T13:50:49.303Z</time></trkpt><trkpt lat="44.3411071" lon="9.2152179"><ele>139.0</ele><time>2026-04-21T13:50:50.305Z</time></trkpt><trkpt lat="44.3412284" lon="9.2153056"><ele>139.0</ele><time>2026-04-21T13:50:51.305Z</time></trkpt><trkpt lat="44.3413705" lon="9.2153258"><ele>140.33333333333334</ele><time>2026-04-21T13:50:52.308Z</time></trkpt><trkpt lat="44.3415433" lon="9.2152484"><ele>141.66666666666666</ele><time>2026-04-21T13:50:53.31Z</time></trkpt><trkpt lat="44.3417216" lon="9.2151603"><ele>143.0</ele><time>2026-04-21T13:50:54.309Z</time></trkpt><trkpt lat="44.3418922" lon="9.215104"><ele>143.0</ele><time>2026-04-21T13:50:55.309Z</time></trkpt><trkpt lat="44.342067" lon="9.2150523"><ele>143.0</ele><time>2026-04-21T13:50:56.305Z</time></trkpt><trkpt lat="44.3422312" lon="9.2150008"><ele>143.0</ele><time>2026-04-21T13:50:57.314Z</time></trkpt><trkpt lat="44.3423873" lon="9.2149214"><ele>143.0</ele><time>2026-04-21T13:50:58.309Z</time></trkpt><trkpt lat="44.3425332" lon="9.2148131"><ele>143.0</ele><time>2026-04-21T13:50:59.3Z</time></trkpt><trkpt lat="44.342655" lon="9.2146751"><ele>143.0</ele><time>2026-04-21T13:51:00.307Z</time></trkpt><trkpt lat="44.3427645" lon="9.2145295"><ele>143.0</ele><time>2026-04-21T13:51:01.302Z</time></trkpt><trkpt lat="44.3428674" lon="9.2144094"><ele>143.0</ele><time>2026-04-21T13:51:02.307Z</time></trkpt><trkpt lat="44.3429724" lon="9.2143332"><ele>143.0</ele><time>2026-04-21T13:51:03.307Z</time></trkpt><trkpt lat="44.3430898" lon="9.2143097"><ele>143.0</ele><time>2026-04-21T13:51:04.302Z</time></trkpt><trkpt lat="44.3432048" lon="9.2143342"><ele>140.6</ele><time>2026-04-21T13:51:05.308Z</time></trkpt><trkpt lat="44.3433081" lon="9.2143824"><ele>138.20000000000002</ele><time>2026-04-21T13:51:06.309Z</time></trkpt><trkpt lat="44.3434069" lon="9.2143904"><ele>135.8</ele><time>2026-04-21T13:51:07.303Z</time></trkpt><trkpt lat="44.3435094" lon="9.2143694"><ele>133.4</ele><time>2026-04-21T13:51:08.305Z</time></trkpt><trkpt lat="44.3436172" lon="9.2142987"><ele>131.0</ele><time>2026-04-21T13:51:09.303Z</time></trkpt><trkpt lat="44.3437192" lon="9.2141822"><ele>131.0</ele><time>2026-04-21T13:51:10.309Z</time></trkpt><trkpt lat="44.3438036" lon="9.2140563"><ele>131.0</ele><time>2026-04-21T13:51:11.306Z</time></trkpt><trkpt lat="44.3438746" lon="9.2139147"><ele>131.0</ele><time>2026-04-21T13:51:12.304Z</time></trkpt><trkpt lat="44.3439625" lon="9.213834"><ele>131.0</ele><time>2026-04-21T13:51:13.304Z</time></trkpt><trkpt lat="44.3440538" lon="9.2137975"><ele>131.0</ele><time>2026-04-21T13:51:14.304Z</time></trkpt><trkpt lat="44.344137" lon="9.2137958"><ele>129.0</ele><time>2026-04-21T13:51:15.306Z</time></trkpt><trkpt lat="44.3442029" lon="9.2138834"><ele>127.0</ele><time>2026-04-21T13:51:16.303Z</time></trkpt><trkpt lat="44.3442453" lon="9.2141351"><ele>125.0</ele><time>2026-04-21T13:51:17.304Z</time></trkpt><trkpt lat="44.3442805" lon="9.2144205"><ele>125.0</ele><time>2026-04-21T13:51:18.308Z</time></trkpt><trkpt lat="44.3443086" lon="9.2146729"><ele>125.0</ele><time>2026-04-21T13:51:19.308Z</time></trkpt><trkpt lat="44.344325" lon="9.2149353"><ele>125.0</ele><time>2026-04-21T13:51:20.303Z</time></trkpt><trkpt lat="44.3443378" lon="9.2152138"><ele>119.33333333333333</ele><time>2026-04-21T13:51:21.303Z</time></trkpt><trkpt lat="44.3443577" lon="9.2154751"><ele>113.66666666666666</ele><time>2026-04-21T13:51:22.304Z</time></trkpt><trkpt lat="44.3443784" lon="9.2157154"><ele>108.0</ele><time>2026-04-21T13:51:23.306Z</time></trkpt><trkpt lat="44.3444067" lon="9.2159491"><ele>104.33333333333334</ele><time>2026-04-21T13:51:24.303Z</time></trkpt><trkpt lat="44.3444373" lon="9.2161756"><ele>100.66666666666667</ele><time>2026-04-21T13:51:25.306Z</time></trkpt><trkpt lat="44.3444668" lon="9.2164006"><ele>97.0</ele><time>2026-04-21T13:51:26.306Z</time></trkpt><trkpt lat="44.3444956" lon="9.2166227"><ele>92.33333333333334</ele><time>2026-04-21T13:51:27.307Z</time></trkpt><trkpt lat="44.3445248" lon="9.2168413"><ele>87.66666666666667</ele><time>2026-04-21T13:51:28.304Z</time></trkpt><trkpt lat="44.3445535" lon="9.2170599"><ele>83.0</ele><time>2026-04-21T13:51:29.307Z</time></trkpt><trkpt lat="44.3445805" lon="9.2172776"><ele>80.66666666666667</ele><time>2026-04-21T13:51:30.304Z</time></trkpt><trkpt lat="44.3446022" lon="9.2174916"><ele>78.33333333333333</ele><time>2026-04-21T13:51:31.301Z</time></trkpt><trkpt lat="44.3446242" lon="9.2176979"><ele>76.0</ele><time>2026-04-21T13:51:32.301Z</time></trkpt><trkpt lat="44.344649" lon="9.2178995"><ele>76.0</ele><time>2026-04-21T13:51:33.306Z</time></trkpt><trkpt lat="44.3446808" lon="9.2180952"><ele>76.0</ele><time>2026-04-21T13:51:34.305Z</time></trkpt><trkpt lat="44.3447125" lon="9.2182892"><ele>76.0</ele><time>2026-04-21T13:51:35.299Z</time></trkpt><trkpt lat="44.3447381" lon="9.2184838"><ele>76.0</ele><time>2026-04-21T13:51:36.304Z</time></trkpt><trkpt lat="44.3447281" lon="9.2186836"><ele>76.0</ele><time>2026-04-21T13:51:37.303Z</time></trkpt><trkpt lat="44.3446778" lon="9.2188784"><ele>76.0</ele><time>2026-04-21T13:51:38.305Z</time></trkpt><trkpt lat="44.3445965" lon="9.2190584"><ele>76.0</ele><time>2026-04-21T13:51:39.308Z</time></trkpt><trkpt lat="44.3444997" lon="9.2192284"><ele>76.0</ele><time>2026-04-21T13:51:40.308Z</time></trkpt><trkpt lat="44.3444044" lon="9.2193822"><ele>76.0</ele><time>2026-04-21T13:51:41.304Z</time></trkpt><trkpt lat="44.3443522" lon="9.2195479"><ele>76.0</ele><time>2026-04-21T13:51:42.304Z</time></trkpt><trkpt lat="44.3443632" lon="9.219744"><ele>76.0</ele><time>2026-04-21T13:51:43.304Z</time></trkpt><trkpt lat="44.3443877" lon="9.2199506"><ele>78.33333333333333</ele><time>2026-04-21T13:51:44.305Z</time></trkpt><trkpt lat="44.3444077" lon="9.2201698"><ele>80.66666666666667</ele><time>2026-04-21T13:51:45.304Z</time></trkpt><trkpt lat="44.3443778" lon="9.2203767"><ele>83.0</ele><time>2026-04-21T13:51:46.299Z</time></trkpt><trkpt lat="44.3443018" lon="9.2205749"><ele>83.33333333333334</ele><time>2026-04-21T13:51:47.303Z</time></trkpt><trkpt lat="44.3442232" lon="9.2207756"><ele>83.66666666666667</ele><time>2026-04-21T13:51:48.305Z</time></trkpt><trkpt lat="44.34417" lon="9.2209735"><ele>84.0</ele><time>2026-04-21T13:51:49.301Z</time></trkpt><trkpt lat="44.3441339" lon="9.2211686"><ele>84.0</ele><time>2026-04-21T13:51:50.305Z</time></trkpt><trkpt lat="44.3441098" lon="9.2213664"><ele>84.0</ele><time>2026-04-21T13:51:51.303Z</time></trkpt><trkpt lat="44.3440903" lon="9.2215556"><ele>84.0</ele><time>2026-04-21T13:51:52.308Z</time></trkpt><trkpt lat="44.3440557" lon="9.2217103"><ele>84.0</ele><time>2026-04-21T13:51:53.307Z</time></trkpt><trkpt lat="44.3440049" lon="9.2218449"><ele>84.0</ele><time>2026-04-21T13:51:54.306Z</time></trkpt><trkpt lat="44.3439521" lon="9.2219698"><ele>84.0</ele><time>2026-04-21T13:51:55.301Z</time></trkpt><trkpt lat="44.3439136" lon="9.2221003"><ele>84.0</ele><time>2026-04-21T13:51:56.298Z</time></trkpt><trkpt lat="44.3439017" lon="9.2222408"><ele>84.0</ele><time>2026-04-21T13:51:57.305Z</time></trkpt><trkpt lat="44.3438927" lon="9.2223836"><ele>84.0</ele><time>2026-04-21T13:51:58.308Z</time></trkpt><trkpt lat="44.3438764" lon="9.2225275"><ele>78.60000000000001</ele><time>2026-04-21T13:51:59.304Z</time></trkpt><trkpt lat="44.3438609" lon="9.2226606"><ele>73.2</ele><time>2026-04-21T13:52:00.303Z</time></trkpt><trkpt lat="44.3438418" lon="9.2227855"><ele>67.80000000000001</ele><time>2026-04-21T13:52:01.306Z</time></trkpt><trkpt lat="44.3438353" lon="9.2229073"><ele>62.400000000000006</ele><time>2026-04-21T13:52:02.305Z</time></trkpt><trkpt lat="44.3438448" lon="9.223034"><ele>57.0</ele><time>2026-04-21T13:52:03.308Z</time></trkpt><trkpt lat="44.3438639" lon="9.2231635"><ele>57.0</ele><time>2026-04-21T13:52:04.303Z</time></trkpt><trkpt lat="44.343868" lon="9.2232954"><ele>57.0</ele><time>2026-04-21T13:52:05.302Z</time></trkpt><trkpt lat="44.3438414" lon="9.2234255"><ele>57.0</ele><time>2026-04-21T13:52:06.305Z</time></trkpt><trkpt lat="44.3437887" lon="9.22356"><ele>57.0</ele><time>2026-04-21T13:52:07.309Z</time></trkpt><trkpt lat="44.3437202" lon="9.2236919"><ele>57.0</ele><time>2026-04-21T13:52:08.303Z</time></trkpt><trkpt lat="44.3436644" lon="9.2238357"><ele>57.25</ele><time>2026-04-21T13:52:09.301Z</time></trkpt><trkpt lat="44.3436359" lon="9.2239919"><ele>57.5</ele><time>2026-04-21T13:52:10.305Z</time></trkpt><trkpt lat="44.3436291" lon="9.2241523"><ele>57.75</ele><time>2026-04-21T13:52:11.307Z</time></trkpt><trkpt lat="44.3436345" lon="9.2243208"><ele>58.0</ele><time>2026-04-21T13:52:12.309Z</time></trkpt><trkpt lat="44.3436304" lon="9.2244949"><ele>58.0</ele><time>2026-04-21T13:52:13.303Z</time></trkpt><trkpt lat="44.3435995" lon="9.2246698"><ele>58.0</ele><time>2026-04-21T13:52:14.298Z</time></trkpt><trkpt lat="44.3435494" lon="9.2248318"><ele>58.0</ele><time>2026-04-21T13:52:15.304Z</time></trkpt><trkpt lat="44.3434842" lon="9.2249773"><ele>58.0</ele><time>2026-04-21T13:52:16.306Z</time></trkpt><trkpt lat="44.3434074" lon="9.2250906"><ele>59.0</ele><time>2026-04-21T13:52:17.303Z</time></trkpt><trkpt lat="44.3433272" lon="9.2251816"><ele>60.0</ele><time>2026-04-21T13:52:18.305Z</time></trkpt><trkpt lat="44.3432575" lon="9.2252671"><ele>61.0</ele><time>2026-04-21T13:52:19.306Z</time></trkpt><trkpt lat="44.3432152" lon="9.2253517"><ele>62.0</ele><time>2026-04-21T13:52:20.305Z</time></trkpt><trkpt lat="44.3431999" lon="9.2255227"><ele>63.0</ele><time>2026-04-21T13:52:22.309Z</time></trkpt><trkpt lat="44.343201" lon="9.2256174"><ele>62.166666666666664</ele><time>2026-04-21T13:52:23.309Z</time></trkpt><trkpt lat="44.3432029" lon="9.2257264"><ele>61.33333333333333</ele><time>2026-04-21T13:52:24.306Z</time></trkpt><trkpt lat="44.3432008" lon="9.2258365"><ele>60.5</ele><time>2026-04-21T13:52:25.308Z</time></trkpt><trkpt lat="44.3431923" lon="9.2259387"><ele>59.666666666666664</ele><time>2026-04-21T13:52:26.31Z</time></trkpt><trkpt lat="44.3431817" lon="9.2260427"><ele>58.83333333333333</ele><time>2026-04-21T13:52:27.307Z</time></trkpt><trkpt lat="44.343159" lon="9.2261479"><ele>58.0</ele><time>2026-04-21T13:52:28.304Z</time></trkpt><trkpt lat="44.3431181" lon="9.2262584"><ele>57.99999999999999</ele><time>2026-04-21T13:52:29.307Z</time></trkpt><trkpt lat="44.3430639" lon="9.2263584"><ele>58.0</ele><time>2026-04-21T13:52:30.307Z</time></trkpt><trkpt lat="44.3430044" lon="9.2264444"><ele>58.0</ele><time>2026-04-21T13:52:31.309Z</time></trkpt><trkpt lat="44.3429519" lon="9.2265225"><ele>58.0</ele><time>2026-04-21T13:52:32.309Z</time></trkpt><trkpt lat="44.3429053" lon="9.2265983"><ele>57.99999999999999</ele><time>2026-04-21T13:52:33.306Z</time></trkpt><trkpt lat="44.3428734" lon="9.2266787"><ele>58.0</ele><time>2026-04-21T13:52:34.304Z</time></trkpt><trkpt lat="44.3428783" lon="9.2268415"><ele>56.83333333333333</ele><time>2026-04-21T13:52:36.307Z</time></trkpt><trkpt lat="44.3429989" lon="9.2269275"><ele>55.666666666666664</ele><time>2026-04-21T13:52:38.305Z</time></trkpt><trkpt lat="44.3430773" lon="9.2269367"><ele>54.5</ele><time>2026-04-21T13:52:39.308Z</time></trkpt><trkpt lat="44.3431569" lon="9.2269156"><ele>53.33333333333333</ele><time>2026-04-21T13:52:40.305Z</time></trkpt><trkpt lat="44.3432195" lon="9.226865"><ele>52.166666666666664</ele><time>2026-04-21T13:52:41.305Z</time></trkpt><trkpt lat="44.3432642" lon="9.2267948"><ele>51.0</ele><time>2026-04-21T13:52:42.304Z</time></trkpt><trkpt lat="44.3433057" lon="9.2267237"><ele>51.0</ele><time>2026-04-21T13:52:43.304Z</time></trkpt><trkpt lat="44.3433524" lon="9.2266486"><ele>51.0</ele><time>2026-04-21T13:52:44.302Z</time></trkpt><trkpt lat="44.3434018" lon="9.2265704"><ele>51.0</ele><time>2026-04-21T13:52:45.309Z</time></trkpt><trkpt lat="44.3434589" lon="9.2264805"><ele>51.0</ele><time>2026-04-21T13:52:46.309Z</time></trkpt><trkpt lat="44.3435181" lon="9.2263873"><ele>51.0</ele><time>2026-04-21T13:52:47.311Z</time></trkpt><trkpt lat="44.3435826" lon="9.2262933"><ele>51.0</ele><time>2026-04-21T13:52:48.311Z</time></trkpt><trkpt lat="44.3436483" lon="9.2262099"><ele>50.4</ele><time>2026-04-21T13:52:49.308Z</time></trkpt><trkpt lat="44.3437181" lon="9.226135"><ele>49.8</ele><time>2026-04-21T13:52:50.308Z</time></trkpt><trkpt lat="44.3437924" lon="9.2260706"><ele>49.199999999999996</ele><time>2026-04-21T13:52:51.309Z</time></trkpt><trkpt lat="44.343875" lon="9.2260234"><ele>48.599999999999994</ele><time>2026-04-21T13:52:52.311Z</time></trkpt><trkpt lat="44.343966" lon="9.2260024"><ele>48.0</ele><time>2026-04-21T13:52:53.306Z</time></trkpt><trkpt lat="44.3440633" lon="9.2260099"><ele>48.0</ele><time>2026-04-21T13:52:54.302Z</time></trkpt><trkpt lat="44.3441593" lon="9.2260366"><ele>48.0</ele><time>2026-04-21T13:52:55.307Z</time></trkpt><trkpt lat="44.344246" lon="9.2260837"><ele>48.0</ele><time>2026-04-21T13:52:56.306Z</time></trkpt><trkpt lat="44.3443311" lon="9.2261295"><ele>48.0</ele><time>2026-04-21T13:52:57.307Z</time></trkpt><trkpt lat="44.3444227" lon="9.2261519"><ele>48.0</ele><time>2026-04-21T13:52:58.308Z</time></trkpt><trkpt lat="44.3445157" lon="9.226143"><ele>48.0</ele><time>2026-04-21T13:52:59.306Z</time></trkpt><trkpt lat="44.3446068" lon="9.2261036"><ele>48.0</ele><time>2026-04-21T13:53:00.307Z</time></trkpt><trkpt lat="44.3446808" lon="9.2260232"><ele>48.0</ele><time>2026-04-21T13:53:01.306Z</time></trkpt><trkpt lat="44.3447292" lon="9.2259191"><ele>48.0</ele><time>2026-04-21T13:53:02.31Z</time></trkpt><trkpt lat="44.3447631" lon="9.2257869"><ele>48.0</ele><time>2026-04-21T13:53:03.309Z</time></trkpt><trkpt lat="44.344786" lon="9.2256497"><ele>47.333333333333336</ele><time>2026-04-21T13:53:04.307Z</time></trkpt><trkpt lat="44.3448105" lon="9.2255102"><ele>46.666666666666664</ele><time>2026-04-21T13:53:05.307Z</time></trkpt><trkpt lat="44.3448355" lon="9.225405"><ele>46.0</ele><time>2026-04-21T13:53:06.305Z</time></trkpt><trkpt lat="44.3448712" lon="9.2253037"><ele>45.33333333333333</ele><time>2026-04-21T13:53:07.308Z</time></trkpt><trkpt lat="44.3449281" lon="9.225211"><ele>44.666666666666664</ele><time>2026-04-21T13:53:08.307Z</time></trkpt><trkpt lat="44.3450039" lon="9.2251468"><ele>44.0</ele><time>2026-04-21T13:53:09.304Z</time></trkpt><trkpt lat="44.3450965" lon="9.2251187"><ele>44.0</ele><time>2026-04-21T13:53:10.306Z</time></trkpt><trkpt lat="44.3451943" lon="9.225123"><ele>44.0</ele><time>2026-04-21T13:53:11.307Z</time></trkpt><trkpt lat="44.3452906" lon="9.2251409"><ele>44.0</ele><time>2026-04-21T13:53:12.303Z</time></trkpt><trkpt lat="44.3453863" lon="9.2251523"><ele>44.0</ele><time>2026-04-21T13:53:13.308Z</time></trkpt><trkpt lat="44.345482" lon="9.2251547"><ele>44.0</ele><time>2026-04-21T13:53:14.307Z</time></trkpt><trkpt lat="44.3455807" lon="9.2251532"><ele>42.0</ele><time>2026-04-21T13:53:15.308Z</time></trkpt><trkpt lat="44.3456826" lon="9.2251472"><ele>40.0</ele><time>2026-04-21T13:53:16.306Z</time></trkpt><trkpt lat="44.3457788" lon="9.2251294"><ele>38.0</ele><time>2026-04-21T13:53:17.307Z</time></trkpt><trkpt lat="44.3458641" lon="9.2250824"><ele>36.0</ele><time>2026-04-21T13:53:18.303Z</time></trkpt><trkpt lat="44.3459261" lon="9.2250177"><ele>34.0</ele><time>2026-04-21T13:53:19.303Z</time></trkpt><trkpt lat="44.3459783" lon="9.2249578"><ele>32.0</ele><time>2026-04-21T13:53:20.306Z</time></trkpt><trkpt lat="44.3460705" lon="9.2248785"><ele>32.0</ele><time>2026-04-21T13:53:22.303Z</time></trkpt><trkpt lat="44.3461853" lon="9.2248977"><ele>32.0</ele><time>2026-04-21T13:53:24.3Z</time></trkpt><trkpt lat="44.3462639" lon="9.2249355"><ele>32.0</ele><time>2026-04-21T13:53:25.297Z</time></trkpt><trkpt lat="44.3463524" lon="9.2249822"><ele>32.0</ele><time>2026-04-21T13:53:26.306Z</time></trkpt><trkpt lat="44.3464372" lon="9.2250372"><ele>32.0</ele><time>2026-04-21T13:53:27.297Z</time></trkpt><trkpt lat="44.3465073" lon="9.2251028"><ele>31.833333333333332</ele><time>2026-04-21T13:53:28.303Z</time></trkpt><trkpt lat="44.3465688" lon="9.2251821"><ele>31.666666666666664</ele><time>2026-04-21T13:53:29.304Z</time></trkpt><trkpt lat="44.3466174" lon="9.2252785"><ele>31.5</ele><time>2026-04-21T13:53:30.297Z</time></trkpt><trkpt lat="44.3466598" lon="9.2253905"><ele>31.333333333333336</ele><time>2026-04-21T13:53:31.304Z</time></trkpt><trkpt lat="44.3466967" lon="9.2255053"><ele>31.166666666666668</ele><time>2026-04-21T13:53:32.301Z</time></trkpt><trkpt lat="44.3467283" lon="9.2256224"><ele>31.0</ele><time>2026-04-21T13:53:33.302Z</time></trkpt><trkpt lat="44.3467625" lon="9.2257342"><ele>28.500000000000004</ele><time>2026-04-21T13:53:34.298Z</time></trkpt><trkpt lat="44.3467962" lon="9.2258429"><ele>26.0</ele><time>2026-04-21T13:53:35.303Z</time></trkpt><trkpt lat="44.3468342" lon="9.2259461"><ele>23.5</ele><time>2026-04-21T13:53:36.303Z</time></trkpt><trkpt lat="44.3468764" lon="9.22604"><ele>21.0</ele><time>2026-04-21T13:53:37.302Z</time></trkpt><trkpt lat="44.34693" lon="9.2261105"><ele>18.5</ele><time>2026-04-21T13:53:38.306Z</time></trkpt><trkpt lat="44.3470001" lon="9.2261228"><ele>16.0</ele><time>2026-04-21T13:53:39.305Z</time></trkpt><trkpt lat="44.3470735" lon="9.2260888"><ele>15.999999999999998</ele><time>2026-04-21T13:53:40.304Z</time></trkpt><trkpt lat="44.3471407" lon="9.2260318"><ele>16.0</ele><time>2026-04-21T13:53:41.306Z</time></trkpt><trkpt lat="44.3472012" lon="9.2259709"><ele>16.0</ele><time>2026-04-21T13:53:42.305Z</time></trkpt><trkpt lat="44.347294" lon="9.2258963"><ele>16.0</ele><time>2026-04-21T13:53:44.302Z</time></trkpt><trkpt lat="44.3473636" lon="9.2258404"><ele>15.999999999999998</ele><time>2026-04-21T13:53:53.303Z</time></trkpt><trkpt lat="44.347442" lon="9.2258134"><ele>16.0</ele><time>2026-04-21T13:53:55.299Z</time></trkpt><trkpt lat="44.3475322" lon="9.2258035"><ele>15.833333333333332</ele><time>2026-04-21T13:53:57.304Z</time></trkpt><trkpt lat="44.3476105" lon="9.2258351"><ele>15.666666666666666</ele><time>2026-04-21T13:53:59.305Z</time></trkpt><trkpt lat="44.3476903" lon="9.2259635"><ele>15.5</ele><time>2026-04-21T13:54:01.298Z</time></trkpt><trkpt lat="44.3477284" lon="9.2260442"><ele>15.333333333333332</ele><time>2026-04-21T13:54:02.306Z</time></trkpt><trkpt lat="44.347777" lon="9.2261542"><ele>15.166666666666666</ele><time>2026-04-21T13:54:04.307Z</time></trkpt><trkpt lat="44.3478106" lon="9.2262355"><ele>15.0</ele><time>2026-04-21T13:54:06.3Z</time></trkpt><trkpt lat="44.347857" lon="9.2263435"><ele>15.0</ele><time>2026-04-21T13:54:09.304Z</time></trkpt><trkpt lat="44.3479138" lon="9.2264644"><ele>15.0</ele><time>2026-04-21T13:54:11.306Z</time></trkpt><trkpt lat="44.3479634" lon="9.2265632"><ele>15.0</ele><time>2026-04-21T13:54:13.308Z</time></trkpt><trkpt lat="44.3480006" lon="9.2266442"><ele>15.0</ele><time>2026-04-21T13:54:16.3Z</time></trkpt><trkpt lat="44.3480641" lon="9.2267624"><ele>15.0</ele><time>2026-04-21T13:54:19.302Z</time></trkpt><trkpt lat="44.3481038" lon="9.2268663"><ele>15.0</ele><time>2026-04-21T13:54:21.306Z</time></trkpt><trkpt lat="44.3481446" lon="9.2269686"><ele>13.666666666666666</ele><time>2026-04-21T13:54:24.306Z</time></trkpt><trkpt lat="44.3481724" lon="9.2270477"><ele>12.333333333333334</ele><time>2026-04-21T13:54:35.309Z</time></trkpt><trkpt lat="44.3482203" lon="9.2271592"><ele>11.0</ele><time>2026-04-21T13:54:38.304Z</time></trkpt><trkpt lat="44.3482854" lon="9.227299"><ele>9.666666666666668</ele><time>2026-04-21T13:54:40.306Z</time></trkpt><trkpt lat="44.3483205" lon="9.2273764"><ele>8.333333333333334</ele><time>2026-04-21T13:54:41.31Z</time></trkpt><trkpt lat="44.3483602" lon="9.2274598"><ele>7.0</ele><time>2026-04-21T13:54:42.308Z</time></trkpt><trkpt lat="44.3483939" lon="9.2275449"><ele>7.000000000000001</ele><time>2026-04-21T13:54:43.313Z</time></trkpt><trkpt lat="44.3484494" lon="9.2276793"><ele>7.0</ele><time>2026-04-21T13:54:45.304Z</time></trkpt><trkpt lat="44.3484932" lon="9.2277482"><ele>7.0</ele><time>2026-04-21T13:54:47.3Z</time></trkpt><trkpt lat="44.3485493" lon="9.2278197"><ele>7.0</ele><time>2026-04-21T13:54:51.304Z</time></trkpt><trkpt lat="44.3485934" lon="9.2278832"><ele>7.000000000000001</ele><time>2026-04-21T13:54:54.305Z</time></trkpt><trkpt lat="44.3486292" lon="9.2279742"><ele>7.0</ele><time>2026-04-21T13:55:16.309Z</time></trkpt><trkpt lat="44.3486822" lon="9.2280333"><ele>7.000000000000001</ele><time>2026-04-21T13:55:18.314Z</time></trkpt><trkpt lat="44.348744" lon="9.2280916"><ele>7.0</ele><time>2026-04-21T13:55:20.314Z</time></trkpt><trkpt lat="44.3488156" lon="9.2281703"><ele>7.0</ele><time>2026-04-21T13:55:22.323Z</time></trkpt><trkpt lat="44.3488817" lon="9.2282488"><ele>7.0</ele><time>2026-04-21T13:55:24.321Z</time></trkpt><trkpt lat="44.3489376" lon="9.2283144"><ele>7.000000000000001</ele><time>2026-04-21T13:55:26.317Z</time></trkpt><trkpt lat="44.3489812" lon="9.228383"><ele>7.0</ele><time>2026-04-21T13:55:28.306Z</time></trkpt><trkpt lat="44.3490273" lon="9.2284855"><ele>8.0</ele><time>2026-04-21T13:55:30.315Z</time></trkpt><trkpt lat="44.349076" lon="9.2286079"><ele>9.0</ele><time>2026-04-21T13:55:32.316Z</time></trkpt><trkpt lat="44.3491018" lon="9.2287169"><ele>10.0</ele><time>2026-04-21T13:55:34.308Z</time></trkpt><trkpt lat="44.3491043" lon="9.2288191"><ele>11.0</ele><time>2026-04-21T13:55:37.315Z</time></trkpt><trkpt lat="44.3491021" lon="9.2289113"><ele>11.999999999999998</ele><time>2026-04-21T13:55:59.306Z</time></trkpt><trkpt lat="44.3491592" lon="9.2289585"><ele>13.0</ele><time>2026-04-21T13:56:02.32Z</time></trkpt><trkpt lat="44.349241" lon="9.2291143"><ele>12.999999999999998</ele><time>2026-04-21T13:56:04.318Z</time></trkpt><trkpt lat="44.3492748" lon="9.229203"><ele>13.0</ele><time>2026-04-21T13:56:05.312Z</time></trkpt><trkpt lat="44.3493177" lon="9.2293348"><ele>13.0</ele><time>2026-04-21T13:56:07.316Z</time></trkpt><trkpt lat="44.3493239" lon="9.2294256"><ele>13.0</ele><time>2026-04-21T13:56:09.314Z</time></trkpt><trkpt lat="44.3492974" lon="9.2295131"><ele>12.999999999999998</ele><time>2026-04-21T13:56:11.316Z</time></trkpt><trkpt lat="44.3492552" lon="9.22962"><ele>13.0</ele><time>2026-04-21T13:56:13.317Z</time></trkpt><trkpt lat="44.3492361" lon="9.229705"><ele>12.999999999999998</ele><time>2026-04-21T13:56:17.319Z</time></trkpt><trkpt lat="44.3492689" lon="9.2297896"><ele>13.0</ele><time>2026-04-21T13:56:33.312Z</time></trkpt><trkpt lat="44.3493763" lon="9.2298801"><ele>13.0</ele><time>2026-04-21T13:56:35.304Z</time></trkpt><trkpt lat="44.3494464" lon="9.2299358"><ele>13.0</ele><time>2026-04-21T13:56:36.318Z</time></trkpt><trkpt lat="44.3495237" lon="9.2299854"><ele>12.999999999999998</ele><time>2026-04-21T13:56:37.316Z</time></trkpt><trkpt lat="44.3495995" lon="9.230034"><ele>13.0</ele><time>2026-04-21T13:56:38.321Z</time></trkpt><trkpt lat="44.3496707" lon="9.2300864"><ele>12.833333333333332</ele><time>2026-04-21T13:56:39.32Z</time></trkpt><trkpt lat="44.3497416" lon="9.2301455"><ele>12.666666666666666</ele><time>2026-04-21T13:56:40.313Z</time></trkpt><trkpt lat="44.3498134" lon="9.2301995"><ele>12.5</ele><time>2026-04-21T13:56:41.317Z</time></trkpt><trkpt lat="44.3498876" lon="9.2302585"><ele>12.333333333333332</ele><time>2026-04-21T13:56:42.319Z</time></trkpt><trkpt lat="44.3499615" lon="9.2303191"><ele>12.166666666666666</ele><time>2026-04-21T13:56:43.32Z</time></trkpt><trkpt lat="44.3500358" lon="9.2303824"><ele>12.0</ele><time>2026-04-21T13:56:44.323Z</time></trkpt><trkpt lat="44.3501101" lon="9.2304494"><ele>12.0</ele><time>2026-04-21T13:56:45.325Z</time></trkpt><trkpt lat="44.3501909" lon="9.2305091"><ele>12.0</ele><time>2026-04-21T13:56:46.31Z</time></trkpt><trkpt lat="44.3502734" lon="9.2305694"><ele>12.0</ele><time>2026-04-21T13:56:47.319Z</time></trkpt><trkpt lat="44.3503553" lon="9.2306282"><ele>12.0</ele><time>2026-04-21T13:56:48.318Z</time></trkpt><trkpt lat="44.3504396" lon="9.2306847"><ele>12.0</ele><time>2026-04-21T13:56:49.318Z</time></trkpt><trkpt lat="44.3505246" lon="9.2307583"><ele>11.166666666666666</ele><time>2026-04-21T13:56:50.318Z</time></trkpt><trkpt lat="44.3506055" lon="9.2308293"><ele>10.333333333333334</ele><time>2026-04-21T13:56:51.314Z</time></trkpt><trkpt lat="44.3506712" lon="9.2308984"><ele>9.5</ele><time>2026-04-21T13:56:52.32Z</time></trkpt><trkpt lat="44.350714" lon="9.2309657"><ele>8.666666666666668</ele><time>2026-04-21T13:56:53.325Z</time></trkpt><trkpt lat="44.3507419" lon="9.2310997"><ele>7.833333333333334</ele><time>2026-04-21T13:56:55.322Z</time></trkpt><trkpt lat="44.3507402" lon="9.2312185"><ele>7.0</ele><time>2026-04-21T13:56:56.305Z</time></trkpt><trkpt lat="44.3507282" lon="9.23133"><ele>7.0</ele><time>2026-04-21T13:56:57.325Z</time></trkpt><trkpt lat="44.3507009" lon="9.231446"><ele>6.999999999999999</ele><time>2026-04-21T13:56:58.313Z</time></trkpt><trkpt lat="44.3506574" lon="9.2315643"><ele>6.999999999999999</ele><time>2026-04-21T13:56:59.323Z</time></trkpt><trkpt lat="44.3506091" lon="9.2316888"><ele>7.0</ele><time>2026-04-21T13:57:00.318Z</time></trkpt><trkpt lat="44.3505588" lon="9.2318147"><ele>7.0</ele><time>2026-04-21T13:57:01.319Z</time></trkpt><trkpt lat="44.350509" lon="9.2319275"><ele>7.199999999999999</ele><time>2026-04-21T13:57:02.321Z</time></trkpt><trkpt lat="44.3504591" lon="9.2320439"><ele>7.3999999999999995</ele><time>2026-04-21T13:57:03.309Z</time></trkpt><trkpt lat="44.3504086" lon="9.2321508"><ele>7.6000000000000005</ele><time>2026-04-21T13:57:04.32Z</time></trkpt><trkpt lat="44.3503648" lon="9.232249"><ele>7.800000000000001</ele><time>2026-04-21T13:57:05.322Z</time></trkpt><trkpt lat="44.3503285" lon="9.2323374"><ele>8.0</ele><time>2026-04-21T13:57:06.322Z</time></trkpt><trkpt lat="44.3502735" lon="9.2324706"><ele>8.0</ele><time>2026-04-21T13:57:08.319Z</time></trkpt><trkpt lat="44.3502405" lon="9.2325644"><ele>8.0</ele><time>2026-04-21T13:57:19.319Z</time></trkpt><trkpt lat="44.3501701" lon="9.2327099"><ele>8.0</ele><time>2026-04-21T13:57:21.323Z</time></trkpt><trkpt lat="44.3501311" lon="9.2327924"><ele>8.0</ele><time>2026-04-21T13:57:22.324Z</time></trkpt><trkpt lat="44.3500691" lon="9.232942"><ele>8.0</ele><time>2026-04-21T13:57:24.321Z</time></trkpt><trkpt lat="44.3500303" lon="9.2330275"><ele>7.999999999999999</ele><time>2026-04-21T13:57:25.323Z</time></trkpt><trkpt lat="44.349987" lon="9.2331253"><ele>8.0</ele><time>2026-04-21T13:57:26.326Z</time></trkpt><trkpt lat="44.3499419" lon="9.2332202"><ele>8.0</ele><time>2026-04-21T13:57:27.319Z</time></trkpt><trkpt lat="44.3499009" lon="9.2333079"><ele>8.0</ele><time>2026-04-21T13:57:28.315Z</time></trkpt><trkpt lat="44.3498654" lon="9.2333857"><ele>7.999999999999999</ele><time>2026-04-21T13:57:29.322Z</time></trkpt><trkpt lat="44.3498318" lon="9.2334607"><ele>8.0</ele><time>2026-04-21T13:57:30.322Z</time></trkpt><trkpt lat="44.349775" lon="9.2335881"><ele>7.999999999999999</ele><time>2026-04-21T13:57:32.311Z</time></trkpt><trkpt lat="44.3497192" lon="9.2336715"><ele>8.0</ele><time>2026-04-21T13:57:34.318Z</time></trkpt><trkpt lat="44.3496452" lon="9.2337171"><ele>8.0</ele><time>2026-04-21T13:57:36.307Z</time></trkpt><trkpt lat="44.3495509" lon="9.233774"><ele>8.0</ele><time>2026-04-21T13:57:38.302Z</time></trkpt><trkpt lat="44.3494412" lon="9.2338"><ele>7.999999999999999</ele><time>2026-04-21T13:57:40.308Z</time></trkpt><trkpt lat="44.3493739" lon="9.2338055"><ele>8.0</ele><time>2026-04-21T13:57:41.307Z</time></trkpt><trkpt lat="44.349297" lon="9.2338113"><ele>7.999999999999999</ele><time>2026-04-21T13:57:42.306Z</time></trkpt><trkpt lat="44.3492072" lon="9.2338269"><ele>8.0</ele><time>2026-04-21T13:57:43.302Z</time></trkpt><trkpt lat="44.3491132" lon="9.2338416"><ele>8.0</ele><time>2026-04-21T13:57:44.304Z</time></trkpt><trkpt lat="44.3490234" lon="9.233857"><ele>8.0</ele><time>2026-04-21T13:57:45.31Z</time></trkpt><trkpt lat="44.348942" lon="9.2338719"><ele>7.999999999999999</ele><time>2026-04-21T13:57:46.299Z</time></trkpt><trkpt lat="44.3488737" lon="9.2338824"><ele>8.0</ele><time>2026-04-21T13:57:47.307Z</time></trkpt><trkpt lat="44.3487811" lon="9.2338899"><ele>7.999999999999999</ele><time>2026-04-21T13:57:49.305Z</time></trkpt><trkpt lat="44.3487012" lon="9.233898"><ele>8.0</ele><time>2026-04-21T13:57:53.303Z</time></trkpt><trkpt lat="44.3485998" lon="9.2339043"><ele>8.0</ele><time>2026-04-21T13:57:55.307Z</time></trkpt><trkpt lat="44.3485485" lon="9.2339635"><ele>8.0</ele><time>2026-04-21T13:57:56.306Z</time></trkpt><trkpt lat="44.3485034" lon="9.2340663"><ele>7.999999999999999</ele><time>2026-04-21T13:57:57.307Z</time></trkpt><trkpt lat="44.3484548" lon="9.2341828"><ele>8.0</ele><time>2026-04-21T13:57:58.308Z</time></trkpt><trkpt lat="44.3483971" lon="9.2343181"><ele>8.0</ele><time>2026-04-21T13:57:59.308Z</time></trkpt><trkpt lat="44.3483326" lon="9.2344733"><ele>8.0</ele><time>2026-04-21T13:58:00.31Z</time></trkpt><trkpt lat="44.3482588" lon="9.2346265"><ele>8.0</ele><time>2026-04-21T13:58:01.305Z</time></trkpt><trkpt lat="44.3481963" lon="9.2347716"><ele>8.0</ele><time>2026-04-21T13:58:02.306Z</time></trkpt><trkpt lat="44.3481247" lon="9.2349025"><ele>8.600000000000001</ele><time>2026-04-21T13:58:03.306Z</time></trkpt><trkpt lat="44.3480523" lon="9.2350284"><ele>9.200000000000001</ele><time>2026-04-21T13:58:04.299Z</time></trkpt><trkpt lat="44.347986" lon="9.2351472"><ele>9.8</ele><time>2026-04-21T13:58:05.3Z</time></trkpt><trkpt lat="44.3479341" lon="9.2352723"><ele>10.4</ele><time>2026-04-21T13:58:06.306Z</time></trkpt><trkpt lat="44.3479028" lon="9.2354093"><ele>11.0</ele><time>2026-04-21T13:58:07.303Z</time></trkpt><trkpt lat="44.3478763" lon="9.2355497"><ele>9.25</ele><time>2026-04-21T13:58:08.311Z</time></trkpt><trkpt lat="44.3478762" lon="9.2357028"><ele>7.5</ele><time>2026-04-21T13:58:09.312Z</time></trkpt><trkpt lat="44.3478971" lon="9.2358587"><ele>5.75</ele><time>2026-04-21T13:58:10.299Z</time></trkpt><trkpt lat="44.3479457" lon="9.2360345"><ele>4.0</ele><time>2026-04-21T13:58:11.302Z</time></trkpt><trkpt lat="44.3479986" lon="9.2362291"><ele>6.25</ele><time>2026-04-21T13:58:12.304Z</time></trkpt><trkpt lat="44.3480519" lon="9.236427"><ele>8.5</ele><time>2026-04-21T13:58:13.305Z</time></trkpt><trkpt lat="44.3481006" lon="9.2366103"><ele>10.75</ele><time>2026-04-21T13:58:14.307Z</time></trkpt><trkpt lat="44.3481351" lon="9.2367616"><ele>13.0</ele><time>2026-04-21T13:58:15.307Z</time></trkpt><trkpt lat="44.3481568" lon="9.236889"><ele>13.999999999999998</ele><time>2026-04-21T13:58:16.301Z</time></trkpt><trkpt lat="44.3481698" lon="9.2369876"><ele>15.0</ele><time>2026-04-21T13:58:17.307Z</time></trkpt><trkpt lat="44.3481838" lon="9.2370973"><ele>16.0</ele><time>2026-04-21T13:58:19.303Z</time></trkpt><trkpt lat="44.3481862" lon="9.237219"><ele>17.0</ele><time>2026-04-21T13:58:21.302Z</time></trkpt><trkpt lat="44.3481728" lon="9.2373076"><ele>18.0</ele><time>2026-04-21T13:58:22.307Z</time></trkpt><trkpt lat="44.3481422" lon="9.2374185"><ele>19.0</ele><time>2026-04-21T13:58:23.306Z</time></trkpt><trkpt lat="44.3480907" lon="9.2375403"><ele>17.25</ele><time>2026-04-21T13:58:24.307Z</time></trkpt><trkpt lat="44.3480232" lon="9.2376574"><ele>15.5</ele><time>2026-04-21T13:58:25.301Z</time></trkpt><trkpt lat="44.3479337" lon="9.2377734"><ele>13.75</ele><time>2026-04-21T13:58:26.302Z</time></trkpt><trkpt lat="44.347837" lon="9.2378708"><ele>12.0</ele><time>2026-04-21T13:58:27.303Z</time></trkpt><trkpt lat="44.347745" lon="9.237954"><ele>12.0</ele><time>2026-04-21T13:58:28.303Z</time></trkpt><trkpt lat="44.3476562" lon="9.2380419"><ele>12.0</ele><time>2026-04-21T13:58:29.307Z</time></trkpt><trkpt lat="44.3475684" lon="9.2381369"><ele>12.0</ele><time>2026-04-21T13:58:30.308Z</time></trkpt><trkpt lat="44.3474834" lon="9.2382352"><ele>12.0</ele><time>2026-04-21T13:58:31.307Z</time></trkpt><trkpt lat="44.3474065" lon="9.2383349"><ele>12.0</ele><time>2026-04-21T13:58:32.307Z</time></trkpt><trkpt lat="44.3473453" lon="9.238442"><ele>12.0</ele><time>2026-04-21T13:58:33.311Z</time></trkpt><trkpt lat="44.3473071" lon="9.2385639"><ele>12.0</ele><time>2026-04-21T13:58:34.301Z</time></trkpt><trkpt lat="44.3472894" lon="9.2387041"><ele>12.0</ele><time>2026-04-21T13:58:35.305Z</time></trkpt><trkpt lat="44.3472849" lon="9.2388539"><ele>12.0</ele><time>2026-04-21T13:58:36.308Z</time></trkpt><trkpt lat="44.3472929" lon="9.2390099"><ele>12.0</ele><time>2026-04-21T13:58:37.309Z</time></trkpt><trkpt lat="44.3473147" lon="9.2391747"><ele>13.25</ele><time>2026-04-21T13:58:38.31Z</time></trkpt><trkpt lat="44.3473416" lon="9.2393415"><ele>14.5</ele><time>2026-04-21T13:58:39.306Z</time></trkpt><trkpt lat="44.3473607" lon="9.2395034"><ele>15.75</ele><time>2026-04-21T13:58:40.311Z</time></trkpt><trkpt lat="44.3473873" lon="9.23967"><ele>17.0</ele><time>2026-04-21T13:58:41.307Z</time></trkpt><trkpt lat="44.3474071" lon="9.2398327"><ele>17.4</ele><time>2026-04-21T13:58:42.302Z</time></trkpt><trkpt lat="44.3474219" lon="9.2399936"><ele>17.799999999999997</ele><time>2026-04-21T13:58:43.305Z</time></trkpt><trkpt lat="44.347436" lon="9.2401511"><ele>18.2</ele><time>2026-04-21T13:58:44.308Z</time></trkpt><trkpt lat="44.3474504" lon="9.240298"><ele>18.599999999999998</ele><time>2026-04-21T13:58:45.306Z</time></trkpt><trkpt lat="44.3474655" lon="9.2404381"><ele>19.0</ele><time>2026-04-21T13:58:46.307Z</time></trkpt><trkpt lat="44.3474709" lon="9.2405707"><ele>19.333333333333332</ele><time>2026-04-21T13:58:47.305Z</time></trkpt><trkpt lat="44.3474625" lon="9.2406854"><ele>19.666666666666664</ele><time>2026-04-21T13:58:48.308Z</time></trkpt><trkpt lat="44.3474367" lon="9.2407808"><ele>20.0</ele><time>2026-04-21T13:58:49.302Z</time></trkpt><trkpt lat="44.347391" lon="9.240858"><ele>20.333333333333332</ele><time>2026-04-21T13:58:50.307Z</time></trkpt><trkpt lat="44.3473331" lon="9.2409298"><ele>20.666666666666668</ele><time>2026-04-21T13:58:51.308Z</time></trkpt><trkpt lat="44.3472689" lon="9.2410067"><ele>21.0</ele><time>2026-04-21T13:58:52.307Z</time></trkpt><trkpt lat="44.3471977" lon="9.241097"><ele>20.0</ele><time>2026-04-21T13:58:53.306Z</time></trkpt><trkpt lat="44.3471207" lon="9.2411977"><ele>19.0</ele><time>2026-04-21T13:58:54.307Z</time></trkpt><trkpt lat="44.3470272" lon="9.2413063"><ele>18.0</ele><time>2026-04-21T13:58:55.301Z</time></trkpt><trkpt lat="44.3469257" lon="9.2414155"><ele>17.0</ele><time>2026-04-21T13:58:56.305Z</time></trkpt><trkpt lat="44.3468136" lon="9.2415226"><ele>17.0</ele><time>2026-04-21T13:58:57.304Z</time></trkpt><trkpt lat="44.3466885" lon="9.2416098"><ele>17.0</ele><time>2026-04-21T13:58:58.305Z</time></trkpt><trkpt lat="44.3465531" lon="9.2416713"><ele>17.0</ele><time>2026-04-21T13:58:59.301Z</time></trkpt><trkpt lat="44.3464211" lon="9.2417154"><ele>17.0</ele><time>2026-04-21T13:59:00.307Z</time></trkpt><trkpt lat="44.3462962" lon="9.2417504"><ele>18.2</ele><time>2026-04-21T13:59:01.307Z</time></trkpt><trkpt lat="44.3461832" lon="9.2417788"><ele>19.4</ele><time>2026-04-21T13:59:02.311Z</time></trkpt><trkpt lat="44.3460752" lon="9.2417941"><ele>20.599999999999998</ele><time>2026-04-21T13:59:03.31Z</time></trkpt><trkpt lat="44.3459854" lon="9.2417651"><ele>21.799999999999997</ele><time>2026-04-21T13:59:04.303Z</time></trkpt><trkpt lat="44.3459015" lon="9.2416868"><ele>23.0</ele><time>2026-04-21T13:59:05.304Z</time></trkpt><trkpt lat="44.3458359" lon="9.24156"><ele>21.799999999999997</ele><time>2026-04-21T13:59:06.302Z</time></trkpt><trkpt lat="44.3457856" lon="9.2414043"><ele>20.599999999999998</ele><time>2026-04-21T13:59:07.308Z</time></trkpt><trkpt lat="44.3457463" lon="9.2412594"><ele>19.4</ele><time>2026-04-21T13:59:08.304Z</time></trkpt><trkpt lat="44.3457144" lon="9.241138"><ele>18.2</ele><time>2026-04-21T13:59:09.309Z</time></trkpt><trkpt lat="44.3456803" lon="9.2410498"><ele>17.0</ele><time>2026-04-21T13:59:10.309Z</time></trkpt><trkpt lat="44.3456336" lon="9.2409904"><ele>17.0</ele><time>2026-04-21T13:59:11.298Z</time></trkpt><trkpt lat="44.3455708" lon="9.240972"><ele>17.0</ele><time>2026-04-21T13:59:12.307Z</time></trkpt><trkpt lat="44.3454984" lon="9.2409936"><ele>17.0</ele><time>2026-04-21T13:59:13.302Z</time></trkpt><trkpt lat="44.345412" lon="9.24105"><ele>17.0</ele><time>2026-04-21T13:59:14.301Z</time></trkpt><trkpt lat="44.3453244" lon="9.2411149"><ele>17.0</ele><time>2026-04-21T13:59:15.3Z</time></trkpt><trkpt lat="44.3452322" lon="9.2411792"><ele>17.0</ele><time>2026-04-21T13:59:16.303Z</time></trkpt><trkpt lat="44.3451519" lon="9.2412385"><ele>16.2</ele><time>2026-04-21T13:59:17.311Z</time></trkpt><trkpt lat="44.3450647" lon="9.2412739"><ele>15.399999999999999</ele><time>2026-04-21T13:59:18.307Z</time></trkpt><trkpt lat="44.3449728" lon="9.2412716"><ele>14.600000000000001</ele><time>2026-04-21T13:59:19.311Z</time></trkpt><trkpt lat="44.3448916" lon="9.2412249"><ele>13.8</ele><time>2026-04-21T13:59:20.31Z</time></trkpt><trkpt lat="44.3448159" lon="9.2411495"><ele>13.0</ele><time>2026-04-21T13:59:21.303Z</time></trkpt><trkpt lat="44.3447482" lon="9.2410532"><ele>12.499999999999998</ele><time>2026-04-21T13:59:22.3Z</time></trkpt><trkpt lat="44.344691" lon="9.2409702"><ele>12.0</ele><time>2026-04-21T13:59:23.307Z</time></trkpt><trkpt lat="44.3446306" lon="9.2409066"><ele>11.5</ele><time>2026-04-21T13:59:24.307Z</time></trkpt><trkpt lat="44.3445679" lon="9.2408624"><ele>11.0</ele><time>2026-04-21T13:59:25.307Z</time></trkpt><trkpt lat="44.3444972" lon="9.2408452"><ele>10.5</ele><time>2026-04-21T13:59:26.308Z</time></trkpt><trkpt lat="44.344421" lon="9.2408664"><ele>10.0</ele><time>2026-04-21T13:59:27.306Z</time></trkpt><trkpt lat="44.3443451" lon="9.2409235"><ele>10.0</ele><time>2026-04-21T13:59:28.304Z</time></trkpt><trkpt lat="44.3442664" lon="9.2410038"><ele>10.0</ele><time>2026-04-21T13:59:29.306Z</time></trkpt><trkpt lat="44.3441889" lon="9.2410967"><ele>10.0</ele><time>2026-04-21T13:59:30.308Z</time></trkpt><trkpt lat="44.3441107" lon="9.2412023"><ele>10.0</ele><time>2026-04-21T13:59:31.309Z</time></trkpt><trkpt lat="44.3440345" lon="9.2413038"><ele>10.0</ele><time>2026-04-21T13:59:32.308Z</time></trkpt><trkpt lat="44.3439725" lon="9.2414059"><ele>9.166666666666668</ele><time>2026-04-21T13:59:33.308Z</time></trkpt><trkpt lat="44.3439299" lon="9.2415164"><ele>8.333333333333334</ele><time>2026-04-21T13:59:34.31Z</time></trkpt><trkpt lat="44.3439026" lon="9.2416348"><ele>7.5</ele><time>2026-04-21T13:59:35.31Z</time></trkpt><trkpt lat="44.3438889" lon="9.2417555"><ele>6.666666666666667</ele><time>2026-04-21T13:59:36.308Z</time></trkpt><trkpt lat="44.3438836" lon="9.2418774"><ele>5.833333333333334</ele><time>2026-04-21T13:59:37.308Z</time></trkpt><trkpt lat="44.3438803" lon="9.241999"><ele>5.0</ele><time>2026-04-21T13:59:38.309Z</time></trkpt><trkpt lat="44.3438726" lon="9.2421129"><ele>5.0</ele><time>2026-04-21T13:59:39.307Z</time></trkpt><trkpt lat="44.3438494" lon="9.2422219"><ele>5.0</ele><time>2026-04-21T13:59:40.308Z</time></trkpt><trkpt lat="44.3438027" lon="9.2423226"><ele>5.0</ele><time>2026-04-21T13:59:41.308Z</time></trkpt><trkpt lat="44.3437309" lon="9.2424023"><ele>5.0</ele><time>2026-04-21T13:59:42.308Z</time></trkpt><trkpt lat="44.3436327" lon="9.2424846"><ele>5.0</ele><time>2026-04-21T13:59:43.307Z</time></trkpt><trkpt lat="44.3435355" lon="9.2425647"><ele>7.0</ele><time>2026-04-21T13:59:44.307Z</time></trkpt><trkpt lat="44.3434602" lon="9.2426414"><ele>9.0</ele><time>2026-04-21T13:59:45.304Z</time></trkpt><trkpt lat="44.3433924" lon="9.2427202"><ele>11.0</ele><time>2026-04-21T13:59:46.306Z</time></trkpt><trkpt lat="44.3433313" lon="9.2427991"><ele>13.0</ele><time>2026-04-21T13:59:47.308Z</time></trkpt><trkpt lat="44.3432846" lon="9.2428826"><ele>15.000000000000002</ele><time>2026-04-21T13:59:48.306Z</time></trkpt><trkpt lat="44.3432453" lon="9.2429796"><ele>17.0</ele><time>2026-04-21T13:59:49.303Z</time></trkpt><trkpt lat="44.3432108" lon="9.243077"><ele>18.8</ele><time>2026-04-21T13:59:50.303Z</time></trkpt><trkpt lat="44.3431813" lon="9.2431775"><ele>20.6</ele><time>2026-04-21T13:59:51.303Z</time></trkpt><trkpt lat="44.3431657" lon="9.2432938"><ele>22.400000000000002</ele><time>2026-04-21T13:59:52.303Z</time></trkpt><trkpt lat="44.3431706" lon="9.243414"><ele>24.2</ele><time>2026-04-21T13:59:53.304Z</time></trkpt><trkpt lat="44.3431942" lon="9.243561"><ele>26.0</ele><time>2026-04-21T13:59:54.305Z</time></trkpt><trkpt lat="44.343227" lon="9.2436885"><ele>25.999999999999996</ele><time>2026-04-21T13:59:55.307Z</time></trkpt><trkpt lat="44.343258" lon="9.2438098"><ele>26.0</ele><time>2026-04-21T13:59:56.305Z</time></trkpt><trkpt lat="44.3432876" lon="9.2439259"><ele>26.0</ele><time>2026-04-21T13:59:57.309Z</time></trkpt><trkpt lat="44.3433129" lon="9.2440384"><ele>26.0</ele><time>2026-04-21T13:59:58.312Z</time></trkpt><trkpt lat="44.3433289" lon="9.2441526"><ele>25.999999999999996</ele><time>2026-04-21T13:59:59.309Z</time></trkpt><trkpt lat="44.3433207" lon="9.2442668"><ele>26.0</ele><time>2026-04-21T14:00:00.309Z</time></trkpt><trkpt lat="44.3432806" lon="9.244349"><ele>27.4</ele><time>2026-04-21T14:00:01.302Z</time></trkpt><trkpt lat="44.3432006" lon="9.2444066"><ele>28.8</ele><time>2026-04-21T14:00:02.307Z</time></trkpt><trkpt lat="44.3431028" lon="9.2444622"><ele>30.199999999999996</ele><time>2026-04-21T14:00:03.3Z</time></trkpt><trkpt lat="44.3429933" lon="9.2445086"><ele>31.599999999999998</ele><time>2026-04-21T14:00:04.304Z</time></trkpt><trkpt lat="44.3428779" lon="9.2445515"><ele>33.0</ele><time>2026-04-21T14:00:05.31Z</time></trkpt><trkpt lat="44.342762" lon="9.2445962"><ele>32.8</ele><time>2026-04-21T14:00:06.304Z</time></trkpt><trkpt lat="44.3426552" lon="9.2446346"><ele>32.599999999999994</ele><time>2026-04-21T14:00:07.3Z</time></trkpt><trkpt lat="44.342563" lon="9.2446755"><ele>32.400000000000006</ele><time>2026-04-21T14:00:08.307Z</time></trkpt><trkpt lat="44.3424792" lon="9.2447285"><ele>32.2</ele><time>2026-04-21T14:00:09.306Z</time></trkpt><trkpt lat="44.3423977" lon="9.2447887"><ele>32.0</ele><time>2026-04-21T14:00:10.306Z</time></trkpt><trkpt lat="44.3423286" lon="9.2448629"><ele>32.0</ele><time>2026-04-21T14:00:11.307Z</time></trkpt><trkpt lat="44.3422783" lon="9.2449609"><ele>32.0</ele><time>2026-04-21T14:00:12.311Z</time></trkpt><trkpt lat="44.3422473" lon="9.2450834"><ele>32.0</ele><time>2026-04-21T14:00:13.303Z</time></trkpt><trkpt lat="44.3422324" lon="9.2452139"><ele>32.0</ele><time>2026-04-21T14:00:14.308Z</time></trkpt><trkpt lat="44.3422397" lon="9.2453593"><ele>32.0</ele><time>2026-04-21T14:00:15.306Z</time></trkpt><trkpt lat="44.34226" lon="9.2455087"><ele>33.2</ele><time>2026-04-21T14:00:16.302Z</time></trkpt><trkpt lat="44.3422797" lon="9.245658"><ele>34.400000000000006</ele><time>2026-04-21T14:00:17.31Z</time></trkpt><trkpt lat="44.342302" lon="9.2458231"><ele>35.599999999999994</ele><time>2026-04-21T14:00:18.308Z</time></trkpt><trkpt lat="44.3423187" lon="9.2459778"><ele>36.8</ele><time>2026-04-21T14:00:19.306Z</time></trkpt><trkpt lat="44.3423433" lon="9.2461218"><ele>38.0</ele><time>2026-04-21T14:00:20.311Z</time></trkpt><trkpt lat="44.342369" lon="9.2462579"><ele>38.0</ele><time>2026-04-21T14:00:21.311Z</time></trkpt><trkpt lat="44.3423998" lon="9.2463853"><ele>38.0</ele><time>2026-04-21T14:00:22.311Z</time></trkpt><trkpt lat="44.3424442" lon="9.2465126"><ele>38.0</ele><time>2026-04-21T14:00:23.313Z</time></trkpt><trkpt lat="44.3425019" lon="9.2466365"><ele>38.0</ele><time>2026-04-21T14:00:24.311Z</time></trkpt><trkpt lat="44.3425689" lon="9.2467555"><ele>38.0</ele><time>2026-04-21T14:00:25.312Z</time></trkpt><trkpt lat="44.3426313" lon="9.2468786"><ele>37.0</ele><time>2026-04-21T14:00:26.306Z</time></trkpt><trkpt lat="44.3426979" lon="9.2470047"><ele>36.0</ele><time>2026-04-21T14:00:27.299Z</time></trkpt><trkpt lat="44.3427636" lon="9.2471161"><ele>35.0</ele><time>2026-04-21T14:00:28.308Z</time></trkpt><trkpt lat="44.3428367" lon="9.2472189"><ele>34.0</ele><time>2026-04-21T14:00:29.309Z</time></trkpt><trkpt lat="44.3429185" lon="9.2473114"><ele>33.0</ele><time>2026-04-21T14:00:30.311Z</time></trkpt><trkpt lat="44.3430022" lon="9.2473947"><ele>35.5</ele><time>2026-04-21T14:00:31.302Z</time></trkpt><trkpt lat="44.3430781" lon="9.2474739"><ele>38.0</ele><time>2026-04-21T14:00:32.308Z</time></trkpt><trkpt lat="44.3431425" lon="9.2475558"><ele>40.5</ele><time>2026-04-21T14:00:33.307Z</time></trkpt><trkpt lat="44.3431944" lon="9.2476453"><ele>43.0</ele><time>2026-04-21T14:00:34.307Z</time></trkpt><trkpt lat="44.3432287" lon="9.2477462"><ele>45.5</ele><time>2026-04-21T14:00:35.307Z</time></trkpt><trkpt lat="44.3432333" lon="9.2478647"><ele>48.0</ele><time>2026-04-21T14:00:36.304Z</time></trkpt><trkpt lat="44.3432075" lon="9.2479935"><ele>48.0</ele><time>2026-04-21T14:00:37.302Z</time></trkpt><trkpt lat="44.3431467" lon="9.2481167"><ele>48.0</ele><time>2026-04-21T14:00:38.303Z</time></trkpt><trkpt lat="44.3430584" lon="9.2482318"><ele>48.0</ele><time>2026-04-21T14:00:39.308Z</time></trkpt><trkpt lat="44.3429665" lon="9.2483415"><ele>48.0</ele><time>2026-04-21T14:00:40.299Z</time></trkpt><trkpt lat="44.3428892" lon="9.2484307"><ele>48.0</ele><time>2026-04-21T14:00:41.306Z</time></trkpt><trkpt lat="44.3428238" lon="9.2484733"><ele>48.8</ele><time>2026-04-21T14:00:42.31Z</time></trkpt><trkpt lat="44.3427568" lon="9.2484865"><ele>49.599999999999994</ele><time>2026-04-21T14:00:43.311Z</time></trkpt><trkpt lat="44.3426505" lon="9.2483883"><ele>50.400000000000006</ele><time>2026-04-21T14:00:45.309Z</time></trkpt><trkpt lat="44.3425982" lon="9.248305"><ele>51.2</ele><time>2026-04-21T14:00:46.309Z</time></trkpt><trkpt lat="44.3425378" lon="9.2482221"><ele>52.0</ele><time>2026-04-21T14:00:47.309Z</time></trkpt><trkpt lat="44.3424648" lon="9.2481421"><ele>49.8</ele><time>2026-04-21T14:00:48.305Z</time></trkpt><trkpt lat="44.3423764" lon="9.2480756"><ele>47.6</ele><time>2026-04-21T14:00:49.305Z</time></trkpt><trkpt lat="44.3422781" lon="9.2480248"><ele>45.4</ele><time>2026-04-21T14:00:50.309Z</time></trkpt><trkpt lat="44.3421747" lon="9.2479965"><ele>43.199999999999996</ele><time>2026-04-21T14:00:51.304Z</time></trkpt><trkpt lat="44.3420804" lon="9.2479711"><ele>41.0</ele><time>2026-04-21T14:00:52.306Z</time></trkpt><trkpt lat="44.3419806" lon="9.2479456"><ele>41.0</ele><time>2026-04-21T14:00:53.309Z</time></trkpt><trkpt lat="44.341884" lon="9.2479117"><ele>41.0</ele><time>2026-04-21T14:00:54.31Z</time></trkpt><trkpt lat="44.341797" lon="9.2478802"><ele>41.0</ele><time>2026-04-21T14:00:55.309Z</time></trkpt><trkpt lat="44.3417081" lon="9.2478299"><ele>41.0</ele><time>2026-04-21T14:00:56.308Z</time></trkpt><trkpt lat="44.3416227" lon="9.2477633"><ele>41.0</ele><time>2026-04-21T14:00:57.304Z</time></trkpt><trkpt lat="44.3415587" lon="9.2476773"><ele>41.0</ele><time>2026-04-21T14:00:58.309Z</time></trkpt><trkpt lat="44.341502" lon="9.2475772"><ele>41.0</ele><time>2026-04-21T14:00:59.308Z</time></trkpt><trkpt lat="44.3414504" lon="9.2474885"><ele>41.0</ele><time>2026-04-21T14:01:00.311Z</time></trkpt><trkpt lat="44.3413937" lon="9.2474191"><ele>41.0</ele><time>2026-04-21T14:01:01.307Z</time></trkpt><trkpt lat="44.3412854" lon="9.2474397"><ele>41.0</ele><time>2026-04-21T14:01:03.31Z</time></trkpt><trkpt lat="44.3412432" lon="9.247535"><ele>41.0</ele><time>2026-04-21T14:01:04.305Z</time></trkpt><trkpt lat="44.3412087" lon="9.2476575"><ele>39.599999999999994</ele><time>2026-04-21T14:01:05.305Z</time></trkpt><trkpt lat="44.341178" lon="9.2477992"><ele>38.199999999999996</ele><time>2026-04-21T14:01:06.309Z</time></trkpt><trkpt lat="44.3411463" lon="9.247943"><ele>36.8</ele><time>2026-04-21T14:01:07.303Z</time></trkpt><trkpt lat="44.3411092" lon="9.2480881"><ele>35.4</ele><time>2026-04-21T14:01:08.308Z</time></trkpt><trkpt lat="44.3410705" lon="9.2482238"><ele>34.0</ele><time>2026-04-21T14:01:09.306Z</time></trkpt><trkpt lat="44.3410361" lon="9.2483628"><ele>34.0</ele><time>2026-04-21T14:01:10.312Z</time></trkpt><trkpt lat="44.3410127" lon="9.2485089"><ele>34.0</ele><time>2026-04-21T14:01:11.309Z</time></trkpt><trkpt lat="44.3409965" lon="9.2486599"><ele>34.0</ele><time>2026-04-21T14:01:12.31Z</time></trkpt><trkpt lat="44.3409879" lon="9.2488149"><ele>34.0</ele><time>2026-04-21T14:01:13.307Z</time></trkpt><trkpt lat="44.3409811" lon="9.2489731"><ele>34.0</ele><time>2026-04-21T14:01:14.31Z</time></trkpt><trkpt lat="44.3409752" lon="9.2491317"><ele>37.4</ele><time>2026-04-21T14:01:15.306Z</time></trkpt><trkpt lat="44.3409693" lon="9.2492873"><ele>40.8</ele><time>2026-04-21T14:01:16.318Z</time></trkpt><trkpt lat="44.3409636" lon="9.2494367"><ele>44.199999999999996</ele><time>2026-04-21T14:01:17.311Z</time></trkpt><trkpt lat="44.340964" lon="9.2495811"><ele>47.599999999999994</ele><time>2026-04-21T14:01:18.31Z</time></trkpt><trkpt lat="44.3409677" lon="9.2497212"><ele>51.0</ele><time>2026-04-21T14:01:19.304Z</time></trkpt><trkpt lat="44.3409849" lon="9.2498597"><ele>51.833333333333336</ele><time>2026-04-21T14:01:20.302Z</time></trkpt><trkpt lat="44.3410194" lon="9.2499973"><ele>52.66666666666667</ele><time>2026-04-21T14:01:21.31Z</time></trkpt><trkpt lat="44.3410574" lon="9.2501269"><ele>53.5</ele><time>2026-04-21T14:01:22.31Z</time></trkpt><trkpt lat="44.3410832" lon="9.2502412"><ele>54.333333333333336</ele><time>2026-04-21T14:01:23.303Z</time></trkpt><trkpt lat="44.3410964" lon="9.250346"><ele>55.16666666666667</ele><time>2026-04-21T14:01:24.311Z</time></trkpt><trkpt lat="44.3410851" lon="9.2504468"><ele>56.0</ele><time>2026-04-21T14:01:25.307Z</time></trkpt><trkpt lat="44.3410423" lon="9.2505322"><ele>56.0</ele><time>2026-04-21T14:01:26.305Z</time></trkpt><trkpt lat="44.3409639" lon="9.2505954"><ele>55.99999999999999</ele><time>2026-04-21T14:01:27.306Z</time></trkpt><trkpt lat="44.3408568" lon="9.2506391"><ele>55.99999999999999</ele><time>2026-04-21T14:01:28.306Z</time></trkpt><trkpt lat="44.3407344" lon="9.2506657"><ele>56.0</ele><time>2026-04-21T14:01:29.299Z</time></trkpt><trkpt lat="44.3406122" lon="9.2506827"><ele>56.0</ele><time>2026-04-21T14:01:30.308Z</time></trkpt><trkpt lat="44.3405044" lon="9.2507033"><ele>51.333333333333336</ele><time>2026-04-21T14:01:31.31Z</time></trkpt><trkpt lat="44.340422" lon="9.2507414"><ele>46.66666666666667</ele><time>2026-04-21T14:01:32.306Z</time></trkpt><trkpt lat="44.3403668" lon="9.2508004"><ele>42.0</ele><time>2026-04-21T14:01:33.296Z</time></trkpt><trkpt lat="44.3403383" lon="9.2508897"><ele>37.333333333333336</ele><time>2026-04-21T14:01:34.297Z</time></trkpt><trkpt lat="44.3403389" lon="9.2509982"><ele>32.66666666666667</ele><time>2026-04-21T14:01:35.3Z</time></trkpt><trkpt lat="44.3403575" lon="9.2511064"><ele>28.0</ele><time>2026-04-21T14:01:36.303Z</time></trkpt><trkpt lat="44.3403827" lon="9.251218"><ele>28.000000000000004</ele><time>2026-04-21T14:01:37.306Z</time></trkpt><trkpt lat="44.3404209" lon="9.2513308"><ele>28.0</ele><time>2026-04-21T14:01:38.305Z</time></trkpt><trkpt lat="44.3404631" lon="9.2514381"><ele>28.0</ele><time>2026-04-21T14:01:39.298Z</time></trkpt><trkpt lat="44.3405228" lon="9.2515442"><ele>28.0</ele><time>2026-04-21T14:01:40.298Z</time></trkpt><trkpt lat="44.3405897" lon="9.2516149"><ele>28.000000000000004</ele><time>2026-04-21T14:01:41.305Z</time></trkpt><trkpt lat="44.3406696" lon="9.2516695"><ele>28.0</ele><time>2026-04-21T14:01:42.306Z</time></trkpt><trkpt lat="44.3407544" lon="9.2517174"><ele>37.0</ele><time>2026-04-21T14:01:43.309Z</time></trkpt><trkpt lat="44.3408415" lon="9.2517704"><ele>46.0</ele><time>2026-04-21T14:01:44.307Z</time></trkpt><trkpt lat="44.3409253" lon="9.2518395"><ele>55.0</ele><time>2026-04-21T14:01:45.299Z</time></trkpt><trkpt lat="44.3410041" lon="9.2519356"><ele>64.0</ele><time>2026-04-21T14:01:46.307Z</time></trkpt><trkpt lat="44.341076" lon="9.2520453"><ele>73.0</ele><time>2026-04-21T14:01:47.306Z</time></trkpt><trkpt lat="44.3411407" lon="9.2521541"><ele>73.0</ele><time>2026-04-21T14:01:48.305Z</time></trkpt><trkpt lat="44.3412191" lon="9.2522458"><ele>73.0</ele><time>2026-04-21T14:01:49.297Z</time></trkpt><trkpt lat="44.3413098" lon="9.2523164"><ele>73.0</ele><time>2026-04-21T14:01:50.3Z</time></trkpt><trkpt lat="44.3414075" lon="9.2523806"><ele>73.0</ele><time>2026-04-21T14:01:51.303Z</time></trkpt><trkpt lat="44.3415024" lon="9.2524444"><ele>73.0</ele><time>2026-04-21T14:01:52.305Z</time></trkpt><trkpt lat="44.3415934" lon="9.2525107"><ele>73.66666666666666</ele><time>2026-04-21T14:01:53.309Z</time></trkpt><trkpt lat="44.3416804" lon="9.2525787"><ele>74.33333333333333</ele><time>2026-04-21T14:01:54.304Z</time></trkpt><trkpt lat="44.3417579" lon="9.2526407"><ele>75.0</ele><time>2026-04-21T14:01:55.307Z</time></trkpt><trkpt lat="44.3418235" lon="9.2527082"><ele>75.66666666666667</ele><time>2026-04-21T14:01:56.307Z</time></trkpt><trkpt lat="44.3418773" lon="9.2527832"><ele>76.33333333333334</ele><time>2026-04-21T14:01:57.298Z</time></trkpt><trkpt lat="44.3419171" lon="9.252873"><ele>77.0</ele><time>2026-04-21T14:01:58.302Z</time></trkpt><trkpt lat="44.3419498" lon="9.252978"><ele>77.0</ele><time>2026-04-21T14:01:59.302Z</time></trkpt><trkpt lat="44.3419858" lon="9.2530989"><ele>77.0</ele><time>2026-04-21T14:02:00.301Z</time></trkpt><trkpt lat="44.3420354" lon="9.2532189"><ele>77.0</ele><time>2026-04-21T14:02:01.3Z</time></trkpt><trkpt lat="44.3421061" lon="9.2533274"><ele>77.0</ele><time>2026-04-21T14:02:02.301Z</time></trkpt><trkpt lat="44.3421957" lon="9.2534233"><ele>77.0</ele><time>2026-04-21T14:02:03.3Z</time></trkpt><trkpt lat="44.3422964" lon="9.2535078"><ele>78.6</ele><time>2026-04-21T14:02:04.297Z</time></trkpt><trkpt lat="44.3424055" lon="9.2535737"><ele>80.2</ele><time>2026-04-21T14:02:05.299Z</time></trkpt><trkpt lat="44.3425154" lon="9.2536236"><ele>81.8</ele><time>2026-04-21T14:02:06.301Z</time></trkpt><trkpt lat="44.3426082" lon="9.2536689"><ele>83.4</ele><time>2026-04-21T14:02:07.299Z</time></trkpt><trkpt lat="44.3426932" lon="9.2537052"><ele>85.0</ele><time>2026-04-21T14:02:08.299Z</time></trkpt><trkpt lat="44.3427649" lon="9.2537511"><ele>85.0</ele><time>2026-04-21T14:02:09.295Z</time></trkpt><trkpt lat="44.3428233" lon="9.2538148"><ele>85.0</ele><time>2026-04-21T14:02:10.294Z</time></trkpt><trkpt lat="44.3428543" lon="9.2538985"><ele>85.0</ele><time>2026-04-21T14:02:11.295Z</time></trkpt><trkpt lat="44.3428513" lon="9.2539983"><ele>85.0</ele><time>2026-04-21T14:02:12.296Z</time></trkpt><trkpt lat="44.3428229" lon="9.2541252"><ele>85.0</ele><time>2026-04-21T14:02:13.3Z</time></trkpt><trkpt lat="44.3427833" lon="9.2542628"><ele>85.0</ele><time>2026-04-21T14:02:14.303Z</time></trkpt><trkpt lat="44.3427549" lon="9.2544028"><ele>84.33333333333333</ele><time>2026-04-21T14:02:15.305Z</time></trkpt><trkpt lat="44.3427556" lon="9.2545169"><ele>83.66666666666666</ele><time>2026-04-21T14:02:16.298Z</time></trkpt><trkpt lat="44.3427682" lon="9.2546176"><ele>83.0</ele><time>2026-04-21T14:02:17.299Z</time></trkpt><trkpt lat="44.3427812" lon="9.2547164"><ele>82.33333333333333</ele><time>2026-04-21T14:02:18.306Z</time></trkpt><trkpt lat="44.3427844" lon="9.2548129"><ele>81.66666666666667</ele><time>2026-04-21T14:02:19.304Z</time></trkpt><trkpt lat="44.3427568" lon="9.2549075"><ele>81.0</ele><time>2026-04-21T14:02:20.302Z</time></trkpt><trkpt lat="44.3426991" lon="9.254998"><ele>81.0</ele><time>2026-04-21T14:02:21.304Z</time></trkpt><trkpt lat="44.3426124" lon="9.2550624"><ele>81.0</ele><time>2026-04-21T14:02:22.3Z</time></trkpt><trkpt lat="44.3425031" lon="9.2550779"><ele>81.0</ele><time>2026-04-21T14:02:23.307Z</time></trkpt><trkpt lat="44.3423757" lon="9.2550404"><ele>81.0</ele><time>2026-04-21T14:02:24.305Z</time></trkpt><trkpt lat="44.3422417" lon="9.2549801"><ele>78.75</ele><time>2026-04-21T14:02:25.298Z</time></trkpt><trkpt lat="44.3421212" lon="9.2549142"><ele>76.5</ele><time>2026-04-21T14:02:26.306Z</time></trkpt><trkpt lat="44.3420066" lon="9.2548658"><ele>74.25</ele><time>2026-04-21T14:02:27.307Z</time></trkpt><trkpt lat="44.3418954" lon="9.2548302"><ele>72.0</ele><time>2026-04-21T14:02:28.305Z</time></trkpt><trkpt lat="44.3417874" lon="9.2548057"><ele>72.0</ele><time>2026-04-21T14:02:29.303Z</time></trkpt><trkpt lat="44.3416841" lon="9.2548042"><ele>72.0</ele><time>2026-04-21T14:02:30.3Z</time></trkpt><trkpt lat="44.3415911" lon="9.2548372"><ele>72.0</ele><time>2026-04-21T14:02:31.302Z</time></trkpt><trkpt lat="44.3415086" lon="9.2548854"><ele>72.0</ele><time>2026-04-21T14:02:32.298Z</time></trkpt><trkpt lat="44.3414402" lon="9.2549508"><ele>72.0</ele><time>2026-04-21T14:02:33.294Z</time></trkpt><trkpt lat="44.3413974" lon="9.2550413"><ele>72.0</ele><time>2026-04-21T14:02:34.297Z</time></trkpt><trkpt lat="44.3413817" lon="9.2551634"><ele>72.0</ele><time>2026-04-21T14:02:35.301Z</time></trkpt><trkpt lat="44.3413907" lon="9.255325"><ele>72.0</ele><time>2026-04-21T14:02:36.306Z</time></trkpt><trkpt lat="44.3414162" lon="9.2555266"><ele>72.0</ele><time>2026-04-21T14:02:37.304Z</time></trkpt><trkpt lat="44.3414357" lon="9.2557593"><ele>72.0</ele><time>2026-04-21T14:02:38.298Z</time></trkpt><trkpt lat="44.3414539" lon="9.2560027"><ele>77.0</ele><time>2026-04-21T14:02:39.296Z</time></trkpt><trkpt lat="44.3414845" lon="9.2562614"><ele>82.0</ele><time>2026-04-21T14:02:40.299Z</time></trkpt><trkpt lat="44.3415312" lon="9.2565352"><ele>87.0</ele><time>2026-04-21T14:02:41.299Z</time></trkpt><trkpt lat="44.3415854" lon="9.2567923"><ele>87.0</ele><time>2026-04-21T14:02:42.302Z</time></trkpt><trkpt lat="44.3416783" lon="9.2570139"><ele>87.0</ele><time>2026-04-21T14:02:43.297Z</time></trkpt><trkpt lat="44.3417684" lon="9.2571854"><ele>87.0</ele><time>2026-04-21T14:02:44.306Z</time></trkpt><trkpt lat="44.3418332" lon="9.2573511"><ele>87.25</ele><time>2026-04-21T14:02:45.296Z</time></trkpt><trkpt lat="44.3418418" lon="9.2575125"><ele>87.5</ele><time>2026-04-21T14:02:46.3Z</time></trkpt><trkpt lat="44.3418072" lon="9.2576936"><ele>87.75</ele><time>2026-04-21T14:02:47.301Z</time></trkpt><trkpt lat="44.3417774" lon="9.2578911"><ele>88.0</ele><time>2026-04-21T14:02:48.298Z</time></trkpt><trkpt lat="44.3417432" lon="9.258093"><ele>82.5</ele><time>2026-04-21T14:02:49.301Z</time></trkpt><trkpt lat="44.3417056" lon="9.2583027"><ele>77.0</ele><time>2026-04-21T14:02:50.297Z</time></trkpt><trkpt lat="44.3403929" lon="9.2621115"><ele>77.0</ele><time>2026-04-21T14:03:06.29Z</time></trkpt><trkpt lat="44.3402895" lon="9.2622475"><ele>77.0</ele><time>2026-04-21T14:03:07.289Z</time></trkpt><trkpt lat="44.3401015" lon="9.2623308"><ele>77.0</ele><time>2026-04-21T14:03:08.295Z</time></trkpt><trkpt lat="44.3398921" lon="9.2623402"><ele>71.33333333333334</ele><time>2026-04-21T14:03:09.292Z</time></trkpt><trkpt lat="44.3397138" lon="9.2623781"><ele>65.66666666666667</ele><time>2026-04-21T14:03:10.297Z</time></trkpt><trkpt lat="44.3395511" lon="9.2624387"><ele>60.0</ele><time>2026-04-21T14:03:11.3Z</time></trkpt><trkpt lat="44.3394083" lon="9.2625223"><ele>60.0</ele><time>2026-04-21T14:03:12.299Z</time></trkpt><trkpt lat="44.3392853" lon="9.2626347"><ele>60.0</ele><time>2026-04-21T14:03:13.297Z</time></trkpt><trkpt lat="44.3391962" lon="9.2627412"><ele>60.0</ele><time>2026-04-21T14:03:14.299Z</time></trkpt><trkpt lat="44.3391116" lon="9.2628193"><ele>60.0</ele><time>2026-04-21T14:03:15.3Z</time></trkpt><trkpt lat="44.339055" lon="9.262899"><ele>60.0</ele><time>2026-04-21T14:03:16.305Z</time></trkpt><trkpt lat="44.3389876" lon="9.2630085"><ele>60.0</ele><time>2026-04-21T14:03:18.304Z</time></trkpt><trkpt lat="44.338926" lon="9.2630476"><ele>60.0</ele><time>2026-04-21T14:03:22.301Z</time></trkpt><trkpt lat="44.3388391" lon="9.2631714"><ele>60.0</ele><time>2026-04-21T14:04:41.319Z</time></trkpt><trkpt lat="44.3387723" lon="9.2632685"><ele>60.0</ele><time>2026-04-21T14:04:42.314Z</time></trkpt><trkpt lat="44.3386861" lon="9.2633905"><ele>60.0</ele><time>2026-04-21T14:04:43.325Z</time></trkpt><trkpt lat="44.3385814" lon="9.2635227"><ele>62.0</ele><time>2026-04-21T14:04:44.32Z</time></trkpt><trkpt lat="44.3384612" lon="9.2636646"><ele>64.0</ele><time>2026-04-21T14:04:45.318Z</time></trkpt><trkpt lat="44.3383329" lon="9.2638187"><ele>66.0</ele><time>2026-04-21T14:04:46.317Z</time></trkpt><trkpt lat="44.3381985" lon="9.2639689"><ele>66.0</ele><time>2026-04-21T14:04:47.319Z</time></trkpt><trkpt lat="44.3380664" lon="9.264107"><ele>66.0</ele><time>2026-04-21T14:04:48.319Z</time></trkpt><trkpt lat="44.3379437" lon="9.2642448"><ele>66.0</ele><time>2026-04-21T14:04:49.318Z</time></trkpt><trkpt lat="44.3378232" lon="9.2643775"><ele>62.25</ele><time>2026-04-21T14:04:50.317Z</time></trkpt><trkpt lat="44.3377098" lon="9.2645059"><ele>58.5</ele><time>2026-04-21T14:04:51.316Z</time></trkpt><trkpt lat="44.3376044" lon="9.264631"><ele>54.75</ele><time>2026-04-21T14:04:52.317Z</time></trkpt><trkpt lat="44.3375033" lon="9.2647471"><ele>51.0</ele><time>2026-04-21T14:04:53.317Z</time></trkpt><trkpt lat="44.3374053" lon="9.2648618"><ele>51.0</ele><time>2026-04-21T14:04:54.318Z</time></trkpt><trkpt lat="44.3373189" lon="9.264992"><ele>51.0</ele><time>2026-04-21T14:04:55.317Z</time></trkpt><trkpt lat="44.3372647" lon="9.2651504"><ele>51.0</ele><time>2026-04-21T14:04:56.314Z</time></trkpt><trkpt lat="44.3372565" lon="9.265344"><ele>51.0</ele><time>2026-04-21T14:04:57.316Z</time></trkpt><trkpt lat="44.337295" lon="9.2655433"><ele>49.333333333333336</ele><time>2026-04-21T14:04:58.309Z</time></trkpt><trkpt lat="44.3373613" lon="9.2657344"><ele>47.66666666666667</ele><time>2026-04-21T14:04:59.319Z</time></trkpt><trkpt lat="44.337437" lon="9.2659246"><ele>46.0</ele><time>2026-04-21T14:05:00.313Z</time></trkpt><trkpt lat="44.3375288" lon="9.266117"><ele>46.0</ele><time>2026-04-21T14:05:01.317Z</time></trkpt><trkpt lat="44.3376134" lon="9.2663036"><ele>46.0</ele><time>2026-04-21T14:05:02.308Z</time></trkpt><trkpt lat="44.3376878" lon="9.2664783"><ele>46.0</ele><time>2026-04-21T14:05:03.316Z</time></trkpt><trkpt lat="44.3377669" lon="9.2666367"><ele>46.0</ele><time>2026-04-21T14:05:04.306Z</time></trkpt><trkpt lat="44.3378783" lon="9.266768"><ele>47.333333333333336</ele><time>2026-04-21T14:05:05.312Z</time></trkpt><trkpt lat="44.3380061" lon="9.2668783"><ele>48.66666666666667</ele><time>2026-04-21T14:05:06.319Z</time></trkpt><trkpt lat="44.3381531" lon="9.2669868"><ele>50.0</ele><time>2026-04-21T14:05:07.313Z</time></trkpt><trkpt lat="44.338296" lon="9.2670883"><ele>50.0</ele><time>2026-04-21T14:05:08.315Z</time></trkpt><trkpt lat="44.3384495" lon="9.2671906"><ele>50.0</ele><time>2026-04-21T14:05:09.317Z</time></trkpt><trkpt lat="44.3385989" lon="9.2673032"><ele>50.0</ele><time>2026-04-21T14:05:10.314Z</time></trkpt><trkpt lat="44.3387401" lon="9.2674202"><ele>47.333333333333336</ele><time>2026-04-21T14:05:11.312Z</time></trkpt><trkpt lat="44.3388814" lon="9.2675404"><ele>44.66666666666667</ele><time>2026-04-21T14:05:12.306Z</time></trkpt><trkpt lat="44.3390193" lon="9.2676614"><ele>42.0</ele><time>2026-04-21T14:05:13.312Z</time></trkpt><trkpt lat="44.3391576" lon="9.2677797"><ele>42.0</ele><time>2026-04-21T14:05:14.314Z</time></trkpt><trkpt lat="44.3392937" lon="9.2678973"><ele>42.0</ele><time>2026-04-21T14:05:15.307Z</time></trkpt><trkpt lat="44.3394272" lon="9.2680136"><ele>42.0</ele><time>2026-04-21T14:05:16.305Z</time></trkpt><trkpt lat="44.3395535" lon="9.2681242"><ele>38.0</ele><time>2026-04-21T14:05:17.31Z</time></trkpt><trkpt lat="44.3396699" lon="9.2682507"><ele>34.0</ele><time>2026-04-21T14:05:18.311Z</time></trkpt><trkpt lat="44.339761" lon="9.2684065"><ele>30.0</ele><time>2026-04-21T14:05:19.319Z</time></trkpt><trkpt lat="44.3398059" lon="9.2686005"><ele>26.0</ele><time>2026-04-21T14:05:20.313Z</time></trkpt><trkpt lat="44.3398055" lon="9.26881"><ele>26.0</ele><time>2026-04-21T14:05:21.314Z</time></trkpt><trkpt lat="44.3397686" lon="9.269022"><ele>26.0</ele><time>2026-04-21T14:05:22.307Z</time></trkpt><trkpt lat="44.3396782" lon="9.2691956"><ele>26.0</ele><time>2026-04-21T14:05:23.307Z</time></trkpt><trkpt lat="44.3395514" lon="9.2693288"><ele>26.666666666666664</ele><time>2026-04-21T14:05:24.312Z</time></trkpt><trkpt lat="44.3393919" lon="9.2694317"><ele>27.333333333333336</ele><time>2026-04-21T14:05:25.312Z</time></trkpt><trkpt lat="44.3392287" lon="9.2694733"><ele>28.0</ele><time>2026-04-21T14:05:26.303Z</time></trkpt><trkpt lat="44.339072" lon="9.2694402"><ele>28.0</ele><time>2026-04-21T14:05:27.298Z</time></trkpt><trkpt lat="44.3389243" lon="9.2693201"><ele>28.0</ele><time>2026-04-21T14:05:28.304Z</time></trkpt><trkpt lat="44.3387901" lon="9.2691701"><ele>28.0</ele><time>2026-04-21T14:05:29.304Z</time></trkpt><trkpt lat="44.3386566" lon="9.2690565"><ele>25.25</ele><time>2026-04-21T14:05:30.304Z</time></trkpt><trkpt lat="44.3385122" lon="9.2689848"><ele>22.5</ele><time>2026-04-21T14:05:31.296Z</time></trkpt><trkpt lat="44.3383726" lon="9.2689481"><ele>19.75</ele><time>2026-04-21T14:05:32.302Z</time></trkpt><trkpt lat="44.3382449" lon="9.2689214"><ele>17.0</ele><time>2026-04-21T14:05:33.306Z</time></trkpt><trkpt lat="44.3381358" lon="9.2689069"><ele>18.333333333333336</ele><time>2026-04-21T14:05:34.297Z</time></trkpt><trkpt lat="44.3380463" lon="9.2688949"><ele>19.666666666666668</ele><time>2026-04-21T14:05:35.299Z</time></trkpt><trkpt lat="44.3379729" lon="9.2688825"><ele>21.0</ele><time>2026-04-21T14:05:36.297Z</time></trkpt><trkpt lat="44.33791" lon="9.2688714"><ele>22.333333333333336</ele><time>2026-04-21T14:05:37.292Z</time></trkpt><trkpt lat="44.3377933" lon="9.2688577"><ele>23.666666666666668</ele><time>2026-04-21T14:05:39.299Z</time></trkpt><trkpt lat="44.3377261" lon="9.2688416"><ele>25.0</ele><time>2026-04-21T14:05:40.301Z</time></trkpt><trkpt lat="44.3376482" lon="9.2688301"><ele>25.0</ele><time>2026-04-21T14:05:41.302Z</time></trkpt><trkpt lat="44.3375624" lon="9.2688016"><ele>25.0</ele><time>2026-04-21T14:05:42.301Z</time></trkpt><trkpt lat="44.337452" lon="9.2687515"><ele>25.0</ele><time>2026-04-21T14:05:43.303Z</time></trkpt><trkpt lat="44.3373327" lon="9.2686915"><ele>25.0</ele><time>2026-04-21T14:05:44.305Z</time></trkpt><trkpt lat="44.3372052" lon="9.2686361"><ele>28.0</ele><time>2026-04-21T14:05:45.304Z</time></trkpt><trkpt lat="44.3370751" lon="9.2685936"><ele>31.0</ele><time>2026-04-21T14:05:46.307Z</time></trkpt><trkpt lat="44.3369494" lon="9.2685398"><ele>34.0</ele><time>2026-04-21T14:05:47.302Z</time></trkpt><trkpt lat="44.3368406" lon="9.2684786"><ele>37.0</ele><time>2026-04-21T14:05:48.302Z</time></trkpt><trkpt lat="44.3367526" lon="9.2684236"><ele>37.0</ele><time>2026-04-21T14:05:49.305Z</time></trkpt><trkpt lat="44.3366827" lon="9.2683601"><ele>37.0</ele><time>2026-04-21T14:05:50.309Z</time></trkpt><trkpt lat="44.3366215" lon="9.2683086"><ele>37.0</ele><time>2026-04-21T14:05:51.304Z</time></trkpt><trkpt lat="44.3365575" lon="9.2682601"><ele>37.0</ele><time>2026-04-21T14:05:52.306Z</time></trkpt><trkpt lat="44.3364846" lon="9.268251"><ele>37.0</ele><time>2026-04-21T14:05:53.31Z</time></trkpt><trkpt lat="44.3364095" lon="9.2682832"><ele>37.0</ele><time>2026-04-21T14:05:54.308Z</time></trkpt><trkpt lat="44.3363333" lon="9.2683576"><ele>36.0</ele><time>2026-04-21T14:05:55.306Z</time></trkpt><trkpt lat="44.3362647" lon="9.268446"><ele>35.0</ele><time>2026-04-21T14:05:56.309Z</time></trkpt><trkpt lat="44.3362085" lon="9.2685352"><ele>34.0</ele><time>2026-04-21T14:05:57.309Z</time></trkpt><trkpt lat="44.3361548" lon="9.2686229"><ele>33.0</ele><time>2026-04-21T14:05:58.301Z</time></trkpt><trkpt lat="44.3361258" lon="9.2687086"><ele>32.0</ele><time>2026-04-21T14:05:59.313Z</time></trkpt><trkpt lat="44.3361212" lon="9.2688049"><ele>31.0</ele><time>2026-04-21T14:06:00.309Z</time></trkpt><trkpt lat="44.3361395" lon="9.2688939"><ele>31.200000000000003</ele><time>2026-04-21T14:06:01.307Z</time></trkpt><trkpt lat="44.3361857" lon="9.2689723"><ele>31.400000000000002</ele><time>2026-04-21T14:06:02.302Z</time></trkpt><trkpt lat="44.3362533" lon="9.2690635"><ele>31.6</ele><time>2026-04-21T14:06:03.304Z</time></trkpt><trkpt lat="44.3363276" lon="9.2691685"><ele>31.8</ele><time>2026-04-21T14:06:04.303Z</time></trkpt><trkpt lat="44.3364026" lon="9.2692837"><ele>32.0</ele><time>2026-04-21T14:06:05.296Z</time></trkpt><trkpt lat="44.3364679" lon="9.2693969"><ele>36.0</ele><time>2026-04-21T14:06:06.307Z</time></trkpt><trkpt lat="44.3365131" lon="9.2695138"><ele>40.0</ele><time>2026-04-21T14:06:07.306Z</time></trkpt><trkpt lat="44.3365478" lon="9.2696425"><ele>44.0</ele><time>2026-04-21T14:06:08.302Z</time></trkpt><trkpt lat="44.3365627" lon="9.2697838"><ele>48.0</ele><time>2026-04-21T14:06:09.3Z</time></trkpt><trkpt lat="44.3365642" lon="9.2699261"><ele>52.0</ele><time>2026-04-21T14:06:10.302Z</time></trkpt><trkpt lat="44.3365585" lon="9.2700618"><ele>53.8</ele><time>2026-04-21T14:06:11.301Z</time></trkpt><trkpt lat="44.3365465" lon="9.2701959"><ele>55.6</ele><time>2026-04-21T14:06:12.303Z</time></trkpt><trkpt lat="44.336535" lon="9.2703109"><ele>57.39999999999999</ele><time>2026-04-21T14:06:13.304Z</time></trkpt><trkpt lat="44.3365226" lon="9.2704049"><ele>59.199999999999996</ele><time>2026-04-21T14:06:14.306Z</time></trkpt><trkpt lat="44.33651" lon="9.2705623"><ele>61.0</ele><time>2026-04-21T14:06:16.304Z</time></trkpt><trkpt lat="44.3364404" lon="9.2706766"><ele>61.8</ele><time>2026-04-21T14:06:18.307Z</time></trkpt><trkpt lat="44.3363711" lon="9.2706992"><ele>62.599999999999994</ele><time>2026-04-21T14:06:19.305Z</time></trkpt><trkpt lat="44.3362863" lon="9.2706951"><ele>63.4</ele><time>2026-04-21T14:06:20.307Z</time></trkpt><trkpt lat="44.3361905" lon="9.2706687"><ele>64.2</ele><time>2026-04-21T14:06:21.305Z</time></trkpt><trkpt lat="44.3360932" lon="9.2706305"><ele>65.0</ele><time>2026-04-21T14:06:22.305Z</time></trkpt><trkpt lat="44.3359942" lon="9.2705993"><ele>65.0</ele><time>2026-04-21T14:06:23.301Z</time></trkpt><trkpt lat="44.3358925" lon="9.2705791"><ele>65.0</ele><time>2026-04-21T14:06:24.306Z</time></trkpt><trkpt lat="44.3357852" lon="9.2705845"><ele>65.0</ele><time>2026-04-21T14:06:25.308Z</time></trkpt><trkpt lat="44.3356783" lon="9.2706247"><ele>65.0</ele><time>2026-04-21T14:06:26.309Z</time></trkpt><trkpt lat="44.3355634" lon="9.2706819"><ele>65.0</ele><time>2026-04-21T14:06:27.301Z</time></trkpt><trkpt lat="44.3354544" lon="9.2707491"><ele>60.0</ele><time>2026-04-21T14:06:28.305Z</time></trkpt><trkpt lat="44.3353486" lon="9.2708236"><ele>55.0</ele><time>2026-04-21T14:06:29.303Z</time></trkpt><trkpt lat="44.3352509" lon="9.2709115"><ele>50.0</ele><time>2026-04-21T14:06:30.306Z</time></trkpt><trkpt lat="44.3351607" lon="9.2710127"><ele>45.0</ele><time>2026-04-21T14:06:31.303Z</time></trkpt><trkpt lat="44.3350814" lon="9.2711296"><ele>45.0</ele><time>2026-04-21T14:06:32.305Z</time></trkpt><trkpt lat="44.3350163" lon="9.27126"><ele>45.0</ele><time>2026-04-21T14:06:33.303Z</time></trkpt><trkpt lat="44.3349573" lon="9.2713975"><ele>45.0</ele><time>2026-04-21T14:06:34.303Z</time></trkpt><trkpt lat="44.3348993" lon="9.2715433"><ele>45.0</ele><time>2026-04-21T14:06:35.303Z</time></trkpt><trkpt lat="44.3348376" lon="9.2716877"><ele>44.5</ele><time>2026-04-21T14:06:36.3Z</time></trkpt><trkpt lat="44.3347658" lon="9.2718211"><ele>44.0</ele><time>2026-04-21T14:06:37.304Z</time></trkpt><trkpt lat="44.3346832" lon="9.2719491"><ele>43.5</ele><time>2026-04-21T14:06:38.305Z</time></trkpt><trkpt lat="44.3345947" lon="9.2720681"><ele>43.0</ele><time>2026-04-21T14:06:39.309Z</time></trkpt><trkpt lat="44.3345075" lon="9.2721938"><ele>45.75</ele><time>2026-04-21T14:06:40.306Z</time></trkpt><trkpt lat="44.3344323" lon="9.272334"><ele>48.5</ele><time>2026-04-21T14:06:41.301Z</time></trkpt><trkpt lat="44.3343767" lon="9.2724862"><ele>51.25</ele><time>2026-04-21T14:06:42.304Z</time></trkpt><trkpt lat="44.334329" lon="9.2726471"><ele>54.0</ele><time>2026-04-21T14:06:43.31Z</time></trkpt><trkpt lat="44.334289" lon="9.2728098"><ele>54.0</ele><time>2026-04-21T14:06:44.302Z</time></trkpt><trkpt lat="44.334254" lon="9.2729733"><ele>54.0</ele><time>2026-04-21T14:06:45.298Z</time></trkpt><trkpt lat="44.3342199" lon="9.2731384"><ele>54.0</ele><time>2026-04-21T14:06:46.307Z</time></trkpt><trkpt lat="44.3341846" lon="9.2733071"><ele>54.0</ele><time>2026-04-21T14:06:47.299Z</time></trkpt><trkpt lat="44.334151" lon="9.273474"><ele>58.0</ele><time>2026-04-21T14:06:48.304Z</time></trkpt><trkpt lat="44.3341133" lon="9.273629"><ele>62.00000000000001</ele><time>2026-04-21T14:06:49.305Z</time></trkpt><trkpt lat="44.3340722" lon="9.2737635"><ele>66.0</ele><time>2026-04-21T14:06:50.307Z</time></trkpt><trkpt lat="44.3340223" lon="9.2738815"><ele>70.0</ele><time>2026-04-21T14:06:51.307Z</time></trkpt><trkpt lat="44.3339686" lon="9.2739993"><ele>74.0</ele><time>2026-04-21T14:06:52.302Z</time></trkpt><trkpt lat="44.3339174" lon="9.2741258"><ele>69.4</ele><time>2026-04-21T14:06:53.301Z</time></trkpt><trkpt lat="44.3338791" lon="9.2742576"><ele>64.80000000000001</ele><time>2026-04-21T14:06:54.303Z</time></trkpt><trkpt lat="44.3338513" lon="9.2743955"><ele>60.2</ele><time>2026-04-21T14:06:55.306Z</time></trkpt><trkpt lat="44.3338385" lon="9.2745378"><ele>55.599999999999994</ele><time>2026-04-21T14:06:56.303Z</time></trkpt><trkpt lat="44.3338395" lon="9.274678"><ele>51.0</ele><time>2026-04-21T14:06:57.309Z</time></trkpt><trkpt lat="44.3338444" lon="9.2748223"><ele>51.0</ele><time>2026-04-21T14:06:58.302Z</time></trkpt><trkpt lat="44.3338478" lon="9.2749733"><ele>51.0</ele><time>2026-04-21T14:06:59.304Z</time></trkpt><trkpt lat="44.3338474" lon="9.2751349"><ele>51.0</ele><time>2026-04-21T14:07:00.303Z</time></trkpt><trkpt lat="44.3338434" lon="9.27531"><ele>51.0</ele><time>2026-04-21T14:07:01.306Z</time></trkpt><trkpt lat="44.3338377" lon="9.2755035"><ele>55.0</ele><time>2026-04-21T14:07:02.309Z</time></trkpt><trkpt lat="44.3338262" lon="9.2757206"><ele>59.0</ele><time>2026-04-21T14:07:03.308Z</time></trkpt><trkpt lat="44.3338048" lon="9.2759513"><ele>63.0</ele><time>2026-04-21T14:07:04.301Z</time></trkpt><trkpt lat="44.3337797" lon="9.2761877"><ele>63.0</ele><time>2026-04-21T14:07:05.305Z</time></trkpt><trkpt lat="44.333754" lon="9.2764051"><ele>63.0</ele><time>2026-04-21T14:07:06.307Z</time></trkpt><trkpt lat="44.3337315" lon="9.2765799"><ele>63.0</ele><time>2026-04-21T14:07:07.299Z</time></trkpt><trkpt lat="44.3337138" lon="9.2767225"><ele>63.0</ele><time>2026-04-21T14:07:08.299Z</time></trkpt><trkpt lat="44.3336968" lon="9.276848"><ele>65.6</ele><time>2026-04-21T14:07:09.298Z</time></trkpt><trkpt lat="44.333682" lon="9.276964"><ele>68.19999999999999</ele><time>2026-04-21T14:07:10.305Z</time></trkpt><trkpt lat="44.3336531" lon="9.2770625"><ele>70.8</ele><time>2026-04-21T14:07:11.303Z</time></trkpt><trkpt lat="44.3335904" lon="9.277138"><ele>73.39999999999999</ele><time>2026-04-21T14:07:12.304Z</time></trkpt><trkpt lat="44.3334891" lon="9.2771667"><ele>76.0</ele><time>2026-04-21T14:07:13.302Z</time></trkpt><trkpt lat="44.3333817" lon="9.2771494"><ele>76.0</ele><time>2026-04-21T14:07:14.305Z</time></trkpt><trkpt lat="44.3332873" lon="9.2770788"><ele>76.0</ele><time>2026-04-21T14:07:15.307Z</time></trkpt><trkpt lat="44.3332068" lon="9.2769908"><ele>76.0</ele><time>2026-04-21T14:07:16.305Z</time></trkpt><trkpt lat="44.3331328" lon="9.2769098"><ele>76.0</ele><time>2026-04-21T14:07:17.3Z</time></trkpt><trkpt lat="44.3330568" lon="9.2768554"><ele>76.0</ele><time>2026-04-21T14:07:18.303Z</time></trkpt><trkpt lat="44.3329704" lon="9.2768446"><ele>72.6</ele><time>2026-04-21T14:07:19.306Z</time></trkpt><trkpt lat="44.3328848" lon="9.2768705"><ele>69.19999999999999</ele><time>2026-04-21T14:07:20.304Z</time></trkpt><trkpt lat="44.3327935" lon="9.2769388"><ele>65.80000000000001</ele><time>2026-04-21T14:07:21.305Z</time></trkpt><trkpt lat="44.3327018" lon="9.2770207"><ele>62.400000000000006</ele><time>2026-04-21T14:07:22.299Z</time></trkpt><trkpt lat="44.3326157" lon="9.2771107"><ele>59.0</ele><time>2026-04-21T14:07:23.304Z</time></trkpt><trkpt lat="44.3325292" lon="9.2772028"><ele>59.400000000000006</ele><time>2026-04-21T14:07:24.302Z</time></trkpt><trkpt lat="44.3324473" lon="9.2772986"><ele>59.800000000000004</ele><time>2026-04-21T14:07:25.304Z</time></trkpt><trkpt lat="44.332361" lon="9.2773989"><ele>60.199999999999996</ele><time>2026-04-21T14:07:26.303Z</time></trkpt><trkpt lat="44.3322819" lon="9.2774935"><ele>60.599999999999994</ele><time>2026-04-21T14:07:27.297Z</time></trkpt><trkpt lat="44.3322017" lon="9.2775852"><ele>61.0</ele><time>2026-04-21T14:07:28.3Z</time></trkpt><trkpt lat="44.3321106" lon="9.2776988"><ele>61.0</ele><time>2026-04-21T14:07:29.299Z</time></trkpt><trkpt lat="44.3319935" lon="9.2778541"><ele>61.0</ele><time>2026-04-21T14:07:30.3Z</time></trkpt><trkpt lat="44.3318562" lon="9.2780427"><ele>61.0</ele><time>2026-04-21T14:07:31.303Z</time></trkpt><trkpt lat="44.3317358" lon="9.2781894"><ele>61.75</ele><time>2026-04-21T14:07:32.301Z</time></trkpt><trkpt lat="44.3316226" lon="9.2783176"><ele>62.5</ele><time>2026-04-21T14:07:33.303Z</time></trkpt><trkpt lat="44.3315281" lon="9.2784229"><ele>63.25</ele><time>2026-04-21T14:07:34.305Z</time></trkpt><trkpt lat="44.3314465" lon="9.2785065"><ele>64.0</ele><time>2026-04-21T14:07:35.297Z</time></trkpt><trkpt lat="44.3313661" lon="9.2785571"><ele>64.0</ele><time>2026-04-21T14:07:36.296Z</time></trkpt><trkpt lat="44.3312846" lon="9.2786025"><ele>64.0</ele><time>2026-04-21T14:07:37.294Z</time></trkpt><trkpt lat="44.3311905" lon="9.2786705"><ele>64.0</ele><time>2026-04-21T14:07:38.297Z</time></trkpt><trkpt lat="44.3311066" lon="9.2787489"><ele>64.0</ele><time>2026-04-21T14:07:39.298Z</time></trkpt><trkpt lat="44.3310233" lon="9.2788572"><ele>64.0</ele><time>2026-04-21T14:07:40.299Z</time></trkpt><trkpt lat="44.330961" lon="9.2789441"><ele>67.33333333333333</ele><time>2026-04-21T14:07:41.304Z</time></trkpt><trkpt lat="44.3309037" lon="9.2790208"><ele>70.66666666666666</ele><time>2026-04-21T14:07:42.298Z</time></trkpt><trkpt lat="44.3308424" lon="9.2790905"><ele>74.0</ele><time>2026-04-21T14:07:43.3Z</time></trkpt><trkpt lat="44.3307947" lon="9.2791767"><ele>77.33333333333333</ele><time>2026-04-21T14:07:44.307Z</time></trkpt><trkpt lat="44.3307683" lon="9.2792771"><ele>80.66666666666667</ele><time>2026-04-21T14:07:45.303Z</time></trkpt><trkpt lat="44.3307686" lon="9.2793872"><ele>84.0</ele><time>2026-04-21T14:07:46.301Z</time></trkpt><trkpt lat="44.3308057" lon="9.2794803"><ele>84.0</ele><time>2026-04-21T14:07:47.306Z</time></trkpt><trkpt lat="44.3308695" lon="9.2795453"><ele>84.0</ele><time>2026-04-21T14:07:48.298Z</time></trkpt><trkpt lat="44.3309695" lon="9.279584"><ele>84.0</ele><time>2026-04-21T14:07:49.31Z</time></trkpt><trkpt lat="44.3310739" lon="9.2796028"><ele>84.0</ele><time>2026-04-21T14:07:50.301Z</time></trkpt><trkpt lat="44.3311703" lon="9.2796216"><ele>84.0</ele><time>2026-04-21T14:07:51.302Z</time></trkpt><trkpt lat="44.3312744" lon="9.279653"><ele>84.0</ele><time>2026-04-21T14:07:52.303Z</time></trkpt><trkpt lat="44.3313743" lon="9.2796935"><ele>84.0</ele><time>2026-04-21T14:07:53.308Z</time></trkpt><trkpt lat="44.331491" lon="9.2797405"><ele>84.0</ele><time>2026-04-21T14:07:54.306Z</time></trkpt><trkpt lat="44.3316185" lon="9.2798084"><ele>84.0</ele><time>2026-04-21T14:07:55.305Z</time></trkpt><trkpt lat="44.3317561" lon="9.2799031"><ele>85.25</ele><time>2026-04-21T14:07:56.298Z</time></trkpt><trkpt lat="44.331894" lon="9.2799975"><ele>86.5</ele><time>2026-04-21T14:07:57.3Z</time></trkpt><trkpt lat="44.332026" lon="9.2800765"><ele>87.75</ele><time>2026-04-21T14:07:58.299Z</time></trkpt><trkpt lat="44.3321489" lon="9.2801415"><ele>89.0</ele><time>2026-04-21T14:07:59.301Z</time></trkpt><trkpt lat="44.332262" lon="9.2802095"><ele>98.75</ele><time>2026-04-21T14:08:00.302Z</time></trkpt><trkpt lat="44.3323636" lon="9.2802892"><ele>108.5</ele><time>2026-04-21T14:08:01.302Z</time></trkpt><trkpt lat="44.3324566" lon="9.2803834"><ele>118.25</ele><time>2026-04-21T14:08:02.303Z</time></trkpt><trkpt lat="44.3325409" lon="9.2804911"><ele>128.0</ele><time>2026-04-21T14:08:03.304Z</time></trkpt><trkpt lat="44.3326219" lon="9.2805992"><ele>120.75</ele><time>2026-04-21T14:08:04.296Z</time></trkpt><trkpt lat="44.3327009" lon="9.2807076"><ele>113.5</ele><time>2026-04-21T14:08:05.306Z</time></trkpt><trkpt lat="44.3327811" lon="9.2808173"><ele>106.25</ele><time>2026-04-21T14:08:06.298Z</time></trkpt><trkpt lat="44.3328568" lon="9.280939"><ele>99.0</ele><time>2026-04-21T14:08:07.294Z</time></trkpt><trkpt lat="44.3329303" lon="9.281068"><ele>99.0</ele><time>2026-04-21T14:08:08.298Z</time></trkpt><trkpt lat="44.3329921" lon="9.2812002"><ele>99.0</ele><time>2026-04-21T14:08:09.293Z</time></trkpt><trkpt lat="44.3330475" lon="9.2813287"><ele>99.0</ele><time>2026-04-21T14:08:10.302Z</time></trkpt><trkpt lat="44.3330942" lon="9.2814467"><ele>99.0</ele><time>2026-04-21T14:08:11.295Z</time></trkpt><trkpt lat="44.3331309" lon="9.2815412"><ele>99.0</ele><time>2026-04-21T14:08:12.294Z</time></trkpt><trkpt lat="44.3331806" lon="9.2816527"><ele>103.5</ele><time>2026-04-21T14:08:14.299Z</time></trkpt><trkpt lat="44.3332298" lon="9.2817101"><ele>108.0</ele><time>2026-04-21T14:08:43.307Z</time></trkpt><trkpt lat="44.3332857" lon="9.2818239"><ele>112.5</ele><time>2026-04-21T14:08:46.307Z</time></trkpt><trkpt lat="44.3333257" lon="9.281915"><ele>117.0</ele><time>2026-04-21T14:08:48.31Z</time></trkpt><trkpt lat="44.3333647" lon="9.2820129"><ele>121.5</ele><time>2026-04-21T14:08:50.311Z</time></trkpt><trkpt lat="44.3334014" lon="9.2821034"><ele>126.0</ele><time>2026-04-21T14:08:52.302Z</time></trkpt><trkpt lat="44.3334182" lon="9.282208"><ele>126.5</ele><time>2026-04-21T14:08:54.307Z</time></trkpt><trkpt lat="44.3333867" lon="9.2823007"><ele>127.0</ele><time>2026-04-21T14:08:56.306Z</time></trkpt><trkpt lat="44.3332749" lon="9.2823444"><ele>127.5</ele><time>2026-04-21T14:08:58.297Z</time></trkpt><trkpt lat="44.3331934" lon="9.2823372"><ele>128.0</ele><time>2026-04-21T14:08:59.297Z</time></trkpt><trkpt lat="44.3331074" lon="9.2823172"><ele>128.5</ele><time>2026-04-21T14:09:00.306Z</time></trkpt><trkpt lat="44.3330215" lon="9.2822935"><ele>129.0</ele><time>2026-04-21T14:09:01.307Z</time></trkpt><trkpt lat="44.3329373" lon="9.2822706"><ele>129.0</ele><time>2026-04-21T14:09:02.302Z</time></trkpt><trkpt lat="44.3328459" lon="9.282254"><ele>129.0</ele><time>2026-04-21T14:09:03.296Z</time></trkpt><trkpt lat="44.3327581" lon="9.2822498"><ele>129.0</ele><time>2026-04-21T14:09:04.299Z</time></trkpt><trkpt lat="44.3326665" lon="9.2822542"><ele>129.0</ele><time>2026-04-21T14:09:05.306Z</time></trkpt><trkpt lat="44.3325732" lon="9.2822606"><ele>129.0</ele><time>2026-04-21T14:09:06.306Z</time></trkpt><trkpt lat="44.3324795" lon="9.28227"><ele>129.0</ele><time>2026-04-21T14:09:07.304Z</time></trkpt><trkpt lat="44.3323922" lon="9.2822862"><ele>129.0</ele><time>2026-04-21T14:09:08.307Z</time></trkpt><trkpt lat="44.3323111" lon="9.2823168"><ele>129.0</ele><time>2026-04-21T14:09:09.303Z</time></trkpt><trkpt lat="44.3322399" lon="9.2823727"><ele>129.0</ele><time>2026-04-21T14:09:10.295Z</time></trkpt><trkpt lat="44.3321789" lon="9.2824614"><ele>129.0</ele><time>2026-04-21T14:09:11.302Z</time></trkpt><trkpt lat="44.3321353" lon="9.2825703"><ele>129.0</ele><time>2026-04-21T14:09:12.303Z</time></trkpt><trkpt lat="44.3321137" lon="9.2827026"><ele>131.4</ele><time>2026-04-21T14:09:13.304Z</time></trkpt><trkpt lat="44.3321143" lon="9.2828501"><ele>133.8</ele><time>2026-04-21T14:09:14.305Z</time></trkpt><trkpt lat="44.332135" lon="9.2830016"><ele>136.2</ele><time>2026-04-21T14:09:15.299Z</time></trkpt><trkpt lat="44.3321685" lon="9.2831463"><ele>138.6</ele><time>2026-04-21T14:09:16.319Z</time></trkpt><trkpt lat="44.3322086" lon="9.2832912"><ele>141.0</ele><time>2026-04-21T14:09:17.316Z</time></trkpt><trkpt lat="44.3322505" lon="9.283437"><ele>141.0</ele><time>2026-04-21T14:09:18.319Z</time></trkpt><trkpt lat="44.3322936" lon="9.2835802"><ele>141.0</ele><time>2026-04-21T14:09:19.32Z</time></trkpt><trkpt lat="44.3323404" lon="9.2837187"><ele>141.0</ele><time>2026-04-21T14:09:20.321Z</time></trkpt><trkpt lat="44.3323978" lon="9.2838478"><ele>141.0</ele><time>2026-04-21T14:09:21.317Z</time></trkpt><trkpt lat="44.3324602" lon="9.2839622"><ele>141.0</ele><time>2026-04-21T14:09:22.322Z</time></trkpt><trkpt lat="44.332522" lon="9.2840631"><ele>141.33333333333334</ele><time>2026-04-21T14:09:23.307Z</time></trkpt><trkpt lat="44.3325828" lon="9.2841601"><ele>141.66666666666666</ele><time>2026-04-21T14:09:24.324Z</time></trkpt><trkpt lat="44.3326307" lon="9.2842509"><ele>142.0</ele><time>2026-04-21T14:09:25.316Z</time></trkpt><trkpt lat="44.332659" lon="9.2843386"><ele>142.33333333333331</ele><time>2026-04-21T14:09:26.308Z</time></trkpt><trkpt lat="44.3326483" lon="9.2845086"><ele>142.66666666666666</ele><time>2026-04-21T14:09:28.308Z</time></trkpt><trkpt lat="44.3325878" lon="9.2845864"><ele>143.0</ele><time>2026-04-21T14:09:29.315Z</time></trkpt><trkpt lat="44.3324858" lon="9.2846612"><ele>143.0</ele><time>2026-04-21T14:09:30.304Z</time></trkpt><trkpt lat="44.3323483" lon="9.2847386"><ele>143.0</ele><time>2026-04-21T14:09:31.308Z</time></trkpt><trkpt lat="44.332179" lon="9.2848152"><ele>143.0</ele><time>2026-04-21T14:09:32.311Z</time></trkpt><trkpt lat="44.3319935" lon="9.2848812"><ele>141.0</ele><time>2026-04-21T14:09:33.323Z</time></trkpt><trkpt lat="44.331807" lon="9.2849524"><ele>139.0</ele><time>2026-04-21T14:09:34.321Z</time></trkpt><trkpt lat="44.3316478" lon="9.2850436"><ele>137.0</ele><time>2026-04-21T14:09:35.322Z</time></trkpt><trkpt lat="44.3315338" lon="9.2851656"><ele>137.0</ele><time>2026-04-21T14:09:36.305Z</time></trkpt><trkpt lat="44.3314595" lon="9.2853375"><ele>137.0</ele><time>2026-04-21T14:09:37.299Z</time></trkpt><trkpt lat="44.3314374" lon="9.2855475"><ele>137.0</ele><time>2026-04-21T14:09:38.306Z</time></trkpt><trkpt lat="44.3314229" lon="9.2857687"><ele>131.33333333333331</ele><time>2026-04-21T14:09:39.302Z</time></trkpt><trkpt lat="44.3313927" lon="9.285989"><ele>125.66666666666666</ele><time>2026-04-21T14:09:40.302Z</time></trkpt><trkpt lat="44.3313221" lon="9.2861904"><ele>120.0</ele><time>2026-04-21T14:09:41.303Z</time></trkpt><trkpt lat="44.3312361" lon="9.2863873"><ele>125.5</ele><time>2026-04-21T14:09:42.304Z</time></trkpt><trkpt lat="44.3311807" lon="9.2865861"><ele>131.0</ele><time>2026-04-21T14:09:43.304Z</time></trkpt><trkpt lat="44.3311376" lon="9.2867761"><ele>136.5</ele><time>2026-04-21T14:09:44.301Z</time></trkpt><trkpt lat="44.3311124" lon="9.2869517"><ele>142.0</ele><time>2026-04-21T14:09:45.305Z</time></trkpt><trkpt lat="44.3310873" lon="9.2871133"><ele>145.6</ele><time>2026-04-21T14:09:46.305Z</time></trkpt><trkpt lat="44.3310638" lon="9.287263"><ele>149.2</ele><time>2026-04-21T14:09:47.304Z</time></trkpt><trkpt lat="44.3310393" lon="9.2874012"><ele>152.8</ele><time>2026-04-21T14:09:48.307Z</time></trkpt><trkpt lat="44.3310051" lon="9.2875273"><ele>156.4</ele><time>2026-04-21T14:09:49.305Z</time></trkpt><trkpt lat="44.3309531" lon="9.2876565"><ele>160.0</ele><time>2026-04-21T14:09:50.308Z</time></trkpt><trkpt lat="44.3308777" lon="9.2877587"><ele>160.0</ele><time>2026-04-21T14:09:51.305Z</time></trkpt><trkpt lat="44.3307891" lon="9.2878424"><ele>160.0</ele><time>2026-04-21T14:09:52.307Z</time></trkpt><trkpt lat="44.3306965" lon="9.287917"><ele>160.0</ele><time>2026-04-21T14:09:53.307Z</time></trkpt><trkpt lat="44.3305942" lon="9.2879761"><ele>160.0</ele><time>2026-04-21T14:09:54.308Z</time></trkpt><trkpt lat="44.3304944" lon="9.2879964"><ele>160.0</ele><time>2026-04-21T14:09:55.306Z</time></trkpt><trkpt lat="44.3303871" lon="9.2879764"><ele>159.4</ele><time>2026-04-21T14:09:56.309Z</time></trkpt><trkpt lat="44.33029" lon="9.2879159"><ele>158.8</ele><time>2026-04-21T14:09:57.304Z</time></trkpt><trkpt lat="44.3301921" lon="9.2878459"><ele>158.2</ele><time>2026-04-21T14:09:58.306Z</time></trkpt><trkpt lat="44.3300926" lon="9.287793"><ele>157.6</ele><time>2026-04-21T14:09:59.301Z</time></trkpt><trkpt lat="44.3299922" lon="9.287756"><ele>157.0</ele><time>2026-04-21T14:10:00.303Z</time></trkpt><trkpt lat="44.3298888" lon="9.2877475"><ele>157.0</ele><time>2026-04-21T14:10:01.305Z</time></trkpt><trkpt lat="44.3297788" lon="9.287772"><ele>157.0</ele><time>2026-04-21T14:10:02.304Z</time></trkpt><trkpt lat="44.3296655" lon="9.2878399"><ele>157.0</ele><time>2026-04-21T14:10:03.305Z</time></trkpt><trkpt lat="44.3295507" lon="9.2879527"><ele>157.0</ele><time>2026-04-21T14:10:04.305Z</time></trkpt><trkpt lat="44.3294405" lon="9.2880799"><ele>157.5</ele><time>2026-04-21T14:10:05.305Z</time></trkpt><trkpt lat="44.3293369" lon="9.2882092"><ele>158.0</ele><time>2026-04-21T14:10:06.304Z</time></trkpt><trkpt lat="44.329256" lon="9.2883527"><ele>158.5</ele><time>2026-04-21T14:10:07.308Z</time></trkpt><trkpt lat="44.3291963" lon="9.2885229"><ele>159.0</ele><time>2026-04-21T14:10:08.31Z</time></trkpt><trkpt lat="44.3291434" lon="9.2886912"><ele>159.0</ele><time>2026-04-21T14:10:09.306Z</time></trkpt><trkpt lat="44.329089" lon="9.2888547"><ele>159.0</ele><time>2026-04-21T14:10:10.305Z</time></trkpt><trkpt lat="44.3290307" lon="9.2890155"><ele>159.0</ele><time>2026-04-21T14:10:11.304Z</time></trkpt><trkpt lat="44.3289693" lon="9.2891702"><ele>159.0</ele><time>2026-04-21T14:10:12.299Z</time></trkpt><trkpt lat="44.3289094" lon="9.2893128"><ele>156.2</ele><time>2026-04-21T14:10:13.309Z</time></trkpt><trkpt lat="44.3288524" lon="9.2894459"><ele>153.4</ele><time>2026-04-21T14:10:14.308Z</time></trkpt><trkpt lat="44.328794" lon="9.289573"><ele>150.6</ele><time>2026-04-21T14:10:15.301Z</time></trkpt><trkpt lat="44.3287291" lon="9.2896881"><ele>147.8</ele><time>2026-04-21T14:10:16.305Z</time></trkpt><trkpt lat="44.3286498" lon="9.2897607"><ele>145.0</ele><time>2026-04-21T14:10:17.301Z</time></trkpt><trkpt lat="44.3285539" lon="9.2898156"><ele>142.8</ele><time>2026-04-21T14:10:18.304Z</time></trkpt><trkpt lat="44.3284457" lon="9.2898678"><ele>140.6</ele><time>2026-04-21T14:10:19.303Z</time></trkpt><trkpt lat="44.3283371" lon="9.2899225"><ele>138.4</ele><time>2026-04-21T14:10:20.308Z</time></trkpt><trkpt lat="44.3282325" lon="9.2899796"><ele>136.2</ele><time>2026-04-21T14:10:21.301Z</time></trkpt><trkpt lat="44.3281378" lon="9.2900388"><ele>134.0</ele><time>2026-04-21T14:10:22.307Z</time></trkpt><trkpt lat="44.3280566" lon="9.2901064"><ele>134.0</ele><time>2026-04-21T14:10:23.308Z</time></trkpt><trkpt lat="44.3279893" lon="9.2901861"><ele>134.0</ele><time>2026-04-21T14:10:24.309Z</time></trkpt><trkpt lat="44.3279346" lon="9.2902831"><ele>134.0</ele><time>2026-04-21T14:10:25.307Z</time></trkpt><trkpt lat="44.327905" lon="9.2904037"><ele>134.0</ele><time>2026-04-21T14:10:26.301Z</time></trkpt><trkpt lat="44.3279028" lon="9.2905495"><ele>134.0</ele><time>2026-04-21T14:10:27.305Z</time></trkpt><trkpt lat="44.3279204" lon="9.2907281"><ele>142.66666666666666</ele><time>2026-04-21T14:10:28.306Z</time></trkpt><trkpt lat="44.3279386" lon="9.290939"><ele>151.33333333333334</ele><time>2026-04-21T14:10:29.309Z</time></trkpt><trkpt lat="44.3279509" lon="9.2911783"><ele>160.0</ele><time>2026-04-21T14:10:30.313Z</time></trkpt><trkpt lat="44.3279524" lon="9.291433"><ele>162.0</ele><time>2026-04-21T14:10:31.306Z</time></trkpt><trkpt lat="44.3279431" lon="9.2916839"><ele>164.0</ele><time>2026-04-21T14:10:32.304Z</time></trkpt><trkpt lat="44.3279148" lon="9.2919286"><ele>166.0</ele><time>2026-04-21T14:10:33.303Z</time></trkpt><trkpt lat="44.3278665" lon="9.2921511"><ele>169.0</ele><time>2026-04-21T14:10:34.304Z</time></trkpt><trkpt lat="44.3278125" lon="9.2923585"><ele>172.0</ele><time>2026-04-21T14:10:35.305Z</time></trkpt><trkpt lat="44.3277506" lon="9.2925631"><ele>175.0</ele><time>2026-04-21T14:10:36.303Z</time></trkpt><trkpt lat="44.3276852" lon="9.2927651"><ele>175.0</ele><time>2026-04-21T14:10:37.301Z</time></trkpt><trkpt lat="44.3276114" lon="9.2929546"><ele>175.0</ele><time>2026-04-21T14:10:38.301Z</time></trkpt><trkpt lat="44.3275313" lon="9.2931331"><ele>175.0</ele><time>2026-04-21T14:10:39.305Z</time></trkpt><trkpt lat="44.3274467" lon="9.2933009"><ele>178.25</ele><time>2026-04-21T14:10:40.308Z</time></trkpt><trkpt lat="44.3273673" lon="9.2934667"><ele>181.5</ele><time>2026-04-21T14:10:41.305Z</time></trkpt><trkpt lat="44.3272921" lon="9.2936246"><ele>184.75</ele><time>2026-04-21T14:10:42.304Z</time></trkpt><trkpt lat="44.3272233" lon="9.293778"><ele>188.0</ele><time>2026-04-21T14:10:43.308Z</time></trkpt><trkpt lat="44.3271525" lon="9.2939337"><ele>181.0</ele><time>2026-04-21T14:10:44.307Z</time></trkpt><trkpt lat="44.3270954" lon="9.2940983"><ele>174.0</ele><time>2026-04-21T14:10:45.301Z</time></trkpt><trkpt lat="44.3270759" lon="9.2942795"><ele>167.0</ele><time>2026-04-21T14:10:46.306Z</time></trkpt><trkpt lat="44.3270833" lon="9.2944637"><ele>160.0</ele><time>2026-04-21T14:10:47.308Z</time></trkpt><trkpt lat="44.3271088" lon="9.2946319"><ele>156.75</ele><time>2026-04-21T14:10:48.305Z</time></trkpt><trkpt lat="44.3271739" lon="9.2947978"><ele>153.5</ele><time>2026-04-21T14:10:49.3Z</time></trkpt><trkpt lat="44.3272257" lon="9.2949735"><ele>150.25</ele><time>2026-04-21T14:10:50.307Z</time></trkpt><trkpt lat="44.327222" lon="9.2951477"><ele>147.0</ele><time>2026-04-21T14:10:51.298Z</time></trkpt><trkpt lat="44.327176" lon="9.2953319"><ele>147.0</ele><time>2026-04-21T14:10:52.302Z</time></trkpt><trkpt lat="44.3271259" lon="9.2955485"><ele>147.0</ele><time>2026-04-21T14:10:53.296Z</time></trkpt><trkpt lat="44.3270777" lon="9.2957801"><ele>147.0</ele><time>2026-04-21T14:10:54.296Z</time></trkpt><trkpt lat="44.3270295" lon="9.2960141"><ele>154.33333333333334</ele><time>2026-04-21T14:10:55.297Z</time></trkpt><trkpt lat="44.3269788" lon="9.2962482"><ele>161.66666666666669</ele><time>2026-04-21T14:10:56.301Z</time></trkpt><trkpt lat="44.3269234" lon="9.2964819"><ele>169.0</ele><time>2026-04-21T14:10:57.295Z</time></trkpt><trkpt lat="44.3268726" lon="9.2967161"><ele>172.33333333333334</ele><time>2026-04-21T14:10:58.299Z</time></trkpt><trkpt lat="44.3268224" lon="9.2969424"><ele>175.66666666666666</ele><time>2026-04-21T14:10:59.3Z</time></trkpt><trkpt lat="44.3267763" lon="9.2971669"><ele>179.0</ele><time>2026-04-21T14:11:00.3Z</time></trkpt><trkpt lat="44.3267272" lon="9.2973886"><ele>181.0</ele><time>2026-04-21T14:11:01.298Z</time></trkpt><trkpt lat="44.3266667" lon="9.2976017"><ele>183.0</ele><time>2026-04-21T14:11:02.3Z</time></trkpt><trkpt lat="44.3265832" lon="9.2978047"><ele>185.0</ele><time>2026-04-21T14:11:03.3Z</time></trkpt><trkpt lat="44.3264846" lon="9.2979939"><ele>174.66666666666666</ele><time>2026-04-21T14:11:04.303Z</time></trkpt><trkpt lat="44.3263753" lon="9.298168"><ele>164.33333333333334</ele><time>2026-04-21T14:11:05.31Z</time></trkpt><trkpt lat="44.3262668" lon="9.2983452"><ele>154.0</ele><time>2026-04-21T14:11:06.304Z</time></trkpt><trkpt lat="44.3261714" lon="9.2985355"><ele>154.0</ele><time>2026-04-21T14:11:07.303Z</time></trkpt><trkpt lat="44.3260901" lon="9.298735"><ele>154.0</ele><time>2026-04-21T14:11:08.3Z</time></trkpt><trkpt lat="44.3260226" lon="9.2989469"><ele>154.0</ele><time>2026-04-21T14:11:09.303Z</time></trkpt><trkpt lat="44.3259598" lon="9.2991686"><ele>159.33333333333334</ele><time>2026-04-21T14:11:10.303Z</time></trkpt><trkpt lat="44.3258962" lon="9.2993972"><ele>164.66666666666666</ele><time>2026-04-21T14:11:11.302Z</time></trkpt><trkpt lat="44.3258375" lon="9.2996314"><ele>170.0</ele><time>2026-04-21T14:11:12.303Z</time></trkpt><trkpt lat="44.3257794" lon="9.2998503"><ele>179.33333333333331</ele><time>2026-04-21T14:11:13.302Z</time></trkpt><trkpt lat="44.3257217" lon="9.3000533"><ele>188.66666666666666</ele><time>2026-04-21T14:11:14.297Z</time></trkpt><trkpt lat="44.3256698" lon="9.3002586"><ele>198.0</ele><time>2026-04-21T14:11:15.295Z</time></trkpt><trkpt lat="44.3256223" lon="9.3004648"><ele>180.0</ele><time>2026-04-21T14:11:16.297Z</time></trkpt><trkpt lat="44.3251338" lon="9.3028744"><ele>172.0</ele><time>2026-04-21T14:11:27.295Z</time></trkpt><trkpt lat="44.3250078" lon="9.3031122"><ele>164.0</ele><time>2026-04-21T14:11:28.298Z</time></trkpt><trkpt lat="44.3250358" lon="9.3034479"><ele>164.0</ele><time>2026-04-21T14:11:30.304Z</time></trkpt><trkpt lat="44.325048" lon="9.3036595"><ele>164.0</ele><time>2026-04-21T14:11:31.306Z</time></trkpt><trkpt lat="44.3250221" lon="9.3038965"><ele>164.0</ele><time>2026-04-21T14:11:32.313Z</time></trkpt><trkpt lat="44.324973" lon="9.3041396"><ele>164.33333333333331</ele><time>2026-04-21T14:11:33.304Z</time></trkpt><trkpt lat="44.3249067" lon="9.304375"><ele>164.66666666666666</ele><time>2026-04-21T14:11:34.306Z</time></trkpt><trkpt lat="44.3248192" lon="9.3045986"><ele>165.0</ele><time>2026-04-21T14:11:35.307Z</time></trkpt><trkpt lat="44.3247426" lon="9.3048253"><ele>147.66666666666666</ele><time>2026-04-21T14:11:36.31Z</time></trkpt><trkpt lat="44.3246663" lon="9.3050551"><ele>130.33333333333331</ele><time>2026-04-21T14:11:37.316Z</time></trkpt><trkpt lat="44.3245962" lon="9.3052874"><ele>113.0</ele><time>2026-04-21T14:11:38.316Z</time></trkpt><trkpt lat="44.3245368" lon="9.3055271"><ele>115.0</ele><time>2026-04-21T14:11:39.307Z</time></trkpt><trkpt lat="44.324486" lon="9.3057742"><ele>117.0</ele><time>2026-04-21T14:11:40.315Z</time></trkpt><trkpt lat="44.324441" lon="9.3060195"><ele>119.0</ele><time>2026-04-21T14:11:41.313Z</time></trkpt><trkpt lat="44.3244044" lon="9.306255"><ele>119.66666666666666</ele><time>2026-04-21T14:11:42.31Z</time></trkpt><trkpt lat="44.3243876" lon="9.3064909"><ele>120.33333333333334</ele><time>2026-04-21T14:11:43.317Z</time></trkpt><trkpt lat="44.3243877" lon="9.3067299"><ele>121.0</ele><time>2026-04-21T14:11:44.314Z</time></trkpt><trkpt lat="44.3243849" lon="9.3069663"><ele>121.0</ele><time>2026-04-21T14:11:45.309Z</time></trkpt><trkpt lat="44.3243681" lon="9.3072015"><ele>121.0</ele><time>2026-04-21T14:11:46.314Z</time></trkpt><trkpt lat="44.3243218" lon="9.3074309"><ele>121.0</ele><time>2026-04-21T14:11:47.304Z</time></trkpt><trkpt lat="44.324247" lon="9.307653"><ele>123.0</ele><time>2026-04-21T14:11:48.315Z</time></trkpt><trkpt lat="44.3241568" lon="9.3078697"><ele>125.0</ele><time>2026-04-21T14:11:49.312Z</time></trkpt><trkpt lat="44.3240487" lon="9.3080776"><ele>127.0</ele><time>2026-04-21T14:11:50.318Z</time></trkpt><trkpt lat="44.3239219" lon="9.3082619"><ele>114.0</ele><time>2026-04-21T14:11:51.314Z</time></trkpt><trkpt lat="44.3237903" lon="9.308433"><ele>101.0</ele><time>2026-04-21T14:11:52.314Z</time></trkpt><trkpt lat="44.3236762" lon="9.3086122"><ele>88.0</ele><time>2026-04-21T14:11:53.309Z</time></trkpt><trkpt lat="44.3235884" lon="9.3088159"><ele>94.33333333333333</ele><time>2026-04-21T14:11:54.318Z</time></trkpt><trkpt lat="44.3235332" lon="9.3090378"><ele>100.66666666666666</ele><time>2026-04-21T14:11:55.308Z</time></trkpt><trkpt lat="44.3235023" lon="9.3092706"><ele>107.0</ele><time>2026-04-21T14:11:56.319Z</time></trkpt><trkpt lat="44.3234729" lon="9.309507"><ele>108.0</ele><time>2026-04-21T14:11:57.309Z</time></trkpt><trkpt lat="44.3234498" lon="9.3097443"><ele>109.0</ele><time>2026-04-21T14:11:58.315Z</time></trkpt><trkpt lat="44.3234124" lon="9.3099758"><ele>110.0</ele><time>2026-04-21T14:11:59.322Z</time></trkpt><trkpt lat="44.3233547" lon="9.3101864"><ele>110.0</ele><time>2026-04-21T14:12:00.318Z</time></trkpt><trkpt lat="44.3232783" lon="9.3103814"><ele>110.0</ele><time>2026-04-21T14:12:01.318Z</time></trkpt><trkpt lat="44.3232137" lon="9.3105906"><ele>110.0</ele><time>2026-04-21T14:12:02.316Z</time></trkpt><trkpt lat="44.323168" lon="9.3108212"><ele>112.66666666666666</ele><time>2026-04-21T14:12:03.316Z</time></trkpt><trkpt lat="44.3231434" lon="9.311068"><ele>115.33333333333334</ele><time>2026-04-21T14:12:04.32Z</time></trkpt><trkpt lat="44.3231176" lon="9.311317"><ele>118.0</ele><time>2026-04-21T14:12:05.323Z</time></trkpt><trkpt lat="44.3230983" lon="9.3115718"><ele>119.66666666666667</ele><time>2026-04-21T14:12:06.322Z</time></trkpt><trkpt lat="44.3230798" lon="9.3118282"><ele>121.33333333333334</ele><time>2026-04-21T14:12:07.32Z</time></trkpt><trkpt lat="44.3230602" lon="9.3120828"><ele>123.0</ele><time>2026-04-21T14:12:08.32Z</time></trkpt><trkpt lat="44.3230395" lon="9.3123327"><ele>106.33333333333333</ele><time>2026-04-21T14:12:09.316Z</time></trkpt><trkpt lat="44.3230201" lon="9.3125757"><ele>89.66666666666666</ele><time>2026-04-21T14:12:10.313Z</time></trkpt><trkpt lat="44.3230006" lon="9.3128141"><ele>73.0</ele><time>2026-04-21T14:12:11.315Z</time></trkpt><trkpt lat="44.3229854" lon="9.3130536"><ele>72.33333333333333</ele><time>2026-04-21T14:12:12.318Z</time></trkpt><trkpt lat="44.322984" lon="9.3132954"><ele>71.66666666666667</ele><time>2026-04-21T14:12:13.323Z</time></trkpt><trkpt lat="44.3229936" lon="9.3135418"><ele>71.0</ele><time>2026-04-21T14:12:14.307Z</time></trkpt><trkpt lat="44.3230127" lon="9.3137876"><ele>71.33333333333334</ele><time>2026-04-21T14:12:15.308Z</time></trkpt><trkpt lat="44.3230349" lon="9.3140351"><ele>71.66666666666667</ele><time>2026-04-21T14:12:16.304Z</time></trkpt><trkpt lat="44.3230578" lon="9.3142794"><ele>72.0</ele><time>2026-04-21T14:12:17.312Z</time></trkpt><trkpt lat="44.3230798" lon="9.3145236"><ele>78.33333333333333</ele><time>2026-04-21T14:12:18.32Z</time></trkpt><trkpt lat="44.3231022" lon="9.3147702"><ele>84.66666666666666</ele><time>2026-04-21T14:12:19.315Z</time></trkpt><trkpt lat="44.3231184" lon="9.3150153"><ele>91.0</ele><time>2026-04-21T14:12:20.318Z</time></trkpt><trkpt lat="44.3231329" lon="9.3152597"><ele>91.0</ele><time>2026-04-21T14:12:21.313Z</time></trkpt><trkpt lat="44.32314" lon="9.3154998"><ele>91.0</ele><time>2026-04-21T14:12:22.307Z</time></trkpt><trkpt lat="44.3231378" lon="9.3157343"><ele>91.0</ele><time>2026-04-21T14:12:23.318Z</time></trkpt><trkpt lat="44.3231316" lon="9.3159604"><ele>88.33333333333333</ele><time>2026-04-21T14:12:24.32Z</time></trkpt><trkpt lat="44.3231248" lon="9.3161815"><ele>85.66666666666667</ele><time>2026-04-21T14:12:25.319Z</time></trkpt><trkpt lat="44.3231204" lon="9.3163992"><ele>83.0</ele><time>2026-04-21T14:12:26.315Z</time></trkpt><trkpt lat="44.3231228" lon="9.3166101"><ele>80.25</ele><time>2026-04-21T14:12:27.317Z</time></trkpt><trkpt lat="44.3231305" lon="9.3168185"><ele>77.5</ele><time>2026-04-21T14:12:28.31Z</time></trkpt><trkpt lat="44.3231484" lon="9.3170213"><ele>74.75</ele><time>2026-04-21T14:12:29.309Z</time></trkpt><trkpt lat="44.323189" lon="9.3172099"><ele>72.0</ele><time>2026-04-21T14:12:30.308Z</time></trkpt><trkpt lat="44.3232558" lon="9.3173825"><ele>69.75</ele><time>2026-04-21T14:12:31.305Z</time></trkpt><trkpt lat="44.3233256" lon="9.3175401"><ele>67.5</ele><time>2026-04-21T14:12:32.308Z</time></trkpt><trkpt lat="44.3233637" lon="9.3177076"><ele>65.25</ele><time>2026-04-21T14:12:33.302Z</time></trkpt><trkpt lat="44.3233686" lon="9.3179023"><ele>63.0</ele><time>2026-04-21T14:12:34.306Z</time></trkpt><trkpt lat="44.3233188" lon="9.3180894"><ele>60.0</ele><time>2026-04-21T14:12:35.306Z</time></trkpt><trkpt lat="44.3232379" lon="9.3182697"><ele>57.0</ele><time>2026-04-21T14:12:36.297Z</time></trkpt><trkpt lat="44.3231434" lon="9.3184395"><ele>54.0</ele><time>2026-04-21T14:12:37.307Z</time></trkpt><trkpt lat="44.3230496" lon="9.3185918"><ele>53.800000000000004</ele><time>2026-04-21T14:12:38.307Z</time></trkpt><trkpt lat="44.3229641" lon="9.3187352"><ele>53.60000000000001</ele><time>2026-04-21T14:12:39.307Z</time></trkpt><trkpt lat="44.3228686" lon="9.3188472"><ele>53.4</ele><time>2026-04-21T14:12:40.306Z</time></trkpt><trkpt lat="44.3227687" lon="9.3188989"><ele>53.2</ele><time>2026-04-21T14:12:41.302Z</time></trkpt><trkpt lat="44.3226889" lon="9.3188906"><ele>53.0</ele><time>2026-04-21T14:12:42.306Z</time></trkpt><trkpt lat="44.3226349" lon="9.3188119"><ele>53.0</ele><time>2026-04-21T14:12:43.301Z</time></trkpt><trkpt lat="44.3226101" lon="9.3186605"><ele>53.0</ele><time>2026-04-21T14:12:44.303Z</time></trkpt><trkpt lat="44.3226065" lon="9.3184792"><ele>53.0</ele><time>2026-04-21T14:12:45.308Z</time></trkpt><trkpt lat="44.3226034" lon="9.3182498"><ele>53.0</ele><time>2026-04-21T14:12:46.308Z</time></trkpt><trkpt lat="44.3225851" lon="9.31802"><ele>52.5</ele><time>2026-04-21T14:12:47.309Z</time></trkpt><trkpt lat="44.322562" lon="9.3177964"><ele>52.0</ele><time>2026-04-21T14:12:48.318Z</time></trkpt><trkpt lat="44.3225316" lon="9.3176004"><ele>51.5</ele><time>2026-04-21T14:12:49.304Z</time></trkpt><trkpt lat="44.3224955" lon="9.3174208"><ele>51.0</ele><time>2026-04-21T14:12:50.301Z</time></trkpt><trkpt lat="44.322466" lon="9.3172396"><ele>51.0</ele><time>2026-04-21T14:12:51.31Z</time></trkpt><trkpt lat="44.3224369" lon="9.31706"><ele>51.0</ele><time>2026-04-21T14:12:52.303Z</time></trkpt><trkpt lat="44.3224092" lon="9.3168839"><ele>51.0</ele><time>2026-04-21T14:12:53.31Z</time></trkpt><trkpt lat="44.3223848" lon="9.3167292"><ele>51.0</ele><time>2026-04-21T14:12:54.305Z</time></trkpt><trkpt lat="44.3223617" lon="9.3165983"><ele>51.0</ele><time>2026-04-21T14:12:55.311Z</time></trkpt><trkpt lat="44.3223396" lon="9.3164836"><ele>51.0</ele><time>2026-04-21T14:12:56.3Z</time></trkpt><trkpt lat="44.3223199" lon="9.3163779"><ele>51.0</ele><time>2026-04-21T14:12:57.312Z</time></trkpt><trkpt lat="44.3223054" lon="9.3162764"><ele>51.0</ele><time>2026-04-21T14:12:58.309Z</time></trkpt><trkpt lat="44.3222887" lon="9.3161685"><ele>51.0</ele><time>2026-04-21T14:12:59.309Z</time></trkpt><trkpt lat="44.3222629" lon="9.3160435"><ele>51.0</ele><time>2026-04-21T14:13:00.308Z</time></trkpt><trkpt lat="44.3222242" lon="9.3158955"><ele>47.25</ele><time>2026-04-21T14:13:01.304Z</time></trkpt><trkpt lat="44.3221681" lon="9.3157388"><ele>43.5</ele><time>2026-04-21T14:13:02.309Z</time></trkpt><trkpt lat="44.3220826" lon="9.3156044"><ele>39.75</ele><time>2026-04-21T14:13:03.305Z</time></trkpt><trkpt lat="44.3219758" lon="9.3154795"><ele>36.0</ele><time>2026-04-21T14:13:04.309Z</time></trkpt><trkpt lat="44.3218698" lon="9.3153561"><ele>36.0</ele><time>2026-04-21T14:13:05.304Z</time></trkpt><trkpt lat="44.3217668" lon="9.3152335"><ele>36.0</ele><time>2026-04-21T14:13:06.304Z</time></trkpt><trkpt lat="44.3216736" lon="9.3150938"><ele>36.0</ele><time>2026-04-21T14:13:07.305Z</time></trkpt><trkpt lat="44.321592" lon="9.3149488"><ele>36.0</ele><time>2026-04-21T14:13:08.304Z</time></trkpt><trkpt lat="44.3215464" lon="9.3147774"><ele>37.0</ele><time>2026-04-21T14:13:09.308Z</time></trkpt><trkpt lat="44.3215292" lon="9.3146026"><ele>38.0</ele><time>2026-04-21T14:13:10.31Z</time></trkpt><trkpt lat="44.3215111" lon="9.3144275"><ele>39.0</ele><time>2026-04-21T14:13:11.304Z</time></trkpt><trkpt lat="44.3214869" lon="9.3142661"><ele>40.0</ele><time>2026-04-21T14:13:12.306Z</time></trkpt><trkpt lat="44.321461" lon="9.3141165"><ele>40.0</ele><time>2026-04-21T14:13:13.31Z</time></trkpt><trkpt lat="44.3214253" lon="9.3139792"><ele>40.0</ele><time>2026-04-21T14:13:14.308Z</time></trkpt><trkpt lat="44.3213721" lon="9.3138659"><ele>40.0</ele><time>2026-04-21T14:13:15.297Z</time></trkpt><trkpt lat="44.3212999" lon="9.3137882"><ele>40.0</ele><time>2026-04-21T14:13:16.307Z</time></trkpt><trkpt lat="44.3212161" lon="9.3137784"><ele>40.0</ele><time>2026-04-21T14:13:17.307Z</time></trkpt><trkpt lat="44.3211496" lon="9.3138303"><ele>35.5</ele><time>2026-04-21T14:13:18.302Z</time></trkpt><trkpt lat="44.3211113" lon="9.3139226"><ele>31.0</ele><time>2026-04-21T14:13:19.305Z</time></trkpt><trkpt lat="44.3211005" lon="9.3140366"><ele>26.5</ele><time>2026-04-21T14:13:20.307Z</time></trkpt><trkpt lat="44.3211051" lon="9.3141473"><ele>22.0</ele><time>2026-04-21T14:13:21.303Z</time></trkpt><trkpt lat="44.321137" lon="9.3142644"><ele>17.5</ele><time>2026-04-21T14:13:22.302Z</time></trkpt><trkpt lat="44.321167" lon="9.3143811"><ele>13.0</ele><time>2026-04-21T14:13:23.305Z</time></trkpt><trkpt lat="44.3211954" lon="9.3144941"><ele>12.999999999999998</ele><time>2026-04-21T14:13:24.31Z</time></trkpt><trkpt lat="44.3212235" lon="9.3146072"><ele>13.0</ele><time>2026-04-21T14:13:25.303Z</time></trkpt><trkpt lat="44.321246" lon="9.3147232"><ele>13.0</ele><time>2026-04-21T14:13:26.308Z</time></trkpt><trkpt lat="44.3212688" lon="9.3148416"><ele>13.0</ele><time>2026-04-21T14:13:27.305Z</time></trkpt><trkpt lat="44.3212883" lon="9.3149621"><ele>12.999999999999998</ele><time>2026-04-21T14:13:28.302Z</time></trkpt><trkpt lat="44.3213093" lon="9.3150867"><ele>13.0</ele><time>2026-04-21T14:13:29.31Z</time></trkpt><trkpt lat="44.3213273" lon="9.3152141"><ele>12.666666666666666</ele><time>2026-04-21T14:13:30.308Z</time></trkpt><trkpt lat="44.3213387" lon="9.3153429"><ele>12.333333333333332</ele><time>2026-04-21T14:13:31.301Z</time></trkpt><trkpt lat="44.321339" lon="9.3154718"><ele>12.0</ele><time>2026-04-21T14:13:32.31Z</time></trkpt><trkpt lat="44.3213272" lon="9.3155977"><ele>11.666666666666666</ele><time>2026-04-21T14:13:33.309Z</time></trkpt><trkpt lat="44.3213068" lon="9.3157165"><ele>11.333333333333332</ele><time>2026-04-21T14:13:34.304Z</time></trkpt><trkpt lat="44.3212869" lon="9.3158263"><ele>11.0</ele><time>2026-04-21T14:13:35.305Z</time></trkpt><trkpt lat="44.3212679" lon="9.3159275"><ele>11.0</ele><time>2026-04-21T14:13:36.299Z</time></trkpt><trkpt lat="44.3212422" lon="9.3160195"><ele>11.0</ele><time>2026-04-21T14:13:37.306Z</time></trkpt><trkpt lat="44.3212043" lon="9.3161008"><ele>11.0</ele><time>2026-04-21T14:13:38.308Z</time></trkpt><trkpt lat="44.3211526" lon="9.3161643"><ele>11.0</ele><time>2026-04-21T14:13:39.309Z</time></trkpt><trkpt lat="44.3210835" lon="9.3162125"><ele>11.0</ele><time>2026-04-21T14:13:40.305Z</time></trkpt><trkpt lat="44.3210159" lon="9.316246"><ele>11.0</ele><time>2026-04-21T14:13:41.302Z</time></trkpt><trkpt lat="44.3209461" lon="9.3162691"><ele>11.0</ele><time>2026-04-21T14:13:42.302Z</time></trkpt><trkpt lat="44.3208699" lon="9.3162835"><ele>11.0</ele><time>2026-04-21T14:13:43.302Z</time></trkpt><trkpt lat="44.3207922" lon="9.3163074"><ele>11.0</ele><time>2026-04-21T14:13:44.307Z</time></trkpt><trkpt lat="44.320716" lon="9.3163551"><ele>11.0</ele><time>2026-04-21T14:13:45.304Z</time></trkpt><trkpt lat="44.3206364" lon="9.3164239"><ele>11.0</ele><time>2026-04-21T14:13:46.306Z</time></trkpt><trkpt lat="44.3205575" lon="9.3164981"><ele>11.0</ele><time>2026-04-21T14:13:47.305Z</time></trkpt><trkpt lat="44.3204857" lon="9.3165647"><ele>11.0</ele><time>2026-04-21T14:13:48.305Z</time></trkpt><trkpt lat="44.3204208" lon="9.3166305"><ele>10.666666666666666</ele><time>2026-04-21T14:13:49.299Z</time></trkpt><trkpt lat="44.3203722" lon="9.3167049"><ele>10.333333333333332</ele><time>2026-04-21T14:13:50.304Z</time></trkpt><trkpt lat="44.3203374" lon="9.3167903"><ele>10.0</ele><time>2026-04-21T14:13:51.301Z</time></trkpt><trkpt lat="44.3203127" lon="9.3168761"><ele>9.666666666666666</ele><time>2026-04-21T14:13:52.303Z</time></trkpt><trkpt lat="44.3202697" lon="9.3170157"><ele>9.333333333333334</ele><time>2026-04-21T14:13:54.307Z</time></trkpt><trkpt lat="44.3202428" lon="9.3171165"><ele>9.0</ele><time>2026-04-21T14:13:56.308Z</time></trkpt><trkpt lat="44.3202264" lon="9.3172097"><ele>9.5</ele><time>2026-04-21T14:13:58.308Z</time></trkpt><trkpt lat="44.3201931" lon="9.3173249"><ele>10.0</ele><time>2026-04-21T14:14:00.307Z</time></trkpt><trkpt lat="44.3201256" lon="9.3174219"><ele>10.5</ele><time>2026-04-21T14:14:02.304Z</time></trkpt><trkpt lat="44.3200559" lon="9.3174686"><ele>11.0</ele><time>2026-04-21T14:14:04.308Z</time></trkpt><trkpt lat="44.3199809" lon="9.3174624"><ele>11.5</ele><time>2026-04-21T14:14:06.304Z</time></trkpt><trkpt lat="44.319926" lon="9.3174058"><ele>12.0</ele><time>2026-04-21T14:14:11.305Z</time></trkpt><trkpt lat="44.3198545" lon="9.3173781"><ele>12.0</ele><time>2026-04-21T14:14:17.306Z</time></trkpt><trkpt lat="44.3197931" lon="9.3173497"><ele>12.0</ele><time>2026-04-21T14:14:20.304Z</time></trkpt><trkpt lat="44.3197205" lon="9.3173247"><ele>12.0</ele><time>2026-04-21T14:14:23.306Z</time></trkpt><trkpt lat="44.319645" lon="9.3172823"><ele>12.0</ele><time>2026-04-21T14:14:26.303Z</time></trkpt><trkpt lat="44.3195653" lon="9.3172418"><ele>12.0</ele><time>2026-04-21T14:14:29.298Z</time></trkpt><trkpt lat="44.3195056" lon="9.3172043"><ele>12.0</ele><time>2026-04-21T14:14:31.304Z</time></trkpt><trkpt lat="44.3194253" lon="9.3171464"><ele>11.8</ele><time>2026-04-21T14:14:34.305Z</time></trkpt><trkpt lat="44.3193662" lon="9.3170969"><ele>11.6</ele><time>2026-04-21T14:14:36.302Z</time></trkpt><trkpt lat="44.319299" lon="9.3170498"><ele>11.4</ele><time>2026-04-21T14:14:38.307Z</time></trkpt><trkpt lat="44.3192202" lon="9.3169974"><ele>11.200000000000001</ele><time>2026-04-21T14:14:40.306Z</time></trkpt><trkpt lat="44.3191262" lon="9.3169517"><ele>11.0</ele><time>2026-04-21T14:14:42.31Z</time></trkpt><trkpt lat="44.3190088" lon="9.3168936"><ele>11.0</ele><time>2026-04-21T14:14:44.309Z</time></trkpt><trkpt lat="44.3189449" lon="9.3168613"><ele>11.0</ele><time>2026-04-21T14:14:45.306Z</time></trkpt><trkpt lat="44.3188832" lon="9.31683"><ele>11.0</ele><time>2026-04-21T14:14:46.308Z</time></trkpt><trkpt lat="44.3187847" lon="9.3167846"><ele>11.0</ele><time>2026-04-21T14:14:48.309Z</time></trkpt><trkpt lat="44.3187037" lon="9.3167506"><ele>11.0</ele><time>2026-04-21T14:14:50.307Z</time></trkpt><trkpt lat="44.3186205" lon="9.316704"><ele>11.0</ele><time>2026-04-21T14:14:52.304Z</time></trkpt><trkpt lat="44.3185085" lon="9.3166314"><ele>10.5</ele><time>2026-04-21T14:14:54.308Z</time></trkpt><trkpt lat="44.318432" lon="9.3165825"><ele>10.0</ele><time>2026-04-21T14:14:55.305Z</time></trkpt><trkpt lat="44.3183524" lon="9.3165402"><ele>9.5</ele><time>2026-04-21T14:14:56.306Z</time></trkpt><trkpt lat="44.3182706" lon="9.316525"><ele>9.0</ele><time>2026-04-21T14:14:57.296Z</time></trkpt><trkpt lat="44.3181945" lon="9.3165489"><ele>8.5</ele><time>2026-04-21T14:14:58.306Z</time></trkpt><trkpt lat="44.3181345" lon="9.3166083"><ele>8.0</ele><time>2026-04-21T14:14:59.305Z</time></trkpt><trkpt lat="44.3180894" lon="9.3166879"><ele>7.999999999999999</ele><time>2026-04-21T14:15:00.304Z</time></trkpt><trkpt lat="44.3180492" lon="9.3167717"><ele>8.0</ele><time>2026-04-21T14:15:01.305Z</time></trkpt><trkpt lat="44.3180178" lon="9.3168545"><ele>8.0</ele><time>2026-04-21T14:15:02.307Z</time></trkpt><trkpt lat="44.3179704" lon="9.3169795"><ele>8.0</ele><time>2026-04-21T14:15:04.304Z</time></trkpt><trkpt lat="44.3179239" lon="9.3170868"><ele>7.999999999999999</ele><time>2026-04-21T14:15:06.304Z</time></trkpt><trkpt lat="44.3178855" lon="9.317176"><ele>8.0</ele><time>2026-04-21T14:15:09.301Z</time></trkpt><trkpt lat="44.3178678" lon="9.3172682"><ele>7.666666666666666</ele><time>2026-04-21T14:15:14.307Z</time></trkpt><trkpt lat="44.3178326" lon="9.3173435"><ele>7.333333333333333</ele><time>2026-04-21T14:15:47.315Z</time></trkpt><trkpt lat="44.3177944" lon="9.3174137"><ele>7.0</ele><time>2026-04-21T14:15:49.315Z</time></trkpt><trkpt lat="44.3177539" lon="9.3174911"><ele>6.666666666666666</ele><time>2026-04-21T14:15:51.322Z</time></trkpt><trkpt lat="44.3177128" lon="9.3175896"><ele>6.333333333333333</ele><time>2026-04-21T14:15:53.323Z</time></trkpt><trkpt lat="44.3176603" lon="9.3176985"><ele>6.0</ele><time>2026-04-21T14:15:55.317Z</time></trkpt><trkpt lat="44.3175927" lon="9.3178575"><ele>6.0</ele><time>2026-04-21T14:15:57.304Z</time></trkpt><trkpt lat="44.3175487" lon="9.3179697"><ele>6.0</ele><time>2026-04-21T14:15:58.324Z</time></trkpt><trkpt lat="44.3174984" lon="9.3180818"><ele>6.0</ele><time>2026-04-21T14:15:59.322Z</time></trkpt><trkpt lat="44.3174523" lon="9.3181784"><ele>6.0</ele><time>2026-04-21T14:16:00.321Z</time></trkpt><trkpt lat="44.3174084" lon="9.3182641"><ele>6.0</ele><time>2026-04-21T14:16:01.321Z</time></trkpt><trkpt lat="44.317369" lon="9.3183462"><ele>6.0</ele><time>2026-04-21T14:16:02.326Z</time></trkpt><trkpt lat="44.3173332" lon="9.3184294"><ele>6.0</ele><time>2026-04-21T14:16:03.316Z</time></trkpt><trkpt lat="44.3172953" lon="9.3185157"><ele>6.0</ele><time>2026-04-21T14:16:04.322Z</time></trkpt><trkpt lat="44.3172526" lon="9.318598"><ele>6.0</ele><time>2026-04-21T14:16:05.323Z</time></trkpt><trkpt lat="44.3172137" lon="9.3186923"><ele>6.0</ele><time>2026-04-21T14:16:06.319Z</time></trkpt><trkpt lat="44.317172" lon="9.3187845"><ele>6.0</ele><time>2026-04-21T14:16:07.315Z</time></trkpt><trkpt lat="44.3171304" lon="9.3188782"><ele>6.0</ele><time>2026-04-21T14:16:08.323Z</time></trkpt><trkpt lat="44.3170898" lon="9.3189694"><ele>5.666666666666667</ele><time>2026-04-21T14:16:09.323Z</time></trkpt><trkpt lat="44.3170491" lon="9.3190568"><ele>5.333333333333333</ele><time>2026-04-21T14:16:10.323Z</time></trkpt><trkpt lat="44.3170116" lon="9.3191386"><ele>5.0</ele><time>2026-04-21T14:16:11.323Z</time></trkpt><trkpt lat="44.3169753" lon="9.3192144"><ele>4.666666666666666</ele><time>2026-04-21T14:16:12.326Z</time></trkpt><trkpt lat="44.3169142" lon="9.3193537"><ele>4.333333333333333</ele><time>2026-04-21T14:16:14.322Z</time></trkpt><trkpt lat="44.316856" lon="9.3195005"><ele>4.0</ele><time>2026-04-21T14:16:16.313Z</time></trkpt><trkpt lat="44.3168235" lon="9.3195788"><ele>4.0</ele><time>2026-04-21T14:16:17.318Z</time></trkpt><trkpt lat="44.3167896" lon="9.319661"><ele>3.9999999999999996</ele><time>2026-04-21T14:16:18.323Z</time></trkpt><trkpt lat="44.3167518" lon="9.3197464"><ele>4.0</ele><time>2026-04-21T14:16:19.313Z</time></trkpt><trkpt lat="44.3167106" lon="9.3198342"><ele>4.0</ele><time>2026-04-21T14:16:20.325Z</time></trkpt><trkpt lat="44.3166702" lon="9.3199232"><ele>3.9999999999999996</ele><time>2026-04-21T14:16:21.321Z</time></trkpt><trkpt lat="44.3166344" lon="9.3200028"><ele>4.0</ele><time>2026-04-21T14:16:22.314Z</time></trkpt><trkpt lat="44.3165955" lon="9.3200969"><ele>4.0</ele><time>2026-04-21T14:16:24.322Z</time></trkpt><trkpt lat="44.3165624" lon="9.3202484"><ele>4.4</ele><time>2026-04-21T14:16:29.325Z</time></trkpt><trkpt lat="44.3165188" lon="9.320339"><ele>4.800000000000001</ele><time>2026-04-21T14:16:30.319Z</time></trkpt><trkpt lat="44.3164685" lon="9.320435"><ele>5.199999999999999</ele><time>2026-04-21T14:16:31.325Z</time></trkpt><trkpt lat="44.3164118" lon="9.3205446"><ele>5.6</ele><time>2026-04-21T14:16:32.321Z</time></trkpt><trkpt lat="44.3163573" lon="9.3206546"><ele>6.0</ele><time>2026-04-21T14:16:33.321Z</time></trkpt><trkpt lat="44.3163044" lon="9.3207652"><ele>6.0</ele><time>2026-04-21T14:16:34.317Z</time></trkpt><trkpt lat="44.3162515" lon="9.3208796"><ele>6.0</ele><time>2026-04-21T14:16:35.327Z</time></trkpt><trkpt lat="44.3161982" lon="9.3210005"><ele>6.0</ele><time>2026-04-21T14:16:36.32Z</time></trkpt><trkpt lat="44.3161451" lon="9.3211156"><ele>6.0</ele><time>2026-04-21T14:16:37.326Z</time></trkpt><trkpt lat="44.3160949" lon="9.3212257"><ele>6.0</ele><time>2026-04-21T14:16:38.319Z</time></trkpt><trkpt lat="44.3160485" lon="9.3213327"><ele>6.5</ele><time>2026-04-21T14:16:39.325Z</time></trkpt><trkpt lat="44.3160029" lon="9.3214357"><ele>7.0</ele><time>2026-04-21T14:16:40.328Z</time></trkpt><trkpt lat="44.3159587" lon="9.3215363"><ele>7.5</ele><time>2026-04-21T14:16:41.325Z</time></trkpt><trkpt lat="44.3159169" lon="9.3216326"><ele>8.0</ele><time>2026-04-21T14:16:42.318Z</time></trkpt><trkpt lat="44.3158765" lon="9.3217214"><ele>8.5</ele><time>2026-04-21T14:16:43.33Z</time></trkpt><trkpt lat="44.3158396" lon="9.3218037"><ele>9.0</ele><time>2026-04-21T14:16:44.324Z</time></trkpt><trkpt lat="44.3158076" lon="9.3218804"><ele>9.0</ele><time>2026-04-21T14:16:45.322Z</time></trkpt><trkpt lat="44.3157552" lon="9.32201"><ele>9.0</ele><time>2026-04-21T14:16:47.314Z</time></trkpt><trkpt lat="44.3157161" lon="9.3220928"><ele>9.0</ele><time>2026-04-21T14:16:49.317Z</time></trkpt><trkpt lat="44.315675" lon="9.3221878"><ele>9.0</ele><time>2026-04-21T14:16:51.325Z</time></trkpt><trkpt lat="44.3156273" lon="9.3222898"><ele>9.0</ele><time>2026-04-21T14:16:53.328Z</time></trkpt><trkpt lat="44.3155802" lon="9.322376"><ele>9.0</ele><time>2026-04-21T14:16:55.318Z</time></trkpt><trkpt lat="44.3155471" lon="9.3224572"><ele>8.5</ele><time>2026-04-21T14:16:58.323Z</time></trkpt><trkpt lat="44.3154983" lon="9.3225613"><ele>8.0</ele><time>2026-04-21T14:17:14.32Z</time></trkpt><trkpt lat="44.3154457" lon="9.3226547"><ele>7.5</ele><time>2026-04-21T14:17:17.316Z</time></trkpt><trkpt lat="44.3154117" lon="9.3227316"><ele>7.0</ele><time>2026-04-21T14:17:19.32Z</time></trkpt><trkpt lat="44.3153655" lon="9.3228336"><ele>6.5</ele><time>2026-04-21T14:17:21.316Z</time></trkpt><trkpt lat="44.3153068" lon="9.3229682"><ele>6.0</ele><time>2026-04-21T14:17:23.316Z</time></trkpt><trkpt lat="44.3152457" lon="9.3231049"><ele>5.8</ele><time>2026-04-21T14:17:25.318Z</time></trkpt><trkpt lat="44.3151819" lon="9.3232449"><ele>5.6</ele><time>2026-04-21T14:17:27.324Z</time></trkpt><trkpt lat="44.3151467" lon="9.3233194"><ele>5.4</ele><time>2026-04-21T14:17:28.309Z</time></trkpt><trkpt lat="44.3150814" lon="9.3234565"><ele>5.2</ele><time>2026-04-21T14:17:30.31Z</time></trkpt><trkpt lat="44.3150186" lon="9.3235883"><ele>5.0</ele><time>2026-04-21T14:17:32.325Z</time></trkpt><trkpt lat="44.3149595" lon="9.3237228"><ele>5.0</ele><time>2026-04-21T14:17:34.311Z</time></trkpt><trkpt lat="44.3148975" lon="9.3238692"><ele>5.0</ele><time>2026-04-21T14:17:36.317Z</time></trkpt><trkpt lat="44.3148639" lon="9.3239453"><ele>5.0</ele><time>2026-04-21T14:17:37.317Z</time></trkpt><trkpt lat="44.3148299" lon="9.3240229"><ele>5.0</ele><time>2026-04-21T14:17:38.32Z</time></trkpt><trkpt lat="44.3147653" lon="9.324171"><ele>5.0</ele><time>2026-04-21T14:17:40.318Z</time></trkpt><trkpt lat="44.3146985" lon="9.3243213"><ele>5.0</ele><time>2026-04-21T14:17:42.317Z</time></trkpt><trkpt lat="44.3146631" lon="9.3244011"><ele>5.0</ele><time>2026-04-21T14:17:43.324Z</time></trkpt><trkpt lat="44.3146275" lon="9.3244829"><ele>5.0</ele><time>2026-04-21T14:17:44.322Z</time></trkpt><trkpt lat="44.314591" lon="9.3245662"><ele>5.0</ele><time>2026-04-21T14:17:45.325Z</time></trkpt><trkpt lat="44.3145531" lon="9.32465"><ele>5.0</ele><time>2026-04-21T14:17:46.322Z</time></trkpt><trkpt lat="44.3145153" lon="9.324733"><ele>5.0</ele><time>2026-04-21T14:17:47.327Z</time></trkpt><trkpt lat="44.3144809" lon="9.3248149"><ele>5.0</ele><time>2026-04-21T14:17:48.322Z</time></trkpt><trkpt lat="44.3144435" lon="9.3248936"><ele>5.0</ele><time>2026-04-21T14:17:49.33Z</time></trkpt><trkpt lat="44.3144049" lon="9.3249717"><ele>5.0</ele><time>2026-04-21T14:17:50.329Z</time></trkpt><trkpt lat="44.3143665" lon="9.325048"><ele>5.0</ele><time>2026-04-21T14:17:51.325Z</time></trkpt><trkpt lat="44.3143292" lon="9.3251243"><ele>5.0</ele><time>2026-04-21T14:17:52.321Z</time></trkpt><trkpt lat="44.314292" lon="9.3252045"><ele>5.0</ele><time>2026-04-21T14:17:53.318Z</time></trkpt><trkpt lat="44.3142537" lon="9.325285"><ele>5.0</ele><time>2026-04-21T14:17:54.322Z</time></trkpt><trkpt lat="44.3142164" lon="9.3253683"><ele>5.0</ele><time>2026-04-21T14:17:55.32Z</time></trkpt><trkpt lat="44.3141796" lon="9.3254564"><ele>5.0</ele><time>2026-04-21T14:17:56.313Z</time></trkpt><trkpt lat="44.3141407" lon="9.3255455"><ele>5.0</ele><time>2026-04-21T14:17:57.318Z</time></trkpt><trkpt lat="44.3141011" lon="9.3256386"><ele>5.0</ele><time>2026-04-21T14:17:58.319Z</time></trkpt><trkpt lat="44.3140601" lon="9.3257282"><ele>5.0</ele><time>2026-04-21T14:17:59.317Z</time></trkpt><trkpt lat="44.3140212" lon="9.3258135"><ele>5.0</ele><time>2026-04-21T14:18:00.317Z</time></trkpt><trkpt lat="44.3139832" lon="9.3259029"><ele>5.0</ele><time>2026-04-21T14:18:01.318Z</time></trkpt><trkpt lat="44.3139427" lon="9.3259985"><ele>5.0</ele><time>2026-04-21T14:18:02.314Z</time></trkpt><trkpt lat="44.3138972" lon="9.3260964"><ele>5.0</ele><time>2026-04-21T14:18:03.317Z</time></trkpt><trkpt lat="44.313854" lon="9.3261864"><ele>5.0</ele><time>2026-04-21T14:18:04.318Z</time></trkpt><trkpt lat="44.3138164" lon="9.3262664"><ele>5.0</ele><time>2026-04-21T14:18:05.318Z</time></trkpt><trkpt lat="44.3137832" lon="9.3263443"><ele>5.0</ele><time>2026-04-21T14:18:06.315Z</time></trkpt><trkpt lat="44.3137493" lon="9.3264265"><ele>5.0</ele><time>2026-04-21T14:18:07.315Z</time></trkpt><trkpt lat="44.3137155" lon="9.3265128"><ele>5.0</ele><time>2026-04-21T14:18:08.322Z</time></trkpt><trkpt lat="44.3136856" lon="9.3265964"><ele>5.0</ele><time>2026-04-21T14:18:09.324Z</time></trkpt><trkpt lat="44.3136372" lon="9.3267448"><ele>5.0</ele><time>2026-04-21T14:18:11.321Z</time></trkpt><trkpt lat="44.3135813" lon="9.3269113"><ele>5.0</ele><time>2026-04-21T14:18:13.326Z</time></trkpt><trkpt lat="44.3135436" lon="9.3269969"><ele>5.0</ele><time>2026-04-21T14:18:14.314Z</time></trkpt><trkpt lat="44.3135052" lon="9.3270806"><ele>5.0</ele><time>2026-04-21T14:18:15.324Z</time></trkpt><trkpt lat="44.3134764" lon="9.3271684"><ele>5.0</ele><time>2026-04-21T14:18:16.324Z</time></trkpt><trkpt lat="44.3134093" lon="9.3273036"><ele>5.0</ele><time>2026-04-21T14:18:18.315Z</time></trkpt><trkpt lat="44.3133594" lon="9.3274062"><ele>5.0</ele><time>2026-04-21T14:18:20.323Z</time></trkpt><trkpt lat="44.3133226" lon="9.3275239"><ele>5.0</ele><time>2026-04-21T14:18:22.322Z</time></trkpt><trkpt lat="44.3132676" lon="9.3276642"><ele>5.0</ele><time>2026-04-21T14:18:24.308Z</time></trkpt><trkpt lat="44.3132064" lon="9.3278125"><ele>5.0</ele><time>2026-04-21T14:18:26.324Z</time></trkpt><trkpt lat="44.3131391" lon="9.3279598"><ele>5.0</ele><time>2026-04-21T14:18:28.322Z</time></trkpt><trkpt lat="44.3131039" lon="9.328038"><ele>5.0</ele><time>2026-04-21T14:18:29.325Z</time></trkpt><trkpt lat="44.3130628" lon="9.3281199"><ele>5.0</ele><time>2026-04-21T14:18:30.319Z</time></trkpt><trkpt lat="44.3130227" lon="9.3282042"><ele>5.0</ele><time>2026-04-21T14:18:31.327Z</time></trkpt><trkpt lat="44.3129764" lon="9.3282848"><ele>5.0</ele><time>2026-04-21T14:18:32.328Z</time></trkpt><trkpt lat="44.3129302" lon="9.3283656"><ele>4.833333333333334</ele><time>2026-04-21T14:18:33.326Z</time></trkpt><trkpt lat="44.3128878" lon="9.3284506"><ele>4.666666666666667</ele><time>2026-04-21T14:18:34.313Z</time></trkpt><trkpt lat="44.3128574" lon="9.3285457"><ele>4.5</ele><time>2026-04-21T14:18:35.325Z</time></trkpt><trkpt lat="44.3128287" lon="9.3286414"><ele>4.333333333333333</ele><time>2026-04-21T14:18:36.326Z</time></trkpt><trkpt lat="44.3128052" lon="9.3287385"><ele>4.166666666666666</ele><time>2026-04-21T14:18:37.322Z</time></trkpt><trkpt lat="44.312783" lon="9.3288289"><ele>4.0</ele><time>2026-04-21T14:18:38.331Z</time></trkpt><trkpt lat="44.3127486" lon="9.328979"><ele>3.8000000000000003</ele><time>2026-04-21T14:18:40.326Z</time></trkpt><trkpt lat="44.3127147" lon="9.3291299"><ele>3.6000000000000005</ele><time>2026-04-21T14:18:42.322Z</time></trkpt><trkpt lat="44.312694" lon="9.32926"><ele>3.4</ele><time>2026-04-21T14:18:44.323Z</time></trkpt><trkpt lat="44.3126792" lon="9.3293712"><ele>3.2</ele><time>2026-04-21T14:18:46.323Z</time></trkpt><trkpt lat="44.3126624" lon="9.3294941"><ele>3.0</ele><time>2026-04-21T14:18:48.319Z</time></trkpt><trkpt lat="44.3126314" lon="9.3296579"><ele>3.1428571428571423</ele><time>2026-04-21T14:18:50.329Z</time></trkpt><trkpt lat="44.3126119" lon="9.3297534"><ele>3.2857142857142856</ele><time>2026-04-21T14:18:51.33Z</time></trkpt><trkpt lat="44.3125922" lon="9.3298499"><ele>3.4285714285714284</ele><time>2026-04-21T14:18:52.328Z</time></trkpt><trkpt lat="44.3125738" lon="9.3299474"><ele>3.571428571428571</ele><time>2026-04-21T14:18:53.326Z</time></trkpt><trkpt lat="44.3125493" lon="9.3300436"><ele>3.714285714285714</ele><time>2026-04-21T14:18:54.322Z</time></trkpt><trkpt lat="44.3125247" lon="9.330138"><ele>3.8571428571428568</ele><time>2026-04-21T14:18:55.327Z</time></trkpt><trkpt lat="44.3125012" lon="9.3302291"><ele>4.0</ele><time>2026-04-21T14:18:56.329Z</time></trkpt><trkpt lat="44.3124816" lon="9.3303246"><ele>4.0</ele><time>2026-04-21T14:18:57.319Z</time></trkpt><trkpt lat="44.3124604" lon="9.3304187"><ele>3.9999999999999996</ele><time>2026-04-21T14:18:58.323Z</time></trkpt><trkpt lat="44.3124372" lon="9.3305083"><ele>4.0</ele><time>2026-04-21T14:18:59.321Z</time></trkpt><trkpt lat="44.3124115" lon="9.3305989"><ele>4.0</ele><time>2026-04-21T14:19:00.318Z</time></trkpt><trkpt lat="44.312386" lon="9.3306929"><ele>3.9999999999999996</ele><time>2026-04-21T14:19:01.318Z</time></trkpt><trkpt lat="44.3123586" lon="9.3307885"><ele>4.0</ele><time>2026-04-21T14:19:02.308Z</time></trkpt><trkpt lat="44.3123314" lon="9.3308893"><ele>4.0</ele><time>2026-04-21T14:19:03.323Z</time></trkpt><trkpt lat="44.3123049" lon="9.330999"><ele>4.0</ele><time>2026-04-21T14:19:04.325Z</time></trkpt><trkpt lat="44.3122769" lon="9.3311185"><ele>4.0</ele><time>2026-04-21T14:19:05.326Z</time></trkpt><trkpt lat="44.3122466" lon="9.3312429"><ele>4.0</ele><time>2026-04-21T14:19:06.324Z</time></trkpt><trkpt lat="44.3122159" lon="9.3313841"><ele>4.0</ele><time>2026-04-21T14:19:07.316Z</time></trkpt><trkpt lat="44.3121817" lon="9.3315342"><ele>4.0</ele><time>2026-04-21T14:19:08.327Z</time></trkpt><trkpt lat="44.3121494" lon="9.3316813"><ele>4.0</ele><time>2026-04-21T14:19:09.325Z</time></trkpt><trkpt lat="44.3121206" lon="9.3318167"><ele>4.0</ele><time>2026-04-21T14:19:10.322Z</time></trkpt><trkpt lat="44.3120931" lon="9.3319442"><ele>4.0</ele><time>2026-04-21T14:19:11.315Z</time></trkpt><trkpt lat="44.312064" lon="9.3320649"><ele>4.0</ele><time>2026-04-21T14:19:12.311Z</time></trkpt><trkpt lat="44.3120388" lon="9.3321935"><ele>4.0</ele><time>2026-04-21T14:19:13.324Z</time></trkpt><trkpt lat="44.3120169" lon="9.3323276"><ele>3.6</ele><time>2026-04-21T14:19:14.325Z</time></trkpt><trkpt lat="44.3119947" lon="9.332459"><ele>3.2</ele><time>2026-04-21T14:19:15.324Z</time></trkpt><trkpt lat="44.3119665" lon="9.3325957"><ele>2.8000000000000003</ele><time>2026-04-21T14:19:16.325Z</time></trkpt><trkpt lat="44.3119321" lon="9.3327507"><ele>2.4000000000000004</ele><time>2026-04-21T14:19:17.33Z</time></trkpt><trkpt lat="44.3118808" lon="9.332924"><ele>2.0</ele><time>2026-04-21T14:19:18.317Z</time></trkpt><trkpt lat="44.3118153" lon="9.3331166"><ele>1.75</ele><time>2026-04-21T14:19:19.312Z</time></trkpt><trkpt lat="44.3117481" lon="9.3333032"><ele>1.5</ele><time>2026-04-21T14:19:20.307Z</time></trkpt><trkpt lat="44.3116797" lon="9.3334787"><ele>1.25</ele><time>2026-04-21T14:19:21.314Z</time></trkpt><trkpt lat="44.3116164" lon="9.3336486"><ele>1.0</ele><time>2026-04-21T14:19:22.31Z</time></trkpt><trkpt lat="44.3115573" lon="9.333815"><ele>1.0</ele><time>2026-04-21T14:19:23.31Z</time></trkpt><trkpt lat="44.3115028" lon="9.3339809"><ele>1.0</ele><time>2026-04-21T14:19:24.308Z</time></trkpt><trkpt lat="44.3114514" lon="9.3341427"><ele>1.0</ele><time>2026-04-21T14:19:25.308Z</time></trkpt><trkpt lat="44.3113994" lon="9.3342961"><ele>1.0</ele><time>2026-04-21T14:19:26.307Z</time></trkpt><trkpt lat="44.3113498" lon="9.3344395"><ele>1.6</ele><time>2026-04-21T14:19:27.31Z</time></trkpt><trkpt lat="44.3112971" lon="9.3345786"><ele>2.2</ele><time>2026-04-21T14:19:28.308Z</time></trkpt><trkpt lat="44.3112424" lon="9.3347169"><ele>2.8000000000000003</ele><time>2026-04-21T14:19:29.306Z</time></trkpt><trkpt lat="44.3111816" lon="9.3348485"><ele>3.4000000000000004</ele><time>2026-04-21T14:19:30.307Z</time></trkpt><trkpt lat="44.3111179" lon="9.33497"><ele>4.0</ele><time>2026-04-21T14:19:31.311Z</time></trkpt><trkpt lat="44.3110508" lon="9.3350849"><ele>4.2</ele><time>2026-04-21T14:19:32.302Z</time></trkpt><trkpt lat="44.3109843" lon="9.3351955"><ele>4.4</ele><time>2026-04-21T14:19:33.31Z</time></trkpt><trkpt lat="44.3109165" lon="9.3353089"><ele>4.6</ele><time>2026-04-21T14:19:34.309Z</time></trkpt><trkpt lat="44.3108486" lon="9.3354264"><ele>4.8</ele><time>2026-04-21T14:19:35.308Z</time></trkpt><trkpt lat="44.3107796" lon="9.33555"><ele>5.0</ele><time>2026-04-21T14:19:36.307Z</time></trkpt><trkpt lat="44.3107117" lon="9.3356824"><ele>5.0</ele><time>2026-04-21T14:19:37.312Z</time></trkpt><trkpt lat="44.3106502" lon="9.335825"><ele>5.0</ele><time>2026-04-21T14:19:38.31Z</time></trkpt><trkpt lat="44.3105927" lon="9.3359793"><ele>5.0</ele><time>2026-04-21T14:19:39.306Z</time></trkpt><trkpt lat="44.3105357" lon="9.3361342"><ele>5.0</ele><time>2026-04-21T14:19:40.308Z</time></trkpt><trkpt lat="44.3104792" lon="9.336284"><ele>5.0</ele><time>2026-04-21T14:19:41.307Z</time></trkpt><trkpt lat="44.3104247" lon="9.3364289"><ele>5.0</ele><time>2026-04-21T14:19:42.309Z</time></trkpt><trkpt lat="44.3103729" lon="9.3365677"><ele>5.0</ele><time>2026-04-21T14:19:43.316Z</time></trkpt><trkpt lat="44.3103205" lon="9.3367059"><ele>5.0</ele><time>2026-04-21T14:19:44.309Z</time></trkpt><trkpt lat="44.3102681" lon="9.3368438"><ele>5.0</ele><time>2026-04-21T14:19:45.309Z</time></trkpt><trkpt lat="44.3102161" lon="9.3369834"><ele>5.0</ele><time>2026-04-21T14:19:46.304Z</time></trkpt><trkpt lat="44.3101624" lon="9.3371198"><ele>5.0</ele><time>2026-04-21T14:19:47.307Z</time></trkpt><trkpt lat="44.3101111" lon="9.3372471"><ele>5.0</ele><time>2026-04-21T14:19:48.309Z</time></trkpt><trkpt lat="44.3100613" lon="9.3373704"><ele>5.0</ele><time>2026-04-21T14:19:49.311Z</time></trkpt><trkpt lat="44.3100143" lon="9.3374904"><ele>5.2</ele><time>2026-04-21T14:19:50.309Z</time></trkpt><trkpt lat="44.3099649" lon="9.3376095"><ele>5.4</ele><time>2026-04-21T14:19:51.307Z</time></trkpt><trkpt lat="44.3099152" lon="9.3377308"><ele>5.6</ele><time>2026-04-21T14:19:52.31Z</time></trkpt><trkpt lat="44.3098685" lon="9.3378535"><ele>5.8</ele><time>2026-04-21T14:19:53.309Z</time></trkpt><trkpt lat="44.3098232" lon="9.3379699"><ele>6.0</ele><time>2026-04-21T14:19:54.304Z</time></trkpt><trkpt lat="44.3097799" lon="9.3380812"><ele>5.833333333333333</ele><time>2026-04-21T14:19:55.31Z</time></trkpt><trkpt lat="44.3097375" lon="9.3381864"><ele>5.666666666666667</ele><time>2026-04-21T14:19:56.309Z</time></trkpt><trkpt lat="44.3096959" lon="9.3382924"><ele>5.5</ele><time>2026-04-21T14:19:57.311Z</time></trkpt><trkpt lat="44.3096536" lon="9.3384016"><ele>5.333333333333334</ele><time>2026-04-21T14:19:58.309Z</time></trkpt><trkpt lat="44.3096136" lon="9.3385075"><ele>5.166666666666667</ele><time>2026-04-21T14:19:59.301Z</time></trkpt><trkpt lat="44.309578" lon="9.3386078"><ele>5.0</ele><time>2026-04-21T14:20:00.308Z</time></trkpt><trkpt lat="44.3095401" lon="9.338704"><ele>5.0</ele><time>2026-04-21T14:20:01.306Z</time></trkpt><trkpt lat="44.3095052" lon="9.3388004"><ele>5.0</ele><time>2026-04-21T14:20:02.301Z</time></trkpt><trkpt lat="44.3094695" lon="9.3388932"><ele>5.0</ele><time>2026-04-21T14:20:03.308Z</time></trkpt><trkpt lat="44.3094322" lon="9.3389846"><ele>5.0</ele><time>2026-04-21T14:20:04.306Z</time></trkpt><trkpt lat="44.3093999" lon="9.3390704"><ele>5.0</ele><time>2026-04-21T14:20:05.308Z</time></trkpt><trkpt lat="44.3093688" lon="9.3391558"><ele>5.0</ele><time>2026-04-21T14:20:06.307Z</time></trkpt><trkpt lat="44.3093363" lon="9.3392482"><ele>5.0</ele><time>2026-04-21T14:20:07.308Z</time></trkpt><trkpt lat="44.3093045" lon="9.3393463"><ele>5.0</ele><time>2026-04-21T14:20:08.308Z</time></trkpt><trkpt lat="44.3092717" lon="9.3394418"><ele>5.0</ele><time>2026-04-21T14:20:09.307Z</time></trkpt><trkpt lat="44.3092351" lon="9.3395391"><ele>5.0</ele><time>2026-04-21T14:20:10.306Z</time></trkpt><trkpt lat="44.3091963" lon="9.3396378"><ele>5.0</ele><time>2026-04-21T14:20:11.309Z</time></trkpt><trkpt lat="44.30916" lon="9.3397345"><ele>5.0</ele><time>2026-04-21T14:20:12.309Z</time></trkpt><trkpt lat="44.3091226" lon="9.3398318"><ele>5.0</ele><time>2026-04-21T14:20:13.31Z</time></trkpt><trkpt lat="44.3090848" lon="9.3399287"><ele>5.0</ele><time>2026-04-21T14:20:14.309Z</time></trkpt><trkpt lat="44.3090479" lon="9.3400282"><ele>5.0</ele><time>2026-04-21T14:20:15.307Z</time></trkpt><trkpt lat="44.3090127" lon="9.3401246"><ele>5.0</ele><time>2026-04-21T14:20:16.306Z</time></trkpt><trkpt lat="44.3089777" lon="9.3402206"><ele>5.0</ele><time>2026-04-21T14:20:17.31Z</time></trkpt><trkpt lat="44.3089407" lon="9.3403194"><ele>5.0</ele><time>2026-04-21T14:20:18.308Z</time></trkpt><trkpt lat="44.3089039" lon="9.3404199"><ele>5.0</ele><time>2026-04-21T14:20:19.303Z</time></trkpt><trkpt lat="44.3088653" lon="9.3405196"><ele>4.833333333333334</ele><time>2026-04-21T14:20:20.308Z</time></trkpt><trkpt lat="44.3088257" lon="9.3406204"><ele>4.666666666666667</ele><time>2026-04-21T14:20:21.305Z</time></trkpt><trkpt lat="44.3087853" lon="9.3407194"><ele>4.5</ele><time>2026-04-21T14:20:22.308Z</time></trkpt><trkpt lat="44.308742" lon="9.340821"><ele>4.333333333333333</ele><time>2026-04-21T14:20:23.312Z</time></trkpt><trkpt lat="44.3086978" lon="9.3409233"><ele>4.166666666666666</ele><time>2026-04-21T14:20:24.301Z</time></trkpt><trkpt lat="44.3086522" lon="9.3410274"><ele>4.0</ele><time>2026-04-21T14:20:25.307Z</time></trkpt><trkpt lat="44.3086057" lon="9.3411306"><ele>3.9999999999999996</ele><time>2026-04-21T14:20:26.308Z</time></trkpt><trkpt lat="44.3085576" lon="9.3412312"><ele>4.0</ele><time>2026-04-21T14:20:27.308Z</time></trkpt><trkpt lat="44.3085109" lon="9.3413343"><ele>4.0</ele><time>2026-04-21T14:20:28.307Z</time></trkpt><trkpt lat="44.3084663" lon="9.3414394"><ele>4.0</ele><time>2026-04-21T14:20:29.309Z</time></trkpt><trkpt lat="44.308421" lon="9.3415476"><ele>3.9999999999999996</ele><time>2026-04-21T14:20:30.308Z</time></trkpt><trkpt lat="44.3083761" lon="9.3416601"><ele>4.0</ele><time>2026-04-21T14:20:31.312Z</time></trkpt><trkpt lat="44.3083278" lon="9.3417715"><ele>4.2</ele><time>2026-04-21T14:20:32.307Z</time></trkpt><trkpt lat="44.3082779" lon="9.3418807"><ele>4.4</ele><time>2026-04-21T14:20:33.311Z</time></trkpt><trkpt lat="44.3082271" lon="9.3419893"><ele>4.6</ele><time>2026-04-21T14:20:34.309Z</time></trkpt><trkpt lat="44.3081746" lon="9.3421001"><ele>4.8</ele><time>2026-04-21T14:20:35.31Z</time></trkpt><trkpt lat="44.3081213" lon="9.3422081"><ele>5.0</ele><time>2026-04-21T14:20:36.31Z</time></trkpt><trkpt lat="44.3080665" lon="9.3423156"><ele>5.166666666666667</ele><time>2026-04-21T14:20:37.307Z</time></trkpt><trkpt lat="44.3080157" lon="9.3424196"><ele>5.333333333333334</ele><time>2026-04-21T14:20:38.308Z</time></trkpt><trkpt lat="44.3079648" lon="9.3425183"><ele>5.5</ele><time>2026-04-21T14:20:39.308Z</time></trkpt><trkpt lat="44.3079137" lon="9.3426144"><ele>5.666666666666667</ele><time>2026-04-21T14:20:40.309Z</time></trkpt><trkpt lat="44.3078631" lon="9.3427082"><ele>5.833333333333333</ele><time>2026-04-21T14:20:41.307Z</time></trkpt><trkpt lat="44.3078114" lon="9.3427987"><ele>6.0</ele><time>2026-04-21T14:20:42.309Z</time></trkpt><trkpt lat="44.3077554" lon="9.3428852"><ele>6.0</ele><time>2026-04-21T14:20:43.309Z</time></trkpt><trkpt lat="44.3076967" lon="9.3429722"><ele>6.0</ele><time>2026-04-21T14:20:44.308Z</time></trkpt><trkpt lat="44.3076364" lon="9.3430619"><ele>6.0</ele><time>2026-04-21T14:20:45.31Z</time></trkpt><trkpt lat="44.3075766" lon="9.3431513"><ele>6.0</ele><time>2026-04-21T14:20:46.312Z</time></trkpt><trkpt lat="44.3075143" lon="9.3432418"><ele>6.0</ele><time>2026-04-21T14:20:47.311Z</time></trkpt><trkpt lat="44.30745" lon="9.3433284"><ele>6.0</ele><time>2026-04-21T14:20:48.311Z</time></trkpt><trkpt lat="44.3073907" lon="9.3434088"><ele>6.0</ele><time>2026-04-21T14:20:49.313Z</time></trkpt><trkpt lat="44.3073329" lon="9.3434886"><ele>6.0</ele><time>2026-04-21T14:20:50.311Z</time></trkpt><trkpt lat="44.3072705" lon="9.3435788"><ele>6.0</ele><time>2026-04-21T14:20:51.305Z</time></trkpt><trkpt lat="44.3072024" lon="9.3436786"><ele>6.0</ele><time>2026-04-21T14:20:52.309Z</time></trkpt><trkpt lat="44.3071348" lon="9.3437763"><ele>6.0</ele><time>2026-04-21T14:20:53.313Z</time></trkpt><trkpt lat="44.3070711" lon="9.3438593"><ele>5.666666666666667</ele><time>2026-04-21T14:20:54.309Z</time></trkpt><trkpt lat="44.3070117" lon="9.3439404"><ele>5.333333333333333</ele><time>2026-04-21T14:20:55.306Z</time></trkpt><trkpt lat="44.3069529" lon="9.3440229"><ele>5.0</ele><time>2026-04-21T14:20:56.309Z</time></trkpt><trkpt lat="44.3068929" lon="9.3441044"><ele>4.666666666666666</ele><time>2026-04-21T14:20:57.311Z</time></trkpt><trkpt lat="44.306834" lon="9.3441834"><ele>4.333333333333333</ele><time>2026-04-21T14:20:58.311Z</time></trkpt><trkpt lat="44.3067768" lon="9.3442636"><ele>4.0</ele><time>2026-04-21T14:20:59.305Z</time></trkpt><trkpt lat="44.3067185" lon="9.3443448"><ele>3.9999999999999996</ele><time>2026-04-21T14:21:00.312Z</time></trkpt><trkpt lat="44.3066635" lon="9.3444332"><ele>4.0</ele><time>2026-04-21T14:21:01.311Z</time></trkpt><trkpt lat="44.3066123" lon="9.3445247"><ele>4.0</ele><time>2026-04-21T14:21:02.311Z</time></trkpt><trkpt lat="44.306563" lon="9.3446122"><ele>4.0</ele><time>2026-04-21T14:21:03.312Z</time></trkpt><trkpt lat="44.3065168" lon="9.3446972"><ele>3.9999999999999996</ele><time>2026-04-21T14:21:04.311Z</time></trkpt><trkpt lat="44.3064712" lon="9.3447852"><ele>4.0</ele><time>2026-04-21T14:21:05.312Z</time></trkpt><trkpt lat="44.3064278" lon="9.3448805"><ele>4.166666666666666</ele><time>2026-04-21T14:21:06.31Z</time></trkpt><trkpt lat="44.3063877" lon="9.3449795"><ele>4.333333333333333</ele><time>2026-04-21T14:21:07.314Z</time></trkpt><trkpt lat="44.3063494" lon="9.3450788"><ele>4.5</ele><time>2026-04-21T14:21:08.312Z</time></trkpt><trkpt lat="44.3063135" lon="9.3451853"><ele>4.666666666666667</ele><time>2026-04-21T14:21:09.308Z</time></trkpt><trkpt lat="44.3062816" lon="9.3453011"><ele>4.833333333333334</ele><time>2026-04-21T14:21:10.313Z</time></trkpt><trkpt lat="44.3062508" lon="9.3454324"><ele>5.0</ele><time>2026-04-21T14:21:11.311Z</time></trkpt><trkpt lat="44.306211" lon="9.3455889"><ele>5.0</ele><time>2026-04-21T14:21:12.314Z</time></trkpt><trkpt lat="44.3061635" lon="9.3457534"><ele>5.0</ele><time>2026-04-21T14:21:13.309Z</time></trkpt><trkpt lat="44.3061127" lon="9.3459076"><ele>5.0</ele><time>2026-04-21T14:21:14.313Z</time></trkpt><trkpt lat="44.3060706" lon="9.3460423"><ele>5.0</ele><time>2026-04-21T14:21:15.309Z</time></trkpt><trkpt lat="44.306043" lon="9.3461431"><ele>5.0</ele><time>2026-04-21T14:21:16.31Z</time></trkpt><trkpt lat="44.3060135" lon="9.3462592"><ele>5.0</ele><time>2026-04-21T14:21:18.307Z</time></trkpt><trkpt lat="44.305995" lon="9.3463626"><ele>5.0</ele><time>2026-04-21T14:21:24.311Z</time></trkpt><trkpt lat="44.3059492" lon="9.3464528"><ele>5.0</ele><time>2026-04-21T14:21:26.311Z</time></trkpt><trkpt lat="44.305873" lon="9.3465566"><ele>5.0</ele><time>2026-04-21T14:21:28.315Z</time></trkpt><trkpt lat="44.3058064" lon="9.3467126"><ele>5.0</ele><time>2026-04-21T14:21:30.312Z</time></trkpt><trkpt lat="44.305776" lon="9.3468346"><ele>5.25</ele><time>2026-04-21T14:21:31.308Z</time></trkpt><trkpt lat="44.305727" lon="9.3469887"><ele>5.5</ele><time>2026-04-21T14:21:32.308Z</time></trkpt><trkpt lat="44.3056501" lon="9.3471759"><ele>5.75</ele><time>2026-04-21T14:21:33.307Z</time></trkpt><trkpt lat="44.3055591" lon="9.3473736"><ele>6.0</ele><time>2026-04-21T14:21:34.305Z</time></trkpt><trkpt lat="44.3054697" lon="9.3475586"><ele>5.5</ele><time>2026-04-21T14:21:35.31Z</time></trkpt><trkpt lat="44.3053905" lon="9.3477243"><ele>5.0</ele><time>2026-04-21T14:21:36.311Z</time></trkpt><trkpt lat="44.3053219" lon="9.3478716"><ele>4.5</ele><time>2026-04-21T14:21:37.305Z</time></trkpt><trkpt lat="44.3052654" lon="9.3480043"><ele>4.0</ele><time>2026-04-21T14:21:38.309Z</time></trkpt><trkpt lat="44.305222" lon="9.348116"><ele>4.0</ele><time>2026-04-21T14:21:39.309Z</time></trkpt><trkpt lat="44.3051873" lon="9.3482076"><ele>4.0</ele><time>2026-04-21T14:21:40.313Z</time></trkpt><trkpt lat="44.3051367" lon="9.3483262"><ele>4.0</ele><time>2026-04-21T14:21:42.309Z</time></trkpt><trkpt lat="44.3050786" lon="9.3484231"><ele>4.0</ele><time>2026-04-21T14:21:45.313Z</time></trkpt><trkpt lat="44.3050078" lon="9.3485755"><ele>4.0</ele><time>2026-04-21T14:21:47.312Z</time></trkpt><trkpt lat="44.304945" lon="9.3487098"><ele>4.0</ele><time>2026-04-21T14:21:48.31Z</time></trkpt><trkpt lat="44.3048698" lon="9.3488751"><ele>4.0</ele><time>2026-04-21T14:21:49.311Z</time></trkpt><trkpt lat="44.3047803" lon="9.3490695"><ele>4.0</ele><time>2026-04-21T14:21:50.312Z</time></trkpt><trkpt lat="44.3046879" lon="9.3492585"><ele>3.5</ele><time>2026-04-21T14:21:51.315Z</time></trkpt><trkpt lat="44.3045976" lon="9.3494412"><ele>3.0</ele><time>2026-04-21T14:21:52.315Z</time></trkpt><trkpt lat="44.3045114" lon="9.3496059"><ele>2.5</ele><time>2026-04-21T14:21:53.315Z</time></trkpt><trkpt lat="44.3044298" lon="9.3497536"><ele>2.0</ele><time>2026-04-21T14:21:54.304Z</time></trkpt><trkpt lat="44.3043454" lon="9.3498901"><ele>2.0</ele><time>2026-04-21T14:21:55.311Z</time></trkpt><trkpt lat="44.3042657" lon="9.3500294"><ele>2.0</ele><time>2026-04-21T14:21:56.305Z</time></trkpt><trkpt lat="44.3041853" lon="9.3501704"><ele>2.0</ele><time>2026-04-21T14:21:57.314Z</time></trkpt><trkpt lat="44.3041035" lon="9.3503139"><ele>2.0</ele><time>2026-04-21T14:21:58.312Z</time></trkpt><trkpt lat="44.3040199" lon="9.3504604"><ele>1.5</ele><time>2026-04-21T14:21:59.312Z</time></trkpt><trkpt lat="44.3039361" lon="9.3506103"><ele>1.0</ele><time>2026-04-21T14:22:00.309Z</time></trkpt><trkpt lat="44.3038555" lon="9.3507609"><ele>0.5</ele><time>2026-04-21T14:22:01.312Z</time></trkpt><trkpt lat="44.3037777" lon="9.3509125"><ele>0.0</ele><time>2026-04-21T14:22:02.312Z</time></trkpt><trkpt lat="44.3037037" lon="9.3510628"><ele>0.0</ele><time>2026-04-21T14:22:03.314Z</time></trkpt><trkpt lat="44.3036319" lon="9.3512136"><ele>0.0</ele><time>2026-04-21T14:22:04.314Z</time></trkpt><trkpt lat="44.3035651" lon="9.3513641"><ele>0.0</ele><time>2026-04-21T14:22:05.316Z</time></trkpt><trkpt lat="44.3035033" lon="9.3515165"><ele>0.0</ele><time>2026-04-21T14:22:06.312Z</time></trkpt><trkpt lat="44.3034424" lon="9.3516684"><ele>0.25</ele><time>2026-04-21T14:22:07.312Z</time></trkpt><trkpt lat="44.30338" lon="9.3518173"><ele>0.5</ele><time>2026-04-21T14:22:08.313Z</time></trkpt><trkpt lat="44.3033173" lon="9.3519693"><ele>0.75</ele><time>2026-04-21T14:22:09.311Z</time></trkpt><trkpt lat="44.3032529" lon="9.3521238"><ele>1.0</ele><time>2026-04-21T14:22:10.306Z</time></trkpt><trkpt lat="44.3031891" lon="9.3522756"><ele>0.75</ele><time>2026-04-21T14:22:11.312Z</time></trkpt><trkpt lat="44.303126" lon="9.3524234"><ele>0.5</ele><time>2026-04-21T14:22:12.309Z</time></trkpt><trkpt lat="44.3030636" lon="9.3525685"><ele>0.25</ele><time>2026-04-21T14:22:13.312Z</time></trkpt><trkpt lat="44.3030024" lon="9.352714"><ele>0.0</ele><time>2026-04-21T14:22:14.311Z</time></trkpt><trkpt lat="44.3029399" lon="9.3528605"><ele>0.0</ele><time>2026-04-21T14:22:15.31Z</time></trkpt><trkpt lat="44.3028788" lon="9.3530077"><ele>0.0</ele><time>2026-04-21T14:22:16.306Z</time></trkpt><trkpt lat="44.3028148" lon="9.3531533"><ele>0.0</ele><time>2026-04-21T14:22:17.31Z</time></trkpt><trkpt lat="44.302752" lon="9.3532955"><ele>0.0</ele><time>2026-04-21T14:22:18.313Z</time></trkpt><trkpt lat="44.3026899" lon="9.3534372"><ele>0.5</ele><time>2026-04-21T14:22:19.314Z</time></trkpt><trkpt lat="44.3026262" lon="9.3535806"><ele>1.0</ele><time>2026-04-21T14:22:20.315Z</time></trkpt><trkpt lat="44.3025659" lon="9.3537257"><ele>1.5</ele><time>2026-04-21T14:22:21.317Z</time></trkpt><trkpt lat="44.3025053" lon="9.3538722"><ele>2.0</ele><time>2026-04-21T14:22:22.316Z</time></trkpt><trkpt lat="44.3024425" lon="9.354018"><ele>2.5</ele><time>2026-04-21T14:22:23.316Z</time></trkpt><trkpt lat="44.3023802" lon="9.3541672"><ele>3.0</ele><time>2026-04-21T14:22:24.311Z</time></trkpt><trkpt lat="44.3023171" lon="9.3543162"><ele>3.5</ele><time>2026-04-21T14:22:25.31Z</time></trkpt><trkpt lat="44.3022533" lon="9.3544602"><ele>4.0</ele><time>2026-04-21T14:22:26.312Z</time></trkpt><trkpt lat="44.3021912" lon="9.354603"><ele>3.5</ele><time>2026-04-21T14:22:27.314Z</time></trkpt><trkpt lat="44.3021287" lon="9.3547464"><ele>3.0</ele><time>2026-04-21T14:22:28.311Z</time></trkpt><trkpt lat="44.3020679" lon="9.3548929"><ele>2.5</ele><time>2026-04-21T14:22:29.308Z</time></trkpt><trkpt lat="44.3020067" lon="9.3550413"><ele>2.0</ele><time>2026-04-21T14:22:30.311Z</time></trkpt><trkpt lat="44.3019425" lon="9.3551889"><ele>2.0</ele><time>2026-04-21T14:22:31.307Z</time></trkpt><trkpt lat="44.3018763" lon="9.3553328"><ele>2.0</ele><time>2026-04-21T14:22:32.308Z</time></trkpt><trkpt lat="44.3018122" lon="9.3554776"><ele>2.0</ele><time>2026-04-21T14:22:33.315Z</time></trkpt><trkpt lat="44.3017488" lon="9.3556227"><ele>2.0</ele><time>2026-04-21T14:22:34.309Z</time></trkpt><trkpt lat="44.3016855" lon="9.3557698"><ele>2.5</ele><time>2026-04-21T14:22:35.309Z</time></trkpt><trkpt lat="44.3016238" lon="9.3559185"><ele>3.0</ele><time>2026-04-21T14:22:36.306Z</time></trkpt><trkpt lat="44.3015606" lon="9.3560628"><ele>3.5</ele><time>2026-04-21T14:22:37.305Z</time></trkpt><trkpt lat="44.3014961" lon="9.356205"><ele>4.0</ele><time>2026-04-21T14:22:38.314Z</time></trkpt><trkpt lat="44.3014335" lon="9.3563498"><ele>3.25</ele><time>2026-04-21T14:22:39.309Z</time></trkpt><trkpt lat="44.301373" lon="9.3564964"><ele>2.5</ele><time>2026-04-21T14:22:40.326Z</time></trkpt><trkpt lat="44.3013123" lon="9.3566425"><ele>1.75</ele><time>2026-04-21T14:22:41.324Z</time></trkpt><trkpt lat="44.3012502" lon="9.3567896"><ele>1.0</ele><time>2026-04-21T14:22:42.324Z</time></trkpt><trkpt lat="44.3011879" lon="9.356933"><ele>1.0</ele><time>2026-04-21T14:22:43.327Z</time></trkpt><trkpt lat="44.3011244" lon="9.3570742"><ele>1.0</ele><time>2026-04-21T14:22:44.315Z</time></trkpt><trkpt lat="44.3010617" lon="9.3572161"><ele>1.0</ele><time>2026-04-21T14:22:45.313Z</time></trkpt><trkpt lat="44.3009989" lon="9.3573618"><ele>1.0</ele><time>2026-04-21T14:22:46.323Z</time></trkpt><trkpt lat="44.3009361" lon="9.3575108"><ele>1.5</ele><time>2026-04-21T14:22:47.32Z</time></trkpt><trkpt lat="44.3008719" lon="9.3576596"><ele>2.0</ele><time>2026-04-21T14:22:48.331Z</time></trkpt><trkpt lat="44.3008089" lon="9.3578095"><ele>2.5</ele><time>2026-04-21T14:22:49.327Z</time></trkpt><trkpt lat="44.3007446" lon="9.3579588"><ele>3.0</ele><time>2026-04-21T14:22:50.316Z</time></trkpt><trkpt lat="44.3006793" lon="9.3581068"><ele>3.0</ele><time>2026-04-21T14:22:51.325Z</time></trkpt><trkpt lat="44.3006156" lon="9.3582555"><ele>3.0</ele><time>2026-04-21T14:22:52.325Z</time></trkpt><trkpt lat="44.3005577" lon="9.3584005"><ele>3.0</ele><time>2026-04-21T14:22:53.335Z</time></trkpt><trkpt lat="44.3004963" lon="9.3585475"><ele>3.0</ele><time>2026-04-21T14:22:54.328Z</time></trkpt><trkpt lat="44.3004342" lon="9.3586949"><ele>2.5</ele><time>2026-04-21T14:22:55.329Z</time></trkpt><trkpt lat="44.3003738" lon="9.3588409"><ele>2.0</ele><time>2026-04-21T14:22:56.319Z</time></trkpt><trkpt lat="44.3003079" lon="9.3589926"><ele>1.5</ele><time>2026-04-21T14:22:57.317Z</time></trkpt><trkpt lat="44.3002421" lon="9.3591445"><ele>1.0</ele><time>2026-04-21T14:22:58.323Z</time></trkpt><trkpt lat="44.3001771" lon="9.3592954"><ele>1.0</ele><time>2026-04-21T14:22:59.33Z</time></trkpt><trkpt lat="44.3001139" lon="9.3594457"><ele>1.0</ele><time>2026-04-21T14:23:00.327Z</time></trkpt><trkpt lat="44.3000525" lon="9.3595962"><ele>1.0</ele><time>2026-04-21T14:23:01.329Z</time></trkpt><trkpt lat="44.2999903" lon="9.3597468"><ele>1.0</ele><time>2026-04-21T14:23:02.327Z</time></trkpt><trkpt lat="44.2999252" lon="9.3599001"><ele>0.75</ele><time>2026-04-21T14:23:03.332Z</time></trkpt><trkpt lat="44.2998569" lon="9.3600563"><ele>0.5</ele><time>2026-04-21T14:23:04.332Z</time></trkpt><trkpt lat="44.2997858" lon="9.3602156"><ele>0.25</ele><time>2026-04-21T14:23:05.325Z</time></trkpt><trkpt lat="44.2997134" lon="9.3603769"><ele>0.0</ele><time>2026-04-21T14:23:06.33Z</time></trkpt><trkpt lat="44.2996408" lon="9.3605415"><ele>0.5</ele><time>2026-04-21T14:23:07.326Z</time></trkpt><trkpt lat="44.2995707" lon="9.3607035"><ele>1.0</ele><time>2026-04-21T14:23:08.33Z</time></trkpt><trkpt lat="44.2994997" lon="9.3608661"><ele>1.5</ele><time>2026-04-21T14:23:09.328Z</time></trkpt><trkpt lat="44.2994279" lon="9.3610274"><ele>2.0</ele><time>2026-04-21T14:23:10.331Z</time></trkpt><trkpt lat="44.2993543" lon="9.3611872"><ele>2.0</ele><time>2026-04-21T14:23:11.324Z</time></trkpt><trkpt lat="44.2992808" lon="9.3613433"><ele>2.0</ele><time>2026-04-21T14:23:12.327Z</time></trkpt><trkpt lat="44.2992067" lon="9.3614989"><ele>2.0</ele><time>2026-04-21T14:23:13.329Z</time></trkpt><trkpt lat="44.2991335" lon="9.3616559"><ele>2.0</ele><time>2026-04-21T14:23:14.326Z</time></trkpt><trkpt lat="44.2990606" lon="9.3618136"><ele>1.75</ele><time>2026-04-21T14:23:15.321Z</time></trkpt><trkpt lat="44.2989896" lon="9.3619712"><ele>1.5</ele><time>2026-04-21T14:23:16.321Z</time></trkpt><trkpt lat="44.298917" lon="9.3621316"><ele>1.25</ele><time>2026-04-21T14:23:17.323Z</time></trkpt><trkpt lat="44.2988459" lon="9.3622945"><ele>1.0</ele><time>2026-04-21T14:23:18.329Z</time></trkpt><trkpt lat="44.298773" lon="9.3624576"><ele>1.0</ele><time>2026-04-21T14:23:19.33Z</time></trkpt><trkpt lat="44.2986985" lon="9.3626177"><ele>1.0</ele><time>2026-04-21T14:23:20.324Z</time></trkpt><trkpt lat="44.2986251" lon="9.362775"><ele>1.0</ele><time>2026-04-21T14:23:21.327Z</time></trkpt><trkpt lat="44.2985519" lon="9.362931"><ele>1.0</ele><time>2026-04-21T14:23:22.316Z</time></trkpt><trkpt lat="44.2984803" lon="9.3630838"><ele>1.5</ele><time>2026-04-21T14:23:23.317Z</time></trkpt><trkpt lat="44.2984127" lon="9.3632275"><ele>2.0</ele><time>2026-04-21T14:23:24.33Z</time></trkpt><trkpt lat="44.2983508" lon="9.3633607"><ele>2.5</ele><time>2026-04-21T14:23:25.324Z</time></trkpt><trkpt lat="44.2982923" lon="9.3634878"><ele>3.0</ele><time>2026-04-21T14:23:26.325Z</time></trkpt><trkpt lat="44.298234" lon="9.3636133"><ele>3.0</ele><time>2026-04-21T14:23:27.326Z</time></trkpt><trkpt lat="44.2981748" lon="9.36374"><ele>3.0</ele><time>2026-04-21T14:23:28.326Z</time></trkpt><trkpt lat="44.2981145" lon="9.3638692"><ele>3.0</ele><time>2026-04-21T14:23:29.326Z</time></trkpt><trkpt lat="44.2980529" lon="9.3639992"><ele>3.0</ele><time>2026-04-21T14:23:30.332Z</time></trkpt><trkpt lat="44.2979907" lon="9.3641311"><ele>3.0</ele><time>2026-04-21T14:23:31.327Z</time></trkpt><trkpt lat="44.2979271" lon="9.3642674"><ele>2.75</ele><time>2026-04-21T14:23:32.33Z</time></trkpt><trkpt lat="44.2978604" lon="9.3644051"><ele>2.5</ele><time>2026-04-21T14:23:33.323Z</time></trkpt><trkpt lat="44.297794" lon="9.364544"><ele>2.25</ele><time>2026-04-21T14:23:34.327Z</time></trkpt><trkpt lat="44.2977257" lon="9.3646874"><ele>2.0</ele><time>2026-04-21T14:23:35.332Z</time></trkpt><trkpt lat="44.2976566" lon="9.3648347"><ele>2.5</ele><time>2026-04-21T14:23:36.313Z</time></trkpt><trkpt lat="44.2975849" lon="9.3649855"><ele>3.0</ele><time>2026-04-21T14:23:37.325Z</time></trkpt><trkpt lat="44.2975114" lon="9.3651375"><ele>3.5</ele><time>2026-04-21T14:23:38.326Z</time></trkpt><trkpt lat="44.2974365" lon="9.365293"><ele>4.0</ele><time>2026-04-21T14:23:39.333Z</time></trkpt><trkpt lat="44.2973602" lon="9.3654513"><ele>4.0</ele><time>2026-04-21T14:23:40.325Z</time></trkpt><trkpt lat="44.297283" lon="9.3656146"><ele>4.0</ele><time>2026-04-21T14:23:41.328Z</time></trkpt><trkpt lat="44.2972054" lon="9.3657793"><ele>4.0</ele><time>2026-04-21T14:23:42.326Z</time></trkpt><trkpt lat="44.2971275" lon="9.3659467"><ele>4.0</ele><time>2026-04-21T14:23:43.334Z</time></trkpt><trkpt lat="44.29705" lon="9.3661122"><ele>3.5</ele><time>2026-04-21T14:23:44.325Z</time></trkpt><trkpt lat="44.2969743" lon="9.366271"><ele>3.0</ele><time>2026-04-21T14:23:45.329Z</time></trkpt><trkpt lat="44.2969028" lon="9.3664271"><ele>2.5</ele><time>2026-04-21T14:23:46.332Z</time></trkpt><trkpt lat="44.2968331" lon="9.3665822"><ele>2.0</ele><time>2026-04-21T14:23:47.321Z</time></trkpt><trkpt lat="44.2967618" lon="9.3667331"><ele>2.75</ele><time>2026-04-21T14:23:48.328Z</time></trkpt><trkpt lat="44.2966897" lon="9.3668811"><ele>3.5</ele><time>2026-04-21T14:23:49.328Z</time></trkpt><trkpt lat="44.2966178" lon="9.3670296"><ele>4.25</ele><time>2026-04-21T14:23:50.329Z</time></trkpt><trkpt lat="44.2965465" lon="9.3671754"><ele>5.0</ele><time>2026-04-21T14:23:51.332Z</time></trkpt><trkpt lat="44.2964745" lon="9.3673215"><ele>4.25</ele><time>2026-04-21T14:23:52.328Z</time></trkpt><trkpt lat="44.2964028" lon="9.3674664"><ele>3.5</ele><time>2026-04-21T14:23:53.327Z</time></trkpt><trkpt lat="44.2963328" lon="9.3676121"><ele>2.75</ele><time>2026-04-21T14:23:54.322Z</time></trkpt><trkpt lat="44.2962641" lon="9.3677567"><ele>2.0</ele><time>2026-04-21T14:23:55.328Z</time></trkpt><trkpt lat="44.2961943" lon="9.3679008"><ele>2.75</ele><time>2026-04-21T14:23:56.33Z</time></trkpt><trkpt lat="44.2961233" lon="9.3680431"><ele>3.5</ele><time>2026-04-21T14:23:57.318Z</time></trkpt><trkpt lat="44.2960544" lon="9.3681826"><ele>4.25</ele><time>2026-04-21T14:23:58.327Z</time></trkpt><trkpt lat="44.2959891" lon="9.3683209"><ele>5.0</ele><time>2026-04-21T14:23:59.328Z</time></trkpt><trkpt lat="44.2959215" lon="9.3684602"><ele>5.0</ele><time>2026-04-21T14:24:00.32Z</time></trkpt><trkpt lat="44.2958528" lon="9.3686005"><ele>5.0</ele><time>2026-04-21T14:24:01.33Z</time></trkpt><trkpt lat="44.2957818" lon="9.3687444"><ele>5.0</ele><time>2026-04-21T14:24:02.328Z</time></trkpt><trkpt lat="44.295706" lon="9.368894"><ele>5.0</ele><time>2026-04-21T14:24:03.329Z</time></trkpt><trkpt lat="44.2956274" lon="9.3690495"><ele>4.25</ele><time>2026-04-21T14:24:04.331Z</time></trkpt><trkpt lat="44.2955471" lon="9.3692073"><ele>3.5</ele><time>2026-04-21T14:24:05.327Z</time></trkpt><trkpt lat="44.2954684" lon="9.369367"><ele>2.75</ele><time>2026-04-21T14:24:06.328Z</time></trkpt><trkpt lat="44.2953923" lon="9.369518"><ele>2.0</ele><time>2026-04-21T14:24:07.33Z</time></trkpt><trkpt lat="44.2953172" lon="9.3696617"><ele>2.5</ele><time>2026-04-21T14:24:08.319Z</time></trkpt><trkpt lat="44.2952473" lon="9.3698058"><ele>3.0</ele><time>2026-04-21T14:24:09.327Z</time></trkpt><trkpt lat="44.295178" lon="9.369952"><ele>3.5</ele><time>2026-04-21T14:24:10.329Z</time></trkpt><trkpt lat="44.2951068" lon="9.3700961"><ele>4.0</ele><time>2026-04-21T14:24:11.323Z</time></trkpt><trkpt lat="44.2950326" lon="9.3702412"><ele>4.0</ele><time>2026-04-21T14:24:12.326Z</time></trkpt><trkpt lat="44.2949558" lon="9.3703875"><ele>4.0</ele><time>2026-04-21T14:24:13.323Z</time></trkpt><trkpt lat="44.2948782" lon="9.3705354"><ele>4.0</ele><time>2026-04-21T14:24:14.327Z</time></trkpt><trkpt lat="44.2948034" lon="9.3706851"><ele>4.0</ele><time>2026-04-21T14:24:15.328Z</time></trkpt><trkpt lat="44.2947297" lon="9.3708329"><ele>4.0</ele><time>2026-04-21T14:24:16.33Z</time></trkpt><trkpt lat="44.2946533" lon="9.3709844"><ele>4.0</ele><time>2026-04-21T14:24:17.325Z</time></trkpt><trkpt lat="44.2945773" lon="9.3711354"><ele>4.0</ele><time>2026-04-21T14:24:18.333Z</time></trkpt><trkpt lat="44.2944983" lon="9.3712872"><ele>4.0</ele><time>2026-04-21T14:24:19.326Z</time></trkpt><trkpt lat="44.2944199" lon="9.3714402"><ele>4.0</ele><time>2026-04-21T14:24:20.326Z</time></trkpt><trkpt lat="44.2943409" lon="9.3715936"><ele>4.0</ele><time>2026-04-21T14:24:21.326Z</time></trkpt><trkpt lat="44.2942586" lon="9.3717465"><ele>4.0</ele><time>2026-04-21T14:24:22.328Z</time></trkpt><trkpt lat="44.2941734" lon="9.371901"><ele>4.0</ele><time>2026-04-21T14:24:23.333Z</time></trkpt><trkpt lat="44.294086" lon="9.3720589"><ele>4.25</ele><time>2026-04-21T14:24:24.326Z</time></trkpt><trkpt lat="44.2939955" lon="9.3722162"><ele>4.5</ele><time>2026-04-21T14:24:25.33Z</time></trkpt><trkpt lat="44.2939047" lon="9.3723726"><ele>4.75</ele><time>2026-04-21T14:24:26.329Z</time></trkpt><trkpt lat="44.2938146" lon="9.3725303"><ele>5.0</ele><time>2026-04-21T14:24:27.325Z</time></trkpt><trkpt lat="44.2937259" lon="9.3726897"><ele>5.0</ele><time>2026-04-21T14:24:28.327Z</time></trkpt><trkpt lat="44.2936368" lon="9.3728468"><ele>5.0</ele><time>2026-04-21T14:24:29.317Z</time></trkpt><trkpt lat="44.2935491" lon="9.3729999"><ele>5.0</ele><time>2026-04-21T14:24:30.32Z</time></trkpt><trkpt lat="44.2934633" lon="9.3731501"><ele>5.0</ele><time>2026-04-21T14:24:31.329Z</time></trkpt><trkpt lat="44.293378" lon="9.3732977"><ele>5.75</ele><time>2026-04-21T14:24:32.326Z</time></trkpt><trkpt lat="44.2932941" lon="9.3734461"><ele>6.5</ele><time>2026-04-21T14:24:33.318Z</time></trkpt><trkpt lat="44.2932124" lon="9.3735972"><ele>7.25</ele><time>2026-04-21T14:24:34.329Z</time></trkpt><trkpt lat="44.2931306" lon="9.3737491"><ele>8.0</ele><time>2026-04-21T14:24:35.323Z</time></trkpt><trkpt lat="44.2930491" lon="9.3739013"><ele>8.0</ele><time>2026-04-21T14:24:36.326Z</time></trkpt><trkpt lat="44.2929637" lon="9.3740518"><ele>8.0</ele><time>2026-04-21T14:24:37.326Z</time></trkpt><trkpt lat="44.2928778" lon="9.3742038"><ele>8.0</ele><time>2026-04-21T14:24:38.328Z</time></trkpt><trkpt lat="44.2927934" lon="9.3743567"><ele>8.0</ele><time>2026-04-21T14:24:39.321Z</time></trkpt><trkpt lat="44.292709" lon="9.3745108"><ele>8.0</ele><time>2026-04-21T14:24:40.325Z</time></trkpt><trkpt lat="44.2926234" lon="9.3746669"><ele>8.0</ele><time>2026-04-21T14:24:41.32Z</time></trkpt><trkpt lat="44.2925397" lon="9.3748236"><ele>8.0</ele><time>2026-04-21T14:24:42.323Z</time></trkpt><trkpt lat="44.292456" lon="9.3749794"><ele>8.0</ele><time>2026-04-21T14:24:43.325Z</time></trkpt><trkpt lat="44.2923752" lon="9.3751345"><ele>8.0</ele><time>2026-04-21T14:24:44.322Z</time></trkpt><trkpt lat="44.2922937" lon="9.3752913"><ele>8.0</ele><time>2026-04-21T14:24:45.323Z</time></trkpt><trkpt lat="44.2922131" lon="9.3754491"><ele>8.0</ele><time>2026-04-21T14:24:46.324Z</time></trkpt><trkpt lat="44.2921325" lon="9.375605"><ele>8.0</ele><time>2026-04-21T14:24:47.325Z</time></trkpt><trkpt lat="44.2920469" lon="9.3757618"><ele>8.0</ele><time>2026-04-21T14:24:48.326Z</time></trkpt><trkpt lat="44.2919584" lon="9.3759223"><ele>8.0</ele><time>2026-04-21T14:24:49.327Z</time></trkpt><trkpt lat="44.2918721" lon="9.3760774"><ele>8.0</ele><time>2026-04-21T14:24:50.315Z</time></trkpt><trkpt lat="44.2917944" lon="9.3762313"><ele>8.0</ele><time>2026-04-21T14:24:51.326Z</time></trkpt><trkpt lat="44.2917162" lon="9.3763759"><ele>7.25</ele><time>2026-04-21T14:24:52.324Z</time></trkpt><trkpt lat="44.2916333" lon="9.3765079"><ele>6.5</ele><time>2026-04-21T14:24:53.329Z</time></trkpt><trkpt lat="44.2915491" lon="9.3766294"><ele>5.75</ele><time>2026-04-21T14:24:54.324Z</time></trkpt><trkpt lat="44.2914663" lon="9.3767478"><ele>5.0</ele><time>2026-04-21T14:24:55.326Z</time></trkpt><trkpt lat="44.2913888" lon="9.3768627"><ele>5.0</ele><time>2026-04-21T14:24:56.327Z</time></trkpt><trkpt lat="44.2913106" lon="9.3769711"><ele>5.0</ele><time>2026-04-21T14:24:57.326Z</time></trkpt><trkpt lat="44.2912225" lon="9.3770693"><ele>5.0</ele><time>2026-04-21T14:24:58.329Z</time></trkpt><trkpt lat="44.2911205" lon="9.3771595"><ele>5.0</ele><time>2026-04-21T14:24:59.328Z</time></trkpt><trkpt lat="44.2910095" lon="9.377254"><ele>4.0</ele><time>2026-04-21T14:25:00.327Z</time></trkpt><trkpt lat="44.2908944" lon="9.3773569"><ele>3.0</ele><time>2026-04-21T14:25:01.328Z</time></trkpt><trkpt lat="44.2907802" lon="9.3774684"><ele>2.0</ele><time>2026-04-21T14:25:02.322Z</time></trkpt><trkpt lat="44.2906724" lon="9.3775927"><ele>1.0</ele><time>2026-04-21T14:25:03.326Z</time></trkpt><trkpt lat="44.2905716" lon="9.3777259"><ele>1.0</ele><time>2026-04-21T14:25:04.328Z</time></trkpt><trkpt lat="44.2904737" lon="9.3778672"><ele>1.0</ele><time>2026-04-21T14:25:05.327Z</time></trkpt><trkpt lat="44.2903813" lon="9.3780148"><ele>1.0</ele><time>2026-04-21T14:25:06.329Z</time></trkpt><trkpt lat="44.2902871" lon="9.3781693"><ele>1.0</ele><time>2026-04-21T14:25:07.323Z</time></trkpt><trkpt lat="44.2901851" lon="9.3783249"><ele>1.75</ele><time>2026-04-21T14:25:08.323Z</time></trkpt><trkpt lat="44.2900824" lon="9.3784786"><ele>2.5</ele><time>2026-04-21T14:25:09.332Z</time></trkpt><trkpt lat="44.2899776" lon="9.3786297"><ele>3.25</ele><time>2026-04-21T14:25:10.326Z</time></trkpt><trkpt lat="44.2898778" lon="9.3787778"><ele>4.0</ele><time>2026-04-21T14:25:11.328Z</time></trkpt><trkpt lat="44.2897814" lon="9.3789222"><ele>3.5</ele><time>2026-04-21T14:25:12.318Z</time></trkpt><trkpt lat="44.2896861" lon="9.3790644"><ele>3.0</ele><time>2026-04-21T14:25:13.33Z</time></trkpt><trkpt lat="44.2895954" lon="9.3791996"><ele>2.5</ele><time>2026-04-21T14:25:14.33Z</time></trkpt><trkpt lat="44.2895074" lon="9.3793287"><ele>2.0</ele><time>2026-04-21T14:25:15.322Z</time></trkpt><trkpt lat="44.2894235" lon="9.3794557"><ele>2.0</ele><time>2026-04-21T14:25:16.332Z</time></trkpt><trkpt lat="44.2893353" lon="9.3795801"><ele>2.0</ele><time>2026-04-21T14:25:17.329Z</time></trkpt><trkpt lat="44.2892454" lon="9.3797079"><ele>2.0</ele><time>2026-04-21T14:25:18.322Z</time></trkpt><trkpt lat="44.2891544" lon="9.3798381"><ele>2.0</ele><time>2026-04-21T14:25:19.322Z</time></trkpt><trkpt lat="44.2890638" lon="9.3799672"><ele>2.75</ele><time>2026-04-21T14:25:20.33Z</time></trkpt><trkpt lat="44.2889769" lon="9.3800906"><ele>3.5</ele><time>2026-04-21T14:25:21.323Z</time></trkpt><trkpt lat="44.2888955" lon="9.3802108"><ele>4.25</ele><time>2026-04-21T14:25:22.329Z</time></trkpt><trkpt lat="44.2888185" lon="9.3803283"><ele>5.0</ele><time>2026-04-21T14:25:23.331Z</time></trkpt><trkpt lat="44.2887406" lon="9.3804454"><ele>8.0</ele><time>2026-04-21T14:25:24.327Z</time></trkpt><trkpt lat="44.2886604" lon="9.3805629"><ele>11.0</ele><time>2026-04-21T14:25:25.328Z</time></trkpt><trkpt lat="44.2885788" lon="9.3806809"><ele>14.0</ele><time>2026-04-21T14:25:26.321Z</time></trkpt><trkpt lat="44.2884974" lon="9.3807993"><ele>17.0</ele><time>2026-04-21T14:25:27.328Z</time></trkpt><trkpt lat="44.2884126" lon="9.3809182"><ele>17.0</ele><time>2026-04-21T14:25:28.327Z</time></trkpt><trkpt lat="44.2883262" lon="9.3810354"><ele>17.0</ele><time>2026-04-21T14:25:29.312Z</time></trkpt><trkpt lat="44.2882388" lon="9.381143"><ele>17.0</ele><time>2026-04-21T14:25:30.321Z</time></trkpt><trkpt lat="44.2881445" lon="9.3812249"><ele>17.0</ele><time>2026-04-21T14:25:31.324Z</time></trkpt><trkpt lat="44.2880524" lon="9.3812888"><ele>18.0</ele><time>2026-04-21T14:25:32.321Z</time></trkpt><trkpt lat="44.2879573" lon="9.3813486"><ele>19.0</ele><time>2026-04-21T14:25:33.33Z</time></trkpt><trkpt lat="44.2878574" lon="9.3813986"><ele>20.0</ele><time>2026-04-21T14:25:34.325Z</time></trkpt><trkpt lat="44.2877469" lon="9.3814303"><ele>21.0</ele><time>2026-04-21T14:25:35.324Z</time></trkpt><trkpt lat="44.2876288" lon="9.3814527"><ele>22.0</ele><time>2026-04-21T14:25:36.331Z</time></trkpt><trkpt lat="44.287516" lon="9.3814636"><ele>22.0</ele><time>2026-04-21T14:25:37.324Z</time></trkpt><trkpt lat="44.2873981" lon="9.3814713"><ele>22.0</ele><time>2026-04-21T14:25:38.329Z</time></trkpt><trkpt lat="44.2872741" lon="9.3814798"><ele>22.0</ele><time>2026-04-21T14:25:39.323Z</time></trkpt><trkpt lat="44.2871453" lon="9.3814911"><ele>22.0</ele><time>2026-04-21T14:25:40.32Z</time></trkpt><trkpt lat="44.2870111" lon="9.3815041"><ele>19.5</ele><time>2026-04-21T14:25:41.321Z</time></trkpt><trkpt lat="44.2868749" lon="9.3815239"><ele>17.0</ele><time>2026-04-21T14:25:42.327Z</time></trkpt><trkpt lat="44.2867429" lon="9.3815558"><ele>14.5</ele><time>2026-04-21T14:25:43.321Z</time></trkpt><trkpt lat="44.2866165" lon="9.3816035"><ele>12.0</ele><time>2026-04-21T14:25:44.323Z</time></trkpt><trkpt lat="44.2864906" lon="9.3816621"><ele>9.25</ele><time>2026-04-21T14:25:45.326Z</time></trkpt><trkpt lat="44.2863689" lon="9.381727"><ele>6.5</ele><time>2026-04-21T14:25:46.317Z</time></trkpt><trkpt lat="44.2862443" lon="9.3817858"><ele>3.75</ele><time>2026-04-21T14:25:47.324Z</time></trkpt><trkpt lat="44.2861293" lon="9.3818437"><ele>1.0</ele><time>2026-04-21T14:25:48.322Z</time></trkpt><trkpt lat="44.2860207" lon="9.3819129"><ele>1.0</ele><time>2026-04-21T14:25:49.327Z</time></trkpt><trkpt lat="44.2859266" lon="9.3820054"><ele>1.0</ele><time>2026-04-21T14:25:50.326Z</time></trkpt><trkpt lat="44.2858402" lon="9.3821329"><ele>1.0</ele><time>2026-04-21T14:25:51.322Z</time></trkpt><trkpt lat="44.2857638" lon="9.3822831"><ele>1.0</ele><time>2026-04-21T14:25:52.326Z</time></trkpt><trkpt lat="44.2856951" lon="9.3824356"><ele>0.75</ele><time>2026-04-21T14:25:53.328Z</time></trkpt><trkpt lat="44.2856344" lon="9.3825808"><ele>0.5</ele><time>2026-04-21T14:25:54.323Z</time></trkpt><trkpt lat="44.2855795" lon="9.3827351"><ele>0.25</ele><time>2026-04-21T14:25:55.324Z</time></trkpt><trkpt lat="44.2855253" lon="9.3828872"><ele>0.0</ele><time>2026-04-21T14:25:56.327Z</time></trkpt><trkpt lat="44.2854748" lon="9.3830407"><ele>1.25</ele><time>2026-04-21T14:25:57.309Z</time></trkpt><trkpt lat="44.2854187" lon="9.3831947"><ele>2.5</ele><time>2026-04-21T14:25:58.321Z</time></trkpt><trkpt lat="44.2853633" lon="9.3833645"><ele>3.75</ele><time>2026-04-21T14:25:59.318Z</time></trkpt><trkpt lat="44.2853055" lon="9.3835529"><ele>5.0</ele><time>2026-04-21T14:26:00.308Z</time></trkpt><trkpt lat="44.2852481" lon="9.3837588"><ele>10.666666666666666</ele><time>2026-04-21T14:26:01.309Z</time></trkpt><trkpt lat="44.2851811" lon="9.3839707"><ele>16.333333333333332</ele><time>2026-04-21T14:26:02.316Z</time></trkpt><trkpt lat="44.2850909" lon="9.3841956"><ele>22.0</ele><time>2026-04-21T14:26:03.318Z</time></trkpt><trkpt lat="44.2849882" lon="9.3844221"><ele>22.0</ele><time>2026-04-21T14:26:04.318Z</time></trkpt><trkpt lat="44.284894" lon="9.3846556"><ele>22.0</ele><time>2026-04-21T14:26:05.305Z</time></trkpt><trkpt lat="44.2847958" lon="9.3848538"><ele>22.0</ele><time>2026-04-21T14:26:06.312Z</time></trkpt><trkpt lat="44.2847001" lon="9.3850322"><ele>21.0</ele><time>2026-04-21T14:26:07.304Z</time></trkpt><trkpt lat="44.2846074" lon="9.3851913"><ele>20.0</ele><time>2026-04-21T14:26:08.3Z</time></trkpt><trkpt lat="44.2845131" lon="9.3853358"><ele>19.0</ele><time>2026-04-21T14:26:09.303Z</time></trkpt><trkpt lat="44.2844038" lon="9.3854901"><ele>18.0</ele><time>2026-04-21T14:26:10.308Z</time></trkpt><trkpt lat="44.2843097" lon="9.3856659"><ele>18.0</ele><time>2026-04-21T14:26:11.309Z</time></trkpt><trkpt lat="44.2842111" lon="9.3858483"><ele>18.0</ele><time>2026-04-21T14:26:12.306Z</time></trkpt><trkpt lat="44.2841229" lon="9.3860115"><ele>18.0</ele><time>2026-04-21T14:26:13.303Z</time></trkpt><trkpt lat="44.2840445" lon="9.3861648"><ele>18.0</ele><time>2026-04-21T14:26:14.301Z</time></trkpt><trkpt lat="44.2839627" lon="9.3863279"><ele>17.75</ele><time>2026-04-21T14:26:15.299Z</time></trkpt><trkpt lat="44.2838842" lon="9.3864844"><ele>17.5</ele><time>2026-04-21T14:26:16.297Z</time></trkpt><trkpt lat="44.2838025" lon="9.3866407"><ele>17.25</ele><time>2026-04-21T14:26:17.3Z</time></trkpt><trkpt lat="44.2837243" lon="9.3867849"><ele>17.0</ele><time>2026-04-21T14:26:18.296Z</time></trkpt><trkpt lat="44.2836443" lon="9.3869248"><ele>17.0</ele><time>2026-04-21T14:26:19.298Z</time></trkpt><trkpt lat="44.2835584" lon="9.3870581"><ele>17.0</ele><time>2026-04-21T14:26:20.291Z</time></trkpt><trkpt lat="44.2834614" lon="9.3871887"><ele>17.0</ele><time>2026-04-21T14:26:21.298Z</time></trkpt><trkpt lat="44.2833615" lon="9.3873003"><ele>17.0</ele><time>2026-04-21T14:26:22.293Z</time></trkpt><trkpt lat="44.2832593" lon="9.387398"><ele>13.25</ele><time>2026-04-21T14:26:23.294Z</time></trkpt><trkpt lat="44.2831348" lon="9.3875072"><ele>9.5</ele><time>2026-04-21T14:26:24.301Z</time></trkpt><trkpt lat="44.283" lon="9.3876113"><ele>5.75</ele><time>2026-04-21T14:26:25.3Z</time></trkpt><trkpt lat="44.2828861" lon="9.3877128"><ele>2.0</ele><time>2026-04-21T14:26:26.302Z</time></trkpt><trkpt lat="44.2827257" lon="9.387807"><ele>2.0</ele><time>2026-04-21T14:26:27.305Z</time></trkpt><trkpt lat="44.2825886" lon="9.3879018"><ele>2.0</ele><time>2026-04-21T14:26:28.302Z</time></trkpt><trkpt lat="44.2824311" lon="9.3880321"><ele>2.0</ele><time>2026-04-21T14:26:29.304Z</time></trkpt><trkpt lat="44.2822913" lon="9.3881892"><ele>1.6666666666666665</ele><time>2026-04-21T14:26:30.309Z</time></trkpt><trkpt lat="44.2821846" lon="9.3884466"><ele>1.3333333333333333</ele><time>2026-04-21T14:26:31.309Z</time></trkpt><trkpt lat="44.2821068" lon="9.3886772"><ele>1.0</ele><time>2026-04-21T14:26:32.308Z</time></trkpt><trkpt lat="44.2820415" lon="9.3889085"><ele>2.3333333333333335</ele><time>2026-04-21T14:26:33.311Z</time></trkpt><trkpt lat="44.2820026" lon="9.3891965"><ele>3.666666666666667</ele><time>2026-04-21T14:26:34.314Z</time></trkpt><trkpt lat="44.2819251" lon="9.3894112"><ele>5.0</ele><time>2026-04-21T14:26:35.307Z</time></trkpt><trkpt lat="44.2818403" lon="9.3895993"><ele>5.333333333333334</ele><time>2026-04-21T14:26:36.317Z</time></trkpt><trkpt lat="44.2817463" lon="9.3897762"><ele>5.666666666666667</ele><time>2026-04-21T14:26:37.307Z</time></trkpt><trkpt lat="44.281639" lon="9.3899476"><ele>6.0</ele><time>2026-04-21T14:26:38.318Z</time></trkpt><trkpt lat="44.2815217" lon="9.3901058"><ele>5.333333333333333</ele><time>2026-04-21T14:26:39.326Z</time></trkpt><trkpt lat="44.2814115" lon="9.3902577"><ele>4.666666666666666</ele><time>2026-04-21T14:26:40.334Z</time></trkpt><trkpt lat="44.2813078" lon="9.3904148"><ele>4.0</ele><time>2026-04-21T14:26:41.32Z</time></trkpt><trkpt lat="44.2812117" lon="9.3905611"><ele>4.0</ele><time>2026-04-21T14:26:42.327Z</time></trkpt><trkpt lat="44.2811224" lon="9.3906952"><ele>4.0</ele><time>2026-04-21T14:26:43.329Z</time></trkpt><trkpt lat="44.2810365" lon="9.3908179"><ele>4.0</ele><time>2026-04-21T14:26:44.331Z</time></trkpt><trkpt lat="44.2809476" lon="9.390924"><ele>4.0</ele><time>2026-04-21T14:26:45.328Z</time></trkpt><trkpt lat="44.2808567" lon="9.3910109"><ele>4.0</ele><time>2026-04-21T14:26:46.331Z</time></trkpt><trkpt lat="44.2807611" lon="9.3910821"><ele>4.0</ele><time>2026-04-21T14:26:47.328Z</time></trkpt><trkpt lat="44.2806688" lon="9.3911587"><ele>4.0</ele><time>2026-04-21T14:26:48.326Z</time></trkpt><trkpt lat="44.2805826" lon="9.3912776"><ele>4.0</ele><time>2026-04-21T14:26:49.317Z</time></trkpt><trkpt lat="44.2804915" lon="9.3914022"><ele>4.0</ele><time>2026-04-21T14:26:50.323Z</time></trkpt><trkpt lat="44.2803885" lon="9.3915125"><ele>4.0</ele><time>2026-04-21T14:26:51.329Z</time></trkpt><trkpt lat="44.2802774" lon="9.3916176"><ele>4.0</ele><time>2026-04-21T14:26:52.326Z</time></trkpt><trkpt lat="44.280161" lon="9.3917176"><ele>4.0</ele><time>2026-04-21T14:26:53.33Z</time></trkpt><trkpt lat="44.2800358" lon="9.3918168"><ele>4.0</ele><time>2026-04-21T14:26:54.317Z</time></trkpt><trkpt lat="44.2799082" lon="9.3919088"><ele>4.0</ele><time>2026-04-21T14:26:55.324Z</time></trkpt><trkpt lat="44.2797786" lon="9.392005"><ele>4.0</ele><time>2026-04-21T14:26:56.323Z</time></trkpt><trkpt lat="44.2796506" lon="9.3920962"><ele>4.0</ele><time>2026-04-21T14:26:57.315Z</time></trkpt><trkpt lat="44.2795206" lon="9.392176"><ele>4.25</ele><time>2026-04-21T14:26:58.33Z</time></trkpt><trkpt lat="44.2793984" lon="9.3922552"><ele>4.5</ele><time>2026-04-21T14:26:59.331Z</time></trkpt><trkpt lat="44.2792896" lon="9.3923325"><ele>4.75</ele><time>2026-04-21T14:27:00.327Z</time></trkpt><trkpt lat="44.2791838" lon="9.392409"><ele>5.0</ele><time>2026-04-21T14:27:01.319Z</time></trkpt><trkpt lat="44.2790807" lon="9.3924883"><ele>5.0</ele><time>2026-04-21T14:27:02.328Z</time></trkpt><trkpt lat="44.2789756" lon="9.3925687"><ele>5.0</ele><time>2026-04-21T14:27:03.321Z</time></trkpt><trkpt lat="44.2788682" lon="9.3926465"><ele>5.0</ele><time>2026-04-21T14:27:04.322Z</time></trkpt><trkpt lat="44.278761" lon="9.3927285"><ele>5.0</ele><time>2026-04-21T14:27:05.311Z</time></trkpt><trkpt lat="44.2786537" lon="9.3928119"><ele>4.5</ele><time>2026-04-21T14:27:06.322Z</time></trkpt><trkpt lat="44.2785467" lon="9.3928915"><ele>4.0</ele><time>2026-04-21T14:27:07.322Z</time></trkpt><trkpt lat="44.2784413" lon="9.3929679"><ele>3.5</ele><time>2026-04-21T14:27:08.317Z</time></trkpt><trkpt lat="44.2783374" lon="9.3930425"><ele>3.0</ele><time>2026-04-21T14:27:09.321Z</time></trkpt><trkpt lat="44.2782347" lon="9.3931161"><ele>3.8</ele><time>2026-04-21T14:27:10.324Z</time></trkpt><trkpt lat="44.2781328" lon="9.3931891"><ele>4.6</ele><time>2026-04-21T14:27:11.317Z</time></trkpt><trkpt lat="44.2780324" lon="9.3932587"><ele>5.3999999999999995</ele><time>2026-04-21T14:27:12.325Z</time></trkpt><trkpt lat="44.2779356" lon="9.3933278"><ele>6.199999999999999</ele><time>2026-04-21T14:27:13.329Z</time></trkpt><trkpt lat="44.2778393" lon="9.3933949"><ele>7.0</ele><time>2026-04-21T14:27:14.328Z</time></trkpt><trkpt lat="44.2777434" lon="9.3934647"><ele>7.0</ele><time>2026-04-21T14:27:15.326Z</time></trkpt><trkpt lat="44.2776503" lon="9.3935362"><ele>6.999999999999999</ele><time>2026-04-21T14:27:16.33Z</time></trkpt><trkpt lat="44.2775624" lon="9.3936026"><ele>6.999999999999999</ele><time>2026-04-21T14:27:17.324Z</time></trkpt><trkpt lat="44.2774789" lon="9.3936637"><ele>7.0</ele><time>2026-04-21T14:27:18.328Z</time></trkpt><trkpt lat="44.2774008" lon="9.3937228"><ele>7.0</ele><time>2026-04-21T14:27:19.326Z</time></trkpt><trkpt lat="44.2773284" lon="9.3937796"><ele>6.833333333333334</ele><time>2026-04-21T14:27:20.323Z</time></trkpt><trkpt lat="44.2772567" lon="9.3938313"><ele>6.666666666666667</ele><time>2026-04-21T14:27:21.323Z</time></trkpt><trkpt lat="44.2771853" lon="9.393883"><ele>6.5</ele><time>2026-04-21T14:27:22.324Z</time></trkpt><trkpt lat="44.2771164" lon="9.3939347"><ele>6.333333333333334</ele><time>2026-04-21T14:27:23.317Z</time></trkpt><trkpt lat="44.2770459" lon="9.3939866"><ele>6.166666666666667</ele><time>2026-04-21T14:27:24.316Z</time></trkpt><trkpt lat="44.2769735" lon="9.3940412"><ele>6.0</ele><time>2026-04-21T14:27:25.326Z</time></trkpt><trkpt lat="44.2768976" lon="9.3940998"><ele>6.0</ele><time>2026-04-21T14:27:26.326Z</time></trkpt><trkpt lat="44.2768172" lon="9.3941632"><ele>6.0</ele><time>2026-04-21T14:27:27.326Z</time></trkpt><trkpt lat="44.276731" lon="9.3942303"><ele>6.0</ele><time>2026-04-21T14:27:28.326Z</time></trkpt><trkpt lat="44.2766408" lon="9.3943046"><ele>6.0</ele><time>2026-04-21T14:27:29.329Z</time></trkpt><trkpt lat="44.2765422" lon="9.3943793"><ele>6.0</ele><time>2026-04-21T14:27:30.329Z</time></trkpt><trkpt lat="44.2764441" lon="9.3944512"><ele>5.8</ele><time>2026-04-21T14:27:31.318Z</time></trkpt><trkpt lat="44.2763446" lon="9.3945159"><ele>5.6</ele><time>2026-04-21T14:27:32.321Z</time></trkpt><trkpt lat="44.2762505" lon="9.3945818"><ele>5.4</ele><time>2026-04-21T14:27:33.321Z</time></trkpt><trkpt lat="44.2761626" lon="9.3946401"><ele>5.2</ele><time>2026-04-21T14:27:34.32Z</time></trkpt><trkpt lat="44.2760821" lon="9.3946962"><ele>5.0</ele><time>2026-04-21T14:27:35.321Z</time></trkpt><trkpt lat="44.2760018" lon="9.3947554"><ele>5.6</ele><time>2026-04-21T14:27:36.325Z</time></trkpt><trkpt lat="44.2759163" lon="9.3948182"><ele>6.2</ele><time>2026-04-21T14:27:37.322Z</time></trkpt><trkpt lat="44.2758299" lon="9.3948783"><ele>6.800000000000001</ele><time>2026-04-21T14:27:38.324Z</time></trkpt><trkpt lat="44.2757466" lon="9.3949342"><ele>7.4</ele><time>2026-04-21T14:27:39.326Z</time></trkpt><trkpt lat="44.2756695" lon="9.3949847"><ele>8.0</ele><time>2026-04-21T14:27:40.317Z</time></trkpt><trkpt lat="44.275595" lon="9.3950347"><ele>8.0</ele><time>2026-04-21T14:27:41.311Z</time></trkpt><trkpt lat="44.2755149" lon="9.3950881"><ele>8.0</ele><time>2026-04-21T14:27:42.325Z</time></trkpt><trkpt lat="44.2754312" lon="9.3951469"><ele>8.0</ele><time>2026-04-21T14:27:43.333Z</time></trkpt><trkpt lat="44.2753456" lon="9.3952128"><ele>8.0</ele><time>2026-04-21T14:27:44.324Z</time></trkpt><trkpt lat="44.2752576" lon="9.3952853"><ele>8.0</ele><time>2026-04-21T14:27:45.324Z</time></trkpt><trkpt lat="44.2751659" lon="9.3953554"><ele>7.999999999999999</ele><time>2026-04-21T14:27:46.324Z</time></trkpt><trkpt lat="44.2750748" lon="9.3954149"><ele>8.0</ele><time>2026-04-21T14:27:47.322Z</time></trkpt><trkpt lat="44.2749927" lon="9.3954768"><ele>8.0</ele><time>2026-04-21T14:27:48.322Z</time></trkpt><trkpt lat="44.2749157" lon="9.395533"><ele>8.0</ele><time>2026-04-21T14:27:49.325Z</time></trkpt><trkpt lat="44.274848" lon="9.3955865"><ele>7.999999999999999</ele><time>2026-04-21T14:27:50.322Z</time></trkpt><trkpt lat="44.2747887" lon="9.3956292"><ele>8.0</ele><time>2026-04-21T14:27:51.327Z</time></trkpt><trkpt lat="44.2747195" lon="9.3956814"><ele>7.666666666666666</ele><time>2026-04-21T14:27:54.322Z</time></trkpt><trkpt lat="44.2746382" lon="9.3957199"><ele>7.333333333333333</ele><time>2026-04-21T14:27:57.322Z</time></trkpt><trkpt lat="44.2745696" lon="9.3957767"><ele>7.0</ele><time>2026-04-21T14:27:59.325Z</time></trkpt><trkpt lat="44.2744787" lon="9.3958539"><ele>6.666666666666666</ele><time>2026-04-21T14:28:01.327Z</time></trkpt><trkpt lat="44.2744125" lon="9.3959175"><ele>6.333333333333333</ele><time>2026-04-21T14:28:02.328Z</time></trkpt><trkpt lat="44.2743364" lon="9.3959819"><ele>6.0</ele><time>2026-04-21T14:28:03.327Z</time></trkpt><trkpt lat="44.2742689" lon="9.3960429"><ele>6.0</ele><time>2026-04-21T14:28:04.329Z</time></trkpt><trkpt lat="44.2742031" lon="9.3960996"><ele>6.0</ele><time>2026-04-21T14:28:05.33Z</time></trkpt><trkpt lat="44.2741386" lon="9.3961526"><ele>6.0</ele><time>2026-04-21T14:28:06.324Z</time></trkpt><trkpt lat="44.2740712" lon="9.3961984"><ele>6.0</ele><time>2026-04-21T14:28:07.328Z</time></trkpt><trkpt lat="44.2740003" lon="9.3962428"><ele>6.0</ele><time>2026-04-21T14:28:08.331Z</time></trkpt><trkpt lat="44.2739316" lon="9.3962943"><ele>6.0</ele><time>2026-04-21T14:28:09.327Z</time></trkpt><trkpt lat="44.273859" lon="9.3963484"><ele>5.8</ele><time>2026-04-21T14:28:10.331Z</time></trkpt><trkpt lat="44.2737787" lon="9.3964066"><ele>5.6</ele><time>2026-04-21T14:28:11.325Z</time></trkpt><trkpt lat="44.2736896" lon="9.396473"><ele>5.4</ele><time>2026-04-21T14:28:12.326Z</time></trkpt><trkpt lat="44.2736009" lon="9.3965397"><ele>5.2</ele><time>2026-04-21T14:28:13.322Z</time></trkpt><trkpt lat="44.2735207" lon="9.3966041"><ele>5.0</ele><time>2026-04-21T14:28:14.328Z</time></trkpt><trkpt lat="44.2734544" lon="9.3966584"><ele>5.0</ele><time>2026-04-21T14:28:15.326Z</time></trkpt><trkpt lat="44.2733654" lon="9.3967302"><ele>5.0</ele><time>2026-04-21T14:28:17.323Z</time></trkpt><trkpt lat="44.273306" lon="9.3967676"><ele>5.0</ele><time>2026-04-21T14:28:21.327Z</time></trkpt><trkpt lat="44.273228" lon="9.3967988"><ele>5.0</ele><time>2026-04-21T14:28:25.327Z</time></trkpt><trkpt lat="44.2731171" lon="9.3968392"><ele>5.0</ele><time>2026-04-21T14:28:28.327Z</time></trkpt><trkpt lat="44.2730538" lon="9.3968812"><ele>5.0</ele><time>2026-04-21T14:28:29.33Z</time></trkpt><trkpt lat="44.2729877" lon="9.3969639"><ele>5.0</ele><time>2026-04-21T14:28:30.331Z</time></trkpt><trkpt lat="44.2729154" lon="9.3970702"><ele>5.0</ele><time>2026-04-21T14:28:31.318Z</time></trkpt><trkpt lat="44.2728442" lon="9.3971791"><ele>5.0</ele><time>2026-04-21T14:28:32.323Z</time></trkpt><trkpt lat="44.2727863" lon="9.3972964"><ele>5.0</ele><time>2026-04-21T14:28:33.323Z</time></trkpt><trkpt lat="44.2727311" lon="9.397418"><ele>5.0</ele><time>2026-04-21T14:28:34.304Z</time></trkpt><trkpt lat="44.2726757" lon="9.3975445"><ele>5.2</ele><time>2026-04-21T14:28:35.319Z</time></trkpt><trkpt lat="44.2726216" lon="9.3976693"><ele>5.4</ele><time>2026-04-21T14:28:36.326Z</time></trkpt><trkpt lat="44.2725715" lon="9.397796"><ele>5.6</ele><time>2026-04-21T14:28:37.32Z</time></trkpt><trkpt lat="44.2725239" lon="9.3979173"><ele>5.8</ele><time>2026-04-21T14:28:38.324Z</time></trkpt><trkpt lat="44.2724816" lon="9.3980309"><ele>6.0</ele><time>2026-04-21T14:28:39.327Z</time></trkpt><trkpt lat="44.2724514" lon="9.3981375"><ele>6.0</ele><time>2026-04-21T14:28:40.327Z</time></trkpt><trkpt lat="44.2724216" lon="9.3982382"><ele>6.0</ele><time>2026-04-21T14:28:41.329Z</time></trkpt><trkpt lat="44.2723917" lon="9.3983227"><ele>6.0</ele><time>2026-04-21T14:28:42.327Z</time></trkpt><trkpt lat="44.272338" lon="9.3984603"><ele>6.0</ele><time>2026-04-21T14:28:44.329Z</time></trkpt><trkpt lat="44.2723047" lon="9.398535"><ele>6.0</ele><time>2026-04-21T14:28:45.324Z</time></trkpt><trkpt lat="44.2722729" lon="9.3986261"><ele>6.0</ele><time>2026-04-21T14:28:46.329Z</time></trkpt><trkpt lat="44.2722405" lon="9.3987375"><ele>6.833333333333333</ele><time>2026-04-21T14:28:47.329Z</time></trkpt><trkpt lat="44.2722027" lon="9.3988538"><ele>7.666666666666666</ele><time>2026-04-21T14:28:48.326Z</time></trkpt><trkpt lat="44.2721677" lon="9.398969"><ele>8.5</ele><time>2026-04-21T14:28:49.309Z</time></trkpt><trkpt lat="44.2721284" lon="9.3990773"><ele>9.333333333333332</ele><time>2026-04-21T14:28:50.329Z</time></trkpt><trkpt lat="44.2721015" lon="9.3991753"><ele>10.166666666666666</ele><time>2026-04-21T14:28:51.324Z</time></trkpt><trkpt lat="44.2720736" lon="9.3992753"><ele>11.0</ele><time>2026-04-21T14:28:52.331Z</time></trkpt><trkpt lat="44.2720391" lon="9.3993854"><ele>11.0</ele><time>2026-04-21T14:28:53.33Z</time></trkpt><trkpt lat="44.2720202" lon="9.3995058"><ele>11.0</ele><time>2026-04-21T14:28:54.327Z</time></trkpt><trkpt lat="44.2720018" lon="9.3996285"><ele>11.0</ele><time>2026-04-21T14:28:55.327Z</time></trkpt><trkpt lat="44.2719817" lon="9.3997565"><ele>11.0</ele><time>2026-04-21T14:28:56.329Z</time></trkpt><trkpt lat="44.2719585" lon="9.3998877"><ele>11.0</ele><time>2026-04-21T14:28:57.328Z</time></trkpt><trkpt lat="44.2719333" lon="9.4000286"><ele>10.200000000000001</ele><time>2026-04-21T14:28:58.324Z</time></trkpt><trkpt lat="44.2719108" lon="9.4001787"><ele>9.4</ele><time>2026-04-21T14:28:59.308Z</time></trkpt><trkpt lat="44.2718899" lon="9.400332"><ele>8.6</ele><time>2026-04-21T14:29:00.325Z</time></trkpt><trkpt lat="44.27187" lon="9.4004869"><ele>7.8</ele><time>2026-04-21T14:29:01.326Z</time></trkpt><trkpt lat="44.271845" lon="9.4006408"><ele>7.0</ele><time>2026-04-21T14:29:02.327Z</time></trkpt><trkpt lat="44.2718239" lon="9.4007976"><ele>6.8</ele><time>2026-04-21T14:29:03.324Z</time></trkpt><trkpt lat="44.2717997" lon="9.4009506"><ele>6.6</ele><time>2026-04-21T14:29:04.328Z</time></trkpt><trkpt lat="44.2717719" lon="9.4011028"><ele>6.3999999999999995</ele><time>2026-04-21T14:29:05.324Z</time></trkpt><trkpt lat="44.2717496" lon="9.401245"><ele>6.199999999999999</ele><time>2026-04-21T14:29:06.327Z</time></trkpt><trkpt lat="44.2717313" lon="9.4013642"><ele>6.0</ele><time>2026-04-21T14:29:07.328Z</time></trkpt><trkpt lat="44.2717132" lon="9.4014922"><ele>6.0</ele><time>2026-04-21T14:29:09.327Z</time></trkpt><trkpt lat="44.2716925" lon="9.401625"><ele>6.0</ele><time>2026-04-21T14:29:14.33Z</time></trkpt><trkpt lat="44.2716617" lon="9.4018146"><ele>6.0</ele><time>2026-04-21T14:29:16.319Z</time></trkpt><trkpt lat="44.2716474" lon="9.4019395"><ele>6.0</ele><time>2026-04-21T14:29:17.33Z</time></trkpt><trkpt lat="44.2716295" lon="9.4020768"><ele>6.0</ele><time>2026-04-21T14:29:18.331Z</time></trkpt><trkpt lat="44.2716087" lon="9.4022165"><ele>6.166666666666667</ele><time>2026-04-21T14:29:19.327Z</time></trkpt><trkpt lat="44.2715833" lon="9.4023426"><ele>6.333333333333334</ele><time>2026-04-21T14:29:20.314Z</time></trkpt><trkpt lat="44.2715696" lon="9.4024599"><ele>6.5</ele><time>2026-04-21T14:29:21.328Z</time></trkpt><trkpt lat="44.2715574" lon="9.4025561"><ele>6.666666666666667</ele><time>2026-04-21T14:29:22.328Z</time></trkpt><trkpt lat="44.2715418" lon="9.4027169"><ele>6.833333333333334</ele><time>2026-04-21T14:29:24.323Z</time></trkpt><trkpt lat="44.2715312" lon="9.4028156"><ele>7.0</ele><time>2026-04-21T14:29:25.322Z</time></trkpt><trkpt lat="44.2715159" lon="9.4029197"><ele>6.500000000000001</ele><time>2026-04-21T14:29:26.33Z</time></trkpt><trkpt lat="44.2714978" lon="9.4030271"><ele>6.0</ele><time>2026-04-21T14:29:27.329Z</time></trkpt><trkpt lat="44.2714796" lon="9.4031277"><ele>5.5</ele><time>2026-04-21T14:29:28.325Z</time></trkpt><trkpt lat="44.2714666" lon="9.4032194"><ele>5.0</ele><time>2026-04-21T14:29:29.327Z</time></trkpt><trkpt lat="44.2714855" lon="9.4033685"><ele>4.5</ele><time>2026-04-21T14:29:31.33Z</time></trkpt><trkpt lat="44.2715693" lon="9.4034647"><ele>4.0</ele><time>2026-04-21T14:29:33.323Z</time></trkpt><trkpt lat="44.2716335" lon="9.4034924"><ele>4.0</ele><time>2026-04-21T14:29:35.326Z</time></trkpt><trkpt lat="44.2717039" lon="9.4035168"><ele>4.0</ele><time>2026-04-21T14:29:37.33Z</time></trkpt><trkpt lat="44.2717677" lon="9.4035555"><ele>4.0</ele><time>2026-04-21T14:29:38.333Z</time></trkpt><trkpt lat="44.271862" lon="9.4035954"><ele>4.0</ele><time>2026-04-21T14:29:39.327Z</time></trkpt><trkpt lat="44.27199" lon="9.4036399"><ele>4.0</ele><time>2026-04-21T14:29:40.33Z</time></trkpt><trkpt lat="44.2721478" lon="9.4036606"><ele>4.25</ele><time>2026-04-21T14:29:41.318Z</time></trkpt><trkpt lat="44.2723142" lon="9.4036355"><ele>4.5</ele><time>2026-04-21T14:29:42.332Z</time></trkpt><trkpt lat="44.2724572" lon="9.4035881"><ele>4.75</ele><time>2026-04-21T14:29:43.32Z</time></trkpt><trkpt lat="44.272576" lon="9.4035617"><ele>5.0</ele><time>2026-04-21T14:29:44.322Z</time></trkpt><trkpt lat="44.272679" lon="9.4035696"><ele>5.0</ele><time>2026-04-21T14:29:45.322Z</time></trkpt><trkpt lat="44.2727694" lon="9.4036309"><ele>5.0</ele><time>2026-04-21T14:29:46.325Z</time></trkpt><trkpt lat="44.2728359" lon="9.4037249"><ele>5.0</ele><time>2026-04-21T14:29:47.329Z</time></trkpt><trkpt lat="44.2728814" lon="9.4038679"><ele>5.0</ele><time>2026-04-21T14:29:48.325Z</time></trkpt><trkpt lat="44.272912" lon="9.4040368"><ele>5.0</ele><time>2026-04-21T14:29:49.332Z</time></trkpt><trkpt lat="44.2729269" lon="9.4041972"><ele>5.0</ele><time>2026-04-21T14:29:50.327Z</time></trkpt><trkpt lat="44.2729281" lon="9.4043305"><ele>5.0</ele><time>2026-04-21T14:29:51.317Z</time></trkpt><trkpt lat="44.2729163" lon="9.4044496"><ele>5.0</ele><time>2026-04-21T14:29:52.318Z</time></trkpt><trkpt lat="44.2729012" lon="9.4045912"><ele>5.0</ele><time>2026-04-21T14:29:53.326Z</time></trkpt><trkpt lat="44.2728739" lon="9.4047372"><ele>5.0</ele><time>2026-04-21T14:29:54.326Z</time></trkpt><trkpt lat="44.2728347" lon="9.4048809"><ele>5.0</ele><time>2026-04-21T14:29:55.326Z</time></trkpt><trkpt lat="44.2727883" lon="9.4050377"><ele>5.0</ele><time>2026-04-21T14:29:56.327Z</time></trkpt><trkpt lat="44.2727324" lon="9.4051649"><ele>5.0</ele><time>2026-04-21T14:29:57.317Z</time></trkpt><trkpt lat="44.2726698" lon="9.4052958"><ele>5.0</ele><time>2026-04-21T14:29:58.327Z</time></trkpt><trkpt lat="44.2726002" lon="9.4054465"><ele>6.333333333333334</ele><time>2026-04-21T14:29:59.327Z</time></trkpt><trkpt lat="44.2725221" lon="9.4056154"><ele>7.666666666666667</ele><time>2026-04-21T14:30:00.334Z</time></trkpt><trkpt lat="44.2724395" lon="9.4057977"><ele>9.0</ele><time>2026-04-21T14:30:01.32Z</time></trkpt><trkpt lat="44.272351" lon="9.4059836"><ele>9.0</ele><time>2026-04-21T14:30:02.323Z</time></trkpt><trkpt lat="44.2722651" lon="9.4061947"><ele>9.0</ele><time>2026-04-21T14:30:03.33Z</time></trkpt><trkpt lat="44.2721717" lon="9.40639"><ele>9.0</ele><time>2026-04-21T14:30:04.326Z</time></trkpt><trkpt lat="44.2720779" lon="9.4065955"><ele>9.0</ele><time>2026-04-21T14:30:05.325Z</time></trkpt><trkpt lat="44.2719861" lon="9.4068047"><ele>9.0</ele><time>2026-04-21T14:30:06.327Z</time></trkpt><trkpt lat="44.2719007" lon="9.4070039"><ele>9.0</ele><time>2026-04-21T14:30:07.321Z</time></trkpt><trkpt lat="44.2718199" lon="9.4071951"><ele>9.0</ele><time>2026-04-21T14:30:08.323Z</time></trkpt><trkpt lat="44.2717389" lon="9.4073733"><ele>9.0</ele><time>2026-04-21T14:30:09.329Z</time></trkpt><trkpt lat="44.2716573" lon="9.4075425"><ele>9.0</ele><time>2026-04-21T14:30:10.328Z</time></trkpt><trkpt lat="44.2715802" lon="9.4077148"><ele>9.0</ele><time>2026-04-21T14:30:11.317Z</time></trkpt><trkpt lat="44.271502" lon="9.4078822"><ele>8.25</ele><time>2026-04-21T14:30:12.328Z</time></trkpt><trkpt lat="44.2714154" lon="9.4080332"><ele>7.5</ele><time>2026-04-21T14:30:13.328Z</time></trkpt><trkpt lat="44.271321" lon="9.4081677"><ele>6.75</ele><time>2026-04-21T14:30:14.328Z</time></trkpt><trkpt lat="44.2712304" lon="9.4082914"><ele>6.0</ele><time>2026-04-21T14:30:15.319Z</time></trkpt><trkpt lat="44.2711487" lon="9.4083977"><ele>6.0</ele><time>2026-04-21T14:30:16.329Z</time></trkpt><trkpt lat="44.2710789" lon="9.4084907"><ele>6.0</ele><time>2026-04-21T14:30:17.327Z</time></trkpt><trkpt lat="44.2710163" lon="9.408571"><ele>6.0</ele><time>2026-04-21T14:30:18.324Z</time></trkpt><trkpt lat="44.2709663" lon="9.4086257"><ele>6.0</ele><time>2026-04-21T14:30:19.323Z</time></trkpt><trkpt lat="44.2709262" lon="9.4086944"><ele>6.0</ele><time>2026-04-21T14:30:24.322Z</time></trkpt><trkpt lat="44.2708538" lon="9.4087481"><ele>6.0</ele><time>2026-04-21T14:30:26.314Z</time></trkpt><trkpt lat="44.2707441" lon="9.4087707"><ele>5.666666666666667</ele><time>2026-04-21T14:30:28.329Z</time></trkpt><trkpt lat="44.2706343" lon="9.4088464"><ele>5.333333333333333</ele><time>2026-04-21T14:30:30.327Z</time></trkpt><trkpt lat="44.2705952" lon="9.4089231"><ele>5.0</ele><time>2026-04-21T14:30:31.33Z</time></trkpt><trkpt lat="44.2705756" lon="9.4090246"><ele>4.666666666666666</ele><time>2026-04-21T14:30:32.317Z</time></trkpt><trkpt lat="44.2705732" lon="9.4091379"><ele>4.333333333333333</ele><time>2026-04-21T14:30:33.319Z</time></trkpt><trkpt lat="44.2705705" lon="9.4092328"><ele>4.0</ele><time>2026-04-21T14:30:34.324Z</time></trkpt><trkpt lat="44.2705501" lon="9.4094017"><ele>6.333333333333333</ele><time>2026-04-21T14:30:36.323Z</time></trkpt><trkpt lat="44.2705407" lon="9.409491"><ele>8.666666666666666</ele><time>2026-04-21T14:30:37.326Z</time></trkpt><trkpt lat="44.2705306" lon="9.4095874"><ele>11.0</ele><time>2026-04-21T14:30:38.326Z</time></trkpt><trkpt lat="44.2705088" lon="9.4097236"><ele>13.333333333333334</ele><time>2026-04-21T14:30:40.329Z</time></trkpt><trkpt lat="44.2705106" lon="9.4098326"><ele>15.666666666666666</ele><time>2026-04-21T14:30:44.327Z</time></trkpt><trkpt lat="44.2704805" lon="9.4100141"><ele>18.0</ele><time>2026-04-21T14:30:46.31Z</time></trkpt><trkpt lat="44.2704646" lon="9.4101293"><ele>18.6</ele><time>2026-04-21T14:30:48.311Z</time></trkpt><trkpt lat="44.2704416" lon="9.4102672"><ele>19.200000000000003</ele><time>2026-04-21T14:31:03.313Z</time></trkpt><trkpt lat="44.270421" lon="9.4104218"><ele>19.8</ele><time>2026-04-21T14:31:05.311Z</time></trkpt><trkpt lat="44.2704074" lon="9.4105099"><ele>20.400000000000002</ele><time>2026-04-21T14:31:06.306Z</time></trkpt><trkpt lat="44.2703869" lon="9.4106171"><ele>21.0</ele><time>2026-04-21T14:31:07.312Z</time></trkpt><trkpt lat="44.2703633" lon="9.410741"><ele>19.2</ele><time>2026-04-21T14:31:08.311Z</time></trkpt><trkpt lat="44.2703353" lon="9.4108715"><ele>17.400000000000002</ele><time>2026-04-21T14:31:09.307Z</time></trkpt><trkpt lat="44.2702973" lon="9.4110015"><ele>15.6</ele><time>2026-04-21T14:31:10.312Z</time></trkpt><trkpt lat="44.2702464" lon="9.4111332"><ele>13.8</ele><time>2026-04-21T14:31:11.306Z</time></trkpt><trkpt lat="44.2701862" lon="9.4112768"><ele>12.0</ele><time>2026-04-21T14:31:12.307Z</time></trkpt><trkpt lat="44.2701321" lon="9.4114263"><ele>10.799999999999999</ele><time>2026-04-21T14:31:13.314Z</time></trkpt><trkpt lat="44.2700857" lon="9.4115743"><ele>9.6</ele><time>2026-04-21T14:31:14.311Z</time></trkpt><trkpt lat="44.2700463" lon="9.4117161"><ele>8.399999999999999</ele><time>2026-04-21T14:31:15.311Z</time></trkpt><trkpt lat="44.2700091" lon="9.4118528"><ele>7.199999999999999</ele><time>2026-04-21T14:31:16.31Z</time></trkpt><trkpt lat="44.2699741" lon="9.4119845"><ele>6.0</ele><time>2026-04-21T14:31:17.311Z</time></trkpt><trkpt lat="44.2699367" lon="9.4121098"><ele>6.333333333333333</ele><time>2026-04-21T14:31:18.308Z</time></trkpt><trkpt lat="44.2699033" lon="9.4122284"><ele>6.666666666666666</ele><time>2026-04-21T14:31:19.313Z</time></trkpt><trkpt lat="44.2698691" lon="9.4123296"><ele>7.0</ele><time>2026-04-21T14:31:20.309Z</time></trkpt><trkpt lat="44.2698441" lon="9.4124107"><ele>7.333333333333333</ele><time>2026-04-21T14:31:21.311Z</time></trkpt><trkpt lat="44.2698143" lon="9.4125106"><ele>7.666666666666666</ele><time>2026-04-21T14:31:23.315Z</time></trkpt><trkpt lat="44.2697828" lon="9.4126248"><ele>8.0</ele><time>2026-04-21T14:31:55.326Z</time></trkpt><trkpt lat="44.2697331" lon="9.4127671"><ele>8.333333333333332</ele><time>2026-04-21T14:31:57.325Z</time></trkpt><trkpt lat="44.2697076" lon="9.4128493"><ele>8.666666666666666</ele><time>2026-04-21T14:31:58.328Z</time></trkpt><trkpt lat="44.269679" lon="9.4129466"><ele>9.0</ele><time>2026-04-21T14:31:59.329Z</time></trkpt><trkpt lat="44.2696463" lon="9.4130577"><ele>9.333333333333334</ele><time>2026-04-21T14:32:00.322Z</time></trkpt><trkpt lat="44.2696101" lon="9.4131722"><ele>9.666666666666668</ele><time>2026-04-21T14:32:01.327Z</time></trkpt><trkpt lat="44.2695754" lon="9.4132909"><ele>10.0</ele><time>2026-04-21T14:32:02.326Z</time></trkpt><trkpt lat="44.2695375" lon="9.4134195"><ele>10.0</ele><time>2026-04-21T14:32:03.329Z</time></trkpt><trkpt lat="44.2694911" lon="9.4135534"><ele>10.0</ele><time>2026-04-21T14:32:04.323Z</time></trkpt><trkpt lat="44.2694377" lon="9.4136937"><ele>10.0</ele><time>2026-04-21T14:32:05.325Z</time></trkpt><trkpt lat="44.2693824" lon="9.4138386"><ele>10.0</ele><time>2026-04-21T14:32:06.325Z</time></trkpt><trkpt lat="44.2693264" lon="9.4139862"><ele>9.666666666666668</ele><time>2026-04-21T14:32:07.32Z</time></trkpt><trkpt lat="44.2692653" lon="9.4141483"><ele>9.333333333333334</ele><time>2026-04-21T14:32:08.329Z</time></trkpt><trkpt lat="44.2691982" lon="9.4143361"><ele>9.0</ele><time>2026-04-21T14:32:09.326Z</time></trkpt><trkpt lat="44.2691217" lon="9.4145493"><ele>8.666666666666666</ele><time>2026-04-21T14:32:10.33Z</time></trkpt><trkpt lat="44.2690347" lon="9.4147707"><ele>8.333333333333332</ele><time>2026-04-21T14:32:11.325Z</time></trkpt><trkpt lat="44.2689542" lon="9.4149801"><ele>8.0</ele><time>2026-04-21T14:32:12.314Z</time></trkpt><trkpt lat="44.268882" lon="9.4151606"><ele>8.0</ele><time>2026-04-21T14:32:13.315Z</time></trkpt><trkpt lat="44.2688331" lon="9.4152992"><ele>8.0</ele><time>2026-04-21T14:32:14.308Z</time></trkpt><trkpt lat="44.2688054" lon="9.4154176"><ele>8.0</ele><time>2026-04-21T14:32:15.313Z</time></trkpt><trkpt lat="44.2687961" lon="9.4155213"><ele>8.0</ele><time>2026-04-21T14:32:16.313Z</time></trkpt><trkpt lat="44.2687939" lon="9.4156133"><ele>8.0</ele><time>2026-04-21T14:32:17.312Z</time></trkpt><trkpt lat="44.2688118" lon="9.4157709"><ele>7.999999999999999</ele><time>2026-04-21T14:32:19.309Z</time></trkpt><trkpt lat="44.2688121" lon="9.4158973"><ele>8.0</ele><time>2026-04-21T14:32:21.313Z</time></trkpt><trkpt lat="44.2688193" lon="9.4160085"><ele>8.0</ele><time>2026-04-21T14:32:23.316Z</time></trkpt><trkpt lat="44.2688828" lon="9.416125"><ele>8.0</ele><time>2026-04-21T14:32:25.309Z</time></trkpt><trkpt lat="44.2689439" lon="9.4161858"><ele>7.999999999999999</ele><time>2026-04-21T14:32:26.313Z</time></trkpt><trkpt lat="44.2690183" lon="9.4162448"><ele>8.0</ele><time>2026-04-21T14:32:27.313Z</time></trkpt><trkpt lat="44.2690934" lon="9.4163021"><ele>8.166666666666666</ele><time>2026-04-21T14:32:28.314Z</time></trkpt><trkpt lat="44.2691682" lon="9.4163584"><ele>8.333333333333332</ele><time>2026-04-21T14:32:29.31Z</time></trkpt><trkpt lat="44.269244" lon="9.4164172"><ele>8.5</ele><time>2026-04-21T14:32:30.309Z</time></trkpt><trkpt lat="44.2693243" lon="9.4164766"><ele>8.666666666666666</ele><time>2026-04-21T14:32:31.311Z</time></trkpt><trkpt lat="44.2694047" lon="9.4165295"><ele>8.833333333333334</ele><time>2026-04-21T14:32:32.309Z</time></trkpt><trkpt lat="44.2694847" lon="9.4165814"><ele>9.0</ele><time>2026-04-21T14:32:33.308Z</time></trkpt><trkpt lat="44.2695571" lon="9.4166344"><ele>9.0</ele><time>2026-04-21T14:32:34.309Z</time></trkpt><trkpt lat="44.2696248" lon="9.4166856"><ele>9.0</ele><time>2026-04-21T14:32:35.304Z</time></trkpt><trkpt lat="44.269692" lon="9.4167401"><ele>9.0</ele><time>2026-04-21T14:32:36.31Z</time></trkpt><trkpt lat="44.2697598" lon="9.4167978"><ele>9.0</ele><time>2026-04-21T14:32:37.307Z</time></trkpt><trkpt lat="44.2698188" lon="9.4168664"><ele>9.0</ele><time>2026-04-21T14:32:38.308Z</time></trkpt><trkpt lat="44.2698665" lon="9.4169478"><ele>9.0</ele><time>2026-04-21T14:32:39.31Z</time></trkpt><trkpt lat="44.2699038" lon="9.4170389"><ele>9.0</ele><time>2026-04-21T14:32:40.305Z</time></trkpt><trkpt lat="44.2699284" lon="9.4171307"><ele>9.0</ele><time>2026-04-21T14:32:41.311Z</time></trkpt><trkpt lat="44.2699419" lon="9.4172206"><ele>9.0</ele><time>2026-04-21T14:32:42.312Z</time></trkpt><trkpt lat="44.2699441" lon="9.4173644"><ele>9.0</ele><time>2026-04-21T14:32:44.309Z</time></trkpt><trkpt lat="44.2699232" lon="9.4174838"><ele>9.0</ele><time>2026-04-21T14:32:47.312Z</time></trkpt><trkpt lat="44.2698772" lon="9.4176648"><ele>9.0</ele><time>2026-04-21T14:32:49.309Z</time></trkpt><trkpt lat="44.2698299" lon="9.417831"><ele>9.0</ele><time>2026-04-21T14:32:50.305Z</time></trkpt><trkpt lat="44.2697684" lon="9.4180304"><ele>9.0</ele><time>2026-04-21T14:32:51.312Z</time></trkpt><trkpt lat="44.2697107" lon="9.4182267"><ele>9.0</ele><time>2026-04-21T14:32:52.316Z</time></trkpt><trkpt lat="44.269651" lon="9.4184098"><ele>9.5</ele><time>2026-04-21T14:32:53.317Z</time></trkpt><trkpt lat="44.2695935" lon="9.4185812"><ele>10.0</ele><time>2026-04-21T14:32:54.314Z</time></trkpt><trkpt lat="44.2695402" lon="9.4187459"><ele>10.5</ele><time>2026-04-21T14:32:55.311Z</time></trkpt><trkpt lat="44.2694845" lon="9.4189096"><ele>11.0</ele><time>2026-04-21T14:32:56.309Z</time></trkpt><trkpt lat="44.2694287" lon="9.4190716"><ele>11.0</ele><time>2026-04-21T14:32:57.309Z</time></trkpt><trkpt lat="44.2693716" lon="9.4192355"><ele>11.0</ele><time>2026-04-21T14:32:58.311Z</time></trkpt><trkpt lat="44.2693136" lon="9.4194"><ele>11.0</ele><time>2026-04-21T14:32:59.31Z</time></trkpt><trkpt lat="44.2692549" lon="9.4195677"><ele>11.0</ele><time>2026-04-21T14:33:00.31Z</time></trkpt><trkpt lat="44.2691957" lon="9.4197349"><ele>11.0</ele><time>2026-04-21T14:33:01.311Z</time></trkpt><trkpt lat="44.2691363" lon="9.4199014"><ele>11.0</ele><time>2026-04-21T14:33:02.309Z</time></trkpt><trkpt lat="44.2690798" lon="9.420069"><ele>11.0</ele><time>2026-04-21T14:33:03.316Z</time></trkpt><trkpt lat="44.2690223" lon="9.4202379"><ele>11.0</ele><time>2026-04-21T14:33:04.311Z</time></trkpt><trkpt lat="44.2689648" lon="9.4204068"><ele>11.0</ele><time>2026-04-21T14:33:05.312Z</time></trkpt><trkpt lat="44.2689102" lon="9.4205811"><ele>11.0</ele><time>2026-04-21T14:33:06.31Z</time></trkpt><trkpt lat="44.2688519" lon="9.420756"><ele>11.0</ele><time>2026-04-21T14:33:07.311Z</time></trkpt><trkpt lat="44.268791" lon="9.4209276"><ele>11.0</ele><time>2026-04-21T14:33:08.31Z</time></trkpt><trkpt lat="44.2687309" lon="9.4210925"><ele>11.0</ele><time>2026-04-21T14:33:09.312Z</time></trkpt><trkpt lat="44.2686767" lon="9.4212529"><ele>11.0</ele><time>2026-04-21T14:33:10.309Z</time></trkpt><trkpt lat="44.2686244" lon="9.4214118"><ele>11.0</ele><time>2026-04-21T14:33:11.312Z</time></trkpt><trkpt lat="44.2685694" lon="9.421567"><ele>11.0</ele><time>2026-04-21T14:33:12.312Z</time></trkpt><trkpt lat="44.2685142" lon="9.421715"><ele>11.0</ele><time>2026-04-21T14:33:13.306Z</time></trkpt><trkpt lat="44.2684629" lon="9.4218606"><ele>11.0</ele><time>2026-04-21T14:33:14.314Z</time></trkpt><trkpt lat="44.2684141" lon="9.4220068"><ele>11.0</ele><time>2026-04-21T14:33:15.314Z</time></trkpt><trkpt lat="44.268364" lon="9.4221505"><ele>11.0</ele><time>2026-04-21T14:33:16.314Z</time></trkpt><trkpt lat="44.2683104" lon="9.4222883"><ele>11.0</ele><time>2026-04-21T14:33:17.313Z</time></trkpt><trkpt lat="44.2682561" lon="9.4224235"><ele>11.0</ele><time>2026-04-21T14:33:18.314Z</time></trkpt><trkpt lat="44.2681947" lon="9.4225569"><ele>11.0</ele><time>2026-04-21T14:33:19.313Z</time></trkpt><trkpt lat="44.2681282" lon="9.4226884"><ele>11.0</ele><time>2026-04-21T14:33:20.31Z</time></trkpt><trkpt lat="44.2680681" lon="9.4228244"><ele>10.75</ele><time>2026-04-21T14:33:21.309Z</time></trkpt><trkpt lat="44.2680011" lon="9.4229617"><ele>10.5</ele><time>2026-04-21T14:33:22.312Z</time></trkpt><trkpt lat="44.2679344" lon="9.4231071"><ele>10.25</ele><time>2026-04-21T14:33:23.315Z</time></trkpt><trkpt lat="44.2678664" lon="9.4232618"><ele>10.0</ele><time>2026-04-21T14:33:24.312Z</time></trkpt><trkpt lat="44.2677934" lon="9.4234165"><ele>10.5</ele><time>2026-04-21T14:33:25.313Z</time></trkpt><trkpt lat="44.2677164" lon="9.4235738"><ele>11.0</ele><time>2026-04-21T14:33:26.311Z</time></trkpt><trkpt lat="44.2676366" lon="9.4237323"><ele>11.5</ele><time>2026-04-21T14:33:27.313Z</time></trkpt><trkpt lat="44.2675616" lon="9.4238931"><ele>12.0</ele><time>2026-04-21T14:33:28.313Z</time></trkpt><trkpt lat="44.2674877" lon="9.4240557"><ele>12.25</ele><time>2026-04-21T14:33:29.314Z</time></trkpt><trkpt lat="44.267421" lon="9.4242184"><ele>12.5</ele><time>2026-04-21T14:33:30.314Z</time></trkpt><trkpt lat="44.2673555" lon="9.4243699"><ele>12.75</ele><time>2026-04-21T14:33:31.313Z</time></trkpt><trkpt lat="44.2672919" lon="9.4245114"><ele>13.0</ele><time>2026-04-21T14:33:32.311Z</time></trkpt><trkpt lat="44.2672329" lon="9.4246386"><ele>12.8</ele><time>2026-04-21T14:33:33.316Z</time></trkpt><trkpt lat="44.2671819" lon="9.4247546"><ele>12.600000000000001</ele><time>2026-04-21T14:33:34.309Z</time></trkpt><trkpt lat="44.2671414" lon="9.4248608"><ele>12.399999999999999</ele><time>2026-04-21T14:33:35.312Z</time></trkpt><trkpt lat="44.2671143" lon="9.4249585"><ele>12.2</ele><time>2026-04-21T14:33:36.311Z</time></trkpt><trkpt lat="44.2671257" lon="9.4251099"><ele>12.0</ele><time>2026-04-21T14:33:38.306Z</time></trkpt><trkpt lat="44.2672382" lon="9.4251898"><ele>12.2</ele><time>2026-04-21T14:33:40.309Z</time></trkpt><trkpt lat="44.2673348" lon="9.4252025"><ele>12.399999999999999</ele><time>2026-04-21T14:33:41.31Z</time></trkpt><trkpt lat="44.2674453" lon="9.4251973"><ele>12.600000000000001</ele><time>2026-04-21T14:33:42.31Z</time></trkpt><trkpt lat="44.2675642" lon="9.4251858"><ele>12.8</ele><time>2026-04-21T14:33:43.315Z</time></trkpt><trkpt lat="44.2676824" lon="9.4251767"><ele>13.0</ele><time>2026-04-21T14:33:44.313Z</time></trkpt><trkpt lat="44.2678064" lon="9.4251781"><ele>13.0</ele><time>2026-04-21T14:33:45.307Z</time></trkpt><trkpt lat="44.267934" lon="9.4251888"><ele>13.0</ele><time>2026-04-21T14:33:46.309Z</time></trkpt><trkpt lat="44.2680623" lon="9.425223"><ele>13.0</ele><time>2026-04-21T14:33:47.308Z</time></trkpt><trkpt lat="44.2681944" lon="9.4252708"><ele>13.0</ele><time>2026-04-21T14:33:48.308Z</time></trkpt><trkpt lat="44.2683255" lon="9.4253271"><ele>12.75</ele><time>2026-04-21T14:33:49.313Z</time></trkpt><trkpt lat="44.2684573" lon="9.4253741"><ele>12.5</ele><time>2026-04-21T14:33:50.309Z</time></trkpt><trkpt lat="44.2685823" lon="9.4254238"><ele>12.25</ele><time>2026-04-21T14:33:51.312Z</time></trkpt><trkpt lat="44.2686966" lon="9.4254776"><ele>12.0</ele><time>2026-04-21T14:33:52.308Z</time></trkpt><trkpt lat="44.2688045" lon="9.4255202"><ele>12.0</ele><time>2026-04-21T14:33:53.31Z</time></trkpt><trkpt lat="44.2689035" lon="9.4255641"><ele>12.0</ele><time>2026-04-21T14:33:54.31Z</time></trkpt><trkpt lat="44.2689937" lon="9.4256099"><ele>12.0</ele><time>2026-04-21T14:33:55.306Z</time></trkpt><trkpt lat="44.2690772" lon="9.4256555"><ele>12.0</ele><time>2026-04-21T14:33:56.308Z</time></trkpt><trkpt lat="44.2691526" lon="9.4256975"><ele>12.0</ele><time>2026-04-21T14:33:57.313Z</time></trkpt><trkpt lat="44.2692164" lon="9.4257381"><ele>12.0</ele><time>2026-04-21T14:33:58.31Z</time></trkpt><trkpt lat="44.2693142" lon="9.4257971"><ele>11.8</ele><time>2026-04-21T14:34:00.31Z</time></trkpt><trkpt lat="44.2693969" lon="9.4258346"><ele>11.6</ele><time>2026-04-21T14:34:04.307Z</time></trkpt><trkpt lat="44.2695124" lon="9.4258865"><ele>11.4</ele><time>2026-04-21T14:34:06.315Z</time></trkpt><trkpt lat="44.2695876" lon="9.4259202"><ele>11.200000000000001</ele><time>2026-04-21T14:34:07.312Z</time></trkpt><trkpt lat="44.2696703" lon="9.4259564"><ele>11.0</ele><time>2026-04-21T14:34:08.315Z</time></trkpt><trkpt lat="44.2697609" lon="9.4259839"><ele>11.166666666666666</ele><time>2026-04-21T14:34:09.312Z</time></trkpt><trkpt lat="44.2698591" lon="9.4260004"><ele>11.333333333333332</ele><time>2026-04-21T14:34:10.309Z</time></trkpt><trkpt lat="44.2699582" lon="9.4260108"><ele>11.5</ele><time>2026-04-21T14:34:11.311Z</time></trkpt><trkpt lat="44.270047" lon="9.4260225"><ele>11.666666666666666</ele><time>2026-04-21T14:34:12.314Z</time></trkpt><trkpt lat="44.2701268" lon="9.4260445"><ele>11.833333333333334</ele><time>2026-04-21T14:34:13.311Z</time></trkpt><trkpt lat="44.2701943" lon="9.4260804"><ele>12.0</ele><time>2026-04-21T14:34:14.307Z</time></trkpt><trkpt lat="44.2702494" lon="9.4261282"><ele>12.0</ele><time>2026-04-21T14:34:15.307Z</time></trkpt><trkpt lat="44.2703011" lon="9.426193"><ele>12.0</ele><time>2026-04-21T14:34:16.309Z</time></trkpt><trkpt lat="44.2703443" lon="9.4262667"><ele>12.0</ele><time>2026-04-21T14:34:17.31Z</time></trkpt><trkpt lat="44.2703375" lon="9.4264293"><ele>12.0</ele><time>2026-04-21T14:34:19.314Z</time></trkpt><trkpt lat="44.2703131" lon="9.4265516"><ele>12.0</ele><time>2026-04-21T14:34:21.312Z</time></trkpt><trkpt lat="44.2703022" lon="9.4267063"><ele>12.333333333333334</ele><time>2026-04-21T14:34:29.311Z</time></trkpt><trkpt lat="44.2702959" lon="9.4268691"><ele>12.666666666666668</ele><time>2026-04-21T14:34:31.308Z</time></trkpt><trkpt lat="44.2702785" lon="9.4269624"><ele>13.0</ele><time>2026-04-21T14:34:33.309Z</time></trkpt><trkpt lat="44.2702772" lon="9.4271031"><ele>13.333333333333334</ele><time>2026-04-21T14:34:36.312Z</time></trkpt><trkpt lat="44.2702861" lon="9.4272014"><ele>13.666666666666668</ele><time>2026-04-21T14:34:37.312Z</time></trkpt><trkpt lat="44.2702929" lon="9.4273264"><ele>14.0</ele><time>2026-04-21T14:34:38.313Z</time></trkpt><trkpt lat="44.2703056" lon="9.4274634"><ele>14.166666666666668</ele><time>2026-04-21T14:34:39.311Z</time></trkpt><trkpt lat="44.2703165" lon="9.4276103"><ele>14.333333333333334</ele><time>2026-04-21T14:34:40.309Z</time></trkpt><trkpt lat="44.2703239" lon="9.4277419"><ele>14.5</ele><time>2026-04-21T14:34:41.312Z</time></trkpt><trkpt lat="44.2703279" lon="9.4278565"><ele>14.666666666666668</ele><time>2026-04-21T14:34:42.312Z</time></trkpt><trkpt lat="44.2703344" lon="9.4279567"><ele>14.833333333333334</ele><time>2026-04-21T14:34:43.306Z</time></trkpt><trkpt lat="44.2703409" lon="9.4280452"><ele>15.0</ele><time>2026-04-21T14:34:44.31Z</time></trkpt><trkpt lat="44.2703497" lon="9.4281409"><ele>15.0</ele><time>2026-04-21T14:34:45.313Z</time></trkpt><trkpt lat="44.270357" lon="9.4282568"><ele>15.0</ele><time>2026-04-21T14:34:46.31Z</time></trkpt><trkpt lat="44.2703648" lon="9.4283966"><ele>15.0</ele><time>2026-04-21T14:34:47.31Z</time></trkpt><trkpt lat="44.2703781" lon="9.4285495"><ele>15.0</ele><time>2026-04-21T14:34:48.312Z</time></trkpt><trkpt lat="44.2703872" lon="9.4286998"><ele>15.0</ele><time>2026-04-21T14:34:49.313Z</time></trkpt><trkpt lat="44.2703955" lon="9.4288393"><ele>15.0</ele><time>2026-04-21T14:34:50.308Z</time></trkpt><trkpt lat="44.2703893" lon="9.4289643"><ele>15.0</ele><time>2026-04-21T14:34:51.317Z</time></trkpt><trkpt lat="44.2703865" lon="9.4290861"><ele>15.0</ele><time>2026-04-21T14:34:52.306Z</time></trkpt><trkpt lat="44.2703887" lon="9.4292176"><ele>15.0</ele><time>2026-04-21T14:34:53.313Z</time></trkpt><trkpt lat="44.2703924" lon="9.4293593"><ele>15.0</ele><time>2026-04-21T14:34:54.311Z</time></trkpt><trkpt lat="44.2703939" lon="9.4295044"><ele>14.4</ele><time>2026-04-21T14:34:55.311Z</time></trkpt><trkpt lat="44.270392" lon="9.429647"><ele>13.8</ele><time>2026-04-21T14:34:56.309Z</time></trkpt><trkpt lat="44.2703916" lon="9.4297925"><ele>13.2</ele><time>2026-04-21T14:34:57.306Z</time></trkpt><trkpt lat="44.27039" lon="9.4299379"><ele>12.6</ele><time>2026-04-21T14:34:58.308Z</time></trkpt><trkpt lat="44.2703961" lon="9.4300878"><ele>12.0</ele><time>2026-04-21T14:34:59.308Z</time></trkpt><trkpt lat="44.2704037" lon="9.4302349"><ele>12.0</ele><time>2026-04-21T14:35:00.31Z</time></trkpt><trkpt lat="44.2704136" lon="9.4303824"><ele>12.0</ele><time>2026-04-21T14:35:01.31Z</time></trkpt><trkpt lat="44.2704282" lon="9.430535"><ele>12.0</ele><time>2026-04-21T14:35:02.308Z</time></trkpt><trkpt lat="44.2704392" lon="9.4306939"><ele>12.0</ele><time>2026-04-21T14:35:03.315Z</time></trkpt><trkpt lat="44.2704499" lon="9.4308632"><ele>12.0</ele><time>2026-04-21T14:35:04.306Z</time></trkpt><trkpt lat="44.27046" lon="9.4310349"><ele>12.0</ele><time>2026-04-21T14:35:05.311Z</time></trkpt><trkpt lat="44.2704722" lon="9.4311956"><ele>12.0</ele><time>2026-04-21T14:35:06.308Z</time></trkpt><trkpt lat="44.2704798" lon="9.4313447"><ele>12.0</ele><time>2026-04-21T14:35:07.309Z</time></trkpt><trkpt lat="44.2704871" lon="9.4314813"><ele>12.0</ele><time>2026-04-21T14:35:08.315Z</time></trkpt><trkpt lat="44.2704945" lon="9.4316165"><ele>12.0</ele><time>2026-04-21T14:35:09.311Z</time></trkpt><trkpt lat="44.2704988" lon="9.4317473"><ele>12.0</ele><time>2026-04-21T14:35:10.313Z</time></trkpt><trkpt lat="44.2705019" lon="9.4318677"><ele>12.0</ele><time>2026-04-21T14:35:11.313Z</time></trkpt><trkpt lat="44.2705034" lon="9.431988"><ele>12.0</ele><time>2026-04-21T14:35:12.307Z</time></trkpt><trkpt lat="44.2705066" lon="9.4321125"><ele>12.0</ele><time>2026-04-21T14:35:13.318Z</time></trkpt><trkpt lat="44.2705148" lon="9.4322434"><ele>12.0</ele><time>2026-04-21T14:35:14.318Z</time></trkpt><trkpt lat="44.2705285" lon="9.4323738"><ele>12.0</ele><time>2026-04-21T14:35:15.315Z</time></trkpt><trkpt lat="44.2705413" lon="9.4325077"><ele>12.0</ele><time>2026-04-21T14:35:16.317Z</time></trkpt><trkpt lat="44.2705544" lon="9.4326451"><ele>12.0</ele><time>2026-04-21T14:35:17.317Z</time></trkpt><trkpt lat="44.2705636" lon="9.432783"><ele>12.0</ele><time>2026-04-21T14:35:18.316Z</time></trkpt><trkpt lat="44.2705717" lon="9.4329277"><ele>12.0</ele><time>2026-04-21T14:35:19.306Z</time></trkpt><trkpt lat="44.2705841" lon="9.4330779"><ele>12.2</ele><time>2026-04-21T14:35:20.314Z</time></trkpt><trkpt lat="44.2705983" lon="9.4332292"><ele>12.399999999999999</ele><time>2026-04-21T14:35:21.314Z</time></trkpt><trkpt lat="44.2706136" lon="9.4333825"><ele>12.600000000000001</ele><time>2026-04-21T14:35:22.315Z</time></trkpt><trkpt lat="44.270629" lon="9.4335344"><ele>12.8</ele><time>2026-04-21T14:35:23.316Z</time></trkpt><trkpt lat="44.2706511" lon="9.43369"><ele>13.0</ele><time>2026-04-21T14:35:24.311Z</time></trkpt><trkpt lat="44.2706728" lon="9.4338447"><ele>16.0</ele><time>2026-04-21T14:35:25.312Z</time></trkpt><trkpt lat="44.2706937" lon="9.4340015"><ele>19.0</ele><time>2026-04-21T14:35:26.311Z</time></trkpt><trkpt lat="44.2707121" lon="9.4341592"><ele>22.0</ele><time>2026-04-21T14:35:27.307Z</time></trkpt><trkpt lat="44.2707311" lon="9.4343187"><ele>25.0</ele><time>2026-04-21T14:35:28.308Z</time></trkpt><trkpt lat="44.2707479" lon="9.434478"><ele>25.0</ele><time>2026-04-21T14:35:29.314Z</time></trkpt><trkpt lat="44.2707724" lon="9.4346375"><ele>25.0</ele><time>2026-04-21T14:35:30.312Z</time></trkpt><trkpt lat="44.2708088" lon="9.4347913"><ele>25.0</ele><time>2026-04-21T14:35:31.31Z</time></trkpt><trkpt lat="44.2708649" lon="9.4349405"><ele>25.0</ele><time>2026-04-21T14:35:32.311Z</time></trkpt><trkpt lat="44.270935" lon="9.4350841"><ele>24.75</ele><time>2026-04-21T14:35:33.309Z</time></trkpt><trkpt lat="44.2710124" lon="9.4352241"><ele>24.5</ele><time>2026-04-21T14:35:34.311Z</time></trkpt><trkpt lat="44.2710902" lon="9.4353663"><ele>24.25</ele><time>2026-04-21T14:35:35.311Z</time></trkpt><trkpt lat="44.271167" lon="9.4355152"><ele>24.0</ele><time>2026-04-21T14:35:36.312Z</time></trkpt><trkpt lat="44.271242" lon="9.4356705"><ele>23.799999999999997</ele><time>2026-04-21T14:35:37.309Z</time></trkpt><trkpt lat="44.271313" lon="9.4358307"><ele>23.599999999999998</ele><time>2026-04-21T14:35:38.31Z</time></trkpt><trkpt lat="44.2713775" lon="9.4359857"><ele>23.4</ele><time>2026-04-21T14:35:39.314Z</time></trkpt><trkpt lat="44.2714237" lon="9.4361183"><ele>23.2</ele><time>2026-04-21T14:35:40.305Z</time></trkpt><trkpt lat="44.2714482" lon="9.436219"><ele>23.0</ele><time>2026-04-21T14:35:41.304Z</time></trkpt><trkpt lat="44.2714625" lon="9.4363549"><ele>23.0</ele><time>2026-04-21T14:35:43.298Z</time></trkpt><trkpt lat="44.2714653" lon="9.4365299"><ele>23.0</ele><time>2026-04-21T14:35:45.302Z</time></trkpt><trkpt lat="44.271465" lon="9.4366631"><ele>23.0</ele><time>2026-04-21T14:35:46.303Z</time></trkpt><trkpt lat="44.2714617" lon="9.4368003"><ele>23.0</ele><time>2026-04-21T14:35:47.302Z</time></trkpt><trkpt lat="44.2714568" lon="9.4369411"><ele>23.0</ele><time>2026-04-21T14:35:48.304Z</time></trkpt><trkpt lat="44.2714485" lon="9.4370803"><ele>23.4</ele><time>2026-04-21T14:35:49.303Z</time></trkpt><trkpt lat="44.2714535" lon="9.4372229"><ele>23.799999999999997</ele><time>2026-04-21T14:35:50.305Z</time></trkpt><trkpt lat="44.2714499" lon="9.4373655"><ele>24.2</ele><time>2026-04-21T14:35:51.302Z</time></trkpt><trkpt lat="44.2714471" lon="9.4375114"><ele>24.6</ele><time>2026-04-21T14:35:52.301Z</time></trkpt><trkpt lat="44.2714329" lon="9.437663"><ele>25.0</ele><time>2026-04-21T14:35:53.298Z</time></trkpt><trkpt lat="44.2714074" lon="9.4378183"><ele>23.75</ele><time>2026-04-21T14:35:54.302Z</time></trkpt><trkpt lat="44.2713708" lon="9.4379771"><ele>22.5</ele><time>2026-04-21T14:35:55.309Z</time></trkpt><trkpt lat="44.2713299" lon="9.4381404"><ele>21.25</ele><time>2026-04-21T14:35:56.311Z</time></trkpt><trkpt lat="44.2712923" lon="9.438308"><ele>20.0</ele><time>2026-04-21T14:35:57.306Z</time></trkpt><trkpt lat="44.2712551" lon="9.4384763"><ele>20.0</ele><time>2026-04-21T14:35:58.309Z</time></trkpt><trkpt lat="44.2712173" lon="9.4386497"><ele>20.0</ele><time>2026-04-21T14:35:59.311Z</time></trkpt><trkpt lat="44.2711797" lon="9.4388247"><ele>20.0</ele><time>2026-04-21T14:36:00.306Z</time></trkpt><trkpt lat="44.27114" lon="9.439002"><ele>20.0</ele><time>2026-04-21T14:36:01.306Z</time></trkpt><trkpt lat="44.2710936" lon="9.4391771"><ele>21.5</ele><time>2026-04-21T14:36:02.304Z</time></trkpt><trkpt lat="44.2710388" lon="9.4393429"><ele>23.0</ele><time>2026-04-21T14:36:03.305Z</time></trkpt><trkpt lat="44.2709696" lon="9.4394858"><ele>24.5</ele><time>2026-04-21T14:36:04.301Z</time></trkpt><trkpt lat="44.2708947" lon="9.4396073"><ele>26.0</ele><time>2026-04-21T14:36:05.308Z</time></trkpt><trkpt lat="44.2708162" lon="9.4397201"><ele>27.25</ele><time>2026-04-21T14:36:06.302Z</time></trkpt><trkpt lat="44.2707374" lon="9.4398304"><ele>28.5</ele><time>2026-04-21T14:36:07.303Z</time></trkpt><trkpt lat="44.2706582" lon="9.4399421"><ele>29.75</ele><time>2026-04-21T14:36:08.306Z</time></trkpt><trkpt lat="44.2705784" lon="9.4400592"><ele>31.0</ele><time>2026-04-21T14:36:09.301Z</time></trkpt><trkpt lat="44.2705033" lon="9.4401857"><ele>28.25</ele><time>2026-04-21T14:36:10.302Z</time></trkpt><trkpt lat="44.2704328" lon="9.4403197"><ele>25.5</ele><time>2026-04-21T14:36:11.298Z</time></trkpt><trkpt lat="44.270374" lon="9.4404612"><ele>22.75</ele><time>2026-04-21T14:36:12.304Z</time></trkpt><trkpt lat="44.2703392" lon="9.4406157"><ele>20.0</ele><time>2026-04-21T14:36:13.305Z</time></trkpt><trkpt lat="44.2703376" lon="9.4407787"><ele>20.0</ele><time>2026-04-21T14:36:14.295Z</time></trkpt><trkpt lat="44.2703725" lon="9.4409518"><ele>20.0</ele><time>2026-04-21T14:36:15.305Z</time></trkpt><trkpt lat="44.2704159" lon="9.4411205"><ele>20.0</ele><time>2026-04-21T14:36:16.304Z</time></trkpt><trkpt lat="44.2704549" lon="9.4412791"><ele>20.0</ele><time>2026-04-21T14:36:17.297Z</time></trkpt><trkpt lat="44.2704928" lon="9.4414313"><ele>19.5</ele><time>2026-04-21T14:36:18.302Z</time></trkpt><trkpt lat="44.2705381" lon="9.4415835"><ele>19.0</ele><time>2026-04-21T14:36:19.303Z</time></trkpt><trkpt lat="44.2705928" lon="9.4417302"><ele>18.5</ele><time>2026-04-21T14:36:20.303Z</time></trkpt><trkpt lat="44.2706566" lon="9.4418779"><ele>18.0</ele><time>2026-04-21T14:36:21.3Z</time></trkpt><trkpt lat="44.2707272" lon="9.4420232"><ele>20.0</ele><time>2026-04-21T14:36:22.302Z</time></trkpt><trkpt lat="44.2707881" lon="9.4421625"><ele>22.0</ele><time>2026-04-21T14:36:23.307Z</time></trkpt><trkpt lat="44.2708298" lon="9.4423039"><ele>24.0</ele><time>2026-04-21T14:36:24.304Z</time></trkpt><trkpt lat="44.2708486" lon="9.4424537"><ele>26.0</ele><time>2026-04-21T14:36:25.298Z</time></trkpt><trkpt lat="44.2708536" lon="9.4426147"><ele>26.0</ele><time>2026-04-21T14:36:26.297Z</time></trkpt><trkpt lat="44.2708505" lon="9.4427877"><ele>26.0</ele><time>2026-04-21T14:36:27.306Z</time></trkpt><trkpt lat="44.2708291" lon="9.4429546"><ele>26.0</ele><time>2026-04-21T14:36:28.307Z</time></trkpt><trkpt lat="44.2708086" lon="9.4431339"><ele>26.0</ele><time>2026-04-21T14:36:29.303Z</time></trkpt><trkpt lat="44.2707861" lon="9.4433106"><ele>26.5</ele><time>2026-04-21T14:36:30.302Z</time></trkpt><trkpt lat="44.2707718" lon="9.4434846"><ele>27.0</ele><time>2026-04-21T14:36:31.295Z</time></trkpt><trkpt lat="44.2707684" lon="9.4436565"><ele>27.5</ele><time>2026-04-21T14:36:32.303Z</time></trkpt><trkpt lat="44.2707823" lon="9.4438265"><ele>28.0</ele><time>2026-04-21T14:36:33.306Z</time></trkpt><trkpt lat="44.2708109" lon="9.4439971"><ele>28.0</ele><time>2026-04-21T14:36:34.303Z</time></trkpt><trkpt lat="44.2708458" lon="9.4441626"><ele>28.0</ele><time>2026-04-21T14:36:35.299Z</time></trkpt><trkpt lat="44.2708843" lon="9.4443278"><ele>28.0</ele><time>2026-04-21T14:36:36.303Z</time></trkpt><trkpt lat="44.2709314" lon="9.4444838"><ele>28.0</ele><time>2026-04-21T14:36:37.299Z</time></trkpt><trkpt lat="44.2709891" lon="9.4446337"><ele>27.25</ele><time>2026-04-21T14:36:38.307Z</time></trkpt><trkpt lat="44.2710564" lon="9.4447766"><ele>26.5</ele><time>2026-04-21T14:36:39.303Z</time></trkpt><trkpt lat="44.2711283" lon="9.4449179"><ele>25.75</ele><time>2026-04-21T14:36:40.307Z</time></trkpt><trkpt lat="44.2712119" lon="9.4450561"><ele>25.0</ele><time>2026-04-21T14:36:41.299Z</time></trkpt><trkpt lat="44.271301" lon="9.4451894"><ele>25.0</ele><time>2026-04-21T14:36:42.301Z</time></trkpt><trkpt lat="44.2713858" lon="9.4453191"><ele>25.0</ele><time>2026-04-21T14:36:43.3Z</time></trkpt><trkpt lat="44.2714644" lon="9.4454476"><ele>25.0</ele><time>2026-04-21T14:36:44.307Z</time></trkpt><trkpt lat="44.2715412" lon="9.4455837"><ele>25.0</ele><time>2026-04-21T14:36:45.3Z</time></trkpt><trkpt lat="44.2716188" lon="9.4457305"><ele>26.25</ele><time>2026-04-21T14:36:46.303Z</time></trkpt><trkpt lat="44.2716948" lon="9.4458696"><ele>27.5</ele><time>2026-04-21T14:36:47.305Z</time></trkpt><trkpt lat="44.2717876" lon="9.4459863"><ele>28.75</ele><time>2026-04-21T14:36:48.308Z</time></trkpt><trkpt lat="44.2718893" lon="9.4460828"><ele>30.0</ele><time>2026-04-21T14:36:49.311Z</time></trkpt><trkpt lat="44.2719821" lon="9.4461788"><ele>30.0</ele><time>2026-04-21T14:36:50.307Z</time></trkpt><trkpt lat="44.2720619" lon="9.4462912"><ele>30.0</ele><time>2026-04-21T14:36:51.306Z</time></trkpt><trkpt lat="44.2721107" lon="9.4464425"><ele>30.0</ele><time>2026-04-21T14:36:52.308Z</time></trkpt><trkpt lat="44.2721401" lon="9.4466256"><ele>30.0</ele><time>2026-04-21T14:36:53.303Z</time></trkpt><trkpt lat="44.2721659" lon="9.4468098"><ele>28.5</ele><time>2026-04-21T14:36:54.307Z</time></trkpt><trkpt lat="44.2721856" lon="9.4469937"><ele>27.0</ele><time>2026-04-21T14:36:55.31Z</time></trkpt><trkpt lat="44.2722052" lon="9.4471748"><ele>25.5</ele><time>2026-04-21T14:36:56.312Z</time></trkpt><trkpt lat="44.272227" lon="9.4473566"><ele>24.0</ele><time>2026-04-21T14:36:57.311Z</time></trkpt><trkpt lat="44.2722445" lon="9.4475296"><ele>23.5</ele><time>2026-04-21T14:36:58.312Z</time></trkpt><trkpt lat="44.2722642" lon="9.4476972"><ele>23.0</ele><time>2026-04-21T14:36:59.31Z</time></trkpt><trkpt lat="44.2722881" lon="9.4478571"><ele>22.5</ele><time>2026-04-21T14:37:00.307Z</time></trkpt><trkpt lat="44.2723151" lon="9.4480091"><ele>22.0</ele><time>2026-04-21T14:37:01.309Z</time></trkpt><trkpt lat="44.2723376" lon="9.4481591"><ele>22.5</ele><time>2026-04-21T14:37:02.311Z</time></trkpt><trkpt lat="44.2723596" lon="9.4482993"><ele>23.0</ele><time>2026-04-21T14:37:03.31Z</time></trkpt><trkpt lat="44.272384" lon="9.4484316"><ele>23.5</ele><time>2026-04-21T14:37:04.307Z</time></trkpt><trkpt lat="44.2724058" lon="9.4485553"><ele>24.0</ele><time>2026-04-21T14:37:05.31Z</time></trkpt><trkpt lat="44.2724203" lon="9.448654"><ele>24.500000000000004</ele><time>2026-04-21T14:37:06.308Z</time></trkpt><trkpt lat="44.2724366" lon="9.4487424"><ele>25.0</ele><time>2026-04-21T14:37:08.31Z</time></trkpt><trkpt lat="44.272445" lon="9.448847"><ele>25.000000000000004</ele><time>2026-04-21T14:37:20.313Z</time></trkpt><trkpt lat="44.2724533" lon="9.4490036"><ele>25.0</ele><time>2026-04-21T14:37:22.313Z</time></trkpt><trkpt lat="44.2724598" lon="9.4491001"><ele>25.0</ele><time>2026-04-21T14:37:23.311Z</time></trkpt><trkpt lat="44.2724674" lon="9.4492077"><ele>25.0</ele><time>2026-04-21T14:37:24.312Z</time></trkpt><trkpt lat="44.2724769" lon="9.4493249"><ele>25.000000000000004</ele><time>2026-04-21T14:37:25.312Z</time></trkpt><trkpt lat="44.2724896" lon="9.4494469"><ele>25.0</ele><time>2026-04-21T14:37:26.31Z</time></trkpt><trkpt lat="44.2725067" lon="9.4495702"><ele>25.0</ele><time>2026-04-21T14:37:27.312Z</time></trkpt><trkpt lat="44.2725306" lon="9.4496999"><ele>25.0</ele><time>2026-04-21T14:37:28.31Z</time></trkpt><trkpt lat="44.2725623" lon="9.4498291"><ele>25.0</ele><time>2026-04-21T14:37:29.314Z</time></trkpt><trkpt lat="44.272605" lon="9.4499598"><ele>25.0</ele><time>2026-04-21T14:37:30.317Z</time></trkpt><trkpt lat="44.2726552" lon="9.4500865"><ele>25.0</ele><time>2026-04-21T14:37:31.312Z</time></trkpt><trkpt lat="44.2727047" lon="9.4502094"><ele>25.0</ele><time>2026-04-21T14:37:32.31Z</time></trkpt><trkpt lat="44.2727517" lon="9.4503288"><ele>25.0</ele><time>2026-04-21T14:37:33.311Z</time></trkpt><trkpt lat="44.2727984" lon="9.4504407"><ele>25.0</ele><time>2026-04-21T14:37:34.312Z</time></trkpt><trkpt lat="44.2728442" lon="9.4505463"><ele>25.0</ele><time>2026-04-21T14:37:35.315Z</time></trkpt><trkpt lat="44.2728895" lon="9.4506489"><ele>25.0</ele><time>2026-04-21T14:37:36.316Z</time></trkpt><trkpt lat="44.2729315" lon="9.4507551"><ele>25.0</ele><time>2026-04-21T14:37:37.308Z</time></trkpt><trkpt lat="44.2729729" lon="9.4508641"><ele>25.0</ele><time>2026-04-21T14:37:38.314Z</time></trkpt><trkpt lat="44.2730142" lon="9.4509732"><ele>25.0</ele><time>2026-04-21T14:37:39.31Z</time></trkpt><trkpt lat="44.2730617" lon="9.4510855"><ele>25.0</ele><time>2026-04-21T14:37:40.304Z</time></trkpt><trkpt lat="44.2731116" lon="9.4511982"><ele>25.0</ele><time>2026-04-21T14:37:41.305Z</time></trkpt><trkpt lat="44.2731586" lon="9.4513121"><ele>26.2</ele><time>2026-04-21T14:37:42.309Z</time></trkpt><trkpt lat="44.2732008" lon="9.4514288"><ele>27.4</ele><time>2026-04-21T14:37:43.31Z</time></trkpt><trkpt lat="44.2732395" lon="9.4515452"><ele>28.6</ele><time>2026-04-21T14:37:44.313Z</time></trkpt><trkpt lat="44.2732762" lon="9.4516628"><ele>29.8</ele><time>2026-04-21T14:37:45.311Z</time></trkpt><trkpt lat="44.2733093" lon="9.4517833"><ele>31.0</ele><time>2026-04-21T14:37:46.308Z</time></trkpt><trkpt lat="44.2733428" lon="9.4519065"><ele>31.000000000000004</ele><time>2026-04-21T14:37:47.307Z</time></trkpt><trkpt lat="44.2733799" lon="9.4520332"><ele>31.0</ele><time>2026-04-21T14:37:48.308Z</time></trkpt><trkpt lat="44.2734155" lon="9.452153"><ele>31.0</ele><time>2026-04-21T14:37:49.312Z</time></trkpt><trkpt lat="44.2734589" lon="9.4522626"><ele>31.0</ele><time>2026-04-21T14:37:50.308Z</time></trkpt><trkpt lat="44.2735159" lon="9.4523546"><ele>31.000000000000004</ele><time>2026-04-21T14:37:51.305Z</time></trkpt><trkpt lat="44.2735804" lon="9.4524188"><ele>31.0</ele><time>2026-04-21T14:37:52.308Z</time></trkpt><trkpt lat="44.2736393" lon="9.4524584"><ele>30.500000000000004</ele><time>2026-04-21T14:37:53.309Z</time></trkpt><trkpt lat="44.2737269" lon="9.4524969"><ele>30.0</ele><time>2026-04-21T14:37:55.309Z</time></trkpt><trkpt lat="44.273786" lon="9.4525713"><ele>29.5</ele><time>2026-04-21T14:38:04.306Z</time></trkpt><trkpt lat="44.2738133" lon="9.4526524"><ele>29.0</ele><time>2026-04-21T14:38:05.311Z</time></trkpt><trkpt lat="44.2738414" lon="9.4527564"><ele>28.500000000000004</ele><time>2026-04-21T14:38:06.309Z</time></trkpt><trkpt lat="44.2738668" lon="9.4528655"><ele>28.0</ele><time>2026-04-21T14:38:07.308Z</time></trkpt><trkpt lat="44.2738897" lon="9.4529733"><ele>28.000000000000004</ele><time>2026-04-21T14:38:08.311Z</time></trkpt><trkpt lat="44.273925" lon="9.4530984"><ele>28.0</ele><time>2026-04-21T14:38:09.31Z</time></trkpt><trkpt lat="44.2739454" lon="9.4532003"><ele>28.0</ele><time>2026-04-21T14:38:10.309Z</time></trkpt><trkpt lat="44.2739627" lon="9.4533078"><ele>28.0</ele><time>2026-04-21T14:38:11.307Z</time></trkpt><trkpt lat="44.2739874" lon="9.4534219"><ele>28.000000000000004</ele><time>2026-04-21T14:38:12.309Z</time></trkpt><trkpt lat="44.2740306" lon="9.4535444"><ele>28.0</ele><time>2026-04-21T14:38:13.31Z</time></trkpt><trkpt lat="44.2740641" lon="9.453676"><ele>28.799999999999997</ele><time>2026-04-21T14:38:14.308Z</time></trkpt><trkpt lat="44.274097" lon="9.4538075"><ele>29.599999999999998</ele><time>2026-04-21T14:38:15.309Z</time></trkpt><trkpt lat="44.2741302" lon="9.4539276"><ele>30.400000000000002</ele><time>2026-04-21T14:38:16.309Z</time></trkpt><trkpt lat="44.2741676" lon="9.4540532"><ele>31.200000000000003</ele><time>2026-04-21T14:38:17.31Z</time></trkpt><trkpt lat="44.2742091" lon="9.4541765"><ele>32.0</ele><time>2026-04-21T14:38:18.31Z</time></trkpt><trkpt lat="44.2742625" lon="9.454301"><ele>32.0</ele><time>2026-04-21T14:38:19.307Z</time></trkpt><trkpt lat="44.2743218" lon="9.4544287"><ele>32.0</ele><time>2026-04-21T14:38:20.31Z</time></trkpt><trkpt lat="44.2743834" lon="9.4545505"><ele>32.0</ele><time>2026-04-21T14:38:21.31Z</time></trkpt><trkpt lat="44.2744485" lon="9.4546715"><ele>32.0</ele><time>2026-04-21T14:38:22.31Z</time></trkpt><trkpt lat="44.2745119" lon="9.4547952"><ele>32.0</ele><time>2026-04-21T14:38:23.308Z</time></trkpt><trkpt lat="44.2745764" lon="9.4549283"><ele>32.0</ele><time>2026-04-21T14:38:24.312Z</time></trkpt><trkpt lat="44.2746369" lon="9.4550721"><ele>32.0</ele><time>2026-04-21T14:38:25.307Z</time></trkpt><trkpt lat="44.2746907" lon="9.4552335"><ele>32.0</ele><time>2026-04-21T14:38:26.305Z</time></trkpt><trkpt lat="44.2747307" lon="9.4554057"><ele>32.0</ele><time>2026-04-21T14:38:27.309Z</time></trkpt><trkpt lat="44.2747582" lon="9.4555832"><ele>34.75</ele><time>2026-04-21T14:38:28.312Z</time></trkpt><trkpt lat="44.2747764" lon="9.4557579"><ele>37.5</ele><time>2026-04-21T14:38:29.31Z</time></trkpt><trkpt lat="44.2747857" lon="9.4559254"><ele>40.25</ele><time>2026-04-21T14:38:30.31Z</time></trkpt><trkpt lat="44.274793" lon="9.4560808"><ele>43.0</ele><time>2026-04-21T14:38:31.31Z</time></trkpt><trkpt lat="44.2747927" lon="9.4562232"><ele>42.4</ele><time>2026-04-21T14:38:32.314Z</time></trkpt><trkpt lat="44.2747913" lon="9.4563655"><ele>41.8</ele><time>2026-04-21T14:38:33.314Z</time></trkpt><trkpt lat="44.2747863" lon="9.4565131"><ele>41.2</ele><time>2026-04-21T14:38:34.314Z</time></trkpt><trkpt lat="44.2747819" lon="9.4566687"><ele>40.6</ele><time>2026-04-21T14:38:35.316Z</time></trkpt><trkpt lat="44.274783" lon="9.4568263"><ele>40.0</ele><time>2026-04-21T14:38:36.319Z</time></trkpt><trkpt lat="44.274791" lon="9.4569778"><ele>40.0</ele><time>2026-04-21T14:38:37.313Z</time></trkpt><trkpt lat="44.2748015" lon="9.4571176"><ele>40.0</ele><time>2026-04-21T14:38:38.317Z</time></trkpt><trkpt lat="44.2748148" lon="9.4572489"><ele>40.0</ele><time>2026-04-21T14:38:39.316Z</time></trkpt><trkpt lat="44.2748307" lon="9.4573756"><ele>40.0</ele><time>2026-04-21T14:38:40.318Z</time></trkpt><trkpt lat="44.2748468" lon="9.4574985"><ele>40.0</ele><time>2026-04-21T14:38:41.31Z</time></trkpt><trkpt lat="44.2748707" lon="9.4576319"><ele>39.5</ele><time>2026-04-21T14:38:42.305Z</time></trkpt><trkpt lat="44.2749042" lon="9.4577781"><ele>39.0</ele><time>2026-04-21T14:38:43.305Z</time></trkpt><trkpt lat="44.2749418" lon="9.4579308"><ele>38.5</ele><time>2026-04-21T14:38:44.31Z</time></trkpt><trkpt lat="44.2749728" lon="9.4580953"><ele>38.0</ele><time>2026-04-21T14:38:45.31Z</time></trkpt><trkpt lat="44.274988" lon="9.458273"><ele>38.0</ele><time>2026-04-21T14:38:46.306Z</time></trkpt><trkpt lat="44.2749904" lon="9.4584586"><ele>38.0</ele><time>2026-04-21T14:38:47.314Z</time></trkpt><trkpt lat="44.2749841" lon="9.4586485"><ele>38.0</ele><time>2026-04-21T14:38:48.313Z</time></trkpt><trkpt lat="44.2749695" lon="9.4588384"><ele>38.0</ele><time>2026-04-21T14:38:49.312Z</time></trkpt><trkpt lat="44.2749535" lon="9.4590251"><ele>38.0</ele><time>2026-04-21T14:38:50.309Z</time></trkpt><trkpt lat="44.274955" lon="9.4592214"><ele>38.0</ele><time>2026-04-21T14:38:51.31Z</time></trkpt><trkpt lat="44.2749668" lon="9.459412"><ele>38.0</ele><time>2026-04-21T14:38:52.31Z</time></trkpt><trkpt lat="44.2749799" lon="9.4595958"><ele>38.0</ele><time>2026-04-21T14:38:53.314Z</time></trkpt><trkpt lat="44.2749977" lon="9.4597783"><ele>38.0</ele><time>2026-04-21T14:38:54.312Z</time></trkpt><trkpt lat="44.2750183" lon="9.4599665"><ele>38.0</ele><time>2026-04-21T14:38:55.309Z</time></trkpt><trkpt lat="44.2750384" lon="9.4601531"><ele>38.0</ele><time>2026-04-21T14:38:56.306Z</time></trkpt><trkpt lat="44.2750571" lon="9.4603317"><ele>38.0</ele><time>2026-04-21T14:38:57.309Z</time></trkpt><trkpt lat="44.2750775" lon="9.4604949"><ele>37.83333333333333</ele><time>2026-04-21T14:38:58.311Z</time></trkpt><trkpt lat="44.2750943" lon="9.4606295"><ele>37.666666666666664</ele><time>2026-04-21T14:38:59.312Z</time></trkpt><trkpt lat="44.275108" lon="9.4607477"><ele>37.5</ele><time>2026-04-21T14:39:00.309Z</time></trkpt><trkpt lat="44.2751224" lon="9.4608657"><ele>37.333333333333336</ele><time>2026-04-21T14:39:01.311Z</time></trkpt><trkpt lat="44.275138" lon="9.4609855"><ele>37.16666666666667</ele><time>2026-04-21T14:39:02.311Z</time></trkpt><trkpt lat="44.2751536" lon="9.4611094"><ele>37.0</ele><time>2026-04-21T14:39:03.312Z</time></trkpt><trkpt lat="44.2751688" lon="9.4612416"><ele>36.6</ele><time>2026-04-21T14:39:04.308Z</time></trkpt><trkpt lat="44.2751827" lon="9.4613825"><ele>36.2</ele><time>2026-04-21T14:39:05.305Z</time></trkpt><trkpt lat="44.2751946" lon="9.4615324"><ele>35.8</ele><time>2026-04-21T14:39:06.31Z</time></trkpt><trkpt lat="44.2752041" lon="9.4616811"><ele>35.4</ele><time>2026-04-21T14:39:07.312Z</time></trkpt><trkpt lat="44.2752103" lon="9.4618173"><ele>35.0</ele><time>2026-04-21T14:39:08.302Z</time></trkpt><trkpt lat="44.2752152" lon="9.4619384"><ele>35.0</ele><time>2026-04-21T14:39:09.306Z</time></trkpt><trkpt lat="44.2752153" lon="9.4620335"><ele>35.0</ele><time>2026-04-21T14:39:10.308Z</time></trkpt><trkpt lat="44.2752149" lon="9.4621812"><ele>35.0</ele><time>2026-04-21T14:39:12.303Z</time></trkpt><trkpt lat="44.2752076" lon="9.462344"><ele>35.0</ele><time>2026-04-21T14:39:14.311Z</time></trkpt><trkpt lat="44.2752106" lon="9.4624595"><ele>35.0</ele><time>2026-04-21T14:39:15.311Z</time></trkpt><trkpt lat="44.275218" lon="9.4625963"><ele>35.75</ele><time>2026-04-21T14:39:16.311Z</time></trkpt><trkpt lat="44.2752236" lon="9.4627546"><ele>36.5</ele><time>2026-04-21T14:39:17.31Z</time></trkpt><trkpt lat="44.2752195" lon="9.4629352"><ele>37.25</ele><time>2026-04-21T14:39:18.307Z</time></trkpt><trkpt lat="44.2752131" lon="9.4631288"><ele>38.0</ele><time>2026-04-21T14:39:19.313Z</time></trkpt><trkpt lat="44.2752109" lon="9.4633311"><ele>38.33333333333333</ele><time>2026-04-21T14:39:20.312Z</time></trkpt><trkpt lat="44.2752173" lon="9.463541"><ele>38.666666666666664</ele><time>2026-04-21T14:39:21.309Z</time></trkpt><trkpt lat="44.2752325" lon="9.4637529"><ele>39.0</ele><time>2026-04-21T14:39:22.309Z</time></trkpt><trkpt lat="44.2752511" lon="9.4639649"><ele>39.0</ele><time>2026-04-21T14:39:23.31Z</time></trkpt><trkpt lat="44.2752721" lon="9.4641648"><ele>39.0</ele><time>2026-04-21T14:39:24.308Z</time></trkpt><trkpt lat="44.275294" lon="9.4643527"><ele>39.0</ele><time>2026-04-21T14:39:25.306Z</time></trkpt><trkpt lat="44.2753146" lon="9.464529"><ele>39.0</ele><time>2026-04-21T14:39:26.306Z</time></trkpt><trkpt lat="44.2753353" lon="9.4646968"><ele>39.0</ele><time>2026-04-21T14:39:27.311Z</time></trkpt><trkpt lat="44.2753504" lon="9.4648604"><ele>39.0</ele><time>2026-04-21T14:39:28.309Z</time></trkpt><trkpt lat="44.2753631" lon="9.4650316"><ele>39.0</ele><time>2026-04-21T14:39:29.307Z</time></trkpt><trkpt lat="44.2753639" lon="9.4652103"><ele>39.0</ele><time>2026-04-21T14:39:30.307Z</time></trkpt><trkpt lat="44.2753443" lon="9.4653856"><ele>40.5</ele><time>2026-04-21T14:39:31.31Z</time></trkpt><trkpt lat="44.2752969" lon="9.4655573"><ele>42.0</ele><time>2026-04-21T14:39:32.311Z</time></trkpt><trkpt lat="44.2752265" lon="9.4657211"><ele>43.5</ele><time>2026-04-21T14:39:33.311Z</time></trkpt><trkpt lat="44.2751488" lon="9.4658773"><ele>45.0</ele><time>2026-04-21T14:39:34.31Z</time></trkpt><trkpt lat="44.2750779" lon="9.4660362"><ele>45.0</ele><time>2026-04-21T14:39:35.306Z</time></trkpt><trkpt lat="44.2750193" lon="9.4662011"><ele>45.0</ele><time>2026-04-21T14:39:36.308Z</time></trkpt><trkpt lat="44.2749726" lon="9.4663762"><ele>45.0</ele><time>2026-04-21T14:39:37.311Z</time></trkpt><trkpt lat="44.2749465" lon="9.4665623"><ele>45.0</ele><time>2026-04-21T14:39:38.312Z</time></trkpt><trkpt lat="44.2749378" lon="9.4667569"><ele>45.5</ele><time>2026-04-21T14:39:39.302Z</time></trkpt><trkpt lat="44.2749446" lon="9.4669507"><ele>46.0</ele><time>2026-04-21T14:39:40.303Z</time></trkpt><trkpt lat="44.274962" lon="9.4671312"><ele>46.5</ele><time>2026-04-21T14:39:41.307Z</time></trkpt><trkpt lat="44.2749828" lon="9.4672947"><ele>47.0</ele><time>2026-04-21T14:39:42.3Z</time></trkpt><trkpt lat="44.2749938" lon="9.4674436"><ele>47.400000000000006</ele><time>2026-04-21T14:39:43.311Z</time></trkpt><trkpt lat="44.2749899" lon="9.4675798"><ele>47.800000000000004</ele><time>2026-04-21T14:39:44.307Z</time></trkpt><trkpt lat="44.2749689" lon="9.4677113"><ele>48.2</ele><time>2026-04-21T14:39:45.309Z</time></trkpt><trkpt lat="44.2749255" lon="9.4678342"><ele>48.6</ele><time>2026-04-21T14:39:46.311Z</time></trkpt><trkpt lat="44.2748601" lon="9.4679469"><ele>49.0</ele><time>2026-04-21T14:39:47.305Z</time></trkpt><trkpt lat="44.2747753" lon="9.4680544"><ele>47.2</ele><time>2026-04-21T14:39:48.307Z</time></trkpt><trkpt lat="44.2746926" lon="9.4681704"><ele>45.400000000000006</ele><time>2026-04-21T14:39:49.305Z</time></trkpt><trkpt lat="44.2746206" lon="9.468289"><ele>43.6</ele><time>2026-04-21T14:39:50.303Z</time></trkpt><trkpt lat="44.2745652" lon="9.4684157"><ele>41.8</ele><time>2026-04-21T14:39:51.307Z</time></trkpt><trkpt lat="44.2745319" lon="9.4685515"><ele>40.0</ele><time>2026-04-21T14:39:52.304Z</time></trkpt><trkpt lat="44.2745248" lon="9.4686922"><ele>40.6</ele><time>2026-04-21T14:39:53.311Z</time></trkpt><trkpt lat="44.2745397" lon="9.4688205"><ele>41.2</ele><time>2026-04-21T14:39:54.308Z</time></trkpt><trkpt lat="44.2745793" lon="9.4689415"><ele>41.8</ele><time>2026-04-21T14:39:55.306Z</time></trkpt><trkpt lat="44.2746297" lon="9.4690531"><ele>42.4</ele><time>2026-04-21T14:39:56.31Z</time></trkpt><trkpt lat="44.2747" lon="9.4691437"><ele>43.0</ele><time>2026-04-21T14:39:57.307Z</time></trkpt><trkpt lat="44.2747894" lon="9.4692093"><ele>46.0</ele><time>2026-04-21T14:39:58.308Z</time></trkpt><trkpt lat="44.2748977" lon="9.4692581"><ele>49.0</ele><time>2026-04-21T14:39:59.301Z</time></trkpt><trkpt lat="44.2750156" lon="9.4692891"><ele>52.0</ele><time>2026-04-21T14:40:00.307Z</time></trkpt><trkpt lat="44.2751305" lon="9.4693121"><ele>55.0</ele><time>2026-04-21T14:40:01.307Z</time></trkpt><trkpt lat="44.2752421" lon="9.4693375"><ele>55.0</ele><time>2026-04-21T14:40:02.306Z</time></trkpt><trkpt lat="44.2753562" lon="9.469364"><ele>55.0</ele><time>2026-04-21T14:40:03.3Z</time></trkpt><trkpt lat="44.2754741" lon="9.4693941"><ele>55.0</ele><time>2026-04-21T14:40:04.306Z</time></trkpt><trkpt lat="44.2755951" lon="9.4694207"><ele>55.0</ele><time>2026-04-21T14:40:05.299Z</time></trkpt><trkpt lat="44.2757196" lon="9.4694334"><ele>56.25</ele><time>2026-04-21T14:40:06.302Z</time></trkpt><trkpt lat="44.2758523" lon="9.4694293"><ele>57.5</ele><time>2026-04-21T14:40:07.305Z</time></trkpt><trkpt lat="44.2759842" lon="9.469421"><ele>58.75</ele><time>2026-04-21T14:40:08.306Z</time></trkpt><trkpt lat="44.2761096" lon="9.4694186"><ele>60.0</ele><time>2026-04-21T14:40:09.305Z</time></trkpt><trkpt lat="44.276235" lon="9.4694255"><ele>60.0</ele><time>2026-04-21T14:40:10.304Z</time></trkpt><trkpt lat="44.2763572" lon="9.4694447"><ele>60.0</ele><time>2026-04-21T14:40:11.308Z</time></trkpt><trkpt lat="44.2764707" lon="9.469476"><ele>60.0</ele><time>2026-04-21T14:40:12.307Z</time></trkpt><trkpt lat="44.2765696" lon="9.4695358"><ele>60.0</ele><time>2026-04-21T14:40:13.307Z</time></trkpt><trkpt lat="44.2766488" lon="9.4696334"><ele>58.0</ele><time>2026-04-21T14:40:14.306Z</time></trkpt><trkpt lat="44.2767076" lon="9.4697549"><ele>56.0</ele><time>2026-04-21T14:40:15.302Z</time></trkpt><trkpt lat="44.2767535" lon="9.4698993"><ele>54.0</ele><time>2026-04-21T14:40:16.306Z</time></trkpt><trkpt lat="44.2767791" lon="9.4700434"><ele>52.0</ele><time>2026-04-21T14:40:17.306Z</time></trkpt><trkpt lat="44.2767713" lon="9.4701959"><ele>50.0</ele><time>2026-04-21T14:40:18.308Z</time></trkpt><trkpt lat="44.2767392" lon="9.4703447"><ele>49.8</ele><time>2026-04-21T14:40:19.305Z</time></trkpt><trkpt lat="44.2766833" lon="9.4704807"><ele>49.6</ele><time>2026-04-21T14:40:20.298Z</time></trkpt><trkpt lat="44.276618" lon="9.4705898"><ele>49.400000000000006</ele><time>2026-04-21T14:40:21.303Z</time></trkpt><trkpt lat="44.2765541" lon="9.4706522"><ele>49.2</ele><time>2026-04-21T14:40:22.308Z</time></trkpt><trkpt lat="44.2764676" lon="9.470693"><ele>49.0</ele><time>2026-04-21T14:40:24.304Z</time></trkpt><trkpt lat="44.276399" lon="9.4707453"><ele>49.0</ele><time>2026-04-21T14:40:26.304Z</time></trkpt><trkpt lat="44.2762803" lon="9.4708627"><ele>49.0</ele><time>2026-04-21T14:40:28.303Z</time></trkpt><trkpt lat="44.2761913" lon="9.4709557"><ele>49.0</ele><time>2026-04-21T14:40:29.305Z</time></trkpt><trkpt lat="44.2760939" lon="9.4710538"><ele>49.0</ele><time>2026-04-21T14:40:30.304Z</time></trkpt><trkpt lat="44.2759992" lon="9.4711539"><ele>49.0</ele><time>2026-04-21T14:40:31.305Z</time></trkpt><trkpt lat="44.275907" lon="9.4712571"><ele>49.0</ele><time>2026-04-21T14:40:32.31Z</time></trkpt><trkpt lat="44.2758237" lon="9.4713818"><ele>49.0</ele><time>2026-04-21T14:40:33.307Z</time></trkpt><trkpt lat="44.2757507" lon="9.4715083"><ele>49.0</ele><time>2026-04-21T14:40:34.305Z</time></trkpt><trkpt lat="44.2756851" lon="9.4716621"><ele>49.25</ele><time>2026-04-21T14:40:35.303Z</time></trkpt><trkpt lat="44.2756248" lon="9.4718299"><ele>49.5</ele><time>2026-04-21T14:40:36.307Z</time></trkpt><trkpt lat="44.2755641" lon="9.4720079"><ele>49.75</ele><time>2026-04-21T14:40:37.3Z</time></trkpt><trkpt lat="44.2754982" lon="9.4721915"><ele>50.0</ele><time>2026-04-21T14:40:38.311Z</time></trkpt><trkpt lat="44.2754273" lon="9.4723725"><ele>50.0</ele><time>2026-04-21T14:40:39.301Z</time></trkpt><trkpt lat="44.2753486" lon="9.4725334"><ele>50.0</ele><time>2026-04-21T14:40:40.308Z</time></trkpt><trkpt lat="44.2752588" lon="9.4726791"><ele>50.0</ele><time>2026-04-21T14:40:41.307Z</time></trkpt><trkpt lat="44.2751568" lon="9.4728119"><ele>50.0</ele><time>2026-04-21T14:40:42.304Z</time></trkpt><trkpt lat="44.2750506" lon="9.4729323"><ele>50.5</ele><time>2026-04-21T14:40:43.308Z</time></trkpt><trkpt lat="44.2749372" lon="9.473065"><ele>51.0</ele><time>2026-04-21T14:40:44.306Z</time></trkpt><trkpt lat="44.2748222" lon="9.4731994"><ele>51.5</ele><time>2026-04-21T14:40:45.311Z</time></trkpt><trkpt lat="44.2747027" lon="9.4733215"><ele>52.0</ele><time>2026-04-21T14:40:46.306Z</time></trkpt><trkpt lat="44.2745775" lon="9.4734197"><ele>52.0</ele><time>2026-04-21T14:40:47.302Z</time></trkpt><trkpt lat="44.2744418" lon="9.4734812"><ele>52.0</ele><time>2026-04-21T14:40:48.308Z</time></trkpt><trkpt lat="44.2742989" lon="9.4735195"><ele>52.0</ele><time>2026-04-21T14:40:49.308Z</time></trkpt><trkpt lat="44.2741562" lon="9.4735679"><ele>52.0</ele><time>2026-04-21T14:40:50.303Z</time></trkpt><trkpt lat="44.2740244" lon="9.4736492"><ele>51.75</ele><time>2026-04-21T14:40:51.305Z</time></trkpt><trkpt lat="44.2739123" lon="9.4737756"><ele>51.5</ele><time>2026-04-21T14:40:52.307Z</time></trkpt><trkpt lat="44.2738287" lon="9.4739355"><ele>51.25</ele><time>2026-04-21T14:40:53.305Z</time></trkpt><trkpt lat="44.2737594" lon="9.4740995"><ele>51.0</ele><time>2026-04-21T14:40:54.306Z</time></trkpt><trkpt lat="44.2736983" lon="9.4742577"><ele>51.0</ele><time>2026-04-21T14:40:55.306Z</time></trkpt><trkpt lat="44.2736539" lon="9.474423"><ele>51.0</ele><time>2026-04-21T14:40:56.306Z</time></trkpt><trkpt lat="44.2736185" lon="9.4745801"><ele>51.0</ele><time>2026-04-21T14:40:57.309Z</time></trkpt><trkpt lat="44.2736096" lon="9.474739"><ele>51.0</ele><time>2026-04-21T14:40:58.306Z</time></trkpt><trkpt lat="44.2736235" lon="9.4749032"><ele>52.0</ele><time>2026-04-21T14:40:59.304Z</time></trkpt><trkpt lat="44.2736521" lon="9.4750798"><ele>53.0</ele><time>2026-04-21T14:41:00.308Z</time></trkpt><trkpt lat="44.2736806" lon="9.4752566"><ele>54.0</ele><time>2026-04-21T14:41:01.308Z</time></trkpt><trkpt lat="44.2737048" lon="9.4754299"><ele>55.0</ele><time>2026-04-21T14:41:02.303Z</time></trkpt><trkpt lat="44.2737336" lon="9.4755957"><ele>55.25</ele><time>2026-04-21T14:41:03.312Z</time></trkpt><trkpt lat="44.2737501" lon="9.4757709"><ele>55.5</ele><time>2026-04-21T14:41:04.306Z</time></trkpt><trkpt lat="44.2737507" lon="9.4759452"><ele>55.75</ele><time>2026-04-21T14:41:05.308Z</time></trkpt><trkpt lat="44.2737316" lon="9.4761256"><ele>56.0</ele><time>2026-04-21T14:41:06.308Z</time></trkpt><trkpt lat="44.2736877" lon="9.4763008"><ele>56.5</ele><time>2026-04-21T14:41:07.307Z</time></trkpt><trkpt lat="44.2736336" lon="9.4764691"><ele>57.0</ele><time>2026-04-21T14:41:08.31Z</time></trkpt><trkpt lat="44.2735834" lon="9.4766223"><ele>57.5</ele><time>2026-04-21T14:41:09.309Z</time></trkpt><trkpt lat="44.2735414" lon="9.4767679"><ele>58.0</ele><time>2026-04-21T14:41:10.305Z</time></trkpt><trkpt lat="44.2735042" lon="9.4769136"><ele>58.0</ele><time>2026-04-21T14:41:11.305Z</time></trkpt><trkpt lat="44.2734684" lon="9.4770574"><ele>58.0</ele><time>2026-04-21T14:41:12.307Z</time></trkpt><trkpt lat="44.2734402" lon="9.4772052"><ele>58.0</ele><time>2026-04-21T14:41:13.309Z</time></trkpt><trkpt lat="44.2734224" lon="9.477364"><ele>58.0</ele><time>2026-04-21T14:41:14.306Z</time></trkpt><trkpt lat="44.2734087" lon="9.4775366"><ele>58.75</ele><time>2026-04-21T14:41:15.306Z</time></trkpt><trkpt lat="44.2733934" lon="9.4777109"><ele>59.5</ele><time>2026-04-21T14:41:16.308Z</time></trkpt><trkpt lat="44.273367" lon="9.4778836"><ele>60.25</ele><time>2026-04-21T14:41:17.306Z</time></trkpt><trkpt lat="44.2733349" lon="9.4780511"><ele>61.0</ele><time>2026-04-21T14:41:18.308Z</time></trkpt><trkpt lat="44.2732945" lon="9.4782038"><ele>61.199999999999996</ele><time>2026-04-21T14:41:19.302Z</time></trkpt><trkpt lat="44.2732487" lon="9.4783439"><ele>61.39999999999999</ele><time>2026-04-21T14:41:20.31Z</time></trkpt><trkpt lat="44.2732042" lon="9.4784816"><ele>61.6</ele><time>2026-04-21T14:41:21.309Z</time></trkpt><trkpt lat="44.2731627" lon="9.4786165"><ele>61.8</ele><time>2026-04-21T14:41:22.307Z</time></trkpt><trkpt lat="44.2731208" lon="9.4787564"><ele>62.0</ele><time>2026-04-21T14:41:23.31Z</time></trkpt><trkpt lat="44.2730862" lon="9.4788876"><ele>64.0</ele><time>2026-04-21T14:41:24.304Z</time></trkpt><trkpt lat="44.2730623" lon="9.479014"><ele>66.0</ele><time>2026-04-21T14:41:25.302Z</time></trkpt><trkpt lat="44.2730483" lon="9.4791443"><ele>68.0</ele><time>2026-04-21T14:41:26.302Z</time></trkpt><trkpt lat="44.2730442" lon="9.4792813"><ele>70.0</ele><time>2026-04-21T14:41:27.31Z</time></trkpt><trkpt lat="44.2730523" lon="9.4794315"><ele>72.0</ele><time>2026-04-21T14:41:28.308Z</time></trkpt><trkpt lat="44.2730748" lon="9.4795899"><ele>69.25</ele><time>2026-04-21T14:41:29.308Z</time></trkpt><trkpt lat="44.2731108" lon="9.4797557"><ele>66.5</ele><time>2026-04-21T14:41:30.303Z</time></trkpt><trkpt lat="44.2731595" lon="9.4799262"><ele>63.75</ele><time>2026-04-21T14:41:31.307Z</time></trkpt><trkpt lat="44.2732301" lon="9.4800863"><ele>61.0</ele><time>2026-04-21T14:41:32.31Z</time></trkpt><trkpt lat="44.2733234" lon="9.4802289"><ele>61.0</ele><time>2026-04-21T14:41:33.314Z</time></trkpt><trkpt lat="44.2734354" lon="9.4803474"><ele>61.0</ele><time>2026-04-21T14:41:34.308Z</time></trkpt><trkpt lat="44.2735466" lon="9.4804354"><ele>61.0</ele><time>2026-04-21T14:41:35.307Z</time></trkpt><trkpt lat="44.2736486" lon="9.4804929"><ele>61.0</ele><time>2026-04-21T14:41:36.308Z</time></trkpt><trkpt lat="44.2737436" lon="9.4805387"><ele>62.0</ele><time>2026-04-21T14:41:37.307Z</time></trkpt><trkpt lat="44.2738416" lon="9.4805898"><ele>63.0</ele><time>2026-04-21T14:41:38.309Z</time></trkpt><trkpt lat="44.2739456" lon="9.4806466"><ele>64.0</ele><time>2026-04-21T14:41:39.309Z</time></trkpt><trkpt lat="44.2740538" lon="9.4807062"><ele>65.0</ele><time>2026-04-21T14:41:40.306Z</time></trkpt><trkpt lat="44.2741605" lon="9.4807801"><ele>65.0</ele><time>2026-04-21T14:41:41.306Z</time></trkpt><trkpt lat="44.2742588" lon="9.4808684"><ele>65.0</ele><time>2026-04-21T14:41:42.308Z</time></trkpt><trkpt lat="44.2743493" lon="9.4809729"><ele>65.0</ele><time>2026-04-21T14:41:43.303Z</time></trkpt><trkpt lat="44.2744356" lon="9.4810942"><ele>65.0</ele><time>2026-04-21T14:41:44.307Z</time></trkpt><trkpt lat="44.2745148" lon="9.4812287"><ele>66.0</ele><time>2026-04-21T14:41:45.301Z</time></trkpt><trkpt lat="44.2745811" lon="9.4813639"><ele>67.0</ele><time>2026-04-21T14:41:46.306Z</time></trkpt><trkpt lat="44.2746448" lon="9.4815126"><ele>68.0</ele><time>2026-04-21T14:41:47.301Z</time></trkpt><trkpt lat="44.2747072" lon="9.4816697"><ele>69.0</ele><time>2026-04-21T14:41:48.308Z</time></trkpt><trkpt lat="44.2747665" lon="9.4818323"><ele>70.75</ele><time>2026-04-21T14:41:49.305Z</time></trkpt><trkpt lat="44.2748094" lon="9.4820029"><ele>72.5</ele><time>2026-04-21T14:41:50.308Z</time></trkpt><trkpt lat="44.2748425" lon="9.4821853"><ele>74.25</ele><time>2026-04-21T14:41:51.304Z</time></trkpt><trkpt lat="44.2748743" lon="9.4823714"><ele>76.0</ele><time>2026-04-21T14:41:52.298Z</time></trkpt><trkpt lat="44.2749072" lon="9.4825533"><ele>76.5</ele><time>2026-04-21T14:41:53.304Z</time></trkpt><trkpt lat="44.2749403" lon="9.4827377"><ele>77.0</ele><time>2026-04-21T14:41:54.296Z</time></trkpt><trkpt lat="44.2749739" lon="9.4829358"><ele>77.5</ele><time>2026-04-21T14:41:55.303Z</time></trkpt><trkpt lat="44.2750033" lon="9.4831321"><ele>78.0</ele><time>2026-04-21T14:41:56.304Z</time></trkpt><trkpt lat="44.2750263" lon="9.4833201"><ele>80.4</ele><time>2026-04-21T14:41:57.305Z</time></trkpt><trkpt lat="44.2750427" lon="9.4834942"><ele>82.8</ele><time>2026-04-21T14:41:58.306Z</time></trkpt><trkpt lat="44.2750527" lon="9.4836423"><ele>85.2</ele><time>2026-04-21T14:41:59.3Z</time></trkpt><trkpt lat="44.2750555" lon="9.4837569"><ele>87.6</ele><time>2026-04-21T14:42:00.299Z</time></trkpt><trkpt lat="44.2750435" lon="9.4838616"><ele>90.0</ele><time>2026-04-21T14:42:02.303Z</time></trkpt><trkpt lat="44.2750316" lon="9.4839488"><ele>91.2</ele><time>2026-04-21T14:42:06.304Z</time></trkpt><trkpt lat="44.2749761" lon="9.4840351"><ele>92.4</ele><time>2026-04-21T14:43:07.32Z</time></trkpt><trkpt lat="44.2749916" lon="9.4841618"><ele>93.6</ele><time>2026-04-21T14:43:09.317Z</time></trkpt><trkpt lat="44.2750064" lon="9.4842683"><ele>94.8</ele><time>2026-04-21T14:43:11.307Z</time></trkpt><trkpt lat="44.2750044" lon="9.4844003"><ele>96.0</ele><time>2026-04-21T14:43:13.316Z</time></trkpt><trkpt lat="44.2750114" lon="9.4845569"><ele>95.5</ele><time>2026-04-21T14:43:15.307Z</time></trkpt><trkpt lat="44.2750101" lon="9.4846559"><ele>95.0</ele><time>2026-04-21T14:43:16.316Z</time></trkpt><trkpt lat="44.2750078" lon="9.4847671"><ele>94.5</ele><time>2026-04-21T14:43:17.307Z</time></trkpt><trkpt lat="44.2750027" lon="9.4848868"><ele>94.0</ele><time>2026-04-21T14:43:18.319Z</time></trkpt><trkpt lat="44.2749954" lon="9.4850084"><ele>93.5</ele><time>2026-04-21T14:43:19.317Z</time></trkpt><trkpt lat="44.2749852" lon="9.4851329"><ele>93.0</ele><time>2026-04-21T14:43:20.319Z</time></trkpt><trkpt lat="44.2749701" lon="9.4852584"><ele>93.0</ele><time>2026-04-21T14:43:21.308Z</time></trkpt><trkpt lat="44.2749617" lon="9.4853943"><ele>93.0</ele><time>2026-04-21T14:43:22.318Z</time></trkpt><trkpt lat="44.2749497" lon="9.4855456"><ele>93.0</ele><time>2026-04-21T14:43:23.321Z</time></trkpt><trkpt lat="44.2749403" lon="9.4857121"><ele>93.0</ele><time>2026-04-21T14:43:24.308Z</time></trkpt><trkpt lat="44.2749209" lon="9.4858955"><ele>92.5</ele><time>2026-04-21T14:43:25.315Z</time></trkpt><trkpt lat="44.274894" lon="9.4860876"><ele>92.0</ele><time>2026-04-21T14:43:26.308Z</time></trkpt><trkpt lat="44.2748686" lon="9.486278"><ele>91.5</ele><time>2026-04-21T14:43:27.317Z</time></trkpt><trkpt lat="44.2748403" lon="9.486462"><ele>91.0</ele><time>2026-04-21T14:43:28.317Z</time></trkpt><trkpt lat="44.2748106" lon="9.4866394"><ele>90.5</ele><time>2026-04-21T14:43:29.32Z</time></trkpt><trkpt lat="44.2747743" lon="9.4868077"><ele>90.0</ele><time>2026-04-21T14:43:30.309Z</time></trkpt><trkpt lat="44.2747278" lon="9.4869645"><ele>89.5</ele><time>2026-04-21T14:43:31.322Z</time></trkpt><trkpt lat="44.2746714" lon="9.4871107"><ele>89.0</ele><time>2026-04-21T14:43:32.323Z</time></trkpt><trkpt lat="44.2746087" lon="9.4872549"><ele>96.75</ele><time>2026-04-21T14:43:33.312Z</time></trkpt><trkpt lat="44.2745401" lon="9.4873964"><ele>104.5</ele><time>2026-04-21T14:43:34.319Z</time></trkpt><trkpt lat="44.2744701" lon="9.48754"><ele>112.25</ele><time>2026-04-21T14:43:35.31Z</time></trkpt><trkpt lat="44.2744026" lon="9.487694"><ele>120.0</ele><time>2026-04-21T14:43:36.323Z</time></trkpt><trkpt lat="44.2743448" lon="9.4878584"><ele>117.75</ele><time>2026-04-21T14:43:37.307Z</time></trkpt><trkpt lat="44.2743031" lon="9.4880369"><ele>115.5</ele><time>2026-04-21T14:43:38.325Z</time></trkpt><trkpt lat="44.2742697" lon="9.4882147"><ele>113.25</ele><time>2026-04-21T14:43:39.323Z</time></trkpt><trkpt lat="44.2742456" lon="9.4883835"><ele>111.0</ele><time>2026-04-21T14:43:40.307Z</time></trkpt><trkpt lat="44.2742357" lon="9.4885441"><ele>111.0</ele><time>2026-04-21T14:43:41.317Z</time></trkpt><trkpt lat="44.274245" lon="9.488704"><ele>111.0</ele><time>2026-04-21T14:43:42.318Z</time></trkpt><trkpt lat="44.2742842" lon="9.4888522"><ele>111.0</ele><time>2026-04-21T14:43:43.317Z</time></trkpt><trkpt lat="44.2743308" lon="9.4890042"><ele>111.0</ele><time>2026-04-21T14:43:44.32Z</time></trkpt><trkpt lat="44.2743759" lon="9.4891541"><ele>111.5</ele><time>2026-04-21T14:43:45.297Z</time></trkpt><trkpt lat="44.2744204" lon="9.4893158"><ele>112.0</ele><time>2026-04-21T14:43:46.308Z</time></trkpt><trkpt lat="44.2744515" lon="9.489488"><ele>112.5</ele><time>2026-04-21T14:43:47.318Z</time></trkpt><trkpt lat="44.2744707" lon="9.4896546"><ele>113.0</ele><time>2026-04-21T14:43:48.32Z</time></trkpt><trkpt lat="44.2744809" lon="9.4898082"><ele>114.0</ele><time>2026-04-21T14:43:49.322Z</time></trkpt><trkpt lat="44.2744744" lon="9.4899673"><ele>115.00000000000001</ele><time>2026-04-21T14:43:50.317Z</time></trkpt><trkpt lat="44.274463" lon="9.4900943"><ele>116.00000000000001</ele><time>2026-04-21T14:43:51.316Z</time></trkpt><trkpt lat="44.2744079" lon="9.4902305"><ele>117.0</ele><time>2026-04-21T14:43:52.32Z</time></trkpt><trkpt lat="44.274349" lon="9.4903883"><ele>118.0</ele><time>2026-04-21T14:43:53.318Z</time></trkpt><trkpt lat="44.2742911" lon="9.4905424"><ele>118.0</ele><time>2026-04-21T14:43:54.322Z</time></trkpt><trkpt lat="44.2742374" lon="9.4907005"><ele>118.0</ele><time>2026-04-21T14:43:55.305Z</time></trkpt><trkpt lat="44.274198" lon="9.4908662"><ele>118.0</ele><time>2026-04-21T14:43:56.318Z</time></trkpt><trkpt lat="44.2741808" lon="9.4910309"><ele>118.0</ele><time>2026-04-21T14:43:57.32Z</time></trkpt><trkpt lat="44.2742006" lon="9.4911926"><ele>119.25</ele><time>2026-04-21T14:43:58.319Z</time></trkpt><trkpt lat="44.2742433" lon="9.4913476"><ele>120.5</ele><time>2026-04-21T14:43:59.32Z</time></trkpt><trkpt lat="44.2743055" lon="9.4914991"><ele>121.75</ele><time>2026-04-21T14:44:00.318Z</time></trkpt><trkpt lat="44.2743727" lon="9.4916402"><ele>123.0</ele><time>2026-04-21T14:44:01.319Z</time></trkpt><trkpt lat="44.2744552" lon="9.4917802"><ele>123.0</ele><time>2026-04-21T14:44:02.318Z</time></trkpt><trkpt lat="44.2745559" lon="9.4919016"><ele>123.0</ele><time>2026-04-21T14:44:03.321Z</time></trkpt><trkpt lat="44.2746694" lon="9.4919951"><ele>123.0</ele><time>2026-04-21T14:44:04.319Z</time></trkpt><trkpt lat="44.274791" lon="9.492054"><ele>123.0</ele><time>2026-04-21T14:44:05.323Z</time></trkpt><trkpt lat="44.2749054" lon="9.4920684"><ele>120.0</ele><time>2026-04-21T14:44:06.32Z</time></trkpt><trkpt lat="44.2750085" lon="9.4921042"><ele>117.00000000000001</ele><time>2026-04-21T14:44:07.321Z</time></trkpt><trkpt lat="44.2750975" lon="9.4921441"><ele>114.00000000000001</ele><time>2026-04-21T14:44:08.326Z</time></trkpt><trkpt lat="44.27518" lon="9.4921927"><ele>111.0</ele><time>2026-04-21T14:44:09.325Z</time></trkpt><trkpt lat="44.2752546" lon="9.4922661"><ele>108.0</ele><time>2026-04-21T14:44:10.318Z</time></trkpt><trkpt lat="44.2753061" lon="9.4923838"><ele>108.0</ele><time>2026-04-21T14:44:11.32Z</time></trkpt><trkpt lat="44.2753279" lon="9.4925297"><ele>108.00000000000001</ele><time>2026-04-21T14:44:12.308Z</time></trkpt><trkpt lat="44.2753269" lon="9.4926916"><ele>108.00000000000001</ele><time>2026-04-21T14:44:13.307Z</time></trkpt><trkpt lat="44.275293" lon="9.4928333"><ele>108.0</ele><time>2026-04-21T14:44:14.32Z</time></trkpt><trkpt lat="44.2752219" lon="9.4929483"><ele>108.0</ele><time>2026-04-21T14:44:15.316Z</time></trkpt><trkpt lat="44.2751277" lon="9.4930268"><ele>107.80000000000001</ele><time>2026-04-21T14:44:16.318Z</time></trkpt><trkpt lat="44.2750404" lon="9.4931073"><ele>107.60000000000001</ele><time>2026-04-21T14:44:17.318Z</time></trkpt><trkpt lat="44.2749719" lon="9.4931837"><ele>107.39999999999999</ele><time>2026-04-21T14:44:18.323Z</time></trkpt><trkpt lat="44.2749178" lon="9.4932658"><ele>107.19999999999999</ele><time>2026-04-21T14:44:19.319Z</time></trkpt><trkpt lat="44.2748649" lon="9.4933778"><ele>107.0</ele><time>2026-04-21T14:44:20.304Z</time></trkpt><trkpt lat="44.2748173" lon="9.4935081"><ele>107.0</ele><time>2026-04-21T14:44:21.319Z</time></trkpt><trkpt lat="44.274779" lon="9.4936645"><ele>107.0</ele><time>2026-04-21T14:44:22.315Z</time></trkpt><trkpt lat="44.274741" lon="9.4938335"><ele>107.0</ele><time>2026-04-21T14:44:23.312Z</time></trkpt><trkpt lat="44.2746984" lon="9.4940108"><ele>107.0</ele><time>2026-04-21T14:44:24.319Z</time></trkpt><trkpt lat="44.274651" lon="9.4942074"><ele>108.25</ele><time>2026-04-21T14:44:25.327Z</time></trkpt><trkpt lat="44.2746068" lon="9.494404"><ele>109.5</ele><time>2026-04-21T14:44:26.32Z</time></trkpt><trkpt lat="44.2745632" lon="9.4946004"><ele>110.75</ele><time>2026-04-21T14:44:27.322Z</time></trkpt><trkpt lat="44.2745198" lon="9.4947838"><ele>112.0</ele><time>2026-04-21T14:44:28.321Z</time></trkpt><trkpt lat="44.2744854" lon="9.4949575"><ele>112.0</ele><time>2026-04-21T14:44:29.327Z</time></trkpt><trkpt lat="44.2744701" lon="9.4951292"><ele>111.99999999999999</ele><time>2026-04-21T14:44:30.326Z</time></trkpt><trkpt lat="44.2744799" lon="9.4952883"><ele>111.99999999999999</ele><time>2026-04-21T14:44:31.323Z</time></trkpt><trkpt lat="44.2745159" lon="9.4954193"><ele>112.0</ele><time>2026-04-21T14:44:32.321Z</time></trkpt><trkpt lat="44.2745734" lon="9.4955165"><ele>112.0</ele><time>2026-04-21T14:44:33.33Z</time></trkpt><trkpt lat="44.2746574" lon="9.495603"><ele>112.0</ele><time>2026-04-21T14:44:34.327Z</time></trkpt><trkpt lat="44.2747529" lon="9.4956638"><ele>111.99999999999999</ele><time>2026-04-21T14:44:35.321Z</time></trkpt><trkpt lat="44.2748436" lon="9.4957273"><ele>111.99999999999999</ele><time>2026-04-21T14:44:36.314Z</time></trkpt><trkpt lat="44.2749362" lon="9.4957908"><ele>112.0</ele><time>2026-04-21T14:44:37.31Z</time></trkpt><trkpt lat="44.2750271" lon="9.4958421"><ele>112.0</ele><time>2026-04-21T14:44:38.322Z</time></trkpt><trkpt lat="44.2751097" lon="9.4958923"><ele>112.14285714285714</ele><time>2026-04-21T14:44:39.322Z</time></trkpt><trkpt lat="44.2751899" lon="9.4959312"><ele>112.28571428571428</ele><time>2026-04-21T14:44:40.324Z</time></trkpt><trkpt lat="44.2752624" lon="9.495943"><ele>112.42857142857143</ele><time>2026-04-21T14:44:41.32Z</time></trkpt><trkpt lat="44.2753281" lon="9.4959172"><ele>112.57142857142857</ele><time>2026-04-21T14:44:42.319Z</time></trkpt><trkpt lat="44.2753787" lon="9.4958573"><ele>112.71428571428571</ele><time>2026-04-21T14:44:43.324Z</time></trkpt><trkpt lat="44.2754235" lon="9.4957837"><ele>112.85714285714286</ele><time>2026-04-21T14:44:44.309Z</time></trkpt><trkpt lat="44.2754796" lon="9.4957417"><ele>113.0</ele><time>2026-04-21T14:44:45.323Z</time></trkpt><trkpt lat="44.2755434" lon="9.4958284"><ele>113.0</ele><time>2026-04-21T14:44:47.319Z</time></trkpt><trkpt lat="44.2755598" lon="9.4959799"><ele>113.0</ele><time>2026-04-21T14:44:49.313Z</time></trkpt><trkpt lat="44.2752211" lon="9.4960928"><ele>112.0</ele><time>2026-04-21T14:44:54.319Z</time></trkpt><trkpt lat="44.2747607" lon="9.4960414"><ele>112.0</ele><time>2026-04-21T14:45:01.319Z</time></trkpt><trkpt lat="44.274725" lon="9.4961315"><ele>111.99999999999999</ele><time>2026-04-21T14:45:04.317Z</time></trkpt><trkpt lat="44.2747376" lon="9.4962938"><ele>111.99999999999999</ele><time>2026-04-21T14:45:06.319Z</time></trkpt><trkpt lat="44.2747549" lon="9.4964158"><ele>112.0</ele><time>2026-04-21T14:45:07.321Z</time></trkpt><trkpt lat="44.2747744" lon="9.496552"><ele>112.0</ele><time>2026-04-21T14:45:08.324Z</time></trkpt><trkpt lat="44.2747927" lon="9.4967148"><ele>115.25</ele><time>2026-04-21T14:45:09.318Z</time></trkpt><trkpt lat="44.2748108" lon="9.4968811"><ele>118.5</ele><time>2026-04-21T14:45:10.317Z</time></trkpt><trkpt lat="44.274828" lon="9.4970548"><ele>121.75</ele><time>2026-04-21T14:45:11.324Z</time></trkpt><trkpt lat="44.274839" lon="9.4972241"><ele>125.0</ele><time>2026-04-21T14:45:12.327Z</time></trkpt><trkpt lat="44.2748455" lon="9.4973931"><ele>126.25</ele><time>2026-04-21T14:45:13.326Z</time></trkpt><trkpt lat="44.2748452" lon="9.4975565"><ele>127.5</ele><time>2026-04-21T14:45:14.327Z</time></trkpt><trkpt lat="44.2748412" lon="9.49772"><ele>128.75</ele><time>2026-04-21T14:45:15.308Z</time></trkpt><trkpt lat="44.2748397" lon="9.4978883"><ele>130.0</ele><time>2026-04-21T14:45:16.322Z</time></trkpt><trkpt lat="44.2748423" lon="9.4980609"><ele>130.5</ele><time>2026-04-21T14:45:17.319Z</time></trkpt><trkpt lat="44.2748519" lon="9.4982416"><ele>131.0</ele><time>2026-04-21T14:45:18.323Z</time></trkpt><trkpt lat="44.2748729" lon="9.4984284"><ele>131.5</ele><time>2026-04-21T14:45:19.318Z</time></trkpt><trkpt lat="44.2749066" lon="9.4986189"><ele>132.0</ele><time>2026-04-21T14:45:20.318Z</time></trkpt><trkpt lat="44.2749574" lon="9.4988109"><ele>132.0</ele><time>2026-04-21T14:45:21.319Z</time></trkpt><trkpt lat="44.2750202" lon="9.4990021"><ele>132.0</ele><time>2026-04-21T14:45:22.31Z</time></trkpt><trkpt lat="44.2750771" lon="9.4991912"><ele>132.0</ele><time>2026-04-21T14:45:23.324Z</time></trkpt><trkpt lat="44.2751199" lon="9.4993776"><ele>132.0</ele><time>2026-04-21T14:45:24.321Z</time></trkpt><trkpt lat="44.2751474" lon="9.4995561"><ele>132.75</ele><time>2026-04-21T14:45:25.323Z</time></trkpt><trkpt lat="44.2751655" lon="9.4997374"><ele>133.5</ele><time>2026-04-21T14:45:26.316Z</time></trkpt><trkpt lat="44.2751699" lon="9.4999197"><ele>134.25</ele><time>2026-04-21T14:45:27.318Z</time></trkpt><trkpt lat="44.2751611" lon="9.5001022"><ele>135.0</ele><time>2026-04-21T14:45:28.319Z</time></trkpt><trkpt lat="44.2751399" lon="9.5002813"><ele>138.5</ele><time>2026-04-21T14:45:29.32Z</time></trkpt><trkpt lat="44.275104" lon="9.5004557"><ele>142.0</ele><time>2026-04-21T14:45:30.313Z</time></trkpt><trkpt lat="44.2750519" lon="9.5006256"><ele>145.5</ele><time>2026-04-21T14:45:31.307Z</time></trkpt><trkpt lat="44.2749939" lon="9.5008"><ele>149.0</ele><time>2026-04-21T14:45:32.32Z</time></trkpt><trkpt lat="44.2749388" lon="9.5009769"><ele>149.0</ele><time>2026-04-21T14:45:33.319Z</time></trkpt><trkpt lat="44.2748775" lon="9.5011451"><ele>149.0</ele><time>2026-04-21T14:45:34.321Z</time></trkpt><trkpt lat="44.2748021" lon="9.5012831"><ele>149.0</ele><time>2026-04-21T14:45:35.318Z</time></trkpt><trkpt lat="44.2747106" lon="9.5014031"><ele>149.0</ele><time>2026-04-21T14:45:36.317Z</time></trkpt><trkpt lat="44.2746056" lon="9.5015076"><ele>149.5</ele><time>2026-04-21T14:45:37.321Z</time></trkpt><trkpt lat="44.2744863" lon="9.5016051"><ele>150.0</ele><time>2026-04-21T14:45:38.303Z</time></trkpt><trkpt lat="44.274363" lon="9.5016995"><ele>150.5</ele><time>2026-04-21T14:45:39.316Z</time></trkpt><trkpt lat="44.2742381" lon="9.5017848"><ele>151.0</ele><time>2026-04-21T14:45:40.318Z</time></trkpt><trkpt lat="44.2741213" lon="9.5018689"><ele>151.0</ele><time>2026-04-21T14:45:41.314Z</time></trkpt><trkpt lat="44.2740111" lon="9.5019502"><ele>151.0</ele><time>2026-04-21T14:45:42.308Z</time></trkpt><trkpt lat="44.2739024" lon="9.5020323"><ele>151.0</ele><time>2026-04-21T14:45:43.322Z</time></trkpt><trkpt lat="44.2737926" lon="9.5021017"><ele>151.0</ele><time>2026-04-21T14:45:44.31Z</time></trkpt><trkpt lat="44.2736817" lon="9.5021679"><ele>152.4</ele><time>2026-04-21T14:45:45.319Z</time></trkpt><trkpt lat="44.273572" lon="9.5022139"><ele>153.8</ele><time>2026-04-21T14:45:46.324Z</time></trkpt><trkpt lat="44.2734662" lon="9.5022463"><ele>155.20000000000002</ele><time>2026-04-21T14:45:47.325Z</time></trkpt><trkpt lat="44.2733643" lon="9.5022836"><ele>156.6</ele><time>2026-04-21T14:45:48.321Z</time></trkpt><trkpt lat="44.2732738" lon="9.5023424"><ele>158.0</ele><time>2026-04-21T14:45:49.32Z</time></trkpt><trkpt lat="44.2732041" lon="9.5024366"><ele>158.0</ele><time>2026-04-21T14:45:50.325Z</time></trkpt><trkpt lat="44.2731591" lon="9.5025477"><ele>158.0</ele><time>2026-04-21T14:45:51.324Z</time></trkpt><trkpt lat="44.2731265" lon="9.5026783"><ele>158.0</ele><time>2026-04-21T14:45:52.326Z</time></trkpt><trkpt lat="44.2730917" lon="9.5028143"><ele>158.0</ele><time>2026-04-21T14:45:53.328Z</time></trkpt><trkpt lat="44.2730544" lon="9.5029401"><ele>158.0</ele><time>2026-04-21T14:45:54.322Z</time></trkpt><trkpt lat="44.2729959" lon="9.5030603"><ele>156.6</ele><time>2026-04-21T14:45:55.325Z</time></trkpt><trkpt lat="44.2729194" lon="9.503168"><ele>155.20000000000002</ele><time>2026-04-21T14:45:56.32Z</time></trkpt><trkpt lat="44.2728453" lon="9.5032754"><ele>153.8</ele><time>2026-04-21T14:45:57.327Z</time></trkpt><trkpt lat="44.2727805" lon="9.503392"><ele>152.4</ele><time>2026-04-21T14:45:58.323Z</time></trkpt><trkpt lat="44.2727304" lon="9.5035231"><ele>151.0</ele><time>2026-04-21T14:45:59.321Z</time></trkpt><trkpt lat="44.2727071" lon="9.5036699"><ele>155.25</ele><time>2026-04-21T14:46:00.324Z</time></trkpt><trkpt lat="44.2726899" lon="9.5038386"><ele>159.5</ele><time>2026-04-21T14:46:01.318Z</time></trkpt><trkpt lat="44.2726676" lon="9.5040154"><ele>163.75</ele><time>2026-04-21T14:46:02.322Z</time></trkpt><trkpt lat="44.2726649" lon="9.5041855"><ele>168.0</ele><time>2026-04-21T14:46:03.325Z</time></trkpt><trkpt lat="44.2726841" lon="9.5043382"><ele>168.0</ele><time>2026-04-21T14:46:04.326Z</time></trkpt><trkpt lat="44.2727419" lon="9.5044758"><ele>168.0</ele><time>2026-04-21T14:46:05.325Z</time></trkpt><trkpt lat="44.2727711" lon="9.5045749"><ele>168.0</ele><time>2026-04-21T14:46:06.327Z</time></trkpt><trkpt lat="44.2727611" lon="9.5047559"><ele>168.0</ele><time>2026-04-21T14:46:08.323Z</time></trkpt><trkpt lat="44.2727156" lon="9.5048273"><ele>168.0</ele><time>2026-04-21T14:46:09.31Z</time></trkpt><trkpt lat="44.2726361" lon="9.5048507"><ele>167.0</ele><time>2026-04-21T14:46:10.324Z</time></trkpt><trkpt lat="44.2725458" lon="9.5048523"><ele>166.0</ele><time>2026-04-21T14:46:11.322Z</time></trkpt><trkpt lat="44.2724497" lon="9.5048227"><ele>165.0</ele><time>2026-04-21T14:46:12.325Z</time></trkpt><trkpt lat="44.272373" lon="9.5047453"><ele>164.0</ele><time>2026-04-21T14:46:13.319Z</time></trkpt><trkpt lat="44.2722964" lon="9.5046749"><ele>163.0</ele><time>2026-04-21T14:46:14.32Z</time></trkpt><trkpt lat="44.272215" lon="9.5046226"><ele>163.0</ele><time>2026-04-21T14:46:15.311Z</time></trkpt><trkpt lat="44.2721453" lon="9.5046167"><ele>163.0</ele><time>2026-04-21T14:46:16.315Z</time></trkpt><trkpt lat="44.272083" lon="9.5046494"><ele>163.0</ele><time>2026-04-21T14:46:17.321Z</time></trkpt><trkpt lat="44.2720297" lon="9.5047166"><ele>163.0</ele><time>2026-04-21T14:46:18.308Z</time></trkpt><trkpt lat="44.2719811" lon="9.5047957"><ele>163.0</ele><time>2026-04-21T14:46:19.314Z</time></trkpt><trkpt lat="44.2719881" lon="9.5048987"><ele>163.0</ele><time>2026-04-21T14:46:21.318Z</time></trkpt><trkpt lat="44.27203" lon="9.5050381"><ele>163.0</ele><time>2026-04-21T14:46:23.327Z</time></trkpt><trkpt lat="44.2720653" lon="9.50513"><ele>163.0</ele><time>2026-04-21T14:46:24.323Z</time></trkpt><trkpt lat="44.2721045" lon="9.5052276"><ele>163.0</ele><time>2026-04-21T14:46:25.314Z</time></trkpt><trkpt lat="44.2721608" lon="9.5053678"><ele>163.0</ele><time>2026-04-21T14:46:26.307Z</time></trkpt><trkpt lat="44.2722205" lon="9.5055224"><ele>163.0</ele><time>2026-04-21T14:46:27.329Z</time></trkpt><trkpt lat="44.2722899" lon="9.5056953"><ele>170.25</ele><time>2026-04-21T14:46:28.326Z</time></trkpt><trkpt lat="44.2723572" lon="9.5058545"><ele>177.5</ele><time>2026-04-21T14:46:29.33Z</time></trkpt><trkpt lat="44.2724237" lon="9.5060272"><ele>184.75</ele><time>2026-04-21T14:46:30.324Z</time></trkpt><trkpt lat="44.2724293" lon="9.5061611"><ele>192.0</ele><time>2026-04-21T14:46:31.329Z</time></trkpt><trkpt lat="44.2724068" lon="9.5062912"><ele>192.6</ele><time>2026-04-21T14:46:32.33Z</time></trkpt><trkpt lat="44.2723675" lon="9.50642"><ele>193.2</ele><time>2026-04-21T14:46:33.322Z</time></trkpt><trkpt lat="44.2723429" lon="9.5065544"><ele>193.8</ele><time>2026-04-21T14:46:34.324Z</time></trkpt><trkpt lat="44.2723434" lon="9.5066852"><ele>194.4</ele><time>2026-04-21T14:46:35.327Z</time></trkpt><trkpt lat="44.272352" lon="9.5068131"><ele>195.0</ele><time>2026-04-21T14:46:36.328Z</time></trkpt><trkpt lat="44.2723669" lon="9.5069454"><ele>194.5</ele><time>2026-04-21T14:46:37.308Z</time></trkpt><trkpt lat="44.2723871" lon="9.5070846"><ele>194.0</ele><time>2026-04-21T14:46:38.329Z</time></trkpt><trkpt lat="44.2724216" lon="9.5072148"><ele>193.5</ele><time>2026-04-21T14:46:39.328Z</time></trkpt><trkpt lat="44.2724649" lon="9.5073233"><ele>193.0</ele><time>2026-04-21T14:46:40.315Z</time></trkpt><trkpt lat="44.2725257" lon="9.5073956"><ele>192.5</ele><time>2026-04-21T14:46:41.324Z</time></trkpt><trkpt lat="44.2725933" lon="9.5074424"><ele>192.0</ele><time>2026-04-21T14:46:42.327Z</time></trkpt><trkpt lat="44.2726715" lon="9.5074752"><ele>192.0</ele><time>2026-04-21T14:46:43.327Z</time></trkpt><trkpt lat="44.2727402" lon="9.5074788"><ele>192.0</ele><time>2026-04-21T14:46:44.321Z</time></trkpt><trkpt lat="44.2728871" lon="9.507465"><ele>192.0</ele><time>2026-04-21T14:46:46.328Z</time></trkpt><trkpt lat="44.2730246" lon="9.5074643"><ele>192.0</ele><time>2026-04-21T14:46:47.32Z</time></trkpt><trkpt lat="44.273163" lon="9.5074671"><ele>195.5</ele><time>2026-04-21T14:46:48.326Z</time></trkpt><trkpt lat="44.2733075" lon="9.5074771"><ele>199.0</ele><time>2026-04-21T14:46:49.319Z</time></trkpt><trkpt lat="44.2734452" lon="9.5075104"><ele>202.5</ele><time>2026-04-21T14:46:50.324Z</time></trkpt><trkpt lat="44.2735806" lon="9.507562"><ele>206.0</ele><time>2026-04-21T14:46:51.324Z</time></trkpt><trkpt lat="44.2736969" lon="9.5076346"><ele>206.0</ele><time>2026-04-21T14:46:52.325Z</time></trkpt><trkpt lat="44.2738055" lon="9.5077396"><ele>206.0</ele><time>2026-04-21T14:46:53.325Z</time></trkpt><trkpt lat="44.2739089" lon="9.5078807"><ele>206.0</ele><time>2026-04-21T14:46:54.327Z</time></trkpt><trkpt lat="44.2739979" lon="9.508027"><ele>206.0</ele><time>2026-04-21T14:46:55.321Z</time></trkpt><trkpt lat="44.2740808" lon="9.5081791"><ele>207.5</ele><time>2026-04-21T14:46:56.327Z</time></trkpt><trkpt lat="44.2741577" lon="9.5083312"><ele>209.0</ele><time>2026-04-21T14:46:57.317Z</time></trkpt><trkpt lat="44.2742296" lon="9.5084814"><ele>210.5</ele><time>2026-04-21T14:46:58.319Z</time></trkpt><trkpt lat="44.2742878" lon="9.5086227"><ele>212.0</ele><time>2026-04-21T14:46:59.327Z</time></trkpt><trkpt lat="44.2743389" lon="9.5087539"><ele>212.50000000000003</ele><time>2026-04-21T14:47:00.324Z</time></trkpt><trkpt lat="44.2743784" lon="9.5088648"><ele>213.0</ele><time>2026-04-21T14:47:01.323Z</time></trkpt><trkpt lat="44.2744168" lon="9.5089484"><ele>213.5</ele><time>2026-04-21T14:47:02.323Z</time></trkpt><trkpt lat="44.274448" lon="9.5090924"><ele>214.0</ele><time>2026-04-21T14:47:04.324Z</time></trkpt><trkpt lat="44.2744126" lon="9.5092219"><ele>214.50000000000003</ele><time>2026-04-21T14:47:06.325Z</time></trkpt><trkpt lat="44.2743843" lon="9.5093102"><ele>215.0</ele><time>2026-04-21T14:47:07.307Z</time></trkpt><trkpt lat="44.2744492" lon="9.5093671"><ele>215.0</ele><time>2026-04-21T14:47:09.308Z</time></trkpt><trkpt lat="44.2745304" lon="9.5092071"><ele>215.0</ele><time>2026-04-21T14:47:11.299Z</time></trkpt><trkpt lat="44.2745494" lon="9.5090692"><ele>215.0</ele><time>2026-04-21T14:47:12.306Z</time></trkpt><trkpt lat="44.2745306" lon="9.5089308"><ele>215.0</ele><time>2026-04-21T14:47:13.302Z</time></trkpt><trkpt lat="44.2744856" lon="9.5087936"><ele>214.25</ele><time>2026-04-21T14:47:14.306Z</time></trkpt><trkpt lat="44.2744238" lon="9.5086524"><ele>213.5</ele><time>2026-04-21T14:47:15.308Z</time></trkpt><trkpt lat="44.2743617" lon="9.5084944"><ele>212.75</ele><time>2026-04-21T14:47:16.309Z</time></trkpt><trkpt lat="44.27431" lon="9.5083277"><ele>212.0</ele><time>2026-04-21T14:47:17.304Z</time></trkpt><trkpt lat="44.2742666" lon="9.50817"><ele>212.0</ele><time>2026-04-21T14:47:18.297Z</time></trkpt><trkpt lat="44.2742263" lon="9.5080239"><ele>212.0</ele><time>2026-04-21T14:47:19.3Z</time></trkpt><trkpt lat="44.2742029" lon="9.5078826"><ele>212.0</ele><time>2026-04-21T14:47:20.301Z</time></trkpt><trkpt lat="44.2742114" lon="9.5077466"><ele>212.0</ele><time>2026-04-21T14:47:21.302Z</time></trkpt><trkpt lat="44.2742249" lon="9.5076028"><ele>212.0</ele><time>2026-04-21T14:47:22.296Z</time></trkpt><trkpt lat="44.2742444" lon="9.5074596"><ele>212.6</ele><time>2026-04-21T14:47:23.306Z</time></trkpt><trkpt lat="44.2742766" lon="9.5073324"><ele>213.2</ele><time>2026-04-21T14:47:24.302Z</time></trkpt><trkpt lat="44.2743326" lon="9.5072295"><ele>213.8</ele><time>2026-04-21T14:47:25.304Z</time></trkpt><trkpt lat="44.2744137" lon="9.5071534"><ele>214.4</ele><time>2026-04-21T14:47:26.306Z</time></trkpt><trkpt lat="44.274515" lon="9.5071019"><ele>215.0</ele><time>2026-04-21T14:47:27.304Z</time></trkpt><trkpt lat="44.2746158" lon="9.507062"><ele>215.0</ele><time>2026-04-21T14:47:28.313Z</time></trkpt><trkpt lat="44.2747077" lon="9.5070137"><ele>215.0</ele><time>2026-04-21T14:47:29.304Z</time></trkpt><trkpt lat="44.2747945" lon="9.5069509"><ele>215.0</ele><time>2026-04-21T14:47:30.307Z</time></trkpt><trkpt lat="44.2748746" lon="9.5068759"><ele>215.0</ele><time>2026-04-21T14:47:31.308Z</time></trkpt><trkpt lat="44.2749548" lon="9.5067975"><ele>215.0</ele><time>2026-04-21T14:47:32.308Z</time></trkpt><trkpt lat="44.2750342" lon="9.5067191"><ele>215.8</ele><time>2026-04-21T14:47:33.308Z</time></trkpt><trkpt lat="44.2751148" lon="9.5066414"><ele>216.6</ele><time>2026-04-21T14:47:34.308Z</time></trkpt><trkpt lat="44.2751926" lon="9.5065586"><ele>217.39999999999998</ele><time>2026-04-21T14:47:35.306Z</time></trkpt><trkpt lat="44.2752706" lon="9.5064736"><ele>218.2</ele><time>2026-04-21T14:47:36.306Z</time></trkpt><trkpt lat="44.2753444" lon="9.5063795"><ele>219.0</ele><time>2026-04-21T14:47:37.306Z</time></trkpt><trkpt lat="44.275415" lon="9.5062847"><ele>217.0</ele><time>2026-04-21T14:47:38.308Z</time></trkpt><trkpt lat="44.2754804" lon="9.5061914"><ele>215.0</ele><time>2026-04-21T14:47:39.301Z</time></trkpt><trkpt lat="44.275542" lon="9.5060996"><ele>213.0</ele><time>2026-04-21T14:47:40.305Z</time></trkpt><trkpt lat="44.2755889" lon="9.5060013"><ele>211.0</ele><time>2026-04-21T14:47:41.306Z</time></trkpt><trkpt lat="44.2756171" lon="9.5058913"><ele>209.0</ele><time>2026-04-21T14:47:42.301Z</time></trkpt><trkpt lat="44.2756201" lon="9.5057701"><ele>207.0</ele><time>2026-04-21T14:47:43.306Z</time></trkpt><trkpt lat="44.2756003" lon="9.505657"><ele>207.0</ele><time>2026-04-21T14:47:44.302Z</time></trkpt><trkpt lat="44.2755745" lon="9.5055511"><ele>207.0</ele><time>2026-04-21T14:47:45.307Z</time></trkpt><trkpt lat="44.275574" lon="9.5054578"><ele>207.0</ele><time>2026-04-21T14:47:46.307Z</time></trkpt><trkpt lat="44.2755862" lon="9.5052894"><ele>207.0</ele><time>2026-04-21T14:47:48.302Z</time></trkpt><trkpt lat="44.2756072" lon="9.5051394"><ele>207.0</ele><time>2026-04-21T14:47:50.306Z</time></trkpt><trkpt lat="44.2756176" lon="9.5050207"><ele>210.2</ele><time>2026-04-21T14:47:52.305Z</time></trkpt><trkpt lat="44.2756294" lon="9.5049128"><ele>213.39999999999998</ele><time>2026-04-21T14:47:54.307Z</time></trkpt><trkpt lat="44.2756649" lon="9.5047752"><ele>216.60000000000002</ele><time>2026-04-21T14:47:56.306Z</time></trkpt><trkpt lat="44.2757142" lon="9.5046238"><ele>219.8</ele><time>2026-04-21T14:47:58.307Z</time></trkpt><trkpt lat="44.2757614" lon="9.5044778"><ele>223.0</ele><time>2026-04-21T14:48:00.306Z</time></trkpt><trkpt lat="44.2757961" lon="9.5043373"><ele>223.0</ele><time>2026-04-21T14:48:02.306Z</time></trkpt><trkpt lat="44.2758037" lon="9.504249"><ele>223.0</ele><time>2026-04-21T14:48:04.305Z</time></trkpt></trkseg></trk></gpx>